<?xml version='1.0' encoding='UTF-8'?><gpx version="1.1" creator="JPX - https://github.com/jenetics/jpx" xmlns="http://www.topografix.com/GPX/1/1"><trk><trkseg><trkpt lat="37.8392383" lon="15.1446917"><ele>535.0</ele><time>2026-04-26T07:37:36.054Z</time></trkpt><trkpt lat="37.839175" lon="15.1446917"><ele>535.0</ele><time>2026-04-26T07:37:51.054Z</time></trkpt><trkpt lat="37.8391317" lon="15.1447967"><ele>535.0</ele><time>2026-04-26T07:38:45.054Z</time></trkpt><trkpt lat="37.83907" lon="15.1448233"><ele>535.0</ele><time>2026-04-26T07:39:39.054Z</time></trkpt><trkpt lat="37.8390167" lon="15.1448767"><ele>535.0</ele><time>2026-04-26T07:39:49.054Z</time></trkpt><trkpt lat="37.8390817" lon="15.1449133"><ele>535.0</ele><time>2026-04-26T07:39:57.054Z</time></trkpt><trkpt lat="37.839155" lon="15.1448733"><ele>535.0</ele><time>2026-04-26T07:39:59.054Z</time></trkpt><trkpt lat="37.839245" lon="15.14484"><ele>535.3333333333334</ele><time>2026-04-26T07:40:01.054Z</time></trkpt><trkpt lat="37.83937" lon="15.1448233"><ele>535.6666666666667</ele><time>2026-04-26T07:40:03.054Z</time></trkpt><trkpt lat="37.839435" lon="15.1448167"><ele>536.0</ele><time>2026-04-26T07:40:04.054Z</time></trkpt><trkpt lat="37.8394983" lon="15.144805"><ele>536.3333333333334</ele><time>2026-04-26T07:40:05.054Z</time></trkpt><trkpt lat="37.8395617" lon="15.1447983"><ele>536.6666666666666</ele><time>2026-04-26T07:40:06.055Z</time></trkpt><trkpt lat="37.8396833" lon="15.1447783"><ele>537.0</ele><time>2026-04-26T07:40:08.054Z</time></trkpt><trkpt lat="37.83975" lon="15.1447583"><ele>537.0</ele><time>2026-04-26T07:40:09.055Z</time></trkpt><trkpt lat="37.8398167" lon="15.1447367"><ele>537.0</ele><time>2026-04-26T07:40:10.054Z</time></trkpt><trkpt lat="37.8399367" lon="15.144705"><ele>537.0</ele><time>2026-04-26T07:40:12.055Z</time></trkpt><trkpt lat="37.8400017" lon="15.1446467"><ele>537.0</ele><time>2026-04-26T07:40:14.054Z</time></trkpt><trkpt lat="37.8400533" lon="15.1445717"><ele>537.0</ele><time>2026-04-26T07:40:17.054Z</time></trkpt><trkpt lat="37.8401367" lon="15.14456"><ele>537.0</ele><time>2026-04-26T07:40:19.054Z</time></trkpt><trkpt lat="37.8402033" lon="15.1445467"><ele>537.1666666666666</ele><time>2026-04-26T07:40:20.054Z</time></trkpt><trkpt lat="37.84027" lon="15.1445233"><ele>537.3333333333334</ele><time>2026-04-26T07:40:21.054Z</time></trkpt><trkpt lat="37.8403333" lon="15.144505"><ele>537.5</ele><time>2026-04-26T07:40:22.054Z</time></trkpt><trkpt lat="37.8403967" lon="15.14448"><ele>537.6666666666667</ele><time>2026-04-26T07:40:23.054Z</time></trkpt><trkpt lat="37.840505" lon="15.1444433"><ele>537.8333333333334</ele><time>2026-04-26T07:40:25.054Z</time></trkpt><trkpt lat="37.8405733" lon="15.1443817"><ele>538.0</ele><time>2026-04-26T07:40:36.054Z</time></trkpt><trkpt lat="37.8406267" lon="15.1443267"><ele>538.0</ele><time>2026-04-26T07:40:38.054Z</time></trkpt><trkpt lat="37.84067" lon="15.1442667"><ele>538.0</ele><time>2026-04-26T07:40:41.054Z</time></trkpt><trkpt lat="37.8407183" lon="15.1442083"><ele>538.0</ele><time>2026-04-26T07:40:43.054Z</time></trkpt><trkpt lat="37.840785" lon="15.144145"><ele>538.0</ele><time>2026-04-26T07:40:45.054Z</time></trkpt><trkpt lat="37.8408417" lon="15.1440967"><ele>538.0</ele><time>2026-04-26T07:40:47.054Z</time></trkpt><trkpt lat="37.8408383" lon="15.14399"><ele>538.0</ele><time>2026-04-26T07:40:50.054Z</time></trkpt><trkpt lat="37.84076" lon="15.143895"><ele>538.3333333333334</ele><time>2026-04-26T07:40:52.055Z</time></trkpt><trkpt lat="37.8407017" lon="15.1438217"><ele>538.6666666666667</ele><time>2026-04-26T07:40:53.054Z</time></trkpt><trkpt lat="37.8406433" lon="15.1437517"><ele>539.0</ele><time>2026-04-26T07:40:54.054Z</time></trkpt><trkpt lat="37.8405833" lon="15.1436833"><ele>539.3333333333334</ele><time>2026-04-26T07:40:55.054Z</time></trkpt><trkpt lat="37.840525" lon="15.1436033"><ele>539.6666666666666</ele><time>2026-04-26T07:40:56.054Z</time></trkpt><trkpt lat="37.8404583" lon="15.1435383"><ele>540.0</ele><time>2026-04-26T07:40:57.054Z</time></trkpt><trkpt lat="37.84041" lon="15.1434583"><ele>540.0</ele><time>2026-04-26T07:40:58.054Z</time></trkpt><trkpt lat="37.8403633" lon="15.1433717"><ele>540.0</ele><time>2026-04-26T07:40:59.054Z</time></trkpt><trkpt lat="37.840305" lon="15.1432867"><ele>540.0</ele><time>2026-04-26T07:41:00.054Z</time></trkpt><trkpt lat="37.8402483" lon="15.143185"><ele>540.0</ele><time>2026-04-26T07:41:01.054Z</time></trkpt><trkpt lat="37.8401933" lon="15.1430967"><ele>540.0</ele><time>2026-04-26T07:41:02.054Z</time></trkpt><trkpt lat="37.8401333" lon="15.143"><ele>540.8</ele><time>2026-04-26T07:41:03.055Z</time></trkpt><trkpt lat="37.840075" lon="15.1429133"><ele>541.6</ele><time>2026-04-26T07:41:04.054Z</time></trkpt><trkpt lat="37.8400167" lon="15.14282"><ele>542.4</ele><time>2026-04-26T07:41:05.054Z</time></trkpt><trkpt lat="37.8399517" lon="15.1427317"><ele>543.2</ele><time>2026-04-26T07:41:06.054Z</time></trkpt><trkpt lat="37.83989" lon="15.142645"><ele>544.0</ele><time>2026-04-26T07:41:07.054Z</time></trkpt><trkpt lat="37.8398233" lon="15.1425567"><ele>544.0</ele><time>2026-04-26T07:41:08.054Z</time></trkpt><trkpt lat="37.8397467" lon="15.1424483"><ele>544.0</ele><time>2026-04-26T07:41:09.054Z</time></trkpt><trkpt lat="37.8396617" lon="15.1423283"><ele>544.0</ele><time>2026-04-26T07:41:10.054Z</time></trkpt><trkpt lat="37.8395667" lon="15.1422133"><ele>544.0</ele><time>2026-04-26T07:41:11.054Z</time></trkpt><trkpt lat="37.8394833" lon="15.14211"><ele>544.8</ele><time>2026-04-26T07:41:12.054Z</time></trkpt><trkpt lat="37.839425" lon="15.14203"><ele>545.5999999999999</ele><time>2026-04-26T07:41:13.054Z</time></trkpt><trkpt lat="37.8393833" lon="15.1419617"><ele>546.4</ele><time>2026-04-26T07:41:14.054Z</time></trkpt><trkpt lat="37.8393833" lon="15.1418383"><ele>547.1999999999999</ele><time>2026-04-26T07:41:16.054Z</time></trkpt><trkpt lat="37.8394" lon="15.1416967"><ele>548.0</ele><time>2026-04-26T07:41:18.054Z</time></trkpt><trkpt lat="37.83943" lon="15.14154"><ele>548.3333333333333</ele><time>2026-04-26T07:41:20.054Z</time></trkpt><trkpt lat="37.8394517" lon="15.1414567"><ele>548.6666666666666</ele><time>2026-04-26T07:41:21.054Z</time></trkpt><trkpt lat="37.8394783" lon="15.1413783"><ele>549.0</ele><time>2026-04-26T07:41:22.054Z</time></trkpt><trkpt lat="37.8395583" lon="15.141255"><ele>549.3333333333334</ele><time>2026-04-26T07:41:24.054Z</time></trkpt><trkpt lat="37.8396083" lon="15.1411933"><ele>549.6666666666667</ele><time>2026-04-26T07:41:25.054Z</time></trkpt><trkpt lat="37.839665" lon="15.1411317"><ele>550.0</ele><time>2026-04-26T07:41:26.054Z</time></trkpt><trkpt lat="37.8397233" lon="15.141065"><ele>550.0</ele><time>2026-04-26T07:41:27.054Z</time></trkpt><trkpt lat="37.8397833" lon="15.1409933"><ele>550.0</ele><time>2026-04-26T07:41:28.054Z</time></trkpt><trkpt lat="37.83984" lon="15.1409217"><ele>550.0</ele><time>2026-04-26T07:41:29.054Z</time></trkpt><trkpt lat="37.8398967" lon="15.1408567"><ele>550.0</ele><time>2026-04-26T07:41:30.054Z</time></trkpt><trkpt lat="37.839955" lon="15.14079"><ele>550.0</ele><time>2026-04-26T07:41:31.055Z</time></trkpt><trkpt lat="37.8400117" lon="15.1407217"><ele>550.0</ele><time>2026-04-26T07:41:32.054Z</time></trkpt><trkpt lat="37.8400633" lon="15.1406567"><ele>550.1666666666667</ele><time>2026-04-26T07:41:33.054Z</time></trkpt><trkpt lat="37.8401133" lon="15.1406"><ele>550.3333333333334</ele><time>2026-04-26T07:41:34.054Z</time></trkpt><trkpt lat="37.8401833" lon="15.14051"><ele>550.5</ele><time>2026-04-26T07:41:36.054Z</time></trkpt><trkpt lat="37.8402217" lon="15.1404467"><ele>550.6666666666666</ele><time>2026-04-26T07:41:39.055Z</time></trkpt><trkpt lat="37.8402917" lon="15.1403517"><ele>550.8333333333333</ele><time>2026-04-26T07:41:42.054Z</time></trkpt><trkpt lat="37.84035" lon="15.1402983"><ele>551.0</ele><time>2026-04-26T07:41:44.054Z</time></trkpt><trkpt lat="37.84038" lon="15.14021"><ele>551.0</ele><time>2026-04-26T07:41:46.054Z</time></trkpt><trkpt lat="37.8403417" lon="15.140065"><ele>551.0</ele><time>2026-04-26T07:41:48.054Z</time></trkpt><trkpt lat="37.8403017" lon="15.1399817"><ele>551.0</ele><time>2026-04-26T07:41:49.054Z</time></trkpt><trkpt lat="37.84026" lon="15.1399017"><ele>551.0</ele><time>2026-04-26T07:41:50.054Z</time></trkpt><trkpt lat="37.8402133" lon="15.1398217"><ele>551.0</ele><time>2026-04-26T07:41:51.054Z</time></trkpt><trkpt lat="37.840165" lon="15.139735"><ele>551.0</ele><time>2026-04-26T07:41:52.054Z</time></trkpt><trkpt lat="37.8401183" lon="15.1396483"><ele>551.1666666666666</ele><time>2026-04-26T07:41:53.054Z</time></trkpt><trkpt lat="37.8400717" lon="15.1395517"><ele>551.3333333333333</ele><time>2026-04-26T07:41:54.054Z</time></trkpt><trkpt lat="37.840025" lon="15.1394583"><ele>551.5</ele><time>2026-04-26T07:41:55.054Z</time></trkpt><trkpt lat="37.8399717" lon="15.1393683"><ele>551.6666666666666</ele><time>2026-04-26T07:41:56.054Z</time></trkpt><trkpt lat="37.83992" lon="15.1392683"><ele>551.8333333333334</ele><time>2026-04-26T07:41:57.054Z</time></trkpt><trkpt lat="37.8398667" lon="15.1391817"><ele>552.0</ele><time>2026-04-26T07:41:58.054Z</time></trkpt><trkpt lat="37.83982" lon="15.1391083"><ele>552.0</ele><time>2026-04-26T07:41:59.054Z</time></trkpt><trkpt lat="37.8397767" lon="15.139025"><ele>552.0</ele><time>2026-04-26T07:42:01.054Z</time></trkpt><trkpt lat="37.8397333" lon="15.13895"><ele>552.0</ele><time>2026-04-26T07:42:07.054Z</time></trkpt><trkpt lat="37.8396717" lon="15.1388633"><ele>552.0</ele><time>2026-04-26T07:42:10.055Z</time></trkpt><trkpt lat="37.8396783" lon="15.1387667"><ele>552.0</ele><time>2026-04-26T07:42:12.054Z</time></trkpt><trkpt lat="37.8397483" lon="15.1386483"><ele>552.0</ele><time>2026-04-26T07:42:14.054Z</time></trkpt><trkpt lat="37.8398083" lon="15.1385633"><ele>552.0</ele><time>2026-04-26T07:42:15.054Z</time></trkpt><trkpt lat="37.8398733" lon="15.138485"><ele>552.0</ele><time>2026-04-26T07:42:16.054Z</time></trkpt><trkpt lat="37.83995" lon="15.1384033"><ele>552.0</ele><time>2026-04-26T07:42:17.054Z</time></trkpt><trkpt lat="37.8400233" lon="15.1383167"><ele>552.0</ele><time>2026-04-26T07:42:18.054Z</time></trkpt><trkpt lat="37.84009" lon="15.1382267"><ele>552.0</ele><time>2026-04-26T07:42:19.054Z</time></trkpt><trkpt lat="37.8401567" lon="15.1381567"><ele>553.6</ele><time>2026-04-26T07:42:20.054Z</time></trkpt><trkpt lat="37.84021" lon="15.138095"><ele>555.2</ele><time>2026-04-26T07:42:21.054Z</time></trkpt><trkpt lat="37.840275" lon="15.1379583"><ele>556.8</ele><time>2026-04-26T07:42:23.054Z</time></trkpt><trkpt lat="37.840285" lon="15.1377883"><ele>558.4</ele><time>2026-04-26T07:42:25.055Z</time></trkpt><trkpt lat="37.8402783" lon="15.1377067"><ele>560.0</ele><time>2026-04-26T07:42:26.054Z</time></trkpt><trkpt lat="37.8402833" lon="15.1376017"><ele>560.0</ele><time>2026-04-26T07:42:27.054Z</time></trkpt><trkpt lat="37.84029" lon="15.1375017"><ele>560.0</ele><time>2026-04-26T07:42:28.054Z</time></trkpt><trkpt lat="37.8402817" lon="15.1374167"><ele>560.0</ele><time>2026-04-26T07:42:29.054Z</time></trkpt><trkpt lat="37.8403067" lon="15.1373133"><ele>560.0</ele><time>2026-04-26T07:42:30.054Z</time></trkpt><trkpt lat="37.8403083" lon="15.137195"><ele>560.0</ele><time>2026-04-26T07:42:31.054Z</time></trkpt><trkpt lat="37.8402967" lon="15.1370467"><ele>560.0</ele><time>2026-04-26T07:42:32.054Z</time></trkpt><trkpt lat="37.840275" lon="15.1369"><ele>560.0</ele><time>2026-04-26T07:42:33.054Z</time></trkpt><trkpt lat="37.840255" lon="15.1367717"><ele>560.0</ele><time>2026-04-26T07:42:34.054Z</time></trkpt><trkpt lat="37.8402417" lon="15.1366367"><ele>560.0</ele><time>2026-04-26T07:42:35.055Z</time></trkpt><trkpt lat="37.840235" lon="15.136515"><ele>560.0</ele><time>2026-04-26T07:42:36.054Z</time></trkpt><trkpt lat="37.84023" lon="15.1363933"><ele>560.0</ele><time>2026-04-26T07:42:37.054Z</time></trkpt><trkpt lat="37.840225" lon="15.1362717"><ele>560.3333333333333</ele><time>2026-04-26T07:42:38.054Z</time></trkpt><trkpt lat="37.8402133" lon="15.136165"><ele>560.6666666666666</ele><time>2026-04-26T07:42:39.055Z</time></trkpt><trkpt lat="37.8402" lon="15.1360517"><ele>561.0</ele><time>2026-04-26T07:42:40.054Z</time></trkpt><trkpt lat="37.8401767" lon="15.135965"><ele>561.3333333333334</ele><time>2026-04-26T07:42:41.054Z</time></trkpt><trkpt lat="37.8401217" lon="15.1358817"><ele>561.6666666666667</ele><time>2026-04-26T07:42:42.054Z</time></trkpt><trkpt lat="37.8400683" lon="15.1358067"><ele>562.0</ele><time>2026-04-26T07:42:43.054Z</time></trkpt><trkpt lat="37.840025" lon="15.1357333"><ele>562.5714285714287</ele><time>2026-04-26T07:42:44.054Z</time></trkpt><trkpt lat="37.8399867" lon="15.1356583"><ele>563.1428571428571</ele><time>2026-04-26T07:42:45.054Z</time></trkpt><trkpt lat="37.839945" lon="15.1355817"><ele>563.7142857142858</ele><time>2026-04-26T07:42:46.054Z</time></trkpt><trkpt lat="37.839905" lon="15.1355067"><ele>564.2857142857143</ele><time>2026-04-26T07:42:47.054Z</time></trkpt><trkpt lat="37.8398617" lon="15.13544"><ele>564.8571428571429</ele><time>2026-04-26T07:42:48.054Z</time></trkpt><trkpt lat="37.83982" lon="15.1353417"><ele>565.4285714285714</ele><time>2026-04-26T07:42:50.054Z</time></trkpt><trkpt lat="37.8398" lon="15.1352583"><ele>566.0</ele><time>2026-04-26T07:43:33.055Z</time></trkpt><trkpt lat="37.839695" lon="15.1351767"><ele>566.0</ele><time>2026-04-26T07:43:35.054Z</time></trkpt><trkpt lat="37.8396117" lon="15.1351067"><ele>566.0</ele><time>2026-04-26T07:43:37.054Z</time></trkpt><trkpt lat="37.839575" lon="15.1350317"><ele>566.0</ele><time>2026-04-26T07:44:40.054Z</time></trkpt><trkpt lat="37.8395183" lon="15.13494"><ele>566.0</ele><time>2026-04-26T07:44:42.054Z</time></trkpt><trkpt lat="37.8394683" lon="15.1348733"><ele>566.0</ele><time>2026-04-26T07:44:44.055Z</time></trkpt><trkpt lat="37.8394133" lon="15.134825"><ele>566.0</ele><time>2026-04-26T07:44:46.054Z</time></trkpt><trkpt lat="37.8393483" lon="15.13478"><ele>566.3333333333333</ele><time>2026-04-26T07:44:48.054Z</time></trkpt><trkpt lat="37.8392667" lon="15.134745"><ele>566.6666666666666</ele><time>2026-04-26T07:44:51.055Z</time></trkpt><trkpt lat="37.839175" lon="15.134725"><ele>567.0</ele><time>2026-04-26T07:44:54.054Z</time></trkpt><trkpt lat="37.839115" lon="15.1346583"><ele>567.3333333333334</ele><time>2026-04-26T07:45:07.054Z</time></trkpt><trkpt lat="37.8390583" lon="15.1345883"><ele>567.6666666666667</ele><time>2026-04-26T07:45:09.054Z</time></trkpt><trkpt lat="37.8389933" lon="15.1345283"><ele>568.0</ele><time>2026-04-26T07:45:11.054Z</time></trkpt><trkpt lat="37.838955" lon="15.1344483"><ele>568.0</ele><time>2026-04-26T07:45:14.054Z</time></trkpt><trkpt lat="37.8389433" lon="15.13435"><ele>568.0</ele><time>2026-04-26T07:45:16.054Z</time></trkpt><trkpt lat="37.838955" lon="15.1342633"><ele>568.0</ele><time>2026-04-26T07:45:18.054Z</time></trkpt><trkpt lat="37.8389833" lon="15.1341383"><ele>568.0</ele><time>2026-04-26T07:45:20.054Z</time></trkpt><trkpt lat="37.8390017" lon="15.13402"><ele>568.0</ele><time>2026-04-26T07:45:22.054Z</time></trkpt><trkpt lat="37.838985" lon="15.1338833"><ele>568.6666666666667</ele><time>2026-04-26T07:45:24.054Z</time></trkpt><trkpt lat="37.83896" lon="15.133765"><ele>569.3333333333334</ele><time>2026-04-26T07:45:26.054Z</time></trkpt><trkpt lat="37.8389383" lon="15.1336783"><ele>570.0</ele><time>2026-04-26T07:45:28.054Z</time></trkpt><trkpt lat="37.8389367" lon="15.1335983"><ele>570.6666666666666</ele><time>2026-04-26T07:45:31.054Z</time></trkpt><trkpt lat="37.8389383" lon="15.133495"><ele>571.3333333333333</ele><time>2026-04-26T07:45:34.054Z</time></trkpt><trkpt lat="37.8389267" lon="15.1333833"><ele>572.0</ele><time>2026-04-26T07:46:03.054Z</time></trkpt><trkpt lat="37.8389383" lon="15.1332683"><ele>572.5</ele><time>2026-04-26T07:46:05.053Z</time></trkpt><trkpt lat="37.8389283" lon="15.1331683"><ele>573.0</ele><time>2026-04-26T07:46:07.053Z</time></trkpt><trkpt lat="37.8388733" lon="15.133125"><ele>573.5</ele><time>2026-04-26T07:46:09.053Z</time></trkpt><trkpt lat="37.83881" lon="15.1330583"><ele>574.0</ele><time>2026-04-26T07:46:12.053Z</time></trkpt><trkpt lat="37.8387867" lon="15.1329733"><ele>574.5</ele><time>2026-04-26T07:46:14.053Z</time></trkpt><trkpt lat="37.8387817" lon="15.132835"><ele>575.0</ele><time>2026-04-26T07:46:16.053Z</time></trkpt><trkpt lat="37.8387767" lon="15.1326867"><ele>575.0</ele><time>2026-04-26T07:46:18.053Z</time></trkpt><trkpt lat="37.8387617" lon="15.1326067"><ele>575.0</ele><time>2026-04-26T07:46:19.053Z</time></trkpt><trkpt lat="37.83875" lon="15.1325283"><ele>575.0</ele><time>2026-04-26T07:46:20.053Z</time></trkpt><trkpt lat="37.83874" lon="15.1324483"><ele>575.0</ele><time>2026-04-26T07:46:21.053Z</time></trkpt><trkpt lat="37.8387317" lon="15.132365"><ele>575.0</ele><time>2026-04-26T07:46:22.053Z</time></trkpt><trkpt lat="37.8386833" lon="15.13222"><ele>575.0</ele><time>2026-04-26T07:46:24.053Z</time></trkpt><trkpt lat="37.8386133" lon="15.1321017"><ele>575.0</ele><time>2026-04-26T07:46:26.053Z</time></trkpt><trkpt lat="37.8385667" lon="15.1319783"><ele>575.0</ele><time>2026-04-26T07:46:28.053Z</time></trkpt><trkpt lat="37.838515" lon="15.1318783"><ele>575.0</ele><time>2026-04-26T07:46:30.053Z</time></trkpt><trkpt lat="37.8384717" lon="15.1317933"><ele>575.0</ele><time>2026-04-26T07:46:32.053Z</time></trkpt><trkpt lat="37.838415" lon="15.13171"><ele>575.0</ele><time>2026-04-26T07:46:47.053Z</time></trkpt><trkpt lat="37.83836" lon="15.13166"><ele>575.0</ele><time>2026-04-26T07:46:48.053Z</time></trkpt><trkpt lat="37.8383083" lon="15.1315967"><ele>575.5</ele><time>2026-04-26T07:46:49.053Z</time></trkpt><trkpt lat="37.8382667" lon="15.1315133"><ele>576.0</ele><time>2026-04-26T07:46:50.053Z</time></trkpt><trkpt lat="37.838225" lon="15.131415"><ele>576.5</ele><time>2026-04-26T07:46:51.053Z</time></trkpt><trkpt lat="37.8382033" lon="15.131305"><ele>577.0</ele><time>2026-04-26T07:46:52.053Z</time></trkpt><trkpt lat="37.8381883" lon="15.1311917"><ele>577.5</ele><time>2026-04-26T07:46:53.053Z</time></trkpt><trkpt lat="37.83819" lon="15.1310667"><ele>578.0</ele><time>2026-04-26T07:46:54.053Z</time></trkpt><trkpt lat="37.8382033" lon="15.130935"><ele>578.0</ele><time>2026-04-26T07:46:55.053Z</time></trkpt><trkpt lat="37.8382233" lon="15.130815"><ele>578.0</ele><time>2026-04-26T07:46:56.053Z</time></trkpt><trkpt lat="37.8382517" lon="15.1307083"><ele>578.0</ele><time>2026-04-26T07:46:57.053Z</time></trkpt><trkpt lat="37.8383083" lon="15.1306183"><ele>578.0</ele><time>2026-04-26T07:46:58.053Z</time></trkpt><trkpt lat="37.8383783" lon="15.130555"><ele>578.0</ele><time>2026-04-26T07:46:59.053Z</time></trkpt><trkpt lat="37.8384583" lon="15.13051"><ele>579.4</ele><time>2026-04-26T07:47:00.053Z</time></trkpt><trkpt lat="37.83855" lon="15.1305033"><ele>580.8</ele><time>2026-04-26T07:47:01.053Z</time></trkpt><trkpt lat="37.838645" lon="15.1305317"><ele>582.2</ele><time>2026-04-26T07:47:02.053Z</time></trkpt><trkpt lat="37.8387367" lon="15.1305867"><ele>583.6</ele><time>2026-04-26T07:47:03.053Z</time></trkpt><trkpt lat="37.8388217" lon="15.130625"><ele>585.0</ele><time>2026-04-26T07:47:04.053Z</time></trkpt><trkpt lat="37.8389" lon="15.1306317"><ele>585.0</ele><time>2026-04-26T07:47:05.054Z</time></trkpt><trkpt lat="37.8389667" lon="15.13061"><ele>585.0</ele><time>2026-04-26T07:47:06.053Z</time></trkpt><trkpt lat="37.8390217" lon="15.1305483"><ele>585.0</ele><time>2026-04-26T07:47:07.053Z</time></trkpt><trkpt lat="37.8390567" lon="15.13045"><ele>585.0</ele><time>2026-04-26T07:47:08.053Z</time></trkpt><trkpt lat="37.839055" lon="15.1303167"><ele>585.0</ele><time>2026-04-26T07:47:09.053Z</time></trkpt><trkpt lat="37.8390383" lon="15.1301717"><ele>585.0</ele><time>2026-04-26T07:47:10.053Z</time></trkpt><trkpt lat="37.8390233" lon="15.130035"><ele>585.0</ele><time>2026-04-26T07:47:11.053Z</time></trkpt><trkpt lat="37.8390117" lon="15.1299217"><ele>585.0</ele><time>2026-04-26T07:47:12.053Z</time></trkpt><trkpt lat="37.8390017" lon="15.1298317"><ele>585.0</ele><time>2026-04-26T07:47:13.053Z</time></trkpt><trkpt lat="37.83898" lon="15.1296717"><ele>585.0</ele><time>2026-04-26T07:47:15.053Z</time></trkpt><trkpt lat="37.8389733" lon="15.1295767"><ele>585.0</ele><time>2026-04-26T07:47:16.053Z</time></trkpt><trkpt lat="37.8389767" lon="15.1294717"><ele>585.0</ele><time>2026-04-26T07:47:17.053Z</time></trkpt><trkpt lat="37.8389967" lon="15.12936"><ele>585.2</ele><time>2026-04-26T07:47:18.053Z</time></trkpt><trkpt lat="37.8390383" lon="15.1292383"><ele>585.4</ele><time>2026-04-26T07:47:19.053Z</time></trkpt><trkpt lat="37.8390817" lon="15.1291283"><ele>585.6</ele><time>2026-04-26T07:47:20.053Z</time></trkpt><trkpt lat="37.83914" lon="15.1290233"><ele>585.8</ele><time>2026-04-26T07:47:21.053Z</time></trkpt><trkpt lat="37.839195" lon="15.1289417"><ele>586.0</ele><time>2026-04-26T07:47:22.053Z</time></trkpt><trkpt lat="37.8392367" lon="15.128845"><ele>586.3333333333334</ele><time>2026-04-26T07:47:23.053Z</time></trkpt><trkpt lat="37.8392733" lon="15.1287617"><ele>586.6666666666667</ele><time>2026-04-26T07:47:24.053Z</time></trkpt><trkpt lat="37.8393467" lon="15.12866"><ele>587.0</ele><time>2026-04-26T07:47:26.053Z</time></trkpt><trkpt lat="37.839395" lon="15.1286"><ele>587.3333333333334</ele><time>2026-04-26T07:47:27.053Z</time></trkpt><trkpt lat="37.8394533" lon="15.1285167"><ele>587.6666666666666</ele><time>2026-04-26T07:47:28.053Z</time></trkpt><trkpt lat="37.8395117" lon="15.1284317"><ele>588.0</ele><time>2026-04-26T07:47:29.053Z</time></trkpt><trkpt lat="37.8395733" lon="15.1283333"><ele>588.6</ele><time>2026-04-26T07:47:30.053Z</time></trkpt><trkpt lat="37.8396367" lon="15.1282233"><ele>589.1999999999999</ele><time>2026-04-26T07:47:31.053Z</time></trkpt><trkpt lat="37.839695" lon="15.12812"><ele>589.8</ele><time>2026-04-26T07:47:32.053Z</time></trkpt><trkpt lat="37.8397567" lon="15.1280267"><ele>590.4</ele><time>2026-04-26T07:47:33.053Z</time></trkpt><trkpt lat="37.8398183" lon="15.1279483"><ele>591.0</ele><time>2026-04-26T07:47:34.053Z</time></trkpt><trkpt lat="37.8398817" lon="15.1278683"><ele>591.0</ele><time>2026-04-26T07:47:35.053Z</time></trkpt><trkpt lat="37.83994" lon="15.1278"><ele>591.0</ele><time>2026-04-26T07:47:36.053Z</time></trkpt><trkpt lat="37.8400017" lon="15.1277217"><ele>591.0</ele><time>2026-04-26T07:47:37.054Z</time></trkpt><trkpt lat="37.8400583" lon="15.12764"><ele>591.0</ele><time>2026-04-26T07:47:38.054Z</time></trkpt><trkpt lat="37.840115" lon="15.1275667"><ele>591.0</ele><time>2026-04-26T07:47:39.053Z</time></trkpt><trkpt lat="37.8401717" lon="15.1275033"><ele>591.0</ele><time>2026-04-26T07:47:40.053Z</time></trkpt><trkpt lat="37.8402333" lon="15.1274133"><ele>591.5</ele><time>2026-04-26T07:47:42.053Z</time></trkpt><trkpt lat="37.8402483" lon="15.127335"><ele>592.0</ele><time>2026-04-26T07:47:44.053Z</time></trkpt><trkpt lat="37.840285" lon="15.127235"><ele>592.5</ele><time>2026-04-26T07:47:46.053Z</time></trkpt><trkpt lat="37.840335" lon="15.1271117"><ele>593.0</ele><time>2026-04-26T07:47:48.053Z</time></trkpt><trkpt lat="37.8403617" lon="15.127035"><ele>593.5</ele><time>2026-04-26T07:47:49.053Z</time></trkpt><trkpt lat="37.8403783" lon="15.1268967"><ele>594.0</ele><time>2026-04-26T07:47:51.053Z</time></trkpt><trkpt lat="37.8404" lon="15.1267583"><ele>594.0</ele><time>2026-04-26T07:47:53.054Z</time></trkpt><trkpt lat="37.8404267" lon="15.1265933"><ele>594.0</ele><time>2026-04-26T07:47:55.053Z</time></trkpt><trkpt lat="37.84045" lon="15.1264983"><ele>594.0</ele><time>2026-04-26T07:47:56.053Z</time></trkpt><trkpt lat="37.84048" lon="15.1264017"><ele>594.0</ele><time>2026-04-26T07:47:57.053Z</time></trkpt><trkpt lat="37.840515" lon="15.1263"><ele>594.0</ele><time>2026-04-26T07:47:58.053Z</time></trkpt><trkpt lat="37.8405567" lon="15.12619"><ele>594.2</ele><time>2026-04-26T07:47:59.053Z</time></trkpt><trkpt lat="37.84059" lon="15.1260683"><ele>594.4</ele><time>2026-04-26T07:48:00.053Z</time></trkpt><trkpt lat="37.84063" lon="15.1259583"><ele>594.6</ele><time>2026-04-26T07:48:01.053Z</time></trkpt><trkpt lat="37.8406667" lon="15.1258567"><ele>594.8</ele><time>2026-04-26T07:48:02.053Z</time></trkpt><trkpt lat="37.8407117" lon="15.1257533"><ele>595.0</ele><time>2026-04-26T07:48:03.053Z</time></trkpt><trkpt lat="37.8407433" lon="15.1256667"><ele>595.3333333333334</ele><time>2026-04-26T07:48:04.053Z</time></trkpt><trkpt lat="37.8407733" lon="15.1255767"><ele>595.6666666666667</ele><time>2026-04-26T07:48:05.053Z</time></trkpt><trkpt lat="37.840795" lon="15.1254867"><ele>596.0</ele><time>2026-04-26T07:48:06.053Z</time></trkpt><trkpt lat="37.8408117" lon="15.1253917"><ele>596.3333333333334</ele><time>2026-04-26T07:48:07.054Z</time></trkpt><trkpt lat="37.840825" lon="15.1252817"><ele>596.6666666666666</ele><time>2026-04-26T07:48:08.053Z</time></trkpt><trkpt lat="37.8408333" lon="15.1251617"><ele>597.0</ele><time>2026-04-26T07:48:09.053Z</time></trkpt><trkpt lat="37.8408283" lon="15.125045"><ele>597.0</ele><time>2026-04-26T07:48:10.053Z</time></trkpt><trkpt lat="37.8408333" lon="15.124925"><ele>597.0</ele><time>2026-04-26T07:48:11.053Z</time></trkpt><trkpt lat="37.8408417" lon="15.1248117"><ele>597.0</ele><time>2026-04-26T07:48:12.053Z</time></trkpt><trkpt lat="37.8408633" lon="15.1247017"><ele>597.0</ele><time>2026-04-26T07:48:13.053Z</time></trkpt><trkpt lat="37.8408783" lon="15.124585"><ele>597.0</ele><time>2026-04-26T07:48:14.053Z</time></trkpt><trkpt lat="37.8408983" lon="15.124465"><ele>597.8000000000001</ele><time>2026-04-26T07:48:15.053Z</time></trkpt><trkpt lat="37.840925" lon="15.1243367"><ele>598.6</ele><time>2026-04-26T07:48:16.053Z</time></trkpt><trkpt lat="37.840955" lon="15.124205"><ele>599.4000000000001</ele><time>2026-04-26T07:48:17.053Z</time></trkpt><trkpt lat="37.8409967" lon="15.1240633"><ele>600.2</ele><time>2026-04-26T07:48:18.053Z</time></trkpt><trkpt lat="37.841055" lon="15.123935"><ele>601.0</ele><time>2026-04-26T07:48:19.053Z</time></trkpt><trkpt lat="37.8411183" lon="15.123825"><ele>601.4</ele><time>2026-04-26T07:48:20.053Z</time></trkpt><trkpt lat="37.841185" lon="15.12373"><ele>601.8</ele><time>2026-04-26T07:48:21.053Z</time></trkpt><trkpt lat="37.8412517" lon="15.1236517"><ele>602.1999999999999</ele><time>2026-04-26T07:48:22.053Z</time></trkpt><trkpt lat="37.8413267" lon="15.1235817"><ele>602.6</ele><time>2026-04-26T07:48:23.053Z</time></trkpt><trkpt lat="37.8414083" lon="15.1235317"><ele>603.0</ele><time>2026-04-26T07:48:24.053Z</time></trkpt><trkpt lat="37.8414867" lon="15.1234767"><ele>603.0</ele><time>2026-04-26T07:48:25.053Z</time></trkpt><trkpt lat="37.8415567" lon="15.1234217"><ele>603.0</ele><time>2026-04-26T07:48:26.053Z</time></trkpt><trkpt lat="37.8416183" lon="15.12337"><ele>603.0</ele><time>2026-04-26T07:48:27.053Z</time></trkpt><trkpt lat="37.8416833" lon="15.1233333"><ele>603.0</ele><time>2026-04-26T07:48:28.053Z</time></trkpt><trkpt lat="37.8417683" lon="15.1233217"><ele>603.0</ele><time>2026-04-26T07:48:30.053Z</time></trkpt><trkpt lat="37.8418333" lon="15.1233217"><ele>603.0</ele><time>2026-04-26T07:48:34.053Z</time></trkpt><trkpt lat="37.8418867" lon="15.1232117"><ele>603.8333333333334</ele><time>2026-04-26T07:48:45.054Z</time></trkpt><trkpt lat="37.8419367" lon="15.1231583"><ele>604.6666666666666</ele><time>2026-04-26T07:48:46.053Z</time></trkpt><trkpt lat="37.8420083" lon="15.1231083"><ele>605.5</ele><time>2026-04-26T07:48:47.053Z</time></trkpt><trkpt lat="37.8420883" lon="15.1230667"><ele>606.3333333333333</ele><time>2026-04-26T07:48:48.053Z</time></trkpt><trkpt lat="37.8421733" lon="15.1230017"><ele>607.1666666666666</ele><time>2026-04-26T07:48:49.053Z</time></trkpt><trkpt lat="37.8422533" lon="15.1229317"><ele>608.0</ele><time>2026-04-26T07:48:50.053Z</time></trkpt><trkpt lat="37.84234" lon="15.1228683"><ele>608.0</ele><time>2026-04-26T07:48:51.053Z</time></trkpt><trkpt lat="37.842445" lon="15.1228"><ele>608.0</ele><time>2026-04-26T07:48:52.053Z</time></trkpt><trkpt lat="37.8425367" lon="15.122725"><ele>608.0</ele><time>2026-04-26T07:48:53.053Z</time></trkpt><trkpt lat="37.842625" lon="15.1226467"><ele>608.0</ele><time>2026-04-26T07:48:54.053Z</time></trkpt><trkpt lat="37.8427" lon="15.122585"><ele>608.0</ele><time>2026-04-26T07:48:55.053Z</time></trkpt><trkpt lat="37.8427767" lon="15.1225183"><ele>608.6666666666666</ele><time>2026-04-26T07:48:56.053Z</time></trkpt><trkpt lat="37.8428433" lon="15.12243"><ele>609.3333333333333</ele><time>2026-04-26T07:48:57.053Z</time></trkpt><trkpt lat="37.8428883" lon="15.1223517"><ele>610.0</ele><time>2026-04-26T07:48:58.053Z</time></trkpt><trkpt lat="37.842935" lon="15.1222717"><ele>610.6666666666666</ele><time>2026-04-26T07:48:59.053Z</time></trkpt><trkpt lat="37.8429783" lon="15.1221833"><ele>611.3333333333334</ele><time>2026-04-26T07:49:00.053Z</time></trkpt><trkpt lat="37.8430333" lon="15.122095"><ele>612.0</ele><time>2026-04-26T07:49:01.053Z</time></trkpt><trkpt lat="37.84308" lon="15.1220183"><ele>612.0</ele><time>2026-04-26T07:49:02.053Z</time></trkpt><trkpt lat="37.8431217" lon="15.1219317"><ele>612.0</ele><time>2026-04-26T07:49:03.053Z</time></trkpt><trkpt lat="37.843155" lon="15.12182"><ele>612.0</ele><time>2026-04-26T07:49:04.053Z</time></trkpt><trkpt lat="37.84317" lon="15.1216967"><ele>612.0</ele><time>2026-04-26T07:49:05.053Z</time></trkpt><trkpt lat="37.8431817" lon="15.121575"><ele>612.0</ele><time>2026-04-26T07:49:06.053Z</time></trkpt><trkpt lat="37.8431967" lon="15.12145"><ele>613.2</ele><time>2026-04-26T07:49:07.053Z</time></trkpt><trkpt lat="37.8432133" lon="15.1213167"><ele>614.4000000000001</ele><time>2026-04-26T07:49:08.053Z</time></trkpt><trkpt lat="37.8432267" lon="15.1211867"><ele>615.5999999999999</ele><time>2026-04-26T07:49:09.053Z</time></trkpt><trkpt lat="37.843245" lon="15.1210683"><ele>616.8</ele><time>2026-04-26T07:49:10.053Z</time></trkpt><trkpt lat="37.8432617" lon="15.1209633"><ele>618.0</ele><time>2026-04-26T07:49:11.053Z</time></trkpt><trkpt lat="37.8432917" lon="15.120875"><ele>618.0</ele><time>2026-04-26T07:49:12.053Z</time></trkpt><trkpt lat="37.8433367" lon="15.1207983"><ele>618.0</ele><time>2026-04-26T07:49:13.054Z</time></trkpt><trkpt lat="37.8433767" lon="15.1207183"><ele>618.0</ele><time>2026-04-26T07:49:14.053Z</time></trkpt><trkpt lat="37.8434233" lon="15.1206367"><ele>618.0</ele><time>2026-04-26T07:49:15.053Z</time></trkpt><trkpt lat="37.8434583" lon="15.120545"><ele>618.0</ele><time>2026-04-26T07:49:16.053Z</time></trkpt><trkpt lat="37.84349" lon="15.1204317"><ele>618.0</ele><time>2026-04-26T07:49:17.053Z</time></trkpt><trkpt lat="37.8435117" lon="15.1203217"><ele>619.3333333333334</ele><time>2026-04-26T07:49:18.053Z</time></trkpt><trkpt lat="37.8435333" lon="15.1202067"><ele>620.6666666666666</ele><time>2026-04-26T07:49:19.053Z</time></trkpt><trkpt lat="37.84354" lon="15.1201083"><ele>622.0</ele><time>2026-04-26T07:49:20.053Z</time></trkpt><trkpt lat="37.84354" lon="15.12"><ele>623.3333333333333</ele><time>2026-04-26T07:49:21.053Z</time></trkpt><trkpt lat="37.843525" lon="15.1198867"><ele>624.6666666666666</ele><time>2026-04-26T07:49:22.054Z</time></trkpt><trkpt lat="37.84351" lon="15.1197833"><ele>626.0</ele><time>2026-04-26T07:49:23.053Z</time></trkpt><trkpt lat="37.8434983" lon="15.1196783"><ele>626.6</ele><time>2026-04-26T07:49:24.053Z</time></trkpt><trkpt lat="37.84349" lon="15.1195833"><ele>627.2</ele><time>2026-04-26T07:49:25.053Z</time></trkpt><trkpt lat="37.843495" lon="15.1194967"><ele>627.8</ele><time>2026-04-26T07:49:26.053Z</time></trkpt><trkpt lat="37.8435317" lon="15.1193717"><ele>628.4</ele><time>2026-04-26T07:49:28.053Z</time></trkpt><trkpt lat="37.84361" lon="15.1192767"><ele>629.0</ele><time>2026-04-26T07:49:30.053Z</time></trkpt><trkpt lat="37.8437067" lon="15.119215"><ele>629.0</ele><time>2026-04-26T07:49:32.053Z</time></trkpt><trkpt lat="37.843815" lon="15.1192"><ele>629.0</ele><time>2026-04-26T07:49:34.053Z</time></trkpt><trkpt lat="37.8438833" lon="15.11919"><ele>629.0</ele><time>2026-04-26T07:49:35.053Z</time></trkpt><trkpt lat="37.8439567" lon="15.11918"><ele>629.0</ele><time>2026-04-26T07:49:36.053Z</time></trkpt><trkpt lat="37.8440417" lon="15.1191733"><ele>629.0</ele><time>2026-04-26T07:49:37.053Z</time></trkpt><trkpt lat="37.84413" lon="15.1191717"><ele>629.0</ele><time>2026-04-26T07:49:38.053Z</time></trkpt><trkpt lat="37.8442233" lon="15.1191783"><ele>628.8</ele><time>2026-04-26T07:49:39.053Z</time></trkpt><trkpt lat="37.8443283" lon="15.1191817"><ele>628.5999999999999</ele><time>2026-04-26T07:49:40.053Z</time></trkpt><trkpt lat="37.8444317" lon="15.1191817"><ele>628.4</ele><time>2026-04-26T07:49:41.053Z</time></trkpt><trkpt lat="37.8445333" lon="15.11919"><ele>628.1999999999999</ele><time>2026-04-26T07:49:42.053Z</time></trkpt><trkpt lat="37.8446267" lon="15.1191983"><ele>628.0</ele><time>2026-04-26T07:49:43.053Z</time></trkpt><trkpt lat="37.8447217" lon="15.1191917"><ele>628.0</ele><time>2026-04-26T07:49:44.053Z</time></trkpt><trkpt lat="37.8448067" lon="15.1191583"><ele>628.0</ele><time>2026-04-26T07:49:45.053Z</time></trkpt><trkpt lat="37.844885" lon="15.1191183"><ele>628.0</ele><time>2026-04-26T07:49:46.053Z</time></trkpt><trkpt lat="37.8449467" lon="15.1190633"><ele>628.0</ele><time>2026-04-26T07:49:47.053Z</time></trkpt><trkpt lat="37.8449933" lon="15.11898"><ele>628.0</ele><time>2026-04-26T07:49:48.054Z</time></trkpt><trkpt lat="37.8450367" lon="15.11888"><ele>628.0</ele><time>2026-04-26T07:49:49.053Z</time></trkpt><trkpt lat="37.8450783" lon="15.1187933"><ele>628.3333333333334</ele><time>2026-04-26T07:49:50.053Z</time></trkpt><trkpt lat="37.8451217" lon="15.1187233"><ele>628.6666666666667</ele><time>2026-04-26T07:49:51.053Z</time></trkpt><trkpt lat="37.84518" lon="15.11864"><ele>629.0</ele><time>2026-04-26T07:49:52.054Z</time></trkpt><trkpt lat="37.84523" lon="15.11855"><ele>629.3333333333334</ele><time>2026-04-26T07:49:53.053Z</time></trkpt><trkpt lat="37.845275" lon="15.1184583"><ele>629.6666666666666</ele><time>2026-04-26T07:49:54.053Z</time></trkpt><trkpt lat="37.8453167" lon="15.1183733"><ele>630.0</ele><time>2026-04-26T07:49:55.053Z</time></trkpt><trkpt lat="37.8453533" lon="15.11829"><ele>630.5</ele><time>2026-04-26T07:49:56.053Z</time></trkpt><trkpt lat="37.845395" lon="15.1181617"><ele>631.0</ele><time>2026-04-26T07:49:58.053Z</time></trkpt><trkpt lat="37.84542" lon="15.1180717"><ele>631.5</ele><time>2026-04-26T07:50:00.053Z</time></trkpt><trkpt lat="37.84547" lon="15.1179783"><ele>632.0</ele><time>2026-04-26T07:50:12.053Z</time></trkpt><trkpt lat="37.8455183" lon="15.1179017"><ele>632.5</ele><time>2026-04-26T07:50:14.053Z</time></trkpt><trkpt lat="37.84546" lon="15.1178383"><ele>633.0</ele><time>2026-04-26T07:50:20.053Z</time></trkpt><trkpt lat="37.845405" lon="15.1179067"><ele>633.0</ele><time>2026-04-26T07:50:22.053Z</time></trkpt><trkpt lat="37.8453833" lon="15.1180417"><ele>633.0</ele><time>2026-04-26T07:50:24.053Z</time></trkpt><trkpt lat="37.8453483" lon="15.1181633"><ele>633.0</ele><time>2026-04-26T07:50:26.053Z</time></trkpt><trkpt lat="37.8453083" lon="15.1182583"><ele>633.0</ele><time>2026-04-26T07:50:28.053Z</time></trkpt><trkpt lat="37.8453583" lon="15.1181433"><ele>633.0</ele><time>2026-04-26T07:50:36.053Z</time></trkpt><trkpt lat="37.8454033" lon="15.118065"><ele>633.0</ele><time>2026-04-26T07:50:37.053Z</time></trkpt><trkpt lat="37.845465" lon="15.1179833"><ele>633.0</ele><time>2026-04-26T07:50:38.053Z</time></trkpt><trkpt lat="37.84553" lon="15.1179067"><ele>633.0</ele><time>2026-04-26T07:50:39.053Z</time></trkpt><trkpt lat="37.8455967" lon="15.117845"><ele>633.0</ele><time>2026-04-26T07:50:40.053Z</time></trkpt><trkpt lat="37.8456517" lon="15.1178"><ele>633.0</ele><time>2026-04-26T07:50:41.053Z</time></trkpt><trkpt lat="37.8457217" lon="15.1177767"><ele>633.0</ele><time>2026-04-26T07:50:43.053Z</time></trkpt><trkpt lat="37.845815" lon="15.117795"><ele>633.0</ele><time>2026-04-26T07:50:46.053Z</time></trkpt><trkpt lat="37.84591" lon="15.1178"><ele>633.0</ele><time>2026-04-26T07:50:48.053Z</time></trkpt><trkpt lat="37.8460267" lon="15.1178167"><ele>633.0</ele><time>2026-04-26T07:50:50.053Z</time></trkpt><trkpt lat="37.846125" lon="15.117855"><ele>633.0</ele><time>2026-04-26T07:50:52.053Z</time></trkpt><trkpt lat="37.8462233" lon="15.117875"><ele>633.0</ele><time>2026-04-26T07:50:54.053Z</time></trkpt><trkpt lat="37.8463417" lon="15.1178767"><ele>633.1666666666666</ele><time>2026-04-26T07:50:56.053Z</time></trkpt><trkpt lat="37.846415" lon="15.1178717"><ele>633.3333333333334</ele><time>2026-04-26T07:50:57.053Z</time></trkpt><trkpt lat="37.8464967" lon="15.1178633"><ele>633.5</ele><time>2026-04-26T07:50:58.053Z</time></trkpt><trkpt lat="37.8465917" lon="15.1178517"><ele>633.6666666666667</ele><time>2026-04-26T07:50:59.053Z</time></trkpt><trkpt lat="37.846685" lon="15.11784"><ele>633.8333333333334</ele><time>2026-04-26T07:51:00.053Z</time></trkpt><trkpt lat="37.8467717" lon="15.1178283"><ele>634.0</ele><time>2026-04-26T07:51:01.053Z</time></trkpt><trkpt lat="37.8468633" lon="15.1178217"><ele>634.0</ele><time>2026-04-26T07:51:02.053Z</time></trkpt><trkpt lat="37.8469567" lon="15.1178117"><ele>634.0</ele><time>2026-04-26T07:51:03.053Z</time></trkpt><trkpt lat="37.84705" lon="15.1178067"><ele>634.0</ele><time>2026-04-26T07:51:04.054Z</time></trkpt><trkpt lat="37.8471367" lon="15.1177983"><ele>634.0</ele><time>2026-04-26T07:51:05.053Z</time></trkpt><trkpt lat="37.8472317" lon="15.1177883"><ele>634.0</ele><time>2026-04-26T07:51:06.053Z</time></trkpt><trkpt lat="37.847325" lon="15.1177767"><ele>634.0</ele><time>2026-04-26T07:51:07.053Z</time></trkpt><trkpt lat="37.8474083" lon="15.1177733"><ele>634.0</ele><time>2026-04-26T07:51:08.053Z</time></trkpt><trkpt lat="37.8474833" lon="15.117775"><ele>634.0</ele><time>2026-04-26T07:51:09.053Z</time></trkpt><trkpt lat="37.8475583" lon="15.11778"><ele>634.0</ele><time>2026-04-26T07:51:10.053Z</time></trkpt><trkpt lat="37.847625" lon="15.1177883"><ele>634.0</ele><time>2026-04-26T07:51:11.053Z</time></trkpt><trkpt lat="37.847705" lon="15.1177883"><ele>634.0</ele><time>2026-04-26T07:51:12.053Z</time></trkpt><trkpt lat="37.8477917" lon="15.11778"><ele>634.3333333333334</ele><time>2026-04-26T07:51:13.053Z</time></trkpt><trkpt lat="37.8478817" lon="15.1177733"><ele>634.6666666666667</ele><time>2026-04-26T07:51:14.053Z</time></trkpt><trkpt lat="37.8479683" lon="15.117775"><ele>635.0</ele><time>2026-04-26T07:51:15.054Z</time></trkpt><trkpt lat="37.8480467" lon="15.1177733"><ele>635.3333333333334</ele><time>2026-04-26T07:51:16.053Z</time></trkpt><trkpt lat="37.8481283" lon="15.11777"><ele>635.6666666666666</ele><time>2026-04-26T07:51:17.053Z</time></trkpt><trkpt lat="37.8482" lon="15.1177567"><ele>636.0</ele><time>2026-04-26T07:51:18.053Z</time></trkpt><trkpt lat="37.8483083" lon="15.117745"><ele>636.0</ele><time>2026-04-26T07:51:20.053Z</time></trkpt><trkpt lat="37.848425" lon="15.1177967"><ele>636.0</ele><time>2026-04-26T07:51:22.053Z</time></trkpt><trkpt lat="37.8484833" lon="15.1178433"><ele>636.0</ele><time>2026-04-26T07:51:23.053Z</time></trkpt><trkpt lat="37.8485467" lon="15.1178783"><ele>636.0</ele><time>2026-04-26T07:51:24.053Z</time></trkpt><trkpt lat="37.848645" lon="15.1179517"><ele>636.0</ele><time>2026-04-26T07:51:26.053Z</time></trkpt><trkpt lat="37.8487683" lon="15.11803"><ele>636.0</ele><time>2026-04-26T07:51:28.053Z</time></trkpt><trkpt lat="37.8488508" lon="15.1180557"><ele>636.0</ele><time>2026-04-26T07:51:29.053Z</time></trkpt><trkpt lat="37.8489305" lon="15.1180792"><ele>636.0</ele><time>2026-04-26T07:51:30.053Z</time></trkpt><trkpt lat="37.8490075" lon="15.1180956"><ele>636.0</ele><time>2026-04-26T07:51:31.053Z</time></trkpt><trkpt lat="37.8490749" lon="15.1181119"><ele>636.0</ele><time>2026-04-26T07:51:32.053Z</time></trkpt><trkpt lat="37.8491778" lon="15.1181566"><ele>636.0</ele><time>2026-04-26T07:51:34.053Z</time></trkpt><trkpt lat="37.8492511" lon="15.1182187"><ele>636.2</ele><time>2026-04-26T07:51:36.053Z</time></trkpt><trkpt lat="37.8493323" lon="15.1182544"><ele>636.4000000000001</ele><time>2026-04-26T07:51:38.053Z</time></trkpt><trkpt lat="37.8494553" lon="15.1182466"><ele>636.6</ele><time>2026-04-26T07:51:40.053Z</time></trkpt><trkpt lat="37.8495264" lon="15.1182421"><ele>636.8000000000001</ele><time>2026-04-26T07:51:41.053Z</time></trkpt><trkpt lat="37.8495938" lon="15.1182369"><ele>637.0</ele><time>2026-04-26T07:51:42.053Z</time></trkpt><trkpt lat="37.8497059" lon="15.1182431"><ele>637.0</ele><time>2026-04-26T07:51:44.053Z</time></trkpt><trkpt lat="37.8497937" lon="15.1182749"><ele>637.0</ele><time>2026-04-26T07:51:46.054Z</time></trkpt><trkpt lat="37.8499028" lon="15.1183596"><ele>637.0</ele><time>2026-04-26T07:51:48.053Z</time></trkpt><trkpt lat="37.8499701" lon="15.1183977"><ele>637.0</ele><time>2026-04-26T07:51:49.053Z</time></trkpt><trkpt lat="37.8500691" lon="15.1183922"><ele>637.0</ele><time>2026-04-26T07:51:51.053Z</time></trkpt><trkpt lat="37.8501506" lon="15.1184369"><ele>637.8333333333334</ele><time>2026-04-26T07:51:54.053Z</time></trkpt><trkpt lat="37.8502164" lon="15.1184219"><ele>638.6666666666667</ele><time>2026-04-26T07:51:56.053Z</time></trkpt><trkpt lat="37.8502937" lon="15.1183462"><ele>639.5</ele><time>2026-04-26T07:51:58.053Z</time></trkpt><trkpt lat="37.8503734" lon="15.118245"><ele>640.3333333333334</ele><time>2026-04-26T07:52:00.053Z</time></trkpt><trkpt lat="37.850418" lon="15.118186"><ele>641.1666666666666</ele><time>2026-04-26T07:52:01.053Z</time></trkpt><trkpt lat="37.8504577" lon="15.1181234"><ele>642.0</ele><time>2026-04-26T07:52:02.053Z</time></trkpt><trkpt lat="37.8505119" lon="15.1179941"><ele>642.0</ele><time>2026-04-26T07:52:04.053Z</time></trkpt><trkpt lat="37.8505573" lon="15.1178559"><ele>642.0</ele><time>2026-04-26T07:52:06.053Z</time></trkpt><trkpt lat="37.850611" lon="15.1177202"><ele>642.0</ele><time>2026-04-26T07:52:08.053Z</time></trkpt><trkpt lat="37.8506445" lon="15.1176012"><ele>642.0</ele><time>2026-04-26T07:52:10.053Z</time></trkpt><trkpt lat="37.8506494" lon="15.1174612"><ele>642.0</ele><time>2026-04-26T07:52:12.053Z</time></trkpt><trkpt lat="37.8506664" lon="15.1173231"><ele>642.2</ele><time>2026-04-26T07:52:14.053Z</time></trkpt><trkpt lat="37.8507293" lon="15.1172225"><ele>642.4000000000001</ele><time>2026-04-26T07:52:16.053Z</time></trkpt><trkpt lat="37.8508246" lon="15.1171103"><ele>642.5999999999999</ele><time>2026-04-26T07:52:18.053Z</time></trkpt><trkpt lat="37.8508699" lon="15.1170449"><ele>642.8</ele><time>2026-04-26T07:52:19.053Z</time></trkpt><trkpt lat="37.8509184" lon="15.1169089"><ele>643.0</ele><time>2026-04-26T07:52:21.053Z</time></trkpt><trkpt lat="37.8509536" lon="15.1167674"><ele>643.1666666666667</ele><time>2026-04-26T07:52:23.053Z</time></trkpt><trkpt lat="37.8509882" lon="15.1166222"><ele>643.3333333333334</ele><time>2026-04-26T07:52:25.053Z</time></trkpt><trkpt lat="37.8509736" lon="15.1165025"><ele>643.5</ele><time>2026-04-26T07:52:27.054Z</time></trkpt><trkpt lat="37.8509223" lon="15.1164216"><ele>643.6666666666666</ele><time>2026-04-26T07:52:29.053Z</time></trkpt><trkpt lat="37.8508948" lon="15.1163447"><ele>643.8333333333333</ele><time>2026-04-26T07:52:31.053Z</time></trkpt><trkpt lat="37.8508959" lon="15.1162621"><ele>644.0</ele><time>2026-04-26T07:52:33.053Z</time></trkpt><trkpt lat="37.8509117" lon="15.1161517"><ele>644.3333333333333</ele><time>2026-04-26T07:52:36.053Z</time></trkpt><trkpt lat="37.85094" lon="15.1160383"><ele>644.6666666666666</ele><time>2026-04-26T07:52:39.054Z</time></trkpt><trkpt lat="37.8509367" lon="15.1159267"><ele>645.0</ele><time>2026-04-26T07:52:41.053Z</time></trkpt><trkpt lat="37.8509317" lon="15.115795"><ele>645.3333333333334</ele><time>2026-04-26T07:52:43.053Z</time></trkpt><trkpt lat="37.85092" lon="15.1157117"><ele>645.6666666666667</ele><time>2026-04-26T07:52:44.053Z</time></trkpt><trkpt lat="37.8509017" lon="15.1156233"><ele>646.0</ele><time>2026-04-26T07:52:45.053Z</time></trkpt><trkpt lat="37.8508833" lon="15.1155133"><ele>646.4</ele><time>2026-04-26T07:52:46.053Z</time></trkpt><trkpt lat="37.8508767" lon="15.1153983"><ele>646.8</ele><time>2026-04-26T07:52:47.053Z</time></trkpt><trkpt lat="37.85088" lon="15.1152917"><ele>647.1999999999999</ele><time>2026-04-26T07:52:48.053Z</time></trkpt><trkpt lat="37.85089" lon="15.1151733"><ele>647.5999999999999</ele><time>2026-04-26T07:52:49.053Z</time></trkpt><trkpt lat="37.8509167" lon="15.1150567"><ele>648.0</ele><time>2026-04-26T07:52:50.053Z</time></trkpt><trkpt lat="37.850945" lon="15.1149483"><ele>647.6666666666666</ele><time>2026-04-26T07:52:51.053Z</time></trkpt><trkpt lat="37.850985" lon="15.1148483"><ele>647.3333333333334</ele><time>2026-04-26T07:52:52.053Z</time></trkpt><trkpt lat="37.851025" lon="15.1147617"><ele>647.0</ele><time>2026-04-26T07:52:53.053Z</time></trkpt><trkpt lat="37.8510767" lon="15.1146633"><ele>646.6666666666667</ele><time>2026-04-26T07:52:54.053Z</time></trkpt><trkpt lat="37.8511217" lon="15.1145733"><ele>646.3333333333334</ele><time>2026-04-26T07:52:55.053Z</time></trkpt><trkpt lat="37.85115" lon="15.1144983"><ele>646.0</ele><time>2026-04-26T07:52:56.053Z</time></trkpt><trkpt lat="37.85119" lon="15.1143933"><ele>646.0</ele><time>2026-04-26T07:52:58.053Z</time></trkpt><trkpt lat="37.85122" lon="15.114295"><ele>646.0</ele><time>2026-04-26T07:53:00.054Z</time></trkpt><trkpt lat="37.8512667" lon="15.1142383"><ele>646.0</ele><time>2026-04-26T07:53:02.053Z</time></trkpt><trkpt lat="37.8513383" lon="15.1142433"><ele>646.0</ele><time>2026-04-26T07:53:05.052Z</time></trkpt><trkpt lat="37.8514167" lon="15.1143067"><ele>646.0</ele><time>2026-04-26T07:54:30.052Z</time></trkpt><trkpt lat="37.8514783" lon="15.1143467"><ele>646.0</ele><time>2026-04-26T07:54:31.053Z</time></trkpt><trkpt lat="37.8515533" lon="15.1143933"><ele>646.0</ele><time>2026-04-26T07:54:32.052Z</time></trkpt><trkpt lat="37.8516467" lon="15.1144367"><ele>646.0</ele><time>2026-04-26T07:54:33.052Z</time></trkpt><trkpt lat="37.8517433" lon="15.11448"><ele>646.0</ele><time>2026-04-26T07:54:34.052Z</time></trkpt><trkpt lat="37.8518617" lon="15.11452"><ele>646.0</ele><time>2026-04-26T07:54:35.052Z</time></trkpt><trkpt lat="37.8519867" lon="15.1145483"><ele>645.75</ele><time>2026-04-26T07:54:36.052Z</time></trkpt><trkpt lat="37.8521" lon="15.1145683"><ele>645.5</ele><time>2026-04-26T07:54:37.052Z</time></trkpt><trkpt lat="37.8522033" lon="15.1145733"><ele>645.25</ele><time>2026-04-26T07:54:38.052Z</time></trkpt><trkpt lat="37.8523183" lon="15.1145583"><ele>645.0</ele><time>2026-04-26T07:54:39.052Z</time></trkpt><trkpt lat="37.8524417" lon="15.11455"><ele>645.0</ele><time>2026-04-26T07:54:40.053Z</time></trkpt><trkpt lat="37.8525517" lon="15.1145533"><ele>645.0</ele><time>2026-04-26T07:54:41.052Z</time></trkpt><trkpt lat="37.85263" lon="15.11457"><ele>645.0</ele><time>2026-04-26T07:54:42.052Z</time></trkpt><trkpt lat="37.8527267" lon="15.1146133"><ele>645.0</ele><time>2026-04-26T07:54:44.052Z</time></trkpt><trkpt lat="37.8527933" lon="15.1146633"><ele>645.0</ele><time>2026-04-26T07:54:47.052Z</time></trkpt><trkpt lat="37.8528883" lon="15.1147467"><ele>645.0</ele><time>2026-04-26T07:54:51.052Z</time></trkpt><trkpt lat="37.8529867" lon="15.1148417"><ele>645.0</ele><time>2026-04-26T07:54:53.052Z</time></trkpt><trkpt lat="37.8530717" lon="15.11492"><ele>645.0</ele><time>2026-04-26T07:54:55.052Z</time></trkpt><trkpt lat="37.85314" lon="15.1149517"><ele>645.0</ele><time>2026-04-26T07:55:04.052Z</time></trkpt><trkpt lat="37.8532417" lon="15.11489"><ele>645.0</ele><time>2026-04-26T07:55:06.053Z</time></trkpt><trkpt lat="37.8533" lon="15.114805"><ele>644.5</ele><time>2026-04-26T07:55:07.052Z</time></trkpt><trkpt lat="37.8533767" lon="15.1146983"><ele>644.0</ele><time>2026-04-26T07:55:08.052Z</time></trkpt><trkpt lat="37.8534617" lon="15.1145833"><ele>643.5</ele><time>2026-04-26T07:55:09.052Z</time></trkpt><trkpt lat="37.8535483" lon="15.1144567"><ele>643.0</ele><time>2026-04-26T07:55:10.053Z</time></trkpt><trkpt lat="37.85364" lon="15.1143183"><ele>642.25</ele><time>2026-04-26T07:55:11.052Z</time></trkpt><trkpt lat="37.8537317" lon="15.1141817"><ele>641.5</ele><time>2026-04-26T07:55:12.052Z</time></trkpt><trkpt lat="37.85381" lon="15.1140333"><ele>640.75</ele><time>2026-04-26T07:55:13.052Z</time></trkpt><trkpt lat="37.8538833" lon="15.113875"><ele>640.0</ele><time>2026-04-26T07:55:14.052Z</time></trkpt><trkpt lat="37.8539517" lon="15.1137117"><ele>639.5</ele><time>2026-04-26T07:55:15.052Z</time></trkpt><trkpt lat="37.8540117" lon="15.11355"><ele>639.0</ele><time>2026-04-26T07:55:16.052Z</time></trkpt><trkpt lat="37.85407" lon="15.1133883"><ele>638.5</ele><time>2026-04-26T07:55:17.052Z</time></trkpt><trkpt lat="37.8541317" lon="15.1132267"><ele>638.0</ele><time>2026-04-26T07:55:18.052Z</time></trkpt><trkpt lat="37.85419" lon="15.1130817"><ele>636.5</ele><time>2026-04-26T07:55:19.052Z</time></trkpt><trkpt lat="37.8542367" lon="15.11293"><ele>635.0</ele><time>2026-04-26T07:55:20.052Z</time></trkpt><trkpt lat="37.8542583" lon="15.1127767"><ele>633.5</ele><time>2026-04-26T07:55:21.052Z</time></trkpt><trkpt lat="37.8542833" lon="15.1126217"><ele>632.0</ele><time>2026-04-26T07:55:22.053Z</time></trkpt><trkpt lat="37.8542983" lon="15.1124717"><ele>631.0</ele><time>2026-04-26T07:55:23.052Z</time></trkpt><trkpt lat="37.8543133" lon="15.11233"><ele>630.0</ele><time>2026-04-26T07:55:24.052Z</time></trkpt><trkpt lat="37.8543283" lon="15.112195"><ele>629.0</ele><time>2026-04-26T07:55:25.052Z</time></trkpt><trkpt lat="37.8543333" lon="15.11206"><ele>628.0</ele><time>2026-04-26T07:55:26.052Z</time></trkpt><trkpt lat="37.8543417" lon="15.1119317"><ele>627.0</ele><time>2026-04-26T07:55:27.052Z</time></trkpt><trkpt lat="37.85436" lon="15.11182"><ele>627.0</ele><time>2026-04-26T07:55:28.052Z</time></trkpt><trkpt lat="37.85439" lon="15.1117483"><ele>627.0</ele><time>2026-04-26T07:55:29.052Z</time></trkpt><trkpt lat="37.85444" lon="15.1116983"><ele>627.0</ele><time>2026-04-26T07:55:30.052Z</time></trkpt><trkpt lat="37.8545633" lon="15.11171"><ele>627.0</ele><time>2026-04-26T07:55:32.052Z</time></trkpt><trkpt lat="37.854625" lon="15.11178"><ele>627.0</ele><time>2026-04-26T07:55:33.052Z</time></trkpt><trkpt lat="37.8546867" lon="15.1118917"><ele>627.0</ele><time>2026-04-26T07:55:34.052Z</time></trkpt><trkpt lat="37.854745" lon="15.1120133"><ele>627.0</ele><time>2026-04-26T07:55:35.052Z</time></trkpt><trkpt lat="37.854795" lon="15.1121517"><ele>627.0</ele><time>2026-04-26T07:55:36.052Z</time></trkpt><trkpt lat="37.8548467" lon="15.11229"><ele>627.0</ele><time>2026-04-26T07:55:37.052Z</time></trkpt><trkpt lat="37.8548933" lon="15.1124283"><ele>627.0</ele><time>2026-04-26T07:55:38.052Z</time></trkpt><trkpt lat="37.85495" lon="15.1125733"><ele>627.0</ele><time>2026-04-26T07:55:39.052Z</time></trkpt><trkpt lat="37.85501" lon="15.112725"><ele>627.0</ele><time>2026-04-26T07:55:40.052Z</time></trkpt><trkpt lat="37.8550733" lon="15.11288"><ele>627.0</ele><time>2026-04-26T07:55:41.052Z</time></trkpt><trkpt lat="37.8551317" lon="15.113025"><ele>627.0</ele><time>2026-04-26T07:55:42.052Z</time></trkpt><trkpt lat="37.8551917" lon="15.1131683"><ele>627.2</ele><time>2026-04-26T07:55:43.052Z</time></trkpt><trkpt lat="37.8552683" lon="15.11331"><ele>627.4000000000001</ele><time>2026-04-26T07:55:44.052Z</time></trkpt><trkpt lat="37.855335" lon="15.1134167"><ele>627.5999999999999</ele><time>2026-04-26T07:55:45.052Z</time></trkpt><trkpt lat="37.8554" lon="15.1135117"><ele>627.8</ele><time>2026-04-26T07:55:46.052Z</time></trkpt><trkpt lat="37.8554717" lon="15.1135867"><ele>628.0</ele><time>2026-04-26T07:55:47.052Z</time></trkpt><trkpt lat="37.85553" lon="15.11365"><ele>628.0</ele><time>2026-04-26T07:55:48.053Z</time></trkpt><trkpt lat="37.8556167" lon="15.11374"><ele>628.0</ele><time>2026-04-26T07:55:50.052Z</time></trkpt><trkpt lat="37.8557183" lon="15.1136983"><ele>628.0</ele><time>2026-04-26T07:55:52.052Z</time></trkpt><trkpt lat="37.8557867" lon="15.11366"><ele>628.0</ele><time>2026-04-26T07:55:53.052Z</time></trkpt><trkpt lat="37.8558633" lon="15.1136267"><ele>628.0</ele><time>2026-04-26T07:55:54.052Z</time></trkpt><trkpt lat="37.8559517" lon="15.113595"><ele>627.8</ele><time>2026-04-26T07:55:55.052Z</time></trkpt><trkpt lat="37.85605" lon="15.11357"><ele>627.5999999999999</ele><time>2026-04-26T07:55:56.052Z</time></trkpt><trkpt lat="37.8561467" lon="15.1135517"><ele>627.4000000000001</ele><time>2026-04-26T07:55:57.052Z</time></trkpt><trkpt lat="37.8562533" lon="15.1135367"><ele>627.2</ele><time>2026-04-26T07:55:58.052Z</time></trkpt><trkpt lat="37.85638" lon="15.11355"><ele>627.0</ele><time>2026-04-26T07:55:59.052Z</time></trkpt><trkpt lat="37.856525" lon="15.113575"><ele>627.0</ele><time>2026-04-26T07:56:00.052Z</time></trkpt><trkpt lat="37.8566933" lon="15.1135683"><ele>627.0</ele><time>2026-04-26T07:56:01.052Z</time></trkpt><trkpt lat="37.8568683" lon="15.1135583"><ele>627.0</ele><time>2026-04-26T07:56:02.053Z</time></trkpt><trkpt lat="37.8570317" lon="15.1135633"><ele>626.6</ele><time>2026-04-26T07:56:03.052Z</time></trkpt><trkpt lat="37.8571567" lon="15.113555"><ele>626.2</ele><time>2026-04-26T07:56:04.052Z</time></trkpt><trkpt lat="37.8572367" lon="15.1135433"><ele>625.8</ele><time>2026-04-26T07:56:05.052Z</time></trkpt><trkpt lat="37.857325" lon="15.1135067"><ele>625.4</ele><time>2026-04-26T07:56:07.052Z</time></trkpt><trkpt lat="37.8573683" lon="15.1134167"><ele>625.0</ele><time>2026-04-26T07:56:09.052Z</time></trkpt><trkpt lat="37.8574317" lon="15.1132883"><ele>624.6666666666667</ele><time>2026-04-26T07:56:11.052Z</time></trkpt><trkpt lat="37.8574817" lon="15.11322"><ele>624.3333333333334</ele><time>2026-04-26T07:56:12.052Z</time></trkpt><trkpt lat="37.8575417" lon="15.1131567"><ele>624.0</ele><time>2026-04-26T07:56:13.052Z</time></trkpt><trkpt lat="37.85762" lon="15.113085"><ele>623.6666666666666</ele><time>2026-04-26T07:56:14.052Z</time></trkpt><trkpt lat="37.8576983" lon="15.113015"><ele>623.3333333333333</ele><time>2026-04-26T07:56:15.053Z</time></trkpt><trkpt lat="37.857785" lon="15.112945"><ele>623.0</ele><time>2026-04-26T07:56:16.052Z</time></trkpt><trkpt lat="37.85788" lon="15.1128783"><ele>623.0</ele><time>2026-04-26T07:56:17.053Z</time></trkpt><trkpt lat="37.8579733" lon="15.1128167"><ele>623.0</ele><time>2026-04-26T07:56:18.052Z</time></trkpt><trkpt lat="37.858075" lon="15.1127467"><ele>623.0</ele><time>2026-04-26T07:56:19.052Z</time></trkpt><trkpt lat="37.85817" lon="15.1126783"><ele>623.0</ele><time>2026-04-26T07:56:20.052Z</time></trkpt><trkpt lat="37.8582617" lon="15.112615"><ele>623.0</ele><time>2026-04-26T07:56:21.052Z</time></trkpt><trkpt lat="37.858355" lon="15.112545"><ele>623.0</ele><time>2026-04-26T07:56:22.052Z</time></trkpt><trkpt lat="37.858445" lon="15.1124783"><ele>623.0</ele><time>2026-04-26T07:56:23.052Z</time></trkpt><trkpt lat="37.8585333" lon="15.1124133"><ele>623.0</ele><time>2026-04-26T07:56:24.053Z</time></trkpt><trkpt lat="37.8586133" lon="15.112345"><ele>623.0</ele><time>2026-04-26T07:56:25.052Z</time></trkpt><trkpt lat="37.8586817" lon="15.112285"><ele>623.0</ele><time>2026-04-26T07:56:26.052Z</time></trkpt><trkpt lat="37.8587433" lon="15.11223"><ele>623.4</ele><time>2026-04-26T07:56:27.052Z</time></trkpt><trkpt lat="37.858825" lon="15.1122"><ele>623.8</ele><time>2026-04-26T07:56:28.052Z</time></trkpt><trkpt lat="37.8589067" lon="15.1121917"><ele>624.2</ele><time>2026-04-26T07:56:29.052Z</time></trkpt><trkpt lat="37.8590033" lon="15.1121917"><ele>624.6</ele><time>2026-04-26T07:56:30.052Z</time></trkpt><trkpt lat="37.8590983" lon="15.112175"><ele>625.0</ele><time>2026-04-26T07:56:31.053Z</time></trkpt><trkpt lat="37.8591967" lon="15.1121033"><ele>625.25</ele><time>2026-04-26T07:56:32.052Z</time></trkpt><trkpt lat="37.8592917" lon="15.1119967"><ele>625.5</ele><time>2026-04-26T07:56:33.052Z</time></trkpt><trkpt lat="37.8593733" lon="15.1118867"><ele>625.75</ele><time>2026-04-26T07:56:34.052Z</time></trkpt><trkpt lat="37.8594467" lon="15.1117583"><ele>626.0</ele><time>2026-04-26T07:56:35.052Z</time></trkpt><trkpt lat="37.8595167" lon="15.111625"><ele>626.0</ele><time>2026-04-26T07:56:36.052Z</time></trkpt><trkpt lat="37.8595917" lon="15.1115217"><ele>626.0</ele><time>2026-04-26T07:56:37.052Z</time></trkpt><trkpt lat="37.8596933" lon="15.1114233"><ele>626.0</ele><time>2026-04-26T07:56:38.052Z</time></trkpt><trkpt lat="37.8598" lon="15.1113333"><ele>626.0</ele><time>2026-04-26T07:56:39.052Z</time></trkpt><trkpt lat="37.8599017" lon="15.1112333"><ele>626.0</ele><time>2026-04-26T07:56:40.052Z</time></trkpt><trkpt lat="37.8599883" lon="15.11113"><ele>626.0</ele><time>2026-04-26T07:56:41.052Z</time></trkpt><trkpt lat="37.86008" lon="15.111035"><ele>626.0</ele><time>2026-04-26T07:56:42.052Z</time></trkpt><trkpt lat="37.8601767" lon="15.11096"><ele>626.0</ele><time>2026-04-26T07:56:43.052Z</time></trkpt><trkpt lat="37.8602667" lon="15.1108967"><ele>626.2</ele><time>2026-04-26T07:56:44.052Z</time></trkpt><trkpt lat="37.86035" lon="15.1108317"><ele>626.4000000000001</ele><time>2026-04-26T07:56:45.052Z</time></trkpt><trkpt lat="37.8604383" lon="15.1107933"><ele>626.6</ele><time>2026-04-26T07:56:46.052Z</time></trkpt><trkpt lat="37.86052" lon="15.1107817"><ele>626.8000000000001</ele><time>2026-04-26T07:56:47.052Z</time></trkpt><trkpt lat="37.860595" lon="15.110805"><ele>627.0</ele><time>2026-04-26T07:56:48.052Z</time></trkpt><trkpt lat="37.8606867" lon="15.1108567"><ele>627.0</ele><time>2026-04-26T07:56:49.052Z</time></trkpt><trkpt lat="37.8608067" lon="15.1109183"><ele>627.0</ele><time>2026-04-26T07:56:50.052Z</time></trkpt><trkpt lat="37.8609417" lon="15.11097"><ele>627.0</ele><time>2026-04-26T07:56:51.052Z</time></trkpt><trkpt lat="37.8610817" lon="15.11104"><ele>627.0</ele><time>2026-04-26T07:56:52.052Z</time></trkpt><trkpt lat="37.86121" lon="15.1111017"><ele>627.6</ele><time>2026-04-26T07:56:53.052Z</time></trkpt><trkpt lat="37.8613267" lon="15.1111517"><ele>628.2</ele><time>2026-04-26T07:56:54.052Z</time></trkpt><trkpt lat="37.8614333" lon="15.1111767"><ele>628.8</ele><time>2026-04-26T07:56:55.052Z</time></trkpt><trkpt lat="37.861525" lon="15.111195"><ele>629.4</ele><time>2026-04-26T07:56:56.052Z</time></trkpt><trkpt lat="37.8616067" lon="15.111215"><ele>630.0</ele><time>2026-04-26T07:56:57.052Z</time></trkpt><trkpt lat="37.86168" lon="15.1112267"><ele>628.75</ele><time>2026-04-26T07:56:58.052Z</time></trkpt><trkpt lat="37.861815" lon="15.1112117"><ele>627.5</ele><time>2026-04-26T07:57:00.052Z</time></trkpt><trkpt lat="37.8618983" lon="15.11116"><ele>626.25</ele><time>2026-04-26T07:57:01.052Z</time></trkpt><trkpt lat="37.8619733" lon="15.1110783"><ele>625.0</ele><time>2026-04-26T07:57:02.052Z</time></trkpt><trkpt lat="37.8620667" lon="15.110965"><ele>625.0</ele><time>2026-04-26T07:57:03.052Z</time></trkpt><trkpt lat="37.8621783" lon="15.11083"><ele>625.0</ele><time>2026-04-26T07:57:04.052Z</time></trkpt><trkpt lat="37.8622833" lon="15.1107083"><ele>625.0</ele><time>2026-04-26T07:57:05.052Z</time></trkpt><trkpt lat="37.8623683" lon="15.110585"><ele>625.0</ele><time>2026-04-26T07:57:06.052Z</time></trkpt><trkpt lat="37.86245" lon="15.1104483"><ele>625.25</ele><time>2026-04-26T07:57:07.052Z</time></trkpt><trkpt lat="37.8625367" lon="15.1103067"><ele>625.5</ele><time>2026-04-26T07:57:08.052Z</time></trkpt><trkpt lat="37.8626083" lon="15.110145"><ele>625.75</ele><time>2026-04-26T07:57:09.052Z</time></trkpt><trkpt lat="37.8626617" lon="15.109985"><ele>626.0</ele><time>2026-04-26T07:57:10.052Z</time></trkpt><trkpt lat="37.8627067" lon="15.109855"><ele>625.6</ele><time>2026-04-26T07:57:11.052Z</time></trkpt><trkpt lat="37.8627367" lon="15.109745"><ele>625.2</ele><time>2026-04-26T07:57:12.052Z</time></trkpt><trkpt lat="37.8627767" lon="15.10967"><ele>624.8</ele><time>2026-04-26T07:57:13.052Z</time></trkpt><trkpt lat="37.8628067" lon="15.1095417"><ele>624.4</ele><time>2026-04-26T07:57:15.052Z</time></trkpt><trkpt lat="37.862775" lon="15.1093967"><ele>624.0</ele><time>2026-04-26T07:57:36.052Z</time></trkpt><trkpt lat="37.8627733" lon="15.1092917"><ele>624.0</ele><time>2026-04-26T07:57:37.052Z</time></trkpt><trkpt lat="37.8627667" lon="15.1091717"><ele>624.0</ele><time>2026-04-26T07:57:38.052Z</time></trkpt><trkpt lat="37.8627617" lon="15.109045"><ele>624.0</ele><time>2026-04-26T07:57:39.052Z</time></trkpt><trkpt lat="37.862735" lon="15.1088933"><ele>624.0</ele><time>2026-04-26T07:57:40.052Z</time></trkpt><trkpt lat="37.8627083" lon="15.1087467"><ele>624.0</ele><time>2026-04-26T07:57:41.052Z</time></trkpt><trkpt lat="37.862685" lon="15.1086017"><ele>623.6</ele><time>2026-04-26T07:57:42.052Z</time></trkpt><trkpt lat="37.86266" lon="15.1084633"><ele>623.2</ele><time>2026-04-26T07:57:43.052Z</time></trkpt><trkpt lat="37.8626183" lon="15.108345"><ele>622.8000000000001</ele><time>2026-04-26T07:57:44.052Z</time></trkpt><trkpt lat="37.8625767" lon="15.1082383"><ele>622.4</ele><time>2026-04-26T07:57:45.052Z</time></trkpt><trkpt lat="37.862555" lon="15.1081383"><ele>622.0</ele><time>2026-04-26T07:57:46.052Z</time></trkpt><trkpt lat="37.8625567" lon="15.1080433"><ele>622.5</ele><time>2026-04-26T07:57:47.052Z</time></trkpt><trkpt lat="37.862575" lon="15.1079533"><ele>623.0</ele><time>2026-04-26T07:57:48.052Z</time></trkpt><trkpt lat="37.8626033" lon="15.1078467"><ele>623.5</ele><time>2026-04-26T07:57:49.052Z</time></trkpt><trkpt lat="37.8626333" lon="15.107735"><ele>624.0</ele><time>2026-04-26T07:57:50.052Z</time></trkpt><trkpt lat="37.8626683" lon="15.1076333"><ele>624.5</ele><time>2026-04-26T07:57:51.052Z</time></trkpt><trkpt lat="37.8627083" lon="15.1075517"><ele>625.0</ele><time>2026-04-26T07:57:52.052Z</time></trkpt><trkpt lat="37.8627567" lon="15.107485"><ele>625.0</ele><time>2026-04-26T07:57:53.052Z</time></trkpt><trkpt lat="37.86281" lon="15.10742"><ele>625.0</ele><time>2026-04-26T07:57:54.052Z</time></trkpt><trkpt lat="37.8628783" lon="15.1073617"><ele>625.0</ele><time>2026-04-26T07:57:55.052Z</time></trkpt><trkpt lat="37.8629583" lon="15.1073083"><ele>625.0</ele><time>2026-04-26T07:57:56.052Z</time></trkpt><trkpt lat="37.86305" lon="15.1072633"><ele>625.0</ele><time>2026-04-26T07:57:57.052Z</time></trkpt><trkpt lat="37.8631517" lon="15.107215"><ele>627.0</ele><time>2026-04-26T07:57:58.052Z</time></trkpt><trkpt lat="37.863245" lon="15.1071567"><ele>629.0</ele><time>2026-04-26T07:57:59.052Z</time></trkpt><trkpt lat="37.86333" lon="15.10711"><ele>631.0</ele><time>2026-04-26T07:58:00.052Z</time></trkpt><trkpt lat="37.86341" lon="15.1070667"><ele>633.0</ele><time>2026-04-26T07:58:01.052Z</time></trkpt><trkpt lat="37.8634917" lon="15.1070333"><ele>635.0</ele><time>2026-04-26T07:58:02.052Z</time></trkpt><trkpt lat="37.8635783" lon="15.1070133"><ele>635.0</ele><time>2026-04-26T07:58:03.052Z</time></trkpt><trkpt lat="37.8636483" lon="15.1070067"><ele>635.0</ele><time>2026-04-26T07:58:04.052Z</time></trkpt><trkpt lat="37.8637333" lon="15.106995"><ele>635.0</ele><time>2026-04-26T07:58:05.052Z</time></trkpt><trkpt lat="37.863815" lon="15.10698"><ele>635.0</ele><time>2026-04-26T07:58:06.052Z</time></trkpt><trkpt lat="37.863915" lon="15.10696"><ele>635.0</ele><time>2026-04-26T07:58:07.052Z</time></trkpt><trkpt lat="37.8640183" lon="15.1069417"><ele>635.0</ele><time>2026-04-26T07:58:08.052Z</time></trkpt><trkpt lat="37.8640933" lon="15.1069283"><ele>635.0</ele><time>2026-04-26T07:58:09.052Z</time></trkpt><trkpt lat="37.864165" lon="15.1069133"><ele>635.0</ele><time>2026-04-26T07:58:10.053Z</time></trkpt><trkpt lat="37.8642683" lon="15.1068233"><ele>635.0</ele><time>2026-04-26T07:58:12.052Z</time></trkpt><trkpt lat="37.8643483" lon="15.106695"><ele>635.0</ele><time>2026-04-26T07:58:14.053Z</time></trkpt><trkpt lat="37.8643833" lon="15.106615"><ele>635.0</ele><time>2026-04-26T07:58:15.053Z</time></trkpt><trkpt lat="37.8644317" lon="15.106535"><ele>635.5</ele><time>2026-04-26T07:58:16.052Z</time></trkpt><trkpt lat="37.8644767" lon="15.1064567"><ele>636.0</ele><time>2026-04-26T07:58:17.052Z</time></trkpt><trkpt lat="37.8645167" lon="15.106385"><ele>636.5</ele><time>2026-04-26T07:58:18.052Z</time></trkpt><trkpt lat="37.8645533" lon="15.10631"><ele>637.0</ele><time>2026-04-26T07:58:19.052Z</time></trkpt><trkpt lat="37.8645917" lon="15.106225"><ele>637.5</ele><time>2026-04-26T07:58:20.052Z</time></trkpt><trkpt lat="37.86463" lon="15.10614"><ele>638.0</ele><time>2026-04-26T07:58:21.052Z</time></trkpt><trkpt lat="37.86468" lon="15.1060367"><ele>638.0</ele><time>2026-04-26T07:58:22.052Z</time></trkpt><trkpt lat="37.8647367" lon="15.10594"><ele>638.0</ele><time>2026-04-26T07:58:23.052Z</time></trkpt><trkpt lat="37.864805" lon="15.10584"><ele>638.0</ele><time>2026-04-26T07:58:24.052Z</time></trkpt><trkpt lat="37.8648717" lon="15.1057533"><ele>638.0</ele><time>2026-04-26T07:58:25.053Z</time></trkpt><trkpt lat="37.8649233" lon="15.10567"><ele>638.0</ele><time>2026-04-26T07:58:26.052Z</time></trkpt><trkpt lat="37.86497" lon="15.105575"><ele>637.8333333333333</ele><time>2026-04-26T07:58:27.052Z</time></trkpt><trkpt lat="37.8650183" lon="15.1054717"><ele>637.6666666666666</ele><time>2026-04-26T07:58:28.052Z</time></trkpt><trkpt lat="37.8650617" lon="15.1053633"><ele>637.5</ele><time>2026-04-26T07:58:29.052Z</time></trkpt><trkpt lat="37.8651067" lon="15.10527"><ele>637.3333333333334</ele><time>2026-04-26T07:58:30.052Z</time></trkpt><trkpt lat="37.8651583" lon="15.1051867"><ele>637.1666666666667</ele><time>2026-04-26T07:58:31.052Z</time></trkpt><trkpt lat="37.865205" lon="15.1051083"><ele>637.0</ele><time>2026-04-26T07:58:32.052Z</time></trkpt><trkpt lat="37.865255" lon="15.105035"><ele>637.0</ele><time>2026-04-26T07:58:33.052Z</time></trkpt><trkpt lat="37.8652933" lon="15.1049617"><ele>637.0</ele><time>2026-04-26T07:58:34.052Z</time></trkpt><trkpt lat="37.8653333" lon="15.1048883"><ele>637.0</ele><time>2026-04-26T07:58:35.052Z</time></trkpt><trkpt lat="37.865365" lon="15.1048"><ele>637.0</ele><time>2026-04-26T07:58:36.052Z</time></trkpt><trkpt lat="37.8653983" lon="15.1046933"><ele>637.0</ele><time>2026-04-26T07:58:37.052Z</time></trkpt><trkpt lat="37.865425" lon="15.1045767"><ele>637.0</ele><time>2026-04-26T07:58:38.052Z</time></trkpt><trkpt lat="37.8654517" lon="15.10446"><ele>637.4</ele><time>2026-04-26T07:58:39.052Z</time></trkpt><trkpt lat="37.865495" lon="15.10434"><ele>637.8000000000001</ele><time>2026-04-26T07:58:40.052Z</time></trkpt><trkpt lat="37.8655383" lon="15.1042267"><ele>638.2</ele><time>2026-04-26T07:58:41.052Z</time></trkpt><trkpt lat="37.8655733" lon="15.104115"><ele>638.6</ele><time>2026-04-26T07:58:42.052Z</time></trkpt><trkpt lat="37.8656" lon="15.1040183"><ele>639.0</ele><time>2026-04-26T07:58:43.052Z</time></trkpt><trkpt lat="37.8656317" lon="15.103925"><ele>639.0</ele><time>2026-04-26T07:58:44.053Z</time></trkpt><trkpt lat="37.8656783" lon="15.103795"><ele>639.0</ele><time>2026-04-26T07:58:46.052Z</time></trkpt><trkpt lat="37.8657117" lon="15.1036517"><ele>639.0</ele><time>2026-04-26T07:58:48.052Z</time></trkpt><trkpt lat="37.8657417" lon="15.10353"><ele>639.0</ele><time>2026-04-26T07:58:50.052Z</time></trkpt><trkpt lat="37.86576" lon="15.10343"><ele>639.0</ele><time>2026-04-26T07:58:52.052Z</time></trkpt><trkpt lat="37.8658167" lon="15.10336"><ele>639.0</ele><time>2026-04-26T07:58:55.052Z</time></trkpt><trkpt lat="37.8658883" lon="15.1033217"><ele>639.0</ele><time>2026-04-26T07:58:57.052Z</time></trkpt><trkpt lat="37.8660033" lon="15.1032767"><ele>639.0</ele><time>2026-04-26T07:58:59.052Z</time></trkpt><trkpt lat="37.86613" lon="15.1032267"><ele>639.0</ele><time>2026-04-26T07:59:01.052Z</time></trkpt><trkpt lat="37.8661917" lon="15.103195"><ele>639.0</ele><time>2026-04-26T07:59:02.052Z</time></trkpt><trkpt lat="37.8662883" lon="15.1030917"><ele>638.5</ele><time>2026-04-26T07:59:04.052Z</time></trkpt><trkpt lat="37.8663883" lon="15.10301"><ele>638.0</ele><time>2026-04-26T07:59:06.053Z</time></trkpt><trkpt lat="37.86646" lon="15.102985"><ele>637.5</ele><time>2026-04-26T07:59:07.052Z</time></trkpt><trkpt lat="37.8665367" lon="15.1029567"><ele>637.0</ele><time>2026-04-26T07:59:08.052Z</time></trkpt><trkpt lat="37.8666183" lon="15.10293"><ele>636.5</ele><time>2026-04-26T07:59:09.052Z</time></trkpt><trkpt lat="37.8666967" lon="15.1028933"><ele>636.0</ele><time>2026-04-26T07:59:10.052Z</time></trkpt><trkpt lat="37.8667833" lon="15.1028467"><ele>637.2</ele><time>2026-04-26T07:59:11.052Z</time></trkpt><trkpt lat="37.8668683" lon="15.1028117"><ele>638.4000000000001</ele><time>2026-04-26T07:59:12.052Z</time></trkpt><trkpt lat="37.8669533" lon="15.102775"><ele>639.6</ele><time>2026-04-26T07:59:13.052Z</time></trkpt><trkpt lat="37.86704" lon="15.10274"><ele>640.8000000000001</ele><time>2026-04-26T07:59:14.053Z</time></trkpt><trkpt lat="37.8671283" lon="15.1027033"><ele>642.0</ele><time>2026-04-26T07:59:15.052Z</time></trkpt><trkpt lat="37.8672133" lon="15.102655"><ele>642.0</ele><time>2026-04-26T07:59:16.052Z</time></trkpt><trkpt lat="37.8672983" lon="15.10262"><ele>642.0</ele><time>2026-04-26T07:59:17.052Z</time></trkpt><trkpt lat="37.8673883" lon="15.1025733"><ele>642.0</ele><time>2026-04-26T07:59:18.052Z</time></trkpt><trkpt lat="37.86748" lon="15.10253"><ele>642.0</ele><time>2026-04-26T07:59:19.052Z</time></trkpt><trkpt lat="37.8675633" lon="15.102485"><ele>642.0</ele><time>2026-04-26T07:59:20.052Z</time></trkpt><trkpt lat="37.8676483" lon="15.1024433"><ele>641.4</ele><time>2026-04-26T07:59:21.052Z</time></trkpt><trkpt lat="37.86774" lon="15.102405"><ele>640.8000000000001</ele><time>2026-04-26T07:59:22.052Z</time></trkpt><trkpt lat="37.8678283" lon="15.1023633"><ele>640.2</ele><time>2026-04-26T07:59:23.052Z</time></trkpt><trkpt lat="37.8679183" lon="15.10232"><ele>639.6</ele><time>2026-04-26T07:59:24.052Z</time></trkpt><trkpt lat="37.86802" lon="15.102285"><ele>639.0</ele><time>2026-04-26T07:59:25.052Z</time></trkpt><trkpt lat="37.868125" lon="15.1022683"><ele>639.0</ele><time>2026-04-26T07:59:26.052Z</time></trkpt><trkpt lat="37.868225" lon="15.1022633"><ele>639.0</ele><time>2026-04-26T07:59:27.052Z</time></trkpt><trkpt lat="37.868335" lon="15.1022667"><ele>639.0</ele><time>2026-04-26T07:59:28.052Z</time></trkpt><trkpt lat="37.86844" lon="15.1022917"><ele>639.0</ele><time>2026-04-26T07:59:29.052Z</time></trkpt><trkpt lat="37.86854" lon="15.1023367"><ele>639.0</ele><time>2026-04-26T07:59:30.052Z</time></trkpt><trkpt lat="37.868645" lon="15.10239"><ele>638.8</ele><time>2026-04-26T07:59:31.052Z</time></trkpt><trkpt lat="37.868735" lon="15.1024567"><ele>638.5999999999999</ele><time>2026-04-26T07:59:32.052Z</time></trkpt><trkpt lat="37.868815" lon="15.10253"><ele>638.4</ele><time>2026-04-26T07:59:33.052Z</time></trkpt><trkpt lat="37.8689017" lon="15.1026067"><ele>638.1999999999999</ele><time>2026-04-26T07:59:34.052Z</time></trkpt><trkpt lat="37.8689783" lon="15.10268"><ele>638.0</ele><time>2026-04-26T07:59:35.052Z</time></trkpt><trkpt lat="37.86906" lon="15.102745"><ele>638.0</ele><time>2026-04-26T07:59:36.052Z</time></trkpt><trkpt lat="37.8691433" lon="15.1027933"><ele>638.0</ele><time>2026-04-26T07:59:37.052Z</time></trkpt><trkpt lat="37.8692383" lon="15.1028317"><ele>638.0</ele><time>2026-04-26T07:59:38.052Z</time></trkpt><trkpt lat="37.8693433" lon="15.1028633"><ele>638.0</ele><time>2026-04-26T07:59:39.052Z</time></trkpt><trkpt lat="37.8694533" lon="15.102875"><ele>638.0</ele><time>2026-04-26T07:59:40.052Z</time></trkpt><trkpt lat="37.8695583" lon="15.1028783"><ele>637.75</ele><time>2026-04-26T07:59:41.052Z</time></trkpt><trkpt lat="37.869685" lon="15.102855"><ele>637.5</ele><time>2026-04-26T07:59:42.052Z</time></trkpt><trkpt lat="37.8698083" lon="15.102835"><ele>637.25</ele><time>2026-04-26T07:59:43.052Z</time></trkpt><trkpt lat="37.869925" lon="15.1028233"><ele>637.0</ele><time>2026-04-26T07:59:44.052Z</time></trkpt><trkpt lat="37.870035" lon="15.1028117"><ele>637.0</ele><time>2026-04-26T07:59:45.052Z</time></trkpt><trkpt lat="37.8701283" lon="15.1028"><ele>637.0</ele><time>2026-04-26T07:59:46.052Z</time></trkpt><trkpt lat="37.8702117" lon="15.1028117"><ele>637.0</ele><time>2026-04-26T07:59:47.052Z</time></trkpt><trkpt lat="37.870295" lon="15.10283"><ele>637.0</ele><time>2026-04-26T07:59:48.052Z</time></trkpt><trkpt lat="37.8703733" lon="15.10285"><ele>637.0</ele><time>2026-04-26T07:59:49.052Z</time></trkpt><trkpt lat="37.8704533" lon="15.1028783"><ele>637.0</ele><time>2026-04-26T07:59:50.052Z</time></trkpt><trkpt lat="37.870525" lon="15.1029067"><ele>637.0</ele><time>2026-04-26T07:59:51.052Z</time></trkpt><trkpt lat="37.8705867" lon="15.1029533"><ele>637.0</ele><time>2026-04-26T07:59:52.052Z</time></trkpt><trkpt lat="37.87065" lon="15.1029917"><ele>637.0</ele><time>2026-04-26T07:59:53.052Z</time></trkpt><trkpt lat="37.870715" lon="15.1030317"><ele>637.0</ele><time>2026-04-26T07:59:54.052Z</time></trkpt><trkpt lat="37.8707783" lon="15.103095"><ele>637.0</ele><time>2026-04-26T07:59:55.052Z</time></trkpt><trkpt lat="37.87084" lon="15.1031683"><ele>637.0</ele><time>2026-04-26T07:59:56.052Z</time></trkpt><trkpt lat="37.8708983" lon="15.1032517"><ele>634.6</ele><time>2026-04-26T07:59:57.052Z</time></trkpt><trkpt lat="37.870955" lon="15.1033417"><ele>632.2</ele><time>2026-04-26T07:59:58.052Z</time></trkpt><trkpt lat="37.871" lon="15.1034367"><ele>629.8</ele><time>2026-04-26T07:59:59.052Z</time></trkpt><trkpt lat="37.8710417" lon="15.1035467"><ele>627.4</ele><time>2026-04-26T08:00:00.052Z</time></trkpt><trkpt lat="37.8710717" lon="15.1036533"><ele>625.0</ele><time>2026-04-26T08:00:01.052Z</time></trkpt><trkpt lat="37.8711033" lon="15.103765"><ele>625.0</ele><time>2026-04-26T08:00:02.053Z</time></trkpt><trkpt lat="37.87113" lon="15.103875"><ele>625.0</ele><time>2026-04-26T08:00:03.052Z</time></trkpt><trkpt lat="37.8711417" lon="15.1039867"><ele>625.0</ele><time>2026-04-26T08:00:04.052Z</time></trkpt><trkpt lat="37.87115" lon="15.1041033"><ele>625.0</ele><time>2026-04-26T08:00:05.052Z</time></trkpt><trkpt lat="37.8711533" lon="15.1042233"><ele>625.0</ele><time>2026-04-26T08:00:06.052Z</time></trkpt><trkpt lat="37.8711333" lon="15.1043517"><ele>625.0</ele><time>2026-04-26T08:00:07.052Z</time></trkpt><trkpt lat="37.8711133" lon="15.1044883"><ele>625.0</ele><time>2026-04-26T08:00:08.052Z</time></trkpt><trkpt lat="37.8711" lon="15.1046283"><ele>625.0</ele><time>2026-04-26T08:00:09.052Z</time></trkpt><trkpt lat="37.87109" lon="15.1047467"><ele>625.0</ele><time>2026-04-26T08:00:10.053Z</time></trkpt><trkpt lat="37.871085" lon="15.1048767"><ele>625.0</ele><time>2026-04-26T08:00:11.052Z</time></trkpt><trkpt lat="37.8710883" lon="15.105"><ele>626.0</ele><time>2026-04-26T08:00:12.052Z</time></trkpt><trkpt lat="37.8710967" lon="15.1051233"><ele>627.0</ele><time>2026-04-26T08:00:13.053Z</time></trkpt><trkpt lat="37.8711233" lon="15.1052417"><ele>628.0</ele><time>2026-04-26T08:00:14.052Z</time></trkpt><trkpt lat="37.87116" lon="15.1053517"><ele>629.0</ele><time>2026-04-26T08:00:15.052Z</time></trkpt><trkpt lat="37.8712033" lon="15.10546"><ele>630.0</ele><time>2026-04-26T08:00:16.052Z</time></trkpt><trkpt lat="37.8712517" lon="15.1055667"><ele>630.0</ele><time>2026-04-26T08:00:17.052Z</time></trkpt><trkpt lat="37.8713233" lon="15.1056733"><ele>630.0</ele><time>2026-04-26T08:00:18.052Z</time></trkpt><trkpt lat="37.8714" lon="15.105775"><ele>630.0</ele><time>2026-04-26T08:00:19.052Z</time></trkpt><trkpt lat="37.8714717" lon="15.1058717"><ele>630.0</ele><time>2026-04-26T08:00:20.052Z</time></trkpt><trkpt lat="37.8715333" lon="15.1059617"><ele>630.0</ele><time>2026-04-26T08:00:21.052Z</time></trkpt><trkpt lat="37.8715967" lon="15.1060533"><ele>629.8</ele><time>2026-04-26T08:00:22.053Z</time></trkpt><trkpt lat="37.8716483" lon="15.1061483"><ele>629.6</ele><time>2026-04-26T08:00:23.052Z</time></trkpt><trkpt lat="37.871695" lon="15.1062567"><ele>629.4</ele><time>2026-04-26T08:00:24.052Z</time></trkpt><trkpt lat="37.87174" lon="15.1063717"><ele>629.2</ele><time>2026-04-26T08:00:25.052Z</time></trkpt><trkpt lat="37.8717833" lon="15.1065"><ele>629.0</ele><time>2026-04-26T08:00:26.052Z</time></trkpt><trkpt lat="37.8718017" lon="15.1066133"><ele>627.0</ele><time>2026-04-26T08:00:27.052Z</time></trkpt><trkpt lat="37.8718033" lon="15.1067017"><ele>625.0</ele><time>2026-04-26T08:00:28.052Z</time></trkpt><trkpt lat="37.8718033" lon="15.1067917"><ele>623.0</ele><time>2026-04-26T08:00:29.052Z</time></trkpt><trkpt lat="37.8717967" lon="15.1068833"><ele>621.0</ele><time>2026-04-26T08:00:30.052Z</time></trkpt><trkpt lat="37.8717733" lon="15.1069883"><ele>619.0</ele><time>2026-04-26T08:00:31.052Z</time></trkpt><trkpt lat="37.8717433" lon="15.1070933"><ele>617.0</ele><time>2026-04-26T08:00:32.052Z</time></trkpt><trkpt lat="37.871705" lon="15.1072017"><ele>620.2</ele><time>2026-04-26T08:00:33.051Z</time></trkpt><trkpt lat="37.8716667" lon="15.107325"><ele>623.4000000000001</ele><time>2026-04-26T08:00:34.051Z</time></trkpt><trkpt lat="37.8716317" lon="15.10744"><ele>626.5999999999999</ele><time>2026-04-26T08:00:35.051Z</time></trkpt><trkpt lat="37.8715867" lon="15.1075533"><ele>629.8</ele><time>2026-04-26T08:00:36.051Z</time></trkpt><trkpt lat="37.8715367" lon="15.1076667"><ele>633.0</ele><time>2026-04-26T08:00:37.051Z</time></trkpt><trkpt lat="37.8714833" lon="15.1077717"><ele>633.0</ele><time>2026-04-26T08:00:38.051Z</time></trkpt><trkpt lat="37.8714283" lon="15.107865"><ele>633.0</ele><time>2026-04-26T08:00:39.051Z</time></trkpt><trkpt lat="37.871385" lon="15.1079567"><ele>633.0</ele><time>2026-04-26T08:00:40.051Z</time></trkpt><trkpt lat="37.8713467" lon="15.10805"><ele>633.0</ele><time>2026-04-26T08:00:41.051Z</time></trkpt><trkpt lat="37.8713067" lon="15.108145"><ele>633.0</ele><time>2026-04-26T08:00:42.051Z</time></trkpt><trkpt lat="37.8712433" lon="15.1082517"><ele>631.0</ele><time>2026-04-26T08:00:43.051Z</time></trkpt><trkpt lat="37.87121" lon="15.1083433"><ele>629.0</ele><time>2026-04-26T08:00:44.051Z</time></trkpt><trkpt lat="37.8711883" lon="15.108425"><ele>627.0</ele><time>2026-04-26T08:00:45.051Z</time></trkpt><trkpt lat="37.8711667" lon="15.1085133"><ele>625.0</ele><time>2026-04-26T08:00:46.051Z</time></trkpt><trkpt lat="37.87115" lon="15.1086017"><ele>623.0</ele><time>2026-04-26T08:00:47.051Z</time></trkpt><trkpt lat="37.871135" lon="15.1086817"><ele>621.0</ele><time>2026-04-26T08:00:48.051Z</time></trkpt><trkpt lat="37.87111" lon="15.1088233"><ele>621.0</ele><time>2026-04-26T08:00:50.051Z</time></trkpt><trkpt lat="37.8711067" lon="15.10896"><ele>621.0</ele><time>2026-04-26T08:00:52.052Z</time></trkpt><trkpt lat="37.8711117" lon="15.1090533"><ele>621.0</ele><time>2026-04-26T08:00:53.051Z</time></trkpt><trkpt lat="37.871115" lon="15.1091617"><ele>621.0</ele><time>2026-04-26T08:00:54.051Z</time></trkpt><trkpt lat="37.87113" lon="15.1092817"><ele>621.0</ele><time>2026-04-26T08:00:55.051Z</time></trkpt><trkpt lat="37.8711567" lon="15.109385"><ele>621.0</ele><time>2026-04-26T08:00:56.051Z</time></trkpt><trkpt lat="37.8711833" lon="15.1094883"><ele>621.3333333333334</ele><time>2026-04-26T08:00:57.051Z</time></trkpt><trkpt lat="37.8712033" lon="15.1095933"><ele>621.6666666666666</ele><time>2026-04-26T08:00:58.051Z</time></trkpt><trkpt lat="37.8712283" lon="15.1096867"><ele>622.0</ele><time>2026-04-26T08:00:59.051Z</time></trkpt><trkpt lat="37.8712567" lon="15.109775"><ele>622.3333333333333</ele><time>2026-04-26T08:01:00.051Z</time></trkpt><trkpt lat="37.8713017" lon="15.109865"><ele>622.6666666666666</ele><time>2026-04-26T08:01:01.051Z</time></trkpt><trkpt lat="37.8713517" lon="15.1099483"><ele>623.0</ele><time>2026-04-26T08:01:02.051Z</time></trkpt><trkpt lat="37.871405" lon="15.1100367"><ele>623.8333333333333</ele><time>2026-04-26T08:01:03.051Z</time></trkpt><trkpt lat="37.8714667" lon="15.110125"><ele>624.6666666666666</ele><time>2026-04-26T08:01:04.051Z</time></trkpt><trkpt lat="37.8715367" lon="15.1102133"><ele>625.5</ele><time>2026-04-26T08:01:05.051Z</time></trkpt><trkpt lat="37.8716033" lon="15.11029"><ele>626.3333333333334</ele><time>2026-04-26T08:01:06.051Z</time></trkpt><trkpt lat="37.8716617" lon="15.1103683"><ele>627.1666666666667</ele><time>2026-04-26T08:01:07.051Z</time></trkpt><trkpt lat="37.87172" lon="15.1104417"><ele>628.0</ele><time>2026-04-26T08:01:08.051Z</time></trkpt><trkpt lat="37.8717717" lon="15.1105217"><ele>627.1666666666667</ele><time>2026-04-26T08:01:09.051Z</time></trkpt><trkpt lat="37.8718333" lon="15.1105917"><ele>626.3333333333334</ele><time>2026-04-26T08:01:10.051Z</time></trkpt><trkpt lat="37.8718867" lon="15.1106667"><ele>625.5</ele><time>2026-04-26T08:01:11.051Z</time></trkpt><trkpt lat="37.8719433" lon="15.110755"><ele>624.6666666666666</ele><time>2026-04-26T08:01:12.051Z</time></trkpt><trkpt lat="37.8720083" lon="15.1108367"><ele>623.8333333333333</ele><time>2026-04-26T08:01:13.051Z</time></trkpt><trkpt lat="37.872065" lon="15.1109183"><ele>623.0</ele><time>2026-04-26T08:01:14.051Z</time></trkpt><trkpt lat="37.8721283" lon="15.110995"><ele>623.0</ele><time>2026-04-26T08:01:15.051Z</time></trkpt><trkpt lat="37.8721883" lon="15.1110683"><ele>623.0</ele><time>2026-04-26T08:01:16.052Z</time></trkpt><trkpt lat="37.8722433" lon="15.111135"><ele>623.0</ele><time>2026-04-26T08:01:17.051Z</time></trkpt><trkpt lat="37.87229" lon="15.1112017"><ele>623.0</ele><time>2026-04-26T08:01:18.051Z</time></trkpt><trkpt lat="37.8723267" lon="15.1112733"><ele>623.0</ele><time>2026-04-26T08:01:19.051Z</time></trkpt><trkpt lat="37.8723967" lon="15.1113733"><ele>623.0</ele><time>2026-04-26T08:01:21.051Z</time></trkpt><trkpt lat="37.8724667" lon="15.1113233"><ele>623.0</ele><time>2026-04-26T08:01:26.051Z</time></trkpt><trkpt lat="37.87251" lon="15.1112283"><ele>623.0</ele><time>2026-04-26T08:01:29.051Z</time></trkpt><trkpt lat="37.8725583" lon="15.1110917"><ele>623.0</ele><time>2026-04-26T08:01:31.051Z</time></trkpt><trkpt lat="37.8725917" lon="15.11102"><ele>623.0</ele><time>2026-04-26T08:01:32.051Z</time></trkpt><trkpt lat="37.8726667" lon="15.1109017"><ele>623.0</ele><time>2026-04-26T08:01:34.051Z</time></trkpt><trkpt lat="37.872735" lon="15.11084"><ele>622.1666666666666</ele><time>2026-04-26T08:01:36.051Z</time></trkpt><trkpt lat="37.8728217" lon="15.1107867"><ele>621.3333333333333</ele><time>2026-04-26T08:01:38.051Z</time></trkpt><trkpt lat="37.8729017" lon="15.1107083"><ele>620.5</ele><time>2026-04-26T08:01:40.051Z</time></trkpt><trkpt lat="37.87294" lon="15.110615"><ele>619.6666666666666</ele><time>2026-04-26T08:01:42.051Z</time></trkpt><trkpt lat="37.8729733" lon="15.1105333"><ele>618.8333333333334</ele><time>2026-04-26T08:01:44.051Z</time></trkpt><trkpt lat="37.8730167" lon="15.110445"><ele>618.0</ele><time>2026-04-26T08:01:47.051Z</time></trkpt><trkpt lat="37.8730917" lon="15.1104117"><ele>618.0</ele><time>2026-04-26T08:01:50.051Z</time></trkpt><trkpt lat="37.8731833" lon="15.1104233"><ele>618.0</ele><time>2026-04-26T08:01:53.051Z</time></trkpt><trkpt lat="37.8732567" lon="15.1104183"><ele>618.0</ele><time>2026-04-26T08:01:57.051Z</time></trkpt><trkpt lat="37.8733183" lon="15.1105067"><ele>618.0</ele><time>2026-04-26T08:02:01.051Z</time></trkpt><trkpt lat="37.8733367" lon="15.1106233"><ele>618.0</ele><time>2026-04-26T08:02:03.051Z</time></trkpt><trkpt lat="37.8733517" lon="15.1107383"><ele>618.0</ele><time>2026-04-26T08:02:05.051Z</time></trkpt><trkpt lat="37.873385" lon="15.110815"><ele>613.0</ele><time>2026-04-26T08:02:07.051Z</time></trkpt><trkpt lat="37.8734467" lon="15.1108833"><ele>608.0</ele><time>2026-04-26T08:02:09.051Z</time></trkpt><trkpt lat="37.8735167" lon="15.11094"><ele>603.0</ele><time>2026-04-26T08:02:11.051Z</time></trkpt><trkpt lat="37.87359" lon="15.11097"><ele>598.0</ele><time>2026-04-26T08:02:13.052Z</time></trkpt><trkpt lat="37.8736567" lon="15.11101"><ele>593.0</ele><time>2026-04-26T08:02:15.051Z</time></trkpt><trkpt lat="37.8737083" lon="15.11106"><ele>588.0</ele><time>2026-04-26T08:02:17.051Z</time></trkpt><trkpt lat="37.873765" lon="15.1111383"><ele>588.0</ele><time>2026-04-26T08:03:19.051Z</time></trkpt><trkpt lat="37.87386" lon="15.11121"><ele>588.0</ele><time>2026-04-26T08:03:22.051Z</time></trkpt><trkpt lat="37.8739433" lon="15.1112867"><ele>588.0</ele><time>2026-04-26T08:03:24.051Z</time></trkpt><trkpt lat="37.874025" lon="15.1113183"><ele>588.0</ele><time>2026-04-26T08:03:26.051Z</time></trkpt><trkpt lat="37.87407" lon="15.1112383"><ele>588.0</ele><time>2026-04-26T08:03:30.051Z</time></trkpt><trkpt lat="37.8740717" lon="15.11113"><ele>588.0</ele><time>2026-04-26T08:03:34.051Z</time></trkpt><trkpt lat="37.8740567" lon="15.1110067"><ele>588.0</ele><time>2026-04-26T08:03:37.051Z</time></trkpt><trkpt lat="37.8740333" lon="15.1109"><ele>588.0</ele><time>2026-04-26T08:03:39.052Z</time></trkpt><trkpt lat="37.8741167" lon="15.1109117"><ele>588.0</ele><time>2026-04-26T08:03:45.051Z</time></trkpt><trkpt lat="37.874185" lon="15.11095"><ele>588.0</ele><time>2026-04-26T08:03:47.051Z</time></trkpt><trkpt lat="37.8742483" lon="15.1109667"><ele>588.0</ele><time>2026-04-26T08:03:49.051Z</time></trkpt><trkpt lat="37.8743033" lon="15.1109183"><ele>585.8333333333334</ele><time>2026-04-26T08:03:52.051Z</time></trkpt><trkpt lat="37.8743033" lon="15.1108167"><ele>583.6666666666666</ele><time>2026-04-26T08:03:55.051Z</time></trkpt><trkpt lat="37.8742717" lon="15.11073"><ele>581.5</ele><time>2026-04-26T08:03:58.051Z</time></trkpt><trkpt lat="37.8742233" lon="15.11067"><ele>579.3333333333333</ele><time>2026-04-26T08:04:00.051Z</time></trkpt><trkpt lat="37.874165" lon="15.1105983"><ele>577.1666666666666</ele><time>2026-04-26T08:04:02.051Z</time></trkpt><trkpt lat="37.8741083" lon="15.1105283"><ele>575.0</ele><time>2026-04-26T08:04:04.052Z</time></trkpt><trkpt lat="37.874075" lon="15.110435"><ele>575.0</ele><time>2026-04-26T08:04:07.051Z</time></trkpt><trkpt lat="37.8740717" lon="15.1103533"><ele>575.0</ele><time>2026-04-26T08:04:09.051Z</time></trkpt><trkpt lat="37.8740733" lon="15.1102483"><ele>575.0</ele><time>2026-04-26T08:04:11.051Z</time></trkpt><trkpt lat="37.8740633" lon="15.1101567"><ele>575.0</ele><time>2026-04-26T08:04:13.051Z</time></trkpt><trkpt lat="37.87406" lon="15.1100717"><ele>575.0</ele><time>2026-04-26T08:04:15.051Z</time></trkpt><trkpt lat="37.8740933" lon="15.1099717"><ele>575.0</ele><time>2026-04-26T08:04:18.051Z</time></trkpt><trkpt lat="37.8741367" lon="15.1100567"><ele>575.0</ele><time>2026-04-26T08:04:24.051Z</time></trkpt><trkpt lat="37.8742433" lon="15.1100917"><ele>575.0</ele><time>2026-04-26T08:04:51.051Z</time></trkpt><trkpt lat="37.8742667" lon="15.1101917"><ele>575.0</ele><time>2026-04-26T08:04:57.052Z</time></trkpt><trkpt lat="37.8743233" lon="15.1102967"><ele>575.0</ele><time>2026-04-26T08:05:16.051Z</time></trkpt><trkpt lat="37.8743317" lon="15.1103833"><ele>575.0</ele><time>2026-04-26T08:06:55.051Z</time></trkpt><trkpt lat="37.8743833" lon="15.110445"><ele>575.0</ele><time>2026-04-26T08:06:57.051Z</time></trkpt><trkpt lat="37.8744333" lon="15.1105217"><ele>572.1666666666666</ele><time>2026-04-26T08:06:59.051Z</time></trkpt><trkpt lat="37.874475" lon="15.1106167"><ele>569.3333333333333</ele><time>2026-04-26T08:07:01.051Z</time></trkpt><trkpt lat="37.87452" lon="15.1107183"><ele>566.5</ele><time>2026-04-26T08:07:03.051Z</time></trkpt><trkpt lat="37.8745833" lon="15.1107733"><ele>563.6666666666666</ele><time>2026-04-26T08:07:05.051Z</time></trkpt><trkpt lat="37.8746383" lon="15.1107083"><ele>560.8333333333334</ele><time>2026-04-26T08:07:09.051Z</time></trkpt><trkpt lat="37.8746383" lon="15.1106017"><ele>558.0</ele><time>2026-04-26T08:07:12.051Z</time></trkpt><trkpt lat="37.8746567" lon="15.1105183"><ele>555.8</ele><time>2026-04-26T08:07:15.051Z</time></trkpt><trkpt lat="37.8747133" lon="15.1104267"><ele>553.5999999999999</ele><time>2026-04-26T08:08:20.051Z</time></trkpt><trkpt lat="37.8747417" lon="15.1103483"><ele>551.4000000000001</ele><time>2026-04-26T08:08:24.051Z</time></trkpt><trkpt lat="37.8748467" lon="15.11028"><ele>549.2</ele><time>2026-04-26T08:08:34.051Z</time></trkpt><trkpt lat="37.8749317" lon="15.1102317"><ele>547.0</ele><time>2026-04-26T08:08:37.051Z</time></trkpt><trkpt lat="37.8750183" lon="15.110245"><ele>547.0</ele><time>2026-04-26T08:08:40.051Z</time></trkpt><trkpt lat="37.8750833" lon="15.1102867"><ele>547.0</ele><time>2026-04-26T08:08:42.051Z</time></trkpt><trkpt lat="37.8751333" lon="15.1103417"><ele>547.0</ele><time>2026-04-26T08:08:44.051Z</time></trkpt><trkpt lat="37.875165" lon="15.1104117"><ele>547.0</ele><time>2026-04-26T08:08:46.051Z</time></trkpt><trkpt lat="37.8751667" lon="15.1105"><ele>547.0</ele><time>2026-04-26T08:08:48.051Z</time></trkpt><trkpt lat="37.87519" lon="15.1105983"><ele>547.0</ele><time>2026-04-26T08:10:37.05Z</time></trkpt><trkpt lat="37.87526" lon="15.1107267"><ele>544.0</ele><time>2026-04-26T08:10:39.05Z</time></trkpt><trkpt lat="37.8753183" lon="15.1108617"><ele>541.0</ele><time>2026-04-26T08:10:41.05Z</time></trkpt><trkpt lat="37.8753383" lon="15.11094"><ele>538.0</ele><time>2026-04-26T08:10:42.05Z</time></trkpt><trkpt lat="37.8753567" lon="15.1110183"><ele>535.0</ele><time>2026-04-26T08:10:43.051Z</time></trkpt><trkpt lat="37.8753817" lon="15.111105"><ele>532.0</ele><time>2026-04-26T08:10:44.05Z</time></trkpt><trkpt lat="37.8754183" lon="15.11117"><ele>529.0</ele><time>2026-04-26T08:10:45.05Z</time></trkpt><trkpt lat="37.8754683" lon="15.1112517"><ele>529.0</ele><time>2026-04-26T08:10:46.05Z</time></trkpt><trkpt lat="37.8755167" lon="15.1113317"><ele>529.0</ele><time>2026-04-26T08:10:47.05Z</time></trkpt><trkpt lat="37.8755617" lon="15.111415"><ele>529.0</ele><time>2026-04-26T08:10:48.05Z</time></trkpt><trkpt lat="37.8755833" lon="15.1115017"><ele>529.0</ele><time>2026-04-26T08:10:50.05Z</time></trkpt><trkpt lat="37.8756433" lon="15.1114417"><ele>529.0</ele><time>2026-04-26T08:10:54.05Z</time></trkpt><trkpt lat="37.875685" lon="15.1113483"><ele>529.0</ele><time>2026-04-26T08:10:56.05Z</time></trkpt><trkpt lat="37.8758017" lon="15.1113233"><ele>529.0</ele><time>2026-04-26T08:10:58.05Z</time></trkpt><trkpt lat="37.8758767" lon="15.1113217"><ele>529.0</ele><time>2026-04-26T08:10:59.05Z</time></trkpt><trkpt lat="37.8759583" lon="15.11132"><ele>529.0</ele><time>2026-04-26T08:11:00.05Z</time></trkpt><trkpt lat="37.87604" lon="15.111295"><ele>529.0</ele><time>2026-04-26T08:11:01.05Z</time></trkpt><trkpt lat="37.8761033" lon="15.1112717"><ele>529.0</ele><time>2026-04-26T08:11:02.05Z</time></trkpt><trkpt lat="37.876165" lon="15.1112183"><ele>529.0</ele><time>2026-04-26T08:11:03.05Z</time></trkpt><trkpt lat="37.8762217" lon="15.11115"><ele>526.5</ele><time>2026-04-26T08:11:04.05Z</time></trkpt><trkpt lat="37.8762817" lon="15.11108"><ele>524.0</ele><time>2026-04-26T08:11:05.051Z</time></trkpt><trkpt lat="37.876345" lon="15.11102"><ele>521.5</ele><time>2026-04-26T08:11:06.05Z</time></trkpt><trkpt lat="37.8764183" lon="15.1109567"><ele>519.0</ele><time>2026-04-26T08:11:07.05Z</time></trkpt><trkpt lat="37.8764833" lon="15.1109067"><ele>516.5</ele><time>2026-04-26T08:11:08.05Z</time></trkpt><trkpt lat="37.87656" lon="15.1108733"><ele>514.0</ele><time>2026-04-26T08:11:09.05Z</time></trkpt><trkpt lat="37.8766367" lon="15.110845"><ele>514.0</ele><time>2026-04-26T08:11:10.05Z</time></trkpt><trkpt lat="37.87671" lon="15.11082"><ele>514.0</ele><time>2026-04-26T08:11:11.05Z</time></trkpt><trkpt lat="37.8767817" lon="15.1108067"><ele>514.0</ele><time>2026-04-26T08:11:12.05Z</time></trkpt><trkpt lat="37.876885" lon="15.1107917"><ele>514.0</ele><time>2026-04-26T08:11:14.05Z</time></trkpt><trkpt lat="37.8769283" lon="15.1107067"><ele>514.0</ele><time>2026-04-26T08:11:17.05Z</time></trkpt><trkpt lat="37.876855" lon="15.1106667"><ele>514.0</ele><time>2026-04-26T08:11:19.05Z</time></trkpt><trkpt lat="37.8767433" lon="15.1106683"><ele>511.00000000000006</ele><time>2026-04-26T08:11:21.05Z</time></trkpt><trkpt lat="37.876655" lon="15.1106917"><ele>508.0</ele><time>2026-04-26T08:11:22.05Z</time></trkpt><trkpt lat="37.8765567" lon="15.11071"><ele>505.0</ele><time>2026-04-26T08:11:23.05Z</time></trkpt><trkpt lat="37.876475" lon="15.11072"><ele>502.0</ele><time>2026-04-26T08:11:24.05Z</time></trkpt><trkpt lat="37.87641" lon="15.1107183"><ele>499.00000000000006</ele><time>2026-04-26T08:11:25.05Z</time></trkpt><trkpt lat="37.8763417" lon="15.1106667"><ele>496.0</ele><time>2026-04-26T08:11:27.05Z</time></trkpt><trkpt lat="37.8763967" lon="15.110615"><ele>496.00000000000006</ele><time>2026-04-26T08:11:29.05Z</time></trkpt><trkpt lat="37.87646" lon="15.1106133"><ele>496.0</ele><time>2026-04-26T08:11:30.05Z</time></trkpt><trkpt lat="37.8765417" lon="15.1106067"><ele>496.0</ele><time>2026-04-26T08:11:31.05Z</time></trkpt><trkpt lat="37.8766233" lon="15.1105883"><ele>496.0</ele><time>2026-04-26T08:11:32.05Z</time></trkpt><trkpt lat="37.8767" lon="15.110555"><ele>496.00000000000006</ele><time>2026-04-26T08:11:33.05Z</time></trkpt><trkpt lat="37.876775" lon="15.1105167"><ele>496.0</ele><time>2026-04-26T08:11:34.05Z</time></trkpt><trkpt lat="37.876845" lon="15.1104567"><ele>492.83333333333337</ele><time>2026-04-26T08:11:35.05Z</time></trkpt><trkpt lat="37.87691" lon="15.1103833"><ele>489.6666666666667</ele><time>2026-04-26T08:11:36.05Z</time></trkpt><trkpt lat="37.876975" lon="15.1103217"><ele>486.5</ele><time>2026-04-26T08:11:37.05Z</time></trkpt><trkpt lat="37.8770283" lon="15.1102783"><ele>483.33333333333337</ele><time>2026-04-26T08:11:38.05Z</time></trkpt><trkpt lat="37.877135" lon="15.1102717"><ele>480.1666666666667</ele><time>2026-04-26T08:11:40.05Z</time></trkpt><trkpt lat="37.8772233" lon="15.11035"><ele>477.0</ele><time>2026-04-26T08:11:42.05Z</time></trkpt><trkpt lat="37.877265" lon="15.1104233"><ele>477.0</ele><time>2026-04-26T08:11:43.05Z</time></trkpt><trkpt lat="37.8773017" lon="15.1105183"><ele>477.0</ele><time>2026-04-26T08:11:44.05Z</time></trkpt><trkpt lat="37.8773417" lon="15.11061"><ele>477.0</ele><time>2026-04-26T08:11:45.05Z</time></trkpt><trkpt lat="37.8773667" lon="15.1107017"><ele>477.0</ele><time>2026-04-26T08:11:46.05Z</time></trkpt><trkpt lat="37.8774" lon="15.1107967"><ele>477.0</ele><time>2026-04-26T08:11:47.05Z</time></trkpt><trkpt lat="37.8774217" lon="15.1108883"><ele>477.0</ele><time>2026-04-26T08:11:48.05Z</time></trkpt><trkpt lat="37.877445" lon="15.110975"><ele>479.0</ele><time>2026-04-26T08:11:49.05Z</time></trkpt><trkpt lat="37.877485" lon="15.1110533"><ele>480.99999999999994</ele><time>2026-04-26T08:11:50.05Z</time></trkpt><trkpt lat="37.8775283" lon="15.11113"><ele>483.0</ele><time>2026-04-26T08:11:51.05Z</time></trkpt><trkpt lat="37.87758" lon="15.1111933"><ele>485.0</ele><time>2026-04-26T08:11:52.051Z</time></trkpt><trkpt lat="37.8776383" lon="15.1112533"><ele>486.99999999999994</ele><time>2026-04-26T08:11:53.05Z</time></trkpt><trkpt lat="37.8777" lon="15.1112917"><ele>489.0</ele><time>2026-04-26T08:11:54.051Z</time></trkpt><trkpt lat="37.877765" lon="15.1113133"><ele>491.0</ele><time>2026-04-26T08:11:55.05Z</time></trkpt><trkpt lat="37.8778733" lon="15.1112483"><ele>485.99999999999994</ele><time>2026-04-26T08:11:57.05Z</time></trkpt><trkpt lat="37.8779333" lon="15.1111867"><ele>481.0</ele><time>2026-04-26T08:11:58.05Z</time></trkpt><trkpt lat="37.878" lon="15.111135"><ele>476.0</ele><time>2026-04-26T08:11:59.051Z</time></trkpt><trkpt lat="37.8780717" lon="15.1111017"><ele>471.0</ele><time>2026-04-26T08:12:00.05Z</time></trkpt><trkpt lat="37.8781433" lon="15.1110917"><ele>465.99999999999994</ele><time>2026-04-26T08:12:01.05Z</time></trkpt><trkpt lat="37.878215" lon="15.1111117"><ele>461.0</ele><time>2026-04-26T08:12:02.05Z</time></trkpt><trkpt lat="37.878285" lon="15.1111467"><ele>461.0</ele><time>2026-04-26T08:12:03.05Z</time></trkpt><trkpt lat="37.8783433" lon="15.1112017"><ele>461.00000000000006</ele><time>2026-04-26T08:12:04.05Z</time></trkpt><trkpt lat="37.87839" lon="15.1112717"><ele>461.0</ele><time>2026-04-26T08:12:05.05Z</time></trkpt><trkpt lat="37.878415" lon="15.1113567"><ele>461.0</ele><time>2026-04-26T08:12:06.05Z</time></trkpt><trkpt lat="37.8784317" lon="15.1114517"><ele>461.00000000000006</ele><time>2026-04-26T08:12:07.05Z</time></trkpt><trkpt lat="37.8784433" lon="15.1115567"><ele>461.0</ele><time>2026-04-26T08:12:08.05Z</time></trkpt><trkpt lat="37.8784583" lon="15.111645"><ele>461.0</ele><time>2026-04-26T08:12:09.051Z</time></trkpt><trkpt lat="37.87848" lon="15.1117317"><ele>460.6</ele><time>2026-04-26T08:12:10.05Z</time></trkpt><trkpt lat="37.8785517" lon="15.1118317"><ele>460.20000000000005</ele><time>2026-04-26T08:12:12.05Z</time></trkpt><trkpt lat="37.8786367" lon="15.1118167"><ele>459.79999999999995</ele><time>2026-04-26T08:12:14.05Z</time></trkpt><trkpt lat="37.8787333" lon="15.1117333"><ele>459.4</ele><time>2026-04-26T08:12:16.05Z</time></trkpt><trkpt lat="37.87887" lon="15.111705"><ele>459.0</ele><time>2026-04-26T08:12:18.05Z</time></trkpt><trkpt lat="37.8789467" lon="15.111695"><ele>459.0</ele><time>2026-04-26T08:12:19.05Z</time></trkpt><trkpt lat="37.8790233" lon="15.1116767"><ele>459.0</ele><time>2026-04-26T08:12:20.051Z</time></trkpt><trkpt lat="37.879105" lon="15.1116383"><ele>459.0</ele><time>2026-04-26T08:12:21.05Z</time></trkpt><trkpt lat="37.879185" lon="15.1116033"><ele>459.0</ele><time>2026-04-26T08:12:22.05Z</time></trkpt><trkpt lat="37.879255" lon="15.11157"><ele>459.0</ele><time>2026-04-26T08:12:23.05Z</time></trkpt><trkpt lat="37.8793383" lon="15.1115083"><ele>459.0</ele><time>2026-04-26T08:12:25.05Z</time></trkpt><trkpt lat="37.8793617" lon="15.11139"><ele>458.8333333333333</ele><time>2026-04-26T08:12:27.05Z</time></trkpt><trkpt lat="37.879405" lon="15.1112833"><ele>458.66666666666663</ele><time>2026-04-26T08:12:29.05Z</time></trkpt><trkpt lat="37.8794567" lon="15.1112333"><ele>458.5</ele><time>2026-04-26T08:12:31.05Z</time></trkpt><trkpt lat="37.8795417" lon="15.1111667"><ele>458.3333333333333</ele><time>2026-04-26T08:12:33.05Z</time></trkpt><trkpt lat="37.87959" lon="15.1110983"><ele>458.16666666666663</ele><time>2026-04-26T08:12:34.05Z</time></trkpt><trkpt lat="37.87964" lon="15.1110233"><ele>458.0</ele><time>2026-04-26T08:12:35.05Z</time></trkpt><trkpt lat="37.8796933" lon="15.1109433"><ele>458.0</ele><time>2026-04-26T08:12:36.05Z</time></trkpt><trkpt lat="37.87975" lon="15.1108633"><ele>457.99999999999994</ele><time>2026-04-26T08:12:37.05Z</time></trkpt><trkpt lat="37.8798083" lon="15.1107733"><ele>457.99999999999994</ele><time>2026-04-26T08:12:38.05Z</time></trkpt><trkpt lat="37.87987" lon="15.110685"><ele>458.0</ele><time>2026-04-26T08:12:39.05Z</time></trkpt><trkpt lat="37.8799333" lon="15.1105983"><ele>458.0</ele><time>2026-04-26T08:12:40.05Z</time></trkpt><trkpt lat="37.8799917" lon="15.1105083"><ele>457.3333333333333</ele><time>2026-04-26T08:12:41.05Z</time></trkpt><trkpt lat="37.8800417" lon="15.1104317"><ele>456.66666666666663</ele><time>2026-04-26T08:12:42.05Z</time></trkpt><trkpt lat="37.8800967" lon="15.1103617"><ele>456.0</ele><time>2026-04-26T08:12:43.05Z</time></trkpt><trkpt lat="37.88016" lon="15.1103067"><ele>455.33333333333337</ele><time>2026-04-26T08:12:44.05Z</time></trkpt><trkpt lat="37.8802267" lon="15.11026"><ele>454.6666666666667</ele><time>2026-04-26T08:12:45.05Z</time></trkpt><trkpt lat="37.8802983" lon="15.1102233"><ele>454.0</ele><time>2026-04-26T08:12:46.05Z</time></trkpt><trkpt lat="37.88037" lon="15.11019"><ele>453.50000000000006</ele><time>2026-04-26T08:12:47.05Z</time></trkpt><trkpt lat="37.8804517" lon="15.11015"><ele>453.0</ele><time>2026-04-26T08:12:48.05Z</time></trkpt><trkpt lat="37.8805333" lon="15.1101117"><ele>452.5</ele><time>2026-04-26T08:12:49.05Z</time></trkpt><trkpt lat="37.88061" lon="15.11007"><ele>452.0</ele><time>2026-04-26T08:12:50.05Z</time></trkpt><trkpt lat="37.8806933" lon="15.1100167"><ele>451.50000000000006</ele><time>2026-04-26T08:12:51.05Z</time></trkpt><trkpt lat="37.88078" lon="15.1099733"><ele>451.0</ele><time>2026-04-26T08:12:52.05Z</time></trkpt><trkpt lat="37.88088" lon="15.10993"><ele>449.5</ele><time>2026-04-26T08:12:53.05Z</time></trkpt><trkpt lat="37.8809983" lon="15.1099033"><ele>448.0</ele><time>2026-04-26T08:12:54.051Z</time></trkpt><trkpt lat="37.8811383" lon="15.1098933"><ele>446.5</ele><time>2026-04-26T08:12:55.05Z</time></trkpt><trkpt lat="37.8812817" lon="15.1098867"><ele>445.0</ele><time>2026-04-26T08:12:56.05Z</time></trkpt><trkpt lat="37.8814083" lon="15.1098767"><ele>445.0</ele><time>2026-04-26T08:12:57.05Z</time></trkpt><trkpt lat="37.8815383" lon="15.109835"><ele>445.0</ele><time>2026-04-26T08:12:58.05Z</time></trkpt><trkpt lat="37.8816517" lon="15.1097817"><ele>445.0</ele><time>2026-04-26T08:12:59.05Z</time></trkpt><trkpt lat="37.8817467" lon="15.1097183"><ele>445.0</ele><time>2026-04-26T08:13:00.05Z</time></trkpt><trkpt lat="37.8818383" lon="15.10966"><ele>442.8</ele><time>2026-04-26T08:13:01.05Z</time></trkpt><trkpt lat="37.88192" lon="15.109585"><ele>440.6</ele><time>2026-04-26T08:13:02.05Z</time></trkpt><trkpt lat="37.88199" lon="15.109505"><ele>438.4</ele><time>2026-04-26T08:13:03.05Z</time></trkpt><trkpt lat="37.8820433" lon="15.1094217"><ele>436.2</ele><time>2026-04-26T08:13:04.05Z</time></trkpt><trkpt lat="37.88211" lon="15.1093417"><ele>434.0</ele><time>2026-04-26T08:13:05.05Z</time></trkpt><trkpt lat="37.8821833" lon="15.1092683"><ele>433.99999999999994</ele><time>2026-04-26T08:13:06.05Z</time></trkpt><trkpt lat="37.8822583" lon="15.1092117"><ele>434.0</ele><time>2026-04-26T08:13:07.05Z</time></trkpt><trkpt lat="37.8823333" lon="15.10916"><ele>434.0</ele><time>2026-04-26T08:13:08.05Z</time></trkpt><trkpt lat="37.8824033" lon="15.1091167"><ele>434.0</ele><time>2026-04-26T08:13:09.05Z</time></trkpt><trkpt lat="37.8824633" lon="15.1090733"><ele>433.99999999999994</ele><time>2026-04-26T08:13:10.051Z</time></trkpt><trkpt lat="37.8825267" lon="15.1090017"><ele>434.0</ele><time>2026-04-26T08:13:12.05Z</time></trkpt><trkpt lat="37.8825833" lon="15.1088633"><ele>432.5</ele><time>2026-04-26T08:13:14.05Z</time></trkpt><trkpt lat="37.8826083" lon="15.1087533"><ele>431.0</ele><time>2026-04-26T08:13:15.05Z</time></trkpt><trkpt lat="37.8826433" lon="15.1086117"><ele>429.5</ele><time>2026-04-26T08:13:16.05Z</time></trkpt><trkpt lat="37.8826767" lon="15.1084567"><ele>428.0</ele><time>2026-04-26T08:13:17.051Z</time></trkpt><trkpt lat="37.882715" lon="15.1082967"><ele>427.25</ele><time>2026-04-26T08:13:18.05Z</time></trkpt><trkpt lat="37.882755" lon="15.10812"><ele>426.5</ele><time>2026-04-26T08:13:19.05Z</time></trkpt><trkpt lat="37.8827933" lon="15.1079533"><ele>425.75</ele><time>2026-04-26T08:13:20.05Z</time></trkpt><trkpt lat="37.8828333" lon="15.107785"><ele>425.0</ele><time>2026-04-26T08:13:21.05Z</time></trkpt><trkpt lat="37.88287" lon="15.1076117"><ele>425.0</ele><time>2026-04-26T08:13:22.05Z</time></trkpt><trkpt lat="37.8829083" lon="15.1074367"><ele>425.0</ele><time>2026-04-26T08:13:23.05Z</time></trkpt><trkpt lat="37.8829483" lon="15.1072617"><ele>425.0</ele><time>2026-04-26T08:13:24.05Z</time></trkpt><trkpt lat="37.882985" lon="15.1070867"><ele>425.0</ele><time>2026-04-26T08:13:25.05Z</time></trkpt><trkpt lat="37.8830183" lon="15.106925"><ele>425.0</ele><time>2026-04-26T08:13:26.051Z</time></trkpt><trkpt lat="37.883055" lon="15.10678"><ele>425.0</ele><time>2026-04-26T08:13:27.05Z</time></trkpt><trkpt lat="37.8830917" lon="15.1066433"><ele>425.0</ele><time>2026-04-26T08:13:28.05Z</time></trkpt><trkpt lat="37.883125" lon="15.106525"><ele>425.0</ele><time>2026-04-26T08:13:29.05Z</time></trkpt><trkpt lat="37.8831583" lon="15.1064183"><ele>425.0</ele><time>2026-04-26T08:13:30.05Z</time></trkpt><trkpt lat="37.88319" lon="15.1063167"><ele>425.0</ele><time>2026-04-26T08:13:31.05Z</time></trkpt><trkpt lat="37.88323" lon="15.1062433"><ele>425.0</ele><time>2026-04-26T08:13:32.05Z</time></trkpt><trkpt lat="37.8833367" lon="15.1061783"><ele>425.0</ele><time>2026-04-26T08:13:34.05Z</time></trkpt><trkpt lat="37.8834183" lon="15.1061667"><ele>425.0</ele><time>2026-04-26T08:13:35.05Z</time></trkpt><trkpt lat="37.8835067" lon="15.1061517"><ele>425.0</ele><time>2026-04-26T08:13:36.05Z</time></trkpt><trkpt lat="37.8836017" lon="15.1061333"><ele>424.6</ele><time>2026-04-26T08:13:37.05Z</time></trkpt><trkpt lat="37.8836767" lon="15.10612"><ele>424.2</ele><time>2026-04-26T08:13:38.05Z</time></trkpt><trkpt lat="37.8837467" lon="15.106105"><ele>423.79999999999995</ele><time>2026-04-26T08:13:39.05Z</time></trkpt><trkpt lat="37.8838183" lon="15.1060833"><ele>423.4</ele><time>2026-04-26T08:13:40.05Z</time></trkpt><trkpt lat="37.88394" lon="15.1060017"><ele>423.0</ele><time>2026-04-26T08:13:42.05Z</time></trkpt><trkpt lat="37.8840333" lon="15.10594"><ele>423.0</ele><time>2026-04-26T08:13:44.05Z</time></trkpt><trkpt lat="37.8841033" lon="15.1059717"><ele>423.0</ele><time>2026-04-26T08:13:46.05Z</time></trkpt><trkpt lat="37.8841383" lon="15.1061067"><ele>423.0</ele><time>2026-04-26T08:13:48.05Z</time></trkpt><trkpt lat="37.8841533" lon="15.1062217"><ele>423.0</ele><time>2026-04-26T08:13:49.05Z</time></trkpt><trkpt lat="37.8841767" lon="15.10636"><ele>423.0</ele><time>2026-04-26T08:13:50.05Z</time></trkpt><trkpt lat="37.8841967" lon="15.1065083"><ele>423.0</ele><time>2026-04-26T08:13:51.05Z</time></trkpt><trkpt lat="37.8842233" lon="15.106645"><ele>423.0</ele><time>2026-04-26T08:13:52.05Z</time></trkpt><trkpt lat="37.8842483" lon="15.1068017"><ele>423.0</ele><time>2026-04-26T08:13:53.05Z</time></trkpt><trkpt lat="37.8842717" lon="15.1069417"><ele>423.0</ele><time>2026-04-26T08:13:54.05Z</time></trkpt><trkpt lat="37.884305" lon="15.107075"><ele>423.0</ele><time>2026-04-26T08:13:55.05Z</time></trkpt><trkpt lat="37.884345" lon="15.1071983"><ele>423.0</ele><time>2026-04-26T08:13:56.05Z</time></trkpt><trkpt lat="37.884385" lon="15.107315"><ele>423.0</ele><time>2026-04-26T08:13:57.05Z</time></trkpt><trkpt lat="37.88443" lon="15.107415"><ele>423.0</ele><time>2026-04-26T08:13:58.05Z</time></trkpt><trkpt lat="37.8844817" lon="15.1074983"><ele>423.0</ele><time>2026-04-26T08:13:59.05Z</time></trkpt><trkpt lat="37.8845317" lon="15.1075683"><ele>423.0</ele><time>2026-04-26T08:14:00.05Z</time></trkpt><trkpt lat="37.884585" lon="15.1076517"><ele>423.0</ele><time>2026-04-26T08:14:01.05Z</time></trkpt><trkpt lat="37.8846433" lon="15.10772"><ele>423.0</ele><time>2026-04-26T08:14:02.05Z</time></trkpt><trkpt lat="37.884705" lon="15.107775"><ele>423.0</ele><time>2026-04-26T08:14:03.051Z</time></trkpt><trkpt lat="37.8847717" lon="15.1078417"><ele>423.0</ele><time>2026-04-26T08:14:04.05Z</time></trkpt><trkpt lat="37.884845" lon="15.107925"><ele>423.0</ele><time>2026-04-26T08:14:05.05Z</time></trkpt><trkpt lat="37.8849117" lon="15.1080117"><ele>423.0</ele><time>2026-04-26T08:14:06.05Z</time></trkpt><trkpt lat="37.8849733" lon="15.1080983"><ele>423.0</ele><time>2026-04-26T08:14:07.05Z</time></trkpt><trkpt lat="37.8850467" lon="15.108175"><ele>423.0</ele><time>2026-04-26T08:14:08.05Z</time></trkpt><trkpt lat="37.8851167" lon="15.10825"><ele>423.0</ele><time>2026-04-26T08:14:09.05Z</time></trkpt><trkpt lat="37.8851783" lon="15.1083133"><ele>423.0</ele><time>2026-04-26T08:14:10.05Z</time></trkpt><trkpt lat="37.88524" lon="15.1083617"><ele>423.0</ele><time>2026-04-26T08:14:11.05Z</time></trkpt><trkpt lat="37.88531" lon="15.1084033"><ele>422.2</ele><time>2026-04-26T08:14:12.05Z</time></trkpt><trkpt lat="37.8853733" lon="15.1084383"><ele>421.4</ele><time>2026-04-26T08:14:13.05Z</time></trkpt><trkpt lat="37.8854733" lon="15.1085333"><ele>420.59999999999997</ele><time>2026-04-26T08:14:15.05Z</time></trkpt><trkpt lat="37.8854917" lon="15.1086633"><ele>419.79999999999995</ele><time>2026-04-26T08:14:17.05Z</time></trkpt><trkpt lat="37.88544" lon="15.1088233"><ele>419.0</ele><time>2026-04-26T08:14:19.051Z</time></trkpt><trkpt lat="37.8854067" lon="15.1088983"><ele>418.99999999999994</ele><time>2026-04-26T08:14:20.05Z</time></trkpt><trkpt lat="37.8853317" lon="15.1089983"><ele>419.0</ele><time>2026-04-26T08:14:22.051Z</time></trkpt><trkpt lat="37.8852883" lon="15.10912"><ele>419.0</ele><time>2026-04-26T08:14:24.05Z</time></trkpt><trkpt lat="37.885285" lon="15.1092"><ele>419.0</ele><time>2026-04-26T08:14:26.05Z</time></trkpt><trkpt lat="37.8852917" lon="15.109305"><ele>418.99999999999994</ele><time>2026-04-26T08:14:31.05Z</time></trkpt><trkpt lat="37.88524" lon="15.1093917"><ele>419.0</ele><time>2026-04-26T08:14:33.05Z</time></trkpt><trkpt lat="37.885215" lon="15.1094767"><ele>418.4285714285714</ele><time>2026-04-26T08:14:35.05Z</time></trkpt><trkpt lat="37.8852467" lon="15.1095783"><ele>417.85714285714283</ele><time>2026-04-26T08:14:38.05Z</time></trkpt><trkpt lat="37.88529" lon="15.1096667"><ele>417.2857142857143</ele><time>2026-04-26T08:14:41.05Z</time></trkpt><trkpt lat="37.88532" lon="15.10975"><ele>416.71428571428567</ele><time>2026-04-26T08:14:44.05Z</time></trkpt><trkpt lat="37.8853417" lon="15.1098267"><ele>416.14285714285717</ele><time>2026-04-26T08:14:47.05Z</time></trkpt><trkpt lat="37.8853367" lon="15.1099117"><ele>415.57142857142856</ele><time>2026-04-26T08:16:20.05Z</time></trkpt><trkpt lat="37.8854" lon="15.10995"><ele>415.0</ele><time>2026-04-26T08:18:28.05Z</time></trkpt><trkpt lat="37.88536" lon="15.1098633"><ele>415.00000000000006</ele><time>2026-04-26T08:18:30.05Z</time></trkpt><trkpt lat="37.8853317" lon="15.1097867"><ele>415.0</ele><time>2026-04-26T08:18:31.05Z</time></trkpt><trkpt lat="37.8852917" lon="15.1096783"><ele>415.0</ele><time>2026-04-26T08:18:32.05Z</time></trkpt><trkpt lat="37.885255" lon="15.109575"><ele>415.0</ele><time>2026-04-26T08:18:33.05Z</time></trkpt><trkpt lat="37.8852133" lon="15.1094667"><ele>415.00000000000006</ele><time>2026-04-26T08:18:35.05Z</time></trkpt><trkpt lat="37.8852367" lon="15.1093833"><ele>415.0</ele><time>2026-04-26T08:18:39.05Z</time></trkpt><trkpt lat="37.885285" lon="15.1092917"><ele>415.0</ele><time>2026-04-26T08:18:42.049Z</time></trkpt><trkpt lat="37.885285" lon="15.1091333"><ele>415.0</ele><time>2026-04-26T08:18:45.049Z</time></trkpt><trkpt lat="37.8853067" lon="15.1090283"><ele>415.0</ele><time>2026-04-26T08:18:47.049Z</time></trkpt><trkpt lat="37.8853767" lon="15.108925"><ele>415.0</ele><time>2026-04-26T08:18:49.049Z</time></trkpt><trkpt lat="37.8854333" lon="15.1088083"><ele>415.0</ele><time>2026-04-26T08:18:51.049Z</time></trkpt><trkpt lat="37.8854483" lon="15.10873"><ele>415.6666666666667</ele><time>2026-04-26T08:18:52.049Z</time></trkpt><trkpt lat="37.8854667" lon="15.10865"><ele>416.33333333333337</ele><time>2026-04-26T08:18:53.049Z</time></trkpt><trkpt lat="37.8854933" lon="15.1085167"><ele>417.0</ele><time>2026-04-26T08:18:55.049Z</time></trkpt><trkpt lat="37.88542" lon="15.1084117"><ele>417.66666666666663</ele><time>2026-04-26T08:18:57.049Z</time></trkpt><trkpt lat="37.8853433" lon="15.1083767"><ele>418.3333333333333</ele><time>2026-04-26T08:18:58.049Z</time></trkpt><trkpt lat="37.8852667" lon="15.1083433"><ele>419.0</ele><time>2026-04-26T08:18:59.049Z</time></trkpt><trkpt lat="37.8852017" lon="15.1083267"><ele>420.0</ele><time>2026-04-26T08:19:00.049Z</time></trkpt><trkpt lat="37.8851017" lon="15.108205"><ele>421.0</ele><time>2026-04-26T08:19:02.049Z</time></trkpt><trkpt lat="37.8850333" lon="15.1081183"><ele>422.0</ele><time>2026-04-26T08:19:03.049Z</time></trkpt><trkpt lat="37.884945" lon="15.1080117"><ele>423.0</ele><time>2026-04-26T08:19:04.049Z</time></trkpt><trkpt lat="37.8848517" lon="15.10791"><ele>423.0</ele><time>2026-04-26T08:19:05.049Z</time></trkpt><trkpt lat="37.88478" lon="15.1078133"><ele>423.0</ele><time>2026-04-26T08:19:06.049Z</time></trkpt><trkpt lat="37.8847217" lon="15.1077517"><ele>423.0</ele><time>2026-04-26T08:19:07.049Z</time></trkpt><trkpt lat="37.8846567" lon="15.1076867"><ele>423.0</ele><time>2026-04-26T08:19:08.049Z</time></trkpt><trkpt lat="37.8845883" lon="15.1076183"><ele>423.0</ele><time>2026-04-26T08:19:09.049Z</time></trkpt><trkpt lat="37.8845217" lon="15.107545"><ele>423.0</ele><time>2026-04-26T08:19:10.049Z</time></trkpt><trkpt lat="37.8844583" lon="15.10746"><ele>423.0</ele><time>2026-04-26T08:19:11.049Z</time></trkpt><trkpt lat="37.8844" lon="15.1073533"><ele>423.0</ele><time>2026-04-26T08:19:12.049Z</time></trkpt><trkpt lat="37.8843433" lon="15.1072183"><ele>423.0</ele><time>2026-04-26T08:19:13.049Z</time></trkpt><trkpt lat="37.8842933" lon="15.1070667"><ele>423.0</ele><time>2026-04-26T08:19:14.049Z</time></trkpt><trkpt lat="37.8842517" lon="15.1069033"><ele>423.0</ele><time>2026-04-26T08:19:15.049Z</time></trkpt><trkpt lat="37.8842133" lon="15.1067167"><ele>423.0</ele><time>2026-04-26T08:19:16.049Z</time></trkpt><trkpt lat="37.8841817" lon="15.106525"><ele>423.0</ele><time>2026-04-26T08:19:17.049Z</time></trkpt><trkpt lat="37.8841567" lon="15.1063767"><ele>423.0</ele><time>2026-04-26T08:19:18.049Z</time></trkpt><trkpt lat="37.8841367" lon="15.106285"><ele>423.0</ele><time>2026-04-26T08:19:19.049Z</time></trkpt><trkpt lat="37.88411" lon="15.10619"><ele>423.0</ele><time>2026-04-26T08:19:21.049Z</time></trkpt><trkpt lat="37.8842117" lon="15.10662"><ele>423.0</ele><time>2026-04-26T08:25:33.054Z</time></trkpt><trkpt lat="37.884235" lon="15.1067133"><ele>423.0</ele><time>2026-04-26T08:25:34.054Z</time></trkpt><trkpt lat="37.8842567" lon="15.1068317"><ele>423.0</ele><time>2026-04-26T08:25:35.054Z</time></trkpt><trkpt lat="37.8842917" lon="15.1069767"><ele>423.0</ele><time>2026-04-26T08:25:36.055Z</time></trkpt><trkpt lat="37.8843333" lon="15.1071333"><ele>423.0</ele><time>2026-04-26T08:25:37.054Z</time></trkpt><trkpt lat="37.884375" lon="15.1072517"><ele>423.0</ele><time>2026-04-26T08:25:38.054Z</time></trkpt><trkpt lat="37.8844183" lon="15.1073583"><ele>423.0</ele><time>2026-04-26T08:25:39.054Z</time></trkpt><trkpt lat="37.88446" lon="15.1074483"><ele>423.0</ele><time>2026-04-26T08:25:40.054Z</time></trkpt><trkpt lat="37.8845017" lon="15.10751"><ele>423.0</ele><time>2026-04-26T08:25:41.054Z</time></trkpt><trkpt lat="37.8845717" lon="15.10762"><ele>423.0</ele><time>2026-04-26T08:25:43.054Z</time></trkpt><trkpt lat="37.8846133" lon="15.10768"><ele>423.0</ele><time>2026-04-26T08:25:44.054Z</time></trkpt><trkpt lat="37.8846617" lon="15.107735"><ele>423.0</ele><time>2026-04-26T08:25:45.054Z</time></trkpt><trkpt lat="37.8847017" lon="15.1077983"><ele>423.0</ele><time>2026-04-26T08:25:46.054Z</time></trkpt><trkpt lat="37.884755" lon="15.107865"><ele>423.0</ele><time>2026-04-26T08:25:47.054Z</time></trkpt><trkpt lat="37.884815" lon="15.10793"><ele>423.0</ele><time>2026-04-26T08:25:48.054Z</time></trkpt><trkpt lat="37.884875" lon="15.1080117"><ele>423.0</ele><time>2026-04-26T08:25:49.054Z</time></trkpt><trkpt lat="37.88495" lon="15.108085"><ele>423.0</ele><time>2026-04-26T08:25:50.054Z</time></trkpt><trkpt lat="37.8850267" lon="15.1081583"><ele>423.0</ele><time>2026-04-26T08:25:51.054Z</time></trkpt><trkpt lat="37.8851033" lon="15.108235"><ele>422.2</ele><time>2026-04-26T08:25:52.054Z</time></trkpt><trkpt lat="37.8851633" lon="15.1083"><ele>421.4</ele><time>2026-04-26T08:25:53.054Z</time></trkpt><trkpt lat="37.8852517" lon="15.1083917"><ele>420.59999999999997</ele><time>2026-04-26T08:25:55.053Z</time></trkpt><trkpt lat="37.8853417" lon="15.10843"><ele>419.79999999999995</ele><time>2026-04-26T08:25:57.053Z</time></trkpt><trkpt lat="37.88542" lon="15.1084567"><ele>419.0</ele><time>2026-04-26T08:25:59.053Z</time></trkpt><trkpt lat="37.885485" lon="15.1085367"><ele>419.0</ele><time>2026-04-26T08:26:01.053Z</time></trkpt><trkpt lat="37.885485" lon="15.1086383"><ele>419.0</ele><time>2026-04-26T08:26:03.053Z</time></trkpt><trkpt lat="37.8854483" lon="15.10875"><ele>419.0</ele><time>2026-04-26T08:26:05.053Z</time></trkpt><trkpt lat="37.8854117" lon="15.1088683"><ele>419.0</ele><time>2026-04-26T08:26:07.053Z</time></trkpt><trkpt lat="37.88535" lon="15.108965"><ele>419.0</ele><time>2026-04-26T08:26:09.054Z</time></trkpt><trkpt lat="37.8852933" lon="15.10906"><ele>418.3333333333333</ele><time>2026-04-26T08:26:11.053Z</time></trkpt><trkpt lat="37.885275" lon="15.109165"><ele>417.66666666666663</ele><time>2026-04-26T08:26:13.053Z</time></trkpt><trkpt lat="37.8852883" lon="15.1092517"><ele>417.0</ele><time>2026-04-26T08:26:15.053Z</time></trkpt><trkpt lat="37.8852467" lon="15.109365"><ele>416.33333333333337</ele><time>2026-04-26T08:26:18.053Z</time></trkpt><trkpt lat="37.8852017" lon="15.1094567"><ele>415.6666666666667</ele><time>2026-04-26T08:26:20.053Z</time></trkpt><trkpt lat="37.8852233" lon="15.109545"><ele>415.0</ele><time>2026-04-26T08:26:26.053Z</time></trkpt><trkpt lat="37.88526" lon="15.1096267"><ele>415.0</ele><time>2026-04-26T08:26:31.053Z</time></trkpt><trkpt lat="37.8852983" lon="15.1097633"><ele>415.0</ele><time>2026-04-26T08:26:33.053Z</time></trkpt><trkpt lat="37.8853367" lon="15.1098617"><ele>415.0</ele><time>2026-04-26T08:26:34.053Z</time></trkpt><trkpt lat="37.8853833" lon="15.1099667"><ele>415.0</ele><time>2026-04-26T08:26:35.053Z</time></trkpt><trkpt lat="37.8854267" lon="15.1100783"><ele>415.0</ele><time>2026-04-26T08:26:36.053Z</time></trkpt><trkpt lat="37.88547" lon="15.11019"><ele>414.33333333333337</ele><time>2026-04-26T08:26:37.053Z</time></trkpt><trkpt lat="37.8855167" lon="15.110295"><ele>413.6666666666667</ele><time>2026-04-26T08:26:38.053Z</time></trkpt><trkpt lat="37.885565" lon="15.1104"><ele>413.0</ele><time>2026-04-26T08:26:39.053Z</time></trkpt><trkpt lat="37.8856183" lon="15.1104817"><ele>412.33333333333337</ele><time>2026-04-26T08:26:40.053Z</time></trkpt><trkpt lat="37.8856583" lon="15.1105667"><ele>411.6666666666667</ele><time>2026-04-26T08:26:41.053Z</time></trkpt><trkpt lat="37.8857017" lon="15.1106533"><ele>411.0</ele><time>2026-04-26T08:26:42.053Z</time></trkpt><trkpt lat="37.885755" lon="15.1107333"><ele>410.8333333333333</ele><time>2026-04-26T08:26:43.053Z</time></trkpt><trkpt lat="37.8858117" lon="15.11081"><ele>410.66666666666663</ele><time>2026-04-26T08:26:44.053Z</time></trkpt><trkpt lat="37.885865" lon="15.1108883"><ele>410.5</ele><time>2026-04-26T08:26:45.053Z</time></trkpt><trkpt lat="37.88594" lon="15.1109683"><ele>410.3333333333333</ele><time>2026-04-26T08:26:46.053Z</time></trkpt><trkpt lat="37.886005" lon="15.1110483"><ele>410.16666666666663</ele><time>2026-04-26T08:26:47.053Z</time></trkpt><trkpt lat="37.8860767" lon="15.1111167"><ele>410.0</ele><time>2026-04-26T08:26:48.053Z</time></trkpt><trkpt lat="37.8861417" lon="15.1111883"><ele>410.0</ele><time>2026-04-26T08:26:49.053Z</time></trkpt><trkpt lat="37.886205" lon="15.1112683"><ele>410.0</ele><time>2026-04-26T08:26:50.053Z</time></trkpt><trkpt lat="37.8862683" lon="15.1113567"><ele>410.0</ele><time>2026-04-26T08:26:51.053Z</time></trkpt><trkpt lat="37.886335" lon="15.1114383"><ele>410.0</ele><time>2026-04-26T08:26:52.053Z</time></trkpt><trkpt lat="37.8863983" lon="15.1115283"><ele>410.0</ele><time>2026-04-26T08:26:53.053Z</time></trkpt><trkpt lat="37.886465" lon="15.1116167"><ele>410.0</ele><time>2026-04-26T08:26:54.053Z</time></trkpt><trkpt lat="37.88653" lon="15.111705"><ele>410.0</ele><time>2026-04-26T08:26:55.053Z</time></trkpt><trkpt lat="37.886595" lon="15.111795"><ele>410.0</ele><time>2026-04-26T08:26:56.053Z</time></trkpt><trkpt lat="37.8866567" lon="15.111875"><ele>410.0</ele><time>2026-04-26T08:26:57.053Z</time></trkpt><trkpt lat="37.886715" lon="15.111965"><ele>410.0</ele><time>2026-04-26T08:26:58.054Z</time></trkpt><trkpt lat="37.8867783" lon="15.1120533"><ele>410.0</ele><time>2026-04-26T08:26:59.053Z</time></trkpt><trkpt lat="37.886835" lon="15.1121483"><ele>410.0</ele><time>2026-04-26T08:27:00.053Z</time></trkpt><trkpt lat="37.886885" lon="15.1122483"><ele>410.0</ele><time>2026-04-26T08:27:01.053Z</time></trkpt><trkpt lat="37.8869267" lon="15.1123483"><ele>410.0</ele><time>2026-04-26T08:27:02.053Z</time></trkpt><trkpt lat="37.8869733" lon="15.112465"><ele>410.0</ele><time>2026-04-26T08:27:03.053Z</time></trkpt><trkpt lat="37.8870217" lon="15.1125917"><ele>410.2</ele><time>2026-04-26T08:27:04.053Z</time></trkpt><trkpt lat="37.8870583" lon="15.11273"><ele>410.4</ele><time>2026-04-26T08:27:05.053Z</time></trkpt><trkpt lat="37.8870967" lon="15.1128633"><ele>410.6</ele><time>2026-04-26T08:27:06.053Z</time></trkpt><trkpt lat="37.8871367" lon="15.11299"><ele>410.8</ele><time>2026-04-26T08:27:07.053Z</time></trkpt><trkpt lat="37.88717" lon="15.1131133"><ele>411.0</ele><time>2026-04-26T08:27:08.053Z</time></trkpt><trkpt lat="37.887195" lon="15.1132217"><ele>410.5</ele><time>2026-04-26T08:27:09.053Z</time></trkpt><trkpt lat="37.8872133" lon="15.113315"><ele>410.0</ele><time>2026-04-26T08:27:10.053Z</time></trkpt><trkpt lat="37.887215" lon="15.1133983"><ele>409.5</ele><time>2026-04-26T08:27:11.053Z</time></trkpt><trkpt lat="37.8872183" lon="15.1135433"><ele>409.0</ele><time>2026-04-26T08:27:13.053Z</time></trkpt><trkpt lat="37.887265" lon="15.1136433"><ele>408.5</ele><time>2026-04-26T08:27:15.053Z</time></trkpt><trkpt lat="37.8873317" lon="15.1137"><ele>408.0</ele><time>2026-04-26T08:27:17.053Z</time></trkpt><trkpt lat="37.88739" lon="15.1137617"><ele>408.0</ele><time>2026-04-26T08:27:19.053Z</time></trkpt><trkpt lat="37.8874183" lon="15.1138483"><ele>408.0</ele><time>2026-04-26T08:27:22.053Z</time></trkpt><trkpt lat="37.88743" lon="15.1139717"><ele>408.0</ele><time>2026-04-26T08:27:25.053Z</time></trkpt><trkpt lat="37.8874533" lon="15.11412"><ele>408.0</ele><time>2026-04-26T08:27:27.053Z</time></trkpt><trkpt lat="37.88747" lon="15.1142017"><ele>408.0</ele><time>2026-04-26T08:27:28.053Z</time></trkpt><trkpt lat="37.8875017" lon="15.114285"><ele>408.0</ele><time>2026-04-26T08:27:29.053Z</time></trkpt><trkpt lat="37.887545" lon="15.11436"><ele>407.6666666666667</ele><time>2026-04-26T08:27:30.053Z</time></trkpt><trkpt lat="37.8876033" lon="15.1144267"><ele>407.33333333333337</ele><time>2026-04-26T08:27:31.053Z</time></trkpt><trkpt lat="37.8876583" lon="15.1144967"><ele>407.0</ele><time>2026-04-26T08:27:32.053Z</time></trkpt><trkpt lat="37.887715" lon="15.11456"><ele>406.6666666666667</ele><time>2026-04-26T08:27:33.053Z</time></trkpt><trkpt lat="37.887765" lon="15.1146183"><ele>406.33333333333337</ele><time>2026-04-26T08:27:34.053Z</time></trkpt><trkpt lat="37.8878417" lon="15.1147367"><ele>406.0</ele><time>2026-04-26T08:27:36.053Z</time></trkpt><trkpt lat="37.8878567" lon="15.1148683"><ele>405.83333333333337</ele><time>2026-04-26T08:27:38.053Z</time></trkpt><trkpt lat="37.8878817" lon="15.11502"><ele>405.6666666666667</ele><time>2026-04-26T08:27:40.053Z</time></trkpt><trkpt lat="37.8879167" lon="15.1151"><ele>405.5</ele><time>2026-04-26T08:27:41.054Z</time></trkpt><trkpt lat="37.8879567" lon="15.115175"><ele>405.33333333333337</ele><time>2026-04-26T08:27:42.053Z</time></trkpt><trkpt lat="37.887995" lon="15.1152483"><ele>405.1666666666667</ele><time>2026-04-26T08:27:43.053Z</time></trkpt><trkpt lat="37.8880333" lon="15.1153267"><ele>405.0</ele><time>2026-04-26T08:27:44.053Z</time></trkpt><trkpt lat="37.8880567" lon="15.115405"><ele>405.0</ele><time>2026-04-26T08:27:45.053Z</time></trkpt><trkpt lat="37.8880633" lon="15.1154983"><ele>405.0</ele><time>2026-04-26T08:27:46.053Z</time></trkpt><trkpt lat="37.888065" lon="15.1155983"><ele>405.0</ele><time>2026-04-26T08:27:47.053Z</time></trkpt><trkpt lat="37.888055" lon="15.1156967"><ele>405.0</ele><time>2026-04-26T08:27:48.053Z</time></trkpt><trkpt lat="37.8880333" lon="15.1157983"><ele>405.0</ele><time>2026-04-26T08:27:49.053Z</time></trkpt><trkpt lat="37.8880233" lon="15.1158983"><ele>405.0</ele><time>2026-04-26T08:27:50.053Z</time></trkpt><trkpt lat="37.8880367" lon="15.1159917"><ele>404.57142857142856</ele><time>2026-04-26T08:27:51.053Z</time></trkpt><trkpt lat="37.8880733" lon="15.116065"><ele>404.1428571428571</ele><time>2026-04-26T08:27:52.053Z</time></trkpt><trkpt lat="37.8881217" lon="15.1161283"><ele>403.71428571428567</ele><time>2026-04-26T08:27:53.053Z</time></trkpt><trkpt lat="37.8881733" lon="15.1161983"><ele>403.2857142857143</ele><time>2026-04-26T08:27:54.053Z</time></trkpt><trkpt lat="37.8882183" lon="15.11627"><ele>402.8571428571429</ele><time>2026-04-26T08:27:55.053Z</time></trkpt><trkpt lat="37.8882517" lon="15.1163533"><ele>402.4285714285714</ele><time>2026-04-26T08:27:56.053Z</time></trkpt><trkpt lat="37.8882883" lon="15.1164483"><ele>402.0</ele><time>2026-04-26T08:27:57.053Z</time></trkpt><trkpt lat="37.8883167" lon="15.1165633"><ele>401.8</ele><time>2026-04-26T08:27:58.053Z</time></trkpt><trkpt lat="37.8883383" lon="15.116685"><ele>401.6</ele><time>2026-04-26T08:27:59.053Z</time></trkpt><trkpt lat="37.8883567" lon="15.1167983"><ele>401.40000000000003</ele><time>2026-04-26T08:28:00.054Z</time></trkpt><trkpt lat="37.8883733" lon="15.1169117"><ele>401.20000000000005</ele><time>2026-04-26T08:28:01.053Z</time></trkpt><trkpt lat="37.888395" lon="15.11705"><ele>401.0</ele><time>2026-04-26T08:28:02.053Z</time></trkpt><trkpt lat="37.888415" lon="15.1171933"><ele>401.0</ele><time>2026-04-26T08:28:03.053Z</time></trkpt><trkpt lat="37.8884317" lon="15.1173233"><ele>399.0</ele><time>2026-04-26T08:28:04.053Z</time></trkpt><trkpt lat="37.8884417" lon="15.11744"><ele>397.0</ele><time>2026-04-26T08:28:05.053Z</time></trkpt><trkpt lat="37.8884483" lon="15.1175767"><ele>397.0</ele><time>2026-04-26T08:28:07.053Z</time></trkpt></trkseg><trkseg><trkpt lat="37.8884883" lon="15.11773"><ele>397.0</ele><time>2026-04-26T09:11:32.056Z</time></trkpt><trkpt lat="37.888455" lon="15.1178033"><ele>397.0</ele><time>2026-04-26T09:11:33.055Z</time></trkpt><trkpt lat="37.8884117" lon="15.1178733"><ele>397.0</ele><time>2026-04-26T09:11:34.055Z</time></trkpt><trkpt lat="37.8883733" lon="15.1179483"><ele>397.0</ele><time>2026-04-26T09:11:35.056Z</time></trkpt><trkpt lat="37.88834" lon="15.118035"><ele>397.0</ele><time>2026-04-26T09:11:36.055Z</time></trkpt><trkpt lat="37.888325" lon="15.1181333"><ele>397.0</ele><time>2026-04-26T09:11:37.055Z</time></trkpt><trkpt lat="37.8883233" lon="15.11824"><ele>397.0</ele><time>2026-04-26T09:11:38.055Z</time></trkpt><trkpt lat="37.8883433" lon="15.1183467"><ele>397.50000000000006</ele><time>2026-04-26T09:11:39.055Z</time></trkpt><trkpt lat="37.888365" lon="15.11845"><ele>398.0</ele><time>2026-04-26T09:11:40.055Z</time></trkpt><trkpt lat="37.8883983" lon="15.118555"><ele>398.5</ele><time>2026-04-26T09:11:41.055Z</time></trkpt><trkpt lat="37.888435" lon="15.118645"><ele>399.0</ele><time>2026-04-26T09:11:42.055Z</time></trkpt><trkpt lat="37.88847" lon="15.1187267"><ele>399.50000000000006</ele><time>2026-04-26T09:11:43.055Z</time></trkpt><trkpt lat="37.88851" lon="15.1188033"><ele>400.0</ele><time>2026-04-26T09:11:44.055Z</time></trkpt><trkpt lat="37.8885533" lon="15.1188683"><ele>399.00000000000006</ele><time>2026-04-26T09:11:45.056Z</time></trkpt><trkpt lat="37.8886083" lon="15.118915"><ele>398.0</ele><time>2026-04-26T09:11:46.055Z</time></trkpt><trkpt lat="37.8886683" lon="15.1189533"><ele>397.0</ele><time>2026-04-26T09:11:47.055Z</time></trkpt><trkpt lat="37.8887233" lon="15.1189967"><ele>396.0</ele><time>2026-04-26T09:11:48.055Z</time></trkpt><trkpt lat="37.8887867" lon="15.1190733"><ele>395.00000000000006</ele><time>2026-04-26T09:11:50.056Z</time></trkpt><trkpt lat="37.8888233" lon="15.1191833"><ele>394.0</ele><time>2026-04-26T09:11:53.055Z</time></trkpt><trkpt lat="37.888885" lon="15.119295"><ele>393.50000000000006</ele><time>2026-04-26T09:11:55.055Z</time></trkpt><trkpt lat="37.8889267" lon="15.119365"><ele>393.0</ele><time>2026-04-26T09:11:56.055Z</time></trkpt><trkpt lat="37.8889717" lon="15.1194433"><ele>392.5</ele><time>2026-04-26T09:11:57.055Z</time></trkpt><trkpt lat="37.8890233" lon="15.11953"><ele>392.0</ele><time>2026-04-26T09:11:58.055Z</time></trkpt><trkpt lat="37.8890533" lon="15.11963"><ele>391.50000000000006</ele><time>2026-04-26T09:11:59.055Z</time></trkpt><trkpt lat="37.8890817" lon="15.1197283"><ele>391.0</ele><time>2026-04-26T09:12:00.055Z</time></trkpt><trkpt lat="37.8890967" lon="15.1198117"><ele>391.20000000000005</ele><time>2026-04-26T09:12:01.055Z</time></trkpt><trkpt lat="37.8890683" lon="15.1199617"><ele>391.40000000000003</ele><time>2026-04-26T09:12:03.055Z</time></trkpt><trkpt lat="37.8890317" lon="15.12004"><ele>391.6</ele><time>2026-04-26T09:12:04.055Z</time></trkpt><trkpt lat="37.8889883" lon="15.1201433"><ele>391.8</ele><time>2026-04-26T09:12:05.055Z</time></trkpt><trkpt lat="37.8889633" lon="15.1202483"><ele>392.0</ele><time>2026-04-26T09:12:06.055Z</time></trkpt><trkpt lat="37.888945" lon="15.120355"><ele>391.99999999999994</ele><time>2026-04-26T09:12:07.056Z</time></trkpt><trkpt lat="37.8889317" lon="15.1204517"><ele>392.0</ele><time>2026-04-26T09:12:08.055Z</time></trkpt><trkpt lat="37.8889317" lon="15.12055"><ele>392.0</ele><time>2026-04-26T09:12:09.055Z</time></trkpt><trkpt lat="37.8889517" lon="15.1206483"><ele>392.0</ele><time>2026-04-26T09:12:10.056Z</time></trkpt><trkpt lat="37.8889883" lon="15.1207517"><ele>391.99999999999994</ele><time>2026-04-26T09:12:11.055Z</time></trkpt><trkpt lat="37.8890317" lon="15.1208567"><ele>392.0</ele><time>2026-04-26T09:12:12.055Z</time></trkpt><trkpt lat="37.8890717" lon="15.12097"><ele>391.16666666666663</ele><time>2026-04-26T09:12:13.055Z</time></trkpt><trkpt lat="37.889095" lon="15.1210783"><ele>390.3333333333333</ele><time>2026-04-26T09:12:14.055Z</time></trkpt><trkpt lat="37.8891017" lon="15.1211817"><ele>389.5</ele><time>2026-04-26T09:12:15.055Z</time></trkpt><trkpt lat="37.8890967" lon="15.12129"><ele>388.66666666666663</ele><time>2026-04-26T09:12:16.055Z</time></trkpt><trkpt lat="37.8890767" lon="15.1214"><ele>387.8333333333333</ele><time>2026-04-26T09:12:17.055Z</time></trkpt><trkpt lat="37.8890517" lon="15.1215217"><ele>387.0</ele><time>2026-04-26T09:12:18.055Z</time></trkpt><trkpt lat="37.889025" lon="15.12166"><ele>386.6</ele><time>2026-04-26T09:12:19.055Z</time></trkpt><trkpt lat="37.8890117" lon="15.1218033"><ele>386.20000000000005</ele><time>2026-04-26T09:12:20.055Z</time></trkpt><trkpt lat="37.8890167" lon="15.1219383"><ele>385.8</ele><time>2026-04-26T09:12:21.055Z</time></trkpt><trkpt lat="37.8890367" lon="15.122055"><ele>385.4</ele><time>2026-04-26T09:12:22.055Z</time></trkpt><trkpt lat="37.88906" lon="15.1221667"><ele>385.0</ele><time>2026-04-26T09:12:23.055Z</time></trkpt><trkpt lat="37.88908" lon="15.1222683"><ele>385.00000000000006</ele><time>2026-04-26T09:12:24.054Z</time></trkpt><trkpt lat="37.8890967" lon="15.1223583"><ele>385.0</ele><time>2026-04-26T09:12:25.055Z</time></trkpt><trkpt lat="37.889105" lon="15.1224383"><ele>385.0</ele><time>2026-04-26T09:12:26.055Z</time></trkpt><trkpt lat="37.8891" lon="15.1225517"><ele>385.0</ele><time>2026-04-26T09:12:28.055Z</time></trkpt><trkpt lat="37.8890167" lon="15.122565"><ele>385.00000000000006</ele><time>2026-04-26T09:12:31.055Z</time></trkpt><trkpt lat="37.888945" lon="15.1225967"><ele>385.0</ele><time>2026-04-26T09:12:34.055Z</time></trkpt><trkpt lat="37.8889467" lon="15.1226833"><ele>385.0</ele><time>2026-04-26T09:12:36.055Z</time></trkpt><trkpt lat="37.88896" lon="15.122805"><ele>385.0</ele><time>2026-04-26T09:12:38.055Z</time></trkpt><trkpt lat="37.88898" lon="15.1229483"><ele>385.0</ele><time>2026-04-26T09:12:40.055Z</time></trkpt><trkpt lat="37.8889867" lon="15.1231067"><ele>385.0</ele><time>2026-04-26T09:12:42.055Z</time></trkpt><trkpt lat="37.8889883" lon="15.1231933"><ele>385.0</ele><time>2026-04-26T09:12:43.055Z</time></trkpt><trkpt lat="37.88899" lon="15.1232833"><ele>384.83333333333337</ele><time>2026-04-26T09:12:44.055Z</time></trkpt><trkpt lat="37.8889883" lon="15.12338"><ele>384.6666666666667</ele><time>2026-04-26T09:12:45.055Z</time></trkpt><trkpt lat="37.8889867" lon="15.1234817"><ele>384.5</ele><time>2026-04-26T09:12:46.055Z</time></trkpt><trkpt lat="37.888985" lon="15.12359"><ele>384.33333333333337</ele><time>2026-04-26T09:12:47.055Z</time></trkpt><trkpt lat="37.8889883" lon="15.1236917"><ele>384.1666666666667</ele><time>2026-04-26T09:12:48.055Z</time></trkpt><trkpt lat="37.8889917" lon="15.1238017"><ele>384.0</ele><time>2026-04-26T09:12:49.055Z</time></trkpt><trkpt lat="37.889" lon="15.1239117"><ele>384.0</ele><time>2026-04-26T09:12:50.055Z</time></trkpt><trkpt lat="37.8890117" lon="15.1240217"><ele>384.0</ele><time>2026-04-26T09:12:51.055Z</time></trkpt><trkpt lat="37.8890233" lon="15.1241283"><ele>384.0</ele><time>2026-04-26T09:12:52.055Z</time></trkpt><trkpt lat="37.8890333" lon="15.1242283"><ele>384.0</ele><time>2026-04-26T09:12:53.055Z</time></trkpt><trkpt lat="37.8890367" lon="15.1243167"><ele>384.0</ele><time>2026-04-26T09:12:54.056Z</time></trkpt><trkpt lat="37.8890367" lon="15.1244083"><ele>384.0</ele><time>2026-04-26T09:12:55.055Z</time></trkpt><trkpt lat="37.8890333" lon="15.1245017"><ele>383.99999999999994</ele><time>2026-04-26T09:12:56.055Z</time></trkpt><trkpt lat="37.8890433" lon="15.1245867"><ele>384.0</ele><time>2026-04-26T09:12:57.055Z</time></trkpt><trkpt lat="37.88904" lon="15.124675"><ele>384.0</ele><time>2026-04-26T09:12:58.055Z</time></trkpt><trkpt lat="37.8890433" lon="15.12476"><ele>384.0</ele><time>2026-04-26T09:12:59.055Z</time></trkpt><trkpt lat="37.8890533" lon="15.12484"><ele>384.0</ele><time>2026-04-26T09:13:00.055Z</time></trkpt><trkpt lat="37.8890633" lon="15.12493"><ele>383.99999999999994</ele><time>2026-04-26T09:13:01.055Z</time></trkpt><trkpt lat="37.8890667" lon="15.1250217"><ele>384.0</ele><time>2026-04-26T09:13:02.055Z</time></trkpt><trkpt lat="37.889075" lon="15.12513"><ele>383.8333333333333</ele><time>2026-04-26T09:13:03.055Z</time></trkpt><trkpt lat="37.8890767" lon="15.12524"><ele>383.6666666666667</ele><time>2026-04-26T09:13:04.055Z</time></trkpt><trkpt lat="37.8890733" lon="15.1253467"><ele>383.5</ele><time>2026-04-26T09:13:05.055Z</time></trkpt><trkpt lat="37.8890783" lon="15.1254467"><ele>383.33333333333337</ele><time>2026-04-26T09:13:06.055Z</time></trkpt><trkpt lat="37.8890867" lon="15.1255517"><ele>383.1666666666667</ele><time>2026-04-26T09:13:07.055Z</time></trkpt><trkpt lat="37.8891" lon="15.1256517"><ele>383.0</ele><time>2026-04-26T09:13:08.055Z</time></trkpt><trkpt lat="37.8891083" lon="15.1257383"><ele>382.33333333333337</ele><time>2026-04-26T09:13:09.055Z</time></trkpt><trkpt lat="37.8891133" lon="15.125835"><ele>381.6666666666667</ele><time>2026-04-26T09:13:10.055Z</time></trkpt><trkpt lat="37.8891117" lon="15.1259317"><ele>381.0</ele><time>2026-04-26T09:13:11.055Z</time></trkpt><trkpt lat="37.8891217" lon="15.1260267"><ele>380.3333333333333</ele><time>2026-04-26T09:13:12.055Z</time></trkpt><trkpt lat="37.889125" lon="15.1261217"><ele>379.66666666666663</ele><time>2026-04-26T09:13:13.055Z</time></trkpt><trkpt lat="37.88914" lon="15.1262217"><ele>379.0</ele><time>2026-04-26T09:13:14.055Z</time></trkpt><trkpt lat="37.8891483" lon="15.12632"><ele>379.00000000000006</ele><time>2026-04-26T09:13:15.055Z</time></trkpt><trkpt lat="37.88916" lon="15.1264133"><ele>379.0</ele><time>2026-04-26T09:13:16.055Z</time></trkpt><trkpt lat="37.8891633" lon="15.1265033"><ele>379.0</ele><time>2026-04-26T09:13:17.056Z</time></trkpt><trkpt lat="37.889165" lon="15.1265933"><ele>379.0</ele><time>2026-04-26T09:13:18.055Z</time></trkpt><trkpt lat="37.8891617" lon="15.1266817"><ele>379.0</ele><time>2026-04-26T09:13:19.055Z</time></trkpt><trkpt lat="37.889165" lon="15.126765"><ele>379.00000000000006</ele><time>2026-04-26T09:13:20.055Z</time></trkpt><trkpt lat="37.8891733" lon="15.1268483"><ele>379.0</ele><time>2026-04-26T09:13:21.055Z</time></trkpt><trkpt lat="37.8891833" lon="15.127005"><ele>378.3333333333333</ele><time>2026-04-26T09:13:23.055Z</time></trkpt><trkpt lat="37.8891817" lon="15.1270867"><ele>377.66666666666663</ele><time>2026-04-26T09:13:24.055Z</time></trkpt><trkpt lat="37.8891733" lon="15.1271683"><ele>377.0</ele><time>2026-04-26T09:13:25.055Z</time></trkpt><trkpt lat="37.8891717" lon="15.1272667"><ele>376.3333333333333</ele><time>2026-04-26T09:13:26.055Z</time></trkpt><trkpt lat="37.8891583" lon="15.1273667"><ele>375.6666666666667</ele><time>2026-04-26T09:13:27.055Z</time></trkpt><trkpt lat="37.889155" lon="15.1274683"><ele>375.0</ele><time>2026-04-26T09:13:28.055Z</time></trkpt><trkpt lat="37.8891667" lon="15.1275767"><ele>374.8571428571429</ele><time>2026-04-26T09:13:29.055Z</time></trkpt><trkpt lat="37.889175" lon="15.1276683"><ele>374.71428571428567</ele><time>2026-04-26T09:13:30.056Z</time></trkpt><trkpt lat="37.889175" lon="15.1277517"><ele>374.57142857142856</ele><time>2026-04-26T09:13:31.055Z</time></trkpt><trkpt lat="37.8891683" lon="15.1278317"><ele>374.42857142857144</ele><time>2026-04-26T09:13:32.055Z</time></trkpt><trkpt lat="37.8891633" lon="15.12792"><ele>374.28571428571433</ele><time>2026-04-26T09:13:33.055Z</time></trkpt><trkpt lat="37.88916" lon="15.128005"><ele>374.1428571428571</ele><time>2026-04-26T09:13:34.055Z</time></trkpt><trkpt lat="37.8891617" lon="15.1280933"><ele>374.0</ele><time>2026-04-26T09:13:35.055Z</time></trkpt><trkpt lat="37.8891683" lon="15.1281883"><ele>373.6666666666667</ele><time>2026-04-26T09:13:36.055Z</time></trkpt><trkpt lat="37.88917" lon="15.1282767"><ele>373.33333333333337</ele><time>2026-04-26T09:13:37.055Z</time></trkpt><trkpt lat="37.8891817" lon="15.1283733"><ele>373.0</ele><time>2026-04-26T09:13:38.055Z</time></trkpt><trkpt lat="37.8891983" lon="15.1284683"><ele>372.6666666666667</ele><time>2026-04-26T09:13:39.055Z</time></trkpt><trkpt lat="37.8892033" lon="15.1285633"><ele>372.3333333333333</ele><time>2026-04-26T09:13:40.055Z</time></trkpt><trkpt lat="37.8892067" lon="15.128655"><ele>372.0</ele><time>2026-04-26T09:13:41.055Z</time></trkpt><trkpt lat="37.8892117" lon="15.128755"><ele>372.0</ele><time>2026-04-26T09:13:42.055Z</time></trkpt><trkpt lat="37.88922" lon="15.1288433"><ele>372.0</ele><time>2026-04-26T09:13:43.055Z</time></trkpt><trkpt lat="37.8891883" lon="15.12901"><ele>372.0</ele><time>2026-04-26T09:13:45.055Z</time></trkpt><trkpt lat="37.8891583" lon="15.1291067"><ele>372.0</ele><time>2026-04-26T09:13:46.055Z</time></trkpt><trkpt lat="37.8891333" lon="15.1292083"><ele>372.0</ele><time>2026-04-26T09:13:47.055Z</time></trkpt><trkpt lat="37.8891" lon="15.1293217"><ele>372.0</ele><time>2026-04-26T09:13:48.055Z</time></trkpt><trkpt lat="37.8890717" lon="15.12942"><ele>372.0</ele><time>2026-04-26T09:13:49.055Z</time></trkpt><trkpt lat="37.8890483" lon="15.1295"><ele>372.0</ele><time>2026-04-26T09:13:50.055Z</time></trkpt><trkpt lat="37.88899" lon="15.129575"><ele>372.0</ele><time>2026-04-26T09:13:52.055Z</time></trkpt><trkpt lat="37.888925" lon="15.1295867"><ele>372.0</ele><time>2026-04-26T09:13:54.055Z</time></trkpt><trkpt lat="37.8888667" lon="15.1296533"><ele>372.0</ele><time>2026-04-26T09:13:56.055Z</time></trkpt><trkpt lat="37.8888567" lon="15.1297683"><ele>372.0</ele><time>2026-04-26T09:13:58.055Z</time></trkpt><trkpt lat="37.888815" lon="15.129875"><ele>372.0</ele><time>2026-04-26T09:14:00.055Z</time></trkpt><trkpt lat="37.8888017" lon="15.13"><ele>372.0</ele><time>2026-04-26T09:14:02.055Z</time></trkpt><trkpt lat="37.8887917" lon="15.1301283"><ele>372.0</ele><time>2026-04-26T09:14:04.055Z</time></trkpt><trkpt lat="37.888735" lon="15.13017"><ele>372.0</ele><time>2026-04-26T09:14:06.055Z</time></trkpt><trkpt lat="37.8886333" lon="15.13019"><ele>372.0</ele><time>2026-04-26T09:14:08.055Z</time></trkpt><trkpt lat="37.8885467" lon="15.13024"><ele>372.0</ele><time>2026-04-26T09:14:10.055Z</time></trkpt><trkpt lat="37.8885233" lon="15.13032"><ele>372.0</ele><time>2026-04-26T09:14:12.055Z</time></trkpt><trkpt lat="37.88851" lon="15.13042"><ele>372.0</ele><time>2026-04-26T09:14:14.055Z</time></trkpt><trkpt lat="37.8884617" lon="15.1305217"><ele>372.0</ele><time>2026-04-26T09:14:17.055Z</time></trkpt><trkpt lat="37.8885067" lon="15.1304183"><ele>372.0</ele><time>2026-04-26T09:15:10.055Z</time></trkpt><trkpt lat="37.8885133" lon="15.130315"><ele>372.0</ele><time>2026-04-26T09:15:13.055Z</time></trkpt><trkpt lat="37.88857" lon="15.1302267"><ele>372.0</ele><time>2026-04-26T09:15:16.055Z</time></trkpt><trkpt lat="37.88866" lon="15.1301967"><ele>372.0</ele><time>2026-04-26T09:15:18.055Z</time></trkpt><trkpt lat="37.88873" lon="15.130155"><ele>372.0</ele><time>2026-04-26T09:15:20.055Z</time></trkpt><trkpt lat="37.888755" lon="15.1300817"><ele>372.0</ele><time>2026-04-26T09:15:22.055Z</time></trkpt><trkpt lat="37.8887683" lon="15.1299783"><ele>372.0</ele><time>2026-04-26T09:15:24.056Z</time></trkpt><trkpt lat="37.8887917" lon="15.1298883"><ele>372.0</ele><time>2026-04-26T09:15:26.055Z</time></trkpt><trkpt lat="37.88883" lon="15.1298133"><ele>372.0</ele><time>2026-04-26T09:15:28.055Z</time></trkpt><trkpt lat="37.8888533" lon="15.1297267"><ele>372.0</ele><time>2026-04-26T09:15:30.055Z</time></trkpt><trkpt lat="37.8888583" lon="15.1296383"><ele>372.0</ele><time>2026-04-26T09:15:32.055Z</time></trkpt><trkpt lat="37.8889183" lon="15.1295783"><ele>372.0</ele><time>2026-04-26T09:15:35.056Z</time></trkpt><trkpt lat="37.8890067" lon="15.129565"><ele>372.0</ele><time>2026-04-26T09:15:38.056Z</time></trkpt><trkpt lat="37.8890517" lon="15.1294683"><ele>372.0</ele><time>2026-04-26T09:15:40.055Z</time></trkpt><trkpt lat="37.88911" lon="15.1293067"><ele>372.0</ele><time>2026-04-26T09:15:42.056Z</time></trkpt><trkpt lat="37.8891383" lon="15.1292067"><ele>372.0</ele><time>2026-04-26T09:15:43.055Z</time></trkpt><trkpt lat="37.8891633" lon="15.1290983"><ele>372.0</ele><time>2026-04-26T09:15:44.055Z</time></trkpt><trkpt lat="37.88919" lon="15.128985"><ele>372.0</ele><time>2026-04-26T09:15:45.055Z</time></trkpt><trkpt lat="37.88921" lon="15.1288833"><ele>372.00000000000006</ele><time>2026-04-26T09:15:46.055Z</time></trkpt><trkpt lat="37.8892217" lon="15.1287867"><ele>372.0</ele><time>2026-04-26T09:15:47.055Z</time></trkpt><trkpt lat="37.88922" lon="15.1286933"><ele>372.0</ele><time>2026-04-26T09:15:48.055Z</time></trkpt><trkpt lat="37.88921" lon="15.128605"><ele>372.0</ele><time>2026-04-26T09:15:49.055Z</time></trkpt><trkpt lat="37.8891933" lon="15.128515"><ele>372.0</ele><time>2026-04-26T09:15:50.055Z</time></trkpt><trkpt lat="37.8891867" lon="15.1284267"><ele>372.00000000000006</ele><time>2026-04-26T09:15:51.055Z</time></trkpt><trkpt lat="37.8891833" lon="15.1283333"><ele>372.0</ele><time>2026-04-26T09:15:52.055Z</time></trkpt><trkpt lat="37.8891733" lon="15.12824"><ele>372.28571428571433</ele><time>2026-04-26T09:15:53.055Z</time></trkpt><trkpt lat="37.8891617" lon="15.1281567"><ele>372.57142857142856</ele><time>2026-04-26T09:15:54.056Z</time></trkpt><trkpt lat="37.8891533" lon="15.1280733"><ele>372.8571428571429</ele><time>2026-04-26T09:15:55.055Z</time></trkpt><trkpt lat="37.889155" lon="15.12798"><ele>373.14285714285717</ele><time>2026-04-26T09:15:56.055Z</time></trkpt><trkpt lat="37.88916" lon="15.1278867"><ele>373.42857142857144</ele><time>2026-04-26T09:15:57.055Z</time></trkpt><trkpt lat="37.88917" lon="15.127795"><ele>373.7142857142857</ele><time>2026-04-26T09:15:58.055Z</time></trkpt><trkpt lat="37.8891867" lon="15.1277133"><ele>374.0</ele><time>2026-04-26T09:15:59.056Z</time></trkpt><trkpt lat="37.8891967" lon="15.12763"><ele>374.0</ele><time>2026-04-26T09:16:00.055Z</time></trkpt><trkpt lat="37.8891917" lon="15.1275417"><ele>374.0</ele><time>2026-04-26T09:16:01.056Z</time></trkpt><trkpt lat="37.8891767" lon="15.1273933"><ele>374.0</ele><time>2026-04-26T09:16:03.055Z</time></trkpt><trkpt lat="37.8891983" lon="15.1272817"><ele>374.0</ele><time>2026-04-26T09:16:05.055Z</time></trkpt><trkpt lat="37.88922" lon="15.1271667"><ele>374.0</ele><time>2026-04-26T09:16:07.055Z</time></trkpt><trkpt lat="37.889225" lon="15.1270667"><ele>374.2</ele><time>2026-04-26T09:16:09.055Z</time></trkpt><trkpt lat="37.8892133" lon="15.1269367"><ele>374.4</ele><time>2026-04-26T09:16:11.055Z</time></trkpt><trkpt lat="37.8892033" lon="15.1268167"><ele>374.6</ele><time>2026-04-26T09:16:13.055Z</time></trkpt><trkpt lat="37.8892067" lon="15.126715"><ele>374.8</ele><time>2026-04-26T09:16:16.055Z</time></trkpt><trkpt lat="37.88918" lon="15.126815"><ele>375.0</ele><time>2026-04-26T09:16:33.056Z</time></trkpt><trkpt lat="37.8891933" lon="15.1269483"><ele>375.0</ele><time>2026-04-26T09:16:35.055Z</time></trkpt><trkpt lat="37.8891933" lon="15.1270367"><ele>375.0</ele><time>2026-04-26T09:16:36.055Z</time></trkpt><trkpt lat="37.8891983" lon="15.1271317"><ele>375.0</ele><time>2026-04-26T09:16:37.055Z</time></trkpt><trkpt lat="37.88919" lon="15.12723"><ele>375.0</ele><time>2026-04-26T09:16:38.055Z</time></trkpt><trkpt lat="37.8891817" lon="15.1273283"><ele>375.0</ele><time>2026-04-26T09:16:39.055Z</time></trkpt><trkpt lat="37.8891717" lon="15.12742"><ele>375.0</ele><time>2026-04-26T09:16:40.055Z</time></trkpt><trkpt lat="37.8891767" lon="15.1275067"><ele>375.0</ele><time>2026-04-26T09:16:41.055Z</time></trkpt><trkpt lat="37.8891833" lon="15.1275883"><ele>374.8333333333333</ele><time>2026-04-26T09:16:42.055Z</time></trkpt><trkpt lat="37.8891883" lon="15.12771"><ele>374.6666666666667</ele><time>2026-04-26T09:16:44.055Z</time></trkpt><trkpt lat="37.8891783" lon="15.127805"><ele>374.5</ele><time>2026-04-26T09:16:48.056Z</time></trkpt><trkpt lat="37.8891667" lon="15.1279017"><ele>374.33333333333337</ele><time>2026-04-26T09:16:51.055Z</time></trkpt><trkpt lat="37.88923" lon="15.1278933"><ele>374.1666666666667</ele><time>2026-04-26T09:17:11.055Z</time></trkpt><trkpt lat="37.889305" lon="15.127905"><ele>374.0</ele><time>2026-04-26T09:17:13.055Z</time></trkpt><trkpt lat="37.889345" lon="15.1279783"><ele>373.83333333333337</ele><time>2026-04-26T09:17:16.055Z</time></trkpt><trkpt lat="37.8893433" lon="15.1281017"><ele>373.6666666666667</ele><time>2026-04-26T09:19:21.056Z</time></trkpt><trkpt lat="37.8893583" lon="15.128185"><ele>373.5</ele><time>2026-04-26T09:19:23.055Z</time></trkpt><trkpt lat="37.88937" lon="15.1282667"><ele>373.3333333333333</ele><time>2026-04-26T09:19:25.055Z</time></trkpt><trkpt lat="37.8893667" lon="15.1283667"><ele>373.16666666666663</ele><time>2026-04-26T09:19:27.055Z</time></trkpt><trkpt lat="37.8893733" lon="15.12848"><ele>373.0</ele><time>2026-04-26T09:19:29.055Z</time></trkpt><trkpt lat="37.889385" lon="15.1286017"><ele>372.59999999999997</ele><time>2026-04-26T09:19:31.054Z</time></trkpt><trkpt lat="37.8893967" lon="15.1287467"><ele>372.2</ele><time>2026-04-26T09:19:33.054Z</time></trkpt><trkpt lat="37.889405" lon="15.128845"><ele>371.8</ele><time>2026-04-26T09:19:34.054Z</time></trkpt><trkpt lat="37.8894183" lon="15.128955"><ele>371.4</ele><time>2026-04-26T09:19:35.054Z</time></trkpt><trkpt lat="37.8894333" lon="15.1290833"><ele>371.0</ele><time>2026-04-26T09:19:36.054Z</time></trkpt><trkpt lat="37.8894517" lon="15.1292317"><ele>370.8</ele><time>2026-04-26T09:19:37.054Z</time></trkpt><trkpt lat="37.8894833" lon="15.1293833"><ele>370.6</ele><time>2026-04-26T09:19:38.054Z</time></trkpt><trkpt lat="37.8895167" lon="15.1295217"><ele>370.4</ele><time>2026-04-26T09:19:39.054Z</time></trkpt><trkpt lat="37.8895517" lon="15.1296283"><ele>370.2</ele><time>2026-04-26T09:19:40.055Z</time></trkpt><trkpt lat="37.8895817" lon="15.1297167"><ele>370.0</ele><time>2026-04-26T09:19:41.054Z</time></trkpt><trkpt lat="37.8896533" lon="15.1298233"><ele>370.0</ele><time>2026-04-26T09:19:43.054Z</time></trkpt><trkpt lat="37.88975" lon="15.1298683"><ele>370.0</ele><time>2026-04-26T09:19:45.054Z</time></trkpt><trkpt lat="37.8898233" lon="15.1299067"><ele>370.0</ele><time>2026-04-26T09:19:47.054Z</time></trkpt><trkpt lat="37.889775" lon="15.13001"><ele>370.0</ele><time>2026-04-26T09:20:38.054Z</time></trkpt><trkpt lat="37.8896817" lon="15.1300867"><ele>370.0</ele><time>2026-04-26T09:20:40.054Z</time></trkpt><trkpt lat="37.8895833" lon="15.130145"><ele>370.16666666666663</ele><time>2026-04-26T09:20:42.054Z</time></trkpt><trkpt lat="37.8895217" lon="15.1301817"><ele>370.3333333333333</ele><time>2026-04-26T09:20:44.054Z</time></trkpt><trkpt lat="37.88954" lon="15.13026"><ele>370.5</ele><time>2026-04-26T09:20:48.054Z</time></trkpt><trkpt lat="37.88961" lon="15.130295"><ele>370.6666666666667</ele><time>2026-04-26T09:20:50.054Z</time></trkpt><trkpt lat="37.8896767" lon="15.1303883"><ele>370.83333333333337</ele><time>2026-04-26T09:20:52.054Z</time></trkpt><trkpt lat="37.889725" lon="15.13046"><ele>371.0</ele><time>2026-04-26T09:20:53.054Z</time></trkpt><trkpt lat="37.88978" lon="15.13055"><ele>371.0</ele><time>2026-04-26T09:20:54.054Z</time></trkpt><trkpt lat="37.8898367" lon="15.1306517"><ele>371.0</ele><time>2026-04-26T09:20:55.054Z</time></trkpt><trkpt lat="37.8898867" lon="15.1307333"><ele>371.0</ele><time>2026-04-26T09:20:56.055Z</time></trkpt><trkpt lat="37.8899317" lon="15.1308017"><ele>371.0</ele><time>2026-04-26T09:20:57.055Z</time></trkpt><trkpt lat="37.89003" lon="15.1309183"><ele>371.0</ele><time>2026-04-26T09:20:59.054Z</time></trkpt><trkpt lat="37.89011" lon="15.1309933"><ele>370.0</ele><time>2026-04-26T09:21:00.054Z</time></trkpt><trkpt lat="37.890185" lon="15.1310817"><ele>369.0</ele><time>2026-04-26T09:21:01.054Z</time></trkpt><trkpt lat="37.8902533" lon="15.1311633"><ele>368.0</ele><time>2026-04-26T09:21:02.054Z</time></trkpt><trkpt lat="37.890315" lon="15.13123"><ele>367.0</ele><time>2026-04-26T09:21:03.054Z</time></trkpt><trkpt lat="37.8903617" lon="15.1312867"><ele>366.0</ele><time>2026-04-26T09:21:04.054Z</time></trkpt><trkpt lat="37.8904233" lon="15.1313333"><ele>365.0</ele><time>2026-04-26T09:21:06.054Z</time></trkpt><trkpt lat="37.8905033" lon="15.1313617"><ele>365.0</ele><time>2026-04-26T09:21:09.054Z</time></trkpt><trkpt lat="37.8905583" lon="15.13142"><ele>365.0</ele><time>2026-04-26T09:21:11.054Z</time></trkpt><trkpt lat="37.8906217" lon="15.1314567"><ele>365.0</ele><time>2026-04-26T09:21:13.054Z</time></trkpt><trkpt lat="37.89069" lon="15.1315017"><ele>365.0</ele><time>2026-04-26T09:21:28.054Z</time></trkpt><trkpt lat="37.8907733" lon="15.1315483"><ele>365.0</ele><time>2026-04-26T09:21:30.054Z</time></trkpt><trkpt lat="37.890875" lon="15.1316133"><ele>365.0</ele><time>2026-04-26T09:21:32.054Z</time></trkpt><trkpt lat="37.890965" lon="15.1316717"><ele>364.0</ele><time>2026-04-26T09:21:34.054Z</time></trkpt><trkpt lat="37.8910517" lon="15.1317233"><ele>363.0</ele><time>2026-04-26T09:21:36.054Z</time></trkpt><trkpt lat="37.89113" lon="15.131775"><ele>362.0</ele><time>2026-04-26T09:21:38.054Z</time></trkpt><trkpt lat="37.8912033" lon="15.13182"><ele>361.0</ele><time>2026-04-26T09:21:40.054Z</time></trkpt><trkpt lat="37.8912733" lon="15.1318617"><ele>360.0</ele><time>2026-04-26T09:21:42.054Z</time></trkpt><trkpt lat="37.8913467" lon="15.1319033"><ele>359.0</ele><time>2026-04-26T09:21:44.054Z</time></trkpt><trkpt lat="37.8914267" lon="15.1319583"><ele>359.0</ele><time>2026-04-26T09:21:46.054Z</time></trkpt><trkpt lat="37.8914967" lon="15.132005"><ele>359.0</ele><time>2026-04-26T09:21:48.055Z</time></trkpt><trkpt lat="37.89156" lon="15.1320333"><ele>359.0</ele><time>2026-04-26T09:21:50.054Z</time></trkpt><trkpt lat="37.8916417" lon="15.13208"><ele>359.0</ele><time>2026-04-26T09:21:52.054Z</time></trkpt><trkpt lat="37.8917" lon="15.1321133"><ele>359.0</ele><time>2026-04-26T09:21:53.054Z</time></trkpt><trkpt lat="37.8917617" lon="15.1321433"><ele>359.0</ele><time>2026-04-26T09:21:54.054Z</time></trkpt><trkpt lat="37.8918617" lon="15.1322017"><ele>358.0</ele><time>2026-04-26T09:21:56.054Z</time></trkpt><trkpt lat="37.8919633" lon="15.1322583"><ele>357.0</ele><time>2026-04-26T09:21:58.054Z</time></trkpt><trkpt lat="37.8920633" lon="15.13232"><ele>356.0</ele><time>2026-04-26T09:22:00.054Z</time></trkpt><trkpt lat="37.8921433" lon="15.13236"><ele>355.0</ele><time>2026-04-26T09:22:02.054Z</time></trkpt><trkpt lat="37.8922" lon="15.1324067"><ele>354.0</ele><time>2026-04-26T09:24:11.054Z</time></trkpt><trkpt lat="37.8922933" lon="15.13246"><ele>353.4</ele><time>2026-04-26T09:24:13.054Z</time></trkpt><trkpt lat="37.8923867" lon="15.1325133"><ele>352.79999999999995</ele><time>2026-04-26T09:24:15.054Z</time></trkpt><trkpt lat="37.8924883" lon="15.1325667"><ele>352.20000000000005</ele><time>2026-04-26T09:24:17.054Z</time></trkpt><trkpt lat="37.8925883" lon="15.132625"><ele>351.6</ele><time>2026-04-26T09:24:19.054Z</time></trkpt><trkpt lat="37.8926817" lon="15.1326883"><ele>351.0</ele><time>2026-04-26T09:24:21.055Z</time></trkpt><trkpt lat="37.8927667" lon="15.1327333"><ele>352.6666666666667</ele><time>2026-04-26T09:24:23.054Z</time></trkpt><trkpt lat="37.8928467" lon="15.1327717"><ele>354.3333333333333</ele><time>2026-04-26T09:24:25.055Z</time></trkpt><trkpt lat="37.8929333" lon="15.13283"><ele>356.0</ele><time>2026-04-26T09:24:27.054Z</time></trkpt><trkpt lat="37.8930117" lon="15.1328817"><ele>357.66666666666663</ele><time>2026-04-26T09:24:29.054Z</time></trkpt><trkpt lat="37.8930767" lon="15.1329433"><ele>359.3333333333333</ele><time>2026-04-26T09:24:31.054Z</time></trkpt><trkpt lat="37.89314" lon="15.132985"><ele>361.0</ele><time>2026-04-26T09:24:33.054Z</time></trkpt><trkpt lat="37.8932017" lon="15.13304"><ele>361.0</ele><time>2026-04-26T09:24:35.054Z</time></trkpt><trkpt lat="37.8933083" lon="15.1331083"><ele>361.0</ele><time>2026-04-26T09:24:37.054Z</time></trkpt><trkpt lat="37.8933767" lon="15.1331417"><ele>361.0</ele><time>2026-04-26T09:24:38.054Z</time></trkpt><trkpt lat="37.89345" lon="15.13318"><ele>361.0</ele><time>2026-04-26T09:24:39.054Z</time></trkpt><trkpt lat="37.893515" lon="15.13322"><ele>361.0</ele><time>2026-04-26T09:24:40.054Z</time></trkpt><trkpt lat="37.893585" lon="15.1332633"><ele>361.0</ele><time>2026-04-26T09:24:41.054Z</time></trkpt><trkpt lat="37.8936417" lon="15.1333067"><ele>360.16666666666663</ele><time>2026-04-26T09:24:42.054Z</time></trkpt><trkpt lat="37.8937017" lon="15.13336"><ele>359.3333333333333</ele><time>2026-04-26T09:24:43.054Z</time></trkpt><trkpt lat="37.89378" lon="15.1334083"><ele>358.5</ele><time>2026-04-26T09:24:44.054Z</time></trkpt><trkpt lat="37.8938533" lon="15.1334517"><ele>357.6666666666667</ele><time>2026-04-26T09:24:45.054Z</time></trkpt><trkpt lat="37.8939183" lon="15.133485"><ele>356.83333333333337</ele><time>2026-04-26T09:24:46.054Z</time></trkpt><trkpt lat="37.89399" lon="15.1335483"><ele>356.0</ele><time>2026-04-26T09:24:48.054Z</time></trkpt><trkpt lat="37.894005" lon="15.1336483"><ele>356.0</ele><time>2026-04-26T09:24:50.054Z</time></trkpt><trkpt lat="37.8940117" lon="15.1337583"><ele>356.0</ele><time>2026-04-26T09:24:53.054Z</time></trkpt><trkpt lat="37.8940483" lon="15.133905"><ele>356.0</ele><time>2026-04-26T09:25:24.053Z</time></trkpt><trkpt lat="37.8940667" lon="15.1340133"><ele>356.0</ele><time>2026-04-26T09:25:25.054Z</time></trkpt><trkpt lat="37.8940833" lon="15.1341383"><ele>356.0</ele><time>2026-04-26T09:25:26.053Z</time></trkpt><trkpt lat="37.8940967" lon="15.1342567"><ele>355.20000000000005</ele><time>2026-04-26T09:25:27.053Z</time></trkpt><trkpt lat="37.8941133" lon="15.1343533"><ele>354.40000000000003</ele><time>2026-04-26T09:25:28.053Z</time></trkpt><trkpt lat="37.8941367" lon="15.134495"><ele>353.6</ele><time>2026-04-26T09:25:30.053Z</time></trkpt><trkpt lat="37.8942133" lon="15.1345267"><ele>352.8</ele><time>2026-04-26T09:25:33.053Z</time></trkpt><trkpt lat="37.894285" lon="15.1344233"><ele>352.0</ele><time>2026-04-26T09:25:35.053Z</time></trkpt><trkpt lat="37.8943183" lon="15.1343167"><ele>352.6</ele><time>2026-04-26T09:25:36.053Z</time></trkpt><trkpt lat="37.8943533" lon="15.1341883"><ele>353.20000000000005</ele><time>2026-04-26T09:25:37.053Z</time></trkpt><trkpt lat="37.8943967" lon="15.13407"><ele>353.8</ele><time>2026-04-26T09:25:38.053Z</time></trkpt><trkpt lat="37.89445" lon="15.1339817"><ele>354.4</ele><time>2026-04-26T09:25:39.053Z</time></trkpt><trkpt lat="37.8945483" lon="15.133955"><ele>355.0</ele><time>2026-04-26T09:25:41.053Z</time></trkpt><trkpt lat="37.894685" lon="15.1340433"><ele>353.0</ele><time>2026-04-26T09:25:43.053Z</time></trkpt><trkpt lat="37.89479" lon="15.1341067"><ele>351.0</ele><time>2026-04-26T09:25:44.053Z</time></trkpt><trkpt lat="37.8949" lon="15.1341717"><ele>349.0</ele><time>2026-04-26T09:25:45.053Z</time></trkpt><trkpt lat="37.8950083" lon="15.13424"><ele>347.0</ele><time>2026-04-26T09:25:46.054Z</time></trkpt><trkpt lat="37.8951167" lon="15.1343083"><ele>346.75</ele><time>2026-04-26T09:25:47.053Z</time></trkpt><trkpt lat="37.89522" lon="15.134375"><ele>346.5</ele><time>2026-04-26T09:25:48.053Z</time></trkpt><trkpt lat="37.8953283" lon="15.1344367"><ele>346.25</ele><time>2026-04-26T09:25:49.053Z</time></trkpt><trkpt lat="37.8954317" lon="15.1344967"><ele>346.0</ele><time>2026-04-26T09:25:50.053Z</time></trkpt><trkpt lat="37.895535" lon="15.13456"><ele>346.0</ele><time>2026-04-26T09:25:51.053Z</time></trkpt><trkpt lat="37.895635" lon="15.1346217"><ele>346.0</ele><time>2026-04-26T09:25:52.053Z</time></trkpt><trkpt lat="37.8957467" lon="15.1346883"><ele>346.0</ele><time>2026-04-26T09:25:53.053Z</time></trkpt><trkpt lat="37.8958633" lon="15.13476"><ele>346.0</ele><time>2026-04-26T09:25:54.053Z</time></trkpt><trkpt lat="37.8959867" lon="15.1348233"><ele>345.75</ele><time>2026-04-26T09:25:55.053Z</time></trkpt><trkpt lat="37.8961133" lon="15.1348833"><ele>345.5</ele><time>2026-04-26T09:25:56.053Z</time></trkpt><trkpt lat="37.8962333" lon="15.1349467"><ele>345.25</ele><time>2026-04-26T09:25:57.054Z</time></trkpt><trkpt lat="37.8963483" lon="15.135015"><ele>345.0</ele><time>2026-04-26T09:25:58.053Z</time></trkpt><trkpt lat="37.89647" lon="15.13508"><ele>345.0</ele><time>2026-04-26T09:25:59.053Z</time></trkpt><trkpt lat="37.8965767" lon="15.13516"><ele>345.0</ele><time>2026-04-26T09:26:00.053Z</time></trkpt><trkpt lat="37.8966883" lon="15.1352483"><ele>345.0</ele><time>2026-04-26T09:26:01.053Z</time></trkpt><trkpt lat="37.8967867" lon="15.1353267"><ele>345.0</ele><time>2026-04-26T09:26:02.053Z</time></trkpt><trkpt lat="37.8968833" lon="15.1354117"><ele>345.25</ele><time>2026-04-26T09:26:03.053Z</time></trkpt><trkpt lat="37.8969917" lon="15.1354617"><ele>345.5</ele><time>2026-04-26T09:26:04.053Z</time></trkpt><trkpt lat="37.89711" lon="15.1354833"><ele>345.75</ele><time>2026-04-26T09:26:05.053Z</time></trkpt><trkpt lat="37.8972167" lon="15.1354833"><ele>346.0</ele><time>2026-04-26T09:26:06.053Z</time></trkpt><trkpt lat="37.8973283" lon="15.13549"><ele>346.0</ele><time>2026-04-26T09:26:07.053Z</time></trkpt><trkpt lat="37.897425" lon="15.1355"><ele>346.0</ele><time>2026-04-26T09:26:08.053Z</time></trkpt><trkpt lat="37.8975433" lon="15.135505"><ele>346.0</ele><time>2026-04-26T09:26:09.053Z</time></trkpt><trkpt lat="37.8976633" lon="15.1355117"><ele>346.0</ele><time>2026-04-26T09:26:10.053Z</time></trkpt><trkpt lat="37.8977967" lon="15.1355217"><ele>345.25</ele><time>2026-04-26T09:26:11.053Z</time></trkpt><trkpt lat="37.8979333" lon="15.1355267"><ele>344.5</ele><time>2026-04-26T09:26:12.053Z</time></trkpt><trkpt lat="37.8980967" lon="15.1355267"><ele>343.75</ele><time>2026-04-26T09:26:13.053Z</time></trkpt><trkpt lat="37.8982433" lon="15.1355317"><ele>343.0</ele><time>2026-04-26T09:26:14.053Z</time></trkpt><trkpt lat="37.8983533" lon="15.1355367"><ele>342.66666666666663</ele><time>2026-04-26T09:26:15.053Z</time></trkpt><trkpt lat="37.8984633" lon="15.135545"><ele>342.3333333333333</ele><time>2026-04-26T09:26:16.053Z</time></trkpt><trkpt lat="37.8985383" lon="15.135555"><ele>342.0</ele><time>2026-04-26T09:26:17.053Z</time></trkpt><trkpt lat="37.8986067" lon="15.13555"><ele>341.6666666666667</ele><time>2026-04-26T09:26:18.053Z</time></trkpt><trkpt lat="37.898665" lon="15.1355117"><ele>341.33333333333337</ele><time>2026-04-26T09:26:20.053Z</time></trkpt><trkpt lat="37.8986933" lon="15.1353667"><ele>341.0</ele><time>2026-04-26T09:26:22.053Z</time></trkpt><trkpt lat="37.8986867" lon="15.1352367"><ele>341.0</ele><time>2026-04-26T09:26:23.053Z</time></trkpt><trkpt lat="37.8986883" lon="15.135125"><ele>341.0</ele><time>2026-04-26T09:26:24.053Z</time></trkpt><trkpt lat="37.89871" lon="15.13503"><ele>341.0</ele><time>2026-04-26T09:26:25.053Z</time></trkpt><trkpt lat="37.8987433" lon="15.1349233"><ele>341.0</ele><time>2026-04-26T09:26:26.053Z</time></trkpt><trkpt lat="37.8988017" lon="15.13482"><ele>341.0</ele><time>2026-04-26T09:26:27.053Z</time></trkpt><trkpt lat="37.898885" lon="15.134745"><ele>341.0</ele><time>2026-04-26T09:26:28.053Z</time></trkpt><trkpt lat="37.89899" lon="15.1346733"><ele>341.0</ele><time>2026-04-26T09:26:29.053Z</time></trkpt><trkpt lat="37.8991017" lon="15.1346117"><ele>341.0</ele><time>2026-04-26T09:26:30.053Z</time></trkpt><trkpt lat="37.8992183" lon="15.1345383"><ele>341.0</ele><time>2026-04-26T09:26:31.053Z</time></trkpt><trkpt lat="37.8993433" lon="15.1344617"><ele>340.0</ele><time>2026-04-26T09:26:32.053Z</time></trkpt><trkpt lat="37.8994767" lon="15.1343933"><ele>339.0</ele><time>2026-04-26T09:26:33.053Z</time></trkpt><trkpt lat="37.89962" lon="15.134325"><ele>338.0</ele><time>2026-04-26T09:26:34.053Z</time></trkpt><trkpt lat="37.8997633" lon="15.1342567"><ele>338.0</ele><time>2026-04-26T09:26:35.053Z</time></trkpt><trkpt lat="37.8999" lon="15.1341967"><ele>338.0</ele><time>2026-04-26T09:26:36.054Z</time></trkpt><trkpt lat="37.90003" lon="15.1341283"><ele>338.0</ele><time>2026-04-26T09:26:37.053Z</time></trkpt><trkpt lat="37.90017" lon="15.134065"><ele>338.0</ele><time>2026-04-26T09:26:38.053Z</time></trkpt><trkpt lat="37.9003183" lon="15.1340167"><ele>338.0</ele><time>2026-04-26T09:26:39.053Z</time></trkpt><trkpt lat="37.9004583" lon="15.1339583"><ele>338.0</ele><time>2026-04-26T09:26:40.054Z</time></trkpt><trkpt lat="37.9005983" lon="15.1339"><ele>338.0</ele><time>2026-04-26T09:26:41.053Z</time></trkpt><trkpt lat="37.9007367" lon="15.1338267"><ele>338.0</ele><time>2026-04-26T09:26:42.053Z</time></trkpt><trkpt lat="37.9008767" lon="15.1337417"><ele>337.0</ele><time>2026-04-26T09:26:43.053Z</time></trkpt><trkpt lat="37.90101" lon="15.133655"><ele>336.0</ele><time>2026-04-26T09:26:44.053Z</time></trkpt><trkpt lat="37.9011333" lon="15.1335767"><ele>335.0</ele><time>2026-04-26T09:26:45.054Z</time></trkpt><trkpt lat="37.901245" lon="15.1334967"><ele>334.0</ele><time>2026-04-26T09:26:46.053Z</time></trkpt><trkpt lat="37.9013417" lon="15.1334183"><ele>334.0</ele><time>2026-04-26T09:26:47.053Z</time></trkpt><trkpt lat="37.9014317" lon="15.1333733"><ele>334.0</ele><time>2026-04-26T09:26:48.053Z</time></trkpt><trkpt lat="37.90151" lon="15.1333767"><ele>334.0</ele><time>2026-04-26T09:26:49.053Z</time></trkpt><trkpt lat="37.9015767" lon="15.1334133"><ele>334.0</ele><time>2026-04-26T09:26:50.053Z</time></trkpt><trkpt lat="37.9016383" lon="15.1334633"><ele>334.0</ele><time>2026-04-26T09:26:51.053Z</time></trkpt><trkpt lat="37.9017117" lon="15.1335267"><ele>334.0</ele><time>2026-04-26T09:26:53.053Z</time></trkpt><trkpt lat="37.9017383" lon="15.13363"><ele>334.0</ele><time>2026-04-26T09:27:09.053Z</time></trkpt><trkpt lat="37.9017333" lon="15.13378"><ele>334.0</ele><time>2026-04-26T09:27:11.053Z</time></trkpt><trkpt lat="37.9017117" lon="15.1338767"><ele>334.0</ele><time>2026-04-26T09:27:12.053Z</time></trkpt><trkpt lat="37.9016733" lon="15.1339533"><ele>334.0</ele><time>2026-04-26T09:27:13.053Z</time></trkpt><trkpt lat="37.9016283" lon="15.1340417"><ele>334.0</ele><time>2026-04-26T09:27:14.054Z</time></trkpt><trkpt lat="37.9015683" lon="15.1341"><ele>334.0</ele><time>2026-04-26T09:27:15.053Z</time></trkpt><trkpt lat="37.9015117" lon="15.1342217"><ele>334.0</ele><time>2026-04-26T09:27:17.053Z</time></trkpt><trkpt lat="37.9016267" lon="15.13411"><ele>334.0</ele><time>2026-04-26T09:35:37.052Z</time></trkpt><trkpt lat="37.9016717" lon="15.134045"><ele>334.0</ele><time>2026-04-26T09:35:40.052Z</time></trkpt><trkpt lat="37.9017133" lon="15.133905"><ele>334.0</ele><time>2026-04-26T09:35:42.053Z</time></trkpt><trkpt lat="37.9017367" lon="15.1338233"><ele>334.0</ele><time>2026-04-26T09:35:43.052Z</time></trkpt><trkpt lat="37.901775" lon="15.13368"><ele>333.5</ele><time>2026-04-26T09:35:45.052Z</time></trkpt><trkpt lat="37.9018117" lon="15.1335783"><ele>333.0</ele><time>2026-04-26T09:35:47.053Z</time></trkpt><trkpt lat="37.901915" lon="15.133595"><ele>332.5</ele><time>2026-04-26T09:35:50.052Z</time></trkpt><trkpt lat="37.9019717" lon="15.133645"><ele>332.0</ele><time>2026-04-26T09:35:51.052Z</time></trkpt><trkpt lat="37.90205" lon="15.1336833"><ele>331.5</ele><time>2026-04-26T09:35:52.052Z</time></trkpt><trkpt lat="37.902135" lon="15.1337267"><ele>331.0</ele><time>2026-04-26T09:35:53.052Z</time></trkpt><trkpt lat="37.902215" lon="15.1337683"><ele>331.0</ele><time>2026-04-26T09:35:54.052Z</time></trkpt><trkpt lat="37.9022967" lon="15.1338017"><ele>331.0</ele><time>2026-04-26T09:35:55.052Z</time></trkpt><trkpt lat="37.90236" lon="15.1338383"><ele>331.0</ele><time>2026-04-26T09:35:56.052Z</time></trkpt><trkpt lat="37.9024417" lon="15.1338733"><ele>331.0</ele><time>2026-04-26T09:35:57.052Z</time></trkpt><trkpt lat="37.9025267" lon="15.1339017"><ele>331.0</ele><time>2026-04-26T09:35:58.052Z</time></trkpt><trkpt lat="37.9026117" lon="15.13393"><ele>331.0</ele><time>2026-04-26T09:35:59.051Z</time></trkpt><trkpt lat="37.9027033" lon="15.1339583"><ele>331.20000000000005</ele><time>2026-04-26T09:36:00.051Z</time></trkpt><trkpt lat="37.902795" lon="15.133995"><ele>331.40000000000003</ele><time>2026-04-26T09:36:01.051Z</time></trkpt><trkpt lat="37.9028967" lon="15.134025"><ele>331.6</ele><time>2026-04-26T09:36:02.051Z</time></trkpt><trkpt lat="37.9030033" lon="15.1340617"><ele>331.8</ele><time>2026-04-26T09:36:03.051Z</time></trkpt><trkpt lat="37.90311" lon="15.134105"><ele>332.0</ele><time>2026-04-26T09:36:04.051Z</time></trkpt><trkpt lat="37.9032133" lon="15.1341433"><ele>332.40000000000003</ele><time>2026-04-26T09:36:05.051Z</time></trkpt><trkpt lat="37.9033133" lon="15.13418"><ele>332.8</ele><time>2026-04-26T09:36:06.052Z</time></trkpt><trkpt lat="37.9034117" lon="15.1342217"><ele>333.2</ele><time>2026-04-26T09:36:07.051Z</time></trkpt><trkpt lat="37.903515" lon="15.134265"><ele>333.6</ele><time>2026-04-26T09:36:08.051Z</time></trkpt><trkpt lat="37.9036117" lon="15.134305"><ele>334.0</ele><time>2026-04-26T09:36:09.052Z</time></trkpt><trkpt lat="37.9036967" lon="15.1343683"><ele>333.0</ele><time>2026-04-26T09:36:10.051Z</time></trkpt><trkpt lat="37.903775" lon="15.134435"><ele>332.0</ele><time>2026-04-26T09:36:11.051Z</time></trkpt><trkpt lat="37.90384" lon="15.1345"><ele>331.0</ele><time>2026-04-26T09:36:12.051Z</time></trkpt><trkpt lat="37.9038983" lon="15.1345683"><ele>330.0</ele><time>2026-04-26T09:36:13.051Z</time></trkpt><trkpt lat="37.903955" lon="15.134615"><ele>329.0</ele><time>2026-04-26T09:36:14.051Z</time></trkpt><trkpt lat="37.9040467" lon="15.134645"><ele>328.0</ele><time>2026-04-26T09:36:16.051Z</time></trkpt><trkpt lat="37.9041033" lon="15.13454"><ele>328.0</ele><time>2026-04-26T09:36:18.051Z</time></trkpt><trkpt lat="37.904115" lon="15.1344233"><ele>328.0</ele><time>2026-04-26T09:36:19.051Z</time></trkpt><trkpt lat="37.904125" lon="15.134295"><ele>328.0</ele><time>2026-04-26T09:36:20.051Z</time></trkpt><trkpt lat="37.9041367" lon="15.13417"><ele>328.0</ele><time>2026-04-26T09:36:21.051Z</time></trkpt><trkpt lat="37.9041633" lon="15.134035"><ele>328.0</ele><time>2026-04-26T09:36:22.051Z</time></trkpt><trkpt lat="37.90421" lon="15.1338833"><ele>328.0</ele><time>2026-04-26T09:36:23.051Z</time></trkpt><trkpt lat="37.90423" lon="15.1337433"><ele>328.0</ele><time>2026-04-26T09:36:24.051Z</time></trkpt><trkpt lat="37.90425" lon="15.1335883"><ele>328.0</ele><time>2026-04-26T09:36:25.051Z</time></trkpt><trkpt lat="37.9042867" lon="15.1334283"><ele>328.0</ele><time>2026-04-26T09:36:26.051Z</time></trkpt><trkpt lat="37.9043217" lon="15.1332667"><ele>325.25</ele><time>2026-04-26T09:36:27.052Z</time></trkpt><trkpt lat="37.9043717" lon="15.1330833"><ele>322.5</ele><time>2026-04-26T09:36:28.051Z</time></trkpt><trkpt lat="37.9044117" lon="15.1329033"><ele>319.75</ele><time>2026-04-26T09:36:29.051Z</time></trkpt><trkpt lat="37.9044433" lon="15.132725"><ele>317.0</ele><time>2026-04-26T09:36:30.051Z</time></trkpt><trkpt lat="37.9044867" lon="15.1325467"><ele>318.75</ele><time>2026-04-26T09:36:31.051Z</time></trkpt><trkpt lat="37.9045183" lon="15.1323817"><ele>320.5</ele><time>2026-04-26T09:36:32.051Z</time></trkpt><trkpt lat="37.9045633" lon="15.1321983"><ele>322.25</ele><time>2026-04-26T09:36:33.051Z</time></trkpt><trkpt lat="37.9046033" lon="15.132025"><ele>324.0</ele><time>2026-04-26T09:36:34.051Z</time></trkpt><trkpt lat="37.9046433" lon="15.1318567"><ele>324.0</ele><time>2026-04-26T09:36:35.051Z</time></trkpt><trkpt lat="37.9046817" lon="15.1317"><ele>324.0</ele><time>2026-04-26T09:36:36.051Z</time></trkpt><trkpt lat="37.90471" lon="15.13155"><ele>324.0</ele><time>2026-04-26T09:36:37.051Z</time></trkpt><trkpt lat="37.9047433" lon="15.1314083"><ele>324.0</ele><time>2026-04-26T09:36:38.051Z</time></trkpt><trkpt lat="37.90477" lon="15.1312717"><ele>324.3333333333333</ele><time>2026-04-26T09:36:39.051Z</time></trkpt><trkpt lat="37.9047983" lon="15.1311517"><ele>324.6666666666667</ele><time>2026-04-26T09:36:40.051Z</time></trkpt><trkpt lat="37.904825" lon="15.131045"><ele>325.0</ele><time>2026-04-26T09:36:41.051Z</time></trkpt><trkpt lat="37.90485" lon="15.1309417"><ele>325.33333333333337</ele><time>2026-04-26T09:36:42.051Z</time></trkpt><trkpt lat="37.90487" lon="15.1308467"><ele>325.6666666666667</ele><time>2026-04-26T09:36:43.052Z</time></trkpt><trkpt lat="37.9048883" lon="15.1307367"><ele>326.0</ele><time>2026-04-26T09:36:45.051Z</time></trkpt><trkpt lat="37.9049533" lon="15.1307233"><ele>326.20000000000005</ele><time>2026-04-26T09:36:49.051Z</time></trkpt><trkpt lat="37.905025" lon="15.1307183"><ele>326.40000000000003</ele><time>2026-04-26T09:36:51.051Z</time></trkpt><trkpt lat="37.905105" lon="15.130665"><ele>326.6</ele><time>2026-04-26T09:36:53.052Z</time></trkpt><trkpt lat="37.9051867" lon="15.13064"><ele>326.8</ele><time>2026-04-26T09:36:55.051Z</time></trkpt><trkpt lat="37.9052633" lon="15.1307"><ele>327.0</ele><time>2026-04-26T09:36:57.051Z</time></trkpt><trkpt lat="37.9053167" lon="15.1308417"><ele>325.8</ele><time>2026-04-26T09:36:59.051Z</time></trkpt><trkpt lat="37.9053367" lon="15.130985"><ele>324.6</ele><time>2026-04-26T09:37:01.051Z</time></trkpt><trkpt lat="37.9053767" lon="15.13105"><ele>323.40000000000003</ele><time>2026-04-26T09:37:03.051Z</time></trkpt><trkpt lat="37.9054633" lon="15.1310033"><ele>322.20000000000005</ele><time>2026-04-26T09:37:05.051Z</time></trkpt><trkpt lat="37.9055567" lon="15.1309867"><ele>321.0</ele><time>2026-04-26T09:37:07.051Z</time></trkpt><trkpt lat="37.9056417" lon="15.1310317"><ele>321.0</ele><time>2026-04-26T09:37:09.051Z</time></trkpt><trkpt lat="37.9056967" lon="15.131105"><ele>321.0</ele><time>2026-04-26T09:37:11.052Z</time></trkpt><trkpt lat="37.905705" lon="15.1312183"><ele>321.0</ele><time>2026-04-26T09:37:14.052Z</time></trkpt><trkpt lat="37.905675" lon="15.1313433"><ele>321.0</ele><time>2026-04-26T09:37:16.051Z</time></trkpt><trkpt lat="37.9056583" lon="15.131445"><ele>321.0</ele><time>2026-04-26T09:37:18.051Z</time></trkpt><trkpt lat="37.9057067" lon="15.1315433"><ele>321.0</ele><time>2026-04-26T09:37:21.051Z</time></trkpt><trkpt lat="37.905755" lon="15.1316183"><ele>321.0</ele><time>2026-04-26T09:37:35.051Z</time></trkpt><trkpt lat="37.905715" lon="15.1315267"><ele>321.0</ele><time>2026-04-26T09:38:10.051Z</time></trkpt><trkpt lat="37.9056333" lon="15.131525"><ele>321.0</ele><time>2026-04-26T09:38:12.051Z</time></trkpt><trkpt lat="37.90556" lon="15.1315717"><ele>321.0</ele><time>2026-04-26T09:38:14.051Z</time></trkpt><trkpt lat="37.9055367" lon="15.131665"><ele>321.0</ele><time>2026-04-26T09:38:16.051Z</time></trkpt><trkpt lat="37.9055767" lon="15.1317433"><ele>321.0</ele><time>2026-04-26T09:38:18.051Z</time></trkpt><trkpt lat="37.90563" lon="15.13183"><ele>321.0</ele><time>2026-04-26T09:38:21.051Z</time></trkpt><trkpt lat="37.9056217" lon="15.1319133"><ele>321.0</ele><time>2026-04-26T09:38:23.051Z</time></trkpt><trkpt lat="37.9055867" lon="15.1320583"><ele>321.0</ele><time>2026-04-26T09:38:25.051Z</time></trkpt><trkpt lat="37.905565" lon="15.1321483"><ele>321.0</ele><time>2026-04-26T09:38:26.051Z</time></trkpt><trkpt lat="37.905545" lon="15.132245"><ele>321.0</ele><time>2026-04-26T09:38:27.051Z</time></trkpt><trkpt lat="37.9055117" lon="15.1323367"><ele>321.0</ele><time>2026-04-26T09:38:28.051Z</time></trkpt><trkpt lat="37.9054767" lon="15.1324217"><ele>320.99999999999994</ele><time>2026-04-26T09:38:29.051Z</time></trkpt><trkpt lat="37.90544" lon="15.1325017"><ele>321.0</ele><time>2026-04-26T09:38:30.051Z</time></trkpt><trkpt lat="37.9054067" lon="15.1325733"><ele>321.0</ele><time>2026-04-26T09:38:31.052Z</time></trkpt><trkpt lat="37.9053733" lon="15.1326417"><ele>321.0</ele><time>2026-04-26T09:38:32.051Z</time></trkpt><trkpt lat="37.905335" lon="15.1327117"><ele>321.0</ele><time>2026-04-26T09:38:33.051Z</time></trkpt><trkpt lat="37.9052833" lon="15.1327833"><ele>320.99999999999994</ele><time>2026-04-26T09:38:34.051Z</time></trkpt><trkpt lat="37.9052333" lon="15.1328567"><ele>321.0</ele><time>2026-04-26T09:38:35.051Z</time></trkpt><trkpt lat="37.905195" lon="15.1329217"><ele>321.0</ele><time>2026-04-26T09:38:36.051Z</time></trkpt><trkpt lat="37.9051533" lon="15.1329917"><ele>321.0</ele><time>2026-04-26T09:38:37.051Z</time></trkpt><trkpt lat="37.9051167" lon="15.133065"><ele>321.0</ele><time>2026-04-26T09:38:38.051Z</time></trkpt><trkpt lat="37.905085" lon="15.1331417"><ele>321.0</ele><time>2026-04-26T09:38:39.051Z</time></trkpt><trkpt lat="37.9050483" lon="15.1332733"><ele>321.0</ele><time>2026-04-26T09:38:41.051Z</time></trkpt><trkpt lat="37.9050117" lon="15.1333917"><ele>321.0</ele><time>2026-04-26T09:38:43.051Z</time></trkpt><trkpt lat="37.9049783" lon="15.1335133"><ele>320.0</ele><time>2026-04-26T09:38:45.051Z</time></trkpt><trkpt lat="37.90494" lon="15.13363"><ele>319.0</ele><time>2026-04-26T09:38:47.051Z</time></trkpt><trkpt lat="37.9049083" lon="15.13375"><ele>318.0</ele><time>2026-04-26T09:38:49.051Z</time></trkpt><trkpt lat="37.9048867" lon="15.1338433"><ele>317.0</ele><time>2026-04-26T09:38:51.051Z</time></trkpt><trkpt lat="37.9048583" lon="15.1339167"><ele>316.0</ele><time>2026-04-26T09:38:53.051Z</time></trkpt><trkpt lat="37.9048233" lon="15.13402"><ele>315.0</ele><time>2026-04-26T09:38:56.051Z</time></trkpt><trkpt lat="37.9048067" lon="15.13412"><ele>314.6666666666667</ele><time>2026-04-26T09:38:58.051Z</time></trkpt><trkpt lat="37.904795" lon="15.134215"><ele>314.3333333333333</ele><time>2026-04-26T09:39:00.052Z</time></trkpt><trkpt lat="37.9047983" lon="15.13432"><ele>314.0</ele><time>2026-04-26T09:39:03.051Z</time></trkpt><trkpt lat="37.9048" lon="15.134405"><ele>313.66666666666663</ele><time>2026-04-26T09:39:06.051Z</time></trkpt><trkpt lat="37.9048167" lon="15.1345533"><ele>313.3333333333333</ele><time>2026-04-26T09:39:25.051Z</time></trkpt><trkpt lat="37.9048133" lon="15.1346683"><ele>313.0</ele><time>2026-04-26T09:39:28.051Z</time></trkpt><trkpt lat="37.9048033" lon="15.1347767"><ele>313.0</ele><time>2026-04-26T09:39:31.051Z</time></trkpt><trkpt lat="37.904805" lon="15.134875"><ele>313.0</ele><time>2026-04-26T09:39:33.051Z</time></trkpt><trkpt lat="37.9048017" lon="15.1349917"><ele>313.0</ele><time>2026-04-26T09:39:35.051Z</time></trkpt><trkpt lat="37.9048017" lon="15.1350767"><ele>313.0</ele><time>2026-04-26T09:39:37.051Z</time></trkpt><trkpt lat="37.9048017" lon="15.13519"><ele>313.0</ele><time>2026-04-26T09:39:40.051Z</time></trkpt><trkpt lat="37.9048283" lon="15.1353067"><ele>313.0</ele><time>2026-04-26T09:39:42.051Z</time></trkpt><trkpt lat="37.9048767" lon="15.1354467"><ele>313.0</ele><time>2026-04-26T09:39:44.051Z</time></trkpt><trkpt lat="37.90493" lon="15.1355783"><ele>313.0</ele><time>2026-04-26T09:39:46.051Z</time></trkpt><trkpt lat="37.9049817" lon="15.1357083"><ele>313.0</ele><time>2026-04-26T09:39:48.051Z</time></trkpt><trkpt lat="37.9050233" lon="15.1358133"><ele>313.0</ele><time>2026-04-26T09:39:50.051Z</time></trkpt><trkpt lat="37.9050417" lon="15.1359383"><ele>313.0</ele><time>2026-04-26T09:39:52.051Z</time></trkpt><trkpt lat="37.9050433" lon="15.136065"><ele>311.8333333333333</ele><time>2026-04-26T09:39:54.051Z</time></trkpt><trkpt lat="37.905045" lon="15.1362133"><ele>310.66666666666663</ele><time>2026-04-26T09:39:56.051Z</time></trkpt><trkpt lat="37.9050467" lon="15.1363217"><ele>309.5</ele><time>2026-04-26T09:39:58.051Z</time></trkpt><trkpt lat="37.9050117" lon="15.136405"><ele>308.3333333333333</ele><time>2026-04-26T09:40:01.051Z</time></trkpt><trkpt lat="37.9049867" lon="15.1365117"><ele>307.1666666666667</ele><time>2026-04-26T09:40:40.051Z</time></trkpt><trkpt lat="37.904925" lon="15.1365417"><ele>306.0</ele><time>2026-04-26T09:40:44.051Z</time></trkpt><trkpt lat="37.90489" lon="15.1364417"><ele>306.0</ele><time>2026-04-26T09:40:51.051Z</time></trkpt><trkpt lat="37.90491" lon="15.1365217"><ele>306.0</ele><time>2026-04-26T09:41:01.051Z</time></trkpt><trkpt lat="37.9049717" lon="15.136505"><ele>306.0</ele><time>2026-04-26T09:41:06.051Z</time></trkpt><trkpt lat="37.9050383" lon="15.136445"><ele>306.0</ele><time>2026-04-26T09:41:11.051Z</time></trkpt><trkpt lat="37.9051133" lon="15.1364333"><ele>306.0</ele><time>2026-04-26T09:41:14.052Z</time></trkpt><trkpt lat="37.905105" lon="15.136585"><ele>306.0</ele><time>2026-04-26T09:43:49.05Z</time></trkpt><trkpt lat="37.9051067" lon="15.1366733"><ele>309.0</ele><time>2026-04-26T09:43:51.05Z</time></trkpt><trkpt lat="37.9051017" lon="15.13677"><ele>312.0</ele><time>2026-04-26T09:43:53.05Z</time></trkpt><trkpt lat="37.9051033" lon="15.1368583"><ele>315.0</ele><time>2026-04-26T09:43:55.05Z</time></trkpt><trkpt lat="37.9051067" lon="15.1369517"><ele>318.0</ele><time>2026-04-26T09:43:57.05Z</time></trkpt><trkpt lat="37.9051" lon="15.1370883"><ele>321.0</ele><time>2026-04-26T09:43:59.05Z</time></trkpt><trkpt lat="37.9050967" lon="15.13717"><ele>324.0</ele><time>2026-04-26T09:44:00.05Z</time></trkpt><trkpt lat="37.9051033" lon="15.1372633"><ele>324.0</ele><time>2026-04-26T09:44:01.05Z</time></trkpt><trkpt lat="37.9051083" lon="15.1373533"><ele>324.0</ele><time>2026-04-26T09:44:02.05Z</time></trkpt><trkpt lat="37.9051183" lon="15.1374467"><ele>324.0</ele><time>2026-04-26T09:44:03.05Z</time></trkpt><trkpt lat="37.90513" lon="15.1375533"><ele>324.0</ele><time>2026-04-26T09:44:04.051Z</time></trkpt><trkpt lat="37.905145" lon="15.137665"><ele>324.0</ele><time>2026-04-26T09:44:05.05Z</time></trkpt><trkpt lat="37.9051583" lon="15.13777"><ele>324.0</ele><time>2026-04-26T09:44:06.05Z</time></trkpt><trkpt lat="37.905175" lon="15.1378633"><ele>322.8333333333333</ele><time>2026-04-26T09:44:07.05Z</time></trkpt><trkpt lat="37.90519" lon="15.1379533"><ele>321.6666666666667</ele><time>2026-04-26T09:44:08.05Z</time></trkpt><trkpt lat="37.905205" lon="15.1380333"><ele>320.5</ele><time>2026-04-26T09:44:09.05Z</time></trkpt><trkpt lat="37.90524" lon="15.1381617"><ele>319.33333333333337</ele><time>2026-04-26T09:44:11.05Z</time></trkpt><trkpt lat="37.905265" lon="15.1382717"><ele>318.1666666666667</ele><time>2026-04-26T09:44:13.05Z</time></trkpt><trkpt lat="37.9053083" lon="15.13836"><ele>317.0</ele><time>2026-04-26T09:44:15.05Z</time></trkpt><trkpt lat="37.9053467" lon="15.1384417"><ele>316.6666666666667</ele><time>2026-04-26T09:44:17.051Z</time></trkpt><trkpt lat="37.9053583" lon="15.1385333"><ele>316.33333333333337</ele><time>2026-04-26T09:44:19.05Z</time></trkpt><trkpt lat="37.9053783" lon="15.1386333"><ele>316.0</ele><time>2026-04-26T09:44:21.05Z</time></trkpt><trkpt lat="37.9054033" lon="15.138735"><ele>315.6666666666667</ele><time>2026-04-26T09:44:23.05Z</time></trkpt><trkpt lat="37.9054167" lon="15.1388267"><ele>315.3333333333333</ele><time>2026-04-26T09:44:27.05Z</time></trkpt><trkpt lat="37.9054533" lon="15.1389433"><ele>315.0</ele><time>2026-04-26T09:44:30.051Z</time></trkpt><trkpt lat="37.9055083" lon="15.1389983"><ele>313.6666666666667</ele><time>2026-04-26T09:44:33.05Z</time></trkpt><trkpt lat="37.9055417" lon="15.1391017"><ele>312.3333333333333</ele><time>2026-04-26T09:45:00.05Z</time></trkpt><trkpt lat="37.90556" lon="15.139185"><ele>311.0</ele><time>2026-04-26T09:45:03.05Z</time></trkpt><trkpt lat="37.9055817" lon="15.1392783"><ele>309.66666666666663</ele><time>2026-04-26T09:45:07.05Z</time></trkpt><trkpt lat="37.9056017" lon="15.1393567"><ele>308.3333333333333</ele><time>2026-04-26T09:45:10.05Z</time></trkpt><trkpt lat="37.9056333" lon="15.1394517"><ele>307.0</ele><time>2026-04-26T09:45:14.05Z</time></trkpt><trkpt lat="37.9056567" lon="15.1395967"><ele>307.0</ele><time>2026-04-26T09:45:22.05Z</time></trkpt><trkpt lat="37.90567" lon="15.1396817"><ele>307.0</ele><time>2026-04-26T09:45:24.05Z</time></trkpt><trkpt lat="37.9056617" lon="15.1397783"><ele>307.0</ele><time>2026-04-26T09:45:26.05Z</time></trkpt><trkpt lat="37.9056533" lon="15.1398817"><ele>307.0</ele><time>2026-04-26T09:45:28.05Z</time></trkpt><trkpt lat="37.90565" lon="15.13999"><ele>307.0</ele><time>2026-04-26T09:45:31.05Z</time></trkpt><trkpt lat="37.9056517" lon="15.1400917"><ele>307.0</ele><time>2026-04-26T09:45:34.05Z</time></trkpt><trkpt lat="37.9056367" lon="15.140195"><ele>305.8333333333333</ele><time>2026-04-26T09:45:40.05Z</time></trkpt><trkpt lat="37.90564" lon="15.1403167"><ele>304.66666666666663</ele><time>2026-04-26T09:45:44.05Z</time></trkpt><trkpt lat="37.905645" lon="15.1404283"><ele>303.5</ele><time>2026-04-26T09:45:46.05Z</time></trkpt><trkpt lat="37.9056533" lon="15.1405417"><ele>302.3333333333333</ele><time>2026-04-26T09:45:48.05Z</time></trkpt><trkpt lat="37.9056833" lon="15.1406383"><ele>301.1666666666667</ele><time>2026-04-26T09:45:50.05Z</time></trkpt><trkpt lat="37.90574" lon="15.1407233"><ele>300.0</ele><time>2026-04-26T09:45:52.05Z</time></trkpt><trkpt lat="37.9057983" lon="15.1408133"><ele>299.8</ele><time>2026-04-26T09:46:31.05Z</time></trkpt><trkpt lat="37.9058467" lon="15.14088"><ele>299.6</ele><time>2026-04-26T09:46:33.051Z</time></trkpt><trkpt lat="37.905925" lon="15.1409317"><ele>299.4</ele><time>2026-04-26T09:46:35.05Z</time></trkpt><trkpt lat="37.9060083" lon="15.1409917"><ele>299.2</ele><time>2026-04-26T09:46:37.05Z</time></trkpt><trkpt lat="37.9060983" lon="15.14108"><ele>299.0</ele><time>2026-04-26T09:46:39.05Z</time></trkpt><trkpt lat="37.9061733" lon="15.14117"><ele>299.0</ele><time>2026-04-26T09:46:41.05Z</time></trkpt><trkpt lat="37.90625" lon="15.1412583"><ele>299.0</ele><time>2026-04-26T09:46:43.05Z</time></trkpt><trkpt lat="37.9063117" lon="15.1413433"><ele>299.0</ele><time>2026-04-26T09:46:45.05Z</time></trkpt><trkpt lat="37.9063767" lon="15.141415"><ele>299.0</ele><time>2026-04-26T09:46:47.05Z</time></trkpt><trkpt lat="37.90643" lon="15.1415"><ele>299.0</ele><time>2026-04-26T09:46:50.051Z</time></trkpt><trkpt lat="37.9064917" lon="15.1415517"><ele>299.0</ele><time>2026-04-26T09:46:52.05Z</time></trkpt><trkpt lat="37.90658" lon="15.1416367"><ele>299.0</ele><time>2026-04-26T09:46:54.05Z</time></trkpt><trkpt lat="37.9066617" lon="15.14173"><ele>299.0</ele><time>2026-04-26T09:46:56.05Z</time></trkpt><trkpt lat="37.9067183" lon="15.1417967"><ele>299.0</ele><time>2026-04-26T09:46:58.049Z</time></trkpt><trkpt lat="37.906765" lon="15.1418633"><ele>299.0</ele><time>2026-04-26T09:53:31.049Z</time></trkpt><trkpt lat="37.90681" lon="15.1419233"><ele>299.0</ele><time>2026-04-26T09:53:36.048Z</time></trkpt><trkpt lat="37.9068683" lon="15.142"><ele>299.0</ele><time>2026-04-26T09:53:40.048Z</time></trkpt><trkpt lat="37.9069283" lon="15.1420467"><ele>299.0</ele><time>2026-04-26T09:53:42.048Z</time></trkpt><trkpt lat="37.9070067" lon="15.1420667"><ele>299.0</ele><time>2026-04-26T09:53:44.048Z</time></trkpt><trkpt lat="37.907085" lon="15.1420917"><ele>299.0</ele><time>2026-04-26T09:53:46.048Z</time></trkpt><trkpt lat="37.9071367" lon="15.1421417"><ele>299.0</ele><time>2026-04-26T09:53:48.048Z</time></trkpt><trkpt lat="37.9071667" lon="15.1422417"><ele>299.0</ele><time>2026-04-26T09:53:51.048Z</time></trkpt><trkpt lat="37.9070983" lon="15.14231"><ele>299.0</ele><time>2026-04-26T09:53:54.049Z</time></trkpt><trkpt lat="37.90704" lon="15.14235"><ele>299.33333333333337</ele><time>2026-04-26T09:53:57.048Z</time></trkpt><trkpt lat="37.9069767" lon="15.1423867"><ele>299.6666666666667</ele><time>2026-04-26T09:53:59.048Z</time></trkpt><trkpt lat="37.906915" lon="15.1424183"><ele>300.0</ele><time>2026-04-26T09:54:01.048Z</time></trkpt><trkpt lat="37.9068283" lon="15.1424283"><ele>300.3333333333333</ele><time>2026-04-26T09:54:37.048Z</time></trkpt><trkpt lat="37.9067417" lon="15.14245"><ele>300.66666666666663</ele><time>2026-04-26T09:54:39.048Z</time></trkpt><trkpt lat="37.9066917" lon="15.1425333"><ele>301.0</ele><time>2026-04-26T09:54:42.048Z</time></trkpt><trkpt lat="37.90671" lon="15.14263"><ele>301.0</ele><time>2026-04-26T09:54:45.048Z</time></trkpt><trkpt lat="37.90677" lon="15.1426783"><ele>301.0</ele><time>2026-04-26T09:54:48.048Z</time></trkpt><trkpt lat="37.9068567" lon="15.142715"><ele>301.0</ele><time>2026-04-26T09:54:51.048Z</time></trkpt><trkpt lat="37.9069483" lon="15.1427633"><ele>301.0</ele><time>2026-04-26T09:54:53.048Z</time></trkpt><trkpt lat="37.9070667" lon="15.14282"><ele>301.0</ele><time>2026-04-26T09:54:55.048Z</time></trkpt><trkpt lat="37.9071317" lon="15.1428517"><ele>301.0</ele><time>2026-04-26T09:54:56.048Z</time></trkpt><trkpt lat="37.907195" lon="15.142885"><ele>301.0</ele><time>2026-04-26T09:54:57.048Z</time></trkpt><trkpt lat="37.90726" lon="15.1429233"><ele>301.0</ele><time>2026-04-26T09:54:58.048Z</time></trkpt><trkpt lat="37.9073233" lon="15.142975"><ele>301.0</ele><time>2026-04-26T09:54:59.048Z</time></trkpt><trkpt lat="37.9073967" lon="15.1430567"><ele>301.0</ele><time>2026-04-26T09:55:00.049Z</time></trkpt><trkpt lat="37.9074633" lon="15.143165"><ele>301.0</ele><time>2026-04-26T09:55:01.048Z</time></trkpt><trkpt lat="37.9075117" lon="15.14328"><ele>301.40000000000003</ele><time>2026-04-26T09:55:02.049Z</time></trkpt><trkpt lat="37.907555" lon="15.143395"><ele>301.8</ele><time>2026-04-26T09:55:03.048Z</time></trkpt><trkpt lat="37.9075983" lon="15.1435017"><ele>302.20000000000005</ele><time>2026-04-26T09:55:04.048Z</time></trkpt><trkpt lat="37.9076383" lon="15.1435967"><ele>302.6</ele><time>2026-04-26T09:55:05.048Z</time></trkpt><trkpt lat="37.9076717" lon="15.1436833"><ele>303.0</ele><time>2026-04-26T09:55:06.048Z</time></trkpt><trkpt lat="37.90772" lon="15.1437867"><ele>303.0</ele><time>2026-04-26T09:55:08.048Z</time></trkpt><trkpt lat="37.9077817" lon="15.14384"><ele>303.0</ele><time>2026-04-26T09:55:10.048Z</time></trkpt><trkpt lat="37.907835" lon="15.1438933"><ele>303.0</ele><time>2026-04-26T09:55:12.048Z</time></trkpt><trkpt lat="37.90786" lon="15.1439667"><ele>303.0</ele><time>2026-04-26T09:55:14.048Z</time></trkpt><trkpt lat="37.9078617" lon="15.1440717"><ele>303.0</ele><time>2026-04-26T09:55:16.048Z</time></trkpt><trkpt lat="37.90787" lon="15.1441633"><ele>303.0</ele><time>2026-04-26T09:55:18.049Z</time></trkpt><trkpt lat="37.90788" lon="15.14425"><ele>303.0</ele><time>2026-04-26T09:55:21.048Z</time></trkpt><trkpt lat="37.907955" lon="15.1442983"><ele>302.8333333333333</ele><time>2026-04-26T09:55:24.048Z</time></trkpt><trkpt lat="37.9080367" lon="15.1443083"><ele>302.6666666666667</ele><time>2026-04-26T09:55:46.048Z</time></trkpt><trkpt lat="37.908095" lon="15.1443417"><ele>302.5</ele><time>2026-04-26T09:55:48.048Z</time></trkpt><trkpt lat="37.908175" lon="15.14437"><ele>302.33333333333337</ele><time>2026-04-26T09:55:50.048Z</time></trkpt><trkpt lat="37.9082667" lon="15.1443733"><ele>302.1666666666667</ele><time>2026-04-26T09:55:52.048Z</time></trkpt><trkpt lat="37.9083667" lon="15.144375"><ele>302.0</ele><time>2026-04-26T09:55:54.048Z</time></trkpt><trkpt lat="37.9084517" lon="15.1443933"><ele>302.0</ele><time>2026-04-26T09:55:56.048Z</time></trkpt><trkpt lat="37.9085183" lon="15.1444217"><ele>302.0</ele><time>2026-04-26T09:55:58.048Z</time></trkpt><trkpt lat="37.9086217" lon="15.1444483"><ele>302.0</ele><time>2026-04-26T09:56:00.048Z</time></trkpt><trkpt lat="37.90875" lon="15.1444383"><ele>302.0</ele><time>2026-04-26T09:56:02.048Z</time></trkpt><trkpt lat="37.9088283" lon="15.14442"><ele>302.0</ele><time>2026-04-26T09:56:03.048Z</time></trkpt><trkpt lat="37.9088967" lon="15.1443883"><ele>302.0</ele><time>2026-04-26T09:56:04.048Z</time></trkpt><trkpt lat="37.90896" lon="15.14435"><ele>302.0</ele><time>2026-04-26T09:56:05.048Z</time></trkpt><trkpt lat="37.9090317" lon="15.1443167"><ele>302.0</ele><time>2026-04-26T09:56:06.049Z</time></trkpt><trkpt lat="37.9091033" lon="15.144285"><ele>302.0</ele><time>2026-04-26T09:56:07.048Z</time></trkpt><trkpt lat="37.9091883" lon="15.1442533"><ele>302.0</ele><time>2026-04-26T09:56:08.048Z</time></trkpt><trkpt lat="37.9092767" lon="15.1442283"><ele>302.0</ele><time>2026-04-26T09:56:09.048Z</time></trkpt><trkpt lat="37.9093683" lon="15.1441983"><ele>302.8</ele><time>2026-04-26T09:56:10.048Z</time></trkpt><trkpt lat="37.909455" lon="15.1441717"><ele>303.6</ele><time>2026-04-26T09:56:11.048Z</time></trkpt><trkpt lat="37.909545" lon="15.1441417"><ele>304.40000000000003</ele><time>2026-04-26T09:56:12.048Z</time></trkpt><trkpt lat="37.909635" lon="15.144115"><ele>305.2</ele><time>2026-04-26T09:56:13.048Z</time></trkpt><trkpt lat="37.9097233" lon="15.14409"><ele>306.0</ele><time>2026-04-26T09:56:14.048Z</time></trkpt><trkpt lat="37.909815" lon="15.1440567"><ele>306.0</ele><time>2026-04-26T09:56:15.048Z</time></trkpt><trkpt lat="37.9099017" lon="15.144025"><ele>306.0</ele><time>2026-04-26T09:56:16.048Z</time></trkpt><trkpt lat="37.909988" lon="15.1439932"><ele>306.0</ele><time>2026-04-26T09:56:17.048Z</time></trkpt><trkpt lat="37.9100708" lon="15.1439529"><ele>306.0</ele><time>2026-04-26T09:56:18.048Z</time></trkpt><trkpt lat="37.9101581" lon="15.1439121"><ele>306.0</ele><time>2026-04-26T09:56:19.048Z</time></trkpt><trkpt lat="37.9102435" lon="15.1438709"><ele>307.0</ele><time>2026-04-26T09:56:20.048Z</time></trkpt><trkpt lat="37.9103257" lon="15.1438201"><ele>308.0</ele><time>2026-04-26T09:56:21.048Z</time></trkpt><trkpt lat="37.9104024" lon="15.1437616"><ele>309.0</ele><time>2026-04-26T09:56:22.048Z</time></trkpt><trkpt lat="37.9104771" lon="15.1437072"><ele>310.0</ele><time>2026-04-26T09:56:23.048Z</time></trkpt><trkpt lat="37.9105552" lon="15.1436593"><ele>311.0</ele><time>2026-04-26T09:56:24.048Z</time></trkpt><trkpt lat="37.9106419" lon="15.1436118"><ele>312.0</ele><time>2026-04-26T09:56:25.048Z</time></trkpt><trkpt lat="37.910738" lon="15.1435583"><ele>312.0</ele><time>2026-04-26T09:56:26.048Z</time></trkpt><trkpt lat="37.9108364" lon="15.1434983"><ele>312.0</ele><time>2026-04-26T09:56:27.048Z</time></trkpt><trkpt lat="37.9109322" lon="15.143432"><ele>312.0</ele><time>2026-04-26T09:56:28.048Z</time></trkpt><trkpt lat="37.9110132" lon="15.1433566"><ele>312.0</ele><time>2026-04-26T09:56:29.048Z</time></trkpt><trkpt lat="37.9110812" lon="15.1432817"><ele>312.0</ele><time>2026-04-26T09:56:30.048Z</time></trkpt><trkpt lat="37.9111382" lon="15.1432261"><ele>312.0</ele><time>2026-04-26T09:56:31.048Z</time></trkpt><trkpt lat="37.9112362" lon="15.1431681"><ele>312.0</ele><time>2026-04-26T09:56:33.048Z</time></trkpt><trkpt lat="37.9113086" lon="15.143152"><ele>312.0</ele><time>2026-04-26T09:56:35.048Z</time></trkpt><trkpt lat="37.9113847" lon="15.1431105"><ele>312.0</ele><time>2026-04-26T09:56:37.048Z</time></trkpt><trkpt lat="37.9114809" lon="15.1430375"><ele>312.0</ele><time>2026-04-26T09:56:39.049Z</time></trkpt><trkpt lat="37.9115372" lon="15.1429987"><ele>312.0</ele><time>2026-04-26T09:56:40.048Z</time></trkpt><trkpt lat="37.9116571" lon="15.1429423"><ele>312.0</ele><time>2026-04-26T09:56:42.048Z</time></trkpt><trkpt lat="37.9117243" lon="15.1429158"><ele>312.0</ele><time>2026-04-26T09:56:43.048Z</time></trkpt><trkpt lat="37.9118008" lon="15.1428907"><ele>312.0</ele><time>2026-04-26T09:56:44.048Z</time></trkpt><trkpt lat="37.91188" lon="15.1428694"><ele>312.0</ele><time>2026-04-26T09:56:45.048Z</time></trkpt><trkpt lat="37.9119564" lon="15.1428519"><ele>312.0</ele><time>2026-04-26T09:56:46.048Z</time></trkpt><trkpt lat="37.912035" lon="15.1428336"><ele>312.0</ele><time>2026-04-26T09:56:47.048Z</time></trkpt><trkpt lat="37.9121126" lon="15.1428196"><ele>313.0</ele><time>2026-04-26T09:56:48.048Z</time></trkpt><trkpt lat="37.9121844" lon="15.1428123"><ele>314.0</ele><time>2026-04-26T09:56:49.048Z</time></trkpt><trkpt lat="37.9123067" lon="15.142845"><ele>315.0</ele><time>2026-04-26T09:56:51.048Z</time></trkpt><trkpt lat="37.91238" lon="15.1428883"><ele>316.0</ele><time>2026-04-26T09:56:52.048Z</time></trkpt><trkpt lat="37.91246" lon="15.14294"><ele>317.0</ele><time>2026-04-26T09:56:53.049Z</time></trkpt><trkpt lat="37.9125483" lon="15.143"><ele>317.4</ele><time>2026-04-26T09:56:54.048Z</time></trkpt><trkpt lat="37.9126333" lon="15.143075"><ele>317.79999999999995</ele><time>2026-04-26T09:56:55.048Z</time></trkpt><trkpt lat="37.9127233" lon="15.1431433"><ele>318.2</ele><time>2026-04-26T09:56:56.048Z</time></trkpt><trkpt lat="37.9128083" lon="15.143205"><ele>318.59999999999997</ele><time>2026-04-26T09:56:57.048Z</time></trkpt><trkpt lat="37.91289" lon="15.14326"><ele>319.0</ele><time>2026-04-26T09:56:58.048Z</time></trkpt><trkpt lat="37.91297" lon="15.1433067"><ele>320.16666666666663</ele><time>2026-04-26T09:56:59.048Z</time></trkpt><trkpt lat="37.9130367" lon="15.1433517"><ele>321.3333333333333</ele><time>2026-04-26T09:57:00.049Z</time></trkpt><trkpt lat="37.9131367" lon="15.1434117"><ele>322.5</ele><time>2026-04-26T09:57:02.048Z</time></trkpt><trkpt lat="37.9132217" lon="15.143435"><ele>323.6666666666667</ele><time>2026-04-26T09:57:44.047Z</time></trkpt><trkpt lat="37.9133067" lon="15.1433917"><ele>324.83333333333337</ele><time>2026-04-26T09:57:46.047Z</time></trkpt><trkpt lat="37.9133683" lon="15.1433617"><ele>326.0</ele><time>2026-04-26T09:57:47.047Z</time></trkpt><trkpt lat="37.91344" lon="15.143335"><ele>327.0</ele><time>2026-04-26T09:57:48.047Z</time></trkpt><trkpt lat="37.9135167" lon="15.14331"><ele>328.0</ele><time>2026-04-26T09:57:49.048Z</time></trkpt><trkpt lat="37.9136017" lon="15.1432883"><ele>329.0</ele><time>2026-04-26T09:57:50.047Z</time></trkpt><trkpt lat="37.913695" lon="15.1432733"><ele>330.0</ele><time>2026-04-26T09:57:51.047Z</time></trkpt><trkpt lat="37.913785" lon="15.1432583"><ele>331.0</ele><time>2026-04-26T09:57:52.047Z</time></trkpt><trkpt lat="37.9138683" lon="15.1432417"><ele>332.0</ele><time>2026-04-26T09:57:53.047Z</time></trkpt><trkpt lat="37.9139433" lon="15.143225"><ele>332.0</ele><time>2026-04-26T09:57:54.047Z</time></trkpt><trkpt lat="37.9140133" lon="15.1432167"><ele>332.0</ele><time>2026-04-26T09:57:55.047Z</time></trkpt><trkpt lat="37.9140883" lon="15.1432133"><ele>332.0</ele><time>2026-04-26T09:57:56.048Z</time></trkpt><trkpt lat="37.9141617" lon="15.1432117"><ele>332.0</ele><time>2026-04-26T09:57:57.047Z</time></trkpt><trkpt lat="37.9142383" lon="15.1432183"><ele>332.0</ele><time>2026-04-26T09:57:58.047Z</time></trkpt><trkpt lat="37.9143017" lon="15.1432217"><ele>332.0</ele><time>2026-04-26T09:57:59.047Z</time></trkpt><trkpt lat="37.91437" lon="15.1432217"><ele>332.0</ele><time>2026-04-26T09:58:00.047Z</time></trkpt><trkpt lat="37.914445" lon="15.1432217"><ele>333.5</ele><time>2026-04-26T09:58:01.048Z</time></trkpt><trkpt lat="37.9145183" lon="15.1432217"><ele>335.0</ele><time>2026-04-26T09:58:02.047Z</time></trkpt><trkpt lat="37.9146" lon="15.143225"><ele>336.5</ele><time>2026-04-26T09:58:03.048Z</time></trkpt><trkpt lat="37.914675" lon="15.143235"><ele>338.0</ele><time>2026-04-26T09:58:04.047Z</time></trkpt><trkpt lat="37.9147533" lon="15.143235"><ele>339.5</ele><time>2026-04-26T09:58:05.047Z</time></trkpt><trkpt lat="37.9148383" lon="15.143245"><ele>341.0</ele><time>2026-04-26T09:58:06.047Z</time></trkpt><trkpt lat="37.9149383" lon="15.1432683"><ele>341.0</ele><time>2026-04-26T09:58:07.048Z</time></trkpt><trkpt lat="37.9150483" lon="15.14328"><ele>341.0</ele><time>2026-04-26T09:58:08.047Z</time></trkpt><trkpt lat="37.91516" lon="15.1432733"><ele>341.0</ele><time>2026-04-26T09:58:09.047Z</time></trkpt><trkpt lat="37.91528" lon="15.1432417"><ele>341.0</ele><time>2026-04-26T09:58:10.047Z</time></trkpt><trkpt lat="37.9153917" lon="15.1431767"><ele>339.6</ele><time>2026-04-26T09:58:11.047Z</time></trkpt><trkpt lat="37.9154967" lon="15.143105"><ele>338.20000000000005</ele><time>2026-04-26T09:58:12.047Z</time></trkpt><trkpt lat="37.9156" lon="15.14304"><ele>336.79999999999995</ele><time>2026-04-26T09:58:13.048Z</time></trkpt><trkpt lat="37.9156933" lon="15.14299"><ele>335.4</ele><time>2026-04-26T09:58:14.047Z</time></trkpt><trkpt lat="37.9157717" lon="15.142955"><ele>334.0</ele><time>2026-04-26T09:58:15.047Z</time></trkpt><trkpt lat="37.9158517" lon="15.1429467"><ele>334.6</ele><time>2026-04-26T09:58:16.047Z</time></trkpt><trkpt lat="37.915935" lon="15.1429733"><ele>335.2</ele><time>2026-04-26T09:58:17.047Z</time></trkpt><trkpt lat="37.9160417" lon="15.14302"><ele>335.8</ele><time>2026-04-26T09:58:18.047Z</time></trkpt><trkpt lat="37.9161383" lon="15.14307"><ele>336.40000000000003</ele><time>2026-04-26T09:58:19.047Z</time></trkpt><trkpt lat="37.9162367" lon="15.14312"><ele>337.0</ele><time>2026-04-26T09:58:20.047Z</time></trkpt><trkpt lat="37.9163317" lon="15.14318"><ele>337.0</ele><time>2026-04-26T09:58:21.047Z</time></trkpt><trkpt lat="37.9164217" lon="15.1432283"><ele>337.0</ele><time>2026-04-26T09:58:22.047Z</time></trkpt><trkpt lat="37.9165167" lon="15.1432583"><ele>337.0</ele><time>2026-04-26T09:58:23.047Z</time></trkpt><trkpt lat="37.9166067" lon="15.1432467"><ele>337.0</ele><time>2026-04-26T09:58:24.047Z</time></trkpt><trkpt lat="37.9166917" lon="15.1432133"><ele>337.0</ele><time>2026-04-26T09:58:25.047Z</time></trkpt><trkpt lat="37.9167833" lon="15.1431983"><ele>338.0</ele><time>2026-04-26T09:58:26.047Z</time></trkpt><trkpt lat="37.9168833" lon="15.143205"><ele>339.0</ele><time>2026-04-26T09:58:27.047Z</time></trkpt><trkpt lat="37.9170017" lon="15.1432233"><ele>340.0</ele><time>2026-04-26T09:58:28.047Z</time></trkpt><trkpt lat="37.9171283" lon="15.14323"><ele>341.0</ele><time>2026-04-26T09:58:29.047Z</time></trkpt><trkpt lat="37.917255" lon="15.1432167"><ele>343.0</ele><time>2026-04-26T09:58:30.047Z</time></trkpt><trkpt lat="37.9173867" lon="15.143215"><ele>345.0</ele><time>2026-04-26T09:58:31.047Z</time></trkpt><trkpt lat="37.9175067" lon="15.14325"><ele>347.0</ele><time>2026-04-26T09:58:32.047Z</time></trkpt><trkpt lat="37.91763" lon="15.1433033"><ele>349.0</ele><time>2026-04-26T09:58:33.047Z</time></trkpt><trkpt lat="37.9177433" lon="15.143375"><ele>349.25</ele><time>2026-04-26T09:58:34.047Z</time></trkpt><trkpt lat="37.9178617" lon="15.1434417"><ele>349.5</ele><time>2026-04-26T09:58:35.047Z</time></trkpt><trkpt lat="37.91798" lon="15.1434883"><ele>349.75</ele><time>2026-04-26T09:58:36.047Z</time></trkpt><trkpt lat="37.9180967" lon="15.1435"><ele>350.0</ele><time>2026-04-26T09:58:37.047Z</time></trkpt><trkpt lat="37.9182033" lon="15.14352"><ele>350.0</ele><time>2026-04-26T09:58:38.047Z</time></trkpt><trkpt lat="37.9182983" lon="15.1435717"><ele>350.0</ele><time>2026-04-26T09:58:39.047Z</time></trkpt><trkpt lat="37.9184017" lon="15.14365"><ele>350.0</ele><time>2026-04-26T09:58:40.047Z</time></trkpt><trkpt lat="37.9185067" lon="15.1437383"><ele>350.0</ele><time>2026-04-26T09:58:41.048Z</time></trkpt><trkpt lat="37.91863" lon="15.1438033"><ele>351.0</ele><time>2026-04-26T09:58:42.047Z</time></trkpt><trkpt lat="37.918745" lon="15.143865"><ele>352.0</ele><time>2026-04-26T09:58:43.047Z</time></trkpt><trkpt lat="37.9188467" lon="15.14393"><ele>353.0</ele><time>2026-04-26T09:58:44.047Z</time></trkpt><trkpt lat="37.9189283" lon="15.14399"><ele>354.0</ele><time>2026-04-26T09:58:45.047Z</time></trkpt><trkpt lat="37.9190083" lon="15.1440683"><ele>355.0</ele><time>2026-04-26T09:58:46.047Z</time></trkpt><trkpt lat="37.9190883" lon="15.144165"><ele>356.0</ele><time>2026-04-26T09:58:47.047Z</time></trkpt><trkpt lat="37.9191517" lon="15.1442783"><ele>357.0</ele><time>2026-04-26T09:58:48.047Z</time></trkpt><trkpt lat="37.9192433" lon="15.1443967"><ele>358.0</ele><time>2026-04-26T09:58:49.047Z</time></trkpt><trkpt lat="37.9193367" lon="15.1445083"><ele>359.0</ele><time>2026-04-26T09:58:50.047Z</time></trkpt><trkpt lat="37.9194283" lon="15.1446367"><ele>359.0</ele><time>2026-04-26T09:58:51.047Z</time></trkpt><trkpt lat="37.9195233" lon="15.1447567"><ele>359.0</ele><time>2026-04-26T09:58:52.047Z</time></trkpt><trkpt lat="37.9196183" lon="15.1448633"><ele>359.0</ele><time>2026-04-26T09:58:53.047Z</time></trkpt><trkpt lat="37.9197267" lon="15.1449533"><ele>359.0</ele><time>2026-04-26T09:58:54.047Z</time></trkpt><trkpt lat="37.9198367" lon="15.14502"><ele>359.6</ele><time>2026-04-26T09:58:55.047Z</time></trkpt><trkpt lat="37.9199417" lon="15.1450683"><ele>360.2</ele><time>2026-04-26T09:58:56.047Z</time></trkpt><trkpt lat="37.9200367" lon="15.1451167"><ele>360.8</ele><time>2026-04-26T09:58:57.047Z</time></trkpt><trkpt lat="37.920135" lon="15.145175"><ele>361.40000000000003</ele><time>2026-04-26T09:58:58.047Z</time></trkpt><trkpt lat="37.9202467" lon="15.1452383"><ele>362.0</ele><time>2026-04-26T09:58:59.047Z</time></trkpt><trkpt lat="37.9203667" lon="15.1452867"><ele>362.0</ele><time>2026-04-26T09:59:00.047Z</time></trkpt><trkpt lat="37.9205133" lon="15.14531"><ele>362.0</ele><time>2026-04-26T09:59:01.047Z</time></trkpt><trkpt lat="37.9206433" lon="15.1453083"><ele>362.0</ele><time>2026-04-26T09:59:02.047Z</time></trkpt><trkpt lat="37.9207883" lon="15.1452983"><ele>362.0</ele><time>2026-04-26T09:59:03.047Z</time></trkpt><trkpt lat="37.9209433" lon="15.1452733"><ele>364.33333333333337</ele><time>2026-04-26T09:59:04.047Z</time></trkpt><trkpt lat="37.9210917" lon="15.1452517"><ele>366.6666666666667</ele><time>2026-04-26T09:59:05.047Z</time></trkpt><trkpt lat="37.92124" lon="15.1452417"><ele>369.0</ele><time>2026-04-26T09:59:06.047Z</time></trkpt><trkpt lat="37.9213917" lon="15.1452467"><ele>369.0</ele><time>2026-04-26T09:59:07.047Z</time></trkpt><trkpt lat="37.921535" lon="15.1452717"><ele>369.0</ele><time>2026-04-26T09:59:08.047Z</time></trkpt><trkpt lat="37.9216767" lon="15.1453083"><ele>369.0</ele><time>2026-04-26T09:59:09.047Z</time></trkpt><trkpt lat="37.9218" lon="15.14536"><ele>369.0</ele><time>2026-04-26T09:59:10.047Z</time></trkpt><trkpt lat="37.9219233" lon="15.1453933"><ele>370.25</ele><time>2026-04-26T09:59:11.047Z</time></trkpt><trkpt lat="37.9220467" lon="15.1454"><ele>371.5</ele><time>2026-04-26T09:59:12.047Z</time></trkpt><trkpt lat="37.9221833" lon="15.1453783"><ele>372.75</ele><time>2026-04-26T09:59:13.047Z</time></trkpt><trkpt lat="37.922315" lon="15.1453483"><ele>374.0</ele><time>2026-04-26T09:59:14.048Z</time></trkpt><trkpt lat="37.9224567" lon="15.145325"><ele>374.5</ele><time>2026-04-26T09:59:15.047Z</time></trkpt><trkpt lat="37.9226017" lon="15.145315"><ele>375.0</ele><time>2026-04-26T09:59:16.047Z</time></trkpt><trkpt lat="37.9227367" lon="15.1453167"><ele>375.5</ele><time>2026-04-26T09:59:17.047Z</time></trkpt><trkpt lat="37.9228767" lon="15.145325"><ele>376.0</ele><time>2026-04-26T09:59:18.047Z</time></trkpt><trkpt lat="37.9230217" lon="15.1453267"><ele>376.0</ele><time>2026-04-26T09:59:19.047Z</time></trkpt><trkpt lat="37.9231583" lon="15.1453283"><ele>376.0</ele><time>2026-04-26T09:59:20.047Z</time></trkpt><trkpt lat="37.9232917" lon="15.14533"><ele>376.0</ele><time>2026-04-26T09:59:21.047Z</time></trkpt><trkpt lat="37.9234183" lon="15.1453233"><ele>376.0</ele><time>2026-04-26T09:59:22.047Z</time></trkpt><trkpt lat="37.9235483" lon="15.1453217"><ele>376.6</ele><time>2026-04-26T09:59:23.047Z</time></trkpt><trkpt lat="37.92367" lon="15.1453167"><ele>377.20000000000005</ele><time>2026-04-26T09:59:24.047Z</time></trkpt><trkpt lat="37.9237817" lon="15.1453067"><ele>377.79999999999995</ele><time>2026-04-26T09:59:25.047Z</time></trkpt><trkpt lat="37.92388" lon="15.1453"><ele>378.4</ele><time>2026-04-26T09:59:26.047Z</time></trkpt><trkpt lat="37.9239683" lon="15.1452933"><ele>379.0</ele><time>2026-04-26T09:59:27.047Z</time></trkpt><trkpt lat="37.9240383" lon="15.1452983"><ele>379.0</ele><time>2026-04-26T09:59:28.047Z</time></trkpt><trkpt lat="37.924115" lon="15.1453067"><ele>379.0</ele><time>2026-04-26T09:59:29.047Z</time></trkpt><trkpt lat="37.924205" lon="15.145315"><ele>379.0</ele><time>2026-04-26T09:59:30.047Z</time></trkpt><trkpt lat="37.9243" lon="15.1453067"><ele>379.0</ele><time>2026-04-26T09:59:31.047Z</time></trkpt><trkpt lat="37.924395" lon="15.1452883"><ele>379.0</ele><time>2026-04-26T09:59:32.047Z</time></trkpt><trkpt lat="37.9244917" lon="15.1452767"><ele>379.79999999999995</ele><time>2026-04-26T09:59:33.047Z</time></trkpt><trkpt lat="37.9245717" lon="15.1452783"><ele>380.59999999999997</ele><time>2026-04-26T09:59:34.047Z</time></trkpt><trkpt lat="37.924655" lon="15.1452967"><ele>381.4</ele><time>2026-04-26T09:59:35.047Z</time></trkpt><trkpt lat="37.924735" lon="15.145335"><ele>382.2</ele><time>2026-04-26T09:59:36.047Z</time></trkpt><trkpt lat="37.9248233" lon="15.1453783"><ele>383.0</ele><time>2026-04-26T09:59:37.047Z</time></trkpt><trkpt lat="37.9249233" lon="15.1454217"><ele>383.0</ele><time>2026-04-26T09:59:38.047Z</time></trkpt><trkpt lat="37.9250267" lon="15.1454633"><ele>383.0</ele><time>2026-04-26T09:59:39.047Z</time></trkpt><trkpt lat="37.9251267" lon="15.1455117"><ele>383.0</ele><time>2026-04-26T09:59:40.047Z</time></trkpt><trkpt lat="37.925225" lon="15.1455733"><ele>383.0</ele><time>2026-04-26T09:59:41.047Z</time></trkpt><trkpt lat="37.9253133" lon="15.1456517"><ele>383.0</ele><time>2026-04-26T09:59:42.047Z</time></trkpt><trkpt lat="37.9254067" lon="15.1457233"><ele>384.83333333333337</ele><time>2026-04-26T09:59:43.047Z</time></trkpt><trkpt lat="37.9254983" lon="15.1457683"><ele>386.6666666666667</ele><time>2026-04-26T09:59:44.047Z</time></trkpt><trkpt lat="37.92558" lon="15.145795"><ele>388.5</ele><time>2026-04-26T09:59:45.047Z</time></trkpt><trkpt lat="37.9256467" lon="15.145815"><ele>390.33333333333337</ele><time>2026-04-26T09:59:46.047Z</time></trkpt><trkpt lat="37.9257117" lon="15.14582"><ele>392.1666666666667</ele><time>2026-04-26T09:59:47.047Z</time></trkpt><trkpt lat="37.9258333" lon="15.1458033"><ele>394.0</ele><time>2026-04-26T09:59:49.047Z</time></trkpt><trkpt lat="37.9258983" lon="15.145795"><ele>394.00000000000006</ele><time>2026-04-26T09:59:50.047Z</time></trkpt><trkpt lat="37.9259717" lon="15.145775"><ele>394.0</ele><time>2026-04-26T09:59:51.047Z</time></trkpt><trkpt lat="37.9260367" lon="15.1457533"><ele>394.0</ele><time>2026-04-26T09:59:52.047Z</time></trkpt><trkpt lat="37.9261567" lon="15.14577"><ele>394.0</ele><time>2026-04-26T09:59:54.047Z</time></trkpt><trkpt lat="37.92622" lon="15.1458033"><ele>394.00000000000006</ele><time>2026-04-26T09:59:55.047Z</time></trkpt><trkpt lat="37.9262833" lon="15.1458433"><ele>394.0</ele><time>2026-04-26T09:59:56.047Z</time></trkpt><trkpt lat="37.9263483" lon="15.145895"><ele>394.0</ele><time>2026-04-26T09:59:57.047Z</time></trkpt><trkpt lat="37.9264133" lon="15.1459583"><ele>394.0</ele><time>2026-04-26T09:59:58.047Z</time></trkpt><trkpt lat="37.9264867" lon="15.1460267"><ele>394.0</ele><time>2026-04-26T09:59:59.047Z</time></trkpt><trkpt lat="37.92656" lon="15.1460967"><ele>394.0</ele><time>2026-04-26T10:00:00.047Z</time></trkpt><trkpt lat="37.9266533" lon="15.1461483"><ele>394.0</ele><time>2026-04-26T10:00:01.048Z</time></trkpt><trkpt lat="37.9267533" lon="15.1461817"><ele>395.6</ele><time>2026-04-26T10:00:02.047Z</time></trkpt><trkpt lat="37.92686" lon="15.14621"><ele>397.2</ele><time>2026-04-26T10:00:03.047Z</time></trkpt><trkpt lat="37.926965" lon="15.1462367"><ele>398.8</ele><time>2026-04-26T10:00:04.047Z</time></trkpt><trkpt lat="37.9270717" lon="15.1462667"><ele>400.40000000000003</ele><time>2026-04-26T10:00:05.047Z</time></trkpt><trkpt lat="37.9271733" lon="15.1463083"><ele>402.0</ele><time>2026-04-26T10:00:06.047Z</time></trkpt><trkpt lat="37.9272617" lon="15.1463583"><ele>402.0</ele><time>2026-04-26T10:00:07.047Z</time></trkpt><trkpt lat="37.9273367" lon="15.1464067"><ele>402.0</ele><time>2026-04-26T10:00:08.047Z</time></trkpt><trkpt lat="37.9274083" lon="15.14645"><ele>402.0</ele><time>2026-04-26T10:00:09.048Z</time></trkpt><trkpt lat="37.9274633" lon="15.1464967"><ele>402.0</ele><time>2026-04-26T10:00:10.047Z</time></trkpt><trkpt lat="37.9275167" lon="15.1465583"><ele>402.0</ele><time>2026-04-26T10:00:11.047Z</time></trkpt><trkpt lat="37.9275583" lon="15.1466367"><ele>402.0</ele><time>2026-04-26T10:00:12.048Z</time></trkpt><trkpt lat="37.9275967" lon="15.1467083"><ele>402.0</ele><time>2026-04-26T10:00:13.047Z</time></trkpt><trkpt lat="37.9276433" lon="15.1467683"><ele>403.6</ele><time>2026-04-26T10:00:14.047Z</time></trkpt><trkpt lat="37.927735" lon="15.1468367"><ele>405.20000000000005</ele><time>2026-04-26T10:00:16.047Z</time></trkpt><trkpt lat="37.9277983" lon="15.1468633"><ele>406.8</ele><time>2026-04-26T10:00:18.047Z</time></trkpt><trkpt lat="37.9278683" lon="15.1468733"><ele>408.4</ele><time>2026-04-26T10:00:20.047Z</time></trkpt><trkpt lat="37.92799" lon="15.146865"><ele>410.0</ele><time>2026-04-26T10:00:22.047Z</time></trkpt><trkpt lat="37.9280733" lon="15.14685"><ele>410.0</ele><time>2026-04-26T10:00:23.047Z</time></trkpt><trkpt lat="37.9281717" lon="15.146835"><ele>410.0</ele><time>2026-04-26T10:00:24.047Z</time></trkpt><trkpt lat="37.92828" lon="15.1468267"><ele>410.0</ele><time>2026-04-26T10:00:25.047Z</time></trkpt><trkpt lat="37.9284" lon="15.146825"><ele>410.0</ele><time>2026-04-26T10:00:26.047Z</time></trkpt><trkpt lat="37.9285233" lon="15.1468333"><ele>410.75</ele><time>2026-04-26T10:00:27.047Z</time></trkpt><trkpt lat="37.928635" lon="15.1468467"><ele>411.5</ele><time>2026-04-26T10:00:28.047Z</time></trkpt><trkpt lat="37.9287433" lon="15.1468783"><ele>412.25</ele><time>2026-04-26T10:00:29.047Z</time></trkpt><trkpt lat="37.9288617" lon="15.146905"><ele>413.0</ele><time>2026-04-26T10:00:30.047Z</time></trkpt><trkpt lat="37.9289767" lon="15.1469117"><ele>413.0</ele><time>2026-04-26T10:00:31.047Z</time></trkpt><trkpt lat="37.92909" lon="15.1469083"><ele>413.0</ele><time>2026-04-26T10:00:32.047Z</time></trkpt><trkpt lat="37.9292" lon="15.1469017"><ele>413.0</ele><time>2026-04-26T10:00:33.048Z</time></trkpt><trkpt lat="37.9293033" lon="15.1469017"><ele>413.0</ele><time>2026-04-26T10:00:34.047Z</time></trkpt><trkpt lat="37.9294033" lon="15.14691"><ele>413.0</ele><time>2026-04-26T10:00:35.047Z</time></trkpt><trkpt lat="37.929515" lon="15.1469283"><ele>415.5</ele><time>2026-04-26T10:00:36.047Z</time></trkpt><trkpt lat="37.9296467" lon="15.146955"><ele>418.0</ele><time>2026-04-26T10:00:37.047Z</time></trkpt><trkpt lat="37.9297867" lon="15.1469883"><ele>420.5</ele><time>2026-04-26T10:00:38.047Z</time></trkpt><trkpt lat="37.929925" lon="15.1470233"><ele>423.0</ele><time>2026-04-26T10:00:39.047Z</time></trkpt><trkpt lat="37.9300533" lon="15.1470383"><ele>424.0</ele><time>2026-04-26T10:00:40.047Z</time></trkpt><trkpt lat="37.9301717" lon="15.1470433"><ele>425.0</ele><time>2026-04-26T10:00:41.047Z</time></trkpt><trkpt lat="37.930285" lon="15.1470517"><ele>426.0</ele><time>2026-04-26T10:00:42.047Z</time></trkpt><trkpt lat="37.9304033" lon="15.14705"><ele>427.0</ele><time>2026-04-26T10:00:43.047Z</time></trkpt><trkpt lat="37.9305267" lon="15.1470283"><ele>427.0</ele><time>2026-04-26T10:00:44.047Z</time></trkpt><trkpt lat="37.9306633" lon="15.1470017"><ele>427.0</ele><time>2026-04-26T10:00:45.047Z</time></trkpt><trkpt lat="37.9307933" lon="15.14697"><ele>427.0</ele><time>2026-04-26T10:00:46.047Z</time></trkpt><trkpt lat="37.9309217" lon="15.146945"><ele>427.0</ele><time>2026-04-26T10:00:47.047Z</time></trkpt><trkpt lat="37.93105" lon="15.1469183"><ele>429.5</ele><time>2026-04-26T10:00:48.048Z</time></trkpt><trkpt lat="37.9311817" lon="15.1468917"><ele>432.0</ele><time>2026-04-26T10:00:49.047Z</time></trkpt><trkpt lat="37.9313183" lon="15.1468517"><ele>434.5</ele><time>2026-04-26T10:00:50.048Z</time></trkpt><trkpt lat="37.93145" lon="15.146815"><ele>437.0</ele><time>2026-04-26T10:00:51.047Z</time></trkpt><trkpt lat="37.931575" lon="15.1467883"><ele>437.0</ele><time>2026-04-26T10:00:52.047Z</time></trkpt><trkpt lat="37.9316933" lon="15.146765"><ele>437.0</ele><time>2026-04-26T10:00:53.047Z</time></trkpt><trkpt lat="37.9318083" lon="15.1467367"><ele>437.0</ele><time>2026-04-26T10:00:54.047Z</time></trkpt><trkpt lat="37.9319183" lon="15.14671"><ele>437.0</ele><time>2026-04-26T10:00:55.047Z</time></trkpt><trkpt lat="37.93203" lon="15.1466867"><ele>437.75</ele><time>2026-04-26T10:00:56.047Z</time></trkpt><trkpt lat="37.9321483" lon="15.1466617"><ele>438.5</ele><time>2026-04-26T10:00:57.048Z</time></trkpt><trkpt lat="37.9322783" lon="15.1466417"><ele>439.25</ele><time>2026-04-26T10:00:58.048Z</time></trkpt><trkpt lat="37.9324217" lon="15.1466167"><ele>440.0</ele><time>2026-04-26T10:00:59.047Z</time></trkpt><trkpt lat="37.9325667" lon="15.1466"><ele>442.5</ele><time>2026-04-26T10:01:00.047Z</time></trkpt><trkpt lat="37.932715" lon="15.146575"><ele>445.0</ele><time>2026-04-26T10:01:01.047Z</time></trkpt><trkpt lat="37.9328567" lon="15.14655"><ele>447.5</ele><time>2026-04-26T10:01:02.047Z</time></trkpt><trkpt lat="37.9329933" lon="15.1465283"><ele>450.0</ele><time>2026-04-26T10:01:03.047Z</time></trkpt><trkpt lat="37.9331367" lon="15.1465033"><ele>450.0</ele><time>2026-04-26T10:01:04.047Z</time></trkpt><trkpt lat="37.9332767" lon="15.1464883"><ele>450.0</ele><time>2026-04-26T10:01:05.047Z</time></trkpt><trkpt lat="37.9334233" lon="15.146475"><ele>450.0</ele><time>2026-04-26T10:01:06.047Z</time></trkpt><trkpt lat="37.9335617" lon="15.1464583"><ele>450.0</ele><time>2026-04-26T10:01:07.047Z</time></trkpt><trkpt lat="37.9336967" lon="15.146435"><ele>451.25</ele><time>2026-04-26T10:01:08.047Z</time></trkpt><trkpt lat="37.9338233" lon="15.146415"><ele>452.5</ele><time>2026-04-26T10:01:09.047Z</time></trkpt><trkpt lat="37.9339633" lon="15.146385"><ele>453.75</ele><time>2026-04-26T10:01:10.047Z</time></trkpt><trkpt lat="37.9341083" lon="15.14636"><ele>455.0</ele><time>2026-04-26T10:01:11.047Z</time></trkpt><trkpt lat="37.9342417" lon="15.1463383"><ele>456.0</ele><time>2026-04-26T10:01:12.047Z</time></trkpt><trkpt lat="37.934355" lon="15.1463233"><ele>457.0</ele><time>2026-04-26T10:01:13.047Z</time></trkpt><trkpt lat="37.93446" lon="15.146315"><ele>458.0</ele><time>2026-04-26T10:01:14.047Z</time></trkpt><trkpt lat="37.9345633" lon="15.1462917"><ele>459.0</ele><time>2026-04-26T10:01:15.047Z</time></trkpt><trkpt lat="37.9346817" lon="15.1462433"><ele>460.0</ele><time>2026-04-26T10:01:16.047Z</time></trkpt><trkpt lat="37.9347933" lon="15.1461833"><ele>460.0</ele><time>2026-04-26T10:01:17.047Z</time></trkpt><trkpt lat="37.9349067" lon="15.1461217"><ele>460.0</ele><time>2026-04-26T10:01:18.047Z</time></trkpt><trkpt lat="37.9350233" lon="15.1460617"><ele>460.0</ele><time>2026-04-26T10:01:19.047Z</time></trkpt><trkpt lat="37.935135" lon="15.1459967"><ele>460.0</ele><time>2026-04-26T10:01:20.047Z</time></trkpt><trkpt lat="37.9352567" lon="15.1459317"><ele>460.8</ele><time>2026-04-26T10:01:21.047Z</time></trkpt><trkpt lat="37.935365" lon="15.1458667"><ele>461.6</ele><time>2026-04-26T10:01:22.047Z</time></trkpt><trkpt lat="37.93546" lon="15.1458007"><ele>462.4</ele><time>2026-04-26T10:01:23.047Z</time></trkpt><trkpt lat="37.9355435" lon="15.1457223"><ele>463.2</ele><time>2026-04-26T10:01:24.047Z</time></trkpt><trkpt lat="37.9356171" lon="15.1456314"><ele>464.0</ele><time>2026-04-26T10:01:25.047Z</time></trkpt><trkpt lat="37.9356901" lon="15.145533"><ele>465.0</ele><time>2026-04-26T10:01:26.047Z</time></trkpt><trkpt lat="37.9357661" lon="15.14544"><ele>466.0</ele><time>2026-04-26T10:01:27.047Z</time></trkpt><trkpt lat="37.9358466" lon="15.1453526"><ele>467.0</ele><time>2026-04-26T10:01:28.047Z</time></trkpt><trkpt lat="37.9359295" lon="15.1452744"><ele>468.0</ele><time>2026-04-26T10:01:29.047Z</time></trkpt><trkpt lat="37.936017" lon="15.145193"><ele>469.0</ele><time>2026-04-26T10:01:30.047Z</time></trkpt><trkpt lat="37.9361106" lon="15.1451062"><ele>470.25</ele><time>2026-04-26T10:01:31.048Z</time></trkpt><trkpt lat="37.9362105" lon="15.145014"><ele>471.5</ele><time>2026-04-26T10:01:32.047Z</time></trkpt><trkpt lat="37.936316" lon="15.1449138"><ele>472.75</ele><time>2026-04-26T10:01:33.047Z</time></trkpt><trkpt lat="37.9364114" lon="15.1448223"><ele>474.0</ele><time>2026-04-26T10:01:34.047Z</time></trkpt><trkpt lat="37.9365179" lon="15.1447286"><ele>476.0</ele><time>2026-04-26T10:01:35.047Z</time></trkpt><trkpt lat="37.9366354" lon="15.1446335"><ele>478.0</ele><time>2026-04-26T10:01:36.047Z</time></trkpt><trkpt lat="37.936755" lon="15.1445447"><ele>480.0</ele><time>2026-04-26T10:01:37.047Z</time></trkpt><trkpt lat="37.9368804" lon="15.1444637"><ele>482.0</ele><time>2026-04-26T10:01:38.047Z</time></trkpt><trkpt lat="37.9370091" lon="15.1443962"><ele>482.0</ele><time>2026-04-26T10:01:39.047Z</time></trkpt><trkpt lat="37.9371442" lon="15.1443333"><ele>482.0</ele><time>2026-04-26T10:01:40.047Z</time></trkpt><trkpt lat="37.9372698" lon="15.1442825"><ele>482.0</ele><time>2026-04-26T10:01:41.047Z</time></trkpt><trkpt lat="37.9373904" lon="15.1442359"><ele>482.0</ele><time>2026-04-26T10:01:42.047Z</time></trkpt><trkpt lat="37.9375114" lon="15.1441964"><ele>483.6</ele><time>2026-04-26T10:01:43.047Z</time></trkpt><trkpt lat="37.9376284" lon="15.1441646"><ele>485.20000000000005</ele><time>2026-04-26T10:01:44.047Z</time></trkpt><trkpt lat="37.9377363" lon="15.1441396"><ele>486.8</ele><time>2026-04-26T10:01:45.047Z</time></trkpt><trkpt lat="37.9378314" lon="15.1441069"><ele>488.4</ele><time>2026-04-26T10:01:46.047Z</time></trkpt><trkpt lat="37.9379198" lon="15.1440724"><ele>490.0</ele><time>2026-04-26T10:01:47.047Z</time></trkpt><trkpt lat="37.9379936" lon="15.1440465"><ele>490.0</ele><time>2026-04-26T10:01:48.047Z</time></trkpt><trkpt lat="37.9380565" lon="15.1440235"><ele>490.0</ele><time>2026-04-26T10:01:49.047Z</time></trkpt><trkpt lat="37.9381537" lon="15.1439977"><ele>490.0</ele><time>2026-04-26T10:01:51.047Z</time></trkpt><trkpt lat="37.938225" lon="15.1439678"><ele>490.0</ele><time>2026-04-26T10:01:54.047Z</time></trkpt><trkpt lat="37.9382925" lon="15.1439362"><ele>490.0</ele><time>2026-04-26T10:02:26.046Z</time></trkpt><trkpt lat="37.9383495" lon="15.1438979"><ele>490.0</ele><time>2026-04-26T10:02:28.046Z</time></trkpt><trkpt lat="37.9384083" lon="15.143855"><ele>490.0</ele><time>2026-04-26T10:03:04.046Z</time></trkpt><trkpt lat="37.9384633" lon="15.1438017"><ele>491.00000000000006</ele><time>2026-04-26T10:03:05.046Z</time></trkpt><trkpt lat="37.938525" lon="15.1437483"><ele>492.0</ele><time>2026-04-26T10:03:06.046Z</time></trkpt><trkpt lat="37.93859" lon="15.14369"><ele>493.0</ele><time>2026-04-26T10:03:07.046Z</time></trkpt><trkpt lat="37.9386467" lon="15.14363"><ele>494.0</ele><time>2026-04-26T10:03:08.046Z</time></trkpt><trkpt lat="37.9387117" lon="15.14357"><ele>495.00000000000006</ele><time>2026-04-26T10:03:09.046Z</time></trkpt><trkpt lat="37.93878" lon="15.143515"><ele>496.0</ele><time>2026-04-26T10:03:10.046Z</time></trkpt><trkpt lat="37.938855" lon="15.1434667"><ele>496.00000000000006</ele><time>2026-04-26T10:03:11.046Z</time></trkpt><trkpt lat="37.93893" lon="15.14342"><ele>496.0</ele><time>2026-04-26T10:03:12.046Z</time></trkpt><trkpt lat="37.93901" lon="15.1433767"><ele>496.0</ele><time>2026-04-26T10:03:13.046Z</time></trkpt><trkpt lat="37.9390833" lon="15.14333"><ele>496.0</ele><time>2026-04-26T10:03:14.046Z</time></trkpt><trkpt lat="37.9391433" lon="15.1433017"><ele>496.00000000000006</ele><time>2026-04-26T10:03:15.046Z</time></trkpt><trkpt lat="37.9392567" lon="15.1432683"><ele>496.0</ele><time>2026-04-26T10:03:17.046Z</time></trkpt><trkpt lat="37.9393183" lon="15.14324"><ele>497.50000000000006</ele><time>2026-04-26T10:03:18.046Z</time></trkpt><trkpt lat="37.939385" lon="15.1432017"><ele>499.0</ele><time>2026-04-26T10:03:19.046Z</time></trkpt><trkpt lat="37.939445" lon="15.1431483"><ele>500.5</ele><time>2026-04-26T10:03:20.046Z</time></trkpt><trkpt lat="37.9394933" lon="15.1430817"><ele>502.0</ele><time>2026-04-26T10:03:21.046Z</time></trkpt><trkpt lat="37.9395383" lon="15.142995"><ele>503.50000000000006</ele><time>2026-04-26T10:03:22.046Z</time></trkpt><trkpt lat="37.939585" lon="15.1429017"><ele>505.0</ele><time>2026-04-26T10:03:23.046Z</time></trkpt><trkpt lat="37.9396283" lon="15.1428233"><ele>505.0</ele><time>2026-04-26T10:03:24.046Z</time></trkpt><trkpt lat="37.9397133" lon="15.1427383"><ele>505.0</ele><time>2026-04-26T10:03:26.047Z</time></trkpt><trkpt lat="37.9398183" lon="15.1426833"><ele>505.0</ele><time>2026-04-26T10:03:28.046Z</time></trkpt><trkpt lat="37.9399067" lon="15.1425983"><ele>505.0</ele><time>2026-04-26T10:03:30.047Z</time></trkpt><trkpt lat="37.93996" lon="15.1425417"><ele>505.0</ele><time>2026-04-26T10:03:31.046Z</time></trkpt><trkpt lat="37.9400133" lon="15.1424833"><ele>505.6666666666667</ele><time>2026-04-26T10:03:32.046Z</time></trkpt><trkpt lat="37.9401117" lon="15.1424067"><ele>506.33333333333337</ele><time>2026-04-26T10:03:34.047Z</time></trkpt><trkpt lat="37.9402133" lon="15.1423467"><ele>507.0</ele><time>2026-04-26T10:03:36.046Z</time></trkpt><trkpt lat="37.9402717" lon="15.14231"><ele>507.66666666666663</ele><time>2026-04-26T10:03:37.046Z</time></trkpt><trkpt lat="37.9403317" lon="15.1422733"><ele>508.3333333333333</ele><time>2026-04-26T10:03:38.046Z</time></trkpt><trkpt lat="37.9403967" lon="15.1422417"><ele>509.0</ele><time>2026-04-26T10:03:39.046Z</time></trkpt><trkpt lat="37.94046" lon="15.14222"><ele>511.49999999999994</ele><time>2026-04-26T10:03:40.046Z</time></trkpt><trkpt lat="37.9405367" lon="15.1422017"><ele>514.0</ele><time>2026-04-26T10:03:41.046Z</time></trkpt><trkpt lat="37.9406117" lon="15.1421783"><ele>516.5</ele><time>2026-04-26T10:03:42.046Z</time></trkpt><trkpt lat="37.9406817" lon="15.1421483"><ele>519.0</ele><time>2026-04-26T10:03:43.047Z</time></trkpt><trkpt lat="37.9407483" lon="15.14212"><ele>521.5</ele><time>2026-04-26T10:03:44.046Z</time></trkpt><trkpt lat="37.94084" lon="15.1420767"><ele>524.0</ele><time>2026-04-26T10:03:46.046Z</time></trkpt><trkpt lat="37.9409133" lon="15.1421017"><ele>524.6</ele><time>2026-04-26T10:03:48.046Z</time></trkpt><trkpt lat="37.9410033" lon="15.14217"><ele>525.2</ele><time>2026-04-26T10:03:50.046Z</time></trkpt><trkpt lat="37.9411167" lon="15.142185"><ele>525.8000000000001</ele><time>2026-04-26T10:03:52.046Z</time></trkpt><trkpt lat="37.94119" lon="15.1421567"><ele>526.4</ele><time>2026-04-26T10:03:53.047Z</time></trkpt><trkpt lat="37.941275" lon="15.1421183"><ele>527.0</ele><time>2026-04-26T10:03:54.046Z</time></trkpt><trkpt lat="37.9413517" lon="15.1420817"><ele>527.0</ele><time>2026-04-26T10:03:55.046Z</time></trkpt><trkpt lat="37.9414267" lon="15.1420567"><ele>527.0</ele><time>2026-04-26T10:03:56.046Z</time></trkpt><trkpt lat="37.9415383" lon="15.142035"><ele>527.0</ele><time>2026-04-26T10:03:58.046Z</time></trkpt><trkpt lat="37.9416183" lon="15.14203"><ele>527.0</ele><time>2026-04-26T10:04:00.046Z</time></trkpt><trkpt lat="37.9416917" lon="15.1420167"><ele>527.0</ele><time>2026-04-26T10:04:02.046Z</time></trkpt><trkpt lat="37.9417917" lon="15.1420133"><ele>527.0</ele><time>2026-04-26T10:04:04.046Z</time></trkpt><trkpt lat="37.941885" lon="15.1420333"><ele>526.8000000000001</ele><time>2026-04-26T10:04:06.046Z</time></trkpt><trkpt lat="37.941965" lon="15.142045"><ele>526.6</ele><time>2026-04-26T10:05:02.047Z</time></trkpt><trkpt lat="37.9420733" lon="15.142035"><ele>526.4000000000001</ele><time>2026-04-26T10:05:04.046Z</time></trkpt><trkpt lat="37.9422033" lon="15.142"><ele>526.2</ele><time>2026-04-26T10:05:06.046Z</time></trkpt><trkpt lat="37.9422733" lon="15.1419767"><ele>526.0</ele><time>2026-04-26T10:05:07.046Z</time></trkpt><trkpt lat="37.9423617" lon="15.1419433"><ele>526.0</ele><time>2026-04-26T10:05:08.046Z</time></trkpt><trkpt lat="37.942455" lon="15.1419117"><ele>526.0</ele><time>2026-04-26T10:05:09.046Z</time></trkpt><trkpt lat="37.94255" lon="15.141885"><ele>526.0</ele><time>2026-04-26T10:05:10.047Z</time></trkpt><trkpt lat="37.9426483" lon="15.141865"><ele>526.0</ele><time>2026-04-26T10:05:11.046Z</time></trkpt><trkpt lat="37.942745" lon="15.1418417"><ele>526.0</ele><time>2026-04-26T10:05:12.046Z</time></trkpt><trkpt lat="37.9428383" lon="15.1418383"><ele>527.0</ele><time>2026-04-26T10:05:13.046Z</time></trkpt><trkpt lat="37.9429283" lon="15.1418417"><ele>528.0</ele><time>2026-04-26T10:05:14.046Z</time></trkpt><trkpt lat="37.94302" lon="15.141835"><ele>529.0</ele><time>2026-04-26T10:05:15.046Z</time></trkpt><trkpt lat="37.943105" lon="15.14182"><ele>530.0</ele><time>2026-04-26T10:05:16.047Z</time></trkpt><trkpt lat="37.94321" lon="15.1417283"><ele>531.0</ele><time>2026-04-26T10:05:18.046Z</time></trkpt><trkpt lat="37.943265" lon="15.14165"><ele>531.0</ele><time>2026-04-26T10:05:19.046Z</time></trkpt><trkpt lat="37.9433367" lon="15.1415633"><ele>531.0</ele><time>2026-04-26T10:05:20.047Z</time></trkpt><trkpt lat="37.9434183" lon="15.1414883"><ele>531.0</ele><time>2026-04-26T10:05:21.046Z</time></trkpt><trkpt lat="37.94351" lon="15.1414233"><ele>531.0</ele><time>2026-04-26T10:05:22.046Z</time></trkpt><trkpt lat="37.943605" lon="15.14136"><ele>531.0</ele><time>2026-04-26T10:05:23.047Z</time></trkpt><trkpt lat="37.9436933" lon="15.141305"><ele>533.5</ele><time>2026-04-26T10:05:24.046Z</time></trkpt><trkpt lat="37.9437783" lon="15.1412517"><ele>536.0</ele><time>2026-04-26T10:05:25.046Z</time></trkpt><trkpt lat="37.9438567" lon="15.1411967"><ele>538.5</ele><time>2026-04-26T10:05:26.047Z</time></trkpt><trkpt lat="37.9439233" lon="15.14116"><ele>541.0</ele><time>2026-04-26T10:05:27.046Z</time></trkpt><trkpt lat="37.9439867" lon="15.1411267"><ele>543.5</ele><time>2026-04-26T10:05:28.046Z</time></trkpt><trkpt lat="37.9440467" lon="15.1410983"><ele>546.0</ele><time>2026-04-26T10:05:29.046Z</time></trkpt><trkpt lat="37.9441433" lon="15.1410467"><ele>546.0</ele><time>2026-04-26T10:05:31.046Z</time></trkpt><trkpt lat="37.944235" lon="15.1409667"><ele>546.0</ele><time>2026-04-26T10:05:33.046Z</time></trkpt><trkpt lat="37.9443383" lon="15.140885"><ele>546.0</ele><time>2026-04-26T10:05:35.046Z</time></trkpt><trkpt lat="37.9444317" lon="15.140815"><ele>546.0</ele><time>2026-04-26T10:05:37.046Z</time></trkpt><trkpt lat="37.94449" lon="15.140755"><ele>546.0</ele><time>2026-04-26T10:05:39.046Z</time></trkpt><trkpt lat="37.944545" lon="15.1407067"><ele>547.6666666666666</ele><time>2026-04-26T10:05:41.046Z</time></trkpt><trkpt lat="37.9446183" lon="15.140655"><ele>549.3333333333334</ele><time>2026-04-26T10:05:43.046Z</time></trkpt><trkpt lat="37.9446783" lon="15.14062"><ele>551.0</ele><time>2026-04-26T10:05:44.046Z</time></trkpt><trkpt lat="37.94474" lon="15.1405867"><ele>552.6666666666667</ele><time>2026-04-26T10:05:45.047Z</time></trkpt><trkpt lat="37.944815" lon="15.140545"><ele>554.3333333333334</ele><time>2026-04-26T10:05:46.046Z</time></trkpt><trkpt lat="37.9448917" lon="15.140505"><ele>556.0</ele><time>2026-04-26T10:05:47.046Z</time></trkpt><trkpt lat="37.9449667" lon="15.1404767"><ele>556.0</ele><time>2026-04-26T10:05:48.046Z</time></trkpt><trkpt lat="37.9450283" lon="15.1404533"><ele>556.0</ele><time>2026-04-26T10:05:49.046Z</time></trkpt><trkpt lat="37.94513" lon="15.1404233"><ele>556.0</ele><time>2026-04-26T10:05:51.046Z</time></trkpt><trkpt lat="37.9452183" lon="15.1403733"><ele>556.0</ele><time>2026-04-26T10:05:53.047Z</time></trkpt><trkpt lat="37.9452767" lon="15.140305"><ele>556.0</ele><time>2026-04-26T10:05:55.046Z</time></trkpt><trkpt lat="37.94531" lon="15.1402317"><ele>556.0</ele><time>2026-04-26T10:05:57.046Z</time></trkpt><trkpt lat="37.945345" lon="15.1401567"><ele>556.3333333333334</ele><time>2026-04-26T10:06:00.046Z</time></trkpt><trkpt lat="37.9453933" lon="15.140075"><ele>556.6666666666667</ele><time>2026-04-26T10:06:04.046Z</time></trkpt><trkpt lat="37.945435" lon="15.140015"><ele>557.0</ele><time>2026-04-26T10:06:06.046Z</time></trkpt><trkpt lat="37.945485" lon="15.1399417"><ele>557.3333333333334</ele><time>2026-04-26T10:06:08.046Z</time></trkpt><trkpt lat="37.94553" lon="15.1398683"><ele>557.6666666666666</ele><time>2026-04-26T10:06:10.046Z</time></trkpt><trkpt lat="37.9455767" lon="15.13981"><ele>558.0</ele><time>2026-04-26T10:06:12.046Z</time></trkpt><trkpt lat="37.9456533" lon="15.13973"><ele>559.0</ele><time>2026-04-26T10:06:14.046Z</time></trkpt><trkpt lat="37.945725" lon="15.139635"><ele>560.0</ele><time>2026-04-26T10:06:16.046Z</time></trkpt><trkpt lat="37.945795" lon="15.13954"><ele>561.0</ele><time>2026-04-26T10:06:18.046Z</time></trkpt><trkpt lat="37.9458783" lon="15.13944"><ele>562.0</ele><time>2026-04-26T10:06:20.046Z</time></trkpt><trkpt lat="37.9459333" lon="15.1393767"><ele>563.0</ele><time>2026-04-26T10:06:21.046Z</time></trkpt><trkpt lat="37.9459833" lon="15.13932"><ele>563.6666666666666</ele><time>2026-04-26T10:06:22.046Z</time></trkpt><trkpt lat="37.9460483" lon="15.1392017"><ele>564.3333333333333</ele><time>2026-04-26T10:06:24.046Z</time></trkpt><trkpt lat="37.9460933" lon="15.1391183"><ele>565.0</ele><time>2026-04-26T10:06:26.046Z</time></trkpt><trkpt lat="37.9461767" lon="15.13911"><ele>565.6666666666666</ele><time>2026-04-26T10:06:29.046Z</time></trkpt><trkpt lat="37.9462583" lon="15.1390883"><ele>566.3333333333334</ele><time>2026-04-26T10:06:32.046Z</time></trkpt><trkpt lat="37.94632" lon="15.1390467"><ele>567.0</ele><time>2026-04-26T10:06:34.046Z</time></trkpt><trkpt lat="37.9464033" lon="15.1390567"><ele>567.0</ele><time>2026-04-26T10:06:36.046Z</time></trkpt><trkpt lat="37.9464983" lon="15.13908"><ele>567.0</ele><time>2026-04-26T10:06:38.046Z</time></trkpt><trkpt lat="37.9465867" lon="15.1390867"><ele>567.0</ele><time>2026-04-26T10:06:40.045Z</time></trkpt><trkpt lat="37.9466817" lon="15.139065"><ele>567.0</ele><time>2026-04-26T10:06:42.045Z</time></trkpt><trkpt lat="37.94676" lon="15.13906"><ele>567.0</ele><time>2026-04-26T10:06:44.045Z</time></trkpt><trkpt lat="37.9466812" lon="15.1390754"><ele>567.0</ele><time>2026-04-26T10:15:15.052Z</time></trkpt><trkpt lat="37.946617" lon="15.1390525"><ele>567.0</ele><time>2026-04-26T10:15:21.052Z</time></trkpt><trkpt lat="37.9466807" lon="15.1390619"><ele>567.0</ele><time>2026-04-26T10:16:33.052Z</time></trkpt><trkpt lat="37.946743" lon="15.1390768"><ele>567.0</ele><time>2026-04-26T10:16:44.052Z</time></trkpt><trkpt lat="37.9468077" lon="15.1390379"><ele>567.0</ele><time>2026-04-26T10:17:42.052Z</time></trkpt><trkpt lat="37.9468783" lon="15.1389833"><ele>567.0</ele><time>2026-04-26T10:17:44.052Z</time></trkpt><trkpt lat="37.9469633" lon="15.138915"><ele>567.0</ele><time>2026-04-26T10:17:46.052Z</time></trkpt><trkpt lat="37.9470817" lon="15.138865"><ele>568.3333333333334</ele><time>2026-04-26T10:17:48.052Z</time></trkpt><trkpt lat="37.9471533" lon="15.1388383"><ele>569.6666666666666</ele><time>2026-04-26T10:17:49.052Z</time></trkpt><trkpt lat="37.94723" lon="15.1388117"><ele>571.0</ele><time>2026-04-26T10:17:50.052Z</time></trkpt><trkpt lat="37.9473117" lon="15.1387883"><ele>572.3333333333333</ele><time>2026-04-26T10:17:51.052Z</time></trkpt><trkpt lat="37.9473983" lon="15.1387733"><ele>573.6666666666666</ele><time>2026-04-26T10:17:52.053Z</time></trkpt><trkpt lat="37.94749" lon="15.1387617"><ele>575.0</ele><time>2026-04-26T10:17:53.052Z</time></trkpt><trkpt lat="37.9475783" lon="15.13876"><ele>577.2</ele><time>2026-04-26T10:17:54.052Z</time></trkpt><trkpt lat="37.9476617" lon="15.1387533"><ele>579.4</ele><time>2026-04-26T10:17:55.052Z</time></trkpt><trkpt lat="37.947745" lon="15.1387483"><ele>581.6</ele><time>2026-04-26T10:17:56.053Z</time></trkpt><trkpt lat="37.9478167" lon="15.138745"><ele>583.8</ele><time>2026-04-26T10:17:57.052Z</time></trkpt><trkpt lat="37.94793" lon="15.1387533"><ele>586.0</ele><time>2026-04-26T10:17:59.052Z</time></trkpt><trkpt lat="37.948055" lon="15.1387317"><ele>585.9999999999999</ele><time>2026-04-26T10:18:01.053Z</time></trkpt><trkpt lat="37.9481233" lon="15.138705"><ele>586.0</ele><time>2026-04-26T10:18:02.052Z</time></trkpt><trkpt lat="37.9481933" lon="15.1386767"><ele>586.0</ele><time>2026-04-26T10:18:03.052Z</time></trkpt><trkpt lat="37.948265" lon="15.1386417"><ele>586.0</ele><time>2026-04-26T10:18:04.052Z</time></trkpt><trkpt lat="37.9483333" lon="15.138605"><ele>586.0</ele><time>2026-04-26T10:18:05.052Z</time></trkpt><trkpt lat="37.9484017" lon="15.1385667"><ele>585.9999999999999</ele><time>2026-04-26T10:18:06.052Z</time></trkpt><trkpt lat="37.9484667" lon="15.1385233"><ele>586.0</ele><time>2026-04-26T10:18:07.052Z</time></trkpt><trkpt lat="37.948575" lon="15.138455"><ele>587.5</ele><time>2026-04-26T10:18:09.052Z</time></trkpt><trkpt lat="37.9486383" lon="15.1383783"><ele>589.0</ele><time>2026-04-26T10:18:11.053Z</time></trkpt><trkpt lat="37.9487183" lon="15.1383317"><ele>590.5</ele><time>2026-04-26T10:18:14.052Z</time></trkpt><trkpt lat="37.948775" lon="15.1383967"><ele>592.0</ele><time>2026-04-26T10:18:26.051Z</time></trkpt><trkpt lat="37.9488317" lon="15.1384667"><ele>593.5</ele><time>2026-04-26T10:18:28.051Z</time></trkpt><trkpt lat="37.9488917" lon="15.1385017"><ele>595.0</ele><time>2026-04-26T10:18:30.051Z</time></trkpt><trkpt lat="37.9489617" lon="15.1385267"><ele>595.0</ele><time>2026-04-26T10:18:32.051Z</time></trkpt><trkpt lat="37.9490433" lon="15.1385633"><ele>595.0</ele><time>2026-04-26T10:18:35.051Z</time></trkpt><trkpt lat="37.9491117" lon="15.1386033"><ele>595.0</ele><time>2026-04-26T10:18:38.052Z</time></trkpt><trkpt lat="37.94918" lon="15.1385633"><ele>595.0</ele><time>2026-04-26T10:18:42.051Z</time></trkpt><trkpt lat="37.94923" lon="15.1384983"><ele>595.0</ele><time>2026-04-26T10:18:45.051Z</time></trkpt><trkpt lat="37.9492783" lon="15.138425"><ele>595.0</ele><time>2026-04-26T10:18:47.051Z</time></trkpt><trkpt lat="37.94932" lon="15.1383467"><ele>595.3333333333334</ele><time>2026-04-26T10:18:49.051Z</time></trkpt><trkpt lat="37.949375" lon="15.1382683"><ele>595.6666666666667</ele><time>2026-04-26T10:18:51.051Z</time></trkpt><trkpt lat="37.9494507" lon="15.1381907"><ele>596.0</ele><time>2026-04-26T10:18:53.051Z</time></trkpt><trkpt lat="37.9495278" lon="15.138136"><ele>596.3333333333334</ele><time>2026-04-26T10:18:55.051Z</time></trkpt><trkpt lat="37.9496103" lon="15.1380931"><ele>596.6666666666666</ele><time>2026-04-26T10:18:57.052Z</time></trkpt><trkpt lat="37.9496805" lon="15.138099"><ele>597.0</ele><time>2026-04-26T10:19:07.051Z</time></trkpt><trkpt lat="37.9497535" lon="15.1381315"><ele>597.0</ele><time>2026-04-26T10:19:09.051Z</time></trkpt><trkpt lat="37.9498638" lon="15.1381612"><ele>597.0</ele><time>2026-04-26T10:19:11.051Z</time></trkpt><trkpt lat="37.9499806" lon="15.1381735"><ele>597.0</ele><time>2026-04-26T10:19:13.051Z</time></trkpt><trkpt lat="37.9500549" lon="15.1381571"><ele>597.0</ele><time>2026-04-26T10:19:15.051Z</time></trkpt><trkpt lat="37.9501178" lon="15.1381685"><ele>597.0</ele><time>2026-04-26T10:19:18.052Z</time></trkpt><trkpt lat="37.9501735" lon="15.1382162"><ele>597.0</ele><time>2026-04-26T10:19:20.051Z</time></trkpt><trkpt lat="37.9502781" lon="15.1382516"><ele>598.8571428571429</ele><time>2026-04-26T10:19:22.051Z</time></trkpt><trkpt lat="37.950342" lon="15.1382559"><ele>600.7142857142858</ele><time>2026-04-26T10:19:23.051Z</time></trkpt><trkpt lat="37.9504071" lon="15.1382538"><ele>602.5714285714287</ele><time>2026-04-26T10:19:24.051Z</time></trkpt><trkpt lat="37.9504782" lon="15.1382531"><ele>604.4285714285714</ele><time>2026-04-26T10:19:25.051Z</time></trkpt><trkpt lat="37.9505556" lon="15.1382531"><ele>606.2857142857142</ele><time>2026-04-26T10:19:26.051Z</time></trkpt><trkpt lat="37.9506404" lon="15.1382523"><ele>608.1428571428572</ele><time>2026-04-26T10:19:27.051Z</time></trkpt><trkpt lat="37.9507217" lon="15.1382598"><ele>610.0</ele><time>2026-04-26T10:19:28.051Z</time></trkpt><trkpt lat="37.9507981" lon="15.1382727"><ele>610.0</ele><time>2026-04-26T10:19:29.051Z</time></trkpt><trkpt lat="37.9508681" lon="15.138287"><ele>610.0</ele><time>2026-04-26T10:19:30.051Z</time></trkpt><trkpt lat="37.9509348" lon="15.1382964"><ele>610.0</ele><time>2026-04-26T10:19:31.051Z</time></trkpt><trkpt lat="37.9510335" lon="15.1383166"><ele>610.0</ele><time>2026-04-26T10:19:33.051Z</time></trkpt><trkpt lat="37.9511022" lon="15.1383433"><ele>610.0</ele><time>2026-04-26T10:19:35.051Z</time></trkpt><trkpt lat="37.9511778" lon="15.1383535"><ele>610.0</ele><time>2026-04-26T10:19:37.051Z</time></trkpt><trkpt lat="37.951259" lon="15.1383505"><ele>611.3333333333334</ele><time>2026-04-26T10:19:40.051Z</time></trkpt><trkpt lat="37.9513351" lon="15.1383205"><ele>612.6666666666667</ele><time>2026-04-26T10:19:43.051Z</time></trkpt><trkpt lat="37.9514054" lon="15.1383018"><ele>614.0</ele><time>2026-04-26T10:19:46.051Z</time></trkpt><trkpt lat="37.9514773" lon="15.1382898"><ele>615.3333333333334</ele><time>2026-04-26T10:19:48.051Z</time></trkpt><trkpt lat="37.9515623" lon="15.1382626"><ele>616.6666666666666</ele><time>2026-04-26T10:19:50.051Z</time></trkpt><trkpt lat="37.9516381" lon="15.1382556"><ele>618.0</ele><time>2026-04-26T10:19:52.051Z</time></trkpt><trkpt lat="37.9517063" lon="15.1382914"><ele>620.0</ele><time>2026-04-26T10:19:54.051Z</time></trkpt><trkpt lat="37.9518007" lon="15.1383131"><ele>622.0</ele><time>2026-04-26T10:19:56.051Z</time></trkpt><trkpt lat="37.9519054" lon="15.1383092"><ele>624.0</ele><time>2026-04-26T10:19:58.051Z</time></trkpt><trkpt lat="37.9520067" lon="15.1383533"><ele>626.0</ele><time>2026-04-26T10:20:00.051Z</time></trkpt><trkpt lat="37.9520917" lon="15.1384133"><ele>628.0</ele><time>2026-04-26T10:20:02.051Z</time></trkpt><trkpt lat="37.9521483" lon="15.1385133"><ele>628.0</ele><time>2026-04-26T10:20:04.051Z</time></trkpt><trkpt lat="37.9522083" lon="15.1386167"><ele>628.0</ele><time>2026-04-26T10:20:06.051Z</time></trkpt><trkpt lat="37.9522667" lon="15.1386883"><ele>628.0</ele><time>2026-04-26T10:20:08.051Z</time></trkpt></trkseg><trkseg><trkpt lat="37.9523417" lon="15.1387083"><ele>627.9999999999999</ele><time>2026-04-26T11:01:28.052Z</time></trkpt><trkpt lat="37.9524267" lon="15.1386667"><ele>628.0</ele><time>2026-04-26T11:01:31.052Z</time></trkpt><trkpt lat="37.95249" lon="15.13867"><ele>628.0</ele><time>2026-04-26T11:01:33.052Z</time></trkpt><trkpt lat="37.9525467" lon="15.1387067"><ele>628.0</ele><time>2026-04-26T11:01:37.052Z</time></trkpt><trkpt lat="37.9525867" lon="15.1387867"><ele>628.0</ele><time>2026-04-26T11:01:46.052Z</time></trkpt><trkpt lat="37.9526117" lon="15.138865"><ele>627.9999999999999</ele><time>2026-04-26T11:01:48.053Z</time></trkpt><trkpt lat="37.95262" lon="15.138945"><ele>628.0</ele><time>2026-04-26T11:01:50.052Z</time></trkpt><trkpt lat="37.9526617" lon="15.1390183"><ele>629.1999999999999</ele><time>2026-04-26T11:01:53.052Z</time></trkpt><trkpt lat="37.9527317" lon="15.1390917"><ele>630.4</ele><time>2026-04-26T11:01:56.052Z</time></trkpt><trkpt lat="37.9528067" lon="15.1391367"><ele>631.5999999999999</ele><time>2026-04-26T11:01:58.052Z</time></trkpt><trkpt lat="37.9529083" lon="15.1391883"><ele>632.8</ele><time>2026-04-26T11:02:00.053Z</time></trkpt><trkpt lat="37.953025" lon="15.1392583"><ele>634.0</ele><time>2026-04-26T11:02:02.052Z</time></trkpt><trkpt lat="37.9530883" lon="15.1392983"><ele>634.0</ele><time>2026-04-26T11:02:03.052Z</time></trkpt><trkpt lat="37.953155" lon="15.1393333"><ele>634.0</ele><time>2026-04-26T11:02:04.052Z</time></trkpt><trkpt lat="37.9532283" lon="15.13936"><ele>634.0</ele><time>2026-04-26T11:02:05.052Z</time></trkpt><trkpt lat="37.9532917" lon="15.1393883"><ele>634.0</ele><time>2026-04-26T11:02:06.052Z</time></trkpt><trkpt lat="37.9533517" lon="15.1394167"><ele>634.0</ele><time>2026-04-26T11:02:07.052Z</time></trkpt><trkpt lat="37.953445" lon="15.1394617"><ele>634.0</ele><time>2026-04-26T11:02:09.052Z</time></trkpt><trkpt lat="37.9535483" lon="15.1394883"><ele>639.4</ele><time>2026-04-26T11:02:11.052Z</time></trkpt><trkpt lat="37.953615" lon="15.1395067"><ele>644.8</ele><time>2026-04-26T11:02:12.052Z</time></trkpt><trkpt lat="37.9537133" lon="15.1395483"><ele>650.1999999999999</ele><time>2026-04-26T11:02:14.052Z</time></trkpt><trkpt lat="37.9537883" lon="15.1396333"><ele>655.5999999999999</ele><time>2026-04-26T11:02:16.052Z</time></trkpt><trkpt lat="37.9538767" lon="15.1397267"><ele>661.0</ele><time>2026-04-26T11:02:18.052Z</time></trkpt><trkpt lat="37.9539717" lon="15.1397733"><ele>661.0</ele><time>2026-04-26T11:02:20.052Z</time></trkpt><trkpt lat="37.954085" lon="15.1397883"><ele>661.0</ele><time>2026-04-26T11:02:22.052Z</time></trkpt><trkpt lat="37.9541917" lon="15.1398417"><ele>661.0</ele><time>2026-04-26T11:02:24.052Z</time></trkpt><trkpt lat="37.9542967" lon="15.1399183"><ele>661.0</ele><time>2026-04-26T11:02:26.052Z</time></trkpt><trkpt lat="37.95436" lon="15.1399583"><ele>661.0</ele><time>2026-04-26T11:02:27.052Z</time></trkpt><trkpt lat="37.9544167" lon="15.1400067"><ele>660.5</ele><time>2026-04-26T11:02:28.052Z</time></trkpt><trkpt lat="37.9544733" lon="15.1400567"><ele>660.0</ele><time>2026-04-26T11:02:29.052Z</time></trkpt><trkpt lat="37.9545383" lon="15.1401467"><ele>659.5</ele><time>2026-04-26T11:02:31.052Z</time></trkpt><trkpt lat="37.9546233" lon="15.140165"><ele>659.0</ele><time>2026-04-26T11:02:33.052Z</time></trkpt><trkpt lat="37.9547333" lon="15.1402067"><ele>658.5</ele><time>2026-04-26T11:02:35.052Z</time></trkpt><trkpt lat="37.9547933" lon="15.1402417"><ele>658.0</ele><time>2026-04-26T11:02:36.053Z</time></trkpt><trkpt lat="37.9548933" lon="15.1403183"><ele>658.0</ele><time>2026-04-26T11:02:38.052Z</time></trkpt><trkpt lat="37.954965" lon="15.14044"><ele>658.0</ele><time>2026-04-26T11:02:40.052Z</time></trkpt><trkpt lat="37.95503" lon="15.1405683"><ele>658.0</ele><time>2026-04-26T11:02:42.052Z</time></trkpt><trkpt lat="37.955095" lon="15.1406567"><ele>658.0</ele><time>2026-04-26T11:02:44.052Z</time></trkpt><trkpt lat="37.9551417" lon="15.1407317"><ele>658.0</ele><time>2026-04-26T11:02:46.052Z</time></trkpt><trkpt lat="37.9551083" lon="15.1408167"><ele>658.6666666666667</ele><time>2026-04-26T11:02:50.052Z</time></trkpt><trkpt lat="37.95505" lon="15.14087"><ele>659.3333333333334</ele><time>2026-04-26T11:02:53.052Z</time></trkpt><trkpt lat="37.9550083" lon="15.140945"><ele>660.0</ele><time>2026-04-26T11:02:56.052Z</time></trkpt><trkpt lat="37.954935" lon="15.1410433"><ele>660.6666666666666</ele><time>2026-04-26T11:04:45.051Z</time></trkpt><trkpt lat="37.955" lon="15.14097"><ele>661.3333333333333</ele><time>2026-04-26T11:04:55.051Z</time></trkpt><trkpt lat="37.955035" lon="15.1408733"><ele>662.0</ele><time>2026-04-26T11:04:58.051Z</time></trkpt><trkpt lat="37.955095" lon="15.140785"><ele>663.8333333333333</ele><time>2026-04-26T11:05:01.051Z</time></trkpt><trkpt lat="37.955145" lon="15.14069"><ele>665.6666666666666</ele><time>2026-04-26T11:05:04.051Z</time></trkpt><trkpt lat="37.95519" lon="15.1406083"><ele>667.5</ele><time>2026-04-26T11:05:07.051Z</time></trkpt><trkpt lat="37.955225" lon="15.14054"><ele>669.3333333333334</ele><time>2026-04-26T11:05:09.051Z</time></trkpt><trkpt lat="37.955275" lon="15.1404667"><ele>671.1666666666667</ele><time>2026-04-26T11:05:12.051Z</time></trkpt><trkpt lat="37.955355" lon="15.14043"><ele>673.0</ele><time>2026-04-26T11:05:18.051Z</time></trkpt><trkpt lat="37.9554383" lon="15.1404533"><ele>673.0</ele><time>2026-04-26T11:05:21.051Z</time></trkpt><trkpt lat="37.9554983" lon="15.1404983"><ele>673.0</ele><time>2026-04-26T11:05:23.052Z</time></trkpt><trkpt lat="37.9555583" lon="15.14054"><ele>673.0</ele><time>2026-04-26T11:05:25.051Z</time></trkpt><trkpt lat="37.9556133" lon="15.1406333"><ele>673.0</ele><time>2026-04-26T11:10:51.05Z</time></trkpt><trkpt lat="37.955675" lon="15.14074"><ele>673.0</ele><time>2026-04-26T11:10:53.05Z</time></trkpt><trkpt lat="37.9557483" lon="15.1408483"><ele>673.0</ele><time>2026-04-26T11:10:55.05Z</time></trkpt><trkpt lat="37.95579" lon="15.140915"><ele>673.3333333333334</ele><time>2026-04-26T11:10:56.05Z</time></trkpt><trkpt lat="37.9558733" lon="15.1410383"><ele>673.6666666666667</ele><time>2026-04-26T11:10:58.05Z</time></trkpt><trkpt lat="37.9559183" lon="15.141105"><ele>674.0</ele><time>2026-04-26T11:10:59.05Z</time></trkpt><trkpt lat="37.9559667" lon="15.1411783"><ele>674.3333333333334</ele><time>2026-04-26T11:11:00.05Z</time></trkpt><trkpt lat="37.9560117" lon="15.14126"><ele>674.6666666666666</ele><time>2026-04-26T11:11:01.05Z</time></trkpt><trkpt lat="37.9560583" lon="15.1413417"><ele>675.0</ele><time>2026-04-26T11:11:02.05Z</time></trkpt><trkpt lat="37.9560983" lon="15.14142"><ele>675.0</ele><time>2026-04-26T11:11:03.05Z</time></trkpt><trkpt lat="37.9561367" lon="15.141495"><ele>675.0</ele><time>2026-04-26T11:11:04.05Z</time></trkpt><trkpt lat="37.95618" lon="15.1415733"><ele>675.0</ele><time>2026-04-26T11:11:05.051Z</time></trkpt><trkpt lat="37.9562283" lon="15.1416567"><ele>675.0</ele><time>2026-04-26T11:11:06.05Z</time></trkpt><trkpt lat="37.9562783" lon="15.14174"><ele>675.0</ele><time>2026-04-26T11:11:07.05Z</time></trkpt><trkpt lat="37.95633" lon="15.1418317"><ele>675.0</ele><time>2026-04-26T11:11:08.05Z</time></trkpt><trkpt lat="37.9563817" lon="15.1419317"><ele>675.2</ele><time>2026-04-26T11:11:09.05Z</time></trkpt><trkpt lat="37.9564267" lon="15.1420317"><ele>675.4</ele><time>2026-04-26T11:11:10.05Z</time></trkpt><trkpt lat="37.9564667" lon="15.1421333"><ele>675.5999999999999</ele><time>2026-04-26T11:11:11.05Z</time></trkpt><trkpt lat="37.9565033" lon="15.1422383"><ele>675.8</ele><time>2026-04-26T11:11:12.05Z</time></trkpt><trkpt lat="37.956535" lon="15.1423467"><ele>676.0</ele><time>2026-04-26T11:11:13.05Z</time></trkpt><trkpt lat="37.9565683" lon="15.1424533"><ele>678.4</ele><time>2026-04-26T11:11:14.051Z</time></trkpt><trkpt lat="37.9566033" lon="15.1425583"><ele>680.8</ele><time>2026-04-26T11:11:15.05Z</time></trkpt><trkpt lat="37.9566417" lon="15.14267"><ele>683.1999999999999</ele><time>2026-04-26T11:11:16.05Z</time></trkpt><trkpt lat="37.9566733" lon="15.1427833"><ele>685.5999999999999</ele><time>2026-04-26T11:11:17.05Z</time></trkpt><trkpt lat="37.9566983" lon="15.1428983"><ele>688.0</ele><time>2026-04-26T11:11:18.05Z</time></trkpt><trkpt lat="37.9567233" lon="15.1430033"><ele>689.8333333333334</ele><time>2026-04-26T11:11:19.05Z</time></trkpt><trkpt lat="37.9567467" lon="15.1431033"><ele>691.6666666666667</ele><time>2026-04-26T11:11:20.051Z</time></trkpt><trkpt lat="37.9567667" lon="15.143185"><ele>693.5</ele><time>2026-04-26T11:11:21.05Z</time></trkpt><trkpt lat="37.9567767" lon="15.1433133"><ele>695.3333333333334</ele><time>2026-04-26T11:11:23.05Z</time></trkpt><trkpt lat="37.9568017" lon="15.1434083"><ele>697.1666666666666</ele><time>2026-04-26T11:11:25.05Z</time></trkpt><trkpt lat="37.9568983" lon="15.1433733"><ele>699.0</ele><time>2026-04-26T11:11:28.05Z</time></trkpt><trkpt lat="37.9569483" lon="15.1433"><ele>703.1666666666666</ele><time>2026-04-26T11:11:30.05Z</time></trkpt><trkpt lat="37.9569983" lon="15.14341"><ele>707.3333333333334</ele><time>2026-04-26T11:14:02.049Z</time></trkpt><trkpt lat="37.9570133" lon="15.1435117"><ele>711.5</ele><time>2026-04-26T11:14:04.049Z</time></trkpt><trkpt lat="37.957035" lon="15.1435883"><ele>715.6666666666667</ele><time>2026-04-26T11:14:06.049Z</time></trkpt><trkpt lat="37.9570317" lon="15.14368"><ele>719.8333333333334</ele><time>2026-04-26T11:14:08.049Z</time></trkpt><trkpt lat="37.9570183" lon="15.1438017"><ele>724.0</ele><time>2026-04-26T11:14:10.049Z</time></trkpt><trkpt lat="37.9570133" lon="15.1439233"><ele>724.0</ele><time>2026-04-26T11:14:12.049Z</time></trkpt><trkpt lat="37.9569967" lon="15.1440183"><ele>724.0</ele><time>2026-04-26T11:14:14.049Z</time></trkpt><trkpt lat="37.9569717" lon="15.1441"><ele>724.0</ele><time>2026-04-26T11:14:16.049Z</time></trkpt><trkpt lat="37.9569833" lon="15.1442017"><ele>724.0</ele><time>2026-04-26T11:14:19.049Z</time></trkpt><trkpt lat="37.9570283" lon="15.1440567"><ele>724.0</ele><time>2026-04-26T11:16:12.049Z</time></trkpt><trkpt lat="37.9570367" lon="15.143955"><ele>724.0</ele><time>2026-04-26T11:16:14.049Z</time></trkpt><trkpt lat="37.9570367" lon="15.1438533"><ele>724.0</ele><time>2026-04-26T11:16:16.049Z</time></trkpt><trkpt lat="37.9570367" lon="15.1437633"><ele>724.0</ele><time>2026-04-26T11:16:18.049Z</time></trkpt><trkpt lat="37.95704" lon="15.1436817"><ele>724.0</ele><time>2026-04-26T11:16:20.049Z</time></trkpt><trkpt lat="37.9570567" lon="15.1435867"><ele>724.0</ele><time>2026-04-26T11:16:23.049Z</time></trkpt><trkpt lat="37.9570533" lon="15.1434817"><ele>724.0</ele><time>2026-04-26T11:16:26.049Z</time></trkpt><trkpt lat="37.957045" lon="15.14339"><ele>724.0</ele><time>2026-04-26T11:16:29.049Z</time></trkpt><trkpt lat="37.9570067" lon="15.1433"><ele>724.0</ele><time>2026-04-26T11:16:32.049Z</time></trkpt><trkpt lat="37.9569933" lon="15.1431917"><ele>719.0</ele><time>2026-04-26T11:16:34.049Z</time></trkpt><trkpt lat="37.9569717" lon="15.1430517"><ele>714.0</ele><time>2026-04-26T11:16:36.049Z</time></trkpt><trkpt lat="37.9569433" lon="15.14292"><ele>709.0</ele><time>2026-04-26T11:16:38.049Z</time></trkpt><trkpt lat="37.9569067" lon="15.142775"><ele>704.0</ele><time>2026-04-26T11:16:40.049Z</time></trkpt><trkpt lat="37.9568917" lon="15.1426617"><ele>699.0</ele><time>2026-04-26T11:16:42.049Z</time></trkpt><trkpt lat="37.9569567" lon="15.142575"><ele>699.0</ele><time>2026-04-26T11:16:49.049Z</time></trkpt><trkpt lat="37.9570267" lon="15.1425317"><ele>699.0</ele><time>2026-04-26T11:17:15.05Z</time></trkpt><trkpt lat="37.95712" lon="15.142515"><ele>699.0</ele><time>2026-04-26T11:17:17.049Z</time></trkpt><trkpt lat="37.9572067" lon="15.1425633"><ele>699.0</ele><time>2026-04-26T11:17:19.048Z</time></trkpt><trkpt lat="37.9573083" lon="15.1426683"><ele>699.0</ele><time>2026-04-26T11:17:21.048Z</time></trkpt><trkpt lat="37.9573667" lon="15.1427267"><ele>699.0</ele><time>2026-04-26T11:17:22.048Z</time></trkpt><trkpt lat="37.95742" lon="15.1427783"><ele>699.0</ele><time>2026-04-26T11:17:23.048Z</time></trkpt><trkpt lat="37.957515" lon="15.1428133"><ele>699.0</ele><time>2026-04-26T11:17:25.048Z</time></trkpt><trkpt lat="37.9576033" lon="15.14278"><ele>699.0</ele><time>2026-04-26T11:17:27.048Z</time></trkpt><trkpt lat="37.9575817" lon="15.1428567"><ele>699.0</ele><time>2026-04-26T11:17:31.048Z</time></trkpt><trkpt lat="37.95751" lon="15.1428767"><ele>699.0</ele><time>2026-04-26T11:17:32.048Z</time></trkpt><trkpt lat="37.9574217" lon="15.1429"><ele>699.0</ele><time>2026-04-26T11:17:33.048Z</time></trkpt><trkpt lat="37.9573517" lon="15.1429233"><ele>699.0</ele><time>2026-04-26T11:17:34.048Z</time></trkpt><trkpt lat="37.9572867" lon="15.142975"><ele>699.0</ele><time>2026-04-26T11:17:36.048Z</time></trkpt><trkpt lat="37.9573383" lon="15.14305"><ele>699.0</ele><time>2026-04-26T11:17:39.048Z</time></trkpt><trkpt lat="37.9574183" lon="15.1430583"><ele>699.0</ele><time>2026-04-26T11:17:41.048Z</time></trkpt><trkpt lat="37.957525" lon="15.1430333"><ele>699.0</ele><time>2026-04-26T11:17:43.048Z</time></trkpt><trkpt lat="37.9576533" lon="15.1430633"><ele>701.0</ele><time>2026-04-26T11:17:45.048Z</time></trkpt><trkpt lat="37.9577167" lon="15.1430933"><ele>703.0</ele><time>2026-04-26T11:17:46.048Z</time></trkpt><trkpt lat="37.9577783" lon="15.143115"><ele>705.0</ele><time>2026-04-26T11:17:47.048Z</time></trkpt><trkpt lat="37.9578867" lon="15.143105"><ele>707.0</ele><time>2026-04-26T11:17:49.048Z</time></trkpt><trkpt lat="37.9579617" lon="15.143015"><ele>709.0</ele><time>2026-04-26T11:17:51.049Z</time></trkpt><trkpt lat="37.9580483" lon="15.14295"><ele>711.0</ele><time>2026-04-26T11:17:53.048Z</time></trkpt><trkpt lat="37.95817" lon="15.142945"><ele>711.0</ele><time>2026-04-26T11:17:55.048Z</time></trkpt><trkpt lat="37.958295" lon="15.142945"><ele>711.0</ele><time>2026-04-26T11:17:57.048Z</time></trkpt><trkpt lat="37.9583583" lon="15.142955"><ele>711.0</ele><time>2026-04-26T11:17:58.048Z</time></trkpt><trkpt lat="37.95848" lon="15.143025"><ele>711.0</ele><time>2026-04-26T11:18:00.048Z</time></trkpt><trkpt lat="37.9585367" lon="15.1430817"><ele>711.0</ele><time>2026-04-26T11:18:01.048Z</time></trkpt><trkpt lat="37.9585967" lon="15.1431433"><ele>709.8333333333334</ele><time>2026-04-26T11:18:02.048Z</time></trkpt><trkpt lat="37.9586633" lon="15.14321"><ele>708.6666666666666</ele><time>2026-04-26T11:18:03.048Z</time></trkpt><trkpt lat="37.9587367" lon="15.1432817"><ele>707.5</ele><time>2026-04-26T11:18:04.048Z</time></trkpt><trkpt lat="37.9588133" lon="15.1433367"><ele>706.3333333333333</ele><time>2026-04-26T11:18:05.048Z</time></trkpt><trkpt lat="37.9588767" lon="15.143395"><ele>705.1666666666666</ele><time>2026-04-26T11:18:06.049Z</time></trkpt><trkpt lat="37.958925" lon="15.14345"><ele>704.0</ele><time>2026-04-26T11:18:07.048Z</time></trkpt><trkpt lat="37.9589783" lon="15.1435467"><ele>710.4000000000001</ele><time>2026-04-26T11:18:09.048Z</time></trkpt><trkpt lat="37.9588833" lon="15.14358"><ele>716.8</ele><time>2026-04-26T11:18:12.048Z</time></trkpt><trkpt lat="37.9587783" lon="15.1435467"><ele>723.2</ele><time>2026-04-26T11:18:14.048Z</time></trkpt><trkpt lat="37.9586767" lon="15.1435383"><ele>729.5999999999999</ele><time>2026-04-26T11:18:16.048Z</time></trkpt><trkpt lat="37.9585867" lon="15.14361"><ele>736.0</ele><time>2026-04-26T11:18:18.048Z</time></trkpt><trkpt lat="37.958545" lon="15.1437683"><ele>736.0</ele><time>2026-04-26T11:18:20.048Z</time></trkpt><trkpt lat="37.9585267" lon="15.1438517"><ele>736.0</ele><time>2026-04-26T11:18:21.048Z</time></trkpt><trkpt lat="37.9584733" lon="15.1439717"><ele>736.0</ele><time>2026-04-26T11:18:23.048Z</time></trkpt><trkpt lat="37.958395" lon="15.14402"><ele>736.0</ele><time>2026-04-26T11:18:25.048Z</time></trkpt><trkpt lat="37.9582983" lon="15.1439983"><ele>736.0</ele><time>2026-04-26T11:18:27.048Z</time></trkpt><trkpt lat="37.958195" lon="15.1439217"><ele>738.4</ele><time>2026-04-26T11:18:29.048Z</time></trkpt><trkpt lat="37.958125" lon="15.143885"><ele>740.8</ele><time>2026-04-26T11:18:30.048Z</time></trkpt><trkpt lat="37.9580283" lon="15.1439033"><ele>743.1999999999999</ele><time>2026-04-26T11:18:32.049Z</time></trkpt><trkpt lat="37.9580683" lon="15.1439817"><ele>745.5999999999999</ele><time>2026-04-26T11:18:35.048Z</time></trkpt><trkpt lat="37.9581783" lon="15.1440267"><ele>748.0</ele><time>2026-04-26T11:18:37.048Z</time></trkpt><trkpt lat="37.958275" lon="15.144135"><ele>751.8333333333334</ele><time>2026-04-26T11:18:39.048Z</time></trkpt><trkpt lat="37.95834" lon="15.1441867"><ele>755.6666666666667</ele><time>2026-04-26T11:18:40.048Z</time></trkpt><trkpt lat="37.9584117" lon="15.14421"><ele>759.5</ele><time>2026-04-26T11:18:41.048Z</time></trkpt><trkpt lat="37.95849" lon="15.14421"><ele>763.3333333333334</ele><time>2026-04-26T11:18:42.048Z</time></trkpt><trkpt lat="37.9585667" lon="15.144195"><ele>767.1666666666666</ele><time>2026-04-26T11:18:43.048Z</time></trkpt><trkpt lat="37.958645" lon="15.14416"><ele>771.0</ele><time>2026-04-26T11:18:44.048Z</time></trkpt><trkpt lat="37.95872" lon="15.144145"><ele>771.6666666666666</ele><time>2026-04-26T11:18:45.048Z</time></trkpt><trkpt lat="37.9588" lon="15.1441483"><ele>772.3333333333333</ele><time>2026-04-26T11:18:46.048Z</time></trkpt><trkpt lat="37.958885" lon="15.144175"><ele>773.0</ele><time>2026-04-26T11:18:47.048Z</time></trkpt><trkpt lat="37.9589733" lon="15.1442183"><ele>773.6666666666666</ele><time>2026-04-26T11:18:48.048Z</time></trkpt><trkpt lat="37.9590533" lon="15.1442433"><ele>774.3333333333333</ele><time>2026-04-26T11:18:49.048Z</time></trkpt><trkpt lat="37.9591317" lon="15.1442683"><ele>775.0</ele><time>2026-04-26T11:18:50.048Z</time></trkpt><trkpt lat="37.9591917" lon="15.1443083"><ele>775.0</ele><time>2026-04-26T11:18:51.049Z</time></trkpt><trkpt lat="37.95928" lon="15.1444033"><ele>775.0</ele><time>2026-04-26T11:18:53.048Z</time></trkpt><trkpt lat="37.9592633" lon="15.144495"><ele>775.0</ele><time>2026-04-26T11:18:56.048Z</time></trkpt><trkpt lat="37.9591767" lon="15.144495"><ele>775.0</ele><time>2026-04-26T11:18:58.048Z</time></trkpt><trkpt lat="37.959075" lon="15.14448"><ele>775.0</ele><time>2026-04-26T11:19:00.049Z</time></trkpt><trkpt lat="37.9589433" lon="15.1445467"><ele>774.9999999999999</ele><time>2026-04-26T11:19:02.048Z</time></trkpt><trkpt lat="37.9588617" lon="15.144605"><ele>775.0</ele><time>2026-04-26T11:19:03.049Z</time></trkpt><trkpt lat="37.9587683" lon="15.1446467"><ele>775.0</ele><time>2026-04-26T11:19:04.048Z</time></trkpt><trkpt lat="37.9586783" lon="15.144655"><ele>775.0</ele><time>2026-04-26T11:19:05.048Z</time></trkpt><trkpt lat="37.958605" lon="15.14466"><ele>774.9999999999999</ele><time>2026-04-26T11:19:06.048Z</time></trkpt><trkpt lat="37.9585333" lon="15.1446783"><ele>775.0</ele><time>2026-04-26T11:19:07.048Z</time></trkpt><trkpt lat="37.9584683" lon="15.1447167"><ele>774.9999999999999</ele><time>2026-04-26T11:19:08.049Z</time></trkpt><trkpt lat="37.9584117" lon="15.14476"><ele>775.0</ele><time>2026-04-26T11:19:09.048Z</time></trkpt><trkpt lat="37.9583717" lon="15.1448833"><ele>775.0</ele><time>2026-04-26T11:19:11.048Z</time></trkpt><trkpt lat="37.9583667" lon="15.144975"><ele>775.0</ele><time>2026-04-26T11:19:12.048Z</time></trkpt><trkpt lat="37.9583667" lon="15.145065"><ele>774.9999999999999</ele><time>2026-04-26T11:19:13.048Z</time></trkpt><trkpt lat="37.9583483" lon="15.1451933"><ele>775.0</ele><time>2026-04-26T11:19:15.048Z</time></trkpt><trkpt lat="37.9584133" lon="15.1451633"><ele>781.2</ele><time>2026-04-26T11:21:11.049Z</time></trkpt><trkpt lat="37.9584583" lon="15.14502"><ele>787.4</ele><time>2026-04-26T11:21:13.048Z</time></trkpt><trkpt lat="37.95852" lon="15.1449217"><ele>793.5999999999999</ele><time>2026-04-26T11:21:15.048Z</time></trkpt><trkpt lat="37.9586017" lon="15.1449183"><ele>799.8</ele><time>2026-04-26T11:21:17.048Z</time></trkpt><trkpt lat="37.958705" lon="15.1449717"><ele>806.0</ele><time>2026-04-26T11:21:19.048Z</time></trkpt><trkpt lat="37.95877" lon="15.1449867"><ele>806.0</ele><time>2026-04-26T11:21:20.048Z</time></trkpt><trkpt lat="37.958845" lon="15.1449833"><ele>806.0</ele><time>2026-04-26T11:21:21.047Z</time></trkpt><trkpt lat="37.9589083" lon="15.1449833"><ele>806.0</ele><time>2026-04-26T11:21:22.047Z</time></trkpt><trkpt lat="37.9590217" lon="15.1449733"><ele>806.0</ele><time>2026-04-26T11:21:24.047Z</time></trkpt><trkpt lat="37.9591317" lon="15.1449417"><ele>806.0</ele><time>2026-04-26T11:21:26.047Z</time></trkpt><trkpt lat="37.9592433" lon="15.1449583"><ele>802.5000000000001</ele><time>2026-04-26T11:21:28.047Z</time></trkpt><trkpt lat="37.959305" lon="15.1449917"><ele>799.0</ele><time>2026-04-26T11:21:29.047Z</time></trkpt><trkpt lat="37.959375" lon="15.1450483"><ele>795.5</ele><time>2026-04-26T11:21:30.047Z</time></trkpt><trkpt lat="37.9594367" lon="15.145115"><ele>792.0</ele><time>2026-04-26T11:21:31.047Z</time></trkpt><trkpt lat="37.959495" lon="15.1452017"><ele>788.5000000000001</ele><time>2026-04-26T11:21:32.047Z</time></trkpt><trkpt lat="37.9595567" lon="15.1452783"><ele>785.0</ele><time>2026-04-26T11:21:33.048Z</time></trkpt><trkpt lat="37.9596" lon="15.14535"><ele>785.0</ele><time>2026-04-26T11:21:34.047Z</time></trkpt><trkpt lat="37.9596417" lon="15.145425"><ele>785.0</ele><time>2026-04-26T11:21:35.047Z</time></trkpt><trkpt lat="37.9596733" lon="15.145495"><ele>785.0</ele><time>2026-04-26T11:21:36.047Z</time></trkpt><trkpt lat="37.959705" lon="15.145565"><ele>785.0</ele><time>2026-04-26T11:21:37.047Z</time></trkpt><trkpt lat="37.959745" lon="15.145645"><ele>785.0</ele><time>2026-04-26T11:21:38.047Z</time></trkpt><trkpt lat="37.9598017" lon="15.145715"><ele>785.0</ele><time>2026-04-26T11:21:39.047Z</time></trkpt><trkpt lat="37.959865" lon="15.14578"><ele>785.0</ele><time>2026-04-26T11:21:40.047Z</time></trkpt><trkpt lat="37.95992" lon="15.1458467"><ele>792.1666666666667</ele><time>2026-04-26T11:21:41.047Z</time></trkpt><trkpt lat="37.9599817" lon="15.14592"><ele>799.3333333333334</ele><time>2026-04-26T11:21:42.047Z</time></trkpt><trkpt lat="37.96004" lon="15.1459967"><ele>806.5</ele><time>2026-04-26T11:21:43.047Z</time></trkpt><trkpt lat="37.960095" lon="15.1460583"><ele>813.6666666666667</ele><time>2026-04-26T11:21:44.047Z</time></trkpt><trkpt lat="37.960205" lon="15.146095"><ele>820.8333333333334</ele><time>2026-04-26T11:21:46.047Z</time></trkpt><trkpt lat="37.9602683" lon="15.1460667"><ele>828.0</ele><time>2026-04-26T11:21:47.047Z</time></trkpt><trkpt lat="37.960325" lon="15.1460183"><ele>828.1666666666666</ele><time>2026-04-26T11:21:48.047Z</time></trkpt><trkpt lat="37.9603817" lon="15.1459433"><ele>828.3333333333333</ele><time>2026-04-26T11:21:49.047Z</time></trkpt><trkpt lat="37.96045" lon="15.1458983"><ele>828.5</ele><time>2026-04-26T11:21:50.047Z</time></trkpt><trkpt lat="37.9605217" lon="15.145875"><ele>828.6666666666666</ele><time>2026-04-26T11:21:51.047Z</time></trkpt><trkpt lat="37.9606067" lon="15.1458683"><ele>828.8333333333333</ele><time>2026-04-26T11:21:52.047Z</time></trkpt><trkpt lat="37.9606867" lon="15.1458683"><ele>829.0</ele><time>2026-04-26T11:21:53.047Z</time></trkpt><trkpt lat="37.9607567" lon="15.1458717"><ele>828.9999999999999</ele><time>2026-04-26T11:21:54.047Z</time></trkpt><trkpt lat="37.9608533" lon="15.1458967"><ele>829.0</ele><time>2026-04-26T11:21:56.047Z</time></trkpt><trkpt lat="37.960895" lon="15.1459783"><ele>829.0</ele><time>2026-04-26T11:21:58.047Z</time></trkpt><trkpt lat="37.96088" lon="15.146105"><ele>829.0</ele><time>2026-04-26T11:22:00.047Z</time></trkpt><trkpt lat="37.96088" lon="15.1462"><ele>828.9999999999999</ele><time>2026-04-26T11:22:01.047Z</time></trkpt><trkpt lat="37.9608717" lon="15.1463033"><ele>829.0</ele><time>2026-04-26T11:22:02.047Z</time></trkpt><trkpt lat="37.9608467" lon="15.1464117"><ele>828.9999999999999</ele><time>2026-04-26T11:22:03.047Z</time></trkpt><trkpt lat="37.960825" lon="15.1465217"><ele>829.0</ele><time>2026-04-26T11:22:04.047Z</time></trkpt><trkpt lat="37.9608183" lon="15.14663"><ele>829.0</ele><time>2026-04-26T11:22:05.047Z</time></trkpt><trkpt lat="37.96082" lon="15.1467267"><ele>829.0</ele><time>2026-04-26T11:22:06.047Z</time></trkpt><trkpt lat="37.9608067" lon="15.14682"><ele>828.9999999999999</ele><time>2026-04-26T11:22:07.047Z</time></trkpt><trkpt lat="37.9608033" lon="15.1469083"><ele>829.0</ele><time>2026-04-26T11:22:08.047Z</time></trkpt><trkpt lat="37.9608067" lon="15.1470033"><ele>830.1666666666666</ele><time>2026-04-26T11:22:09.047Z</time></trkpt><trkpt lat="37.9608133" lon="15.1470883"><ele>831.3333333333333</ele><time>2026-04-26T11:22:10.047Z</time></trkpt><trkpt lat="37.96084" lon="15.1472083"><ele>832.5</ele><time>2026-04-26T11:22:12.047Z</time></trkpt><trkpt lat="37.9608817" lon="15.1473217"><ele>833.6666666666667</ele><time>2026-04-26T11:22:15.047Z</time></trkpt><trkpt lat="37.9609283" lon="15.1474067"><ele>834.8333333333334</ele><time>2026-04-26T11:22:17.047Z</time></trkpt><trkpt lat="37.961" lon="15.14745"><ele>836.0</ele><time>2026-04-26T11:22:19.047Z</time></trkpt><trkpt lat="37.961055" lon="15.1474933"><ele>841.4</ele><time>2026-04-26T11:22:21.048Z</time></trkpt><trkpt lat="37.9611183" lon="15.147515"><ele>846.8</ele><time>2026-04-26T11:25:30.046Z</time></trkpt><trkpt lat="37.96122" lon="15.1475267"><ele>852.1999999999999</ele><time>2026-04-26T11:25:32.046Z</time></trkpt><trkpt lat="37.9613267" lon="15.1475367"><ele>857.5999999999999</ele><time>2026-04-26T11:25:34.046Z</time></trkpt><trkpt lat="37.9614233" lon="15.147505"><ele>863.0</ele><time>2026-04-26T11:25:36.046Z</time></trkpt><trkpt lat="37.96148" lon="15.14744"><ele>858.5000000000001</ele><time>2026-04-26T11:25:39.046Z</time></trkpt><trkpt lat="37.96152" lon="15.1473233"><ele>854.0</ele><time>2026-04-26T11:25:41.046Z</time></trkpt><trkpt lat="37.9615267" lon="15.14724"><ele>849.5</ele><time>2026-04-26T11:25:42.046Z</time></trkpt><trkpt lat="37.9615383" lon="15.14716"><ele>845.0</ele><time>2026-04-26T11:25:43.046Z</time></trkpt><trkpt lat="37.96159" lon="15.1470417"><ele>840.5000000000001</ele><time>2026-04-26T11:25:45.046Z</time></trkpt><trkpt lat="37.96168" lon="15.146975"><ele>836.0</ele><time>2026-04-26T11:25:47.046Z</time></trkpt><trkpt lat="37.9617567" lon="15.14697"><ele>836.0</ele><time>2026-04-26T11:25:49.046Z</time></trkpt><trkpt lat="37.96176" lon="15.1471017"><ele>836.0</ele><time>2026-04-26T11:25:52.046Z</time></trkpt><trkpt lat="37.9617183" lon="15.14723"><ele>836.0</ele><time>2026-04-26T11:25:54.046Z</time></trkpt><trkpt lat="37.9616967" lon="15.1473133"><ele>836.0</ele><time>2026-04-26T11:25:55.046Z</time></trkpt><trkpt lat="37.9616733" lon="15.14741"><ele>836.0</ele><time>2026-04-26T11:25:56.046Z</time></trkpt><trkpt lat="37.9616483" lon="15.1475233"><ele>841.4</ele><time>2026-04-26T11:25:57.047Z</time></trkpt><trkpt lat="37.9616183" lon="15.1476367"><ele>846.8</ele><time>2026-04-26T11:25:58.046Z</time></trkpt><trkpt lat="37.961595" lon="15.147765"><ele>852.1999999999999</ele><time>2026-04-26T11:25:59.047Z</time></trkpt><trkpt lat="37.9615633" lon="15.147895"><ele>857.5999999999999</ele><time>2026-04-26T11:26:00.046Z</time></trkpt><trkpt lat="37.961545" lon="15.14799"><ele>863.0</ele><time>2026-04-26T11:26:01.046Z</time></trkpt><trkpt lat="37.9615067" lon="15.1481117"><ele>863.0</ele><time>2026-04-26T11:26:03.046Z</time></trkpt><trkpt lat="37.9614117" lon="15.148115"><ele>863.0</ele><time>2026-04-26T11:26:06.046Z</time></trkpt><trkpt lat="37.9613567" lon="15.1480683"><ele>863.0</ele><time>2026-04-26T11:26:07.046Z</time></trkpt><trkpt lat="37.9612433" lon="15.14797"><ele>863.0</ele><time>2026-04-26T11:26:09.046Z</time></trkpt><trkpt lat="37.9610933" lon="15.1479533"><ele>863.0</ele><time>2026-04-26T11:26:11.046Z</time></trkpt><trkpt lat="37.960995" lon="15.1479417"><ele>863.0</ele><time>2026-04-26T11:26:12.046Z</time></trkpt><trkpt lat="37.960895" lon="15.1479133"><ele>863.0</ele><time>2026-04-26T11:26:13.046Z</time></trkpt><trkpt lat="37.96082" lon="15.1478683"><ele>863.0</ele><time>2026-04-26T11:26:14.046Z</time></trkpt><trkpt lat="37.9607383" lon="15.147805"><ele>863.0</ele><time>2026-04-26T11:26:15.046Z</time></trkpt><trkpt lat="37.9606617" lon="15.1477517"><ele>863.0</ele><time>2026-04-26T11:26:16.046Z</time></trkpt><trkpt lat="37.9605783" lon="15.1477083"><ele>863.6666666666667</ele><time>2026-04-26T11:26:17.046Z</time></trkpt><trkpt lat="37.9605017" lon="15.147665"><ele>864.3333333333334</ele><time>2026-04-26T11:26:18.046Z</time></trkpt><trkpt lat="37.960435" lon="15.1476333"><ele>865.0</ele><time>2026-04-26T11:26:19.046Z</time></trkpt><trkpt lat="37.9603633" lon="15.147645"><ele>865.6666666666667</ele><time>2026-04-26T11:26:21.046Z</time></trkpt><trkpt lat="37.9604217" lon="15.14778"><ele>866.3333333333334</ele><time>2026-04-26T11:26:24.046Z</time></trkpt><trkpt lat="37.9604717" lon="15.14786"><ele>867.0</ele><time>2026-04-26T11:26:25.046Z</time></trkpt><trkpt lat="37.9605117" lon="15.1479417"><ele>867.0</ele><time>2026-04-26T11:26:26.046Z</time></trkpt><trkpt lat="37.9605567" lon="15.1480233"><ele>867.0</ele><time>2026-04-26T11:26:27.046Z</time></trkpt><trkpt lat="37.9606017" lon="15.14809"><ele>867.0</ele><time>2026-04-26T11:26:28.046Z</time></trkpt><trkpt lat="37.9607017" lon="15.1481867"><ele>867.0</ele><time>2026-04-26T11:26:30.046Z</time></trkpt><trkpt lat="37.9607767" lon="15.14831"><ele>867.0</ele><time>2026-04-26T11:26:32.046Z</time></trkpt><trkpt lat="37.9608067" lon="15.148395"><ele>870.0</ele><time>2026-04-26T11:26:33.046Z</time></trkpt><trkpt lat="37.9608433" lon="15.1484767"><ele>873.0</ele><time>2026-04-26T11:26:34.046Z</time></trkpt><trkpt lat="37.96089" lon="15.148565"><ele>876.0</ele><time>2026-04-26T11:26:35.046Z</time></trkpt><trkpt lat="37.9609333" lon="15.148665"><ele>879.0</ele><time>2026-04-26T11:26:37.046Z</time></trkpt><trkpt lat="37.9608467" lon="15.1486683"><ele>882.0</ele><time>2026-04-26T11:26:40.046Z</time></trkpt><trkpt lat="37.960785" lon="15.1486183"><ele>885.0</ele><time>2026-04-26T11:26:41.046Z</time></trkpt><trkpt lat="37.9607167" lon="15.1485817"><ele>885.0</ele><time>2026-04-26T11:26:42.046Z</time></trkpt><trkpt lat="37.96062" lon="15.1485933"><ele>885.0</ele><time>2026-04-26T11:26:44.046Z</time></trkpt><trkpt lat="37.9605817" lon="15.1487267"><ele>885.0</ele><time>2026-04-26T11:26:46.046Z</time></trkpt><trkpt lat="37.9605833" lon="15.14885"><ele>885.0</ele><time>2026-04-26T11:26:48.046Z</time></trkpt><trkpt lat="37.960665" lon="15.1489217"><ele>885.0</ele><time>2026-04-26T11:26:50.046Z</time></trkpt><trkpt lat="37.96077" lon="15.1489717"><ele>888.0</ele><time>2026-04-26T11:26:52.046Z</time></trkpt><trkpt lat="37.960845" lon="15.1490933"><ele>891.0</ele><time>2026-04-26T11:26:54.047Z</time></trkpt><trkpt lat="37.9608783" lon="15.149185"><ele>894.0</ele><time>2026-04-26T11:26:55.046Z</time></trkpt><trkpt lat="37.9609033" lon="15.14928"><ele>897.0</ele><time>2026-04-26T11:26:56.046Z</time></trkpt><trkpt lat="37.9609233" lon="15.14939"><ele>900.0</ele><time>2026-04-26T11:26:57.046Z</time></trkpt><trkpt lat="37.9609283" lon="15.1494933"><ele>901.4285714285716</ele><time>2026-04-26T11:26:58.046Z</time></trkpt><trkpt lat="37.9609333" lon="15.1495917"><ele>902.8571428571429</ele><time>2026-04-26T11:26:59.046Z</time></trkpt><trkpt lat="37.9609583" lon="15.1496767"><ele>904.2857142857143</ele><time>2026-04-26T11:27:00.046Z</time></trkpt><trkpt lat="37.961005" lon="15.149745"><ele>905.7142857142858</ele><time>2026-04-26T11:27:01.047Z</time></trkpt><trkpt lat="37.96107" lon="15.1497933"><ele>907.1428571428571</ele><time>2026-04-26T11:27:02.046Z</time></trkpt><trkpt lat="37.9611417" lon="15.149825"><ele>908.5714285714286</ele><time>2026-04-26T11:27:03.047Z</time></trkpt><trkpt lat="37.961215" lon="15.149835"><ele>910.0</ele><time>2026-04-26T11:27:04.046Z</time></trkpt><trkpt lat="37.961295" lon="15.149835"><ele>909.9999999999999</ele><time>2026-04-26T11:27:05.046Z</time></trkpt><trkpt lat="37.9613917" lon="15.1498283"><ele>910.0</ele><time>2026-04-26T11:27:06.046Z</time></trkpt><trkpt lat="37.96149" lon="15.14982"><ele>910.0</ele><time>2026-04-26T11:27:07.046Z</time></trkpt><trkpt lat="37.9615683" lon="15.1498033"><ele>910.0</ele><time>2026-04-26T11:27:08.046Z</time></trkpt><trkpt lat="37.961635" lon="15.1497783"><ele>909.9999999999999</ele><time>2026-04-26T11:27:09.047Z</time></trkpt><trkpt lat="37.961705" lon="15.1496883"><ele>910.0</ele><time>2026-04-26T11:27:11.046Z</time></trkpt><trkpt lat="37.96172" lon="15.1495667"><ele>912.9999999999999</ele><time>2026-04-26T11:27:13.046Z</time></trkpt><trkpt lat="37.9617333" lon="15.1494633"><ele>916.0</ele><time>2026-04-26T11:27:15.046Z</time></trkpt><trkpt lat="37.96176" lon="15.149375"><ele>919.0</ele><time>2026-04-26T11:27:17.046Z</time></trkpt><trkpt lat="37.9618367" lon="15.14929"><ele>922.0</ele><time>2026-04-26T11:27:19.047Z</time></trkpt><trkpt lat="37.96191" lon="15.14925"><ele>924.9999999999999</ele><time>2026-04-26T11:27:20.046Z</time></trkpt><trkpt lat="37.9619783" lon="15.1492117"><ele>928.0</ele><time>2026-04-26T11:27:21.046Z</time></trkpt><trkpt lat="37.9620483" lon="15.1491983"><ele>927.9999999999999</ele><time>2026-04-26T11:27:22.046Z</time></trkpt><trkpt lat="37.9621183" lon="15.149205"><ele>928.0</ele><time>2026-04-26T11:27:23.046Z</time></trkpt><trkpt lat="37.96219" lon="15.149225"><ele>928.0</ele><time>2026-04-26T11:27:24.046Z</time></trkpt><trkpt lat="37.9622733" lon="15.1492383"><ele>928.0</ele><time>2026-04-26T11:27:25.046Z</time></trkpt><trkpt lat="37.962355" lon="15.1492533"><ele>927.9999999999999</ele><time>2026-04-26T11:27:26.046Z</time></trkpt><trkpt lat="37.96243" lon="15.1492683"><ele>928.0</ele><time>2026-04-26T11:27:27.046Z</time></trkpt><trkpt lat="37.9625383" lon="15.149255"><ele>923.4</ele><time>2026-04-26T11:27:29.046Z</time></trkpt><trkpt lat="37.9626067" lon="15.1491417"><ele>918.8</ele><time>2026-04-26T11:27:31.046Z</time></trkpt><trkpt lat="37.9626583" lon="15.1490217"><ele>914.2</ele><time>2026-04-26T11:27:33.046Z</time></trkpt><trkpt lat="37.9627467" lon="15.14907"><ele>909.6</ele><time>2026-04-26T11:27:36.046Z</time></trkpt><trkpt lat="37.9627917" lon="15.1492117"><ele>905.0</ele><time>2026-04-26T11:27:38.046Z</time></trkpt><trkpt lat="37.9627617" lon="15.149325"><ele>905.0000000000001</ele><time>2026-04-26T11:27:40.047Z</time></trkpt><trkpt lat="37.96269" lon="15.1494167"><ele>905.0</ele><time>2026-04-26T11:27:42.046Z</time></trkpt><trkpt lat="37.9626283" lon="15.149435"><ele>905.0</ele><time>2026-04-26T11:27:43.046Z</time></trkpt><trkpt lat="37.9625567" lon="15.1494433"><ele>905.0</ele><time>2026-04-26T11:27:44.046Z</time></trkpt><trkpt lat="37.962475" lon="15.1494683"><ele>905.0000000000001</ele><time>2026-04-26T11:27:45.046Z</time></trkpt><trkpt lat="37.9623967" lon="15.1494917"><ele>905.0</ele><time>2026-04-26T11:27:46.046Z</time></trkpt><trkpt lat="37.9623183" lon="15.14952"><ele>908.8333333333334</ele><time>2026-04-26T11:27:47.046Z</time></trkpt><trkpt lat="37.9622533" lon="15.149555"><ele>912.6666666666667</ele><time>2026-04-26T11:27:48.046Z</time></trkpt><trkpt lat="37.962205" lon="15.1496383"><ele>916.5</ele><time>2026-04-26T11:27:50.046Z</time></trkpt><trkpt lat="37.9622133" lon="15.14978"><ele>920.3333333333333</ele><time>2026-04-26T11:27:52.046Z</time></trkpt><trkpt lat="37.9622383" lon="15.1498567"><ele>924.1666666666666</ele><time>2026-04-26T11:27:53.046Z</time></trkpt><trkpt lat="37.9622783" lon="15.149945"><ele>928.0</ele><time>2026-04-26T11:27:54.046Z</time></trkpt><trkpt lat="37.962325" lon="15.1500367"><ele>933.5999999999999</ele><time>2026-04-26T11:27:55.046Z</time></trkpt><trkpt lat="37.962355" lon="15.1501367"><ele>939.1999999999999</ele><time>2026-04-26T11:27:57.046Z</time></trkpt><trkpt lat="37.9623483" lon="15.150235"><ele>944.8</ele><time>2026-04-26T11:27:59.046Z</time></trkpt><trkpt lat="37.9622967" lon="15.1503717"><ele>950.4</ele><time>2026-04-26T11:28:01.046Z</time></trkpt><trkpt lat="37.962195" lon="15.1504217"><ele>956.0</ele><time>2026-04-26T11:28:03.046Z</time></trkpt><trkpt lat="37.96207" lon="15.1504183"><ele>956.0</ele><time>2026-04-26T11:28:05.046Z</time></trkpt><trkpt lat="37.9619917" lon="15.1504183"><ele>955.9999999999999</ele><time>2026-04-26T11:28:06.046Z</time></trkpt><trkpt lat="37.9618883" lon="15.150435"><ele>955.9999999999999</ele><time>2026-04-26T11:28:07.046Z</time></trkpt><trkpt lat="37.961805" lon="15.1504567"><ele>956.0</ele><time>2026-04-26T11:28:08.047Z</time></trkpt><trkpt lat="37.961715" lon="15.1505017"><ele>956.0</ele><time>2026-04-26T11:28:09.046Z</time></trkpt><trkpt lat="37.96163" lon="15.15054"><ele>958.1666666666667</ele><time>2026-04-26T11:28:10.046Z</time></trkpt><trkpt lat="37.96155" lon="15.1505617"><ele>960.3333333333334</ele><time>2026-04-26T11:28:11.046Z</time></trkpt><trkpt lat="37.9614517" lon="15.1506017"><ele>962.5</ele><time>2026-04-26T11:28:12.046Z</time></trkpt><trkpt lat="37.9613567" lon="15.1506467"><ele>964.6666666666667</ele><time>2026-04-26T11:28:13.046Z</time></trkpt><trkpt lat="37.9612867" lon="15.1507033"><ele>966.8333333333334</ele><time>2026-04-26T11:28:14.047Z</time></trkpt><trkpt lat="37.9612117" lon="15.1507333"><ele>969.0</ele><time>2026-04-26T11:28:15.046Z</time></trkpt><trkpt lat="37.96114" lon="15.1507983"><ele>969.0</ele><time>2026-04-26T11:28:17.046Z</time></trkpt><trkpt lat="37.9612017" lon="15.1509183"><ele>969.0000000000001</ele><time>2026-04-26T11:28:20.046Z</time></trkpt><trkpt lat="37.9612733" lon="15.1510283"><ele>969.0000000000001</ele><time>2026-04-26T11:28:22.046Z</time></trkpt><trkpt lat="37.9613667" lon="15.1510733"><ele>969.0</ele><time>2026-04-26T11:28:24.046Z</time></trkpt><trkpt lat="37.9614767" lon="15.1510667"><ele>969.0</ele><time>2026-04-26T11:28:26.046Z</time></trkpt><trkpt lat="37.96154" lon="15.1510517"><ele>969.0</ele><time>2026-04-26T11:28:27.046Z</time></trkpt><trkpt lat="37.9616483" lon="15.1510083"><ele>969.0</ele><time>2026-04-26T11:28:29.046Z</time></trkpt><trkpt lat="37.9617117" lon="15.151035"><ele>969.0</ele><time>2026-04-26T11:28:31.046Z</time></trkpt><trkpt lat="37.96177" lon="15.1510917"><ele>969.0</ele><time>2026-04-26T11:28:33.046Z</time></trkpt><trkpt lat="37.9618517" lon="15.151145"><ele>969.0</ele><time>2026-04-26T11:28:35.046Z</time></trkpt><trkpt lat="37.9619083" lon="15.15119"><ele>969.0</ele><time>2026-04-26T11:28:38.046Z</time></trkpt><trkpt lat="37.9618483" lon="15.1512817"><ele>970.5</ele><time>2026-04-26T11:28:41.046Z</time></trkpt><trkpt lat="37.9617583" lon="15.1513283"><ele>972.0</ele><time>2026-04-26T11:28:43.046Z</time></trkpt><trkpt lat="37.9617183" lon="15.1513933"><ele>973.5</ele><time>2026-04-26T11:28:45.046Z</time></trkpt><trkpt lat="37.961745" lon="15.15147"><ele>975.0</ele><time>2026-04-26T11:29:16.046Z</time></trkpt><trkpt lat="37.961835" lon="15.1515133"><ele>976.5</ele><time>2026-04-26T11:29:18.047Z</time></trkpt><trkpt lat="37.96195" lon="15.15151"><ele>978.0</ele><time>2026-04-26T11:29:20.046Z</time></trkpt><trkpt lat="37.962025" lon="15.1514767"><ele>978.0</ele><time>2026-04-26T11:29:22.046Z</time></trkpt><trkpt lat="37.9620883" lon="15.15146"><ele>978.0</ele><time>2026-04-26T11:29:29.047Z</time></trkpt><trkpt lat="37.9621917" lon="15.15146"><ele>978.0</ele><time>2026-04-26T11:29:31.046Z</time></trkpt><trkpt lat="37.962265" lon="15.1514633"><ele>978.0</ele><time>2026-04-26T11:29:32.046Z</time></trkpt><trkpt lat="37.9623567" lon="15.1514667"><ele>978.0</ele><time>2026-04-26T11:29:33.046Z</time></trkpt><trkpt lat="37.96246" lon="15.1514583"><ele>978.0</ele><time>2026-04-26T11:29:34.046Z</time></trkpt><trkpt lat="37.962575" lon="15.1514483"><ele>980.5</ele><time>2026-04-26T11:29:35.046Z</time></trkpt><trkpt lat="37.9626717" lon="15.1514367"><ele>983.0</ele><time>2026-04-26T11:29:36.046Z</time></trkpt><trkpt lat="37.9627417" lon="15.1514417"><ele>985.5</ele><time>2026-04-26T11:29:37.046Z</time></trkpt><trkpt lat="37.9628067" lon="15.15146"><ele>988.0</ele><time>2026-04-26T11:29:41.046Z</time></trkpt><trkpt lat="37.9628583" lon="15.1515683"><ele>990.5</ele><time>2026-04-26T11:29:44.046Z</time></trkpt><trkpt lat="37.9629517" lon="15.15165"><ele>993.0</ele><time>2026-04-26T11:30:01.045Z</time></trkpt><trkpt lat="37.962865" lon="15.15153"><ele>993.0</ele><time>2026-04-26T11:30:14.045Z</time></trkpt><trkpt lat="37.9628217" lon="15.1514617"><ele>993.0</ele><time>2026-04-26T11:30:15.045Z</time></trkpt><trkpt lat="37.96274" lon="15.15141"><ele>993.0</ele><time>2026-04-26T11:30:17.045Z</time></trkpt><trkpt lat="37.96268" lon="15.1514767"><ele>993.0</ele><time>2026-04-26T11:30:19.045Z</time></trkpt><trkpt lat="37.962605" lon="15.1515883"><ele>993.0</ele><time>2026-04-26T11:30:21.045Z</time></trkpt><trkpt lat="37.9625517" lon="15.1516383"><ele>993.0</ele><time>2026-04-26T11:30:23.045Z</time></trkpt><trkpt lat="37.9624633" lon="15.15168"><ele>995.6666666666666</ele><time>2026-04-26T11:30:32.045Z</time></trkpt><trkpt lat="37.9623433" lon="15.1517183"><ele>998.3333333333333</ele><time>2026-04-26T11:30:34.045Z</time></trkpt><trkpt lat="37.9622617" lon="15.1517233"><ele>1001.0</ele><time>2026-04-26T11:30:35.045Z</time></trkpt><trkpt lat="37.9621817" lon="15.1517383"><ele>1003.6666666666666</ele><time>2026-04-26T11:30:36.045Z</time></trkpt><trkpt lat="37.9621183" lon="15.1517533"><ele>1006.3333333333333</ele><time>2026-04-26T11:30:37.045Z</time></trkpt><trkpt lat="37.9620517" lon="15.1518083"><ele>1009.0</ele><time>2026-04-26T11:30:38.045Z</time></trkpt><trkpt lat="37.9619867" lon="15.151855"><ele>1009.0</ele><time>2026-04-26T11:30:39.045Z</time></trkpt><trkpt lat="37.9619217" lon="15.151885"><ele>1009.0</ele><time>2026-04-26T11:30:40.045Z</time></trkpt><trkpt lat="37.9618517" lon="15.1518817"><ele>1009.0</ele><time>2026-04-26T11:30:41.045Z</time></trkpt><trkpt lat="37.9617783" lon="15.1518917"><ele>1009.0</ele><time>2026-04-26T11:30:42.045Z</time></trkpt><trkpt lat="37.961715" lon="15.1519133"><ele>1009.0</ele><time>2026-04-26T11:30:43.045Z</time></trkpt><trkpt lat="37.961655" lon="15.1519483"><ele>1009.0</ele><time>2026-04-26T11:30:44.045Z</time></trkpt><trkpt lat="37.9615817" lon="15.1519833"><ele>1009.0</ele><time>2026-04-26T11:30:45.045Z</time></trkpt><trkpt lat="37.9614717" lon="15.152025"><ele>1009.0</ele><time>2026-04-26T11:30:47.045Z</time></trkpt><trkpt lat="37.9614333" lon="15.1520933"><ele>1009.0000000000001</ele><time>2026-04-26T11:30:50.045Z</time></trkpt><trkpt lat="37.9614933" lon="15.15214"><ele>1009.0000000000001</ele><time>2026-04-26T11:30:53.045Z</time></trkpt><trkpt lat="37.9615917" lon="15.1521183"><ele>1009.0</ele><time>2026-04-26T11:30:55.045Z</time></trkpt><trkpt lat="37.9617083" lon="15.1521133"><ele>1009.0</ele><time>2026-04-26T11:30:57.045Z</time></trkpt><trkpt lat="37.961835" lon="15.1520983"><ele>1009.0</ele><time>2026-04-26T11:30:59.045Z</time></trkpt><trkpt lat="37.9618983" lon="15.1521"><ele>1009.0000000000001</ele><time>2026-04-26T11:31:00.045Z</time></trkpt><trkpt lat="37.9620117" lon="15.152155"><ele>1009.0000000000001</ele><time>2026-04-26T11:31:02.045Z</time></trkpt><trkpt lat="37.962115" lon="15.1521567"><ele>1009.0</ele><time>2026-04-26T11:31:04.045Z</time></trkpt><trkpt lat="37.96222" lon="15.1520933"><ele>1009.0</ele><time>2026-04-26T11:31:06.045Z</time></trkpt><trkpt lat="37.9623117" lon="15.1520617"><ele>1008.9999999999999</ele><time>2026-04-26T11:31:08.045Z</time></trkpt><trkpt lat="37.9623733" lon="15.1520933"><ele>1009.0</ele><time>2026-04-26T11:31:11.045Z</time></trkpt><trkpt lat="37.9623217" lon="15.152175"><ele>1009.0</ele><time>2026-04-26T11:31:14.045Z</time></trkpt><trkpt lat="37.9622283" lon="15.1521917"><ele>1009.0</ele><time>2026-04-26T11:31:16.045Z</time></trkpt><trkpt lat="37.9621517" lon="15.15225"><ele>1008.9999999999999</ele><time>2026-04-26T11:31:18.045Z</time></trkpt><trkpt lat="37.96208" lon="15.1523167"><ele>1009.0</ele><time>2026-04-26T11:31:20.045Z</time></trkpt><trkpt lat="37.961995" lon="15.152345"><ele>1013.4000000000001</ele><time>2026-04-26T11:31:22.045Z</time></trkpt><trkpt lat="37.961935" lon="15.1524067"><ele>1017.8000000000001</ele><time>2026-04-26T11:31:25.045Z</time></trkpt><trkpt lat="37.9620033" lon="15.1524633"><ele>1022.1999999999999</ele><time>2026-04-26T11:31:28.045Z</time></trkpt><trkpt lat="37.9621083" lon="15.1524933"><ele>1026.6</ele><time>2026-04-26T11:31:30.045Z</time></trkpt><trkpt lat="37.9622067" lon="15.1525283"><ele>1031.0</ele><time>2026-04-26T11:31:32.045Z</time></trkpt><trkpt lat="37.96231" lon="15.1525417"><ele>1031.0</ele><time>2026-04-26T11:31:34.045Z</time></trkpt><trkpt lat="37.9624067" lon="15.1525"><ele>1031.0</ele><time>2026-04-26T11:31:36.045Z</time></trkpt><trkpt lat="37.962475" lon="15.1524783"><ele>1031.0</ele><time>2026-04-26T11:31:37.045Z</time></trkpt><trkpt lat="37.962545" lon="15.152455"><ele>1031.0</ele><time>2026-04-26T11:31:38.045Z</time></trkpt><trkpt lat="37.9626517" lon="15.1524333"><ele>1031.0</ele><time>2026-04-26T11:31:40.045Z</time></trkpt><trkpt lat="37.962735" lon="15.152365"><ele>1032.1666666666667</ele><time>2026-04-26T11:31:42.045Z</time></trkpt><trkpt lat="37.96283" lon="15.152365"><ele>1033.3333333333335</ele><time>2026-04-26T11:31:44.045Z</time></trkpt><trkpt lat="37.96289" lon="15.152395"><ele>1034.5</ele><time>2026-04-26T11:31:45.045Z</time></trkpt><trkpt lat="37.9629917" lon="15.1524483"><ele>1035.6666666666667</ele><time>2026-04-26T11:31:47.045Z</time></trkpt><trkpt lat="37.9630617" lon="15.1525267"><ele>1036.8333333333333</ele><time>2026-04-26T11:31:49.045Z</time></trkpt><trkpt lat="37.9630983" lon="15.1526"><ele>1038.0</ele><time>2026-04-26T11:31:50.045Z</time></trkpt><trkpt lat="37.9631317" lon="15.152685"><ele>1038.0</ele><time>2026-04-26T11:31:51.045Z</time></trkpt><trkpt lat="37.9631733" lon="15.1528133"><ele>1038.0</ele><time>2026-04-26T11:31:53.045Z</time></trkpt><trkpt lat="37.9632283" lon="15.1528633"><ele>1038.0</ele><time>2026-04-26T11:31:55.046Z</time></trkpt><trkpt lat="37.9633117" lon="15.1528483"><ele>1038.0</ele><time>2026-04-26T11:31:57.045Z</time></trkpt><trkpt lat="37.96341" lon="15.1528317"><ele>1038.0</ele><time>2026-04-26T11:31:59.045Z</time></trkpt><trkpt lat="37.96348" lon="15.152815"><ele>1038.0</ele><time>2026-04-26T11:32:01.045Z</time></trkpt><trkpt lat="37.9635583" lon="15.1528183"><ele>1040.3333333333333</ele><time>2026-04-26T11:32:03.045Z</time></trkpt><trkpt lat="37.9636383" lon="15.152835"><ele>1042.6666666666667</ele><time>2026-04-26T11:32:05.045Z</time></trkpt><trkpt lat="37.9637217" lon="15.15286"><ele>1045.0</ele><time>2026-04-26T11:32:08.045Z</time></trkpt><trkpt lat="37.963785" lon="15.1528933"><ele>1047.3333333333335</ele><time>2026-04-26T11:32:11.045Z</time></trkpt><trkpt lat="37.96387" lon="15.1529033"><ele>1049.6666666666667</ele><time>2026-04-26T11:32:14.045Z</time></trkpt><trkpt lat="37.9639183" lon="15.15283"><ele>1052.0</ele><time>2026-04-26T11:32:16.045Z</time></trkpt><trkpt lat="37.9639717" lon="15.1526933"><ele>1052.0</ele><time>2026-04-26T11:32:18.045Z</time></trkpt><trkpt lat="37.96399" lon="15.1526067"><ele>1052.0</ele><time>2026-04-26T11:32:19.045Z</time></trkpt><trkpt lat="37.9640383" lon="15.1524717"><ele>1052.0</ele><time>2026-04-26T11:32:21.045Z</time></trkpt><trkpt lat="37.9641" lon="15.152405"><ele>1052.0</ele><time>2026-04-26T11:32:23.046Z</time></trkpt><trkpt lat="37.9641767" lon="15.1523633"><ele>1052.0</ele><time>2026-04-26T11:32:25.045Z</time></trkpt><trkpt lat="37.9642783" lon="15.152275"><ele>1051.0</ele><time>2026-04-26T11:32:27.045Z</time></trkpt><trkpt lat="37.9643517" lon="15.1521483"><ele>1050.0</ele><time>2026-04-26T11:32:29.045Z</time></trkpt><trkpt lat="37.9643767" lon="15.152055"><ele>1049.0</ele><time>2026-04-26T11:32:30.045Z</time></trkpt><trkpt lat="37.9643983" lon="15.15197"><ele>1048.0</ele><time>2026-04-26T11:32:31.045Z</time></trkpt><trkpt lat="37.964425" lon="15.1518883"><ele>1047.0</ele><time>2026-04-26T11:32:32.045Z</time></trkpt><trkpt lat="37.9644733" lon="15.1517833"><ele>1046.0</ele><time>2026-04-26T11:32:34.045Z</time></trkpt><trkpt lat="37.9645283" lon="15.1517283"><ele>1046.0</ele><time>2026-04-26T11:32:38.045Z</time></trkpt><trkpt lat="37.9646117" lon="15.151735"><ele>1046.0</ele><time>2026-04-26T11:32:41.045Z</time></trkpt><trkpt lat="37.9647133" lon="15.1517533"><ele>1046.0</ele><time>2026-04-26T11:32:43.045Z</time></trkpt><trkpt lat="37.964805" lon="15.1517933"><ele>1046.0</ele><time>2026-04-26T11:32:45.045Z</time></trkpt><trkpt lat="37.9648667" lon="15.1518167"><ele>1046.0</ele><time>2026-04-26T11:32:46.045Z</time></trkpt><trkpt lat="37.9649317" lon="15.1518367"><ele>1046.0</ele><time>2026-04-26T11:32:47.045Z</time></trkpt><trkpt lat="37.96504" lon="15.151895"><ele>1045.6</ele><time>2026-04-26T11:32:49.045Z</time></trkpt><trkpt lat="37.9651417" lon="15.1519717"><ele>1045.1999999999998</ele><time>2026-04-26T11:32:51.045Z</time></trkpt><trkpt lat="37.96525" lon="15.1520617"><ele>1044.8000000000002</ele><time>2026-04-26T11:32:53.045Z</time></trkpt><trkpt lat="37.9653217" lon="15.1521117"><ele>1044.4</ele><time>2026-04-26T11:32:54.046Z</time></trkpt><trkpt lat="37.9654017" lon="15.152145"><ele>1044.0</ele><time>2026-04-26T11:32:55.045Z</time></trkpt><trkpt lat="37.96548" lon="15.1521683"><ele>1044.0</ele><time>2026-04-26T11:32:56.045Z</time></trkpt><trkpt lat="37.9655633" lon="15.1521883"><ele>1044.0</ele><time>2026-04-26T11:32:57.045Z</time></trkpt><trkpt lat="37.9656517" lon="15.1521983"><ele>1044.0</ele><time>2026-04-26T11:32:58.045Z</time></trkpt><trkpt lat="37.9657583" lon="15.1522083"><ele>1044.0</ele><time>2026-04-26T11:32:59.045Z</time></trkpt><trkpt lat="37.9658583" lon="15.1522067"><ele>1044.0</ele><time>2026-04-26T11:33:00.046Z</time></trkpt><trkpt lat="37.96596" lon="15.152195"><ele>1045.2</ele><time>2026-04-26T11:33:01.045Z</time></trkpt><trkpt lat="37.9660583" lon="15.1521833"><ele>1046.4</ele><time>2026-04-26T11:33:02.045Z</time></trkpt><trkpt lat="37.9661533" lon="15.1521683"><ele>1047.6</ele><time>2026-04-26T11:33:03.046Z</time></trkpt><trkpt lat="37.966255" lon="15.1521367"><ele>1048.8</ele><time>2026-04-26T11:33:04.045Z</time></trkpt><trkpt lat="37.9663517" lon="15.1521017"><ele>1050.0</ele><time>2026-04-26T11:33:05.045Z</time></trkpt><trkpt lat="37.9664483" lon="15.1520733"><ele>1050.0</ele><time>2026-04-26T11:33:06.045Z</time></trkpt><trkpt lat="37.9665367" lon="15.1520433"><ele>1050.0</ele><time>2026-04-26T11:33:07.045Z</time></trkpt><trkpt lat="37.9666283" lon="15.1520317"><ele>1050.0</ele><time>2026-04-26T11:33:08.045Z</time></trkpt><trkpt lat="37.9667167" lon="15.152015"><ele>1050.0</ele><time>2026-04-26T11:33:09.045Z</time></trkpt><trkpt lat="37.9667867" lon="15.152"><ele>1050.0</ele><time>2026-04-26T11:33:10.045Z</time></trkpt><trkpt lat="37.9668767" lon="15.152015"><ele>1050.0</ele><time>2026-04-26T11:33:12.045Z</time></trkpt><trkpt lat="37.966955" lon="15.1520333"><ele>1051.2</ele><time>2026-04-26T11:33:44.045Z</time></trkpt><trkpt lat="37.9670917" lon="15.1520083"><ele>1052.4</ele><time>2026-04-26T11:33:46.045Z</time></trkpt><trkpt lat="37.9671717" lon="15.151985"><ele>1053.6</ele><time>2026-04-26T11:33:47.045Z</time></trkpt><trkpt lat="37.96724" lon="15.15195"><ele>1054.8</ele><time>2026-04-26T11:33:48.045Z</time></trkpt><trkpt lat="37.9673067" lon="15.151915"><ele>1056.0</ele><time>2026-04-26T11:33:49.045Z</time></trkpt><trkpt lat="37.96741" lon="15.15187"><ele>1056.0</ele><time>2026-04-26T11:33:51.045Z</time></trkpt><trkpt lat="37.9674783" lon="15.1519517"><ele>1056.0</ele><time>2026-04-26T11:33:54.045Z</time></trkpt><trkpt lat="37.96748" lon="15.1520967"><ele>1056.0</ele><time>2026-04-26T11:33:56.045Z</time></trkpt><trkpt lat="37.9674683" lon="15.1521933"><ele>1056.0</ele><time>2026-04-26T11:33:57.046Z</time></trkpt><trkpt lat="37.9674367" lon="15.1523117"><ele>1056.0</ele><time>2026-04-26T11:33:58.045Z</time></trkpt><trkpt lat="37.9673933" lon="15.1524433"><ele>1058.3999999999999</ele><time>2026-04-26T11:33:59.045Z</time></trkpt><trkpt lat="37.9673467" lon="15.152575"><ele>1060.8</ele><time>2026-04-26T11:34:00.045Z</time></trkpt><trkpt lat="37.9672917" lon="15.1527033"><ele>1063.1999999999998</ele><time>2026-04-26T11:34:01.045Z</time></trkpt><trkpt lat="37.9672383" lon="15.15282"><ele>1065.6</ele><time>2026-04-26T11:34:02.045Z</time></trkpt><trkpt lat="37.967185" lon="15.1529267"><ele>1068.0</ele><time>2026-04-26T11:34:03.045Z</time></trkpt><trkpt lat="37.9671367" lon="15.15302"><ele>1068.0</ele><time>2026-04-26T11:34:04.045Z</time></trkpt><trkpt lat="37.96708" lon="15.1531017"><ele>1068.0</ele><time>2026-04-26T11:34:05.045Z</time></trkpt><trkpt lat="37.9670183" lon="15.15316"><ele>1068.0</ele><time>2026-04-26T11:34:06.045Z</time></trkpt><trkpt lat="37.9669617" lon="15.15321"><ele>1068.0</ele><time>2026-04-26T11:34:07.046Z</time></trkpt><trkpt lat="37.9669017" lon="15.1532583"><ele>1068.0</ele><time>2026-04-26T11:34:08.045Z</time></trkpt><trkpt lat="37.9668367" lon="15.1533183"><ele>1068.0</ele><time>2026-04-26T11:34:09.045Z</time></trkpt><trkpt lat="37.9667717" lon="15.1533867"><ele>1068.6666666666667</ele><time>2026-04-26T11:34:10.045Z</time></trkpt><trkpt lat="37.9667017" lon="15.1534633"><ele>1069.3333333333333</ele><time>2026-04-26T11:34:11.045Z</time></trkpt><trkpt lat="37.9666367" lon="15.1535217"><ele>1070.0</ele><time>2026-04-26T11:34:12.045Z</time></trkpt><trkpt lat="37.966565" lon="15.1535717"><ele>1070.6666666666665</ele><time>2026-04-26T11:34:13.045Z</time></trkpt><trkpt lat="37.9665017" lon="15.1536183"><ele>1071.3333333333333</ele><time>2026-04-26T11:34:14.045Z</time></trkpt><trkpt lat="37.9664467" lon="15.1536733"><ele>1072.0</ele><time>2026-04-26T11:34:15.045Z</time></trkpt><trkpt lat="37.9663967" lon="15.1537367"><ele>1072.0</ele><time>2026-04-26T11:34:16.045Z</time></trkpt><trkpt lat="37.9663417" lon="15.1538033"><ele>1072.0</ele><time>2026-04-26T11:34:17.045Z</time></trkpt><trkpt lat="37.9662867" lon="15.15386"><ele>1072.0</ele><time>2026-04-26T11:34:18.045Z</time></trkpt><trkpt lat="37.96623" lon="15.1539233"><ele>1072.0</ele><time>2026-04-26T11:34:19.045Z</time></trkpt><trkpt lat="37.9661867" lon="15.1540167"><ele>1072.0</ele><time>2026-04-26T11:34:20.045Z</time></trkpt><trkpt lat="37.966145" lon="15.1541217"><ele>1072.0</ele><time>2026-04-26T11:34:21.045Z</time></trkpt><trkpt lat="37.9661067" lon="15.15423"><ele>1072.6666666666665</ele><time>2026-04-26T11:34:22.045Z</time></trkpt><trkpt lat="37.9660617" lon="15.1543233"><ele>1073.3333333333333</ele><time>2026-04-26T11:34:23.045Z</time></trkpt><trkpt lat="37.9660083" lon="15.1544067"><ele>1074.0</ele><time>2026-04-26T11:34:24.045Z</time></trkpt><trkpt lat="37.965955" lon="15.1544767"><ele>1074.6666666666667</ele><time>2026-04-26T11:34:25.045Z</time></trkpt><trkpt lat="37.9658967" lon="15.1545367"><ele>1075.3333333333335</ele><time>2026-04-26T11:34:26.045Z</time></trkpt><trkpt lat="37.9658367" lon="15.1546067"><ele>1076.0</ele><time>2026-04-26T11:34:27.045Z</time></trkpt><trkpt lat="37.9657933" lon="15.1546733"><ele>1076.0</ele><time>2026-04-26T11:34:28.045Z</time></trkpt><trkpt lat="37.965725" lon="15.15475"><ele>1076.0</ele><time>2026-04-26T11:34:30.045Z</time></trkpt><trkpt lat="37.9656683" lon="15.1548167"><ele>1076.0</ele><time>2026-04-26T11:34:32.045Z</time></trkpt><trkpt lat="37.9656067" lon="15.1548783"><ele>1076.0</ele><time>2026-04-26T11:35:03.045Z</time></trkpt><trkpt lat="37.9655517" lon="15.1549717"><ele>1076.0</ele><time>2026-04-26T11:35:05.045Z</time></trkpt><trkpt lat="37.9654883" lon="15.155085"><ele>1076.0</ele><time>2026-04-26T11:35:07.045Z</time></trkpt><trkpt lat="37.965405" lon="15.1552083"><ele>1073.7142857142858</ele><time>2026-04-26T11:35:09.045Z</time></trkpt><trkpt lat="37.9653617" lon="15.1552667"><ele>1071.4285714285716</ele><time>2026-04-26T11:35:10.045Z</time></trkpt><trkpt lat="37.9653267" lon="15.1553417"><ele>1069.142857142857</ele><time>2026-04-26T11:35:11.045Z</time></trkpt><trkpt lat="37.9653017" lon="15.15542"><ele>1066.857142857143</ele><time>2026-04-26T11:35:12.045Z</time></trkpt><trkpt lat="37.9652733" lon="15.1555133"><ele>1064.5714285714284</ele><time>2026-04-26T11:35:13.045Z</time></trkpt><trkpt lat="37.9652533" lon="15.1556117"><ele>1062.2857142857142</ele><time>2026-04-26T11:35:14.045Z</time></trkpt><trkpt lat="37.9652333" lon="15.155715"><ele>1060.0</ele><time>2026-04-26T11:35:15.045Z</time></trkpt><trkpt lat="37.9652067" lon="15.1558083"><ele>1058.3333333333333</ele><time>2026-04-26T11:35:16.045Z</time></trkpt><trkpt lat="37.9651717" lon="15.155905"><ele>1056.6666666666665</ele><time>2026-04-26T11:35:17.045Z</time></trkpt><trkpt lat="37.9651233" lon="15.1559933"><ele>1055.0</ele><time>2026-04-26T11:35:18.045Z</time></trkpt><trkpt lat="37.9650883" lon="15.156105"><ele>1053.3333333333333</ele><time>2026-04-26T11:35:19.045Z</time></trkpt><trkpt lat="37.96505" lon="15.1562133"><ele>1051.6666666666667</ele><time>2026-04-26T11:35:20.045Z</time></trkpt><trkpt lat="37.9650317" lon="15.1563283"><ele>1050.0</ele><time>2026-04-26T11:35:21.045Z</time></trkpt><trkpt lat="37.9650117" lon="15.1564417"><ele>1055.0</ele><time>2026-04-26T11:35:22.045Z</time></trkpt><trkpt lat="37.9649883" lon="15.1565567"><ele>1060.0</ele><time>2026-04-26T11:35:23.045Z</time></trkpt><trkpt lat="37.96496" lon="15.1566633"><ele>1065.0</ele><time>2026-04-26T11:35:24.045Z</time></trkpt><trkpt lat="37.9649283" lon="15.1567633"><ele>1070.0</ele><time>2026-04-26T11:35:25.045Z</time></trkpt><trkpt lat="37.9648833" lon="15.15686"><ele>1075.0</ele><time>2026-04-26T11:35:26.045Z</time></trkpt><trkpt lat="37.9648417" lon="15.156955"><ele>1080.0</ele><time>2026-04-26T11:35:27.045Z</time></trkpt><trkpt lat="37.9648233" lon="15.1570533"><ele>1080.0</ele><time>2026-04-26T11:35:28.045Z</time></trkpt><trkpt lat="37.9648267" lon="15.157165"><ele>1080.0</ele><time>2026-04-26T11:35:29.045Z</time></trkpt><trkpt lat="37.9648483" lon="15.1572783"><ele>1080.0</ele><time>2026-04-26T11:35:30.045Z</time></trkpt><trkpt lat="37.96487" lon="15.157385"><ele>1080.0</ele><time>2026-04-26T11:35:31.045Z</time></trkpt><trkpt lat="37.964865" lon="15.157505"><ele>1080.0</ele><time>2026-04-26T11:35:32.045Z</time></trkpt><trkpt lat="37.9648617" lon="15.1576467"><ele>1080.4</ele><time>2026-04-26T11:35:33.045Z</time></trkpt><trkpt lat="37.9648533" lon="15.15779"><ele>1080.8</ele><time>2026-04-26T11:35:34.046Z</time></trkpt><trkpt lat="37.9648517" lon="15.1579283"><ele>1081.2</ele><time>2026-04-26T11:35:35.045Z</time></trkpt><trkpt lat="37.9648583" lon="15.15805"><ele>1081.6</ele><time>2026-04-26T11:35:36.045Z</time></trkpt><trkpt lat="37.9648717" lon="15.1581617"><ele>1082.0</ele><time>2026-04-26T11:35:37.045Z</time></trkpt><trkpt lat="37.9648867" lon="15.1582667"><ele>1082.0</ele><time>2026-04-26T11:35:38.045Z</time></trkpt><trkpt lat="37.9648917" lon="15.158365"><ele>1082.0</ele><time>2026-04-26T11:35:39.046Z</time></trkpt><trkpt lat="37.964885" lon="15.1584617"><ele>1082.0</ele><time>2026-04-26T11:35:40.045Z</time></trkpt><trkpt lat="37.9648767" lon="15.1585583"><ele>1082.0</ele><time>2026-04-26T11:35:41.045Z</time></trkpt><trkpt lat="37.9648767" lon="15.15866"><ele>1082.0</ele><time>2026-04-26T11:35:42.045Z</time></trkpt><trkpt lat="37.96488" lon="15.1587483"><ele>1082.0</ele><time>2026-04-26T11:35:43.045Z</time></trkpt><trkpt lat="37.9648717" lon="15.158835"><ele>1082.0</ele><time>2026-04-26T11:35:44.045Z</time></trkpt><trkpt lat="37.9648517" lon="15.1589183"><ele>1082.0</ele><time>2026-04-26T11:35:45.045Z</time></trkpt><trkpt lat="37.9648267" lon="15.1589933"><ele>1082.0</ele><time>2026-04-26T11:35:46.045Z</time></trkpt><trkpt lat="37.9647717" lon="15.1591183"><ele>1082.0</ele><time>2026-04-26T11:35:48.045Z</time></trkpt><trkpt lat="37.96472" lon="15.1592433"><ele>1082.0</ele><time>2026-04-26T11:35:50.045Z</time></trkpt><trkpt lat="37.9646867" lon="15.1593167"><ele>1082.0</ele><time>2026-04-26T11:35:51.044Z</time></trkpt><trkpt lat="37.9646583" lon="15.1593883"><ele>1082.8333333333335</ele><time>2026-04-26T11:35:52.044Z</time></trkpt><trkpt lat="37.9645733" lon="15.1594967"><ele>1083.6666666666667</ele><time>2026-04-26T11:35:54.044Z</time></trkpt><trkpt lat="37.9645183" lon="15.1595433"><ele>1084.5</ele><time>2026-04-26T11:35:55.044Z</time></trkpt><trkpt lat="37.9644467" lon="15.1595833"><ele>1085.3333333333333</ele><time>2026-04-26T11:35:56.044Z</time></trkpt><trkpt lat="37.9643667" lon="15.1596083"><ele>1086.1666666666665</ele><time>2026-04-26T11:35:57.044Z</time></trkpt><trkpt lat="37.9642867" lon="15.1596167"><ele>1087.0</ele><time>2026-04-26T11:35:58.044Z</time></trkpt><trkpt lat="37.9642067" lon="15.1596133"><ele>1091.8333333333333</ele><time>2026-04-26T11:35:59.044Z</time></trkpt><trkpt lat="37.9641267" lon="15.1596117"><ele>1096.6666666666665</ele><time>2026-04-26T11:36:00.044Z</time></trkpt><trkpt lat="37.96404" lon="15.159615"><ele>1101.5</ele><time>2026-04-26T11:36:01.044Z</time></trkpt><trkpt lat="37.963955" lon="15.159635"><ele>1106.3333333333333</ele><time>2026-04-26T11:36:02.044Z</time></trkpt><trkpt lat="37.96387" lon="15.1596667"><ele>1111.1666666666667</ele><time>2026-04-26T11:36:03.044Z</time></trkpt><trkpt lat="37.96379" lon="15.1597133"><ele>1116.0</ele><time>2026-04-26T11:36:04.045Z</time></trkpt><trkpt lat="37.963705" lon="15.1597733"><ele>1116.0</ele><time>2026-04-26T11:36:05.044Z</time></trkpt><trkpt lat="37.9636283" lon="15.1598433"><ele>1116.0</ele><time>2026-04-26T11:36:06.044Z</time></trkpt><trkpt lat="37.96356" lon="15.1599117"><ele>1116.0</ele><time>2026-04-26T11:36:07.044Z</time></trkpt><trkpt lat="37.96349" lon="15.15998"><ele>1116.0</ele><time>2026-04-26T11:36:08.044Z</time></trkpt><trkpt lat="37.96342" lon="15.160045"><ele>1116.0</ele><time>2026-04-26T11:36:09.044Z</time></trkpt><trkpt lat="37.9633567" lon="15.160105"><ele>1116.0</ele><time>2026-04-26T11:36:10.044Z</time></trkpt><trkpt lat="37.9632833" lon="15.1601483"><ele>1114.3999999999999</ele><time>2026-04-26T11:36:11.044Z</time></trkpt><trkpt lat="37.9632033" lon="15.1601933"><ele>1112.8</ele><time>2026-04-26T11:36:12.044Z</time></trkpt><trkpt lat="37.96312" lon="15.1602467"><ele>1111.1999999999998</ele><time>2026-04-26T11:36:13.044Z</time></trkpt><trkpt lat="37.9630317" lon="15.1603083"><ele>1109.6</ele><time>2026-04-26T11:36:14.044Z</time></trkpt><trkpt lat="37.96295" lon="15.16038"><ele>1108.0</ele><time>2026-04-26T11:36:15.044Z</time></trkpt><trkpt lat="37.9628683" lon="15.160465"><ele>1108.0</ele><time>2026-04-26T11:36:16.044Z</time></trkpt><trkpt lat="37.96278" lon="15.16055"><ele>1108.0</ele><time>2026-04-26T11:36:17.044Z</time></trkpt><trkpt lat="37.9626983" lon="15.1606317"><ele>1108.0</ele><time>2026-04-26T11:36:18.044Z</time></trkpt><trkpt lat="37.9626217" lon="15.1607267"><ele>1108.0</ele><time>2026-04-26T11:36:19.044Z</time></trkpt><trkpt lat="37.9625483" lon="15.1608283"><ele>1108.0</ele><time>2026-04-26T11:36:20.044Z</time></trkpt><trkpt lat="37.96249" lon="15.1609283"><ele>1108.1666666666665</ele><time>2026-04-26T11:36:21.044Z</time></trkpt><trkpt lat="37.9624417" lon="15.1610367"><ele>1108.3333333333333</ele><time>2026-04-26T11:36:22.044Z</time></trkpt><trkpt lat="37.9623917" lon="15.1611267"><ele>1108.5</ele><time>2026-04-26T11:36:23.044Z</time></trkpt><trkpt lat="37.9623367" lon="15.1612083"><ele>1108.6666666666667</ele><time>2026-04-26T11:36:24.044Z</time></trkpt><trkpt lat="37.9622617" lon="15.1612683"><ele>1108.8333333333335</ele><time>2026-04-26T11:36:25.045Z</time></trkpt><trkpt lat="37.9621917" lon="15.1613133"><ele>1109.0</ele><time>2026-04-26T11:36:26.044Z</time></trkpt><trkpt lat="37.9621267" lon="15.1613517"><ele>1109.0</ele><time>2026-04-26T11:36:27.044Z</time></trkpt><trkpt lat="37.962035" lon="15.16139"><ele>1109.0</ele><time>2026-04-26T11:36:29.044Z</time></trkpt><trkpt lat="37.9619717" lon="15.1613783"><ele>1109.0</ele><time>2026-04-26T11:36:31.044Z</time></trkpt><trkpt lat="37.96186" lon="15.16135"><ele>1109.0</ele><time>2026-04-26T11:36:33.044Z</time></trkpt><trkpt lat="37.9617833" lon="15.1613433"><ele>1109.0</ele><time>2026-04-26T11:36:34.044Z</time></trkpt><trkpt lat="37.9617" lon="15.1613433"><ele>1109.0</ele><time>2026-04-26T11:36:35.044Z</time></trkpt><trkpt lat="37.9615867" lon="15.161355"><ele>1115.4</ele><time>2026-04-26T11:36:36.044Z</time></trkpt><trkpt lat="37.9614567" lon="15.1613667"><ele>1121.8000000000002</ele><time>2026-04-26T11:36:37.044Z</time></trkpt><trkpt lat="37.9613367" lon="15.16139"><ele>1128.1999999999998</ele><time>2026-04-26T11:36:38.044Z</time></trkpt><trkpt lat="37.96123" lon="15.1614017"><ele>1134.6</ele><time>2026-04-26T11:36:39.044Z</time></trkpt><trkpt lat="37.96114" lon="15.1614067"><ele>1141.0</ele><time>2026-04-26T11:36:40.044Z</time></trkpt><trkpt lat="37.961055" lon="15.1614017"><ele>1141.0</ele><time>2026-04-26T11:36:41.044Z</time></trkpt><trkpt lat="37.960975" lon="15.1613867"><ele>1141.0</ele><time>2026-04-26T11:36:42.045Z</time></trkpt><trkpt lat="37.9608667" lon="15.16136"><ele>1141.0</ele><time>2026-04-26T11:36:43.044Z</time></trkpt><trkpt lat="37.960765" lon="15.1613467"><ele>1141.0</ele><time>2026-04-26T11:36:44.044Z</time></trkpt><trkpt lat="37.96067" lon="15.1613583"><ele>1141.0</ele><time>2026-04-26T11:36:45.044Z</time></trkpt><trkpt lat="37.9605733" lon="15.1613767"><ele>1142.6666666666665</ele><time>2026-04-26T11:36:46.044Z</time></trkpt><trkpt lat="37.960485" lon="15.161395"><ele>1144.3333333333333</ele><time>2026-04-26T11:36:47.044Z</time></trkpt><trkpt lat="37.9604133" lon="15.1614133"><ele>1146.0</ele><time>2026-04-26T11:36:48.045Z</time></trkpt><trkpt lat="37.9603517" lon="15.1614333"><ele>1147.6666666666667</ele><time>2026-04-26T11:36:49.044Z</time></trkpt><trkpt lat="37.9602517" lon="15.1614167"><ele>1149.3333333333335</ele><time>2026-04-26T11:36:51.044Z</time></trkpt><trkpt lat="37.960165" lon="15.1613367"><ele>1151.0</ele><time>2026-04-26T11:36:53.044Z</time></trkpt><trkpt lat="37.9601033" lon="15.16129"><ele>1154.2</ele><time>2026-04-26T11:36:54.044Z</time></trkpt><trkpt lat="37.9600283" lon="15.1612533"><ele>1157.3999999999999</ele><time>2026-04-26T11:36:55.044Z</time></trkpt><trkpt lat="37.9599483" lon="15.1612267"><ele>1160.6</ele><time>2026-04-26T11:36:56.044Z</time></trkpt><trkpt lat="37.9598417" lon="15.1612417"><ele>1163.8</ele><time>2026-04-26T11:36:57.044Z</time></trkpt><trkpt lat="37.9597233" lon="15.161265"><ele>1167.0</ele><time>2026-04-26T11:36:58.044Z</time></trkpt><trkpt lat="37.9596033" lon="15.161295"><ele>1167.0</ele><time>2026-04-26T11:36:59.044Z</time></trkpt><trkpt lat="37.95947" lon="15.1613367"><ele>1167.0</ele><time>2026-04-26T11:37:00.044Z</time></trkpt><trkpt lat="37.9593533" lon="15.1613667"><ele>1167.0</ele><time>2026-04-26T11:37:01.044Z</time></trkpt><trkpt lat="37.9592367" lon="15.1613933"><ele>1167.0</ele><time>2026-04-26T11:37:02.044Z</time></trkpt><trkpt lat="37.9591217" lon="15.1613983"><ele>1169.2</ele><time>2026-04-26T11:37:03.044Z</time></trkpt><trkpt lat="37.9590133" lon="15.1614"><ele>1171.4</ele><time>2026-04-26T11:37:04.044Z</time></trkpt><trkpt lat="37.9589083" lon="15.1613983"><ele>1173.6</ele><time>2026-04-26T11:37:05.044Z</time></trkpt><trkpt lat="37.9588183" lon="15.1614183"><ele>1175.8</ele><time>2026-04-26T11:37:06.044Z</time></trkpt><trkpt lat="37.9587267" lon="15.1614417"><ele>1178.0</ele><time>2026-04-26T11:37:07.044Z</time></trkpt><trkpt lat="37.9586317" lon="15.1614967"><ele>1172.5</ele><time>2026-04-26T11:37:08.044Z</time></trkpt><trkpt lat="37.9585217" lon="15.1615517"><ele>1167.0</ele><time>2026-04-26T11:37:09.044Z</time></trkpt><trkpt lat="37.9583933" lon="15.1616117"><ele>1161.5</ele><time>2026-04-26T11:37:10.044Z</time></trkpt><trkpt lat="37.9582617" lon="15.161665"><ele>1156.0</ele><time>2026-04-26T11:37:11.044Z</time></trkpt><trkpt lat="37.9581433" lon="15.16172"><ele>1156.0</ele><time>2026-04-26T11:37:12.044Z</time></trkpt><trkpt lat="37.9580317" lon="15.1618267"><ele>1156.0</ele><time>2026-04-26T11:37:13.045Z</time></trkpt><trkpt lat="37.957915" lon="15.161895"><ele>1156.0</ele><time>2026-04-26T11:37:14.044Z</time></trkpt><trkpt lat="37.9578033" lon="15.161965"><ele>1156.0</ele><time>2026-04-26T11:37:15.045Z</time></trkpt><trkpt lat="37.9577033" lon="15.1620133"><ele>1156.0</ele><time>2026-04-26T11:37:16.044Z</time></trkpt><trkpt lat="37.9576117" lon="15.1620883"><ele>1156.0</ele><time>2026-04-26T11:37:17.044Z</time></trkpt><trkpt lat="37.95755" lon="15.1621617"><ele>1156.0</ele><time>2026-04-26T11:37:18.044Z</time></trkpt><trkpt lat="37.9574867" lon="15.1622317"><ele>1156.0</ele><time>2026-04-26T11:37:19.044Z</time></trkpt><trkpt lat="37.9574017" lon="15.1623417"><ele>1156.0</ele><time>2026-04-26T11:37:21.044Z</time></trkpt><trkpt lat="37.9573383" lon="15.1624367"><ele>1155.2</ele><time>2026-04-26T11:37:23.044Z</time></trkpt><trkpt lat="37.9573033" lon="15.1625383"><ele>1154.3999999999999</ele><time>2026-04-26T11:37:25.044Z</time></trkpt><trkpt lat="37.9573233" lon="15.162635"><ele>1153.6</ele><time>2026-04-26T11:37:27.044Z</time></trkpt><trkpt lat="37.9573383" lon="15.1627283"><ele>1152.8</ele><time>2026-04-26T11:37:30.044Z</time></trkpt><trkpt lat="37.9573683" lon="15.1628733"><ele>1152.0</ele><time>2026-04-26T11:38:14.044Z</time></trkpt><trkpt lat="37.9573883" lon="15.1629933"><ele>1152.0</ele><time>2026-04-26T11:38:16.044Z</time></trkpt><trkpt lat="37.9574" lon="15.16308"><ele>1152.0</ele><time>2026-04-26T11:38:17.044Z</time></trkpt><trkpt lat="37.9574117" lon="15.1631933"><ele>1152.0</ele><time>2026-04-26T11:38:18.044Z</time></trkpt><trkpt lat="37.9574233" lon="15.16329"><ele>1152.0</ele><time>2026-04-26T11:38:19.044Z</time></trkpt><trkpt lat="37.95743" lon="15.1633817"><ele>1152.0</ele><time>2026-04-26T11:38:20.044Z</time></trkpt><trkpt lat="37.9574417" lon="15.1634817"><ele>1152.0</ele><time>2026-04-26T11:38:21.044Z</time></trkpt><trkpt lat="37.9574533" lon="15.1635883"><ele>1151.3333333333333</ele><time>2026-04-26T11:38:22.044Z</time></trkpt><trkpt lat="37.9574717" lon="15.163695"><ele>1150.6666666666667</ele><time>2026-04-26T11:38:23.044Z</time></trkpt><trkpt lat="37.9574817" lon="15.1637783"><ele>1150.0</ele><time>2026-04-26T11:38:24.044Z</time></trkpt><trkpt lat="37.95746" lon="15.1638633"><ele>1149.3333333333335</ele><time>2026-04-26T11:38:25.044Z</time></trkpt><trkpt lat="37.957455" lon="15.1639767"><ele>1148.6666666666667</ele><time>2026-04-26T11:38:26.044Z</time></trkpt><trkpt lat="37.95742" lon="15.16409"><ele>1148.0</ele><time>2026-04-26T11:38:27.044Z</time></trkpt><trkpt lat="37.9573933" lon="15.1642283"><ele>1145.75</ele><time>2026-04-26T11:38:28.044Z</time></trkpt><trkpt lat="37.9573767" lon="15.16438"><ele>1143.5</ele><time>2026-04-26T11:38:29.044Z</time></trkpt><trkpt lat="37.957365" lon="15.1645283"><ele>1141.25</ele><time>2026-04-26T11:38:30.044Z</time></trkpt><trkpt lat="37.9573717" lon="15.164705"><ele>1139.0</ele><time>2026-04-26T11:38:31.044Z</time></trkpt><trkpt lat="37.9573817" lon="15.1648817"><ele>1137.75</ele><time>2026-04-26T11:38:32.044Z</time></trkpt><trkpt lat="37.95739" lon="15.16506"><ele>1136.5</ele><time>2026-04-26T11:38:33.044Z</time></trkpt><trkpt lat="37.9573833" lon="15.165215"><ele>1135.25</ele><time>2026-04-26T11:38:34.044Z</time></trkpt><trkpt lat="37.9573717" lon="15.165355"><ele>1134.0</ele><time>2026-04-26T11:38:35.044Z</time></trkpt><trkpt lat="37.95736" lon="15.165495"><ele>1134.0</ele><time>2026-04-26T11:38:36.044Z</time></trkpt><trkpt lat="37.9573383" lon="15.1656367"><ele>1134.0</ele><time>2026-04-26T11:38:37.044Z</time></trkpt><trkpt lat="37.9573067" lon="15.1657733"><ele>1134.0</ele><time>2026-04-26T11:38:38.044Z</time></trkpt><trkpt lat="37.9572833" lon="15.1659017"><ele>1134.0</ele><time>2026-04-26T11:38:39.044Z</time></trkpt><trkpt lat="37.95728" lon="15.16603"><ele>1134.0</ele><time>2026-04-26T11:38:40.045Z</time></trkpt><trkpt lat="37.9572767" lon="15.166145"><ele>1132.5</ele><time>2026-04-26T11:38:41.045Z</time></trkpt><trkpt lat="37.9572733" lon="15.1662533"><ele>1131.0</ele><time>2026-04-26T11:38:42.044Z</time></trkpt><trkpt lat="37.9572717" lon="15.166375"><ele>1129.5</ele><time>2026-04-26T11:38:43.044Z</time></trkpt><trkpt lat="37.9572583" lon="15.1664833"><ele>1128.0</ele><time>2026-04-26T11:38:44.044Z</time></trkpt><trkpt lat="37.957245" lon="15.1665817"><ele>1126.5</ele><time>2026-04-26T11:38:45.044Z</time></trkpt><trkpt lat="37.95724" lon="15.1666817"><ele>1125.0</ele><time>2026-04-26T11:38:46.044Z</time></trkpt><trkpt lat="37.9572467" lon="15.166785"><ele>1124.3333333333333</ele><time>2026-04-26T11:38:47.044Z</time></trkpt><trkpt lat="37.9572533" lon="15.1669"><ele>1123.6666666666667</ele><time>2026-04-26T11:38:48.045Z</time></trkpt><trkpt lat="37.957255" lon="15.16701"><ele>1123.0</ele><time>2026-04-26T11:38:49.044Z</time></trkpt><trkpt lat="37.9572367" lon="15.167105"><ele>1122.3333333333335</ele><time>2026-04-26T11:38:50.044Z</time></trkpt><trkpt lat="37.95722" lon="15.1671967"><ele>1121.6666666666667</ele><time>2026-04-26T11:38:51.044Z</time></trkpt><trkpt lat="37.9571967" lon="15.1672867"><ele>1121.0</ele><time>2026-04-26T11:38:52.044Z</time></trkpt><trkpt lat="37.9571817" lon="15.1673867"><ele>1118.8</ele><time>2026-04-26T11:38:53.044Z</time></trkpt><trkpt lat="37.957175" lon="15.1675017"><ele>1116.6</ele><time>2026-04-26T11:38:54.044Z</time></trkpt><trkpt lat="37.9571567" lon="15.1676217"><ele>1114.4</ele><time>2026-04-26T11:38:55.044Z</time></trkpt><trkpt lat="37.95714" lon="15.1677467"><ele>1112.2</ele><time>2026-04-26T11:38:56.044Z</time></trkpt><trkpt lat="37.9571183" lon="15.1678733"><ele>1110.0</ele><time>2026-04-26T11:38:57.044Z</time></trkpt><trkpt lat="37.957085" lon="15.1679867"><ele>1110.0</ele><time>2026-04-26T11:38:58.044Z</time></trkpt><trkpt lat="37.9570467" lon="15.168095"><ele>1110.0</ele><time>2026-04-26T11:38:59.044Z</time></trkpt><trkpt lat="37.957" lon="15.168205"><ele>1110.0</ele><time>2026-04-26T11:39:00.044Z</time></trkpt><trkpt lat="37.9569417" lon="15.1683133"><ele>1110.0</ele><time>2026-04-26T11:39:01.044Z</time></trkpt><trkpt lat="37.9568983" lon="15.1684167"><ele>1110.0</ele><time>2026-04-26T11:39:02.044Z</time></trkpt><trkpt lat="37.95686" lon="15.1685133"><ele>1111.6666666666667</ele><time>2026-04-26T11:39:03.044Z</time></trkpt><trkpt lat="37.9568167" lon="15.1685983"><ele>1113.3333333333333</ele><time>2026-04-26T11:39:04.044Z</time></trkpt><trkpt lat="37.9567683" lon="15.168655"><ele>1115.0</ele><time>2026-04-26T11:39:05.044Z</time></trkpt><trkpt lat="37.9567267" lon="15.1687183"><ele>1116.6666666666665</ele><time>2026-04-26T11:39:06.044Z</time></trkpt><trkpt lat="37.9566783" lon="15.1688617"><ele>1118.3333333333333</ele><time>2026-04-26T11:39:08.044Z</time></trkpt><trkpt lat="37.9566817" lon="15.1689567"><ele>1120.0</ele><time>2026-04-26T11:39:09.044Z</time></trkpt><trkpt lat="37.9566733" lon="15.1690567"><ele>1120.0</ele><time>2026-04-26T11:39:10.044Z</time></trkpt><trkpt lat="37.956645" lon="15.1692467"><ele>1120.0</ele><time>2026-04-26T11:39:12.044Z</time></trkpt><trkpt lat="37.9566283" lon="15.169355"><ele>1120.0</ele><time>2026-04-26T11:39:13.044Z</time></trkpt><trkpt lat="37.9566233" lon="15.169495"><ele>1120.0</ele><time>2026-04-26T11:39:14.044Z</time></trkpt><trkpt lat="37.95664" lon="15.16966"><ele>1120.0</ele><time>2026-04-26T11:39:15.044Z</time></trkpt><trkpt lat="37.9566633" lon="15.1698483"><ele>1120.0</ele><time>2026-04-26T11:39:16.044Z</time></trkpt><trkpt lat="37.95668" lon="15.1700317"><ele>1120.0</ele><time>2026-04-26T11:39:17.044Z</time></trkpt><trkpt lat="37.956695" lon="15.1702033"><ele>1120.0</ele><time>2026-04-26T11:39:18.044Z</time></trkpt><trkpt lat="37.9567117" lon="15.1703583"><ele>1110.2</ele><time>2026-04-26T11:39:19.044Z</time></trkpt><trkpt lat="37.9567283" lon="15.1705217"><ele>1100.4</ele><time>2026-04-26T11:39:20.044Z</time></trkpt><trkpt lat="37.956755" lon="15.1706683"><ele>1090.6</ele><time>2026-04-26T11:39:21.044Z</time></trkpt><trkpt lat="37.9567717" lon="15.1708"><ele>1080.8</ele><time>2026-04-26T11:39:22.044Z</time></trkpt><trkpt lat="37.956795" lon="15.1709067"><ele>1071.0</ele><time>2026-04-26T11:39:23.045Z</time></trkpt><trkpt lat="37.95683" lon="15.1710183"><ele>1071.0</ele><time>2026-04-26T11:39:24.044Z</time></trkpt><trkpt lat="37.9568733" lon="15.17116"><ele>1071.0</ele><time>2026-04-26T11:39:25.044Z</time></trkpt><trkpt lat="37.956925" lon="15.1713017"><ele>1071.0</ele><time>2026-04-26T11:39:26.045Z</time></trkpt><trkpt lat="37.956965" lon="15.1714533"><ele>1071.0</ele><time>2026-04-26T11:39:27.044Z</time></trkpt><trkpt lat="37.9570233" lon="15.1716067"><ele>1071.0</ele><time>2026-04-26T11:39:28.044Z</time></trkpt><trkpt lat="37.95708" lon="15.1717633"><ele>1071.0</ele><time>2026-04-26T11:39:29.045Z</time></trkpt><trkpt lat="37.9571117" lon="15.1719233"><ele>1071.0</ele><time>2026-04-26T11:39:30.044Z</time></trkpt><trkpt lat="37.9571333" lon="15.1720667"><ele>1071.0</ele><time>2026-04-26T11:39:31.044Z</time></trkpt><trkpt lat="37.957135" lon="15.1722117"><ele>1071.0</ele><time>2026-04-26T11:39:32.044Z</time></trkpt><trkpt lat="37.9571583" lon="15.1723333"><ele>1071.0</ele><time>2026-04-26T11:39:33.044Z</time></trkpt><trkpt lat="37.95718" lon="15.172455"><ele>1071.0</ele><time>2026-04-26T11:39:34.044Z</time></trkpt><trkpt lat="37.9571867" lon="15.1725633"><ele>1071.0</ele><time>2026-04-26T11:39:35.044Z</time></trkpt><trkpt lat="37.9571983" lon="15.1726733"><ele>1071.0</ele><time>2026-04-26T11:39:36.044Z</time></trkpt><trkpt lat="37.9572017" lon="15.172775"><ele>1072.3333333333333</ele><time>2026-04-26T11:39:37.044Z</time></trkpt><trkpt lat="37.9572367" lon="15.1729017"><ele>1073.6666666666667</ele><time>2026-04-26T11:39:38.044Z</time></trkpt><trkpt lat="37.9572833" lon="15.1730183"><ele>1075.0</ele><time>2026-04-26T11:39:39.045Z</time></trkpt><trkpt lat="37.9573033" lon="15.173115"><ele>1076.3333333333335</ele><time>2026-04-26T11:39:40.044Z</time></trkpt><trkpt lat="37.95733" lon="15.1732017"><ele>1077.6666666666667</ele><time>2026-04-26T11:39:41.044Z</time></trkpt><trkpt lat="37.9573517" lon="15.1732967"><ele>1079.0</ele><time>2026-04-26T11:39:42.044Z</time></trkpt><trkpt lat="37.9573683" lon="15.17338"><ele>1079.8333333333335</ele><time>2026-04-26T11:39:43.044Z</time></trkpt><trkpt lat="37.9573717" lon="15.1734733"><ele>1080.6666666666667</ele><time>2026-04-26T11:39:44.044Z</time></trkpt><trkpt lat="37.9573433" lon="15.1735633"><ele>1081.5</ele><time>2026-04-26T11:39:45.044Z</time></trkpt><trkpt lat="37.9573333" lon="15.1736533"><ele>1082.3333333333333</ele><time>2026-04-26T11:39:46.044Z</time></trkpt><trkpt lat="37.9573233" lon="15.1737583"><ele>1083.1666666666665</ele><time>2026-04-26T11:39:47.044Z</time></trkpt><trkpt lat="37.9573283" lon="15.1739083"><ele>1084.0</ele><time>2026-04-26T11:39:49.044Z</time></trkpt><trkpt lat="37.9573283" lon="15.1740183"><ele>1083.5</ele><time>2026-04-26T11:39:51.044Z</time></trkpt><trkpt lat="37.9573517" lon="15.1741183"><ele>1083.0</ele><time>2026-04-26T11:40:12.044Z</time></trkpt><trkpt lat="37.957375" lon="15.1742217"><ele>1082.5</ele><time>2026-04-26T11:40:14.044Z</time></trkpt><trkpt lat="37.95739" lon="15.1743083"><ele>1082.0</ele><time>2026-04-26T11:40:15.044Z</time></trkpt><trkpt lat="37.95741" lon="15.1744167"><ele>1081.5</ele><time>2026-04-26T11:40:16.044Z</time></trkpt><trkpt lat="37.957435" lon="15.1745167"><ele>1081.0</ele><time>2026-04-26T11:40:17.044Z</time></trkpt><trkpt lat="37.9574467" lon="15.1746183"><ele>1081.0</ele><time>2026-04-26T11:40:18.044Z</time></trkpt><trkpt lat="37.9574483" lon="15.174725"><ele>1081.0</ele><time>2026-04-26T11:40:19.044Z</time></trkpt><trkpt lat="37.9574383" lon="15.1748417"><ele>1081.0</ele><time>2026-04-26T11:40:20.044Z</time></trkpt><trkpt lat="37.95743" lon="15.1749633"><ele>1081.0</ele><time>2026-04-26T11:40:21.044Z</time></trkpt><trkpt lat="37.9574117" lon="15.175095"><ele>1081.0</ele><time>2026-04-26T11:40:22.044Z</time></trkpt><trkpt lat="37.9574017" lon="15.1752333"><ele>1080.2</ele><time>2026-04-26T11:40:23.044Z</time></trkpt><trkpt lat="37.9573917" lon="15.1753917"><ele>1079.3999999999999</ele><time>2026-04-26T11:40:24.044Z</time></trkpt><trkpt lat="37.9573867" lon="15.175535"><ele>1078.6</ele><time>2026-04-26T11:40:25.044Z</time></trkpt><trkpt lat="37.9573783" lon="15.1756667"><ele>1077.8</ele><time>2026-04-26T11:40:26.044Z</time></trkpt><trkpt lat="37.95737" lon="15.1757933"><ele>1077.0</ele><time>2026-04-26T11:40:27.044Z</time></trkpt><trkpt lat="37.957345" lon="15.175925"><ele>1076.2</ele><time>2026-04-26T11:40:28.044Z</time></trkpt><trkpt lat="37.9573417" lon="15.176065"><ele>1075.4</ele><time>2026-04-26T11:40:29.044Z</time></trkpt><trkpt lat="37.9573333" lon="15.1762017"><ele>1074.6</ele><time>2026-04-26T11:40:30.044Z</time></trkpt><trkpt lat="37.95733" lon="15.1763283"><ele>1073.8</ele><time>2026-04-26T11:40:31.044Z</time></trkpt><trkpt lat="37.9573333" lon="15.176455"><ele>1073.0</ele><time>2026-04-26T11:40:32.044Z</time></trkpt><trkpt lat="37.9573367" lon="15.1765817"><ele>1073.0</ele><time>2026-04-26T11:40:33.044Z</time></trkpt><trkpt lat="37.957365" lon="15.176715"><ele>1073.0</ele><time>2026-04-26T11:40:34.044Z</time></trkpt><trkpt lat="37.9573967" lon="15.176845"><ele>1073.0</ele><time>2026-04-26T11:40:35.044Z</time></trkpt><trkpt lat="37.9574333" lon="15.1769817"><ele>1073.0</ele><time>2026-04-26T11:40:36.044Z</time></trkpt><trkpt lat="37.957465" lon="15.1771183"><ele>1073.0</ele><time>2026-04-26T11:40:37.044Z</time></trkpt><trkpt lat="37.957495" lon="15.17726"><ele>1072.5</ele><time>2026-04-26T11:40:38.045Z</time></trkpt><trkpt lat="37.9575217" lon="15.1773967"><ele>1072.0</ele><time>2026-04-26T11:40:39.045Z</time></trkpt><trkpt lat="37.9575533" lon="15.17754"><ele>1071.5</ele><time>2026-04-26T11:40:40.044Z</time></trkpt><trkpt lat="37.957585" lon="15.177685"><ele>1071.0</ele><time>2026-04-26T11:40:41.044Z</time></trkpt><trkpt lat="37.95762" lon="15.1778367"><ele>1067.0</ele><time>2026-04-26T11:40:42.044Z</time></trkpt><trkpt lat="37.9576533" lon="15.17799"><ele>1063.0</ele><time>2026-04-26T11:40:43.044Z</time></trkpt><trkpt lat="37.95768" lon="15.1781433"><ele>1059.0</ele><time>2026-04-26T11:40:44.044Z</time></trkpt><trkpt lat="37.9577183" lon="15.1782917"><ele>1055.0</ele><time>2026-04-26T11:40:45.044Z</time></trkpt><trkpt lat="37.9577417" lon="15.17841"><ele>1055.0</ele><time>2026-04-26T11:40:46.044Z</time></trkpt><trkpt lat="37.95775" lon="15.1785317"><ele>1055.0</ele><time>2026-04-26T11:40:47.044Z</time></trkpt><trkpt lat="37.957755" lon="15.178645"><ele>1055.0</ele><time>2026-04-26T11:40:48.044Z</time></trkpt><trkpt lat="37.957755" lon="15.1787433"><ele>1055.0</ele><time>2026-04-26T11:40:49.044Z</time></trkpt><trkpt lat="37.9577617" lon="15.17885"><ele>1055.0</ele><time>2026-04-26T11:40:50.045Z</time></trkpt><trkpt lat="37.9577617" lon="15.1789367"><ele>1055.0</ele><time>2026-04-26T11:40:51.044Z</time></trkpt><trkpt lat="37.95775" lon="15.1790167"><ele>1056.6666666666667</ele><time>2026-04-26T11:40:52.044Z</time></trkpt><trkpt lat="37.9577167" lon="15.1791333"><ele>1058.3333333333335</ele><time>2026-04-26T11:40:54.045Z</time></trkpt><trkpt lat="37.9576933" lon="15.1792167"><ele>1060.0</ele><time>2026-04-26T11:40:57.044Z</time></trkpt><trkpt lat="37.9577683" lon="15.179305"><ele>1061.6666666666667</ele><time>2026-04-26T11:41:13.044Z</time></trkpt><trkpt lat="37.9578217" lon="15.17935"><ele>1063.3333333333333</ele><time>2026-04-26T11:41:14.044Z</time></trkpt><trkpt lat="37.95787" lon="15.1794117"><ele>1065.0</ele><time>2026-04-26T11:41:15.044Z</time></trkpt><trkpt lat="37.95792" lon="15.1794833"><ele>1065.0</ele><time>2026-04-26T11:41:16.044Z</time></trkpt><trkpt lat="37.957965" lon="15.1795667"><ele>1065.0</ele><time>2026-04-26T11:41:17.044Z</time></trkpt><trkpt lat="37.9580217" lon="15.1796433"><ele>1065.0</ele><time>2026-04-26T11:41:18.044Z</time></trkpt><trkpt lat="37.9580867" lon="15.1797217"><ele>1065.0</ele><time>2026-04-26T11:41:19.044Z</time></trkpt><trkpt lat="37.9581633" lon="15.179795"><ele>1065.0</ele><time>2026-04-26T11:41:20.044Z</time></trkpt><trkpt lat="37.9582667" lon="15.1798733"><ele>1065.2</ele><time>2026-04-26T11:41:21.044Z</time></trkpt><trkpt lat="37.958345" lon="15.1799467"><ele>1065.4</ele><time>2026-04-26T11:41:22.044Z</time></trkpt><trkpt lat="37.95843" lon="15.1800133"><ele>1065.6</ele><time>2026-04-26T11:41:23.044Z</time></trkpt><trkpt lat="37.9585083" lon="15.1800733"><ele>1065.8</ele><time>2026-04-26T11:41:24.044Z</time></trkpt><trkpt lat="37.9585867" lon="15.1801467"><ele>1066.0</ele><time>2026-04-26T11:41:25.044Z</time></trkpt><trkpt lat="37.9586717" lon="15.1802033"><ele>1066.0</ele><time>2026-04-26T11:41:26.044Z</time></trkpt><trkpt lat="37.9587567" lon="15.1802583"><ele>1066.0</ele><time>2026-04-26T11:41:27.044Z</time></trkpt><trkpt lat="37.9588433" lon="15.1803017"><ele>1066.0</ele><time>2026-04-26T11:41:28.044Z</time></trkpt><trkpt lat="37.9589183" lon="15.1803367"><ele>1066.0</ele><time>2026-04-26T11:41:29.044Z</time></trkpt><trkpt lat="37.959" lon="15.1803817"><ele>1066.0</ele><time>2026-04-26T11:41:30.044Z</time></trkpt><trkpt lat="37.95907" lon="15.1804483"><ele>1066.0</ele><time>2026-04-26T11:41:31.044Z</time></trkpt><trkpt lat="37.9591333" lon="15.1805467"><ele>1066.0</ele><time>2026-04-26T11:41:32.044Z</time></trkpt><trkpt lat="37.9591583" lon="15.1806433"><ele>1066.0</ele><time>2026-04-26T11:41:33.044Z</time></trkpt><trkpt lat="37.9591983" lon="15.1807667"><ele>1066.0</ele><time>2026-04-26T11:41:34.044Z</time></trkpt><trkpt lat="37.9592383" lon="15.1808833"><ele>1066.0</ele><time>2026-04-26T11:41:35.044Z</time></trkpt><trkpt lat="37.959295" lon="15.181"><ele>1066.0</ele><time>2026-04-26T11:41:36.044Z</time></trkpt><trkpt lat="37.959355" lon="15.18109"><ele>1064.6666666666665</ele><time>2026-04-26T11:41:37.044Z</time></trkpt><trkpt lat="37.9594317" lon="15.1811717"><ele>1063.3333333333333</ele><time>2026-04-26T11:41:38.044Z</time></trkpt><trkpt lat="37.959515" lon="15.18122"><ele>1062.0</ele><time>2026-04-26T11:41:39.044Z</time></trkpt><trkpt lat="37.9595917" lon="15.18125"><ele>1060.6666666666667</ele><time>2026-04-26T11:41:40.044Z</time></trkpt><trkpt lat="37.95967" lon="15.18128"><ele>1059.3333333333335</ele><time>2026-04-26T11:41:41.044Z</time></trkpt><trkpt lat="37.95975" lon="15.1813433"><ele>1058.0</ele><time>2026-04-26T11:41:42.044Z</time></trkpt><trkpt lat="37.959805" lon="15.1814283"><ele>1057.6</ele><time>2026-04-26T11:41:43.044Z</time></trkpt><trkpt lat="37.9598367" lon="15.1815367"><ele>1057.1999999999998</ele><time>2026-04-26T11:41:44.044Z</time></trkpt><trkpt lat="37.9598733" lon="15.1816483"><ele>1056.8</ele><time>2026-04-26T11:41:45.044Z</time></trkpt><trkpt lat="37.959925" lon="15.1817583"><ele>1056.3999999999999</ele><time>2026-04-26T11:41:46.044Z</time></trkpt><trkpt lat="37.959995" lon="15.181855"><ele>1056.0</ele><time>2026-04-26T11:41:47.044Z</time></trkpt><trkpt lat="37.96009" lon="15.1819417"><ele>1056.0</ele><time>2026-04-26T11:41:48.044Z</time></trkpt><trkpt lat="37.9602167" lon="15.1820233"><ele>1056.0</ele><time>2026-04-26T11:41:49.044Z</time></trkpt><trkpt lat="37.96035" lon="15.1821167"><ele>1056.0</ele><time>2026-04-26T11:41:50.044Z</time></trkpt><trkpt lat="37.9604683" lon="15.182215"><ele>1056.0</ele><time>2026-04-26T11:41:51.044Z</time></trkpt><trkpt lat="37.960585" lon="15.1823217"><ele>1056.5</ele><time>2026-04-26T11:41:52.044Z</time></trkpt><trkpt lat="37.9607" lon="15.18241"><ele>1057.0</ele><time>2026-04-26T11:41:53.044Z</time></trkpt><trkpt lat="37.9608067" lon="15.1824833"><ele>1057.5</ele><time>2026-04-26T11:41:54.044Z</time></trkpt><trkpt lat="37.9608983" lon="15.1825433"><ele>1058.0</ele><time>2026-04-26T11:41:55.044Z</time></trkpt><trkpt lat="37.960985" lon="15.1826"><ele>1058.0</ele><time>2026-04-26T11:41:56.045Z</time></trkpt><trkpt lat="37.9610683" lon="15.1826517"><ele>1058.0</ele><time>2026-04-26T11:41:57.044Z</time></trkpt><trkpt lat="37.9611567" lon="15.1827"><ele>1058.0</ele><time>2026-04-26T11:41:58.044Z</time></trkpt><trkpt lat="37.9612417" lon="15.182745"><ele>1058.0</ele><time>2026-04-26T11:41:59.044Z</time></trkpt><trkpt lat="37.961335" lon="15.1827833"><ele>1058.0</ele><time>2026-04-26T11:42:00.045Z</time></trkpt><trkpt lat="37.9614383" lon="15.1828233"><ele>1058.0</ele><time>2026-04-26T11:42:01.044Z</time></trkpt><trkpt lat="37.9615467" lon="15.1828517"><ele>1058.0</ele><time>2026-04-26T11:42:02.044Z</time></trkpt><trkpt lat="37.961665" lon="15.182885"><ele>1058.0</ele><time>2026-04-26T11:42:03.044Z</time></trkpt><trkpt lat="37.9617883" lon="15.1829267"><ele>1058.0</ele><time>2026-04-26T11:42:04.044Z</time></trkpt><trkpt lat="37.9619017" lon="15.182965"><ele>1054.4</ele><time>2026-04-26T11:42:05.044Z</time></trkpt><trkpt lat="37.962" lon="15.1830067"><ele>1050.8</ele><time>2026-04-26T11:42:06.044Z</time></trkpt><trkpt lat="37.9621" lon="15.1830417"><ele>1047.2</ele><time>2026-04-26T11:42:07.044Z</time></trkpt><trkpt lat="37.9621883" lon="15.1830717"><ele>1043.6</ele><time>2026-04-26T11:42:08.044Z</time></trkpt><trkpt lat="37.9622717" lon="15.1830867"><ele>1040.0</ele><time>2026-04-26T11:42:09.044Z</time></trkpt><trkpt lat="37.9623583" lon="15.1830983"><ele>1040.0000000000002</ele><time>2026-04-26T11:42:10.044Z</time></trkpt><trkpt lat="37.9624267" lon="15.1831083"><ele>1040.0</ele><time>2026-04-26T11:42:11.044Z</time></trkpt><trkpt lat="37.9625067" lon="15.18311"><ele>1040.0</ele><time>2026-04-26T11:42:12.044Z</time></trkpt><trkpt lat="37.9625883" lon="15.1831183"><ele>1040.0</ele><time>2026-04-26T11:42:13.044Z</time></trkpt><trkpt lat="37.9626583" lon="15.18313"><ele>1040.0</ele><time>2026-04-26T11:42:14.044Z</time></trkpt><trkpt lat="37.9627267" lon="15.1831433"><ele>1040.0000000000002</ele><time>2026-04-26T11:42:15.044Z</time></trkpt><trkpt lat="37.962795" lon="15.1831817"><ele>1040.0</ele><time>2026-04-26T11:42:16.044Z</time></trkpt><trkpt lat="37.9628583" lon="15.1832467"><ele>1038.6</ele><time>2026-04-26T11:42:17.044Z</time></trkpt><trkpt lat="37.9628917" lon="15.1833167"><ele>1037.2</ele><time>2026-04-26T11:42:18.044Z</time></trkpt><trkpt lat="37.9628867" lon="15.183475"><ele>1035.8</ele><time>2026-04-26T11:42:20.044Z</time></trkpt><trkpt lat="37.9628617" lon="15.1835817"><ele>1034.4</ele><time>2026-04-26T11:42:21.044Z</time></trkpt><trkpt lat="37.9628383" lon="15.1836983"><ele>1033.0</ele><time>2026-04-26T11:42:22.044Z</time></trkpt><trkpt lat="37.96282" lon="15.1837967"><ele>1033.0</ele><time>2026-04-26T11:42:23.044Z</time></trkpt><trkpt lat="37.9628417" lon="15.18392"><ele>1033.0</ele><time>2026-04-26T11:42:24.044Z</time></trkpt><trkpt lat="37.96289" lon="15.184045"><ele>1033.0</ele><time>2026-04-26T11:42:25.044Z</time></trkpt><trkpt lat="37.9629267" lon="15.1841633"><ele>1033.0</ele><time>2026-04-26T11:42:26.044Z</time></trkpt><trkpt lat="37.9629667" lon="15.1842833"><ele>1033.0</ele><time>2026-04-26T11:42:27.044Z</time></trkpt><trkpt lat="37.9630167" lon="15.1844067"><ele>1033.6</ele><time>2026-04-26T11:42:28.044Z</time></trkpt><trkpt lat="37.9630583" lon="15.18452"><ele>1034.1999999999998</ele><time>2026-04-26T11:42:29.044Z</time></trkpt><trkpt lat="37.9630883" lon="15.1846217"><ele>1034.8</ele><time>2026-04-26T11:42:30.044Z</time></trkpt><trkpt lat="37.9631067" lon="15.1847283"><ele>1035.3999999999999</ele><time>2026-04-26T11:42:31.044Z</time></trkpt><trkpt lat="37.96313" lon="15.1848383"><ele>1036.0</ele><time>2026-04-26T11:42:32.044Z</time></trkpt><trkpt lat="37.9631383" lon="15.1849567"><ele>1036.6</ele><time>2026-04-26T11:42:33.044Z</time></trkpt><trkpt lat="37.96315" lon="15.185085"><ele>1037.1999999999998</ele><time>2026-04-26T11:42:34.044Z</time></trkpt><trkpt lat="37.963185" lon="15.1852017"><ele>1037.8000000000002</ele><time>2026-04-26T11:42:35.044Z</time></trkpt><trkpt lat="37.9632133" lon="15.18534"><ele>1038.4</ele><time>2026-04-26T11:42:36.044Z</time></trkpt><trkpt lat="37.9632417" lon="15.1854917"><ele>1039.0</ele><time>2026-04-26T11:42:37.044Z</time></trkpt><trkpt lat="37.9632767" lon="15.18564"><ele>1037.5</ele><time>2026-04-26T11:42:38.044Z</time></trkpt><trkpt lat="37.96335" lon="15.1858167"><ele>1036.0</ele><time>2026-04-26T11:42:39.044Z</time></trkpt><trkpt lat="37.963405" lon="15.1859883"><ele>1034.5</ele><time>2026-04-26T11:42:40.044Z</time></trkpt><trkpt lat="37.9634633" lon="15.18614"><ele>1033.0</ele><time>2026-04-26T11:42:41.044Z</time></trkpt><trkpt lat="37.9635133" lon="15.1862667"><ele>1031.0</ele><time>2026-04-26T11:42:42.044Z</time></trkpt><trkpt lat="37.9635583" lon="15.1863583"><ele>1029.0</ele><time>2026-04-26T11:42:43.044Z</time></trkpt><trkpt lat="37.9636167" lon="15.1864617"><ele>1027.0</ele><time>2026-04-26T11:42:44.044Z</time></trkpt><trkpt lat="37.9636917" lon="15.1865517"><ele>1025.0</ele><time>2026-04-26T11:42:45.044Z</time></trkpt><trkpt lat="37.9637933" lon="15.1866567"><ele>1023.0</ele><time>2026-04-26T11:42:46.044Z</time></trkpt><trkpt lat="37.9639033" lon="15.186725"><ele>1023.0</ele><time>2026-04-26T11:42:47.044Z</time></trkpt><trkpt lat="37.9640183" lon="15.18678"><ele>1023.0</ele><time>2026-04-26T11:42:48.044Z</time></trkpt><trkpt lat="37.964135" lon="15.18683"><ele>1023.0</ele><time>2026-04-26T11:42:49.044Z</time></trkpt><trkpt lat="37.9642483" lon="15.1868783"><ele>1023.0</ele><time>2026-04-26T11:42:50.044Z</time></trkpt><trkpt lat="37.9643433" lon="15.1869167"><ele>1020.5</ele><time>2026-04-26T11:42:51.044Z</time></trkpt><trkpt lat="37.9644283" lon="15.1869483"><ele>1018.0</ele><time>2026-04-26T11:42:52.044Z</time></trkpt><trkpt lat="37.96451" lon="15.1869767"><ele>1015.5</ele><time>2026-04-26T11:42:53.044Z</time></trkpt><trkpt lat="37.9645883" lon="15.1870083"><ele>1013.0</ele><time>2026-04-26T11:42:54.044Z</time></trkpt><trkpt lat="37.964675" lon="15.1870517"><ele>1010.5</ele><time>2026-04-26T11:42:55.044Z</time></trkpt><trkpt lat="37.9647567" lon="15.1871167"><ele>1008.0</ele><time>2026-04-26T11:42:56.045Z</time></trkpt><trkpt lat="37.964835" lon="15.1871917"><ele>1008.0</ele><time>2026-04-26T11:42:57.044Z</time></trkpt><trkpt lat="37.9649117" lon="15.1872733"><ele>1008.0</ele><time>2026-04-26T11:42:58.044Z</time></trkpt><trkpt lat="37.9649933" lon="15.1873533"><ele>1008.0</ele><time>2026-04-26T11:42:59.044Z</time></trkpt><trkpt lat="37.96508" lon="15.1874283"><ele>1008.0</ele><time>2026-04-26T11:43:00.044Z</time></trkpt><trkpt lat="37.9651583" lon="15.1874917"><ele>1008.0</ele><time>2026-04-26T11:43:01.045Z</time></trkpt><trkpt lat="37.965235" lon="15.1875533"><ele>1010.0</ele><time>2026-04-26T11:43:02.044Z</time></trkpt><trkpt lat="37.96531" lon="15.18762"><ele>1012.0</ele><time>2026-04-26T11:43:03.044Z</time></trkpt><trkpt lat="37.96538" lon="15.187695"><ele>1014.0</ele><time>2026-04-26T11:43:04.044Z</time></trkpt><trkpt lat="37.96545" lon="15.18777"><ele>1016.0</ele><time>2026-04-26T11:43:05.044Z</time></trkpt><trkpt lat="37.965525" lon="15.1878533"><ele>1018.0</ele><time>2026-04-26T11:43:06.044Z</time></trkpt><trkpt lat="37.9656083" lon="15.1879133"><ele>1018.0</ele><time>2026-04-26T11:43:07.044Z</time></trkpt><trkpt lat="37.9657033" lon="15.18796"><ele>1018.0</ele><time>2026-04-26T11:43:08.044Z</time></trkpt><trkpt lat="37.9658033" lon="15.1879817"><ele>1018.0</ele><time>2026-04-26T11:43:09.044Z</time></trkpt><trkpt lat="37.965905" lon="15.1879767"><ele>1018.0</ele><time>2026-04-26T11:43:10.045Z</time></trkpt><trkpt lat="37.9660267" lon="15.1879617"><ele>1018.0</ele><time>2026-04-26T11:43:11.044Z</time></trkpt><trkpt lat="37.9661483" lon="15.1879383"><ele>1015.75</ele><time>2026-04-26T11:43:12.044Z</time></trkpt><trkpt lat="37.96628" lon="15.1879283"><ele>1013.5</ele><time>2026-04-26T11:43:13.044Z</time></trkpt><trkpt lat="37.966405" lon="15.1879217"><ele>1011.25</ele><time>2026-04-26T11:43:14.044Z</time></trkpt><trkpt lat="37.9665317" lon="15.1879217"><ele>1009.0</ele><time>2026-04-26T11:43:15.044Z</time></trkpt><trkpt lat="37.966645" lon="15.1879267"><ele>1004.6</ele><time>2026-04-26T11:43:16.044Z</time></trkpt><trkpt lat="37.966755" lon="15.187935"><ele>1000.2</ele><time>2026-04-26T11:43:17.044Z</time></trkpt><trkpt lat="37.96685" lon="15.1879583"><ele>995.8000000000001</ele><time>2026-04-26T11:43:18.044Z</time></trkpt><trkpt lat="37.9669367" lon="15.188005"><ele>991.4000000000001</ele><time>2026-04-26T11:43:19.044Z</time></trkpt><trkpt lat="37.96701" lon="15.1880683"><ele>987.0</ele><time>2026-04-26T11:43:20.044Z</time></trkpt><trkpt lat="37.96707" lon="15.1881483"><ele>991.2</ele><time>2026-04-26T11:43:21.044Z</time></trkpt><trkpt lat="37.967125" lon="15.1882383"><ele>995.4000000000001</ele><time>2026-04-26T11:43:22.044Z</time></trkpt><trkpt lat="37.96717" lon="15.1883517"><ele>999.5999999999999</ele><time>2026-04-26T11:43:23.044Z</time></trkpt><trkpt lat="37.967215" lon="15.1884783"><ele>1003.8</ele><time>2026-04-26T11:43:24.044Z</time></trkpt><trkpt lat="37.9672683" lon="15.188585"><ele>1008.0</ele><time>2026-04-26T11:43:25.044Z</time></trkpt><trkpt lat="37.9673333" lon="15.18868"><ele>1008.0</ele><time>2026-04-26T11:43:26.044Z</time></trkpt><trkpt lat="37.9674217" lon="15.18875"><ele>1008.0</ele><time>2026-04-26T11:43:27.044Z</time></trkpt><trkpt lat="37.9675267" lon="15.1888067"><ele>1008.0</ele><time>2026-04-26T11:43:28.044Z</time></trkpt><trkpt lat="37.9676167" lon="15.188885"><ele>1008.0</ele><time>2026-04-26T11:43:29.044Z</time></trkpt><trkpt lat="37.9676983" lon="15.1889883"><ele>1008.0</ele><time>2026-04-26T11:43:30.044Z</time></trkpt><trkpt lat="37.967775" lon="15.1891183"><ele>1007.4</ele><time>2026-04-26T11:43:31.044Z</time></trkpt><trkpt lat="37.9678583" lon="15.1892483"><ele>1006.8</ele><time>2026-04-26T11:43:32.044Z</time></trkpt><trkpt lat="37.967955" lon="15.189355"><ele>1006.2</ele><time>2026-04-26T11:43:33.044Z</time></trkpt><trkpt lat="37.9680433" lon="15.189425"><ele>1005.6</ele><time>2026-04-26T11:43:34.044Z</time></trkpt><trkpt lat="37.9681017" lon="15.1894917"><ele>1005.0</ele><time>2026-04-26T11:43:35.044Z</time></trkpt><trkpt lat="37.968165" lon="15.18962"><ele>1005.0</ele><time>2026-04-26T11:43:37.044Z</time></trkpt><trkpt lat="37.9681733" lon="15.189785"><ele>1005.0</ele><time>2026-04-26T11:43:39.044Z</time></trkpt><trkpt lat="37.9681583" lon="15.1898917"><ele>1005.0</ele><time>2026-04-26T11:43:40.044Z</time></trkpt><trkpt lat="37.9681617" lon="15.189995"><ele>1005.0</ele><time>2026-04-26T11:43:41.044Z</time></trkpt><trkpt lat="37.9681767" lon="15.1901"><ele>1005.0</ele><time>2026-04-26T11:43:42.044Z</time></trkpt><trkpt lat="37.96819" lon="15.1902033"><ele>1005.7142857142858</ele><time>2026-04-26T11:43:43.044Z</time></trkpt><trkpt lat="37.9682383" lon="15.1902883"><ele>1006.4285714285714</ele><time>2026-04-26T11:43:44.044Z</time></trkpt><trkpt lat="37.9682717" lon="15.1903633"><ele>1007.1428571428571</ele><time>2026-04-26T11:43:45.044Z</time></trkpt><trkpt lat="37.96831" lon="15.19044"><ele>1007.8571428571429</ele><time>2026-04-26T11:43:46.044Z</time></trkpt><trkpt lat="37.9683217" lon="15.19052"><ele>1008.5714285714284</ele><time>2026-04-26T11:43:47.044Z</time></trkpt><trkpt lat="37.9683167" lon="15.1906083"><ele>1009.2857142857142</ele><time>2026-04-26T11:43:48.044Z</time></trkpt><trkpt lat="37.9683267" lon="15.19071"><ele>1010.0</ele><time>2026-04-26T11:43:49.044Z</time></trkpt><trkpt lat="37.9683183" lon="15.1908517"><ele>1010.0</ele><time>2026-04-26T11:43:50.044Z</time></trkpt><trkpt lat="37.9683117" lon="15.1910267"><ele>1010.0</ele><time>2026-04-26T11:43:51.044Z</time></trkpt><trkpt lat="37.9683167" lon="15.191215"><ele>1010.0</ele><time>2026-04-26T11:43:52.044Z</time></trkpt><trkpt lat="37.968325" lon="15.1913633"><ele>1010.0</ele><time>2026-04-26T11:43:53.045Z</time></trkpt><trkpt lat="37.968335" lon="15.191495"><ele>1008.6</ele><time>2026-04-26T11:43:54.045Z</time></trkpt><trkpt lat="37.9683417" lon="15.1916283"><ele>1007.2</ele><time>2026-04-26T11:43:55.044Z</time></trkpt><trkpt lat="37.968335" lon="15.1917533"><ele>1005.8</ele><time>2026-04-26T11:43:56.044Z</time></trkpt><trkpt lat="37.9683333" lon="15.19186"><ele>1004.4</ele><time>2026-04-26T11:43:57.044Z</time></trkpt><trkpt lat="37.96834" lon="15.1919667"><ele>1003.0</ele><time>2026-04-26T11:43:58.044Z</time></trkpt><trkpt lat="37.96836" lon="15.192075"><ele>998.6666666666666</ele><time>2026-04-26T11:43:59.044Z</time></trkpt><trkpt lat="37.9683817" lon="15.19217"><ele>994.3333333333333</ele><time>2026-04-26T11:44:00.044Z</time></trkpt><trkpt lat="37.968415" lon="15.19227"><ele>990.0</ele><time>2026-04-26T11:44:01.044Z</time></trkpt><trkpt lat="37.9684517" lon="15.19236"><ele>985.6666666666667</ele><time>2026-04-26T11:44:02.045Z</time></trkpt><trkpt lat="37.9684967" lon="15.1924283"><ele>981.3333333333334</ele><time>2026-04-26T11:44:03.044Z</time></trkpt><trkpt lat="37.9685617" lon="15.1924933"><ele>977.0</ele><time>2026-04-26T11:44:04.044Z</time></trkpt><trkpt lat="37.96862" lon="15.1925583"><ele>977.0000000000001</ele><time>2026-04-26T11:44:05.043Z</time></trkpt><trkpt lat="37.96868" lon="15.1926267"><ele>977.0</ele><time>2026-04-26T11:44:06.043Z</time></trkpt><trkpt lat="37.9687417" lon="15.192745"><ele>977.0</ele><time>2026-04-26T11:44:08.043Z</time></trkpt><trkpt lat="37.9687817" lon="15.192825"><ele>977.0</ele><time>2026-04-26T11:44:09.043Z</time></trkpt><trkpt lat="37.9688" lon="15.192915"><ele>977.0000000000001</ele><time>2026-04-26T11:44:10.043Z</time></trkpt><trkpt lat="37.9688" lon="15.193015"><ele>977.0</ele><time>2026-04-26T11:44:11.043Z</time></trkpt><trkpt lat="37.9687717" lon="15.19313"><ele>979.1666666666667</ele><time>2026-04-26T11:44:12.043Z</time></trkpt><trkpt lat="37.9687383" lon="15.1932417"><ele>981.3333333333334</ele><time>2026-04-26T11:44:13.043Z</time></trkpt><trkpt lat="37.9687133" lon="15.1933417"><ele>983.5</ele><time>2026-04-26T11:44:14.044Z</time></trkpt><trkpt lat="37.9687117" lon="15.1934267"><ele>985.6666666666667</ele><time>2026-04-26T11:44:15.044Z</time></trkpt><trkpt lat="37.9687083" lon="15.1935417"><ele>987.8333333333334</ele><time>2026-04-26T11:44:16.043Z</time></trkpt><trkpt lat="37.9687283" lon="15.193655"><ele>990.0</ele><time>2026-04-26T11:44:17.043Z</time></trkpt><trkpt lat="37.9687567" lon="15.1937767"><ele>990.0</ele><time>2026-04-26T11:44:18.043Z</time></trkpt><trkpt lat="37.9687983" lon="15.1938983"><ele>990.0</ele><time>2026-04-26T11:44:19.043Z</time></trkpt><trkpt lat="37.9688583" lon="15.1940167"><ele>990.0</ele><time>2026-04-26T11:44:20.043Z</time></trkpt><trkpt lat="37.9689067" lon="15.1940967"><ele>990.0</ele><time>2026-04-26T11:44:21.043Z</time></trkpt><trkpt lat="37.9689883" lon="15.1941783"><ele>990.0</ele><time>2026-04-26T11:44:22.043Z</time></trkpt><trkpt lat="37.969055" lon="15.1942617"><ele>989.1666666666666</ele><time>2026-04-26T11:44:23.043Z</time></trkpt><trkpt lat="37.9690833" lon="15.19435"><ele>988.3333333333333</ele><time>2026-04-26T11:44:24.043Z</time></trkpt><trkpt lat="37.9690817" lon="15.1944367"><ele>987.5</ele><time>2026-04-26T11:44:25.043Z</time></trkpt><trkpt lat="37.9690633" lon="15.1945383"><ele>986.6666666666666</ele><time>2026-04-26T11:44:26.043Z</time></trkpt><trkpt lat="37.96902" lon="15.1946417"><ele>985.8333333333333</ele><time>2026-04-26T11:44:27.043Z</time></trkpt><trkpt lat="37.9689533" lon="15.194745"><ele>985.0</ele><time>2026-04-26T11:44:28.043Z</time></trkpt><trkpt lat="37.9688833" lon="15.1948467"><ele>982.4</ele><time>2026-04-26T11:44:29.043Z</time></trkpt><trkpt lat="37.9688017" lon="15.1949517"><ele>979.8</ele><time>2026-04-26T11:44:30.043Z</time></trkpt><trkpt lat="37.96872" lon="15.195025"><ele>977.2</ele><time>2026-04-26T11:44:31.043Z</time></trkpt><trkpt lat="37.9686517" lon="15.1950967"><ele>974.6</ele><time>2026-04-26T11:44:32.043Z</time></trkpt><trkpt lat="37.9685883" lon="15.1951617"><ele>972.0</ele><time>2026-04-26T11:44:33.044Z</time></trkpt><trkpt lat="37.96853" lon="15.19521"><ele>972.0</ele><time>2026-04-26T11:44:34.043Z</time></trkpt><trkpt lat="37.9684733" lon="15.1952583"><ele>972.0</ele><time>2026-04-26T11:44:35.044Z</time></trkpt><trkpt lat="37.9684" lon="15.1953633"><ele>972.0</ele><time>2026-04-26T11:44:37.043Z</time></trkpt><trkpt lat="37.9683583" lon="15.1954267"><ele>972.0</ele><time>2026-04-26T11:44:38.043Z</time></trkpt><trkpt lat="37.968295" lon="15.19554"><ele>972.0</ele><time>2026-04-26T11:44:40.043Z</time></trkpt><trkpt lat="37.9681867" lon="15.1956517"><ele>971.8</ele><time>2026-04-26T11:44:42.043Z</time></trkpt><trkpt lat="37.9680933" lon="15.19571"><ele>971.6</ele><time>2026-04-26T11:44:43.043Z</time></trkpt><trkpt lat="37.9680017" lon="15.1957733"><ele>971.3999999999999</ele><time>2026-04-26T11:44:44.043Z</time></trkpt><trkpt lat="37.9679133" lon="15.1958433"><ele>971.1999999999999</ele><time>2026-04-26T11:44:45.043Z</time></trkpt><trkpt lat="37.9678367" lon="15.1959033"><ele>971.0</ele><time>2026-04-26T11:44:46.043Z</time></trkpt><trkpt lat="37.9677767" lon="15.1960017"><ele>971.0000000000001</ele><time>2026-04-26T11:44:47.043Z</time></trkpt><trkpt lat="37.967745" lon="15.1961083"><ele>971.0</ele><time>2026-04-26T11:44:48.043Z</time></trkpt><trkpt lat="37.9677" lon="15.19622"><ele>971.0</ele><time>2026-04-26T11:44:49.043Z</time></trkpt><trkpt lat="37.967655" lon="15.1963067"><ele>971.0</ele><time>2026-04-26T11:44:50.043Z</time></trkpt><trkpt lat="37.96761" lon="15.196395"><ele>971.0000000000001</ele><time>2026-04-26T11:44:51.043Z</time></trkpt><trkpt lat="37.9675817" lon="15.1964883"><ele>971.0</ele><time>2026-04-26T11:44:52.043Z</time></trkpt><trkpt lat="37.967565" lon="15.196595"><ele>965.5999999999999</ele><time>2026-04-26T11:44:53.043Z</time></trkpt><trkpt lat="37.967575" lon="15.1967167"><ele>960.1999999999999</ele><time>2026-04-26T11:44:54.043Z</time></trkpt><trkpt lat="37.9676083" lon="15.196845"><ele>954.8000000000001</ele><time>2026-04-26T11:44:55.043Z</time></trkpt><trkpt lat="37.9676467" lon="15.1969667"><ele>949.4000000000001</ele><time>2026-04-26T11:44:56.043Z</time></trkpt><trkpt lat="37.96768" lon="15.197055"><ele>944.0</ele><time>2026-04-26T11:44:57.044Z</time></trkpt><trkpt lat="37.9676533" lon="15.1971867"><ele>949.8000000000001</ele><time>2026-04-26T11:44:59.043Z</time></trkpt><trkpt lat="37.967525" lon="15.1972333"><ele>955.6000000000001</ele><time>2026-04-26T11:45:01.043Z</time></trkpt><trkpt lat="37.96744" lon="15.1972317"><ele>961.4</ele><time>2026-04-26T11:45:02.043Z</time></trkpt><trkpt lat="37.967335" lon="15.1972133"><ele>967.2</ele><time>2026-04-26T11:45:03.043Z</time></trkpt><trkpt lat="37.9672517" lon="15.1972167"><ele>973.0</ele><time>2026-04-26T11:45:04.043Z</time></trkpt><trkpt lat="37.9671517" lon="15.1972833"><ele>969.0</ele><time>2026-04-26T11:45:06.043Z</time></trkpt><trkpt lat="37.9671433" lon="15.1973783"><ele>965.0</ele><time>2026-04-26T11:45:08.043Z</time></trkpt><trkpt lat="37.967245" lon="15.197425"><ele>961.0</ele><time>2026-04-26T11:45:10.044Z</time></trkpt><trkpt lat="37.9673217" lon="15.197415"><ele>957.0</ele><time>2026-04-26T11:45:11.044Z</time></trkpt><trkpt lat="37.9674167" lon="15.1973783"><ele>953.0</ele><time>2026-04-26T11:45:12.043Z</time></trkpt><trkpt lat="37.9675217" lon="15.1973417"><ele>951.5000000000001</ele><time>2026-04-26T11:45:13.043Z</time></trkpt><trkpt lat="37.9676267" lon="15.1973233"><ele>950.0</ele><time>2026-04-26T11:45:14.043Z</time></trkpt><trkpt lat="37.9677217" lon="15.1973217"><ele>948.5</ele><time>2026-04-26T11:45:15.043Z</time></trkpt><trkpt lat="37.9678033" lon="15.1973217"><ele>947.0</ele><time>2026-04-26T11:45:16.043Z</time></trkpt><trkpt lat="37.9678783" lon="15.1973017"><ele>945.5000000000001</ele><time>2026-04-26T11:45:17.043Z</time></trkpt><trkpt lat="37.96793" lon="15.1972433"><ele>944.0</ele><time>2026-04-26T11:45:18.044Z</time></trkpt><trkpt lat="37.9679583" lon="15.1971483"><ele>944.0</ele><time>2026-04-26T11:45:19.043Z</time></trkpt><trkpt lat="37.967965" lon="15.1970333"><ele>944.0000000000001</ele><time>2026-04-26T11:45:20.043Z</time></trkpt><trkpt lat="37.96795" lon="15.1969"><ele>944.0000000000001</ele><time>2026-04-26T11:45:21.043Z</time></trkpt><trkpt lat="37.9679333" lon="15.1967783"><ele>944.0</ele><time>2026-04-26T11:45:22.043Z</time></trkpt><trkpt lat="37.9679417" lon="15.19668"><ele>944.0</ele><time>2026-04-26T11:45:23.043Z</time></trkpt><trkpt lat="37.9679767" lon="15.196585"><ele>945.6</ele><time>2026-04-26T11:45:24.043Z</time></trkpt><trkpt lat="37.9680333" lon="15.1964983"><ele>947.2</ele><time>2026-04-26T11:45:25.043Z</time></trkpt><trkpt lat="37.9680867" lon="15.1964183"><ele>948.8000000000001</ele><time>2026-04-26T11:45:26.043Z</time></trkpt><trkpt lat="37.9681783" lon="15.1963567"><ele>950.4000000000001</ele><time>2026-04-26T11:45:28.043Z</time></trkpt><trkpt lat="37.9683" lon="15.1963767"><ele>952.0</ele><time>2026-04-26T11:45:30.043Z</time></trkpt><trkpt lat="37.9683733" lon="15.1964367"><ele>952.0</ele><time>2026-04-26T11:45:31.043Z</time></trkpt><trkpt lat="37.9684517" lon="15.1965017"><ele>952.0</ele><time>2026-04-26T11:45:32.043Z</time></trkpt><trkpt lat="37.96855" lon="15.1965817"><ele>952.0</ele><time>2026-04-26T11:45:33.043Z</time></trkpt><trkpt lat="37.9686583" lon="15.1966583"><ele>952.0</ele><time>2026-04-26T11:45:34.043Z</time></trkpt><trkpt lat="37.968755" lon="15.1967183"><ele>952.0</ele><time>2026-04-26T11:45:35.043Z</time></trkpt><trkpt lat="37.9688367" lon="15.196745"><ele>948.6</ele><time>2026-04-26T11:45:36.043Z</time></trkpt><trkpt lat="37.9689267" lon="15.19674"><ele>945.2</ele><time>2026-04-26T11:45:37.043Z</time></trkpt><trkpt lat="37.9690183" lon="15.1967217"><ele>941.8</ele><time>2026-04-26T11:45:38.043Z</time></trkpt><trkpt lat="37.9691183" lon="15.196665"><ele>938.4</ele><time>2026-04-26T11:45:39.043Z</time></trkpt><trkpt lat="37.9692417" lon="15.1965783"><ele>935.0</ele><time>2026-04-26T11:45:40.043Z</time></trkpt><trkpt lat="37.969375" lon="15.19649"><ele>935.0</ele><time>2026-04-26T11:45:41.043Z</time></trkpt><trkpt lat="37.969505" lon="15.1964067"><ele>935.0</ele><time>2026-04-26T11:45:42.043Z</time></trkpt><trkpt lat="37.969625" lon="15.19633"><ele>935.0</ele><time>2026-04-26T11:45:43.043Z</time></trkpt><trkpt lat="37.96974" lon="15.1962667"><ele>935.0</ele><time>2026-04-26T11:45:44.043Z</time></trkpt><trkpt lat="37.9698467" lon="15.1962133"><ele>935.0</ele><time>2026-04-26T11:45:45.043Z</time></trkpt><trkpt lat="37.96994" lon="15.1961733"><ele>935.0</ele><time>2026-04-26T11:45:46.043Z</time></trkpt><trkpt lat="37.9700433" lon="15.196145"><ele>935.0</ele><time>2026-04-26T11:45:47.043Z</time></trkpt><trkpt lat="37.9701483" lon="15.1961383"><ele>935.0</ele><time>2026-04-26T11:45:48.043Z</time></trkpt><trkpt lat="37.97024" lon="15.1961633"><ele>935.0</ele><time>2026-04-26T11:45:49.043Z</time></trkpt><trkpt lat="37.970305" lon="15.1961983"><ele>934.0000000000001</ele><time>2026-04-26T11:45:50.043Z</time></trkpt><trkpt lat="37.9703717" lon="15.1962217"><ele>933.0</ele><time>2026-04-26T11:45:51.043Z</time></trkpt><trkpt lat="37.9704433" lon="15.196215"><ele>932.0</ele><time>2026-04-26T11:45:52.043Z</time></trkpt><trkpt lat="37.970505" lon="15.19618"><ele>931.0</ele><time>2026-04-26T11:45:53.043Z</time></trkpt><trkpt lat="37.9705817" lon="15.1961133"><ele>930.0000000000001</ele><time>2026-04-26T11:45:54.043Z</time></trkpt><trkpt lat="37.97067" lon="15.19603"><ele>929.0</ele><time>2026-04-26T11:45:55.043Z</time></trkpt><trkpt lat="37.9707617" lon="15.195965"><ele>929.0000000000001</ele><time>2026-04-26T11:45:56.043Z</time></trkpt><trkpt lat="37.97084" lon="15.19593"><ele>929.0</ele><time>2026-04-26T11:45:57.043Z</time></trkpt><trkpt lat="37.97093" lon="15.1959517"><ele>929.0</ele><time>2026-04-26T11:45:59.043Z</time></trkpt><trkpt lat="37.9710117" lon="15.1959717"><ele>929.0</ele><time>2026-04-26T11:46:21.043Z</time></trkpt><trkpt lat="37.9711283" lon="15.196025"><ele>929.0000000000001</ele><time>2026-04-26T11:46:23.043Z</time></trkpt><trkpt lat="37.971175" lon="15.196085"><ele>929.0</ele><time>2026-04-26T11:46:24.044Z</time></trkpt><trkpt lat="37.97123" lon="15.196215"><ele>928.1428571428572</ele><time>2026-04-26T11:46:26.043Z</time></trkpt><trkpt lat="37.9712633" lon="15.1962883"><ele>927.2857142857144</ele><time>2026-04-26T11:46:27.043Z</time></trkpt><trkpt lat="37.9713" lon="15.1963567"><ele>926.4285714285714</ele><time>2026-04-26T11:46:28.044Z</time></trkpt><trkpt lat="37.9713483" lon="15.1964283"><ele>925.5714285714287</ele><time>2026-04-26T11:46:29.043Z</time></trkpt><trkpt lat="37.971395" lon="15.1964917"><ele>924.7142857142858</ele><time>2026-04-26T11:46:30.043Z</time></trkpt><trkpt lat="37.9714483" lon="15.19656"><ele>923.8571428571429</ele><time>2026-04-26T11:46:31.043Z</time></trkpt><trkpt lat="37.9715033" lon="15.1966217"><ele>923.0</ele><time>2026-04-26T11:46:32.043Z</time></trkpt><trkpt lat="37.9715967" lon="15.1967367"><ele>923.0000000000001</ele><time>2026-04-26T11:46:34.043Z</time></trkpt><trkpt lat="37.97165" lon="15.196805"><ele>923.0</ele><time>2026-04-26T11:46:35.043Z</time></trkpt><trkpt lat="37.971705" lon="15.196865"><ele>923.0</ele><time>2026-04-26T11:46:36.043Z</time></trkpt><trkpt lat="37.9717967" lon="15.1969417"><ele>923.0</ele><time>2026-04-26T11:46:38.043Z</time></trkpt><trkpt lat="37.9718667" lon="15.196955"><ele>923.0000000000001</ele><time>2026-04-26T11:46:40.043Z</time></trkpt><trkpt lat="37.971945" lon="15.19698"><ele>923.0</ele><time>2026-04-26T11:46:42.043Z</time></trkpt><trkpt lat="37.9720317" lon="15.197025"><ele>919.8</ele><time>2026-04-26T11:46:44.043Z</time></trkpt><trkpt lat="37.9721317" lon="15.1970917"><ele>916.5999999999999</ele><time>2026-04-26T11:46:46.043Z</time></trkpt><trkpt lat="37.9721883" lon="15.1971267"><ele>913.4000000000001</ele><time>2026-04-26T11:46:47.043Z</time></trkpt><trkpt lat="37.9722967" lon="15.1971917"><ele>910.2</ele><time>2026-04-26T11:46:49.043Z</time></trkpt><trkpt lat="37.9724017" lon="15.1972633"><ele>907.0</ele><time>2026-04-26T11:46:51.043Z</time></trkpt><trkpt lat="37.972505" lon="15.1972767"><ele>904.8333333333333</ele><time>2026-04-26T11:47:11.043Z</time></trkpt><trkpt lat="37.9725817" lon="15.1972867"><ele>902.6666666666666</ele><time>2026-04-26T11:47:12.043Z</time></trkpt><trkpt lat="37.9726583" lon="15.1973017"><ele>900.5</ele><time>2026-04-26T11:47:13.043Z</time></trkpt><trkpt lat="37.9727317" lon="15.1973167"><ele>898.3333333333333</ele><time>2026-04-26T11:47:14.043Z</time></trkpt><trkpt lat="37.97282" lon="15.1973283"><ele>896.1666666666666</ele><time>2026-04-26T11:47:15.043Z</time></trkpt><trkpt lat="37.9729133" lon="15.197345"><ele>894.0</ele><time>2026-04-26T11:47:16.043Z</time></trkpt><trkpt lat="37.97302" lon="15.1973633"><ele>899.5</ele><time>2026-04-26T11:47:17.043Z</time></trkpt><trkpt lat="37.973135" lon="15.1973783"><ele>905.0</ele><time>2026-04-26T11:47:18.043Z</time></trkpt><trkpt lat="37.9732517" lon="15.1973967"><ele>910.5</ele><time>2026-04-26T11:47:19.044Z</time></trkpt><trkpt lat="37.9733783" lon="15.197415"><ele>916.0</ele><time>2026-04-26T11:47:20.043Z</time></trkpt><trkpt lat="37.97351" lon="15.197425"><ele>916.0</ele><time>2026-04-26T11:47:21.043Z</time></trkpt><trkpt lat="37.9736483" lon="15.1974167"><ele>916.0</ele><time>2026-04-26T11:47:22.044Z</time></trkpt><trkpt lat="37.9737683" lon="15.1974017"><ele>916.0</ele><time>2026-04-26T11:47:23.043Z</time></trkpt><trkpt lat="37.9738917" lon="15.1973967"><ele>916.0</ele><time>2026-04-26T11:47:24.043Z</time></trkpt><trkpt lat="37.9739983" lon="15.1974167"><ele>916.0</ele><time>2026-04-26T11:47:25.043Z</time></trkpt><trkpt lat="37.9740983" lon="15.1974567"><ele>915.9999999999999</ele><time>2026-04-26T11:47:26.043Z</time></trkpt><trkpt lat="37.974195" lon="15.1975233"><ele>915.9999999999999</ele><time>2026-04-26T11:47:27.043Z</time></trkpt><trkpt lat="37.9743" lon="15.1975883"><ele>916.0</ele><time>2026-04-26T11:47:28.043Z</time></trkpt><trkpt lat="37.9744033" lon="15.1976217"><ele>916.0</ele><time>2026-04-26T11:47:29.043Z</time></trkpt><trkpt lat="37.974505" lon="15.1976217"><ele>917.0</ele><time>2026-04-26T11:47:30.043Z</time></trkpt><trkpt lat="37.9746017" lon="15.197575"><ele>918.0</ele><time>2026-04-26T11:47:31.043Z</time></trkpt><trkpt lat="37.9746883" lon="15.19749"><ele>919.0</ele><time>2026-04-26T11:47:32.043Z</time></trkpt><trkpt lat="37.97477" lon="15.1973683"><ele>920.0</ele><time>2026-04-26T11:47:33.043Z</time></trkpt><trkpt lat="37.9748367" lon="15.197255"><ele>914.2</ele><time>2026-04-26T11:47:34.043Z</time></trkpt><trkpt lat="37.9749033" lon="15.197165"><ele>908.4</ele><time>2026-04-26T11:47:35.043Z</time></trkpt><trkpt lat="37.9749917" lon="15.1970883"><ele>902.5999999999999</ele><time>2026-04-26T11:47:36.043Z</time></trkpt><trkpt lat="37.97509" lon="15.197035"><ele>896.8</ele><time>2026-04-26T11:47:37.043Z</time></trkpt><trkpt lat="37.9751783" lon="15.197015"><ele>891.0</ele><time>2026-04-26T11:47:38.043Z</time></trkpt><trkpt lat="37.9752583" lon="15.1970283"><ele>890.4</ele><time>2026-04-26T11:47:39.043Z</time></trkpt><trkpt lat="37.9753283" lon="15.1970683"><ele>889.8</ele><time>2026-04-26T11:47:40.043Z</time></trkpt><trkpt lat="37.9753817" lon="15.1971517"><ele>889.1999999999999</ele><time>2026-04-26T11:47:41.043Z</time></trkpt><trkpt lat="37.97542" lon="15.19727"><ele>888.5999999999999</ele><time>2026-04-26T11:47:42.043Z</time></trkpt><trkpt lat="37.975455" lon="15.1974083"><ele>888.0</ele><time>2026-04-26T11:47:43.043Z</time></trkpt><trkpt lat="37.975505" lon="15.1975667"><ele>888.0</ele><time>2026-04-26T11:47:44.043Z</time></trkpt><trkpt lat="37.975575" lon="15.1977233"><ele>888.0</ele><time>2026-04-26T11:47:45.043Z</time></trkpt><trkpt lat="37.975645" lon="15.19789"><ele>888.0</ele><time>2026-04-26T11:47:46.043Z</time></trkpt><trkpt lat="37.9757017" lon="15.19806"><ele>888.0</ele><time>2026-04-26T11:47:47.043Z</time></trkpt><trkpt lat="37.9757717" lon="15.198225"><ele>884.75</ele><time>2026-04-26T11:47:48.043Z</time></trkpt><trkpt lat="37.975835" lon="15.1983817"><ele>881.5</ele><time>2026-04-26T11:47:49.043Z</time></trkpt><trkpt lat="37.975905" lon="15.1985167"><ele>878.25</ele><time>2026-04-26T11:47:50.043Z</time></trkpt><trkpt lat="37.975965" lon="15.19864"><ele>875.0</ele><time>2026-04-26T11:47:51.043Z</time></trkpt><trkpt lat="37.9760133" lon="15.198765"><ele>875.0</ele><time>2026-04-26T11:47:52.043Z</time></trkpt><trkpt lat="37.9760633" lon="15.1988817"><ele>875.0</ele><time>2026-04-26T11:47:53.043Z</time></trkpt><trkpt lat="37.9760933" lon="15.1989983"><ele>875.0</ele><time>2026-04-26T11:47:54.043Z</time></trkpt><trkpt lat="37.97611" lon="15.1991117"><ele>875.0</ele><time>2026-04-26T11:47:55.043Z</time></trkpt><trkpt lat="37.9761017" lon="15.1992167"><ele>875.0</ele><time>2026-04-26T11:47:56.044Z</time></trkpt><trkpt lat="37.9760633" lon="15.199315"><ele>876.6</ele><time>2026-04-26T11:47:57.043Z</time></trkpt><trkpt lat="37.9760017" lon="15.1994133"><ele>878.2</ele><time>2026-04-26T11:47:58.043Z</time></trkpt><trkpt lat="37.975925" lon="15.199505"><ele>879.8</ele><time>2026-04-26T11:47:59.043Z</time></trkpt><trkpt lat="37.9758433" lon="15.1995817"><ele>881.4</ele><time>2026-04-26T11:48:00.043Z</time></trkpt><trkpt lat="37.97578" lon="15.1996817"><ele>883.0</ele><time>2026-04-26T11:48:01.043Z</time></trkpt><trkpt lat="37.975745" lon="15.1997867"><ele>886.2</ele><time>2026-04-26T11:48:02.043Z</time></trkpt><trkpt lat="37.9757317" lon="15.1998883"><ele>889.4</ele><time>2026-04-26T11:48:03.043Z</time></trkpt><trkpt lat="37.9757317" lon="15.1999783"><ele>892.6000000000001</ele><time>2026-04-26T11:48:04.043Z</time></trkpt><trkpt lat="37.9758133" lon="15.20012"><ele>895.8000000000001</ele><time>2026-04-26T11:48:06.044Z</time></trkpt><trkpt lat="37.97591" lon="15.2001683"><ele>899.0</ele><time>2026-04-26T11:48:07.043Z</time></trkpt><trkpt lat="37.9760017" lon="15.2001583"><ele>899.0</ele><time>2026-04-26T11:48:08.043Z</time></trkpt><trkpt lat="37.9760933" lon="15.2001117"><ele>899.0000000000001</ele><time>2026-04-26T11:48:09.043Z</time></trkpt><trkpt lat="37.9761917" lon="15.2000233"><ele>899.0000000000001</ele><time>2026-04-26T11:48:10.043Z</time></trkpt><trkpt lat="37.97629" lon="15.19993"><ele>899.0</ele><time>2026-04-26T11:48:11.043Z</time></trkpt><trkpt lat="37.97639" lon="15.19989"><ele>899.0</ele><time>2026-04-26T11:48:12.043Z</time></trkpt><trkpt lat="37.976505" lon="15.199865"><ele>895.0</ele><time>2026-04-26T11:48:13.043Z</time></trkpt><trkpt lat="37.9766433" lon="15.199825"><ele>891.0</ele><time>2026-04-26T11:48:14.043Z</time></trkpt><trkpt lat="37.976775" lon="15.1997767"><ele>887.0</ele><time>2026-04-26T11:48:15.043Z</time></trkpt><trkpt lat="37.9768917" lon="15.1997317"><ele>883.0</ele><time>2026-04-26T11:48:16.043Z</time></trkpt><trkpt lat="37.9769983" lon="15.1997317"><ele>884.8</ele><time>2026-04-26T11:48:17.043Z</time></trkpt><trkpt lat="37.9770967" lon="15.1997617"><ele>886.5999999999999</ele><time>2026-04-26T11:48:18.043Z</time></trkpt><trkpt lat="37.9772017" lon="15.1998117"><ele>888.4000000000001</ele><time>2026-04-26T11:48:19.043Z</time></trkpt><trkpt lat="37.9772983" lon="15.199885"><ele>890.2</ele><time>2026-04-26T11:48:20.044Z</time></trkpt><trkpt lat="37.9773983" lon="15.199925"><ele>892.0</ele><time>2026-04-26T11:48:21.043Z</time></trkpt><trkpt lat="37.9775133" lon="15.1999433"><ele>891.0</ele><time>2026-04-26T11:48:22.043Z</time></trkpt><trkpt lat="37.977665" lon="15.199935"><ele>890.0</ele><time>2026-04-26T11:48:23.043Z</time></trkpt><trkpt lat="37.9778233" lon="15.1999167"><ele>889.0</ele><time>2026-04-26T11:48:24.043Z</time></trkpt><trkpt lat="37.9779717" lon="15.1998983"><ele>889.0</ele><time>2026-04-26T11:48:25.043Z</time></trkpt><trkpt lat="37.97812" lon="15.1999"><ele>889.0</ele><time>2026-04-26T11:48:26.043Z</time></trkpt><trkpt lat="37.9782633" lon="15.1999033"><ele>889.0</ele><time>2026-04-26T11:48:27.043Z</time></trkpt><trkpt lat="37.9784083" lon="15.199925"><ele>889.0</ele><time>2026-04-26T11:48:28.043Z</time></trkpt><trkpt lat="37.9785583" lon="15.1999467"><ele>887.0</ele><time>2026-04-26T11:48:29.043Z</time></trkpt><trkpt lat="37.97871" lon="15.1999667"><ele>885.0</ele><time>2026-04-26T11:48:30.043Z</time></trkpt><trkpt lat="37.97886" lon="15.199995"><ele>883.0</ele><time>2026-04-26T11:48:31.043Z</time></trkpt><trkpt lat="37.979005" lon="15.20003"><ele>883.0</ele><time>2026-04-26T11:48:32.043Z</time></trkpt><trkpt lat="37.9791383" lon="15.2000767"><ele>883.0</ele><time>2026-04-26T11:48:33.043Z</time></trkpt><trkpt lat="37.9792833" lon="15.2001033"><ele>883.0</ele><time>2026-04-26T11:48:34.044Z</time></trkpt><trkpt lat="37.9794333" lon="15.2001083"><ele>883.0</ele><time>2026-04-26T11:48:35.043Z</time></trkpt><trkpt lat="37.9795667" lon="15.200115"><ele>881.5</ele><time>2026-04-26T11:48:36.043Z</time></trkpt><trkpt lat="37.97969" lon="15.2001533"><ele>880.0</ele><time>2026-04-26T11:48:37.043Z</time></trkpt><trkpt lat="37.9798183" lon="15.200225"><ele>878.5</ele><time>2026-04-26T11:48:38.043Z</time></trkpt><trkpt lat="37.9799667" lon="15.2002967"><ele>877.0</ele><time>2026-04-26T11:48:39.043Z</time></trkpt><trkpt lat="37.9801" lon="15.2003417"><ele>877.0</ele><time>2026-04-26T11:48:40.043Z</time></trkpt><trkpt lat="37.9802117" lon="15.20036"><ele>877.0</ele><time>2026-04-26T11:48:41.043Z</time></trkpt><trkpt lat="37.9802967" lon="15.2003383"><ele>877.0</ele><time>2026-04-26T11:48:42.043Z</time></trkpt><trkpt lat="37.9803633" lon="15.2002967"><ele>877.0</ele><time>2026-04-26T11:48:43.043Z</time></trkpt><trkpt lat="37.9804467" lon="15.2002517"><ele>877.0</ele><time>2026-04-26T11:48:44.043Z</time></trkpt><trkpt lat="37.9805433" lon="15.2002317"><ele>877.0</ele><time>2026-04-26T11:48:45.043Z</time></trkpt><trkpt lat="37.9806517" lon="15.200195"><ele>877.0</ele><time>2026-04-26T11:48:46.044Z</time></trkpt><trkpt lat="37.9807817" lon="15.200145"><ele>877.0</ele><time>2026-04-26T11:48:47.043Z</time></trkpt><trkpt lat="37.98092" lon="15.2001117"><ele>877.0</ele><time>2026-04-26T11:48:48.043Z</time></trkpt><trkpt lat="37.9810667" lon="15.2000767"><ele>877.5</ele><time>2026-04-26T11:48:49.043Z</time></trkpt><trkpt lat="37.981215" lon="15.2000433"><ele>878.0</ele><time>2026-04-26T11:48:50.043Z</time></trkpt><trkpt lat="37.9813533" lon="15.2000067"><ele>878.5</ele><time>2026-04-26T11:48:51.043Z</time></trkpt><trkpt lat="37.9814767" lon="15.19995"><ele>879.0</ele><time>2026-04-26T11:48:52.044Z</time></trkpt><trkpt lat="37.981595" lon="15.1999167"><ele>878.75</ele><time>2026-04-26T11:48:53.043Z</time></trkpt><trkpt lat="37.98171" lon="15.1999117"><ele>878.5</ele><time>2026-04-26T11:48:54.044Z</time></trkpt><trkpt lat="37.9818283" lon="15.19994"><ele>878.25</ele><time>2026-04-26T11:48:55.043Z</time></trkpt><trkpt lat="37.9819583" lon="15.199975"><ele>878.0</ele><time>2026-04-26T11:48:56.043Z</time></trkpt><trkpt lat="37.9820783" lon="15.1999983"><ele>878.0</ele><time>2026-04-26T11:48:57.043Z</time></trkpt><trkpt lat="37.9821833" lon="15.2000117"><ele>878.0</ele><time>2026-04-26T11:48:58.043Z</time></trkpt><trkpt lat="37.982295" lon="15.2000083"><ele>878.0</ele><time>2026-04-26T11:48:59.043Z</time></trkpt><trkpt lat="37.982395" lon="15.1999933"><ele>878.0</ele><time>2026-04-26T11:49:00.043Z</time></trkpt><trkpt lat="37.9824917" lon="15.19998"><ele>878.0</ele><time>2026-04-26T11:49:01.043Z</time></trkpt><trkpt lat="37.9825867" lon="15.199975"><ele>878.2</ele><time>2026-04-26T11:49:02.043Z</time></trkpt><trkpt lat="37.9826933" lon="15.1999817"><ele>878.4</ele><time>2026-04-26T11:49:03.043Z</time></trkpt><trkpt lat="37.9827967" lon="15.20001"><ele>878.6000000000001</ele><time>2026-04-26T11:49:04.043Z</time></trkpt><trkpt lat="37.9829017" lon="15.20005"><ele>878.8000000000001</ele><time>2026-04-26T11:49:05.043Z</time></trkpt><trkpt lat="37.98301" lon="15.2001033"><ele>879.0</ele><time>2026-04-26T11:49:06.043Z</time></trkpt><trkpt lat="37.9831083" lon="15.2001633"><ele>879.0</ele><time>2026-04-26T11:49:07.044Z</time></trkpt><trkpt lat="37.9831867" lon="15.2001983"><ele>879.0</ele><time>2026-04-26T11:49:08.044Z</time></trkpt><trkpt lat="37.9832567" lon="15.2002"><ele>879.0</ele><time>2026-04-26T11:49:09.043Z</time></trkpt><trkpt lat="37.9833333" lon="15.2001183"><ele>879.0</ele><time>2026-04-26T11:49:11.043Z</time></trkpt><trkpt lat="37.9833467" lon="15.20003"><ele>879.0</ele><time>2026-04-26T11:49:12.043Z</time></trkpt><trkpt lat="37.98336" lon="15.1999117"><ele>879.0</ele><time>2026-04-26T11:49:13.043Z</time></trkpt><trkpt lat="37.9833883" lon="15.1997517"><ele>878.5</ele><time>2026-04-26T11:49:14.043Z</time></trkpt><trkpt lat="37.983385" lon="15.199605"><ele>878.0</ele><time>2026-04-26T11:49:15.043Z</time></trkpt><trkpt lat="37.9833583" lon="15.19948"><ele>877.5</ele><time>2026-04-26T11:49:16.043Z</time></trkpt><trkpt lat="37.9833383" lon="15.1993683"><ele>877.0</ele><time>2026-04-26T11:49:17.043Z</time></trkpt><trkpt lat="37.9833367" lon="15.1992767"><ele>876.5</ele><time>2026-04-26T11:49:18.043Z</time></trkpt><trkpt lat="37.9833583" lon="15.1991967"><ele>876.0</ele><time>2026-04-26T11:49:19.043Z</time></trkpt><trkpt lat="37.983405" lon="15.19914"><ele>876.0</ele><time>2026-04-26T11:49:20.043Z</time></trkpt><trkpt lat="37.9835383" lon="15.19908"><ele>875.9999999999999</ele><time>2026-04-26T11:49:22.043Z</time></trkpt><trkpt lat="37.9836383" lon="15.199065"><ele>875.9999999999999</ele><time>2026-04-26T11:49:23.043Z</time></trkpt><trkpt lat="37.98372" lon="15.199055"><ele>876.0</ele><time>2026-04-26T11:49:24.043Z</time></trkpt><trkpt lat="37.98379" lon="15.1990633"><ele>876.0</ele><time>2026-04-26T11:49:25.044Z</time></trkpt><trkpt lat="37.9838767" lon="15.199085"><ele>876.0</ele><time>2026-04-26T11:49:26.043Z</time></trkpt><trkpt lat="37.9839517" lon="15.1990833"><ele>875.9999999999999</ele><time>2026-04-26T11:49:27.043Z</time></trkpt><trkpt lat="37.9840133" lon="15.1990483"><ele>875.9999999999999</ele><time>2026-04-26T11:49:28.043Z</time></trkpt><trkpt lat="37.9840817" lon="15.1989817"><ele>876.0</ele><time>2026-04-26T11:49:29.043Z</time></trkpt><trkpt lat="37.9841517" lon="15.1988633"><ele>876.0</ele><time>2026-04-26T11:49:30.043Z</time></trkpt><trkpt lat="37.98423" lon="15.19871"><ele>872.0</ele><time>2026-04-26T11:49:31.043Z</time></trkpt><trkpt lat="37.9843133" lon="15.19858"><ele>868.0</ele><time>2026-04-26T11:49:32.043Z</time></trkpt><trkpt lat="37.9843983" lon="15.19847"><ele>864.0</ele><time>2026-04-26T11:49:33.043Z</time></trkpt><trkpt lat="37.98448" lon="15.19837"><ele>860.0</ele><time>2026-04-26T11:49:34.043Z</time></trkpt><trkpt lat="37.98456" lon="15.1982933"><ele>860.0</ele><time>2026-04-26T11:49:35.043Z</time></trkpt><trkpt lat="37.9846233" lon="15.1982317"><ele>860.0</ele><time>2026-04-26T11:49:36.043Z</time></trkpt><trkpt lat="37.984695" lon="15.1982"><ele>860.0</ele><time>2026-04-26T11:49:37.043Z</time></trkpt><trkpt lat="37.9848117" lon="15.198255"><ele>860.0</ele><time>2026-04-26T11:49:39.043Z</time></trkpt><trkpt lat="37.9848867" lon="15.1983267"><ele>860.0</ele><time>2026-04-26T11:49:40.043Z</time></trkpt><trkpt lat="37.9849767" lon="15.1984017"><ele>859.0</ele><time>2026-04-26T11:49:41.043Z</time></trkpt><trkpt lat="37.985105" lon="15.1984617"><ele>858.0</ele><time>2026-04-26T11:49:42.043Z</time></trkpt><trkpt lat="37.9852567" lon="15.198495"><ele>857.0</ele><time>2026-04-26T11:49:43.043Z</time></trkpt><trkpt lat="37.9854067" lon="15.1985217"><ele>856.0</ele><time>2026-04-26T11:49:44.043Z</time></trkpt><trkpt lat="37.9855433" lon="15.1985383"><ele>856.0</ele><time>2026-04-26T11:49:45.043Z</time></trkpt><trkpt lat="37.98567" lon="15.1985567"><ele>856.0</ele><time>2026-04-26T11:49:46.043Z</time></trkpt><trkpt lat="37.9857933" lon="15.1985783"><ele>856.0</ele><time>2026-04-26T11:49:47.043Z</time></trkpt><trkpt lat="37.985915" lon="15.1985967"><ele>856.0</ele><time>2026-04-26T11:49:48.043Z</time></trkpt><trkpt lat="37.9860267" lon="15.1985933"><ele>856.5999999999999</ele><time>2026-04-26T11:49:49.043Z</time></trkpt><trkpt lat="37.9861267" lon="15.1985617"><ele>857.1999999999999</ele><time>2026-04-26T11:49:50.043Z</time></trkpt><trkpt lat="37.9862083" lon="15.198505"><ele>857.8000000000001</ele><time>2026-04-26T11:49:51.043Z</time></trkpt><trkpt lat="37.9862967" lon="15.1984433"><ele>858.4000000000001</ele><time>2026-04-26T11:49:52.043Z</time></trkpt><trkpt lat="37.9863767" lon="15.1983917"><ele>859.0</ele><time>2026-04-26T11:49:53.043Z</time></trkpt><trkpt lat="37.9864517" lon="15.1983617"><ele>858.9999999999999</ele><time>2026-04-26T11:49:54.043Z</time></trkpt><trkpt lat="37.986535" lon="15.198355"><ele>859.0</ele><time>2026-04-26T11:49:55.043Z</time></trkpt><trkpt lat="37.9866083" lon="15.1983367"><ele>859.0</ele><time>2026-04-26T11:49:56.043Z</time></trkpt><trkpt lat="37.9866633" lon="15.1982917"><ele>859.0</ele><time>2026-04-26T11:49:57.043Z</time></trkpt><trkpt lat="37.9867083" lon="15.198225"><ele>859.0</ele><time>2026-04-26T11:49:58.043Z</time></trkpt><trkpt lat="37.98673" lon="15.19814"><ele>858.9999999999999</ele><time>2026-04-26T11:49:59.043Z</time></trkpt><trkpt lat="37.9867367" lon="15.19805"><ele>859.0</ele><time>2026-04-26T11:50:00.043Z</time></trkpt><trkpt lat="37.9867483" lon="15.19797"><ele>855.6666666666666</ele><time>2026-04-26T11:50:01.043Z</time></trkpt><trkpt lat="37.9867767" lon="15.1978883"><ele>852.3333333333333</ele><time>2026-04-26T11:50:02.043Z</time></trkpt><trkpt lat="37.9868217" lon="15.1978267"><ele>849.0</ele><time>2026-04-26T11:50:03.043Z</time></trkpt><trkpt lat="37.9869233" lon="15.197775"><ele>845.6666666666667</ele><time>2026-04-26T11:50:05.043Z</time></trkpt><trkpt lat="37.9869883" lon="15.197785"><ele>842.3333333333334</ele><time>2026-04-26T11:50:06.043Z</time></trkpt><trkpt lat="37.9870733" lon="15.1978167"><ele>839.0</ele><time>2026-04-26T11:50:07.043Z</time></trkpt><trkpt lat="37.9871617" lon="15.1978633"><ele>839.0000000000001</ele><time>2026-04-26T11:50:08.043Z</time></trkpt><trkpt lat="37.9872567" lon="15.1978967"><ele>839.0</ele><time>2026-04-26T11:50:09.043Z</time></trkpt><trkpt lat="37.9873517" lon="15.197915"><ele>839.0</ele><time>2026-04-26T11:50:10.043Z</time></trkpt><trkpt lat="37.9874267" lon="15.1979467"><ele>839.0</ele><time>2026-04-26T11:50:11.043Z</time></trkpt><trkpt lat="37.9874833" lon="15.198"><ele>839.0000000000001</ele><time>2026-04-26T11:50:12.044Z</time></trkpt><trkpt lat="37.9875217" lon="15.1980667"><ele>839.0</ele><time>2026-04-26T11:50:13.044Z</time></trkpt><trkpt lat="37.9875567" lon="15.1981367"><ele>838.6</ele><time>2026-04-26T11:50:14.043Z</time></trkpt><trkpt lat="37.9876567" lon="15.1981883"><ele>838.2</ele><time>2026-04-26T11:50:16.043Z</time></trkpt><trkpt lat="37.98773" lon="15.1981783"><ele>837.8000000000001</ele><time>2026-04-26T11:50:17.043Z</time></trkpt><trkpt lat="37.9878233" lon="15.1981467"><ele>837.4000000000001</ele><time>2026-04-26T11:50:18.044Z</time></trkpt><trkpt lat="37.9879233" lon="15.1981283"><ele>837.0</ele><time>2026-04-26T11:50:19.044Z</time></trkpt><trkpt lat="37.9880083" lon="15.1981267"><ele>837.0</ele><time>2026-04-26T11:50:20.043Z</time></trkpt><trkpt lat="37.9880883" lon="15.1981517"><ele>837.0</ele><time>2026-04-26T11:50:21.043Z</time></trkpt><trkpt lat="37.98815" lon="15.198205"><ele>837.0</ele><time>2026-04-26T11:50:22.043Z</time></trkpt><trkpt lat="37.9882033" lon="15.19827"><ele>837.0</ele><time>2026-04-26T11:50:23.043Z</time></trkpt><trkpt lat="37.98824" lon="15.1983567"><ele>837.0</ele><time>2026-04-26T11:50:24.043Z</time></trkpt><trkpt lat="37.9882617" lon="15.1984433"><ele>837.0</ele><time>2026-04-26T11:50:25.043Z</time></trkpt><trkpt lat="37.9882883" lon="15.19852"><ele>837.0</ele><time>2026-04-26T11:50:26.043Z</time></trkpt><trkpt lat="37.9883633" lon="15.1986467"><ele>835.5</ele><time>2026-04-26T11:50:28.043Z</time></trkpt><trkpt lat="37.98841" lon="15.1987083"><ele>834.0</ele><time>2026-04-26T11:50:29.044Z</time></trkpt><trkpt lat="37.988455" lon="15.1987833"><ele>832.5</ele><time>2026-04-26T11:50:30.043Z</time></trkpt><trkpt lat="37.98849" lon="15.1988617"><ele>831.0</ele><time>2026-04-26T11:50:31.043Z</time></trkpt><trkpt lat="37.9885233" lon="15.1989333"><ele>829.5</ele><time>2026-04-26T11:50:32.043Z</time></trkpt><trkpt lat="37.9886183" lon="15.199025"><ele>828.0</ele><time>2026-04-26T11:50:34.043Z</time></trkpt><trkpt lat="37.9887" lon="15.1990517"><ele>828.0</ele><time>2026-04-26T11:50:35.043Z</time></trkpt><trkpt lat="37.98879" lon="15.19908"><ele>828.0</ele><time>2026-04-26T11:50:36.043Z</time></trkpt><trkpt lat="37.9888867" lon="15.19912"><ele>828.0</ele><time>2026-04-26T11:50:37.043Z</time></trkpt><trkpt lat="37.9889667" lon="15.1991883"><ele>828.0</ele><time>2026-04-26T11:50:38.043Z</time></trkpt><trkpt lat="37.98903" lon="15.199275"><ele>828.0</ele><time>2026-04-26T11:50:39.043Z</time></trkpt><trkpt lat="37.9890867" lon="15.1993717"><ele>828.0</ele><time>2026-04-26T11:50:40.043Z</time></trkpt><trkpt lat="37.98914" lon="15.199465"><ele>828.0</ele><time>2026-04-26T11:50:41.043Z</time></trkpt><trkpt lat="37.9891733" lon="15.1995633"><ele>828.0</ele><time>2026-04-26T11:50:42.043Z</time></trkpt><trkpt lat="37.98919" lon="15.1996683"><ele>828.0</ele><time>2026-04-26T11:50:43.043Z</time></trkpt><trkpt lat="37.9891767" lon="15.1997783"><ele>828.0</ele><time>2026-04-26T11:50:44.043Z</time></trkpt><trkpt lat="37.989135" lon="15.1998933"><ele>828.0</ele><time>2026-04-26T11:50:45.043Z</time></trkpt><trkpt lat="37.989085" lon="15.2000033"><ele>829.8333333333334</ele><time>2026-04-26T11:50:46.043Z</time></trkpt><trkpt lat="37.98903" lon="15.2000867"><ele>831.6666666666667</ele><time>2026-04-26T11:50:47.043Z</time></trkpt><trkpt lat="37.9889833" lon="15.200165"><ele>833.5</ele><time>2026-04-26T11:50:48.043Z</time></trkpt><trkpt lat="37.988945" lon="15.2003"><ele>835.3333333333334</ele><time>2026-04-26T11:50:50.043Z</time></trkpt><trkpt lat="37.9889667" lon="15.2003983"><ele>837.1666666666667</ele><time>2026-04-26T11:50:52.043Z</time></trkpt><trkpt lat="37.9890367" lon="15.2004367"><ele>839.0</ele><time>2026-04-26T11:50:54.043Z</time></trkpt><trkpt lat="37.98916" lon="15.2004933"><ele>835.7142857142857</ele><time>2026-04-26T11:50:56.043Z</time></trkpt><trkpt lat="37.9892367" lon="15.2005267"><ele>832.4285714285714</ele><time>2026-04-26T11:50:57.043Z</time></trkpt><trkpt lat="37.9893083" lon="15.2005483"><ele>829.1428571428571</ele><time>2026-04-26T11:50:58.044Z</time></trkpt><trkpt lat="37.9893783" lon="15.2005567"><ele>825.8571428571429</ele><time>2026-04-26T11:50:59.044Z</time></trkpt><trkpt lat="37.9894467" lon="15.2005483"><ele>822.5714285714287</ele><time>2026-04-26T11:51:00.044Z</time></trkpt><trkpt lat="37.9895167" lon="15.2005183"><ele>819.2857142857143</ele><time>2026-04-26T11:51:01.043Z</time></trkpt><trkpt lat="37.989585" lon="15.2004783"><ele>816.0</ele><time>2026-04-26T11:51:02.043Z</time></trkpt><trkpt lat="37.9896567" lon="15.200445"><ele>816.0</ele><time>2026-04-26T11:51:03.043Z</time></trkpt><trkpt lat="37.9897283" lon="15.200435"><ele>816.0</ele><time>2026-04-26T11:51:04.043Z</time></trkpt><trkpt lat="37.9898067" lon="15.2004417"><ele>816.0</ele><time>2026-04-26T11:51:05.043Z</time></trkpt><trkpt lat="37.9898917" lon="15.2004717"><ele>816.0</ele><time>2026-04-26T11:51:06.044Z</time></trkpt><trkpt lat="37.9899767" lon="15.2005233"><ele>816.0</ele><time>2026-04-26T11:51:07.043Z</time></trkpt><trkpt lat="37.990075" lon="15.2005983"><ele>816.0</ele><time>2026-04-26T11:51:08.043Z</time></trkpt><trkpt lat="37.99018" lon="15.200665"><ele>817.8</ele><time>2026-04-26T11:51:09.043Z</time></trkpt><trkpt lat="37.99027" lon="15.2007183"><ele>819.5999999999999</ele><time>2026-04-26T11:51:10.043Z</time></trkpt><trkpt lat="37.9903667" lon="15.2007433"><ele>821.4</ele><time>2026-04-26T11:51:11.043Z</time></trkpt><trkpt lat="37.9904617" lon="15.20075"><ele>823.2</ele><time>2026-04-26T11:51:12.043Z</time></trkpt><trkpt lat="37.9905467" lon="15.2007433"><ele>825.0</ele><time>2026-04-26T11:51:13.043Z</time></trkpt><trkpt lat="37.9906317" lon="15.2007217"><ele>825.0</ele><time>2026-04-26T11:51:14.043Z</time></trkpt><trkpt lat="37.9907267" lon="15.2006967"><ele>825.0</ele><time>2026-04-26T11:51:15.043Z</time></trkpt><trkpt lat="37.9908233" lon="15.2006633"><ele>825.0</ele><time>2026-04-26T11:51:16.043Z</time></trkpt><trkpt lat="37.99092" lon="15.2006483"><ele>825.0</ele><time>2026-04-26T11:51:17.043Z</time></trkpt><trkpt lat="37.9910183" lon="15.20065"><ele>825.0</ele><time>2026-04-26T11:51:18.043Z</time></trkpt><trkpt lat="37.991125" lon="15.2006667"><ele>821.6</ele><time>2026-04-26T11:51:19.043Z</time></trkpt><trkpt lat="37.9912317" lon="15.200665"><ele>818.2</ele><time>2026-04-26T11:51:20.043Z</time></trkpt><trkpt lat="37.9913383" lon="15.2006283"><ele>814.8</ele><time>2026-04-26T11:51:21.043Z</time></trkpt><trkpt lat="37.9914433" lon="15.2005633"><ele>811.4</ele><time>2026-04-26T11:51:22.043Z</time></trkpt><trkpt lat="37.99154" lon="15.2005"><ele>808.0</ele><time>2026-04-26T11:51:23.043Z</time></trkpt><trkpt lat="37.9916267" lon="15.2004467"><ele>806.9999999999999</ele><time>2026-04-26T11:51:24.043Z</time></trkpt><trkpt lat="37.9917117" lon="15.20041"><ele>806.0</ele><time>2026-04-26T11:51:25.043Z</time></trkpt><trkpt lat="37.9917933" lon="15.200395"><ele>805.0</ele><time>2026-04-26T11:51:26.044Z</time></trkpt><trkpt lat="37.9918683" lon="15.2003917"><ele>804.0</ele><time>2026-04-26T11:51:27.043Z</time></trkpt><trkpt lat="37.991945" lon="15.2004033"><ele>802.9999999999999</ele><time>2026-04-26T11:51:28.043Z</time></trkpt><trkpt lat="37.992015" lon="15.20044"><ele>802.0</ele><time>2026-04-26T11:51:29.044Z</time></trkpt><trkpt lat="37.9920767" lon="15.20051"><ele>802.0</ele><time>2026-04-26T11:51:30.044Z</time></trkpt><trkpt lat="37.9921283" lon="15.2005983"><ele>802.0</ele><time>2026-04-26T11:51:31.043Z</time></trkpt><trkpt lat="37.9921717" lon="15.2007017"><ele>802.0</ele><time>2026-04-26T11:51:32.043Z</time></trkpt><trkpt lat="37.992205" lon="15.20082"><ele>802.0</ele><time>2026-04-26T11:51:33.043Z</time></trkpt><trkpt lat="37.9922417" lon="15.20095"><ele>802.0</ele><time>2026-04-26T11:51:34.043Z</time></trkpt><trkpt lat="37.9922933" lon="15.201095"><ele>803.75</ele><time>2026-04-26T11:51:35.044Z</time></trkpt><trkpt lat="37.99236" lon="15.2012367"><ele>805.5</ele><time>2026-04-26T11:51:36.043Z</time></trkpt><trkpt lat="37.992435" lon="15.2013833"><ele>807.25</ele><time>2026-04-26T11:51:37.043Z</time></trkpt><trkpt lat="37.992505" lon="15.2015417"><ele>809.0</ele><time>2026-04-26T11:51:38.043Z</time></trkpt><trkpt lat="37.9925817" lon="15.201685"><ele>805.25</ele><time>2026-04-26T11:51:39.043Z</time></trkpt><trkpt lat="37.992665" lon="15.2018167"><ele>801.5</ele><time>2026-04-26T11:51:40.043Z</time></trkpt><trkpt lat="37.992755" lon="15.2019283"><ele>797.75</ele><time>2026-04-26T11:51:41.043Z</time></trkpt><trkpt lat="37.9928417" lon="15.2020217"><ele>794.0</ele><time>2026-04-26T11:51:42.043Z</time></trkpt><trkpt lat="37.99294" lon="15.202105"><ele>794.0</ele><time>2026-04-26T11:51:43.043Z</time></trkpt><trkpt lat="37.9930133" lon="15.2021917"><ele>794.0</ele><time>2026-04-26T11:51:44.043Z</time></trkpt><trkpt lat="37.9930683" lon="15.20229"><ele>794.0</ele><time>2026-04-26T11:51:45.043Z</time></trkpt><trkpt lat="37.99311" lon="15.2023967"><ele>794.0</ele><time>2026-04-26T11:51:46.043Z</time></trkpt><trkpt lat="37.9931383" lon="15.202515"><ele>794.0</ele><time>2026-04-26T11:51:47.043Z</time></trkpt><trkpt lat="37.9931583" lon="15.202645"><ele>795.6</ele><time>2026-04-26T11:51:48.043Z</time></trkpt><trkpt lat="37.9931833" lon="15.2027733"><ele>797.2</ele><time>2026-04-26T11:51:49.043Z</time></trkpt><trkpt lat="37.9932233" lon="15.2029"><ele>798.8000000000001</ele><time>2026-04-26T11:51:50.043Z</time></trkpt><trkpt lat="37.993285" lon="15.2030267"><ele>800.4000000000001</ele><time>2026-04-26T11:51:51.043Z</time></trkpt><trkpt lat="37.9933517" lon="15.2031467"><ele>802.0</ele><time>2026-04-26T11:51:52.043Z</time></trkpt><trkpt lat="37.993415" lon="15.203265"><ele>802.0</ele><time>2026-04-26T11:51:53.043Z</time></trkpt><trkpt lat="37.9934533" lon="15.2033767"><ele>802.0</ele><time>2026-04-26T11:51:54.043Z</time></trkpt><trkpt lat="37.9934817" lon="15.2034867"><ele>802.0</ele><time>2026-04-26T11:51:55.043Z</time></trkpt><trkpt lat="37.99349" lon="15.2035967"><ele>802.0</ele><time>2026-04-26T11:51:56.044Z</time></trkpt><trkpt lat="37.9935067" lon="15.203705"><ele>802.0</ele><time>2026-04-26T11:51:57.043Z</time></trkpt><trkpt lat="37.99353" lon="15.2038183"><ele>802.0</ele><time>2026-04-26T11:51:58.043Z</time></trkpt><trkpt lat="37.99356" lon="15.203935"><ele>802.0</ele><time>2026-04-26T11:51:59.043Z</time></trkpt><trkpt lat="37.9935933" lon="15.2040683"><ele>802.0</ele><time>2026-04-26T11:52:00.043Z</time></trkpt><trkpt lat="37.9936267" lon="15.2042083"><ele>802.0</ele><time>2026-04-26T11:52:01.043Z</time></trkpt><trkpt lat="37.9936567" lon="15.2043533"><ele>802.0</ele><time>2026-04-26T11:52:02.043Z</time></trkpt><trkpt lat="37.9936867" lon="15.2044933"><ele>805.25</ele><time>2026-04-26T11:52:03.043Z</time></trkpt><trkpt lat="37.99371" lon="15.2046317"><ele>808.5</ele><time>2026-04-26T11:52:04.043Z</time></trkpt><trkpt lat="37.993745" lon="15.204765"><ele>811.75</ele><time>2026-04-26T11:52:05.043Z</time></trkpt><trkpt lat="37.9937983" lon="15.20489"><ele>815.0</ele><time>2026-04-26T11:52:06.043Z</time></trkpt><trkpt lat="37.9938733" lon="15.2050083"><ele>815.0</ele><time>2026-04-26T11:52:07.043Z</time></trkpt><trkpt lat="37.9939583" lon="15.2051183"><ele>815.0</ele><time>2026-04-26T11:52:08.043Z</time></trkpt><trkpt lat="37.9940517" lon="15.2052"><ele>815.0</ele><time>2026-04-26T11:52:09.043Z</time></trkpt><trkpt lat="37.994155" lon="15.2052617"><ele>815.0</ele><time>2026-04-26T11:52:10.043Z</time></trkpt><trkpt lat="37.9942617" lon="15.2053233"><ele>811.6</ele><time>2026-04-26T11:52:11.043Z</time></trkpt><trkpt lat="37.99436" lon="15.205405"><ele>808.2</ele><time>2026-04-26T11:52:12.043Z</time></trkpt><trkpt lat="37.994445" lon="15.2055"><ele>804.8</ele><time>2026-04-26T11:52:13.043Z</time></trkpt><trkpt lat="37.994535" lon="15.20557"><ele>801.4</ele><time>2026-04-26T11:52:14.043Z</time></trkpt><trkpt lat="37.99463" lon="15.2056083"><ele>798.0</ele><time>2026-04-26T11:52:15.043Z</time></trkpt><trkpt lat="37.9947367" lon="15.2056233"><ele>798.0</ele><time>2026-04-26T11:52:16.043Z</time></trkpt><trkpt lat="37.9948467" lon="15.2056133"><ele>798.0</ele><time>2026-04-26T11:52:17.043Z</time></trkpt><trkpt lat="37.9949517" lon="15.205585"><ele>798.0</ele><time>2026-04-26T11:52:18.043Z</time></trkpt><trkpt lat="37.9950483" lon="15.20557"><ele>798.0</ele><time>2026-04-26T11:52:19.043Z</time></trkpt><trkpt lat="37.9951217" lon="15.2055717"><ele>798.0</ele><time>2026-04-26T11:52:20.043Z</time></trkpt><trkpt lat="37.995185" lon="15.2056017"><ele>797.5999999999999</ele><time>2026-04-26T11:52:21.043Z</time></trkpt><trkpt lat="37.9952317" lon="15.2057017"><ele>797.1999999999999</ele><time>2026-04-26T11:52:23.043Z</time></trkpt><trkpt lat="37.9951517" lon="15.2058317"><ele>796.8</ele><time>2026-04-26T11:52:25.043Z</time></trkpt><trkpt lat="37.9950983" lon="15.20591"><ele>796.4</ele><time>2026-04-26T11:52:26.043Z</time></trkpt><trkpt lat="37.9950433" lon="15.20601"><ele>796.0</ele><time>2026-04-26T11:52:27.043Z</time></trkpt><trkpt lat="37.9949883" lon="15.2061217"><ele>798.75</ele><time>2026-04-26T11:52:28.043Z</time></trkpt><trkpt lat="37.9949367" lon="15.20626"><ele>801.5</ele><time>2026-04-26T11:52:29.043Z</time></trkpt><trkpt lat="37.994885" lon="15.2064"><ele>804.25</ele><time>2026-04-26T11:52:30.043Z</time></trkpt><trkpt lat="37.9948467" lon="15.2065367"><ele>807.0</ele><time>2026-04-26T11:52:31.043Z</time></trkpt><trkpt lat="37.9948283" lon="15.2066683"><ele>807.0</ele><time>2026-04-26T11:52:32.043Z</time></trkpt><trkpt lat="37.99483" lon="15.2067933"><ele>807.0</ele><time>2026-04-26T11:52:33.043Z</time></trkpt><trkpt lat="37.9948483" lon="15.206925"><ele>807.0</ele><time>2026-04-26T11:52:34.043Z</time></trkpt><trkpt lat="37.994875" lon="15.2070467"><ele>807.0</ele><time>2026-04-26T11:52:35.043Z</time></trkpt><trkpt lat="37.9948883" lon="15.2071867"><ele>807.0</ele><time>2026-04-26T11:52:36.043Z</time></trkpt><trkpt lat="37.99489" lon="15.2073417"><ele>805.75</ele><time>2026-04-26T11:52:37.043Z</time></trkpt><trkpt lat="37.994875" lon="15.2075"><ele>804.5</ele><time>2026-04-26T11:52:38.043Z</time></trkpt><trkpt lat="37.9948517" lon="15.2076583"><ele>803.25</ele><time>2026-04-26T11:52:39.043Z</time></trkpt><trkpt lat="37.994835" lon="15.207815"><ele>802.0</ele><time>2026-04-26T11:52:40.043Z</time></trkpt><trkpt lat="37.9948217" lon="15.2079683"><ele>801.9999999999999</ele><time>2026-04-26T11:52:41.043Z</time></trkpt><trkpt lat="37.9948" lon="15.2081017"><ele>802.0</ele><time>2026-04-26T11:52:42.043Z</time></trkpt><trkpt lat="37.99478" lon="15.2082083"><ele>802.0</ele><time>2026-04-26T11:52:43.043Z</time></trkpt><trkpt lat="37.994765" lon="15.2082883"><ele>802.0</ele><time>2026-04-26T11:52:44.043Z</time></trkpt><trkpt lat="37.9947717" lon="15.208395"><ele>801.9999999999999</ele><time>2026-04-26T11:52:46.044Z</time></trkpt><trkpt lat="37.9948533" lon="15.2083583"><ele>802.0</ele><time>2026-04-26T11:52:49.043Z</time></trkpt><trkpt lat="37.9949017" lon="15.2082383"><ele>801.9999999999999</ele><time>2026-04-26T11:53:00.043Z</time></trkpt><trkpt lat="37.9949183" lon="15.2081417"><ele>802.0</ele><time>2026-04-26T11:53:01.043Z</time></trkpt><trkpt lat="37.99493" lon="15.2080317"><ele>802.0</ele><time>2026-04-26T11:53:02.043Z</time></trkpt><trkpt lat="37.9949383" lon="15.207925"><ele>802.0</ele><time>2026-04-26T11:53:03.043Z</time></trkpt><trkpt lat="37.9949533" lon="15.2078283"><ele>801.9999999999999</ele><time>2026-04-26T11:53:04.043Z</time></trkpt><trkpt lat="37.9949783" lon="15.2077417"><ele>802.0</ele><time>2026-04-26T11:53:05.043Z</time></trkpt><trkpt lat="37.9950117" lon="15.20766"><ele>798.3333333333333</ele><time>2026-04-26T11:53:06.044Z</time></trkpt><trkpt lat="37.99505" lon="15.2075833"><ele>794.6666666666666</ele><time>2026-04-26T11:53:07.043Z</time></trkpt><trkpt lat="37.9950883" lon="15.2075"><ele>791.0</ele><time>2026-04-26T11:53:08.043Z</time></trkpt><trkpt lat="37.995135" lon="15.207415"><ele>787.3333333333333</ele><time>2026-04-26T11:53:09.043Z</time></trkpt><trkpt lat="37.995185" lon="15.2073283"><ele>783.6666666666666</ele><time>2026-04-26T11:53:10.043Z</time></trkpt><trkpt lat="37.995235" lon="15.2072433"><ele>780.0</ele><time>2026-04-26T11:53:11.043Z</time></trkpt><trkpt lat="37.9952733" lon="15.207155"><ele>780.0</ele><time>2026-04-26T11:53:12.043Z</time></trkpt><trkpt lat="37.99531" lon="15.2070517"><ele>780.0</ele><time>2026-04-26T11:53:13.043Z</time></trkpt><trkpt lat="37.995335" lon="15.2069567"><ele>780.0</ele><time>2026-04-26T11:53:14.043Z</time></trkpt><trkpt lat="37.9953417" lon="15.2068583"><ele>780.0</ele><time>2026-04-26T11:53:15.043Z</time></trkpt><trkpt lat="37.9953417" lon="15.2067567"><ele>780.0</ele><time>2026-04-26T11:53:16.044Z</time></trkpt><trkpt lat="37.9953467" lon="15.20666"><ele>780.0</ele><time>2026-04-26T11:53:17.043Z</time></trkpt><trkpt lat="37.9953533" lon="15.20657"><ele>782.2857142857142</ele><time>2026-04-26T11:53:18.043Z</time></trkpt><trkpt lat="37.9953717" lon="15.2064883"><ele>784.5714285714286</ele><time>2026-04-26T11:53:19.043Z</time></trkpt><trkpt lat="37.995405" lon="15.2064133"><ele>786.8571428571429</ele><time>2026-04-26T11:53:20.043Z</time></trkpt><trkpt lat="37.995455" lon="15.2063567"><ele>789.1428571428571</ele><time>2026-04-26T11:53:21.044Z</time></trkpt><trkpt lat="37.9955183" lon="15.206315"><ele>791.4285714285714</ele><time>2026-04-26T11:53:22.043Z</time></trkpt><trkpt lat="37.9955833" lon="15.2063017"><ele>793.7142857142857</ele><time>2026-04-26T11:53:23.044Z</time></trkpt><trkpt lat="37.9956533" lon="15.206295"><ele>796.0</ele><time>2026-04-26T11:53:24.044Z</time></trkpt><trkpt lat="37.9957233" lon="15.2062817"><ele>795.9999999999999</ele><time>2026-04-26T11:53:25.043Z</time></trkpt><trkpt lat="37.9958" lon="15.2062467"><ele>796.0</ele><time>2026-04-26T11:53:26.043Z</time></trkpt><trkpt lat="37.9958617" lon="15.206205"><ele>796.0</ele><time>2026-04-26T11:53:27.043Z</time></trkpt><trkpt lat="37.9959567" lon="15.2061683"><ele>796.0</ele><time>2026-04-26T11:53:29.043Z</time></trkpt><trkpt lat="37.99602" lon="15.2062367"><ele>795.9999999999999</ele><time>2026-04-26T11:53:31.043Z</time></trkpt><trkpt lat="37.9959933" lon="15.2063583"><ele>796.0</ele><time>2026-04-26T11:53:33.043Z</time></trkpt><trkpt lat="37.9959383" lon="15.2064117"><ele>793.3333333333333</ele><time>2026-04-26T11:53:34.043Z</time></trkpt><trkpt lat="37.9958583" lon="15.2064583"><ele>790.6666666666666</ele><time>2026-04-26T11:53:35.043Z</time></trkpt><trkpt lat="37.9957717" lon="15.2065"><ele>788.0</ele><time>2026-04-26T11:53:36.043Z</time></trkpt><trkpt lat="37.9957033" lon="15.206545"><ele>785.3333333333333</ele><time>2026-04-26T11:53:37.043Z</time></trkpt><trkpt lat="37.9956517" lon="15.206615"><ele>782.6666666666666</ele><time>2026-04-26T11:53:38.043Z</time></trkpt><trkpt lat="37.9956117" lon="15.206695"><ele>780.0</ele><time>2026-04-26T11:53:39.043Z</time></trkpt><trkpt lat="37.995595" lon="15.2068017"><ele>780.0</ele><time>2026-04-26T11:53:40.043Z</time></trkpt><trkpt lat="37.995615" lon="15.206905"><ele>780.0</ele><time>2026-04-26T11:53:41.043Z</time></trkpt><trkpt lat="37.9956417" lon="15.2070217"><ele>780.0</ele><time>2026-04-26T11:53:42.043Z</time></trkpt><trkpt lat="37.9956583" lon="15.2071433"><ele>780.0</ele><time>2026-04-26T11:53:43.043Z</time></trkpt><trkpt lat="37.995645" lon="15.2072517"><ele>780.0</ele><time>2026-04-26T11:53:44.043Z</time></trkpt><trkpt lat="37.9956183" lon="15.2073567"><ele>777.4</ele><time>2026-04-26T11:53:45.043Z</time></trkpt><trkpt lat="37.99558" lon="15.207465"><ele>774.8</ele><time>2026-04-26T11:53:46.043Z</time></trkpt><trkpt lat="37.9955467" lon="15.20759"><ele>772.2</ele><time>2026-04-26T11:53:47.043Z</time></trkpt><trkpt lat="37.99553" lon="15.207715"><ele>769.6</ele><time>2026-04-26T11:53:48.043Z</time></trkpt><trkpt lat="37.9955317" lon="15.2078267"><ele>767.0</ele><time>2026-04-26T11:53:49.043Z</time></trkpt><trkpt lat="37.9955483" lon="15.2079417"><ele>767.0</ele><time>2026-04-26T11:53:50.043Z</time></trkpt><trkpt lat="37.9955717" lon="15.20806"><ele>767.0</ele><time>2026-04-26T11:53:51.043Z</time></trkpt><trkpt lat="37.9955833" lon="15.2081833"><ele>767.0</ele><time>2026-04-26T11:53:52.043Z</time></trkpt><trkpt lat="37.9955817" lon="15.2083183"><ele>767.0</ele><time>2026-04-26T11:53:53.043Z</time></trkpt><trkpt lat="37.99558" lon="15.2084467"><ele>767.0</ele><time>2026-04-26T11:53:54.043Z</time></trkpt><trkpt lat="37.9956017" lon="15.208565"><ele>765.75</ele><time>2026-04-26T11:53:55.043Z</time></trkpt><trkpt lat="37.9956433" lon="15.2086933"><ele>764.5</ele><time>2026-04-26T11:53:56.043Z</time></trkpt><trkpt lat="37.995705" lon="15.208825"><ele>763.25</ele><time>2026-04-26T11:53:57.043Z</time></trkpt><trkpt lat="37.9957767" lon="15.2089583"><ele>762.0</ele><time>2026-04-26T11:53:58.043Z</time></trkpt><trkpt lat="37.9958533" lon="15.2090767"><ele>754.75</ele><time>2026-04-26T11:53:59.043Z</time></trkpt><trkpt lat="37.99594" lon="15.2091833"><ele>747.5</ele><time>2026-04-26T11:54:00.043Z</time></trkpt><trkpt lat="37.99601" lon="15.20929"><ele>740.25</ele><time>2026-04-26T11:54:01.043Z</time></trkpt><trkpt lat="37.99607" lon="15.209405"><ele>733.0</ele><time>2026-04-26T11:54:02.043Z</time></trkpt><trkpt lat="37.9961367" lon="15.2095467"><ele>733.0</ele><time>2026-04-26T11:54:03.043Z</time></trkpt><trkpt lat="37.9962017" lon="15.2096767"><ele>733.0</ele><time>2026-04-26T11:54:04.043Z</time></trkpt><trkpt lat="37.9962683" lon="15.2098133"><ele>733.0</ele><time>2026-04-26T11:54:05.043Z</time></trkpt><trkpt lat="37.9963283" lon="15.2099517"><ele>733.0</ele><time>2026-04-26T11:54:06.043Z</time></trkpt><trkpt lat="37.9963967" lon="15.2100833"><ele>728.75</ele><time>2026-04-26T11:54:07.043Z</time></trkpt><trkpt lat="37.996475" lon="15.2102"><ele>724.5</ele><time>2026-04-26T11:54:08.043Z</time></trkpt><trkpt lat="37.9965717" lon="15.210305"><ele>720.25</ele><time>2026-04-26T11:54:09.043Z</time></trkpt><trkpt lat="37.9966817" lon="15.2104117"><ele>716.0</ele><time>2026-04-26T11:54:10.043Z</time></trkpt><trkpt lat="37.9967783" lon="15.2105217"><ele>716.0</ele><time>2026-04-26T11:54:11.043Z</time></trkpt><trkpt lat="37.99687" lon="15.2106167"><ele>716.0</ele><time>2026-04-26T11:54:12.043Z</time></trkpt><trkpt lat="37.9969483" lon="15.21073"><ele>716.0</ele><time>2026-04-26T11:54:13.043Z</time></trkpt><trkpt lat="37.9970183" lon="15.21085"><ele>716.0</ele><time>2026-04-26T11:54:14.044Z</time></trkpt><trkpt lat="37.9970817" lon="15.21098"><ele>720.75</ele><time>2026-04-26T11:54:15.043Z</time></trkpt><trkpt lat="37.9971283" lon="15.2111267"><ele>725.5</ele><time>2026-04-26T11:54:16.043Z</time></trkpt><trkpt lat="37.9971817" lon="15.211285"><ele>730.25</ele><time>2026-04-26T11:54:17.043Z</time></trkpt><trkpt lat="37.99723" lon="15.21143"><ele>735.0</ele><time>2026-04-26T11:54:18.043Z</time></trkpt><trkpt lat="37.9972917" lon="15.2115717"><ele>734.4</ele><time>2026-04-26T11:54:19.043Z</time></trkpt><trkpt lat="37.997335" lon="15.211705"><ele>733.8</ele><time>2026-04-26T11:54:20.043Z</time></trkpt><trkpt lat="37.997385" lon="15.2118283"><ele>733.2</ele><time>2026-04-26T11:54:21.043Z</time></trkpt><trkpt lat="37.9974367" lon="15.2119167"><ele>732.6</ele><time>2026-04-26T11:54:22.043Z</time></trkpt><trkpt lat="37.9975033" lon="15.2120017"><ele>732.0</ele><time>2026-04-26T11:54:23.043Z</time></trkpt><trkpt lat="37.997595" lon="15.2120633"><ele>732.0</ele><time>2026-04-26T11:54:24.043Z</time></trkpt><trkpt lat="37.9977033" lon="15.2121067"><ele>732.0</ele><time>2026-04-26T11:54:25.044Z</time></trkpt><trkpt lat="37.9978317" lon="15.212135"><ele>732.0</ele><time>2026-04-26T11:54:26.043Z</time></trkpt><trkpt lat="37.9979567" lon="15.2121633"><ele>732.0</ele><time>2026-04-26T11:54:27.043Z</time></trkpt><trkpt lat="37.99808" lon="15.2121867"><ele>732.0</ele><time>2026-04-26T11:54:28.043Z</time></trkpt><trkpt lat="37.998205" lon="15.2121967"><ele>732.0</ele><time>2026-04-26T11:54:29.044Z</time></trkpt><trkpt lat="37.998335" lon="15.2122033"><ele>732.0</ele><time>2026-04-26T11:54:30.043Z</time></trkpt><trkpt lat="37.9984633" lon="15.2122083"><ele>732.0</ele><time>2026-04-26T11:54:31.043Z</time></trkpt><trkpt lat="37.998585" lon="15.212215"><ele>731.2</ele><time>2026-04-26T11:54:32.043Z</time></trkpt><trkpt lat="37.9986967" lon="15.2122217"><ele>730.4000000000001</ele><time>2026-04-26T11:54:33.043Z</time></trkpt><trkpt lat="37.9988017" lon="15.2122383"><ele>729.5999999999999</ele><time>2026-04-26T11:54:34.043Z</time></trkpt><trkpt lat="37.9989067" lon="15.2122367"><ele>728.8</ele><time>2026-04-26T11:54:35.043Z</time></trkpt><trkpt lat="37.999" lon="15.2122067"><ele>728.0</ele><time>2026-04-26T11:54:36.043Z</time></trkpt><trkpt lat="37.9990917" lon="15.2121583"><ele>730.2</ele><time>2026-04-26T11:54:37.043Z</time></trkpt><trkpt lat="37.999185" lon="15.2121067"><ele>732.4</ele><time>2026-04-26T11:54:38.043Z</time></trkpt><trkpt lat="37.99928" lon="15.21208"><ele>734.6</ele><time>2026-04-26T11:54:39.043Z</time></trkpt><trkpt lat="37.9993783" lon="15.21207"><ele>736.8000000000001</ele><time>2026-04-26T11:54:40.043Z</time></trkpt><trkpt lat="37.99947" lon="15.21205"><ele>739.0</ele><time>2026-04-26T11:54:41.043Z</time></trkpt><trkpt lat="37.9995467" lon="15.2120133"><ele>739.0</ele><time>2026-04-26T11:54:42.043Z</time></trkpt><trkpt lat="37.9996133" lon="15.211955"><ele>739.0</ele><time>2026-04-26T11:54:43.043Z</time></trkpt><trkpt lat="37.9996783" lon="15.2118667"><ele>739.0</ele><time>2026-04-26T11:54:44.043Z</time></trkpt><trkpt lat="37.99973" lon="15.21178"><ele>739.0</ele><time>2026-04-26T11:54:45.043Z</time></trkpt><trkpt lat="37.999795" lon="15.2117"><ele>739.0</ele><time>2026-04-26T11:54:46.043Z</time></trkpt><trkpt lat="37.9998683" lon="15.2116283"><ele>739.0</ele><time>2026-04-26T11:54:47.043Z</time></trkpt><trkpt lat="37.9999367" lon="15.211545"><ele>732.75</ele><time>2026-04-26T11:54:48.043Z</time></trkpt><trkpt lat="38.0000017" lon="15.2114333"><ele>726.5</ele><time>2026-04-26T11:54:49.043Z</time></trkpt><trkpt lat="38.0000533" lon="15.2113017"><ele>720.25</ele><time>2026-04-26T11:54:50.043Z</time></trkpt><trkpt lat="38.0001033" lon="15.2111683"><ele>714.0</ele><time>2026-04-26T11:54:51.043Z</time></trkpt><trkpt lat="38.00016" lon="15.2110433"><ele>714.0</ele><time>2026-04-26T11:54:52.043Z</time></trkpt><trkpt lat="38.0002117" lon="15.2109317"><ele>714.0</ele><time>2026-04-26T11:54:53.043Z</time></trkpt><trkpt lat="38.0002517" lon="15.2108233"><ele>714.0</ele><time>2026-04-26T11:54:54.043Z</time></trkpt><trkpt lat="38.0002767" lon="15.2107233"><ele>714.0</ele><time>2026-04-26T11:54:55.043Z</time></trkpt><trkpt lat="38.0002717" lon="15.2106217"><ele>714.0</ele><time>2026-04-26T11:54:56.043Z</time></trkpt><trkpt lat="38.0002517" lon="15.210525"><ele>714.0</ele><time>2026-04-26T11:54:57.043Z</time></trkpt><trkpt lat="38.0002367" lon="15.210425"><ele>710.0</ele><time>2026-04-26T11:54:58.043Z</time></trkpt><trkpt lat="38.000255" lon="15.2103417"><ele>706.0</ele><time>2026-04-26T11:54:59.043Z</time></trkpt><trkpt lat="38.0002983" lon="15.2102667"><ele>702.0</ele><time>2026-04-26T11:55:00.043Z</time></trkpt><trkpt lat="38.000375" lon="15.21022"><ele>698.0</ele><time>2026-04-26T11:55:01.043Z</time></trkpt><trkpt lat="38.0004567" lon="15.2101867"><ele>694.0</ele><time>2026-04-26T11:55:02.043Z</time></trkpt><trkpt lat="38.000555" lon="15.210185"><ele>690.0</ele><time>2026-04-26T11:55:03.043Z</time></trkpt><trkpt lat="38.0006567" lon="15.2102"><ele>690.0</ele><time>2026-04-26T11:55:04.043Z</time></trkpt><trkpt lat="38.0007783" lon="15.21024"><ele>690.0</ele><time>2026-04-26T11:55:05.043Z</time></trkpt><trkpt lat="38.0008967" lon="15.2102683"><ele>690.0</ele><time>2026-04-26T11:55:06.043Z</time></trkpt><trkpt lat="38.00102" lon="15.2102667"><ele>690.0</ele><time>2026-04-26T11:55:07.043Z</time></trkpt><trkpt lat="38.00112" lon="15.2102433"><ele>692.6</ele><time>2026-04-26T11:55:08.043Z</time></trkpt><trkpt lat="38.0012" lon="15.2101933"><ele>695.2</ele><time>2026-04-26T11:55:09.043Z</time></trkpt><trkpt lat="38.001265" lon="15.2101117"><ele>697.8</ele><time>2026-04-26T11:55:10.043Z</time></trkpt><trkpt lat="38.00133" lon="15.210005"><ele>700.4</ele><time>2026-04-26T11:55:11.043Z</time></trkpt><trkpt lat="38.0014" lon="15.20989"><ele>703.0</ele><time>2026-04-26T11:55:12.044Z</time></trkpt><trkpt lat="38.0014733" lon="15.2097667"><ele>699.2</ele><time>2026-04-26T11:55:13.043Z</time></trkpt><trkpt lat="38.0015417" lon="15.209655"><ele>695.4</ele><time>2026-04-26T11:55:14.043Z</time></trkpt><trkpt lat="38.0016067" lon="15.2095517"><ele>691.6</ele><time>2026-04-26T11:55:15.043Z</time></trkpt><trkpt lat="38.001675" lon="15.2094567"><ele>687.8000000000001</ele><time>2026-04-26T11:55:16.043Z</time></trkpt><trkpt lat="38.001755" lon="15.20939"><ele>684.0</ele><time>2026-04-26T11:55:17.043Z</time></trkpt><trkpt lat="38.0018483" lon="15.2093383"><ele>684.0</ele><time>2026-04-26T11:55:18.043Z</time></trkpt><trkpt lat="38.001945" lon="15.2092983"><ele>684.0</ele><time>2026-04-26T11:55:19.043Z</time></trkpt><trkpt lat="38.0020533" lon="15.209255"><ele>684.0</ele><time>2026-04-26T11:55:20.043Z</time></trkpt><trkpt lat="38.00215" lon="15.209195"><ele>684.0</ele><time>2026-04-26T11:55:21.043Z</time></trkpt><trkpt lat="38.00224" lon="15.2091383"><ele>684.0</ele><time>2026-04-26T11:55:22.043Z</time></trkpt><trkpt lat="38.0023333" lon="15.2090933"><ele>684.0</ele><time>2026-04-26T11:55:23.043Z</time></trkpt><trkpt lat="38.0024417" lon="15.209065"><ele>684.0</ele><time>2026-04-26T11:55:24.043Z</time></trkpt><trkpt lat="38.00256" lon="15.2090483"><ele>684.0</ele><time>2026-04-26T11:55:25.043Z</time></trkpt><trkpt lat="38.0026683" lon="15.2090567"><ele>684.0</ele><time>2026-04-26T11:55:26.043Z</time></trkpt><trkpt lat="38.00276" lon="15.2090833"><ele>684.0</ele><time>2026-04-26T11:55:27.043Z</time></trkpt><trkpt lat="38.00284" lon="15.2091283"><ele>685.6666666666666</ele><time>2026-04-26T11:55:28.043Z</time></trkpt><trkpt lat="38.002905" lon="15.209205"><ele>687.3333333333334</ele><time>2026-04-26T11:55:29.043Z</time></trkpt><trkpt lat="38.0029617" lon="15.2092933"><ele>689.0</ele><time>2026-04-26T11:55:30.043Z</time></trkpt><trkpt lat="38.0030033" lon="15.2093983"><ele>690.6666666666667</ele><time>2026-04-26T11:55:31.043Z</time></trkpt><trkpt lat="38.00304" lon="15.2095017"><ele>692.3333333333334</ele><time>2026-04-26T11:55:32.043Z</time></trkpt><trkpt lat="38.003075" lon="15.2095983"><ele>694.0</ele><time>2026-04-26T11:55:33.043Z</time></trkpt><trkpt lat="38.00313" lon="15.2096733"><ele>694.0</ele><time>2026-04-26T11:55:34.043Z</time></trkpt><trkpt lat="38.0031967" lon="15.2097217"><ele>694.0</ele><time>2026-04-26T11:55:35.043Z</time></trkpt><trkpt lat="38.0032833" lon="15.2097417"><ele>694.0</ele><time>2026-04-26T11:55:36.043Z</time></trkpt><trkpt lat="38.0033867" lon="15.2097433"><ele>694.0</ele><time>2026-04-26T11:55:37.044Z</time></trkpt><trkpt lat="38.0035167" lon="15.20973"><ele>694.0</ele><time>2026-04-26T11:55:38.043Z</time></trkpt><trkpt lat="38.0036433" lon="15.2097233"><ele>692.5</ele><time>2026-04-26T11:55:39.044Z</time></trkpt><trkpt lat="38.0037617" lon="15.209755"><ele>691.0</ele><time>2026-04-26T11:55:40.043Z</time></trkpt><trkpt lat="38.0038833" lon="15.20981"><ele>689.5</ele><time>2026-04-26T11:55:41.043Z</time></trkpt><trkpt lat="38.0039967" lon="15.20988"><ele>688.0</ele><time>2026-04-26T11:55:42.043Z</time></trkpt><trkpt lat="38.0041" lon="15.209965"><ele>684.0</ele><time>2026-04-26T11:55:43.043Z</time></trkpt><trkpt lat="38.0041883" lon="15.2100433"><ele>680.0</ele><time>2026-04-26T11:55:44.043Z</time></trkpt><trkpt lat="38.0042483" lon="15.2101167"><ele>676.0</ele><time>2026-04-26T11:55:45.043Z</time></trkpt><trkpt lat="38.0042967" lon="15.21019"><ele>672.0</ele><time>2026-04-26T11:55:46.043Z</time></trkpt><trkpt lat="38.0043583" lon="15.210305"><ele>668.0</ele><time>2026-04-26T11:55:48.043Z</time></trkpt><trkpt lat="38.004465" lon="15.2103283"><ele>668.0</ele><time>2026-04-26T11:55:50.043Z</time></trkpt><trkpt lat="38.0045433" lon="15.21021"><ele>668.0</ele><time>2026-04-26T11:55:52.043Z</time></trkpt><trkpt lat="38.0045167" lon="15.2100517"><ele>668.0</ele><time>2026-04-26T11:55:54.043Z</time></trkpt><trkpt lat="38.00446" lon="15.209965"><ele>668.0</ele><time>2026-04-26T11:55:55.042Z</time></trkpt><trkpt lat="38.0044033" lon="15.209865"><ele>668.0</ele><time>2026-04-26T11:55:56.042Z</time></trkpt><trkpt lat="38.0043517" lon="15.2097733"><ele>667.5999999999999</ele><time>2026-04-26T11:55:57.042Z</time></trkpt><trkpt lat="38.0042933" lon="15.2096767"><ele>667.1999999999999</ele><time>2026-04-26T11:55:58.042Z</time></trkpt><trkpt lat="38.0042233" lon="15.209605"><ele>666.8</ele><time>2026-04-26T11:55:59.042Z</time></trkpt><trkpt lat="38.0041433" lon="15.20955"><ele>666.4</ele><time>2026-04-26T11:56:00.042Z</time></trkpt><trkpt lat="38.0040583" lon="15.209475"><ele>666.0</ele><time>2026-04-26T11:56:01.042Z</time></trkpt><trkpt lat="38.0039817" lon="15.2093983"><ele>666.0</ele><time>2026-04-26T11:56:02.042Z</time></trkpt><trkpt lat="38.0039117" lon="15.2093167"><ele>666.0</ele><time>2026-04-26T11:56:03.043Z</time></trkpt><trkpt lat="38.0038433" lon="15.20925"><ele>666.0</ele><time>2026-04-26T11:56:04.042Z</time></trkpt><trkpt lat="38.0037667" lon="15.209195"><ele>666.0</ele><time>2026-04-26T11:56:05.042Z</time></trkpt><trkpt lat="38.00369" lon="15.209175"><ele>666.0</ele><time>2026-04-26T11:56:06.042Z</time></trkpt><trkpt lat="38.0036067" lon="15.2091917"><ele>666.0</ele><time>2026-04-26T11:56:07.042Z</time></trkpt><trkpt lat="38.00352" lon="15.20921"><ele>666.0</ele><time>2026-04-26T11:56:08.042Z</time></trkpt><trkpt lat="38.0034383" lon="15.2092033"><ele>666.0</ele><time>2026-04-26T11:56:09.042Z</time></trkpt><trkpt lat="38.00337" lon="15.20918"><ele>666.0</ele><time>2026-04-26T11:56:10.042Z</time></trkpt><trkpt lat="38.0033183" lon="15.2091283"><ele>666.0</ele><time>2026-04-26T11:56:11.042Z</time></trkpt><trkpt lat="38.00328" lon="15.20906"><ele>666.0</ele><time>2026-04-26T11:56:12.042Z</time></trkpt><trkpt lat="38.0032667" lon="15.2089533"><ele>666.0</ele><time>2026-04-26T11:56:13.042Z</time></trkpt><trkpt lat="38.0032733" lon="15.2088283"><ele>666.4</ele><time>2026-04-26T11:56:14.042Z</time></trkpt><trkpt lat="38.0032917" lon="15.2086933"><ele>666.8</ele><time>2026-04-26T11:56:15.042Z</time></trkpt><trkpt lat="38.00329" lon="15.2085783"><ele>667.1999999999999</ele><time>2026-04-26T11:56:16.042Z</time></trkpt><trkpt lat="38.0032567" lon="15.2084533"><ele>667.5999999999999</ele><time>2026-04-26T11:56:17.042Z</time></trkpt><trkpt lat="38.0032017" lon="15.20832"><ele>668.0</ele><time>2026-04-26T11:56:18.042Z</time></trkpt><trkpt lat="38.003145" lon="15.20819"><ele>662.5999999999999</ele><time>2026-04-26T11:56:19.042Z</time></trkpt><trkpt lat="38.0030867" lon="15.208055"><ele>657.1999999999999</ele><time>2026-04-26T11:56:20.042Z</time></trkpt><trkpt lat="38.003025" lon="15.20793"><ele>651.8</ele><time>2026-04-26T11:56:21.042Z</time></trkpt><trkpt lat="38.0029817" lon="15.2078133"><ele>646.4</ele><time>2026-04-26T11:56:22.042Z</time></trkpt><trkpt lat="38.00294" lon="15.2077067"><ele>641.0</ele><time>2026-04-26T11:56:23.043Z</time></trkpt><trkpt lat="38.0028717" lon="15.2076117"><ele>641.0</ele><time>2026-04-26T11:56:24.042Z</time></trkpt><trkpt lat="38.0027733" lon="15.2075283"><ele>641.0</ele><time>2026-04-26T11:56:25.042Z</time></trkpt><trkpt lat="38.002665" lon="15.2074533"><ele>641.0</ele><time>2026-04-26T11:56:26.042Z</time></trkpt><trkpt lat="38.0025667" lon="15.20738"><ele>641.0</ele><time>2026-04-26T11:56:27.042Z</time></trkpt><trkpt lat="38.0024767" lon="15.2073117"><ele>634.6666666666666</ele><time>2026-04-26T11:56:28.042Z</time></trkpt><trkpt lat="38.002395" lon="15.2072767"><ele>628.3333333333333</ele><time>2026-04-26T11:56:29.042Z</time></trkpt><trkpt lat="38.0023083" lon="15.20727"><ele>622.0</ele><time>2026-04-26T11:56:30.042Z</time></trkpt><trkpt lat="38.0022217" lon="15.2072867"><ele>615.6666666666666</ele><time>2026-04-26T11:56:31.042Z</time></trkpt><trkpt lat="38.0021517" lon="15.2073033"><ele>609.3333333333334</ele><time>2026-04-26T11:56:32.043Z</time></trkpt><trkpt lat="38.002055" lon="15.2072817"><ele>603.0</ele><time>2026-04-26T11:56:34.042Z</time></trkpt><trkpt lat="38.0020383" lon="15.2071983"><ele>603.0</ele><time>2026-04-26T11:56:36.042Z</time></trkpt><trkpt lat="38.002125" lon="15.2071183"><ele>603.0</ele><time>2026-04-26T11:56:38.042Z</time></trkpt><trkpt lat="38.002225" lon="15.2070983"><ele>603.0</ele><time>2026-04-26T11:56:39.042Z</time></trkpt><trkpt lat="38.002355" lon="15.2070833"><ele>603.0</ele><time>2026-04-26T11:56:40.043Z</time></trkpt><trkpt lat="38.0024783" lon="15.207075"><ele>605.25</ele><time>2026-04-26T11:56:41.042Z</time></trkpt><trkpt lat="38.0026033" lon="15.2070683"><ele>607.5</ele><time>2026-04-26T11:56:42.042Z</time></trkpt><trkpt lat="38.0027183" lon="15.2070883"><ele>609.75</ele><time>2026-04-26T11:56:43.043Z</time></trkpt><trkpt lat="38.0028367" lon="15.2071283"><ele>612.0</ele><time>2026-04-26T11:56:44.042Z</time></trkpt><trkpt lat="38.00295" lon="15.2071783"><ele>612.0</ele><time>2026-04-26T11:56:45.042Z</time></trkpt><trkpt lat="38.0030683" lon="15.20722"><ele>612.0</ele><time>2026-04-26T11:56:46.042Z</time></trkpt><trkpt lat="38.0031817" lon="15.2072483"><ele>612.0</ele><time>2026-04-26T11:56:47.042Z</time></trkpt><trkpt lat="38.0032933" lon="15.207265"><ele>612.0</ele><time>2026-04-26T11:56:48.042Z</time></trkpt><trkpt lat="38.0034133" lon="15.2072717"><ele>608.0</ele><time>2026-04-26T11:56:49.042Z</time></trkpt><trkpt lat="38.003535" lon="15.207285"><ele>604.0</ele><time>2026-04-26T11:56:50.042Z</time></trkpt><trkpt lat="38.00365" lon="15.2073"><ele>600.0</ele><time>2026-04-26T11:56:51.043Z</time></trkpt><trkpt lat="38.0037667" lon="15.207305"><ele>596.0</ele><time>2026-04-26T11:56:52.042Z</time></trkpt><trkpt lat="38.0038767" lon="15.2073183"><ele>599.0</ele><time>2026-04-26T11:56:53.042Z</time></trkpt><trkpt lat="38.00398" lon="15.2073517"><ele>602.0</ele><time>2026-04-26T11:56:54.042Z</time></trkpt><trkpt lat="38.0040633" lon="15.2073967"><ele>605.0</ele><time>2026-04-26T11:56:55.042Z</time></trkpt><trkpt lat="38.0041317" lon="15.2074783"><ele>608.0</ele><time>2026-04-26T11:56:56.042Z</time></trkpt><trkpt lat="38.0041767" lon="15.20757"><ele>611.0</ele><time>2026-04-26T11:56:57.042Z</time></trkpt><trkpt lat="38.0042083" lon="15.207655"><ele>611.0</ele><time>2026-04-26T11:56:58.042Z</time></trkpt><trkpt lat="38.0042267" lon="15.2077517"><ele>611.0</ele><time>2026-04-26T11:56:59.043Z</time></trkpt><trkpt lat="38.0042433" lon="15.207835"><ele>611.0</ele><time>2026-04-26T11:57:00.042Z</time></trkpt><trkpt lat="38.0043067" lon="15.2079267"><ele>611.0</ele><time>2026-04-26T11:57:02.043Z</time></trkpt><trkpt lat="38.0043767" lon="15.2079067"><ele>611.0</ele><time>2026-04-26T11:57:04.043Z</time></trkpt><trkpt lat="38.0044317" lon="15.207745"><ele>611.0</ele><time>2026-04-26T11:57:06.043Z</time></trkpt><trkpt lat="38.0044383" lon="15.20762"><ele>611.0</ele><time>2026-04-26T11:57:07.043Z</time></trkpt><trkpt lat="38.004435" lon="15.20749"><ele>611.0</ele><time>2026-04-26T11:57:08.042Z</time></trkpt><trkpt lat="38.004425" lon="15.2073717"><ele>611.0</ele><time>2026-04-26T11:57:09.042Z</time></trkpt><trkpt lat="38.004405" lon="15.207255"><ele>611.0</ele><time>2026-04-26T11:57:10.043Z</time></trkpt><trkpt lat="38.0043683" lon="15.20716"><ele>608.5</ele><time>2026-04-26T11:57:11.042Z</time></trkpt><trkpt lat="38.0043167" lon="15.20708"><ele>606.0</ele><time>2026-04-26T11:57:12.042Z</time></trkpt><trkpt lat="38.0042583" lon="15.2070333"><ele>603.5</ele><time>2026-04-26T11:57:13.042Z</time></trkpt><trkpt lat="38.004175" lon="15.2070133"><ele>601.0</ele><time>2026-04-26T11:57:14.042Z</time></trkpt><trkpt lat="38.0040983" lon="15.2069983"><ele>598.5</ele><time>2026-04-26T11:57:15.042Z</time></trkpt><trkpt lat="38.00402" lon="15.2069317"><ele>596.0</ele><time>2026-04-26T11:57:17.042Z</time></trkpt><trkpt lat="38.0040383" lon="15.206825"><ele>596.0</ele><time>2026-04-26T11:57:19.042Z</time></trkpt><trkpt lat="38.0041367" lon="15.2067933"><ele>596.0</ele><time>2026-04-26T11:57:21.042Z</time></trkpt><trkpt lat="38.0042167" lon="15.2067983"><ele>596.0</ele><time>2026-04-26T11:57:22.042Z</time></trkpt><trkpt lat="38.0043033" lon="15.2068"><ele>596.0</ele><time>2026-04-26T11:57:23.043Z</time></trkpt><trkpt lat="38.0043883" lon="15.2068"><ele>596.0</ele><time>2026-04-26T11:57:24.042Z</time></trkpt><trkpt lat="38.004465" lon="15.2068133"><ele>596.0</ele><time>2026-04-26T11:57:25.042Z</time></trkpt><trkpt lat="38.004535" lon="15.2068467"><ele>594.1666666666666</ele><time>2026-04-26T11:57:26.042Z</time></trkpt><trkpt lat="38.0045883" lon="15.2069117"><ele>592.3333333333333</ele><time>2026-04-26T11:57:27.042Z</time></trkpt><trkpt lat="38.0046267" lon="15.2069867"><ele>590.5</ele><time>2026-04-26T11:57:28.042Z</time></trkpt><trkpt lat="38.0047017" lon="15.2070667"><ele>588.6666666666666</ele><time>2026-04-26T11:57:30.042Z</time></trkpt><trkpt lat="38.00477" lon="15.2070283"><ele>586.8333333333334</ele><time>2026-04-26T11:57:32.042Z</time></trkpt><trkpt lat="38.004785" lon="15.2068667"><ele>585.0</ele><time>2026-04-26T11:57:34.042Z</time></trkpt><trkpt lat="38.0047483" lon="15.20676"><ele>585.0</ele><time>2026-04-26T11:57:35.042Z</time></trkpt><trkpt lat="38.0046917" lon="15.2066483"><ele>585.0</ele><time>2026-04-26T11:57:36.042Z</time></trkpt><trkpt lat="38.0046283" lon="15.20654"><ele>585.0</ele><time>2026-04-26T11:57:37.042Z</time></trkpt><trkpt lat="38.004575" lon="15.2064367"><ele>585.0</ele><time>2026-04-26T11:57:38.042Z</time></trkpt><trkpt lat="38.0045033" lon="15.2063533"><ele>585.0</ele><time>2026-04-26T11:57:39.042Z</time></trkpt><trkpt lat="38.0044167" lon="15.2062917"><ele>581.1666666666666</ele><time>2026-04-26T11:57:40.042Z</time></trkpt><trkpt lat="38.00432" lon="15.2062633"><ele>577.3333333333334</ele><time>2026-04-26T11:57:41.042Z</time></trkpt><trkpt lat="38.0042217" lon="15.2062517"><ele>573.5</ele><time>2026-04-26T11:57:42.042Z</time></trkpt><trkpt lat="38.004135" lon="15.206245"><ele>569.6666666666667</ele><time>2026-04-26T11:57:43.042Z</time></trkpt><trkpt lat="38.0040683" lon="15.206235"><ele>565.8333333333334</ele><time>2026-04-26T11:57:44.042Z</time></trkpt><trkpt lat="38.0039883" lon="15.2061767"><ele>562.0</ele><time>2026-04-26T11:57:46.042Z</time></trkpt><trkpt lat="38.0040183" lon="15.2060483"><ele>562.0</ele><time>2026-04-26T11:57:48.042Z</time></trkpt><trkpt lat="38.0040733" lon="15.206"><ele>562.0</ele><time>2026-04-26T11:57:49.042Z</time></trkpt><trkpt lat="38.004165" lon="15.20596"><ele>562.0</ele><time>2026-04-26T11:57:50.042Z</time></trkpt><trkpt lat="38.0042817" lon="15.20593"><ele>562.0</ele><time>2026-04-26T11:57:51.042Z</time></trkpt><trkpt lat="38.0043883" lon="15.2059183"><ele>562.0</ele><time>2026-04-26T11:57:52.042Z</time></trkpt><trkpt lat="38.0044917" lon="15.20592"><ele>560.8333333333334</ele><time>2026-04-26T11:57:53.042Z</time></trkpt><trkpt lat="38.0045833" lon="15.2059517"><ele>559.6666666666667</ele><time>2026-04-26T11:57:54.042Z</time></trkpt><trkpt lat="38.004655" lon="15.2059967"><ele>558.5</ele><time>2026-04-26T11:57:55.042Z</time></trkpt><trkpt lat="38.0047167" lon="15.2060417"><ele>557.3333333333334</ele><time>2026-04-26T11:57:56.042Z</time></trkpt><trkpt lat="38.0048067" lon="15.2059983"><ele>556.1666666666666</ele><time>2026-04-26T11:57:58.042Z</time></trkpt><trkpt lat="38.0048117" lon="15.205895"><ele>555.0</ele><time>2026-04-26T11:58:00.042Z</time></trkpt><trkpt lat="38.0046883" lon="15.205805"><ele>555.0</ele><time>2026-04-26T11:58:02.042Z</time></trkpt><trkpt lat="38.0045933" lon="15.2057733"><ele>555.0</ele><time>2026-04-26T11:58:03.042Z</time></trkpt><trkpt lat="38.0044733" lon="15.2057567"><ele>555.0</ele><time>2026-04-26T11:58:04.042Z</time></trkpt><trkpt lat="38.00435" lon="15.2057617"><ele>555.0</ele><time>2026-04-26T11:58:05.042Z</time></trkpt><trkpt lat="38.0042083" lon="15.2057633"><ele>556.1666666666666</ele><time>2026-04-26T11:58:06.042Z</time></trkpt><trkpt lat="38.0040883" lon="15.2057567"><ele>557.3333333333334</ele><time>2026-04-26T11:58:07.042Z</time></trkpt><trkpt lat="38.0039933" lon="15.2057483"><ele>558.5</ele><time>2026-04-26T11:58:08.042Z</time></trkpt><trkpt lat="38.0039133" lon="15.2057483"><ele>559.6666666666667</ele><time>2026-04-26T11:58:09.042Z</time></trkpt><trkpt lat="38.003845" lon="15.205745"><ele>560.8333333333334</ele><time>2026-04-26T11:58:10.042Z</time></trkpt><trkpt lat="38.0037717" lon="15.20572"><ele>562.0</ele><time>2026-04-26T11:58:11.042Z</time></trkpt><trkpt lat="38.0036883" lon="15.2056583"><ele>561.75</ele><time>2026-04-26T11:58:12.042Z</time></trkpt><trkpt lat="38.00359" lon="15.20557"><ele>561.5</ele><time>2026-04-26T11:58:13.042Z</time></trkpt><trkpt lat="38.003475" lon="15.2054817"><ele>561.25</ele><time>2026-04-26T11:58:14.042Z</time></trkpt><trkpt lat="38.0033533" lon="15.20539"><ele>561.0</ele><time>2026-04-26T11:58:15.042Z</time></trkpt><trkpt lat="38.0032483" lon="15.20531"><ele>561.0</ele><time>2026-04-26T11:58:16.042Z</time></trkpt><trkpt lat="38.0031433" lon="15.20522"><ele>561.0</ele><time>2026-04-26T11:58:17.042Z</time></trkpt><trkpt lat="38.003045" lon="15.2051317"><ele>561.0</ele><time>2026-04-26T11:58:18.042Z</time></trkpt><trkpt lat="38.00297" lon="15.2050583"><ele>561.0</ele><time>2026-04-26T11:58:19.042Z</time></trkpt><trkpt lat="38.0029167" lon="15.2049867"><ele>561.0</ele><time>2026-04-26T11:58:20.042Z</time></trkpt><trkpt lat="38.0028883" lon="15.2048383"><ele>561.6666666666666</ele><time>2026-04-26T11:58:22.042Z</time></trkpt><trkpt lat="38.0029217" lon="15.204755"><ele>562.3333333333334</ele><time>2026-04-26T11:58:23.042Z</time></trkpt><trkpt lat="38.0029767" lon="15.2046983"><ele>563.0</ele><time>2026-04-26T11:58:24.042Z</time></trkpt><trkpt lat="38.003055" lon="15.2046667"><ele>563.6666666666667</ele><time>2026-04-26T11:58:25.042Z</time></trkpt><trkpt lat="38.0031533" lon="15.2046583"><ele>564.3333333333334</ele><time>2026-04-26T11:58:26.042Z</time></trkpt><trkpt lat="38.003265" lon="15.2046783"><ele>565.0</ele><time>2026-04-26T11:58:27.042Z</time></trkpt><trkpt lat="38.0033667" lon="15.2047067"><ele>565.0</ele><time>2026-04-26T11:58:28.042Z</time></trkpt><trkpt lat="38.0034633" lon="15.2047367"><ele>565.0</ele><time>2026-04-26T11:58:29.043Z</time></trkpt><trkpt lat="38.0035583" lon="15.204745"><ele>565.0</ele><time>2026-04-26T11:58:30.042Z</time></trkpt><trkpt lat="38.003655" lon="15.2047317"><ele>565.0</ele><time>2026-04-26T11:58:31.042Z</time></trkpt><trkpt lat="38.0037433" lon="15.20472"><ele>565.0</ele><time>2026-04-26T11:58:32.042Z</time></trkpt><trkpt lat="38.0038317" lon="15.2047017"><ele>565.0</ele><time>2026-04-26T11:58:33.042Z</time></trkpt><trkpt lat="38.00393" lon="15.2046783"><ele>565.0</ele><time>2026-04-26T11:58:34.042Z</time></trkpt><trkpt lat="38.0040283" lon="15.204645"><ele>565.0</ele><time>2026-04-26T11:58:35.042Z</time></trkpt><trkpt lat="38.00413" lon="15.2046033"><ele>565.0</ele><time>2026-04-26T11:58:36.042Z</time></trkpt><trkpt lat="38.004235" lon="15.2045667"><ele>565.0</ele><time>2026-04-26T11:58:37.042Z</time></trkpt><trkpt lat="38.0043433" lon="15.2045283"><ele>560.0</ele><time>2026-04-26T11:58:38.043Z</time></trkpt><trkpt lat="38.004455" lon="15.2045017"><ele>555.0</ele><time>2026-04-26T11:58:39.042Z</time></trkpt><trkpt lat="38.0045733" lon="15.2044733"><ele>550.0</ele><time>2026-04-26T11:58:40.042Z</time></trkpt><trkpt lat="38.00469" lon="15.2044433"><ele>545.0</ele><time>2026-04-26T11:58:41.042Z</time></trkpt><trkpt lat="38.0048033" lon="15.204415"><ele>545.0</ele><time>2026-04-26T11:58:42.042Z</time></trkpt><trkpt lat="38.0049067" lon="15.2044133"><ele>545.0</ele><time>2026-04-26T11:58:43.042Z</time></trkpt><trkpt lat="38.00502" lon="15.2044383"><ele>545.0</ele><time>2026-04-26T11:58:44.042Z</time></trkpt><trkpt lat="38.0051367" lon="15.2044733"><ele>545.0</ele><time>2026-04-26T11:58:45.042Z</time></trkpt><trkpt lat="38.0052583" lon="15.2045033"><ele>541.25</ele><time>2026-04-26T11:58:46.042Z</time></trkpt><trkpt lat="38.0053767" lon="15.2045133"><ele>537.5</ele><time>2026-04-26T11:58:47.042Z</time></trkpt><trkpt lat="38.0054933" lon="15.2044983"><ele>533.75</ele><time>2026-04-26T11:58:48.042Z</time></trkpt><trkpt lat="38.00561" lon="15.20447"><ele>530.0</ele><time>2026-04-26T11:58:49.042Z</time></trkpt><trkpt lat="38.0057217" lon="15.20446"><ele>526.8</ele><time>2026-04-26T11:58:50.042Z</time></trkpt><trkpt lat="38.00583" lon="15.20446"><ele>523.6</ele><time>2026-04-26T11:58:51.042Z</time></trkpt><trkpt lat="38.005935" lon="15.2044517"><ele>520.4</ele><time>2026-04-26T11:58:52.042Z</time></trkpt><trkpt lat="38.0060217" lon="15.2044217"><ele>517.2</ele><time>2026-04-26T11:58:53.042Z</time></trkpt><trkpt lat="38.0060933" lon="15.2043667"><ele>514.0</ele><time>2026-04-26T11:58:54.042Z</time></trkpt><trkpt lat="38.0061467" lon="15.2042883"><ele>514.0</ele><time>2026-04-26T11:58:55.042Z</time></trkpt><trkpt lat="38.0061767" lon="15.2042017"><ele>514.0</ele><time>2026-04-26T11:58:56.043Z</time></trkpt><trkpt lat="38.0061867" lon="15.2041083"><ele>514.0</ele><time>2026-04-26T11:58:57.042Z</time></trkpt><trkpt lat="38.0061917" lon="15.2039967"><ele>514.0</ele><time>2026-04-26T11:58:58.042Z</time></trkpt><trkpt lat="38.0061817" lon="15.2038733"><ele>514.0</ele><time>2026-04-26T11:58:59.042Z</time></trkpt><trkpt lat="38.00617" lon="15.2037467"><ele>514.0</ele><time>2026-04-26T11:59:00.043Z</time></trkpt><trkpt lat="38.00617" lon="15.2036083"><ele>512.8</ele><time>2026-04-26T11:59:01.042Z</time></trkpt><trkpt lat="38.00619" lon="15.203475"><ele>511.59999999999997</ele><time>2026-04-26T11:59:02.042Z</time></trkpt><trkpt lat="38.0062133" lon="15.203345"><ele>510.4</ele><time>2026-04-26T11:59:03.042Z</time></trkpt><trkpt lat="38.006235" lon="15.2032233"><ele>509.2</ele><time>2026-04-26T11:59:04.042Z</time></trkpt><trkpt lat="38.0062417" lon="15.2031"><ele>508.0</ele><time>2026-04-26T11:59:05.042Z</time></trkpt><trkpt lat="38.0062367" lon="15.2029783"><ele>506.2</ele><time>2026-04-26T11:59:06.042Z</time></trkpt><trkpt lat="38.0062283" lon="15.202855"><ele>504.4</ele><time>2026-04-26T11:59:07.042Z</time></trkpt><trkpt lat="38.0062233" lon="15.2027333"><ele>502.59999999999997</ele><time>2026-04-26T11:59:08.042Z</time></trkpt><trkpt lat="38.006235" lon="15.2026133"><ele>500.79999999999995</ele><time>2026-04-26T11:59:09.042Z</time></trkpt><trkpt lat="38.0062567" lon="15.202495"><ele>499.0</ele><time>2026-04-26T11:59:10.042Z</time></trkpt><trkpt lat="38.0063017" lon="15.2023817"><ele>501.5</ele><time>2026-04-26T11:59:11.042Z</time></trkpt><trkpt lat="38.0063583" lon="15.2022683"><ele>504.0</ele><time>2026-04-26T11:59:12.042Z</time></trkpt><trkpt lat="38.0064167" lon="15.2021233"><ele>506.5</ele><time>2026-04-26T11:59:13.042Z</time></trkpt><trkpt lat="38.006469" lon="15.2019482"><ele>509.0</ele><time>2026-04-26T11:59:14.042Z</time></trkpt><trkpt lat="38.0065188" lon="15.2017493"><ele>509.0</ele><time>2026-04-26T11:59:15.042Z</time></trkpt><trkpt lat="38.0065768" lon="15.2015429"><ele>509.0</ele><time>2026-04-26T11:59:16.042Z</time></trkpt><trkpt lat="38.0066438" lon="15.2013333"><ele>509.0</ele><time>2026-04-26T11:59:17.042Z</time></trkpt><trkpt lat="38.0066997" lon="15.2011226"><ele>500.0</ele><time>2026-04-26T11:59:18.042Z</time></trkpt><trkpt lat="38.0067447" lon="15.200909"><ele>491.0</ele><time>2026-04-26T11:59:19.042Z</time></trkpt><trkpt lat="38.0067837" lon="15.2006896"><ele>482.0</ele><time>2026-04-26T11:59:20.042Z</time></trkpt><trkpt lat="38.0068146" lon="15.2004656"><ele>481.3333333333333</ele><time>2026-04-26T11:59:21.042Z</time></trkpt><trkpt lat="38.006842" lon="15.2002406"><ele>480.66666666666663</ele><time>2026-04-26T11:59:22.042Z</time></trkpt><trkpt lat="38.006872" lon="15.2000258"><ele>480.0</ele><time>2026-04-26T11:59:23.042Z</time></trkpt><trkpt lat="38.006903" lon="15.1998093"><ele>480.0</ele><time>2026-04-26T11:59:24.042Z</time></trkpt><trkpt lat="38.0069435" lon="15.1995822"><ele>480.0</ele><time>2026-04-26T11:59:25.042Z</time></trkpt><trkpt lat="38.0069866" lon="15.1993443"><ele>480.0</ele><time>2026-04-26T11:59:26.042Z</time></trkpt><trkpt lat="38.0070208" lon="15.1991068"><ele>481.0</ele><time>2026-04-26T11:59:27.042Z</time></trkpt><trkpt lat="38.0070453" lon="15.1988761"><ele>482.0</ele><time>2026-04-26T11:59:28.042Z</time></trkpt><trkpt lat="38.007057" lon="15.1986464"><ele>483.0</ele><time>2026-04-26T11:59:29.042Z</time></trkpt><trkpt lat="38.0070588" lon="15.1984152"><ele>483.0</ele><time>2026-04-26T11:59:30.042Z</time></trkpt><trkpt lat="38.0070452" lon="15.198177"><ele>483.0</ele><time>2026-04-26T11:59:31.042Z</time></trkpt><trkpt lat="38.0070253" lon="15.1979508"><ele>483.0</ele><time>2026-04-26T11:59:32.042Z</time></trkpt><trkpt lat="38.0070075" lon="15.1977602"><ele>483.25</ele><time>2026-04-26T11:59:33.042Z</time></trkpt><trkpt lat="38.0069983" lon="15.1975928"><ele>483.5</ele><time>2026-04-26T11:59:34.043Z</time></trkpt><trkpt lat="38.007005" lon="15.1974317"><ele>483.75</ele><time>2026-04-26T11:59:35.042Z</time></trkpt><trkpt lat="38.007035" lon="15.1972589"><ele>484.0</ele><time>2026-04-26T11:59:36.042Z</time></trkpt><trkpt lat="38.0070879" lon="15.1970689"><ele>482.6666666666667</ele><time>2026-04-26T11:59:37.043Z</time></trkpt><trkpt lat="38.007154" lon="15.1968487"><ele>481.33333333333337</ele><time>2026-04-26T11:59:38.042Z</time></trkpt><trkpt lat="38.0072262" lon="15.1966211"><ele>480.0</ele><time>2026-04-26T11:59:39.042Z</time></trkpt><trkpt lat="38.0072893" lon="15.1963953"><ele>474.0</ele><time>2026-04-26T11:59:40.042Z</time></trkpt><trkpt lat="38.0073453" lon="15.1961835"><ele>468.0</ele><time>2026-04-26T11:59:41.042Z</time></trkpt><trkpt lat="38.0074034" lon="15.1959872"><ele>462.0</ele><time>2026-04-26T11:59:42.042Z</time></trkpt><trkpt lat="38.0074606" lon="15.1957988"><ele>459.66666666666663</ele><time>2026-04-26T11:59:43.043Z</time></trkpt><trkpt lat="38.0075194" lon="15.1956163"><ele>457.3333333333333</ele><time>2026-04-26T11:59:44.042Z</time></trkpt><trkpt lat="38.0075681" lon="15.1954298"><ele>455.0</ele><time>2026-04-26T11:59:45.042Z</time></trkpt><trkpt lat="38.007605" lon="15.195239"><ele>455.0</ele><time>2026-04-26T11:59:46.042Z</time></trkpt><trkpt lat="38.0076167" lon="15.1950417"><ele>455.0</ele><time>2026-04-26T11:59:47.042Z</time></trkpt><trkpt lat="38.0076267" lon="15.1948517"><ele>455.0</ele><time>2026-04-26T11:59:48.042Z</time></trkpt><trkpt lat="38.0076367" lon="15.1946867"><ele>455.0</ele><time>2026-04-26T11:59:49.042Z</time></trkpt><trkpt lat="38.007635" lon="15.1945217"><ele>454.0</ele><time>2026-04-26T11:59:50.042Z</time></trkpt><trkpt lat="38.007625" lon="15.194375"><ele>453.0</ele><time>2026-04-26T11:59:51.042Z</time></trkpt><trkpt lat="38.0076017" lon="15.1942517"><ele>452.0</ele><time>2026-04-26T11:59:52.042Z</time></trkpt><trkpt lat="38.0075717" lon="15.1941367"><ele>451.0</ele><time>2026-04-26T11:59:53.042Z</time></trkpt><trkpt lat="38.0075483" lon="15.1940233"><ele>450.0</ele><time>2026-04-26T11:59:54.042Z</time></trkpt><trkpt lat="38.007525" lon="15.19391"><ele>449.7142857142858</ele><time>2026-04-26T11:59:55.042Z</time></trkpt><trkpt lat="38.0075033" lon="15.1937967"><ele>449.42857142857144</ele><time>2026-04-26T11:59:56.042Z</time></trkpt><trkpt lat="38.0074833" lon="15.1937067"><ele>449.14285714285717</ele><time>2026-04-26T11:59:57.042Z</time></trkpt><trkpt lat="38.0074633" lon="15.1936267"><ele>448.8571428571429</ele><time>2026-04-26T11:59:58.042Z</time></trkpt><trkpt lat="38.0074367" lon="15.19355"><ele>448.57142857142856</ele><time>2026-04-26T11:59:59.042Z</time></trkpt><trkpt lat="38.0074083" lon="15.1934767"><ele>448.2857142857143</ele><time>2026-04-26T12:00:00.042Z</time></trkpt><trkpt lat="38.0073667" lon="15.1933883"><ele>448.0</ele><time>2026-04-26T12:00:01.042Z</time></trkpt><trkpt lat="38.007325" lon="15.1932933"><ele>448.00000000000006</ele><time>2026-04-26T12:00:02.042Z</time></trkpt><trkpt lat="38.0072917" lon="15.1931933"><ele>448.0</ele><time>2026-04-26T12:00:03.042Z</time></trkpt><trkpt lat="38.0072567" lon="15.1930767"><ele>448.0</ele><time>2026-04-26T12:00:04.042Z</time></trkpt><trkpt lat="38.0072217" lon="15.1929717"><ele>448.0</ele><time>2026-04-26T12:00:05.043Z</time></trkpt><trkpt lat="38.0071917" lon="15.1928767"><ele>448.00000000000006</ele><time>2026-04-26T12:00:06.042Z</time></trkpt><trkpt lat="38.0071633" lon="15.1927933"><ele>448.0</ele><time>2026-04-26T12:00:07.042Z</time></trkpt><trkpt lat="38.0071217" lon="15.192675"><ele>448.4</ele><time>2026-04-26T12:00:09.042Z</time></trkpt><trkpt lat="38.007095" lon="15.1925183"><ele>448.79999999999995</ele><time>2026-04-26T12:00:11.043Z</time></trkpt><trkpt lat="38.00709" lon="15.1924283"><ele>449.2</ele><time>2026-04-26T12:00:12.043Z</time></trkpt><trkpt lat="38.0070817" lon="15.1923383"><ele>449.6</ele><time>2026-04-26T12:00:13.042Z</time></trkpt><trkpt lat="38.00707" lon="15.1922233"><ele>450.0</ele><time>2026-04-26T12:00:15.042Z</time></trkpt><trkpt lat="38.0070567" lon="15.1920983"><ele>450.5</ele><time>2026-04-26T12:00:28.042Z</time></trkpt><trkpt lat="38.00702" lon="15.19194"><ele>451.0</ele><time>2026-04-26T12:00:30.042Z</time></trkpt><trkpt lat="38.0069917" lon="15.1918467"><ele>451.5</ele><time>2026-04-26T12:00:31.042Z</time></trkpt><trkpt lat="38.006965" lon="15.1917717"><ele>452.0</ele><time>2026-04-26T12:00:32.042Z</time></trkpt><trkpt lat="38.0069583" lon="15.19168"><ele>452.5</ele><time>2026-04-26T12:00:34.042Z</time></trkpt><trkpt lat="38.00695" lon="15.1917683"><ele>453.0</ele><time>2026-04-26T12:03:18.05Z</time></trkpt><trkpt lat="38.00787" lon="15.19105"><ele>452.0</ele><time>2026-04-26T12:06:34.05Z</time></trkpt><trkpt lat="38.008015" lon="15.190915"><ele>451.0</ele><time>2026-04-26T12:06:35.051Z</time></trkpt><trkpt lat="38.0082833" lon="15.1906333"><ele>447.33333333333337</ele><time>2026-04-26T12:06:37.05Z</time></trkpt><trkpt lat="38.0084083" lon="15.1905033"><ele>443.66666666666663</ele><time>2026-04-26T12:06:38.05Z</time></trkpt><trkpt lat="38.0085333" lon="15.1903633"><ele>440.0</ele><time>2026-04-26T12:06:39.05Z</time></trkpt><trkpt lat="38.00867" lon="15.190215"><ele>440.0</ele><time>2026-04-26T12:06:40.05Z</time></trkpt><trkpt lat="38.0088133" lon="15.1900583"><ele>440.0</ele><time>2026-04-26T12:06:41.051Z</time></trkpt><trkpt lat="38.0089567" lon="15.1899117"><ele>440.0</ele><time>2026-04-26T12:06:42.05Z</time></trkpt><trkpt lat="38.009105" lon="15.1897733"><ele>440.66666666666663</ele><time>2026-04-26T12:06:43.05Z</time></trkpt><trkpt lat="38.0092533" lon="15.1896567"><ele>441.33333333333337</ele><time>2026-04-26T12:06:44.05Z</time></trkpt><trkpt lat="38.009405" lon="15.189555"><ele>442.0</ele><time>2026-04-26T12:06:45.05Z</time></trkpt><trkpt lat="38.0095517" lon="15.1894567"><ele>442.0</ele><time>2026-04-26T12:06:46.05Z</time></trkpt><trkpt lat="38.009695" lon="15.1893733"><ele>442.0</ele><time>2026-04-26T12:06:47.05Z</time></trkpt><trkpt lat="38.0098333" lon="15.189315"><ele>442.0</ele><time>2026-04-26T12:06:48.05Z</time></trkpt><trkpt lat="38.0099933" lon="15.189285"><ele>442.33333333333337</ele><time>2026-04-26T12:06:49.05Z</time></trkpt><trkpt lat="38.010175" lon="15.1892617"><ele>442.66666666666663</ele><time>2026-04-26T12:06:50.05Z</time></trkpt><trkpt lat="38.0103967" lon="15.189245"><ele>443.0</ele><time>2026-04-26T12:06:51.05Z</time></trkpt><trkpt lat="38.0106383" lon="15.1892183"><ele>442.0</ele><time>2026-04-26T12:06:52.051Z</time></trkpt><trkpt lat="38.0108917" lon="15.1892033"><ele>441.0</ele><time>2026-04-26T12:06:53.05Z</time></trkpt><trkpt lat="38.01113" lon="15.189185"><ele>441.0</ele><time>2026-04-26T12:06:54.05Z</time></trkpt><trkpt lat="38.0113517" lon="15.1891733"><ele>441.0</ele><time>2026-04-26T12:06:55.051Z</time></trkpt><trkpt lat="38.0115567" lon="15.189165"><ele>441.0</ele><time>2026-04-26T12:06:56.05Z</time></trkpt><trkpt lat="38.0117433" lon="15.1891517"><ele>439.33333333333337</ele><time>2026-04-26T12:06:57.05Z</time></trkpt><trkpt lat="38.01192" lon="15.1891383"><ele>437.6666666666667</ele><time>2026-04-26T12:06:58.05Z</time></trkpt><trkpt lat="38.0120933" lon="15.1891233"><ele>436.0</ele><time>2026-04-26T12:06:59.05Z</time></trkpt><trkpt lat="38.0122717" lon="15.189125"><ele>436.0</ele><time>2026-04-26T12:07:00.05Z</time></trkpt><trkpt lat="38.0124483" lon="15.1891517"><ele>436.0</ele><time>2026-04-26T12:07:01.05Z</time></trkpt><trkpt lat="38.0126267" lon="15.1892117"><ele>436.0</ele><time>2026-04-26T12:07:02.05Z</time></trkpt><trkpt lat="38.0128067" lon="15.1893083"><ele>435.33333333333337</ele><time>2026-04-26T12:07:03.05Z</time></trkpt><trkpt lat="38.0129817" lon="15.1894267"><ele>434.66666666666663</ele><time>2026-04-26T12:07:04.05Z</time></trkpt><trkpt lat="38.0131333" lon="15.189565"><ele>434.0</ele><time>2026-04-26T12:07:05.05Z</time></trkpt><trkpt lat="38.0132633" lon="15.1897133"><ele>432.3333333333333</ele><time>2026-04-26T12:07:06.05Z</time></trkpt><trkpt lat="38.0133883" lon="15.1898417"><ele>430.66666666666663</ele><time>2026-04-26T12:07:07.05Z</time></trkpt><trkpt lat="38.0135117" lon="15.1899567"><ele>429.0</ele><time>2026-04-26T12:07:08.05Z</time></trkpt><trkpt lat="38.0136567" lon="15.19006"><ele>429.0</ele><time>2026-04-26T12:07:09.05Z</time></trkpt><trkpt lat="38.0138117" lon="15.19013"><ele>429.0</ele><time>2026-04-26T12:07:10.05Z</time></trkpt><trkpt lat="38.013975" lon="15.1901733"><ele>429.0</ele><time>2026-04-26T12:07:11.05Z</time></trkpt><trkpt lat="38.0141517" lon="15.1901867"><ele>430.33333333333337</ele><time>2026-04-26T12:07:12.05Z</time></trkpt><trkpt lat="38.0143317" lon="15.1901683"><ele>431.6666666666667</ele><time>2026-04-26T12:07:13.05Z</time></trkpt><trkpt lat="38.0145283" lon="15.1901067"><ele>433.0</ele><time>2026-04-26T12:07:14.05Z</time></trkpt><trkpt lat="38.0147" lon="15.1900217"><ele>433.0</ele><time>2026-04-26T12:07:15.05Z</time></trkpt><trkpt lat="38.014855" lon="15.1899483"><ele>433.0</ele><time>2026-04-26T12:07:16.05Z</time></trkpt><trkpt lat="38.0150017" lon="15.1898667"><ele>433.0</ele><time>2026-04-26T12:07:17.05Z</time></trkpt><trkpt lat="38.0151517" lon="15.1897833"><ele>436.6666666666667</ele><time>2026-04-26T12:07:18.05Z</time></trkpt><trkpt lat="38.0153267" lon="15.18968"><ele>440.33333333333337</ele><time>2026-04-26T12:07:19.051Z</time></trkpt><trkpt lat="38.0155017" lon="15.18954"><ele>444.0</ele><time>2026-04-26T12:07:20.05Z</time></trkpt><trkpt lat="38.01567" lon="15.189405"><ele>442.66666666666663</ele><time>2026-04-26T12:07:21.05Z</time></trkpt><trkpt lat="38.0158217" lon="15.1892667"><ele>441.3333333333333</ele><time>2026-04-26T12:07:22.05Z</time></trkpt><trkpt lat="38.015955" lon="15.189115"><ele>440.0</ele><time>2026-04-26T12:07:23.05Z</time></trkpt><trkpt lat="38.01608" lon="15.188935"><ele>440.0</ele><time>2026-04-26T12:07:24.05Z</time></trkpt><trkpt lat="38.0161967" lon="15.18873"><ele>440.0</ele><time>2026-04-26T12:07:25.05Z</time></trkpt><trkpt lat="38.0163117" lon="15.1885217"><ele>440.0</ele><time>2026-04-26T12:07:26.05Z</time></trkpt><trkpt lat="38.0164267" lon="15.18831"><ele>440.3333333333333</ele><time>2026-04-26T12:07:27.05Z</time></trkpt><trkpt lat="38.0165383" lon="15.1881083"><ele>440.66666666666663</ele><time>2026-04-26T12:07:28.05Z</time></trkpt><trkpt lat="38.0166467" lon="15.1879083"><ele>441.0</ele><time>2026-04-26T12:07:29.05Z</time></trkpt><trkpt lat="38.0167583" lon="15.1877133"><ele>440.66666666666663</ele><time>2026-04-26T12:07:30.05Z</time></trkpt><trkpt lat="38.0168833" lon="15.187535"><ele>440.3333333333333</ele><time>2026-04-26T12:07:31.05Z</time></trkpt><trkpt lat="38.0170067" lon="15.1873733"><ele>440.0</ele><time>2026-04-26T12:07:32.05Z</time></trkpt><trkpt lat="38.0171383" lon="15.1872233"><ele>440.0</ele><time>2026-04-26T12:07:33.05Z</time></trkpt><trkpt lat="38.0172867" lon="15.1870883"><ele>440.0</ele><time>2026-04-26T12:07:34.051Z</time></trkpt><trkpt lat="38.0174417" lon="15.1869567"><ele>440.0</ele><time>2026-04-26T12:07:35.051Z</time></trkpt><trkpt lat="38.017605" lon="15.18684"><ele>439.66666666666663</ele><time>2026-04-26T12:07:36.05Z</time></trkpt><trkpt lat="38.0177683" lon="15.1867217"><ele>439.33333333333337</ele><time>2026-04-26T12:07:37.05Z</time></trkpt><trkpt lat="38.0179233" lon="15.18663"><ele>439.0</ele><time>2026-04-26T12:07:38.05Z</time></trkpt><trkpt lat="38.018085" lon="15.1865783"><ele>439.0</ele><time>2026-04-26T12:07:39.05Z</time></trkpt><trkpt lat="38.0182617" lon="15.1865633"><ele>439.0</ele><time>2026-04-26T12:07:40.049Z</time></trkpt><trkpt lat="38.0184433" lon="15.1865717"><ele>439.0</ele><time>2026-04-26T12:07:41.049Z</time></trkpt><trkpt lat="38.01862" lon="15.1866183"><ele>441.33333333333337</ele><time>2026-04-26T12:07:42.049Z</time></trkpt><trkpt lat="38.0187983" lon="15.1866917"><ele>443.66666666666663</ele><time>2026-04-26T12:07:43.049Z</time></trkpt><trkpt lat="38.018975" lon="15.1867317"><ele>446.0</ele><time>2026-04-26T12:07:44.049Z</time></trkpt><trkpt lat="38.0191583" lon="15.1867283"><ele>450.3333333333333</ele><time>2026-04-26T12:07:45.05Z</time></trkpt><trkpt lat="38.0193567" lon="15.18674"><ele>454.66666666666663</ele><time>2026-04-26T12:07:46.049Z</time></trkpt><trkpt lat="38.0195667" lon="15.1867633"><ele>459.0</ele><time>2026-04-26T12:07:47.049Z</time></trkpt><trkpt lat="38.01976" lon="15.1868067"><ele>459.0</ele><time>2026-04-26T12:07:48.049Z</time></trkpt><trkpt lat="38.01993" lon="15.1868517"><ele>459.0</ele><time>2026-04-26T12:07:49.049Z</time></trkpt><trkpt lat="38.0200633" lon="15.1868817"><ele>459.0</ele><time>2026-04-26T12:07:50.049Z</time></trkpt><trkpt lat="38.0201933" lon="15.1868883"><ele>459.0</ele><time>2026-04-26T12:07:51.049Z</time></trkpt><trkpt lat="38.0203" lon="15.1868517"><ele>459.6</ele><time>2026-04-26T12:07:52.049Z</time></trkpt><trkpt lat="38.0203867" lon="15.1868"><ele>460.2</ele><time>2026-04-26T12:07:53.049Z</time></trkpt><trkpt lat="38.0204817" lon="15.1867617"><ele>460.80000000000007</ele><time>2026-04-26T12:07:54.049Z</time></trkpt><trkpt lat="38.0205933" lon="15.186755"><ele>461.40000000000003</ele><time>2026-04-26T12:07:55.049Z</time></trkpt><trkpt lat="38.0207167" lon="15.1867583"><ele>462.0</ele><time>2026-04-26T12:07:56.049Z</time></trkpt><trkpt lat="38.0208367" lon="15.1867683"><ele>462.0</ele><time>2026-04-26T12:07:57.049Z</time></trkpt><trkpt lat="38.020955" lon="15.1867483"><ele>462.0</ele><time>2026-04-26T12:07:58.049Z</time></trkpt><trkpt lat="38.0210883" lon="15.18669"><ele>462.0</ele><time>2026-04-26T12:07:59.049Z</time></trkpt><trkpt lat="38.0212" lon="15.1865933"><ele>462.0</ele><time>2026-04-26T12:08:00.049Z</time></trkpt><trkpt lat="38.0213167" lon="15.1864883"><ele>467.25</ele><time>2026-04-26T12:08:01.049Z</time></trkpt><trkpt lat="38.021435" lon="15.1863917"><ele>472.5</ele><time>2026-04-26T12:08:02.049Z</time></trkpt><trkpt lat="38.0215583" lon="15.186325"><ele>477.75</ele><time>2026-04-26T12:08:03.049Z</time></trkpt><trkpt lat="38.02168" lon="15.186285"><ele>483.0</ele><time>2026-04-26T12:08:04.05Z</time></trkpt><trkpt lat="38.02181" lon="15.18627"><ele>483.0</ele><time>2026-04-26T12:08:05.049Z</time></trkpt><trkpt lat="38.02194" lon="15.1862767"><ele>483.0</ele><time>2026-04-26T12:08:06.049Z</time></trkpt><trkpt lat="38.022075" lon="15.1863117"><ele>483.0</ele><time>2026-04-26T12:08:07.049Z</time></trkpt><trkpt lat="38.022205" lon="15.1863633"><ele>483.0</ele><time>2026-04-26T12:08:08.049Z</time></trkpt><trkpt lat="38.02232" lon="15.18644"><ele>475.0</ele><time>2026-04-26T12:08:09.049Z</time></trkpt><trkpt lat="38.0224233" lon="15.186535"><ele>467.0</ele><time>2026-04-26T12:08:10.049Z</time></trkpt><trkpt lat="38.02253" lon="15.186635"><ele>459.0</ele><time>2026-04-26T12:08:11.049Z</time></trkpt><trkpt lat="38.0226467" lon="15.1867283"><ele>451.0</ele><time>2026-04-26T12:08:12.049Z</time></trkpt><trkpt lat="38.02276" lon="15.1868283"><ele>451.0</ele><time>2026-04-26T12:08:13.049Z</time></trkpt><trkpt lat="38.0228617" lon="15.186915"><ele>451.0</ele><time>2026-04-26T12:08:14.049Z</time></trkpt><trkpt lat="38.022965" lon="15.1869983"><ele>451.0</ele><time>2026-04-26T12:08:15.049Z</time></trkpt><trkpt lat="38.0230667" lon="15.1870683"><ele>451.0</ele><time>2026-04-26T12:08:16.05Z</time></trkpt><trkpt lat="38.023175" lon="15.1871067"><ele>451.0</ele><time>2026-04-26T12:08:17.049Z</time></trkpt><trkpt lat="38.0232833" lon="15.1871367"><ele>451.0</ele><time>2026-04-26T12:08:18.05Z</time></trkpt><trkpt lat="38.0234017" lon="15.1871567"><ele>451.0</ele><time>2026-04-26T12:08:19.049Z</time></trkpt><trkpt lat="38.0235167" lon="15.1871517"><ele>451.0</ele><time>2026-04-26T12:08:20.049Z</time></trkpt><trkpt lat="38.023635" lon="15.18715"><ele>453.75</ele><time>2026-04-26T12:08:21.049Z</time></trkpt><trkpt lat="38.0237533" lon="15.1871467"><ele>456.5</ele><time>2026-04-26T12:08:22.049Z</time></trkpt><trkpt lat="38.0238617" lon="15.1871417"><ele>459.25</ele><time>2026-04-26T12:08:23.049Z</time></trkpt><trkpt lat="38.0239783" lon="15.1871383"><ele>462.0</ele><time>2026-04-26T12:08:24.049Z</time></trkpt><trkpt lat="38.0240917" lon="15.187145"><ele>462.0</ele><time>2026-04-26T12:08:25.049Z</time></trkpt><trkpt lat="38.0242083" lon="15.18715"><ele>462.0</ele><time>2026-04-26T12:08:26.049Z</time></trkpt><trkpt lat="38.0243217" lon="15.1871583"><ele>462.0</ele><time>2026-04-26T12:08:27.049Z</time></trkpt><trkpt lat="38.0244333" lon="15.18716"><ele>462.0</ele><time>2026-04-26T12:08:28.049Z</time></trkpt><trkpt lat="38.024545" lon="15.1871617"><ele>462.0</ele><time>2026-04-26T12:08:29.05Z</time></trkpt><trkpt lat="38.0246483" lon="15.18714"><ele>462.00000000000006</ele><time>2026-04-26T12:08:30.049Z</time></trkpt><trkpt lat="38.02475" lon="15.1871183"><ele>462.00000000000006</ele><time>2026-04-26T12:08:31.049Z</time></trkpt><trkpt lat="38.0248483" lon="15.1870867"><ele>462.0</ele><time>2026-04-26T12:08:32.049Z</time></trkpt><trkpt lat="38.0249383" lon="15.1870383"><ele>462.0</ele><time>2026-04-26T12:08:33.049Z</time></trkpt><trkpt lat="38.0250267" lon="15.186965"><ele>461.0</ele><time>2026-04-26T12:08:34.049Z</time></trkpt><trkpt lat="38.025105" lon="15.1868767"><ele>460.00000000000006</ele><time>2026-04-26T12:08:35.049Z</time></trkpt><trkpt lat="38.02517" lon="15.1867783"><ele>459.00000000000006</ele><time>2026-04-26T12:08:36.049Z</time></trkpt><trkpt lat="38.0252283" lon="15.1866667"><ele>458.0</ele><time>2026-04-26T12:08:37.049Z</time></trkpt><trkpt lat="38.0252733" lon="15.186535"><ele>457.0</ele><time>2026-04-26T12:08:38.049Z</time></trkpt><trkpt lat="38.02531" lon="15.1863933"><ele>457.0</ele><time>2026-04-26T12:08:39.049Z</time></trkpt><trkpt lat="38.025335" lon="15.18625"><ele>457.0</ele><time>2026-04-26T12:08:40.049Z</time></trkpt><trkpt lat="38.0253783" lon="15.18611"><ele>457.0</ele><time>2026-04-26T12:08:41.05Z</time></trkpt><trkpt lat="38.0254317" lon="15.1859717"><ele>457.0</ele><time>2026-04-26T12:08:42.049Z</time></trkpt><trkpt lat="38.02549" lon="15.1858383"><ele>457.0</ele><time>2026-04-26T12:08:43.049Z</time></trkpt><trkpt lat="38.0255717" lon="15.18572"><ele>457.0</ele><time>2026-04-26T12:08:44.049Z</time></trkpt><trkpt lat="38.0256733" lon="15.18562"><ele>457.0</ele><time>2026-04-26T12:08:45.049Z</time></trkpt><trkpt lat="38.02579" lon="15.1855233"><ele>457.0</ele><time>2026-04-26T12:08:46.049Z</time></trkpt><trkpt lat="38.025905" lon="15.1854367"><ele>455.25</ele><time>2026-04-26T12:08:47.049Z</time></trkpt><trkpt lat="38.0260233" lon="15.18535"><ele>453.5</ele><time>2026-04-26T12:08:48.049Z</time></trkpt><trkpt lat="38.0261383" lon="15.1852617"><ele>451.75</ele><time>2026-04-26T12:08:49.049Z</time></trkpt><trkpt lat="38.0262667" lon="15.1851833"><ele>450.0</ele><time>2026-04-26T12:08:50.049Z</time></trkpt><trkpt lat="38.0263933" lon="15.1851"><ele>450.0</ele><time>2026-04-26T12:08:51.049Z</time></trkpt><trkpt lat="38.0265167" lon="15.1850267"><ele>450.0</ele><time>2026-04-26T12:08:52.049Z</time></trkpt><trkpt lat="38.0266517" lon="15.184965"><ele>450.0</ele><time>2026-04-26T12:08:53.049Z</time></trkpt><trkpt lat="38.0267717" lon="15.1848817"><ele>450.0</ele><time>2026-04-26T12:08:54.049Z</time></trkpt><trkpt lat="38.0268967" lon="15.1847983"><ele>452.0</ele><time>2026-04-26T12:08:55.05Z</time></trkpt><trkpt lat="38.0270133" lon="15.18471"><ele>454.0</ele><time>2026-04-26T12:08:56.049Z</time></trkpt><trkpt lat="38.0271167" lon="15.1846317"><ele>456.0</ele><time>2026-04-26T12:08:57.049Z</time></trkpt><trkpt lat="38.0272" lon="15.1845583"><ele>458.0</ele><time>2026-04-26T12:08:58.049Z</time></trkpt><trkpt lat="38.0272667" lon="15.1844683"><ele>458.0</ele><time>2026-04-26T12:08:59.05Z</time></trkpt><trkpt lat="38.027315" lon="15.1843533"><ele>458.0</ele><time>2026-04-26T12:09:00.049Z</time></trkpt><trkpt lat="38.02733" lon="15.1842217"><ele>458.0</ele><time>2026-04-26T12:09:01.049Z</time></trkpt><trkpt lat="38.02732" lon="15.184065"><ele>458.0</ele><time>2026-04-26T12:09:02.049Z</time></trkpt><trkpt lat="38.0273017" lon="15.1838967"><ele>457.0</ele><time>2026-04-26T12:09:03.049Z</time></trkpt><trkpt lat="38.0272983" lon="15.1837217"><ele>456.0</ele><time>2026-04-26T12:09:04.049Z</time></trkpt><trkpt lat="38.0272933" lon="15.183545"><ele>455.0</ele><time>2026-04-26T12:09:05.049Z</time></trkpt><trkpt lat="38.027295" lon="15.1833733"><ele>454.0</ele><time>2026-04-26T12:09:06.049Z</time></trkpt><trkpt lat="38.02729" lon="15.1832083"><ele>446.5</ele><time>2026-04-26T12:09:07.049Z</time></trkpt><trkpt lat="38.0272933" lon="15.18306"><ele>439.0</ele><time>2026-04-26T12:09:08.049Z</time></trkpt><trkpt lat="38.0272767" lon="15.18293"><ele>431.5</ele><time>2026-04-26T12:09:09.049Z</time></trkpt><trkpt lat="38.0272383" lon="15.1827967"><ele>424.0</ele><time>2026-04-26T12:09:10.049Z</time></trkpt><trkpt lat="38.0271517" lon="15.1826867"><ele>424.0</ele><time>2026-04-26T12:09:11.049Z</time></trkpt><trkpt lat="38.0270383" lon="15.1825933"><ele>424.0</ele><time>2026-04-26T12:09:12.049Z</time></trkpt><trkpt lat="38.02691" lon="15.1825067"><ele>424.0</ele><time>2026-04-26T12:09:13.049Z</time></trkpt><trkpt lat="38.0267683" lon="15.1824267"><ele>424.0</ele><time>2026-04-26T12:09:14.049Z</time></trkpt><trkpt lat="38.0266333" lon="15.182365"><ele>425.25</ele><time>2026-04-26T12:09:15.049Z</time></trkpt><trkpt lat="38.026505" lon="15.18228"><ele>426.5</ele><time>2026-04-26T12:09:16.049Z</time></trkpt><trkpt lat="38.02639" lon="15.18219"><ele>427.75</ele><time>2026-04-26T12:09:17.049Z</time></trkpt><trkpt lat="38.0262817" lon="15.1821"><ele>429.0</ele><time>2026-04-26T12:09:18.049Z</time></trkpt><trkpt lat="38.026205" lon="15.1820333"><ele>429.0</ele><time>2026-04-26T12:09:19.049Z</time></trkpt><trkpt lat="38.0261317" lon="15.1819617"><ele>429.0</ele><time>2026-04-26T12:09:20.049Z</time></trkpt><trkpt lat="38.0260767" lon="15.1818833"><ele>429.0</ele><time>2026-04-26T12:09:21.049Z</time></trkpt><trkpt lat="38.0260467" lon="15.1817783"><ele>429.0</ele><time>2026-04-26T12:09:22.049Z</time></trkpt><trkpt lat="38.0260517" lon="15.1816817"><ele>429.0</ele><time>2026-04-26T12:09:23.049Z</time></trkpt><trkpt lat="38.026095" lon="15.181615"><ele>429.0</ele><time>2026-04-26T12:09:24.049Z</time></trkpt><trkpt lat="38.0261683" lon="15.1816033"><ele>429.0</ele><time>2026-04-26T12:09:25.049Z</time></trkpt><trkpt lat="38.0262567" lon="15.1816483"><ele>429.0</ele><time>2026-04-26T12:09:26.049Z</time></trkpt><trkpt lat="38.026365" lon="15.181735"><ele>429.0</ele><time>2026-04-26T12:09:27.049Z</time></trkpt><trkpt lat="38.0265083" lon="15.18188"><ele>429.0</ele><time>2026-04-26T12:09:28.049Z</time></trkpt><trkpt lat="38.0266683" lon="15.1820383"><ele>422.0</ele><time>2026-04-26T12:09:29.049Z</time></trkpt><trkpt lat="38.0267867" lon="15.1821567"><ele>415.0</ele><time>2026-04-26T12:09:30.049Z</time></trkpt><trkpt lat="38.0269117" lon="15.1822167"><ele>408.0</ele><time>2026-04-26T12:09:31.049Z</time></trkpt><trkpt lat="38.0270133" lon="15.1822283"><ele>401.0</ele><time>2026-04-26T12:09:32.049Z</time></trkpt><trkpt lat="38.027095" lon="15.1821817"><ele>401.0</ele><time>2026-04-26T12:09:33.049Z</time></trkpt><trkpt lat="38.0271467" lon="15.182115"><ele>401.0</ele><time>2026-04-26T12:09:34.049Z</time></trkpt><trkpt lat="38.0271683" lon="15.1820283"><ele>401.0</ele><time>2026-04-26T12:09:35.049Z</time></trkpt><trkpt lat="38.0271617" lon="15.1819133"><ele>401.0</ele><time>2026-04-26T12:09:36.049Z</time></trkpt><trkpt lat="38.0271383" lon="15.18178"><ele>401.0</ele><time>2026-04-26T12:09:37.049Z</time></trkpt><trkpt lat="38.0270983" lon="15.1816417"><ele>400.4</ele><time>2026-04-26T12:09:38.049Z</time></trkpt><trkpt lat="38.0270667" lon="15.181505"><ele>399.8</ele><time>2026-04-26T12:09:39.049Z</time></trkpt><trkpt lat="38.0270383" lon="15.181365"><ele>399.2</ele><time>2026-04-26T12:09:40.049Z</time></trkpt><trkpt lat="38.0270167" lon="15.18124"><ele>398.59999999999997</ele><time>2026-04-26T12:09:41.049Z</time></trkpt><trkpt lat="38.0270083" lon="15.181125"><ele>398.0</ele><time>2026-04-26T12:09:42.049Z</time></trkpt><trkpt lat="38.0270133" lon="15.1810167"><ele>398.0</ele><time>2026-04-26T12:09:43.049Z</time></trkpt><trkpt lat="38.0270317" lon="15.180925"><ele>398.0</ele><time>2026-04-26T12:09:44.049Z</time></trkpt><trkpt lat="38.02706" lon="15.1808533"><ele>398.0</ele><time>2026-04-26T12:09:45.049Z</time></trkpt><trkpt lat="38.0271533" lon="15.180785"><ele>398.0</ele><time>2026-04-26T12:09:47.049Z</time></trkpt><trkpt lat="38.0272833" lon="15.1807517"><ele>398.0</ele><time>2026-04-26T12:09:49.049Z</time></trkpt><trkpt lat="38.027355" lon="15.18075"><ele>397.99999999999994</ele><time>2026-04-26T12:09:50.049Z</time></trkpt><trkpt lat="38.0274233" lon="15.1807383"><ele>398.0</ele><time>2026-04-26T12:09:51.049Z</time></trkpt><trkpt lat="38.0274917" lon="15.1807233"><ele>398.0</ele><time>2026-04-26T12:09:52.049Z</time></trkpt><trkpt lat="38.0275667" lon="15.180715"><ele>398.0</ele><time>2026-04-26T12:09:53.05Z</time></trkpt><trkpt lat="38.02765" lon="15.180705"><ele>397.99999999999994</ele><time>2026-04-26T12:09:54.049Z</time></trkpt><trkpt lat="38.027755" lon="15.1806967"><ele>398.0</ele><time>2026-04-26T12:09:55.049Z</time></trkpt><trkpt lat="38.02787" lon="15.180685"><ele>397.5</ele><time>2026-04-26T12:09:56.049Z</time></trkpt><trkpt lat="38.02799" lon="15.1806883"><ele>397.0</ele><time>2026-04-26T12:09:57.049Z</time></trkpt><trkpt lat="38.0281267" lon="15.1806933"><ele>396.5</ele><time>2026-04-26T12:09:58.049Z</time></trkpt><trkpt lat="38.028275" lon="15.1807183"><ele>396.0</ele><time>2026-04-26T12:09:59.049Z</time></trkpt><trkpt lat="38.02841" lon="15.1808033"><ele>395.75</ele><time>2026-04-26T12:10:00.049Z</time></trkpt><trkpt lat="38.0285333" lon="15.1808917"><ele>395.5</ele><time>2026-04-26T12:10:01.049Z</time></trkpt><trkpt lat="38.028655" lon="15.18101"><ele>395.25</ele><time>2026-04-26T12:10:02.049Z</time></trkpt><trkpt lat="38.0287517" lon="15.1811483"><ele>395.0</ele><time>2026-04-26T12:10:03.049Z</time></trkpt><trkpt lat="38.0288183" lon="15.1813217"><ele>390.3333333333333</ele><time>2026-04-26T12:10:04.049Z</time></trkpt><trkpt lat="38.02888" lon="15.1815233"><ele>385.66666666666663</ele><time>2026-04-26T12:10:05.049Z</time></trkpt><trkpt lat="38.02895" lon="15.1817333"><ele>381.0</ele><time>2026-04-26T12:10:06.049Z</time></trkpt><trkpt lat="38.0290133" lon="15.1819483"><ele>381.0</ele><time>2026-04-26T12:10:07.049Z</time></trkpt><trkpt lat="38.0290733" lon="15.18216"><ele>381.0</ele><time>2026-04-26T12:10:08.049Z</time></trkpt><trkpt lat="38.02914" lon="15.1823667"><ele>381.0</ele><time>2026-04-26T12:10:09.049Z</time></trkpt><trkpt lat="38.0291967" lon="15.1825683"><ele>380.6666666666667</ele><time>2026-04-26T12:10:10.049Z</time></trkpt><trkpt lat="38.02925" lon="15.1827783"><ele>380.33333333333337</ele><time>2026-04-26T12:10:11.049Z</time></trkpt><trkpt lat="38.0293033" lon="15.1829783"><ele>380.0</ele><time>2026-04-26T12:10:12.049Z</time></trkpt><trkpt lat="38.0293567" lon="15.1831817"><ele>380.0</ele><time>2026-04-26T12:10:13.049Z</time></trkpt><trkpt lat="38.0294117" lon="15.183395"><ele>380.0</ele><time>2026-04-26T12:10:14.05Z</time></trkpt><trkpt lat="38.0294683" lon="15.1836133"><ele>380.0</ele><time>2026-04-26T12:10:15.049Z</time></trkpt><trkpt lat="38.0295183" lon="15.1838267"><ele>377.6666666666667</ele><time>2026-04-26T12:10:16.049Z</time></trkpt><trkpt lat="38.0295717" lon="15.1840183"><ele>375.3333333333333</ele><time>2026-04-26T12:10:17.049Z</time></trkpt><trkpt lat="38.0296233" lon="15.184205"><ele>373.0</ele><time>2026-04-26T12:10:18.049Z</time></trkpt><trkpt lat="38.0296783" lon="15.1843717"><ele>373.0</ele><time>2026-04-26T12:10:19.049Z</time></trkpt><trkpt lat="38.0297383" lon="15.1845267"><ele>373.0</ele><time>2026-04-26T12:10:20.049Z</time></trkpt><trkpt lat="38.02982" lon="15.18465"><ele>373.0</ele><time>2026-04-26T12:10:21.049Z</time></trkpt><trkpt lat="38.02992" lon="15.184745"><ele>373.0</ele><time>2026-04-26T12:10:22.049Z</time></trkpt><trkpt lat="38.0300417" lon="15.184815"><ele>374.0</ele><time>2026-04-26T12:10:23.049Z</time></trkpt><trkpt lat="38.0301783" lon="15.1848467"><ele>375.0</ele><time>2026-04-26T12:10:24.049Z</time></trkpt><trkpt lat="38.0303133" lon="15.1848983"><ele>376.0</ele><time>2026-04-26T12:10:25.05Z</time></trkpt><trkpt lat="38.0304367" lon="15.1849967"><ele>377.0</ele><time>2026-04-26T12:10:26.049Z</time></trkpt><trkpt lat="38.030565" lon="15.18511"><ele>377.0</ele><time>2026-04-26T12:10:27.049Z</time></trkpt><trkpt lat="38.0307017" lon="15.18522"><ele>377.0</ele><time>2026-04-26T12:10:28.049Z</time></trkpt><trkpt lat="38.0308383" lon="15.1853067"><ele>377.0</ele><time>2026-04-26T12:10:29.049Z</time></trkpt><trkpt lat="38.030995" lon="15.1853383"><ele>379.6666666666667</ele><time>2026-04-26T12:10:30.049Z</time></trkpt><trkpt lat="38.0311717" lon="15.185345"><ele>382.33333333333337</ele><time>2026-04-26T12:10:31.05Z</time></trkpt><trkpt lat="38.0313617" lon="15.1853367"><ele>385.0</ele><time>2026-04-26T12:10:32.049Z</time></trkpt><trkpt lat="38.0315283" lon="15.1853467"><ele>385.5</ele><time>2026-04-26T12:10:33.049Z</time></trkpt><trkpt lat="38.031665" lon="15.185365"><ele>386.0</ele><time>2026-04-26T12:10:34.049Z</time></trkpt><trkpt lat="38.0317933" lon="15.1853583"><ele>386.5</ele><time>2026-04-26T12:10:35.05Z</time></trkpt><trkpt lat="38.0319067" lon="15.1853133"><ele>387.0</ele><time>2026-04-26T12:10:36.049Z</time></trkpt><trkpt lat="38.03202" lon="15.1852217"><ele>387.0</ele><time>2026-04-26T12:10:37.049Z</time></trkpt><trkpt lat="38.0321333" lon="15.185115"><ele>387.0</ele><time>2026-04-26T12:10:38.049Z</time></trkpt><trkpt lat="38.03226" lon="15.185035"><ele>387.0</ele><time>2026-04-26T12:10:39.049Z</time></trkpt><trkpt lat="38.032385" lon="15.1849983"><ele>387.0</ele><time>2026-04-26T12:10:40.049Z</time></trkpt><trkpt lat="38.0325" lon="15.1849883"><ele>383.75</ele><time>2026-04-26T12:10:41.049Z</time></trkpt><trkpt lat="38.032615" lon="15.18496"><ele>380.5</ele><time>2026-04-26T12:10:42.049Z</time></trkpt><trkpt lat="38.03272" lon="15.1848767"><ele>377.25</ele><time>2026-04-26T12:10:43.049Z</time></trkpt><trkpt lat="38.032805" lon="15.1847383"><ele>374.0</ele><time>2026-04-26T12:10:44.049Z</time></trkpt><trkpt lat="38.0328867" lon="15.1846017"><ele>381.5</ele><time>2026-04-26T12:10:45.049Z</time></trkpt><trkpt lat="38.0329717" lon="15.1844583"><ele>389.0</ele><time>2026-04-26T12:10:46.049Z</time></trkpt><trkpt lat="38.0330617" lon="15.1843333"><ele>396.5</ele><time>2026-04-26T12:10:47.05Z</time></trkpt><trkpt lat="38.03315" lon="15.184235"><ele>404.0</ele><time>2026-04-26T12:10:48.049Z</time></trkpt><trkpt lat="38.0332533" lon="15.1841683"><ele>398.5</ele><time>2026-04-26T12:10:49.049Z</time></trkpt><trkpt lat="38.0333667" lon="15.184145"><ele>393.0</ele><time>2026-04-26T12:10:50.049Z</time></trkpt><trkpt lat="38.03348" lon="15.184165"><ele>387.5</ele><time>2026-04-26T12:10:51.049Z</time></trkpt><trkpt lat="38.0336033" lon="15.1842167"><ele>382.0</ele><time>2026-04-26T12:10:52.049Z</time></trkpt><trkpt lat="38.0337367" lon="15.1842617"><ele>382.0</ele><time>2026-04-26T12:10:53.049Z</time></trkpt><trkpt lat="38.03388" lon="15.18429"><ele>382.0</ele><time>2026-04-26T12:10:54.049Z</time></trkpt><trkpt lat="38.0340267" lon="15.1843017"><ele>382.0</ele><time>2026-04-26T12:10:55.049Z</time></trkpt><trkpt lat="38.0341833" lon="15.1843"><ele>382.0</ele><time>2026-04-26T12:10:56.049Z</time></trkpt><trkpt lat="38.0343333" lon="15.1843017"><ele>379.5</ele><time>2026-04-26T12:10:57.049Z</time></trkpt><trkpt lat="38.0344783" lon="15.1842967"><ele>377.0</ele><time>2026-04-26T12:10:58.049Z</time></trkpt><trkpt lat="38.03462" lon="15.1842733"><ele>374.5</ele><time>2026-04-26T12:10:59.049Z</time></trkpt><trkpt lat="38.0347517" lon="15.1842333"><ele>372.0</ele><time>2026-04-26T12:11:00.049Z</time></trkpt><trkpt lat="38.034875" lon="15.184215"><ele>369.5</ele><time>2026-04-26T12:11:01.049Z</time></trkpt><trkpt lat="38.034995" lon="15.1842517"><ele>367.0</ele><time>2026-04-26T12:11:02.049Z</time></trkpt><trkpt lat="38.0351133" lon="15.18431"><ele>364.5</ele><time>2026-04-26T12:11:03.049Z</time></trkpt><trkpt lat="38.0352367" lon="15.1843333"><ele>362.0</ele><time>2026-04-26T12:11:04.05Z</time></trkpt><trkpt lat="38.035355" lon="15.18431"><ele>362.0</ele><time>2026-04-26T12:11:05.049Z</time></trkpt><trkpt lat="38.0354683" lon="15.1842167"><ele>362.0</ele><time>2026-04-26T12:11:06.049Z</time></trkpt><trkpt lat="38.0355867" lon="15.1840983"><ele>362.0</ele><time>2026-04-26T12:11:07.049Z</time></trkpt><trkpt lat="38.0356967" lon="15.1839683"><ele>362.0</ele><time>2026-04-26T12:11:08.049Z</time></trkpt><trkpt lat="38.035815" lon="15.1838567"><ele>363.75</ele><time>2026-04-26T12:11:09.049Z</time></trkpt><trkpt lat="38.0359383" lon="15.18377"><ele>365.5</ele><time>2026-04-26T12:11:10.049Z</time></trkpt><trkpt lat="38.036075" lon="15.18371"><ele>367.25</ele><time>2026-04-26T12:11:11.049Z</time></trkpt><trkpt lat="38.0362067" lon="15.1836933"><ele>369.0</ele><time>2026-04-26T12:11:12.049Z</time></trkpt><trkpt lat="38.0363283" lon="15.1837167"><ele>369.0</ele><time>2026-04-26T12:11:13.049Z</time></trkpt><trkpt lat="38.03644" lon="15.1837883"><ele>369.0</ele><time>2026-04-26T12:11:14.05Z</time></trkpt><trkpt lat="38.03655" lon="15.1838767"><ele>369.0</ele><time>2026-04-26T12:11:15.05Z</time></trkpt><trkpt lat="38.036655" lon="15.1839633"><ele>369.0</ele><time>2026-04-26T12:11:16.049Z</time></trkpt><trkpt lat="38.0367667" lon="15.184015"><ele>365.25</ele><time>2026-04-26T12:11:17.049Z</time></trkpt><trkpt lat="38.03689" lon="15.1840417"><ele>361.5</ele><time>2026-04-26T12:11:18.049Z</time></trkpt><trkpt lat="38.0370083" lon="15.1840333"><ele>357.75</ele><time>2026-04-26T12:11:19.049Z</time></trkpt><trkpt lat="38.037135" lon="15.18399"><ele>354.0</ele><time>2026-04-26T12:11:20.049Z</time></trkpt><trkpt lat="38.0372567" lon="15.1839083"><ele>354.0</ele><time>2026-04-26T12:11:21.049Z</time></trkpt><trkpt lat="38.037385" lon="15.1838217"><ele>354.0</ele><time>2026-04-26T12:11:22.049Z</time></trkpt><trkpt lat="38.0375233" lon="15.1837217"><ele>354.0</ele><time>2026-04-26T12:11:23.049Z</time></trkpt><trkpt lat="38.0376767" lon="15.18362"><ele>357.3333333333333</ele><time>2026-04-26T12:11:24.049Z</time></trkpt><trkpt lat="38.03783" lon="15.1834983"><ele>360.66666666666663</ele><time>2026-04-26T12:11:25.049Z</time></trkpt><trkpt lat="38.0379817" lon="15.1833783"><ele>364.0</ele><time>2026-04-26T12:11:26.049Z</time></trkpt><trkpt lat="38.0381383" lon="15.183265"><ele>367.0</ele><time>2026-04-26T12:11:27.049Z</time></trkpt><trkpt lat="38.0382983" lon="15.18317"><ele>370.0</ele><time>2026-04-26T12:11:28.049Z</time></trkpt><trkpt lat="38.0384617" lon="15.1831033"><ele>373.0</ele><time>2026-04-26T12:11:29.049Z</time></trkpt><trkpt lat="38.03863" lon="15.1830517"><ele>373.0</ele><time>2026-04-26T12:11:30.049Z</time></trkpt><trkpt lat="38.0388083" lon="15.1830183"><ele>373.0</ele><time>2026-04-26T12:11:31.049Z</time></trkpt><trkpt lat="38.0389983" lon="15.183005"><ele>373.0</ele><time>2026-04-26T12:11:32.049Z</time></trkpt><trkpt lat="38.03918" lon="15.1829967"><ele>370.66666666666663</ele><time>2026-04-26T12:11:33.049Z</time></trkpt><trkpt lat="38.0393767" lon="15.1829983"><ele>368.3333333333333</ele><time>2026-04-26T12:11:34.049Z</time></trkpt><trkpt lat="38.039585" lon="15.183025"><ele>366.0</ele><time>2026-04-26T12:11:35.049Z</time></trkpt><trkpt lat="38.0398" lon="15.1830383"><ele>366.5</ele><time>2026-04-26T12:11:36.049Z</time></trkpt><trkpt lat="38.040045" lon="15.1830667"><ele>367.0</ele><time>2026-04-26T12:11:37.049Z</time></trkpt><trkpt lat="38.0403133" lon="15.1831067"><ele>367.0</ele><time>2026-04-26T12:11:38.049Z</time></trkpt><trkpt lat="38.04061" lon="15.183135"><ele>367.0</ele><time>2026-04-26T12:11:39.049Z</time></trkpt><trkpt lat="38.0409233" lon="15.1831633"><ele>354.5</ele><time>2026-04-26T12:11:40.049Z</time></trkpt><trkpt lat="38.0412483" lon="15.1832"><ele>342.0</ele><time>2026-04-26T12:11:41.049Z</time></trkpt><trkpt lat="38.041565" lon="15.18324"><ele>340.0</ele><time>2026-04-26T12:11:42.049Z</time></trkpt><trkpt lat="38.04187" lon="15.1832717"><ele>338.0</ele><time>2026-04-26T12:11:43.049Z</time></trkpt><trkpt lat="38.0421567" lon="15.1833033"><ele>338.0</ele><time>2026-04-26T12:11:44.049Z</time></trkpt><trkpt lat="38.042435" lon="15.1833333"><ele>338.0</ele><time>2026-04-26T12:11:45.049Z</time></trkpt><trkpt lat="38.0427" lon="15.1833583"><ele>336.0</ele><time>2026-04-26T12:11:46.049Z</time></trkpt><trkpt lat="38.0429533" lon="15.18339"><ele>334.0</ele><time>2026-04-26T12:11:47.05Z</time></trkpt><trkpt lat="38.0432083" lon="15.18341"><ele>333.0</ele><time>2026-04-26T12:11:48.049Z</time></trkpt><trkpt lat="38.0434567" lon="15.1834317"><ele>332.0</ele><time>2026-04-26T12:11:49.049Z</time></trkpt><trkpt lat="38.0436883" lon="15.183455"><ele>332.0</ele><time>2026-04-26T12:11:50.049Z</time></trkpt><trkpt lat="38.0439233" lon="15.1834767"><ele>332.0</ele><time>2026-04-26T12:11:51.05Z</time></trkpt><trkpt lat="38.04415" lon="15.1835117"><ele>334.33333333333337</ele><time>2026-04-26T12:11:52.049Z</time></trkpt><trkpt lat="38.0443733" lon="15.183535"><ele>336.6666666666667</ele><time>2026-04-26T12:11:53.049Z</time></trkpt><trkpt lat="38.0445917" lon="15.1835667"><ele>339.0</ele><time>2026-04-26T12:11:54.049Z</time></trkpt><trkpt lat="38.0448067" lon="15.1835983"><ele>342.3333333333333</ele><time>2026-04-26T12:11:55.049Z</time></trkpt><trkpt lat="38.0450117" lon="15.18365"><ele>345.66666666666663</ele><time>2026-04-26T12:11:56.049Z</time></trkpt><trkpt lat="38.0452067" lon="15.1837133"><ele>349.0</ele><time>2026-04-26T12:11:57.049Z</time></trkpt><trkpt lat="38.0454033" lon="15.1837867"><ele>349.0</ele><time>2026-04-26T12:11:58.049Z</time></trkpt><trkpt lat="38.0455917" lon="15.1838733"><ele>349.0</ele><time>2026-04-26T12:11:59.049Z</time></trkpt><trkpt lat="38.045775" lon="15.18397"><ele>349.0</ele><time>2026-04-26T12:12:00.049Z</time></trkpt><trkpt lat="38.045955" lon="15.18408"><ele>342.0</ele><time>2026-04-26T12:12:01.049Z</time></trkpt><trkpt lat="38.04612" lon="15.1842067"><ele>335.0</ele><time>2026-04-26T12:12:02.05Z</time></trkpt><trkpt lat="38.046275" lon="15.1843583"><ele>328.0</ele><time>2026-04-26T12:12:03.049Z</time></trkpt><trkpt lat="38.0464167" lon="15.1845333"><ele>328.0</ele><time>2026-04-26T12:12:04.049Z</time></trkpt><trkpt lat="38.0465417" lon="15.1847283"><ele>328.0</ele><time>2026-04-26T12:12:05.049Z</time></trkpt><trkpt lat="38.0466383" lon="15.1849033"><ele>328.0</ele><time>2026-04-26T12:12:06.049Z</time></trkpt><trkpt lat="38.0467233" lon="15.18506"><ele>326.75</ele><time>2026-04-26T12:12:07.049Z</time></trkpt><trkpt lat="38.0468083" lon="15.1851933"><ele>325.5</ele><time>2026-04-26T12:12:08.049Z</time></trkpt><trkpt lat="38.046905" lon="15.1853067"><ele>324.25</ele><time>2026-04-26T12:12:09.049Z</time></trkpt><trkpt lat="38.0470117" lon="15.185385"><ele>323.0</ele><time>2026-04-26T12:12:10.05Z</time></trkpt><trkpt lat="38.047135" lon="15.1854183"><ele>323.0</ele><time>2026-04-26T12:12:11.049Z</time></trkpt><trkpt lat="38.0472617" lon="15.1853883"><ele>323.0</ele><time>2026-04-26T12:12:12.049Z</time></trkpt><trkpt lat="38.047385" lon="15.1853033"><ele>323.0</ele><time>2026-04-26T12:12:13.05Z</time></trkpt><trkpt lat="38.047505" lon="15.1851883"><ele>323.0</ele><time>2026-04-26T12:12:14.049Z</time></trkpt><trkpt lat="38.0476367" lon="15.1850667"><ele>322.0</ele><time>2026-04-26T12:12:15.049Z</time></trkpt><trkpt lat="38.0477717" lon="15.18495"><ele>321.0</ele><time>2026-04-26T12:12:16.05Z</time></trkpt><trkpt lat="38.0479117" lon="15.1848417"><ele>320.0</ele><time>2026-04-26T12:12:17.049Z</time></trkpt><trkpt lat="38.048045" lon="15.1847417"><ele>320.0</ele><time>2026-04-26T12:12:18.049Z</time></trkpt><trkpt lat="38.0481667" lon="15.1846417"><ele>320.0</ele><time>2026-04-26T12:12:19.049Z</time></trkpt><trkpt lat="38.0482767" lon="15.184555"><ele>320.0</ele><time>2026-04-26T12:12:20.049Z</time></trkpt><trkpt lat="38.0484067" lon="15.1844867"><ele>320.0</ele><time>2026-04-26T12:12:21.049Z</time></trkpt><trkpt lat="38.0485417" lon="15.184455"><ele>319.75</ele><time>2026-04-26T12:12:22.049Z</time></trkpt><trkpt lat="38.0486667" lon="15.18446"><ele>319.5</ele><time>2026-04-26T12:12:23.049Z</time></trkpt><trkpt lat="38.0487933" lon="15.1845"><ele>319.25</ele><time>2026-04-26T12:12:24.049Z</time></trkpt><trkpt lat="38.0488983" lon="15.18459"><ele>319.0</ele><time>2026-04-26T12:12:25.049Z</time></trkpt><trkpt lat="38.04898" lon="15.18473"><ele>317.66666666666663</ele><time>2026-04-26T12:12:26.049Z</time></trkpt><trkpt lat="38.049055" lon="15.1848883"><ele>316.3333333333333</ele><time>2026-04-26T12:12:27.049Z</time></trkpt><trkpt lat="38.0491267" lon="15.1850583"><ele>315.0</ele><time>2026-04-26T12:12:28.049Z</time></trkpt><trkpt lat="38.0492067" lon="15.1852433"><ele>315.0</ele><time>2026-04-26T12:12:29.049Z</time></trkpt><trkpt lat="38.0492917" lon="15.1854333"><ele>315.0</ele><time>2026-04-26T12:12:30.049Z</time></trkpt><trkpt lat="38.0493733" lon="15.185625"><ele>315.0</ele><time>2026-04-26T12:12:31.049Z</time></trkpt><trkpt lat="38.0494567" lon="15.18582"><ele>310.0</ele><time>2026-04-26T12:12:32.049Z</time></trkpt><trkpt lat="38.0495483" lon="15.1860167"><ele>305.0</ele><time>2026-04-26T12:12:33.049Z</time></trkpt><trkpt lat="38.0496417" lon="15.1862183"><ele>300.0</ele><time>2026-04-26T12:12:34.049Z</time></trkpt><trkpt lat="38.04974" lon="15.1864117"><ele>303.0</ele><time>2026-04-26T12:12:35.049Z</time></trkpt><trkpt lat="38.0498317" lon="15.1866167"><ele>306.0</ele><time>2026-04-26T12:12:36.049Z</time></trkpt><trkpt lat="38.0499233" lon="15.1868183"><ele>309.0</ele><time>2026-04-26T12:12:37.049Z</time></trkpt><trkpt lat="38.0500167" lon="15.1870133"><ele>309.0</ele><time>2026-04-26T12:12:38.049Z</time></trkpt><trkpt lat="38.050105" lon="15.1871983"><ele>309.0</ele><time>2026-04-26T12:12:39.049Z</time></trkpt><trkpt lat="38.0501867" lon="15.1873783"><ele>309.0</ele><time>2026-04-26T12:12:40.049Z</time></trkpt><trkpt lat="38.05026" lon="15.1875633"><ele>304.6666666666667</ele><time>2026-04-26T12:12:41.049Z</time></trkpt><trkpt lat="38.0503183" lon="15.1877533"><ele>300.33333333333337</ele><time>2026-04-26T12:12:42.049Z</time></trkpt><trkpt lat="38.0503617" lon="15.1879383"><ele>296.0</ele><time>2026-04-26T12:12:43.049Z</time></trkpt><trkpt lat="38.0503833" lon="15.18814"><ele>294.0</ele><time>2026-04-26T12:12:44.049Z</time></trkpt><trkpt lat="38.0503767" lon="15.1883517"><ele>292.0</ele><time>2026-04-26T12:12:45.049Z</time></trkpt><trkpt lat="38.0503633" lon="15.1885683"><ele>290.0</ele><time>2026-04-26T12:12:46.049Z</time></trkpt><trkpt lat="38.0503533" lon="15.1887933"><ele>289.0</ele><time>2026-04-26T12:12:47.049Z</time></trkpt><trkpt lat="38.050335" lon="15.1890133"><ele>288.0</ele><time>2026-04-26T12:12:48.049Z</time></trkpt><trkpt lat="38.0502983" lon="15.1892183"><ele>287.0</ele><time>2026-04-26T12:12:49.049Z</time></trkpt><trkpt lat="38.05027" lon="15.1894183"><ele>287.0</ele><time>2026-04-26T12:12:50.049Z</time></trkpt><trkpt lat="38.0502367" lon="15.1896033"><ele>287.0</ele><time>2026-04-26T12:12:51.05Z</time></trkpt><trkpt lat="38.050195" lon="15.1897683"><ele>287.0</ele><time>2026-04-26T12:12:52.049Z</time></trkpt><trkpt lat="38.0501433" lon="15.1899133"><ele>287.0</ele><time>2026-04-26T12:12:53.049Z</time></trkpt><trkpt lat="38.0500717" lon="15.1900367"><ele>287.0</ele><time>2026-04-26T12:12:54.049Z</time></trkpt><trkpt lat="38.04999" lon="15.1901417"><ele>287.0</ele><time>2026-04-26T12:12:55.049Z</time></trkpt><trkpt lat="38.04993" lon="15.1902517"><ele>287.0</ele><time>2026-04-26T12:12:56.049Z</time></trkpt><trkpt lat="38.0498967" lon="15.190385"><ele>287.0</ele><time>2026-04-26T12:12:57.049Z</time></trkpt><trkpt lat="38.0498883" lon="15.1905267"><ele>287.0</ele><time>2026-04-26T12:12:58.049Z</time></trkpt><trkpt lat="38.04991" lon="15.1906567"><ele>285.8</ele><time>2026-04-26T12:12:59.049Z</time></trkpt><trkpt lat="38.04996" lon="15.1907767"><ele>284.6</ele><time>2026-04-26T12:13:00.049Z</time></trkpt><trkpt lat="38.050035" lon="15.190875"><ele>283.40000000000003</ele><time>2026-04-26T12:13:01.049Z</time></trkpt><trkpt lat="38.0501283" lon="15.1909333"><ele>282.2</ele><time>2026-04-26T12:13:02.049Z</time></trkpt><trkpt lat="38.0502283" lon="15.1909567"><ele>281.0</ele><time>2026-04-26T12:13:03.049Z</time></trkpt><trkpt lat="38.050345" lon="15.1909383"><ele>281.0</ele><time>2026-04-26T12:13:04.049Z</time></trkpt><trkpt lat="38.050475" lon="15.1908483"><ele>281.0</ele><time>2026-04-26T12:13:05.049Z</time></trkpt><trkpt lat="38.050605" lon="15.1907317"><ele>281.0</ele><time>2026-04-26T12:13:06.049Z</time></trkpt><trkpt lat="38.050735" lon="15.1906067"><ele>286.33333333333337</ele><time>2026-04-26T12:13:07.049Z</time></trkpt><trkpt lat="38.0508617" lon="15.1904683"><ele>291.6666666666667</ele><time>2026-04-26T12:13:08.049Z</time></trkpt><trkpt lat="38.0509933" lon="15.1903467"><ele>297.0</ele><time>2026-04-26T12:13:09.049Z</time></trkpt><trkpt lat="38.0511333" lon="15.1902217"><ele>297.0</ele><time>2026-04-26T12:13:10.049Z</time></trkpt><trkpt lat="38.05128" lon="15.1900933"><ele>297.0</ele><time>2026-04-26T12:13:11.049Z</time></trkpt><trkpt lat="38.0514233" lon="15.1899583"><ele>297.0</ele><time>2026-04-26T12:13:12.049Z</time></trkpt><trkpt lat="38.05157" lon="15.1898217"><ele>300.3333333333333</ele><time>2026-04-26T12:13:13.05Z</time></trkpt><trkpt lat="38.0517133" lon="15.1897"><ele>303.66666666666663</ele><time>2026-04-26T12:13:14.049Z</time></trkpt><trkpt lat="38.0518567" lon="15.1895783"><ele>307.0</ele><time>2026-04-26T12:13:15.049Z</time></trkpt><trkpt lat="38.0520067" lon="15.18948"><ele>307.0</ele><time>2026-04-26T12:13:16.049Z</time></trkpt><trkpt lat="38.0521583" lon="15.1894017"><ele>307.0</ele><time>2026-04-26T12:13:17.049Z</time></trkpt><trkpt lat="38.05231" lon="15.1893433"><ele>307.0</ele><time>2026-04-26T12:13:18.049Z</time></trkpt><trkpt lat="38.0524583" lon="15.1892883"><ele>296.66666666666663</ele><time>2026-04-26T12:13:19.049Z</time></trkpt><trkpt lat="38.052605" lon="15.1892217"><ele>286.3333333333333</ele><time>2026-04-26T12:13:20.049Z</time></trkpt><trkpt lat="38.0527633" lon="15.1891533"><ele>276.0</ele><time>2026-04-26T12:13:21.049Z</time></trkpt><trkpt lat="38.052915" lon="15.1890967"><ele>276.0</ele><time>2026-04-26T12:13:22.049Z</time></trkpt><trkpt lat="38.0530667" lon="15.189035"><ele>276.0</ele><time>2026-04-26T12:13:23.049Z</time></trkpt><trkpt lat="38.0532317" lon="15.1889667"><ele>276.0</ele><time>2026-04-26T12:13:24.049Z</time></trkpt><trkpt lat="38.0533867" lon="15.18891"><ele>279.5</ele><time>2026-04-26T12:13:25.049Z</time></trkpt><trkpt lat="38.0535367" lon="15.188865"><ele>283.0</ele><time>2026-04-26T12:13:26.05Z</time></trkpt><trkpt lat="38.05368" lon="15.18881"><ele>286.5</ele><time>2026-04-26T12:13:27.05Z</time></trkpt><trkpt lat="38.05382" lon="15.1887733"><ele>290.0</ele><time>2026-04-26T12:13:28.05Z</time></trkpt><trkpt lat="38.0539617" lon="15.1887683"><ele>290.0</ele><time>2026-04-26T12:13:29.049Z</time></trkpt><trkpt lat="38.0541067" lon="15.1887917"><ele>290.0</ele><time>2026-04-26T12:13:30.049Z</time></trkpt><trkpt lat="38.0542517" lon="15.18885"><ele>290.0</ele><time>2026-04-26T12:13:31.049Z</time></trkpt><trkpt lat="38.054385" lon="15.1889567"><ele>281.33333333333337</ele><time>2026-04-26T12:13:32.049Z</time></trkpt><trkpt lat="38.0545" lon="15.1891033"><ele>272.6666666666667</ele><time>2026-04-26T12:13:33.049Z</time></trkpt><trkpt lat="38.0546067" lon="15.1892717"><ele>264.0</ele><time>2026-04-26T12:13:34.049Z</time></trkpt><trkpt lat="38.05473" lon="15.1894533"><ele>264.0</ele><time>2026-04-26T12:13:35.049Z</time></trkpt><trkpt lat="38.05486" lon="15.18963"><ele>264.0</ele><time>2026-04-26T12:13:36.049Z</time></trkpt><trkpt lat="38.05499" lon="15.1898017"><ele>264.0</ele><time>2026-04-26T12:13:37.049Z</time></trkpt><trkpt lat="38.0551083" lon="15.1899667"><ele>263.3333333333333</ele><time>2026-04-26T12:13:38.05Z</time></trkpt><trkpt lat="38.055235" lon="15.19012"><ele>262.66666666666663</ele><time>2026-04-26T12:13:39.049Z</time></trkpt><trkpt lat="38.0553683" lon="15.1902667"><ele>262.0</ele><time>2026-04-26T12:13:40.049Z</time></trkpt><trkpt lat="38.0555133" lon="15.1904133"><ele>262.0</ele><time>2026-04-26T12:13:41.049Z</time></trkpt><trkpt lat="38.05565" lon="15.1905617"><ele>262.0</ele><time>2026-04-26T12:13:42.049Z</time></trkpt><trkpt lat="38.055795" lon="15.1907183"><ele>262.0</ele><time>2026-04-26T12:13:43.049Z</time></trkpt><trkpt lat="38.0559267" lon="15.1908667"><ele>259.0</ele><time>2026-04-26T12:13:44.049Z</time></trkpt><trkpt lat="38.05606" lon="15.1910183"><ele>256.0</ele><time>2026-04-26T12:13:45.049Z</time></trkpt><trkpt lat="38.0561967" lon="15.19116"><ele>253.0</ele><time>2026-04-26T12:13:46.049Z</time></trkpt><trkpt lat="38.0563367" lon="15.19131"><ele>253.0</ele><time>2026-04-26T12:13:47.049Z</time></trkpt><trkpt lat="38.0564817" lon="15.1914667"><ele>253.0</ele><time>2026-04-26T12:13:48.049Z</time></trkpt><trkpt lat="38.0566283" lon="15.19162"><ele>253.0</ele><time>2026-04-26T12:13:49.049Z</time></trkpt><trkpt lat="38.0567717" lon="15.1917767"><ele>253.33333333333331</ele><time>2026-04-26T12:13:50.049Z</time></trkpt><trkpt lat="38.0569117" lon="15.191935"><ele>253.66666666666669</ele><time>2026-04-26T12:13:51.049Z</time></trkpt><trkpt lat="38.0570317" lon="15.19208"><ele>254.0</ele><time>2026-04-26T12:13:52.049Z</time></trkpt><trkpt lat="38.0571333" lon="15.1922117"><ele>253.0</ele><time>2026-04-26T12:13:53.049Z</time></trkpt><trkpt lat="38.0572083" lon="15.1923633"><ele>252.0</ele><time>2026-04-26T12:13:54.049Z</time></trkpt><trkpt lat="38.0572683" lon="15.19253"><ele>251.0</ele><time>2026-04-26T12:13:55.049Z</time></trkpt><trkpt lat="38.05732" lon="15.1927183"><ele>250.0</ele><time>2026-04-26T12:13:56.049Z</time></trkpt><trkpt lat="38.0573583" lon="15.19291"><ele>250.0</ele><time>2026-04-26T12:13:57.049Z</time></trkpt><trkpt lat="38.0573817" lon="15.1931133"><ele>250.0</ele><time>2026-04-26T12:13:58.049Z</time></trkpt><trkpt lat="38.0573867" lon="15.1933217"><ele>250.0</ele><time>2026-04-26T12:13:59.049Z</time></trkpt><trkpt lat="38.0573917" lon="15.1935317"><ele>250.0</ele><time>2026-04-26T12:14:00.049Z</time></trkpt><trkpt lat="38.0573867" lon="15.1937333"><ele>250.0</ele><time>2026-04-26T12:14:01.049Z</time></trkpt><trkpt lat="38.0574083" lon="15.193915"><ele>250.0</ele><time>2026-04-26T12:14:02.049Z</time></trkpt><trkpt lat="38.057455" lon="15.19407"><ele>250.0</ele><time>2026-04-26T12:14:03.049Z</time></trkpt><trkpt lat="38.05753" lon="15.1941867"><ele>250.2</ele><time>2026-04-26T12:14:04.049Z</time></trkpt><trkpt lat="38.0576233" lon="15.194265"><ele>250.4</ele><time>2026-04-26T12:14:05.049Z</time></trkpt><trkpt lat="38.0577217" lon="15.1942817"><ele>250.60000000000002</ele><time>2026-04-26T12:14:06.049Z</time></trkpt><trkpt lat="38.057825" lon="15.1942417"><ele>250.8</ele><time>2026-04-26T12:14:07.049Z</time></trkpt><trkpt lat="38.057905" lon="15.19418"><ele>251.0</ele><time>2026-04-26T12:14:08.049Z</time></trkpt><trkpt lat="38.0579783" lon="15.1941233"><ele>251.0</ele><time>2026-04-26T12:14:09.049Z</time></trkpt><trkpt lat="38.0580367" lon="15.1940883"><ele>251.00000000000003</ele><time>2026-04-26T12:14:10.049Z</time></trkpt><trkpt lat="38.0581133" lon="15.194085"><ele>251.00000000000003</ele><time>2026-04-26T12:14:12.049Z</time></trkpt><trkpt lat="38.0580833" lon="15.1941783"><ele>251.0</ele><time>2026-04-26T12:14:15.049Z</time></trkpt><trkpt lat="38.0580583" lon="15.19431"><ele>251.0</ele><time>2026-04-26T12:14:18.049Z</time></trkpt><trkpt lat="38.0580367" lon="15.1944717"><ele>251.00000000000003</ele><time>2026-04-26T12:14:20.049Z</time></trkpt><trkpt lat="38.0580267" lon="15.1945667"><ele>251.0</ele><time>2026-04-26T12:14:21.049Z</time></trkpt><trkpt lat="38.05802" lon="15.1946683"><ele>251.0</ele><time>2026-04-26T12:14:22.049Z</time></trkpt><trkpt lat="38.0580183" lon="15.1947767"><ele>251.0</ele><time>2026-04-26T12:14:23.05Z</time></trkpt><trkpt lat="38.0580083" lon="15.1948767"><ele>251.00000000000003</ele><time>2026-04-26T12:14:24.049Z</time></trkpt><trkpt lat="38.058005" lon="15.1949683"><ele>251.0</ele><time>2026-04-26T12:14:25.049Z</time></trkpt><trkpt lat="38.05798" lon="15.1950583"><ele>250.50000000000003</ele><time>2026-04-26T12:14:26.049Z</time></trkpt><trkpt lat="38.0579583" lon="15.1951433"><ele>250.0</ele><time>2026-04-26T12:14:27.049Z</time></trkpt><trkpt lat="38.05795" lon="15.19523"><ele>249.5</ele><time>2026-04-26T12:14:28.049Z</time></trkpt><trkpt lat="38.0579533" lon="15.1953283"><ele>249.0</ele><time>2026-04-26T12:14:29.049Z</time></trkpt><trkpt lat="38.0579767" lon="15.1954383"><ele>248.50000000000003</ele><time>2026-04-26T12:14:30.049Z</time></trkpt><trkpt lat="38.0580083" lon="15.1955533"><ele>248.0</ele><time>2026-04-26T12:14:31.049Z</time></trkpt><trkpt lat="38.0580333" lon="15.1956717"><ele>247.83333333333334</ele><time>2026-04-26T12:14:32.05Z</time></trkpt><trkpt lat="38.0580383" lon="15.195795"><ele>247.66666666666669</ele><time>2026-04-26T12:14:33.049Z</time></trkpt><trkpt lat="38.05804" lon="15.195915"><ele>247.5</ele><time>2026-04-26T12:14:34.049Z</time></trkpt><trkpt lat="38.0580383" lon="15.196015"><ele>247.33333333333331</ele><time>2026-04-26T12:14:35.049Z</time></trkpt><trkpt lat="38.0580383" lon="15.1961167"><ele>247.16666666666666</ele><time>2026-04-26T12:14:36.049Z</time></trkpt><trkpt lat="38.0580483" lon="15.196235"><ele>247.0</ele><time>2026-04-26T12:14:37.049Z</time></trkpt><trkpt lat="38.0580617" lon="15.19636"><ele>247.0</ele><time>2026-04-26T12:14:38.049Z</time></trkpt><trkpt lat="38.05808" lon="15.196475"><ele>247.0</ele><time>2026-04-26T12:14:39.049Z</time></trkpt><trkpt lat="38.0581067" lon="15.1965833"><ele>247.0</ele><time>2026-04-26T12:14:40.049Z</time></trkpt><trkpt lat="38.0581317" lon="15.1966917"><ele>247.0</ele><time>2026-04-26T12:14:41.049Z</time></trkpt><trkpt lat="38.058155" lon="15.19681"><ele>247.0</ele><time>2026-04-26T12:14:42.049Z</time></trkpt><trkpt lat="38.0581783" lon="15.1969417"><ele>247.6</ele><time>2026-04-26T12:14:43.049Z</time></trkpt><trkpt lat="38.0581833" lon="15.1970817"><ele>248.2</ele><time>2026-04-26T12:14:44.05Z</time></trkpt><trkpt lat="38.058175" lon="15.19722"><ele>248.8</ele><time>2026-04-26T12:14:45.049Z</time></trkpt><trkpt lat="38.058165" lon="15.19736"><ele>249.4</ele><time>2026-04-26T12:14:46.049Z</time></trkpt><trkpt lat="38.0581533" lon="15.1975083"><ele>250.0</ele><time>2026-04-26T12:14:47.05Z</time></trkpt><trkpt lat="38.0581517" lon="15.197675"><ele>250.0</ele><time>2026-04-26T12:14:48.049Z</time></trkpt><trkpt lat="38.0581533" lon="15.1978317"><ele>250.0</ele><time>2026-04-26T12:14:49.05Z</time></trkpt><trkpt lat="38.05816" lon="15.1979783"><ele>250.0</ele><time>2026-04-26T12:14:50.049Z</time></trkpt><trkpt lat="38.05817" lon="15.19812"><ele>250.0</ele><time>2026-04-26T12:14:51.049Z</time></trkpt><trkpt lat="38.058185" lon="15.1982667"><ele>250.5</ele><time>2026-04-26T12:14:52.049Z</time></trkpt><trkpt lat="38.0582" lon="15.198425"><ele>251.0</ele><time>2026-04-26T12:14:53.049Z</time></trkpt><trkpt lat="38.0582217" lon="15.1985833"><ele>251.5</ele><time>2026-04-26T12:14:54.049Z</time></trkpt><trkpt lat="38.058245" lon="15.1987417"><ele>252.0</ele><time>2026-04-26T12:14:55.049Z</time></trkpt><trkpt lat="38.058275" lon="15.1988967"><ele>252.0</ele><time>2026-04-26T12:14:56.049Z</time></trkpt><trkpt lat="38.0583167" lon="15.1990467"><ele>252.0</ele><time>2026-04-26T12:14:57.049Z</time></trkpt><trkpt lat="38.058365" lon="15.199195"><ele>252.0</ele><time>2026-04-26T12:14:58.049Z</time></trkpt><trkpt lat="38.05841" lon="15.1993417"><ele>252.0</ele><time>2026-04-26T12:14:59.049Z</time></trkpt><trkpt lat="38.0584433" lon="15.19949"><ele>252.0</ele><time>2026-04-26T12:15:00.049Z</time></trkpt><trkpt lat="38.0584633" lon="15.1996467"><ele>252.0</ele><time>2026-04-26T12:15:01.049Z</time></trkpt><trkpt lat="38.058485" lon="15.1997933"><ele>252.0</ele><time>2026-04-26T12:15:02.049Z</time></trkpt><trkpt lat="38.0585067" lon="15.19993"><ele>252.0</ele><time>2026-04-26T12:15:03.049Z</time></trkpt><trkpt lat="38.058535" lon="15.2000533"><ele>253.2</ele><time>2026-04-26T12:15:04.049Z</time></trkpt><trkpt lat="38.0585733" lon="15.2001733"><ele>254.39999999999998</ele><time>2026-04-26T12:15:05.049Z</time></trkpt><trkpt lat="38.0586017" lon="15.2003"><ele>255.60000000000002</ele><time>2026-04-26T12:15:06.049Z</time></trkpt><trkpt lat="38.0586367" lon="15.2004267"><ele>256.8</ele><time>2026-04-26T12:15:07.048Z</time></trkpt><trkpt lat="38.0586717" lon="15.20056"><ele>258.0</ele><time>2026-04-26T12:15:08.048Z</time></trkpt><trkpt lat="38.0587117" lon="15.2007017"><ele>259.0</ele><time>2026-04-26T12:15:09.048Z</time></trkpt><trkpt lat="38.0587617" lon="15.2008533"><ele>260.0</ele><time>2026-04-26T12:15:10.048Z</time></trkpt><trkpt lat="38.0588133" lon="15.201005"><ele>261.0</ele><time>2026-04-26T12:15:11.048Z</time></trkpt><trkpt lat="38.058875" lon="15.2011517"><ele>262.0</ele><time>2026-04-26T12:15:12.048Z</time></trkpt><trkpt lat="38.0589383" lon="15.2012733"><ele>262.0</ele><time>2026-04-26T12:15:13.048Z</time></trkpt><trkpt lat="38.0589883" lon="15.201395"><ele>262.0</ele><time>2026-04-26T12:15:14.048Z</time></trkpt><trkpt lat="38.059025" lon="15.2015133"><ele>262.0</ele><time>2026-04-26T12:15:15.048Z</time></trkpt><trkpt lat="38.0590467" lon="15.2016433"><ele>262.0</ele><time>2026-04-26T12:15:16.048Z</time></trkpt><trkpt lat="38.0590483" lon="15.2017817"><ele>262.0</ele><time>2026-04-26T12:15:17.048Z</time></trkpt><trkpt lat="38.059035" lon="15.2019283"><ele>262.25</ele><time>2026-04-26T12:15:18.048Z</time></trkpt><trkpt lat="38.0590133" lon="15.2020833"><ele>262.5</ele><time>2026-04-26T12:15:19.048Z</time></trkpt><trkpt lat="38.0589733" lon="15.2022383"><ele>262.75</ele><time>2026-04-26T12:15:20.048Z</time></trkpt><trkpt lat="38.0589317" lon="15.2023867"><ele>263.0</ele><time>2026-04-26T12:15:21.048Z</time></trkpt><trkpt lat="38.058875" lon="15.202515"><ele>263.25</ele><time>2026-04-26T12:15:22.048Z</time></trkpt><trkpt lat="38.058805" lon="15.2026383"><ele>263.5</ele><time>2026-04-26T12:15:23.048Z</time></trkpt><trkpt lat="38.058725" lon="15.2027583"><ele>263.75</ele><time>2026-04-26T12:15:24.048Z</time></trkpt><trkpt lat="38.0586333" lon="15.202865"><ele>264.0</ele><time>2026-04-26T12:15:25.048Z</time></trkpt><trkpt lat="38.058515" lon="15.2029633"><ele>264.0</ele><time>2026-04-26T12:15:26.048Z</time></trkpt><trkpt lat="38.0584017" lon="15.203065"><ele>264.0</ele><time>2026-04-26T12:15:27.048Z</time></trkpt><trkpt lat="38.058305" lon="15.2031783"><ele>264.0</ele><time>2026-04-26T12:15:28.048Z</time></trkpt><trkpt lat="38.05821" lon="15.203315"><ele>264.0</ele><time>2026-04-26T12:15:29.048Z</time></trkpt><trkpt lat="38.058115" lon="15.2034533"><ele>265.25</ele><time>2026-04-26T12:15:30.048Z</time></trkpt><trkpt lat="38.058025" lon="15.203595"><ele>266.5</ele><time>2026-04-26T12:15:31.048Z</time></trkpt><trkpt lat="38.057945" lon="15.203745"><ele>267.75</ele><time>2026-04-26T12:15:32.048Z</time></trkpt><trkpt lat="38.0578667" lon="15.2038933"><ele>269.0</ele><time>2026-04-26T12:15:33.049Z</time></trkpt><trkpt lat="38.05779" lon="15.2040283"><ele>269.5</ele><time>2026-04-26T12:15:34.048Z</time></trkpt><trkpt lat="38.0577017" lon="15.20416"><ele>270.0</ele><time>2026-04-26T12:15:35.048Z</time></trkpt><trkpt lat="38.0576067" lon="15.20429"><ele>270.5</ele><time>2026-04-26T12:15:36.048Z</time></trkpt><trkpt lat="38.0575083" lon="15.204415"><ele>271.0</ele><time>2026-04-26T12:15:37.048Z</time></trkpt><trkpt lat="38.0574083" lon="15.2045417"><ele>271.25</ele><time>2026-04-26T12:15:38.048Z</time></trkpt><trkpt lat="38.057295" lon="15.2046533"><ele>271.5</ele><time>2026-04-26T12:15:39.048Z</time></trkpt><trkpt lat="38.057205" lon="15.2047733"><ele>271.75</ele><time>2026-04-26T12:15:40.048Z</time></trkpt><trkpt lat="38.05711" lon="15.2048867"><ele>272.0</ele><time>2026-04-26T12:15:41.048Z</time></trkpt><trkpt lat="38.0569983" lon="15.205"><ele>272.75</ele><time>2026-04-26T12:15:42.048Z</time></trkpt><trkpt lat="38.0568683" lon="15.2051017"><ele>273.5</ele><time>2026-04-26T12:15:43.048Z</time></trkpt><trkpt lat="38.056745" lon="15.205195"><ele>274.25</ele><time>2026-04-26T12:15:44.048Z</time></trkpt><trkpt lat="38.056615" lon="15.20529"><ele>275.0</ele><time>2026-04-26T12:15:45.048Z</time></trkpt><trkpt lat="38.05649" lon="15.2053833"><ele>275.25</ele><time>2026-04-26T12:15:46.048Z</time></trkpt><trkpt lat="38.0563633" lon="15.2054867"><ele>275.5</ele><time>2026-04-26T12:15:47.048Z</time></trkpt><trkpt lat="38.05625" lon="15.2055983"><ele>275.75</ele><time>2026-04-26T12:15:48.048Z</time></trkpt><trkpt lat="38.0561317" lon="15.2057133"><ele>276.0</ele><time>2026-04-26T12:15:49.048Z</time></trkpt><trkpt lat="38.0560117" lon="15.2058233"><ele>276.75</ele><time>2026-04-26T12:15:50.048Z</time></trkpt><trkpt lat="38.055895" lon="15.2059317"><ele>277.5</ele><time>2026-04-26T12:15:51.048Z</time></trkpt><trkpt lat="38.0557933" lon="15.2060533"><ele>278.25</ele><time>2026-04-26T12:15:52.048Z</time></trkpt><trkpt lat="38.0557017" lon="15.2062017"><ele>279.0</ele><time>2026-04-26T12:15:53.048Z</time></trkpt><trkpt lat="38.0556183" lon="15.206355"><ele>279.5</ele><time>2026-04-26T12:15:54.048Z</time></trkpt><trkpt lat="38.0555217" lon="15.20651"><ele>280.0</ele><time>2026-04-26T12:15:55.048Z</time></trkpt><trkpt lat="38.0554233" lon="15.2066417"><ele>280.5</ele><time>2026-04-26T12:15:56.048Z</time></trkpt><trkpt lat="38.0553317" lon="15.2067617"><ele>281.0</ele><time>2026-04-26T12:15:57.048Z</time></trkpt><trkpt lat="38.055255" lon="15.2068917"><ele>281.0</ele><time>2026-04-26T12:15:58.048Z</time></trkpt><trkpt lat="38.055185" lon="15.2070083"><ele>281.0</ele><time>2026-04-26T12:15:59.048Z</time></trkpt><trkpt lat="38.0551233" lon="15.207095"><ele>281.0</ele><time>2026-04-26T12:16:00.048Z</time></trkpt><trkpt lat="38.0550533" lon="15.2071533"><ele>281.0</ele><time>2026-04-26T12:16:01.048Z</time></trkpt><trkpt lat="38.0549717" lon="15.207185"><ele>281.0</ele><time>2026-04-26T12:16:02.048Z</time></trkpt><trkpt lat="38.0548917" lon="15.2071817"><ele>281.40000000000003</ele><time>2026-04-26T12:16:03.048Z</time></trkpt><trkpt lat="38.0547967" lon="15.2071633"><ele>281.8</ele><time>2026-04-26T12:16:04.048Z</time></trkpt><trkpt lat="38.0546917" lon="15.20715"><ele>282.20000000000005</ele><time>2026-04-26T12:16:05.048Z</time></trkpt><trkpt lat="38.0545833" lon="15.2071533"><ele>282.6</ele><time>2026-04-26T12:16:06.048Z</time></trkpt><trkpt lat="38.0544733" lon="15.207165"><ele>283.0</ele><time>2026-04-26T12:16:07.048Z</time></trkpt><trkpt lat="38.05436" lon="15.2071617"><ele>283.0</ele><time>2026-04-26T12:16:08.048Z</time></trkpt><trkpt lat="38.05425" lon="15.2071333"><ele>283.0</ele><time>2026-04-26T12:16:09.048Z</time></trkpt><trkpt lat="38.05414" lon="15.207095"><ele>283.0</ele><time>2026-04-26T12:16:10.048Z</time></trkpt><trkpt lat="38.0540383" lon="15.207055"><ele>283.0</ele><time>2026-04-26T12:16:11.048Z</time></trkpt><trkpt lat="38.0539383" lon="15.20703"><ele>283.0</ele><time>2026-04-26T12:16:12.048Z</time></trkpt><trkpt lat="38.0538333" lon="15.207045"><ele>284.75</ele><time>2026-04-26T12:16:13.048Z</time></trkpt><trkpt lat="38.05373" lon="15.207085"><ele>286.5</ele><time>2026-04-26T12:16:14.048Z</time></trkpt><trkpt lat="38.0536167" lon="15.20714"><ele>288.25</ele><time>2026-04-26T12:16:15.048Z</time></trkpt><trkpt lat="38.0535167" lon="15.207215"><ele>290.0</ele><time>2026-04-26T12:16:16.048Z</time></trkpt><trkpt lat="38.0534267" lon="15.20732"><ele>290.0</ele><time>2026-04-26T12:16:17.049Z</time></trkpt><trkpt lat="38.05334" lon="15.2074367"><ele>290.0</ele><time>2026-04-26T12:16:18.048Z</time></trkpt><trkpt lat="38.0532533" lon="15.20754"><ele>290.0</ele><time>2026-04-26T12:16:19.048Z</time></trkpt><trkpt lat="38.0531567" lon="15.2076317"><ele>290.0</ele><time>2026-04-26T12:16:20.048Z</time></trkpt><trkpt lat="38.0530467" lon="15.2076883"><ele>291.0</ele><time>2026-04-26T12:16:21.048Z</time></trkpt><trkpt lat="38.05293" lon="15.2077383"><ele>292.0</ele><time>2026-04-26T12:16:22.048Z</time></trkpt><trkpt lat="38.0528117" lon="15.207795"><ele>293.0</ele><time>2026-04-26T12:16:23.048Z</time></trkpt><trkpt lat="38.0526933" lon="15.207865"><ele>294.0</ele><time>2026-04-26T12:16:24.048Z</time></trkpt><trkpt lat="38.0525683" lon="15.207925"><ele>294.75</ele><time>2026-04-26T12:16:25.048Z</time></trkpt><trkpt lat="38.0524383" lon="15.207975"><ele>295.5</ele><time>2026-04-26T12:16:26.048Z</time></trkpt><trkpt lat="38.0523167" lon="15.20803"><ele>296.25</ele><time>2026-04-26T12:16:27.048Z</time></trkpt><trkpt lat="38.0522133" lon="15.208095"><ele>297.0</ele><time>2026-04-26T12:16:28.048Z</time></trkpt><trkpt lat="38.052125" lon="15.2081783"><ele>297.4</ele><time>2026-04-26T12:16:29.048Z</time></trkpt><trkpt lat="38.05205" lon="15.2082767"><ele>297.79999999999995</ele><time>2026-04-26T12:16:30.048Z</time></trkpt><trkpt lat="38.0519833" lon="15.2083767"><ele>298.2</ele><time>2026-04-26T12:16:31.048Z</time></trkpt><trkpt lat="38.0519333" lon="15.2084633"><ele>298.59999999999997</ele><time>2026-04-26T12:16:32.048Z</time></trkpt><trkpt lat="38.0518867" lon="15.20856"><ele>299.0</ele><time>2026-04-26T12:16:33.048Z</time></trkpt><trkpt lat="38.0518317" lon="15.2086767"><ele>299.0</ele><time>2026-04-26T12:16:34.048Z</time></trkpt><trkpt lat="38.0517617" lon="15.2087883"><ele>299.0</ele><time>2026-04-26T12:16:35.048Z</time></trkpt><trkpt lat="38.0516767" lon="15.2088967"><ele>299.0</ele><time>2026-04-26T12:16:36.048Z</time></trkpt><trkpt lat="38.0515817" lon="15.208995"><ele>299.0</ele><time>2026-04-26T12:16:37.048Z</time></trkpt><trkpt lat="38.051495" lon="15.20909"><ele>299.5</ele><time>2026-04-26T12:16:38.048Z</time></trkpt><trkpt lat="38.0514267" lon="15.2091867"><ele>300.0</ele><time>2026-04-26T12:16:39.048Z</time></trkpt><trkpt lat="38.0513633" lon="15.2093133"><ele>300.5</ele><time>2026-04-26T12:16:40.048Z</time></trkpt><trkpt lat="38.0513" lon="15.209435"><ele>301.0</ele><time>2026-04-26T12:16:41.048Z</time></trkpt><trkpt lat="38.05123" lon="15.20955"><ele>301.0</ele><time>2026-04-26T12:16:42.048Z</time></trkpt><trkpt lat="38.0511467" lon="15.209635"><ele>301.0</ele><time>2026-04-26T12:16:43.048Z</time></trkpt><trkpt lat="38.0510517" lon="15.209695"><ele>301.0</ele><time>2026-04-26T12:16:44.048Z</time></trkpt><trkpt lat="38.0509617" lon="15.209735"><ele>301.0</ele><time>2026-04-26T12:16:45.048Z</time></trkpt><trkpt lat="38.0508633" lon="15.2097867"><ele>301.0</ele><time>2026-04-26T12:16:46.048Z</time></trkpt><trkpt lat="38.050775" lon="15.209865"><ele>302.2</ele><time>2026-04-26T12:16:47.048Z</time></trkpt><trkpt lat="38.0506967" lon="15.2099517"><ele>303.40000000000003</ele><time>2026-04-26T12:16:48.048Z</time></trkpt><trkpt lat="38.0506117" lon="15.210035"><ele>304.6</ele><time>2026-04-26T12:16:49.048Z</time></trkpt><trkpt lat="38.0505233" lon="15.2101"><ele>305.8</ele><time>2026-04-26T12:16:50.048Z</time></trkpt><trkpt lat="38.0504267" lon="15.21013"><ele>307.0</ele><time>2026-04-26T12:16:51.048Z</time></trkpt><trkpt lat="38.05033" lon="15.21014"><ele>307.0</ele><time>2026-04-26T12:16:52.048Z</time></trkpt><trkpt lat="38.050235" lon="15.210165"><ele>307.0</ele><time>2026-04-26T12:16:53.048Z</time></trkpt><trkpt lat="38.0501567" lon="15.2102067"><ele>307.0</ele><time>2026-04-26T12:16:54.048Z</time></trkpt><trkpt lat="38.0500917" lon="15.21027"><ele>307.0</ele><time>2026-04-26T12:16:55.048Z</time></trkpt><trkpt lat="38.0500417" lon="15.2103567"><ele>307.0</ele><time>2026-04-26T12:16:56.048Z</time></trkpt><trkpt lat="38.0500033" lon="15.2104667"><ele>307.0</ele><time>2026-04-26T12:16:57.048Z</time></trkpt><trkpt lat="38.0499617" lon="15.210585"><ele>308.4</ele><time>2026-04-26T12:16:58.048Z</time></trkpt><trkpt lat="38.0499033" lon="15.2107167"><ele>309.79999999999995</ele><time>2026-04-26T12:16:59.048Z</time></trkpt><trkpt lat="38.0498483" lon="15.2108367"><ele>311.2</ele><time>2026-04-26T12:17:00.048Z</time></trkpt><trkpt lat="38.0498017" lon="15.2109567"><ele>312.59999999999997</ele><time>2026-04-26T12:17:01.048Z</time></trkpt><trkpt lat="38.0497667" lon="15.211075"><ele>314.0</ele><time>2026-04-26T12:17:02.048Z</time></trkpt><trkpt lat="38.0497383" lon="15.2111767"><ele>314.0</ele><time>2026-04-26T12:17:03.048Z</time></trkpt><trkpt lat="38.049715" lon="15.2112667"><ele>314.0</ele><time>2026-04-26T12:17:04.048Z</time></trkpt><trkpt lat="38.0496733" lon="15.2114017"><ele>314.0</ele><time>2026-04-26T12:17:06.048Z</time></trkpt><trkpt lat="38.0496433" lon="15.21149"><ele>314.0</ele><time>2026-04-26T12:17:28.048Z</time></trkpt><trkpt lat="38.0496633" lon="15.2115833"><ele>314.0</ele><time>2026-04-26T12:17:30.048Z</time></trkpt><trkpt lat="38.0496767" lon="15.21171"><ele>314.0</ele><time>2026-04-26T12:17:32.048Z</time></trkpt><trkpt lat="38.0496567" lon="15.2118183"><ele>316.4</ele><time>2026-04-26T12:17:34.048Z</time></trkpt><trkpt lat="38.049615" lon="15.211925"><ele>318.79999999999995</ele><time>2026-04-26T12:17:36.048Z</time></trkpt><trkpt lat="38.04956" lon="15.2120283"><ele>321.20000000000005</ele><time>2026-04-26T12:17:38.048Z</time></trkpt><trkpt lat="38.0496083" lon="15.2119117"><ele>323.6</ele><time>2026-04-26T12:17:53.048Z</time></trkpt><trkpt lat="38.0496383" lon="15.21177"><ele>326.0</ele><time>2026-04-26T12:17:55.048Z</time></trkpt><trkpt lat="38.04964" lon="15.2116883"><ele>326.0</ele><time>2026-04-26T12:17:56.048Z</time></trkpt><trkpt lat="38.0496333" lon="15.2116067"><ele>326.0</ele><time>2026-04-26T12:17:57.048Z</time></trkpt><trkpt lat="38.0496167" lon="15.2114717"><ele>326.0</ele><time>2026-04-26T12:17:59.048Z</time></trkpt><trkpt lat="38.049645" lon="15.2113717"><ele>326.0</ele><time>2026-04-26T12:18:01.048Z</time></trkpt><trkpt lat="38.049715" lon="15.2112233"><ele>326.0</ele><time>2026-04-26T12:18:09.048Z</time></trkpt><trkpt lat="38.0497617" lon="15.2110933"><ele>324.0</ele><time>2026-04-26T12:18:11.048Z</time></trkpt><trkpt lat="38.04979" lon="15.2110017"><ele>322.0</ele><time>2026-04-26T12:18:12.048Z</time></trkpt><trkpt lat="38.0498233" lon="15.2108967"><ele>320.0</ele><time>2026-04-26T12:18:13.048Z</time></trkpt><trkpt lat="38.0498633" lon="15.2107967"><ele>318.0</ele><time>2026-04-26T12:18:14.048Z</time></trkpt><trkpt lat="38.0499067" lon="15.2106983"><ele>316.0</ele><time>2026-04-26T12:18:15.048Z</time></trkpt><trkpt lat="38.0499517" lon="15.2106117"><ele>314.0</ele><time>2026-04-26T12:18:16.048Z</time></trkpt><trkpt lat="38.0499917" lon="15.2105283"><ele>312.83333333333337</ele><time>2026-04-26T12:18:17.048Z</time></trkpt><trkpt lat="38.05003" lon="15.2104417"><ele>311.6666666666667</ele><time>2026-04-26T12:18:18.048Z</time></trkpt><trkpt lat="38.0500717" lon="15.2103567"><ele>310.5</ele><time>2026-04-26T12:18:19.048Z</time></trkpt><trkpt lat="38.05011" lon="15.2102817"><ele>309.3333333333333</ele><time>2026-04-26T12:18:20.049Z</time></trkpt><trkpt lat="38.050175" lon="15.2101817"><ele>308.16666666666663</ele><time>2026-04-26T12:18:22.048Z</time></trkpt><trkpt lat="38.05008" lon="15.2101867"><ele>307.0</ele><time>2026-04-26T12:18:28.048Z</time></trkpt><trkpt lat="38.05002" lon="15.2102467"><ele>307.5</ele><time>2026-04-26T12:18:29.048Z</time></trkpt><trkpt lat="38.0499517" lon="15.21032"><ele>308.0</ele><time>2026-04-26T12:18:30.049Z</time></trkpt><trkpt lat="38.0498883" lon="15.2104"><ele>308.5</ele><time>2026-04-26T12:18:31.048Z</time></trkpt><trkpt lat="38.04983" lon="15.2104833"><ele>309.0</ele><time>2026-04-26T12:18:32.048Z</time></trkpt><trkpt lat="38.0497667" lon="15.2105567"><ele>309.5</ele><time>2026-04-26T12:18:33.048Z</time></trkpt><trkpt lat="38.0497033" lon="15.21063"><ele>310.0</ele><time>2026-04-26T12:18:34.048Z</time></trkpt><trkpt lat="38.0496283" lon="15.2107017"><ele>310.8</ele><time>2026-04-26T12:18:35.048Z</time></trkpt><trkpt lat="38.0495367" lon="15.2107667"><ele>311.6</ele><time>2026-04-26T12:18:36.048Z</time></trkpt><trkpt lat="38.0494517" lon="15.2108367"><ele>312.4</ele><time>2026-04-26T12:18:37.048Z</time></trkpt><trkpt lat="38.0493667" lon="15.21092"><ele>313.2</ele><time>2026-04-26T12:18:38.048Z</time></trkpt><trkpt lat="38.0492867" lon="15.211025"><ele>314.0</ele><time>2026-04-26T12:18:39.048Z</time></trkpt><trkpt lat="38.04921" lon="15.21113"><ele>314.0</ele><time>2026-04-26T12:18:40.049Z</time></trkpt><trkpt lat="38.0491433" lon="15.2112367"><ele>314.0</ele><time>2026-04-26T12:18:41.048Z</time></trkpt><trkpt lat="38.0490833" lon="15.2113267"><ele>314.0</ele><time>2026-04-26T12:18:42.048Z</time></trkpt><trkpt lat="38.0490217" lon="15.2114167"><ele>314.0</ele><time>2026-04-26T12:18:43.048Z</time></trkpt><trkpt lat="38.048965" lon="15.2114817"><ele>314.0</ele><time>2026-04-26T12:18:44.049Z</time></trkpt><trkpt lat="38.0489033" lon="15.2115167"><ele>314.0</ele><time>2026-04-26T12:18:45.048Z</time></trkpt><trkpt lat="38.0488317" lon="15.21154"><ele>315.2</ele><time>2026-04-26T12:18:46.048Z</time></trkpt><trkpt lat="38.04876" lon="15.211565"><ele>316.4</ele><time>2026-04-26T12:18:47.048Z</time></trkpt><trkpt lat="38.0486717" lon="15.2115917"><ele>317.6</ele><time>2026-04-26T12:18:48.048Z</time></trkpt><trkpt lat="38.0485667" lon="15.21162"><ele>318.8</ele><time>2026-04-26T12:18:49.048Z</time></trkpt><trkpt lat="38.04845" lon="15.2116617"><ele>320.0</ele><time>2026-04-26T12:18:50.048Z</time></trkpt><trkpt lat="38.0483383" lon="15.211705"><ele>320.25</ele><time>2026-04-26T12:18:51.048Z</time></trkpt><trkpt lat="38.0482167" lon="15.2117617"><ele>320.5</ele><time>2026-04-26T12:18:52.048Z</time></trkpt><trkpt lat="38.0480983" lon="15.211835"><ele>320.75</ele><time>2026-04-26T12:18:53.049Z</time></trkpt><trkpt lat="38.0479833" lon="15.2118883"><ele>321.0</ele><time>2026-04-26T12:18:54.048Z</time></trkpt><trkpt lat="38.047875" lon="15.2119183"><ele>321.0</ele><time>2026-04-26T12:18:55.048Z</time></trkpt><trkpt lat="38.0477633" lon="15.2119317"><ele>321.0</ele><time>2026-04-26T12:18:56.048Z</time></trkpt><trkpt lat="38.0476533" lon="15.2119483"><ele>321.0</ele><time>2026-04-26T12:18:57.048Z</time></trkpt><trkpt lat="38.0475433" lon="15.2119583"><ele>321.0</ele><time>2026-04-26T12:18:58.048Z</time></trkpt><trkpt lat="38.04743" lon="15.2119717"><ele>321.0</ele><time>2026-04-26T12:18:59.048Z</time></trkpt><trkpt lat="38.0473017" lon="15.2119933"><ele>322.25</ele><time>2026-04-26T12:19:00.048Z</time></trkpt><trkpt lat="38.04717" lon="15.212015"><ele>323.5</ele><time>2026-04-26T12:19:01.048Z</time></trkpt><trkpt lat="38.0470367" lon="15.2120217"><ele>324.75</ele><time>2026-04-26T12:19:02.048Z</time></trkpt><trkpt lat="38.046905" lon="15.2120217"><ele>326.0</ele><time>2026-04-26T12:19:03.049Z</time></trkpt><trkpt lat="38.0467733" lon="15.21201"><ele>326.0</ele><time>2026-04-26T12:19:04.048Z</time></trkpt><trkpt lat="38.046645" lon="15.2120017"><ele>326.0</ele><time>2026-04-26T12:19:05.048Z</time></trkpt><trkpt lat="38.0465183" lon="15.2119817"><ele>326.0</ele><time>2026-04-26T12:19:06.048Z</time></trkpt><trkpt lat="38.0464" lon="15.21197"><ele>326.0</ele><time>2026-04-26T12:19:07.048Z</time></trkpt><trkpt lat="38.0462783" lon="15.21196"><ele>324.75</ele><time>2026-04-26T12:19:08.049Z</time></trkpt><trkpt lat="38.04616" lon="15.211955"><ele>323.5</ele><time>2026-04-26T12:19:09.048Z</time></trkpt><trkpt lat="38.0460383" lon="15.2119517"><ele>322.25</ele><time>2026-04-26T12:19:10.048Z</time></trkpt><trkpt lat="38.0459183" lon="15.2119383"><ele>321.0</ele><time>2026-04-26T12:19:11.049Z</time></trkpt><trkpt lat="38.0457967" lon="15.2119217"><ele>321.8</ele><time>2026-04-26T12:19:12.049Z</time></trkpt><trkpt lat="38.0456783" lon="15.21191"><ele>322.6</ele><time>2026-04-26T12:19:13.048Z</time></trkpt><trkpt lat="38.0455683" lon="15.2118883"><ele>323.4</ele><time>2026-04-26T12:19:14.048Z</time></trkpt><trkpt lat="38.0454667" lon="15.2118383"><ele>324.2</ele><time>2026-04-26T12:19:15.048Z</time></trkpt><trkpt lat="38.04537" lon="15.2117917"><ele>325.0</ele><time>2026-04-26T12:19:16.048Z</time></trkpt><trkpt lat="38.04527" lon="15.211765"><ele>325.0</ele><time>2026-04-26T12:19:17.048Z</time></trkpt><trkpt lat="38.04516" lon="15.211745"><ele>325.0</ele><time>2026-04-26T12:19:18.048Z</time></trkpt><trkpt lat="38.0450467" lon="15.2117283"><ele>325.0</ele><time>2026-04-26T12:19:19.048Z</time></trkpt><trkpt lat="38.0449333" lon="15.2117133"><ele>325.0</ele><time>2026-04-26T12:19:20.048Z</time></trkpt><trkpt lat="38.044825" lon="15.211705"><ele>325.0</ele><time>2026-04-26T12:19:21.049Z</time></trkpt><trkpt lat="38.044725" lon="15.21171"><ele>326.2</ele><time>2026-04-26T12:19:22.048Z</time></trkpt><trkpt lat="38.0446183" lon="15.2117117"><ele>327.4</ele><time>2026-04-26T12:19:23.048Z</time></trkpt><trkpt lat="38.0445183" lon="15.2117167"><ele>328.6</ele><time>2026-04-26T12:19:24.048Z</time></trkpt><trkpt lat="38.0444133" lon="15.2117233"><ele>329.8</ele><time>2026-04-26T12:19:25.048Z</time></trkpt><trkpt lat="38.0443033" lon="15.2117217"><ele>331.0</ele><time>2026-04-26T12:19:26.048Z</time></trkpt><trkpt lat="38.044215" lon="15.2117083"><ele>331.0</ele><time>2026-04-26T12:19:27.048Z</time></trkpt><trkpt lat="38.0441333" lon="15.2116667"><ele>331.0</ele><time>2026-04-26T12:19:28.048Z</time></trkpt><trkpt lat="38.0440483" lon="15.2116083"><ele>331.0</ele><time>2026-04-26T12:19:29.049Z</time></trkpt><trkpt lat="38.0439783" lon="15.2115567"><ele>331.0</ele><time>2026-04-26T12:19:30.048Z</time></trkpt><trkpt lat="38.0439017" lon="15.21152"><ele>331.0</ele><time>2026-04-26T12:19:31.048Z</time></trkpt><trkpt lat="38.0438117" lon="15.2115033"><ele>331.0</ele><time>2026-04-26T12:19:32.048Z</time></trkpt><trkpt lat="38.04373" lon="15.21149"><ele>331.0</ele><time>2026-04-26T12:19:33.048Z</time></trkpt><trkpt lat="38.0436467" lon="15.2114767"><ele>331.0</ele><time>2026-04-26T12:19:34.048Z</time></trkpt><trkpt lat="38.0435667" lon="15.2114683"><ele>331.0</ele><time>2026-04-26T12:19:35.048Z</time></trkpt><trkpt lat="38.04348" lon="15.2114533"><ele>331.0</ele><time>2026-04-26T12:19:36.048Z</time></trkpt><trkpt lat="38.0433933" lon="15.2114317"><ele>331.0</ele><time>2026-04-26T12:19:37.048Z</time></trkpt><trkpt lat="38.043305" lon="15.2114067"><ele>331.0</ele><time>2026-04-26T12:19:38.048Z</time></trkpt><trkpt lat="38.0432117" lon="15.2113867"><ele>331.8</ele><time>2026-04-26T12:19:39.048Z</time></trkpt><trkpt lat="38.0431167" lon="15.2113667"><ele>332.6</ele><time>2026-04-26T12:19:40.048Z</time></trkpt><trkpt lat="38.0430367" lon="15.2113617"><ele>333.4</ele><time>2026-04-26T12:19:41.048Z</time></trkpt><trkpt lat="38.042945" lon="15.21137"><ele>334.2</ele><time>2026-04-26T12:19:42.048Z</time></trkpt><trkpt lat="38.0428483" lon="15.2113767"><ele>335.0</ele><time>2026-04-26T12:19:43.048Z</time></trkpt><trkpt lat="38.0427633" lon="15.2113867"><ele>335.0</ele><time>2026-04-26T12:19:44.048Z</time></trkpt><trkpt lat="38.042675" lon="15.211405"><ele>335.0</ele><time>2026-04-26T12:19:45.048Z</time></trkpt><trkpt lat="38.04261" lon="15.2114467"><ele>335.0</ele><time>2026-04-26T12:19:46.048Z</time></trkpt><trkpt lat="38.0425617" lon="15.2115"><ele>335.0</ele><time>2026-04-26T12:19:47.048Z</time></trkpt><trkpt lat="38.0425133" lon="15.2115533"><ele>335.0</ele><time>2026-04-26T12:19:48.048Z</time></trkpt><trkpt lat="38.042415" lon="15.2115817"><ele>335.0</ele><time>2026-04-26T12:19:50.048Z</time></trkpt><trkpt lat="38.0422817" lon="15.2116033"><ele>335.2</ele><time>2026-04-26T12:19:52.048Z</time></trkpt><trkpt lat="38.042205" lon="15.2116367"><ele>335.4</ele><time>2026-04-26T12:19:53.048Z</time></trkpt><trkpt lat="38.0421217" lon="15.2116867"><ele>335.6</ele><time>2026-04-26T12:19:54.048Z</time></trkpt><trkpt lat="38.0420283" lon="15.2117567"><ele>335.8</ele><time>2026-04-26T12:19:55.048Z</time></trkpt><trkpt lat="38.0419267" lon="15.21183"><ele>336.0</ele><time>2026-04-26T12:19:56.048Z</time></trkpt><trkpt lat="38.0418267" lon="15.2118983"><ele>336.0</ele><time>2026-04-26T12:19:57.048Z</time></trkpt><trkpt lat="38.04174" lon="15.21196"><ele>336.0</ele><time>2026-04-26T12:19:58.048Z</time></trkpt><trkpt lat="38.041665" lon="15.2120233"><ele>336.0</ele><time>2026-04-26T12:19:59.048Z</time></trkpt><trkpt lat="38.0416" lon="15.2120967"><ele>336.0</ele><time>2026-04-26T12:20:00.048Z</time></trkpt><trkpt lat="38.04153" lon="15.2121667"><ele>336.0</ele><time>2026-04-26T12:20:01.048Z</time></trkpt><trkpt lat="38.0414633" lon="15.2122317"><ele>336.8333333333333</ele><time>2026-04-26T12:20:02.048Z</time></trkpt><trkpt lat="38.041385" lon="15.2122817"><ele>337.6666666666667</ele><time>2026-04-26T12:20:03.048Z</time></trkpt><trkpt lat="38.04131" lon="15.2122983"><ele>338.5</ele><time>2026-04-26T12:20:04.048Z</time></trkpt><trkpt lat="38.0412417" lon="15.2122767"><ele>339.33333333333337</ele><time>2026-04-26T12:20:05.048Z</time></trkpt><trkpt lat="38.0411717" lon="15.2122533"><ele>340.1666666666667</ele><time>2026-04-26T12:20:06.048Z</time></trkpt><trkpt lat="38.0410967" lon="15.2122467"><ele>341.0</ele><time>2026-04-26T12:20:07.048Z</time></trkpt><trkpt lat="38.0410267" lon="15.2122567"><ele>341.0</ele><time>2026-04-26T12:20:08.048Z</time></trkpt><trkpt lat="38.040955" lon="15.21227"><ele>341.0</ele><time>2026-04-26T12:20:09.048Z</time></trkpt><trkpt lat="38.0408783" lon="15.2122733"><ele>341.0</ele><time>2026-04-26T12:20:10.048Z</time></trkpt><trkpt lat="38.0407967" lon="15.21228"><ele>341.0</ele><time>2026-04-26T12:20:11.048Z</time></trkpt><trkpt lat="38.0407133" lon="15.2123"><ele>341.0</ele><time>2026-04-26T12:20:12.048Z</time></trkpt><trkpt lat="38.0406233" lon="15.212325"><ele>341.0</ele><time>2026-04-26T12:20:13.048Z</time></trkpt><trkpt lat="38.0405283" lon="15.2123567"><ele>342.1666666666667</ele><time>2026-04-26T12:20:14.048Z</time></trkpt><trkpt lat="38.0404417" lon="15.212395"><ele>343.33333333333337</ele><time>2026-04-26T12:20:15.048Z</time></trkpt><trkpt lat="38.0403733" lon="15.2124567"><ele>344.5</ele><time>2026-04-26T12:20:16.048Z</time></trkpt><trkpt lat="38.0403083" lon="15.2125183"><ele>345.6666666666667</ele><time>2026-04-26T12:20:17.048Z</time></trkpt><trkpt lat="38.0402483" lon="15.2125883"><ele>346.8333333333333</ele><time>2026-04-26T12:20:18.048Z</time></trkpt><trkpt lat="38.0401783" lon="15.21265"><ele>348.0</ele><time>2026-04-26T12:20:19.049Z</time></trkpt><trkpt lat="38.0401067" lon="15.2127067"><ele>348.0</ele><time>2026-04-26T12:20:20.049Z</time></trkpt><trkpt lat="38.0400367" lon="15.2127717"><ele>348.0</ele><time>2026-04-26T12:20:21.048Z</time></trkpt><trkpt lat="38.0399683" lon="15.2128267"><ele>348.0</ele><time>2026-04-26T12:20:22.048Z</time></trkpt><trkpt lat="38.0399" lon="15.2128783"><ele>348.0</ele><time>2026-04-26T12:20:23.048Z</time></trkpt><trkpt lat="38.0398283" lon="15.2129167"><ele>348.0</ele><time>2026-04-26T12:20:24.048Z</time></trkpt><trkpt lat="38.03975" lon="15.212945"><ele>348.0</ele><time>2026-04-26T12:20:25.049Z</time></trkpt><trkpt lat="38.0396633" lon="15.2129717"><ele>348.6666666666667</ele><time>2026-04-26T12:20:26.048Z</time></trkpt><trkpt lat="38.0395833" lon="15.2129983"><ele>349.3333333333333</ele><time>2026-04-26T12:20:27.048Z</time></trkpt><trkpt lat="38.0395067" lon="15.2130433"><ele>350.0</ele><time>2026-04-26T12:20:28.048Z</time></trkpt><trkpt lat="38.0394383" lon="15.213085"><ele>350.66666666666663</ele><time>2026-04-26T12:20:29.048Z</time></trkpt><trkpt lat="38.039375" lon="15.2131333"><ele>351.3333333333333</ele><time>2026-04-26T12:20:30.048Z</time></trkpt><trkpt lat="38.0393133" lon="15.2131883"><ele>352.0</ele><time>2026-04-26T12:20:31.048Z</time></trkpt><trkpt lat="38.03925" lon="15.21325"><ele>352.5</ele><time>2026-04-26T12:20:32.048Z</time></trkpt><trkpt lat="38.0391883" lon="15.21331"><ele>353.0</ele><time>2026-04-26T12:20:33.048Z</time></trkpt><trkpt lat="38.03913" lon="15.2133683"><ele>353.5</ele><time>2026-04-26T12:20:34.049Z</time></trkpt><trkpt lat="38.0390633" lon="15.2134267"><ele>354.0</ele><time>2026-04-26T12:20:35.048Z</time></trkpt><trkpt lat="38.0389983" lon="15.2134833"><ele>354.5</ele><time>2026-04-26T12:20:36.048Z</time></trkpt><trkpt lat="38.0389367" lon="15.2135383"><ele>355.0</ele><time>2026-04-26T12:20:37.048Z</time></trkpt><trkpt lat="38.03887" lon="15.2135817"><ele>355.4</ele><time>2026-04-26T12:20:38.048Z</time></trkpt><trkpt lat="38.0387967" lon="15.2136383"><ele>355.8</ele><time>2026-04-26T12:20:39.048Z</time></trkpt><trkpt lat="38.0387133" lon="15.2136867"><ele>356.20000000000005</ele><time>2026-04-26T12:20:40.048Z</time></trkpt><trkpt lat="38.0386167" lon="15.21373"><ele>356.6</ele><time>2026-04-26T12:20:41.048Z</time></trkpt><trkpt lat="38.0385217" lon="15.2137783"><ele>357.0</ele><time>2026-04-26T12:20:42.048Z</time></trkpt><trkpt lat="38.038425" lon="15.213825"><ele>357.0</ele><time>2026-04-26T12:20:43.048Z</time></trkpt><trkpt lat="38.038325" lon="15.213875"><ele>357.0</ele><time>2026-04-26T12:20:44.048Z</time></trkpt><trkpt lat="38.038225" lon="15.213935"><ele>357.0</ele><time>2026-04-26T12:20:45.048Z</time></trkpt><trkpt lat="38.03813" lon="15.2139967"><ele>357.0</ele><time>2026-04-26T12:20:46.048Z</time></trkpt><trkpt lat="38.0380333" lon="15.2140567"><ele>357.0</ele><time>2026-04-26T12:20:47.048Z</time></trkpt><trkpt lat="38.0379317" lon="15.214125"><ele>359.40000000000003</ele><time>2026-04-26T12:20:48.048Z</time></trkpt><trkpt lat="38.0378367" lon="15.214195"><ele>361.8</ele><time>2026-04-26T12:20:49.048Z</time></trkpt><trkpt lat="38.0377467" lon="15.214265"><ele>364.2</ele><time>2026-04-26T12:20:50.048Z</time></trkpt><trkpt lat="38.0376617" lon="15.2143283"><ele>366.6</ele><time>2026-04-26T12:20:51.049Z</time></trkpt><trkpt lat="38.03758" lon="15.214385"><ele>369.0</ele><time>2026-04-26T12:20:52.048Z</time></trkpt><trkpt lat="38.0375" lon="15.214425"><ele>368.6666666666667</ele><time>2026-04-26T12:20:53.048Z</time></trkpt><trkpt lat="38.0374217" lon="15.2144533"><ele>368.3333333333333</ele><time>2026-04-26T12:20:54.048Z</time></trkpt><trkpt lat="38.0373367" lon="15.2144517"><ele>368.0</ele><time>2026-04-26T12:20:55.048Z</time></trkpt><trkpt lat="38.037245" lon="15.2144433"><ele>367.66666666666663</ele><time>2026-04-26T12:20:56.048Z</time></trkpt><trkpt lat="38.0371533" lon="15.2144267"><ele>367.3333333333333</ele><time>2026-04-26T12:20:57.048Z</time></trkpt><trkpt lat="38.0370733" lon="15.2144033"><ele>367.0</ele><time>2026-04-26T12:20:58.048Z</time></trkpt><trkpt lat="38.037005" lon="15.2143833"><ele>367.0</ele><time>2026-04-26T12:20:59.049Z</time></trkpt><trkpt lat="38.0369367" lon="15.214365"><ele>367.0</ele><time>2026-04-26T12:21:00.048Z</time></trkpt><trkpt lat="38.0368717" lon="15.2143717"><ele>367.0</ele><time>2026-04-26T12:21:01.048Z</time></trkpt><trkpt lat="38.03679" lon="15.2143667"><ele>367.0</ele><time>2026-04-26T12:21:02.048Z</time></trkpt><trkpt lat="38.036705" lon="15.2143617"><ele>367.0</ele><time>2026-04-26T12:21:03.048Z</time></trkpt><trkpt lat="38.0366183" lon="15.2143517"><ele>367.0</ele><time>2026-04-26T12:21:04.048Z</time></trkpt><trkpt lat="38.0365283" lon="15.21433"><ele>367.0</ele><time>2026-04-26T12:21:05.048Z</time></trkpt><trkpt lat="38.0364317" lon="15.2143"><ele>367.0</ele><time>2026-04-26T12:21:06.048Z</time></trkpt><trkpt lat="38.03634" lon="15.2142833"><ele>367.0</ele><time>2026-04-26T12:21:07.048Z</time></trkpt><trkpt lat="38.0362433" lon="15.2142833"><ele>367.0</ele><time>2026-04-26T12:21:08.048Z</time></trkpt><trkpt lat="38.0361517" lon="15.21431"><ele>367.0</ele><time>2026-04-26T12:21:09.048Z</time></trkpt><trkpt lat="38.0360617" lon="15.2143383"><ele>367.0</ele><time>2026-04-26T12:21:10.048Z</time></trkpt><trkpt lat="38.035965" lon="15.214375"><ele>367.0</ele><time>2026-04-26T12:21:11.048Z</time></trkpt><trkpt lat="38.0358667" lon="15.2144167"><ele>367.0</ele><time>2026-04-26T12:21:12.048Z</time></trkpt><trkpt lat="38.0357767" lon="15.2144567"><ele>367.0</ele><time>2026-04-26T12:21:13.048Z</time></trkpt><trkpt lat="38.0356833" lon="15.2145017"><ele>367.0</ele><time>2026-04-26T12:21:14.048Z</time></trkpt><trkpt lat="38.03559" lon="15.2145417"><ele>367.40000000000003</ele><time>2026-04-26T12:21:15.048Z</time></trkpt><trkpt lat="38.035495" lon="15.214575"><ele>367.8</ele><time>2026-04-26T12:21:16.048Z</time></trkpt><trkpt lat="38.0354" lon="15.214605"><ele>368.2</ele><time>2026-04-26T12:21:17.048Z</time></trkpt><trkpt lat="38.0353017" lon="15.214625"><ele>368.6</ele><time>2026-04-26T12:21:18.048Z</time></trkpt><trkpt lat="38.035205" lon="15.2146417"><ele>369.0</ele><time>2026-04-26T12:21:19.048Z</time></trkpt><trkpt lat="38.035105" lon="15.2146417"><ele>369.0</ele><time>2026-04-26T12:21:20.049Z</time></trkpt><trkpt lat="38.0350083" lon="15.2146167"><ele>369.0</ele><time>2026-04-26T12:21:21.048Z</time></trkpt><trkpt lat="38.03491" lon="15.2145833"><ele>369.0</ele><time>2026-04-26T12:21:22.049Z</time></trkpt><trkpt lat="38.03481" lon="15.2145567"><ele>369.0</ele><time>2026-04-26T12:21:23.048Z</time></trkpt><trkpt lat="38.0347067" lon="15.2145433"><ele>369.0</ele><time>2026-04-26T12:21:24.048Z</time></trkpt><trkpt lat="38.0346067" lon="15.214545"><ele>369.6</ele><time>2026-04-26T12:21:25.048Z</time></trkpt><trkpt lat="38.0345167" lon="15.2145583"><ele>370.2</ele><time>2026-04-26T12:21:26.049Z</time></trkpt><trkpt lat="38.03443" lon="15.2145883"><ele>370.8</ele><time>2026-04-26T12:21:27.048Z</time></trkpt><trkpt lat="38.03435" lon="15.214635"><ele>371.40000000000003</ele><time>2026-04-26T12:21:28.048Z</time></trkpt><trkpt lat="38.0342733" lon="15.2146983"><ele>372.0</ele><time>2026-04-26T12:21:29.048Z</time></trkpt><trkpt lat="38.0342" lon="15.2147783"><ele>373.3333333333333</ele><time>2026-04-26T12:21:30.048Z</time></trkpt><trkpt lat="38.0341317" lon="15.2148617"><ele>374.6666666666667</ele><time>2026-04-26T12:21:31.048Z</time></trkpt><trkpt lat="38.034065" lon="15.2149367"><ele>376.0</ele><time>2026-04-26T12:21:32.048Z</time></trkpt><trkpt lat="38.0339933" lon="15.215005"><ele>377.33333333333337</ele><time>2026-04-26T12:21:33.049Z</time></trkpt><trkpt lat="38.0339283" lon="15.215055"><ele>378.6666666666667</ele><time>2026-04-26T12:21:34.048Z</time></trkpt><trkpt lat="38.0338633" lon="15.215095"><ele>380.0</ele><time>2026-04-26T12:21:35.048Z</time></trkpt><trkpt lat="38.0337533" lon="15.215115"><ele>380.0</ele><time>2026-04-26T12:21:37.048Z</time></trkpt><trkpt lat="38.0336333" lon="15.2151367"><ele>380.0</ele><time>2026-04-26T12:21:39.049Z</time></trkpt><trkpt lat="38.0335767" lon="15.2151717"><ele>380.0</ele><time>2026-04-26T12:21:40.048Z</time></trkpt><trkpt lat="38.033515" lon="15.21522"><ele>380.0</ele><time>2026-04-26T12:21:41.048Z</time></trkpt><trkpt lat="38.03345" lon="15.215265"><ele>380.0</ele><time>2026-04-26T12:21:42.048Z</time></trkpt><trkpt lat="38.03338" lon="15.2152983"><ele>380.0</ele><time>2026-04-26T12:21:43.048Z</time></trkpt><trkpt lat="38.0333033" lon="15.21532"><ele>380.33333333333337</ele><time>2026-04-26T12:21:44.048Z</time></trkpt><trkpt lat="38.0332317" lon="15.2153283"><ele>380.6666666666667</ele><time>2026-04-26T12:21:45.049Z</time></trkpt><trkpt lat="38.033145" lon="15.2153367"><ele>381.0</ele><time>2026-04-26T12:21:46.048Z</time></trkpt><trkpt lat="38.0330567" lon="15.2153433"><ele>381.3333333333333</ele><time>2026-04-26T12:21:47.048Z</time></trkpt><trkpt lat="38.0329667" lon="15.2153567"><ele>381.66666666666663</ele><time>2026-04-26T12:21:48.048Z</time></trkpt><trkpt lat="38.0328733" lon="15.2153683"><ele>382.0</ele><time>2026-04-26T12:21:49.048Z</time></trkpt><trkpt lat="38.03278" lon="15.2153667"><ele>382.0</ele><time>2026-04-26T12:21:50.048Z</time></trkpt><trkpt lat="38.0326917" lon="15.2153567"><ele>382.0</ele><time>2026-04-26T12:21:51.048Z</time></trkpt><trkpt lat="38.0325983" lon="15.2153583"><ele>382.0</ele><time>2026-04-26T12:21:52.049Z</time></trkpt><trkpt lat="38.0325167" lon="15.21538"><ele>382.0</ele><time>2026-04-26T12:21:53.049Z</time></trkpt><trkpt lat="38.0324533" lon="15.2154117"><ele>382.0</ele><time>2026-04-26T12:21:54.048Z</time></trkpt><trkpt lat="38.032395" lon="15.21546"><ele>382.0</ele><time>2026-04-26T12:21:55.047Z</time></trkpt><trkpt lat="38.0323367" lon="15.21552"><ele>382.8</ele><time>2026-04-26T12:21:56.047Z</time></trkpt><trkpt lat="38.032275" lon="15.215585"><ele>383.6</ele><time>2026-04-26T12:21:57.047Z</time></trkpt><trkpt lat="38.0321883" lon="15.2156383"><ele>384.40000000000003</ele><time>2026-04-26T12:21:58.048Z</time></trkpt><trkpt lat="38.032095" lon="15.2156867"><ele>385.20000000000005</ele><time>2026-04-26T12:21:59.048Z</time></trkpt><trkpt lat="38.0319983" lon="15.2157383"><ele>386.0</ele><time>2026-04-26T12:22:00.047Z</time></trkpt><trkpt lat="38.031905" lon="15.2158067"><ele>386.20000000000005</ele><time>2026-04-26T12:22:01.047Z</time></trkpt><trkpt lat="38.031835" lon="15.2158933"><ele>386.40000000000003</ele><time>2026-04-26T12:22:02.047Z</time></trkpt><trkpt lat="38.0317783" lon="15.2159917"><ele>386.6</ele><time>2026-04-26T12:22:03.047Z</time></trkpt><trkpt lat="38.0317217" lon="15.216105"><ele>386.8</ele><time>2026-04-26T12:22:04.047Z</time></trkpt><trkpt lat="38.03166" lon="15.2162217"><ele>387.0</ele><time>2026-04-26T12:22:05.048Z</time></trkpt><trkpt lat="38.0315933" lon="15.2163333"><ele>387.0</ele><time>2026-04-26T12:22:06.047Z</time></trkpt><trkpt lat="38.031525" lon="15.21644"><ele>387.0</ele><time>2026-04-26T12:22:07.047Z</time></trkpt><trkpt lat="38.0314583" lon="15.2165367"><ele>387.0</ele><time>2026-04-26T12:22:08.047Z</time></trkpt><trkpt lat="38.0313933" lon="15.216635"><ele>387.0</ele><time>2026-04-26T12:22:09.048Z</time></trkpt><trkpt lat="38.031335" lon="15.2167283"><ele>387.0</ele><time>2026-04-26T12:22:10.047Z</time></trkpt><trkpt lat="38.0312867" lon="15.2168067"><ele>387.8333333333333</ele><time>2026-04-26T12:22:11.047Z</time></trkpt><trkpt lat="38.0312433" lon="15.216865"><ele>388.66666666666663</ele><time>2026-04-26T12:22:12.047Z</time></trkpt><trkpt lat="38.0311667" lon="15.2169483"><ele>389.5</ele><time>2026-04-26T12:22:14.047Z</time></trkpt><trkpt lat="38.0311317" lon="15.217045"><ele>390.3333333333333</ele><time>2026-04-26T12:22:16.047Z</time></trkpt><trkpt lat="38.0311" lon="15.2171333"><ele>391.16666666666663</ele><time>2026-04-26T12:22:17.047Z</time></trkpt><trkpt lat="38.0310633" lon="15.2172367"><ele>392.0</ele><time>2026-04-26T12:22:18.047Z</time></trkpt><trkpt lat="38.0310233" lon="15.2173367"><ele>393.0</ele><time>2026-04-26T12:22:19.047Z</time></trkpt><trkpt lat="38.0309833" lon="15.2174333"><ele>394.0</ele><time>2026-04-26T12:22:20.047Z</time></trkpt><trkpt lat="38.0309417" lon="15.2175183"><ele>395.0</ele><time>2026-04-26T12:22:21.047Z</time></trkpt><trkpt lat="38.0308783" lon="15.217635"><ele>396.0</ele><time>2026-04-26T12:22:23.047Z</time></trkpt><trkpt lat="38.0308083" lon="15.2177167"><ele>397.0</ele><time>2026-04-26T12:22:25.047Z</time></trkpt><trkpt lat="38.0307667" lon="15.2178083"><ele>397.6</ele><time>2026-04-26T12:22:27.047Z</time></trkpt><trkpt lat="38.0307717" lon="15.2179133"><ele>398.20000000000005</ele><time>2026-04-26T12:22:29.047Z</time></trkpt><trkpt lat="38.0307683" lon="15.2180717"><ele>398.8</ele><time>2026-04-26T12:22:31.047Z</time></trkpt><trkpt lat="38.0307617" lon="15.2181667"><ele>399.4</ele><time>2026-04-26T12:22:32.047Z</time></trkpt><trkpt lat="38.03076" lon="15.2182833"><ele>400.0</ele><time>2026-04-26T12:22:33.047Z</time></trkpt><trkpt lat="38.03076" lon="15.2183933"><ele>400.00000000000006</ele><time>2026-04-26T12:22:34.047Z</time></trkpt><trkpt lat="38.03076" lon="15.2184867"><ele>400.0</ele><time>2026-04-26T12:22:35.048Z</time></trkpt><trkpt lat="38.030725" lon="15.2186317"><ele>400.0</ele><time>2026-04-26T12:22:37.047Z</time></trkpt><trkpt lat="38.0306383" lon="15.218705"><ele>400.0</ele><time>2026-04-26T12:22:39.047Z</time></trkpt><trkpt lat="38.030575" lon="15.2187317"><ele>400.00000000000006</ele><time>2026-04-26T12:22:40.047Z</time></trkpt><trkpt lat="38.0304967" lon="15.2187617"><ele>400.0</ele><time>2026-04-26T12:22:41.047Z</time></trkpt><trkpt lat="38.030405" lon="15.21877"><ele>400.00000000000006</ele><time>2026-04-26T12:22:42.047Z</time></trkpt><trkpt lat="38.0303133" lon="15.2187667"><ele>400.0</ele><time>2026-04-26T12:22:43.047Z</time></trkpt><trkpt lat="38.0302333" lon="15.2187683"><ele>400.0</ele><time>2026-04-26T12:22:44.047Z</time></trkpt><trkpt lat="38.030165" lon="15.2187867"><ele>400.0</ele><time>2026-04-26T12:22:45.047Z</time></trkpt><trkpt lat="38.0300867" lon="15.218865"><ele>400.00000000000006</ele><time>2026-04-26T12:22:47.047Z</time></trkpt><trkpt lat="38.0301167" lon="15.2189883"><ele>400.0</ele><time>2026-04-26T12:22:49.047Z</time></trkpt><trkpt lat="38.0301933" lon="15.2190317"><ele>400.6666666666667</ele><time>2026-04-26T12:22:51.047Z</time></trkpt><trkpt lat="38.030265" lon="15.2190433"><ele>401.33333333333337</ele><time>2026-04-26T12:22:52.047Z</time></trkpt><trkpt lat="38.0303417" lon="15.2190733"><ele>402.0</ele><time>2026-04-26T12:22:53.047Z</time></trkpt><trkpt lat="38.0304067" lon="15.219115"><ele>402.66666666666663</ele><time>2026-04-26T12:22:54.047Z</time></trkpt><trkpt lat="38.0304683" lon="15.21917"><ele>403.3333333333333</ele><time>2026-04-26T12:22:55.047Z</time></trkpt><trkpt lat="38.0305367" lon="15.2192467"><ele>404.0</ele><time>2026-04-26T12:22:56.047Z</time></trkpt><trkpt lat="38.0306083" lon="15.2193333"><ele>404.0</ele><time>2026-04-26T12:22:57.048Z</time></trkpt><trkpt lat="38.030665" lon="15.2194067"><ele>404.0</ele><time>2026-04-26T12:22:58.047Z</time></trkpt><trkpt lat="38.0307033" lon="15.2194817"><ele>404.0</ele><time>2026-04-26T12:22:59.047Z</time></trkpt><trkpt lat="38.0307583" lon="15.2196133"><ele>404.0</ele><time>2026-04-26T12:23:01.048Z</time></trkpt><trkpt lat="38.0308333" lon="15.2197417"><ele>404.0</ele><time>2026-04-26T12:23:03.047Z</time></trkpt><trkpt lat="38.0308833" lon="15.21982"><ele>406.7142857142857</ele><time>2026-04-26T12:23:04.047Z</time></trkpt><trkpt lat="38.0309417" lon="15.2198917"><ele>409.42857142857144</ele><time>2026-04-26T12:23:05.047Z</time></trkpt><trkpt lat="38.0310017" lon="15.21994"><ele>412.1428571428571</ele><time>2026-04-26T12:23:06.047Z</time></trkpt><trkpt lat="38.0310733" lon="15.2199717"><ele>414.8571428571429</ele><time>2026-04-26T12:23:07.047Z</time></trkpt><trkpt lat="38.031145" lon="15.219975"><ele>417.5714285714286</ele><time>2026-04-26T12:23:08.047Z</time></trkpt><trkpt lat="38.0312117" lon="15.2199617"><ele>420.2857142857143</ele><time>2026-04-26T12:23:09.048Z</time></trkpt><trkpt lat="38.0312867" lon="15.2199467"><ele>423.0</ele><time>2026-04-26T12:23:10.047Z</time></trkpt><trkpt lat="38.0313783" lon="15.2199133"><ele>423.0</ele><time>2026-04-26T12:23:11.047Z</time></trkpt><trkpt lat="38.0314567" lon="15.2198833"><ele>423.0</ele><time>2026-04-26T12:23:12.047Z</time></trkpt><trkpt lat="38.03152" lon="15.2198733"><ele>423.0</ele><time>2026-04-26T12:23:13.048Z</time></trkpt><trkpt lat="38.0315883" lon="15.21993"><ele>423.0</ele><time>2026-04-26T12:23:16.047Z</time></trkpt><trkpt lat="38.0316067" lon="15.2200317"><ele>423.0</ele><time>2026-04-26T12:23:18.047Z</time></trkpt><trkpt lat="38.03163" lon="15.2201483"><ele>423.0</ele><time>2026-04-26T12:23:20.047Z</time></trkpt><trkpt lat="38.03168" lon="15.2202417"><ele>423.0</ele><time>2026-04-26T12:23:22.047Z</time></trkpt><trkpt lat="38.0317283" lon="15.2202983"><ele>423.0</ele><time>2026-04-26T12:23:24.047Z</time></trkpt><trkpt lat="38.0317917" lon="15.22035"><ele>423.0</ele><time>2026-04-26T12:24:04.047Z</time></trkpt><trkpt lat="38.031785" lon="15.2204533"><ele>423.0</ele><time>2026-04-26T12:24:27.047Z</time></trkpt><trkpt lat="38.0317" lon="15.220495"><ele>423.0</ele><time>2026-04-26T12:24:29.047Z</time></trkpt><trkpt lat="38.0316017" lon="15.2205267"><ele>423.0</ele><time>2026-04-26T12:24:31.048Z</time></trkpt><trkpt lat="38.0315133" lon="15.220545"><ele>423.0</ele><time>2026-04-26T12:24:33.047Z</time></trkpt><trkpt lat="38.031425" lon="15.22055"><ele>423.0</ele><time>2026-04-26T12:24:35.047Z</time></trkpt><trkpt lat="38.0313183" lon="15.2205683"><ele>423.0</ele><time>2026-04-26T12:24:37.047Z</time></trkpt><trkpt lat="38.0312283" lon="15.22062"><ele>423.0</ele><time>2026-04-26T12:24:39.047Z</time></trkpt><trkpt lat="38.0311317" lon="15.2206383"><ele>423.0</ele><time>2026-04-26T12:24:41.047Z</time></trkpt><trkpt lat="38.0310233" lon="15.2206033"><ele>423.0</ele><time>2026-04-26T12:24:43.047Z</time></trkpt><trkpt lat="38.0309583" lon="15.220595"><ele>423.0</ele><time>2026-04-26T12:24:45.047Z</time></trkpt><trkpt lat="38.0310033" lon="15.2206617"><ele>423.0</ele><time>2026-04-26T12:24:56.048Z</time></trkpt><trkpt lat="38.031085" lon="15.220725"><ele>423.0</ele><time>2026-04-26T12:24:58.047Z</time></trkpt><trkpt lat="38.03114" lon="15.220765"><ele>423.0</ele><time>2026-04-26T12:24:59.047Z</time></trkpt><trkpt lat="38.0312033" lon="15.22079"><ele>423.0</ele><time>2026-04-26T12:25:00.047Z</time></trkpt><trkpt lat="38.0312717" lon="15.2208067"><ele>423.0</ele><time>2026-04-26T12:25:01.047Z</time></trkpt><trkpt lat="38.0313467" lon="15.220825"><ele>428.6666666666667</ele><time>2026-04-26T12:25:02.047Z</time></trkpt><trkpt lat="38.0314183" lon="15.2208417"><ele>434.33333333333337</ele><time>2026-04-26T12:25:03.047Z</time></trkpt><trkpt lat="38.0314833" lon="15.22086"><ele>440.0</ele><time>2026-04-26T12:25:04.047Z</time></trkpt><trkpt lat="38.0315517" lon="15.2208617"><ele>445.6666666666667</ele><time>2026-04-26T12:25:05.047Z</time></trkpt><trkpt lat="38.031655" lon="15.2208983"><ele>451.33333333333337</ele><time>2026-04-26T12:25:07.047Z</time></trkpt><trkpt lat="38.0317217" lon="15.2210433"><ele>457.0</ele><time>2026-04-26T12:25:09.048Z</time></trkpt><trkpt lat="38.031735" lon="15.2211283"><ele>457.00000000000006</ele><time>2026-04-26T12:25:10.047Z</time></trkpt><trkpt lat="38.0317317" lon="15.2212233"><ele>457.0</ele><time>2026-04-26T12:25:11.048Z</time></trkpt><trkpt lat="38.03172" lon="15.2213417"><ele>457.0</ele><time>2026-04-26T12:25:12.047Z</time></trkpt><trkpt lat="38.031715" lon="15.2214633"><ele>457.0</ele><time>2026-04-26T12:25:13.047Z</time></trkpt><trkpt lat="38.0317117" lon="15.221585"><ele>457.00000000000006</ele><time>2026-04-26T12:25:14.047Z</time></trkpt><trkpt lat="38.0316967" lon="15.221675"><ele>457.0</ele><time>2026-04-26T12:25:15.048Z</time></trkpt><trkpt lat="38.0316617" lon="15.2217433"><ele>463.6</ele><time>2026-04-26T12:25:16.047Z</time></trkpt><trkpt lat="38.03159" lon="15.2218517"><ele>470.20000000000005</ele><time>2026-04-26T12:25:18.047Z</time></trkpt><trkpt lat="38.0315283" lon="15.2218733"><ele>476.8</ele><time>2026-04-26T12:25:20.047Z</time></trkpt><trkpt lat="38.0315117" lon="15.2217883"><ele>483.4</ele><time>2026-04-26T12:25:22.047Z</time></trkpt><trkpt lat="38.031545" lon="15.2216367"><ele>490.0</ele><time>2026-04-26T12:25:24.047Z</time></trkpt><trkpt lat="38.0315133" lon="15.2215083"><ele>483.8</ele><time>2026-04-26T12:25:26.047Z</time></trkpt><trkpt lat="38.03149" lon="15.2214333"><ele>477.6</ele><time>2026-04-26T12:25:49.047Z</time></trkpt><trkpt lat="38.031415" lon="15.2213367"><ele>471.4</ele><time>2026-04-26T12:25:51.047Z</time></trkpt><trkpt lat="38.0313133" lon="15.2212733"><ele>465.2</ele><time>2026-04-26T12:25:53.047Z</time></trkpt><trkpt lat="38.0311917" lon="15.2212583"><ele>459.0</ele><time>2026-04-26T12:25:55.047Z</time></trkpt><trkpt lat="38.0310767" lon="15.22127"><ele>459.0</ele><time>2026-04-26T12:25:57.047Z</time></trkpt><trkpt lat="38.0310183" lon="15.2213083"><ele>459.0</ele><time>2026-04-26T12:25:59.047Z</time></trkpt><trkpt lat="38.0310467" lon="15.22139"><ele>459.0</ele><time>2026-04-26T12:26:01.047Z</time></trkpt><trkpt lat="38.031105" lon="15.2214233"><ele>459.0</ele><time>2026-04-26T12:26:02.047Z</time></trkpt><trkpt lat="38.0312117" lon="15.2214917"><ele>459.0</ele><time>2026-04-26T12:26:04.047Z</time></trkpt><trkpt lat="38.03125" lon="15.2215583"><ele>459.0</ele><time>2026-04-26T12:26:05.047Z</time></trkpt><trkpt lat="38.0312667" lon="15.2216417"><ele>465.2</ele><time>2026-04-26T12:26:06.047Z</time></trkpt><trkpt lat="38.0312467" lon="15.2217917"><ele>471.4</ele><time>2026-04-26T12:26:08.047Z</time></trkpt><trkpt lat="38.031215" lon="15.2218633"><ele>477.6</ele><time>2026-04-26T12:26:09.047Z</time></trkpt><trkpt lat="38.0311783" lon="15.2219533"><ele>483.8</ele><time>2026-04-26T12:26:10.047Z</time></trkpt><trkpt lat="38.0311267" lon="15.2220583"><ele>490.0</ele><time>2026-04-26T12:26:11.047Z</time></trkpt><trkpt lat="38.031085" lon="15.2221683"><ele>490.0</ele><time>2026-04-26T12:26:12.047Z</time></trkpt><trkpt lat="38.0310433" lon="15.2222783"><ele>490.0</ele><time>2026-04-26T12:26:13.047Z</time></trkpt><trkpt lat="38.031005" lon="15.2224083"><ele>490.0</ele><time>2026-04-26T12:26:14.047Z</time></trkpt><trkpt lat="38.0309767" lon="15.222525"><ele>490.0</ele><time>2026-04-26T12:26:15.047Z</time></trkpt><trkpt lat="38.030955" lon="15.22264"><ele>490.0</ele><time>2026-04-26T12:26:16.047Z</time></trkpt><trkpt lat="38.0309383" lon="15.2227417"><ele>493.83333333333337</ele><time>2026-04-26T12:26:17.047Z</time></trkpt><trkpt lat="38.0309217" lon="15.2228317"><ele>497.6666666666667</ele><time>2026-04-26T12:26:18.047Z</time></trkpt><trkpt lat="38.030905" lon="15.2229733"><ele>501.5</ele><time>2026-04-26T12:26:20.047Z</time></trkpt><trkpt lat="38.030865" lon="15.22305"><ele>505.33333333333337</ele><time>2026-04-26T12:26:22.047Z</time></trkpt><trkpt lat="38.0308167" lon="15.2229267"><ele>509.1666666666667</ele><time>2026-04-26T12:26:25.047Z</time></trkpt><trkpt lat="38.0308283" lon="15.2228367"><ele>513.0</ele><time>2026-04-26T12:26:26.047Z</time></trkpt><trkpt lat="38.0308417" lon="15.2227367"><ele>513.0</ele><time>2026-04-26T12:26:27.047Z</time></trkpt><trkpt lat="38.0308433" lon="15.222645"><ele>513.0</ele><time>2026-04-26T12:26:28.047Z</time></trkpt><trkpt lat="38.0308383" lon="15.222565"><ele>513.0</ele><time>2026-04-26T12:26:29.048Z</time></trkpt><trkpt lat="38.0308283" lon="15.222475"><ele>513.0</ele><time>2026-04-26T12:26:30.047Z</time></trkpt><trkpt lat="38.0308117" lon="15.2223967"><ele>513.0</ele><time>2026-04-26T12:26:31.047Z</time></trkpt><trkpt lat="38.0307167" lon="15.2223217"><ele>513.0</ele><time>2026-04-26T12:26:33.047Z</time></trkpt><trkpt lat="38.0306467" lon="15.2223317"><ele>514.8333333333334</ele><time>2026-04-26T12:26:34.047Z</time></trkpt><trkpt lat="38.03058" lon="15.2223633"><ele>516.6666666666666</ele><time>2026-04-26T12:26:35.047Z</time></trkpt><trkpt lat="38.0305167" lon="15.222445"><ele>518.5</ele><time>2026-04-26T12:26:37.048Z</time></trkpt><trkpt lat="38.0305417" lon="15.2225767"><ele>520.3333333333333</ele><time>2026-04-26T12:26:39.047Z</time></trkpt><trkpt lat="38.0305933" lon="15.2226383"><ele>522.1666666666666</ele><time>2026-04-26T12:26:40.047Z</time></trkpt><trkpt lat="38.0306267" lon="15.222715"><ele>524.0</ele><time>2026-04-26T12:26:41.047Z</time></trkpt><trkpt lat="38.0306433" lon="15.22281"><ele>524.0</ele><time>2026-04-26T12:26:42.047Z</time></trkpt><trkpt lat="38.0306167" lon="15.222995"><ele>524.0</ele><time>2026-04-26T12:26:44.047Z</time></trkpt><trkpt lat="38.030605" lon="15.22311"><ele>524.0</ele><time>2026-04-26T12:26:45.047Z</time></trkpt><trkpt lat="38.0306" lon="15.2232517"><ele>524.0</ele><time>2026-04-26T12:26:46.047Z</time></trkpt><trkpt lat="38.0306083" lon="15.22339"><ele>530.1666666666666</ele><time>2026-04-26T12:26:47.047Z</time></trkpt><trkpt lat="38.03061" lon="15.2235183"><ele>536.3333333333333</ele><time>2026-04-26T12:26:48.047Z</time></trkpt><trkpt lat="38.0306083" lon="15.2236217"><ele>542.5</ele><time>2026-04-26T12:26:49.047Z</time></trkpt><trkpt lat="38.0306167" lon="15.2237233"><ele>548.6666666666666</ele><time>2026-04-26T12:26:50.047Z</time></trkpt><trkpt lat="38.0306083" lon="15.2238233"><ele>554.8333333333334</ele><time>2026-04-26T12:26:51.047Z</time></trkpt><trkpt lat="38.0305833" lon="15.2239183"><ele>561.0</ele><time>2026-04-26T12:26:52.047Z</time></trkpt><trkpt lat="38.03055" lon="15.2240067"><ele>563.0</ele><time>2026-04-26T12:26:53.047Z</time></trkpt><trkpt lat="38.030505" lon="15.2240817"><ele>565.0</ele><time>2026-04-26T12:26:54.047Z</time></trkpt><trkpt lat="38.030455" lon="15.2241583"><ele>567.0</ele><time>2026-04-26T12:26:55.047Z</time></trkpt><trkpt lat="38.0303883" lon="15.224235"><ele>569.0</ele><time>2026-04-26T12:26:56.047Z</time></trkpt><trkpt lat="38.030315" lon="15.2243033"><ele>571.0</ele><time>2026-04-26T12:26:57.047Z</time></trkpt><trkpt lat="38.0302217" lon="15.2243867"><ele>573.0</ele><time>2026-04-26T12:26:58.047Z</time></trkpt><trkpt lat="38.03013" lon="15.2244933"><ele>573.0</ele><time>2026-04-26T12:26:59.047Z</time></trkpt><trkpt lat="38.0300517" lon="15.2246133"><ele>573.0</ele><time>2026-04-26T12:27:00.047Z</time></trkpt><trkpt lat="38.0299867" lon="15.2247317"><ele>573.0</ele><time>2026-04-26T12:27:01.047Z</time></trkpt><trkpt lat="38.0299333" lon="15.2248467"><ele>573.0</ele><time>2026-04-26T12:27:02.047Z</time></trkpt><trkpt lat="38.0298767" lon="15.2249483"><ele>573.0</ele><time>2026-04-26T12:27:03.047Z</time></trkpt><trkpt lat="38.029835" lon="15.2250567"><ele>578.6666666666666</ele><time>2026-04-26T12:27:04.047Z</time></trkpt><trkpt lat="38.0298083" lon="15.2251733"><ele>584.3333333333334</ele><time>2026-04-26T12:27:05.047Z</time></trkpt><trkpt lat="38.0297883" lon="15.2252933"><ele>590.0</ele><time>2026-04-26T12:27:06.047Z</time></trkpt><trkpt lat="38.0297833" lon="15.225395"><ele>595.6666666666667</ele><time>2026-04-26T12:27:07.047Z</time></trkpt><trkpt lat="38.02979" lon="15.22549"><ele>601.3333333333334</ele><time>2026-04-26T12:27:08.047Z</time></trkpt><trkpt lat="38.0297733" lon="15.2255683"><ele>607.0</ele><time>2026-04-26T12:27:09.047Z</time></trkpt><trkpt lat="38.029675" lon="15.22563"><ele>608.2</ele><time>2026-04-26T12:27:11.047Z</time></trkpt><trkpt lat="38.029595" lon="15.225745"><ele>609.4000000000001</ele><time>2026-04-26T12:27:13.048Z</time></trkpt><trkpt lat="38.0295717" lon="15.225825"><ele>610.5999999999999</ele><time>2026-04-26T12:27:14.047Z</time></trkpt><trkpt lat="38.0295767" lon="15.2259717"><ele>611.8</ele><time>2026-04-26T12:27:16.048Z</time></trkpt><trkpt lat="38.029655" lon="15.2260433"><ele>613.0</ele><time>2026-04-26T12:27:17.047Z</time></trkpt><trkpt lat="38.02974" lon="15.2261083"><ele>613.0</ele><time>2026-04-26T12:27:18.047Z</time></trkpt><trkpt lat="38.0298183" lon="15.2261933"><ele>613.0</ele><time>2026-04-26T12:27:19.047Z</time></trkpt><trkpt lat="38.0298783" lon="15.2262817"><ele>613.0</ele><time>2026-04-26T12:27:20.048Z</time></trkpt><trkpt lat="38.0299233" lon="15.226365"><ele>613.0</ele><time>2026-04-26T12:27:21.047Z</time></trkpt><trkpt lat="38.0299583" lon="15.226445"><ele>613.0</ele><time>2026-04-26T12:27:22.047Z</time></trkpt><trkpt lat="38.0299933" lon="15.2265317"><ele>613.0</ele><time>2026-04-26T12:27:23.047Z</time></trkpt><trkpt lat="38.0300317" lon="15.2266033"><ele>609.4285714285714</ele><time>2026-04-26T12:27:24.047Z</time></trkpt><trkpt lat="38.0300817" lon="15.2266583"><ele>605.8571428571429</ele><time>2026-04-26T12:27:25.047Z</time></trkpt><trkpt lat="38.0301433" lon="15.2267067"><ele>602.2857142857142</ele><time>2026-04-26T12:27:26.048Z</time></trkpt><trkpt lat="38.0301983" lon="15.22676"><ele>598.7142857142858</ele><time>2026-04-26T12:27:27.047Z</time></trkpt><trkpt lat="38.0302533" lon="15.2268267"><ele>595.1428571428571</ele><time>2026-04-26T12:27:28.047Z</time></trkpt><trkpt lat="38.030305" lon="15.2269017"><ele>591.5714285714286</ele><time>2026-04-26T12:27:29.048Z</time></trkpt><trkpt lat="38.0303417" lon="15.22698"><ele>588.0</ele><time>2026-04-26T12:27:30.047Z</time></trkpt><trkpt lat="38.030385" lon="15.2270667"><ele>588.0</ele><time>2026-04-26T12:27:31.047Z</time></trkpt><trkpt lat="38.0304317" lon="15.2271617"><ele>588.0</ele><time>2026-04-26T12:27:32.047Z</time></trkpt><trkpt lat="38.0304817" lon="15.2272633"><ele>588.0</ele><time>2026-04-26T12:27:33.047Z</time></trkpt><trkpt lat="38.0305467" lon="15.2273533"><ele>588.0</ele><time>2026-04-26T12:27:34.047Z</time></trkpt><trkpt lat="38.0306183" lon="15.2274383"><ele>588.0</ele><time>2026-04-26T12:27:35.047Z</time></trkpt><trkpt lat="38.0306817" lon="15.2275283"><ele>588.1666666666666</ele><time>2026-04-26T12:27:36.047Z</time></trkpt><trkpt lat="38.030745" lon="15.227615"><ele>588.3333333333334</ele><time>2026-04-26T12:27:37.047Z</time></trkpt><trkpt lat="38.0308133" lon="15.2276967"><ele>588.5</ele><time>2026-04-26T12:27:38.047Z</time></trkpt><trkpt lat="38.0308733" lon="15.2277733"><ele>588.6666666666667</ele><time>2026-04-26T12:27:39.047Z</time></trkpt><trkpt lat="38.0309283" lon="15.2278567"><ele>588.8333333333334</ele><time>2026-04-26T12:27:40.047Z</time></trkpt><trkpt lat="38.0309833" lon="15.2279383"><ele>589.0</ele><time>2026-04-26T12:27:41.047Z</time></trkpt><trkpt lat="38.0310367" lon="15.22802"><ele>589.0</ele><time>2026-04-26T12:27:42.047Z</time></trkpt><trkpt lat="38.0311183" lon="15.22811"><ele>589.0</ele><time>2026-04-26T12:27:44.047Z</time></trkpt><trkpt lat="38.0310283" lon="15.22813"><ele>589.0</ele><time>2026-04-26T12:27:48.047Z</time></trkpt><trkpt lat="38.0309683" lon="15.2280933"><ele>589.0</ele><time>2026-04-26T12:27:49.047Z</time></trkpt><trkpt lat="38.0309" lon="15.2280433"><ele>589.0</ele><time>2026-04-26T12:27:50.047Z</time></trkpt><trkpt lat="38.03082" lon="15.2279817"><ele>589.0</ele><time>2026-04-26T12:27:51.048Z</time></trkpt><trkpt lat="38.0307167" lon="15.22792"><ele>594.6</ele><time>2026-04-26T12:27:52.047Z</time></trkpt><trkpt lat="38.0306233" lon="15.22787"><ele>600.2</ele><time>2026-04-26T12:27:53.047Z</time></trkpt><trkpt lat="38.03053" lon="15.2278133"><ele>605.8000000000001</ele><time>2026-04-26T12:27:54.047Z</time></trkpt><trkpt lat="38.03044" lon="15.22775"><ele>611.4</ele><time>2026-04-26T12:27:55.047Z</time></trkpt><trkpt lat="38.030365" lon="15.2277"><ele>617.0</ele><time>2026-04-26T12:27:56.047Z</time></trkpt><trkpt lat="38.0302867" lon="15.22768"><ele>617.0</ele><time>2026-04-26T12:27:58.047Z</time></trkpt><trkpt lat="38.030315" lon="15.2277667"><ele>617.0</ele><time>2026-04-26T12:28:23.046Z</time></trkpt><trkpt lat="38.0303983" lon="15.2278367"><ele>617.0</ele><time>2026-04-26T12:28:25.046Z</time></trkpt><trkpt lat="38.0304917" lon="15.227915"><ele>617.0</ele><time>2026-04-26T12:28:27.046Z</time></trkpt><trkpt lat="38.0305467" lon="15.227965"><ele>617.0</ele><time>2026-04-26T12:28:28.046Z</time></trkpt><trkpt lat="38.0306083" lon="15.2280367"><ele>617.0</ele><time>2026-04-26T12:28:29.046Z</time></trkpt><trkpt lat="38.0306683" lon="15.22812"><ele>617.6</ele><time>2026-04-26T12:28:30.046Z</time></trkpt><trkpt lat="38.030725" lon="15.2281933"><ele>618.2</ele><time>2026-04-26T12:28:31.046Z</time></trkpt><trkpt lat="38.0307933" lon="15.2282667"><ele>618.8</ele><time>2026-04-26T12:28:32.046Z</time></trkpt><trkpt lat="38.0308717" lon="15.2283517"><ele>619.4</ele><time>2026-04-26T12:28:33.046Z</time></trkpt><trkpt lat="38.030945" lon="15.2284383"><ele>620.0</ele><time>2026-04-26T12:28:34.046Z</time></trkpt><trkpt lat="38.0310133" lon="15.2285183"><ele>620.0</ele><time>2026-04-26T12:28:35.046Z</time></trkpt><trkpt lat="38.031085" lon="15.22858"><ele>620.0</ele><time>2026-04-26T12:28:36.046Z</time></trkpt><trkpt lat="38.0311583" lon="15.2286417"><ele>620.0</ele><time>2026-04-26T12:28:37.046Z</time></trkpt><trkpt lat="38.0312167" lon="15.228685"><ele>620.0</ele><time>2026-04-26T12:28:38.046Z</time></trkpt><trkpt lat="38.0312833" lon="15.2287617"><ele>620.0</ele><time>2026-04-26T12:28:40.046Z</time></trkpt><trkpt lat="38.0312183" lon="15.22881"><ele>620.0</ele><time>2026-04-26T12:28:44.046Z</time></trkpt><trkpt lat="38.0311533" lon="15.2287467"><ele>620.0</ele><time>2026-04-26T12:28:46.046Z</time></trkpt><trkpt lat="38.031055" lon="15.2286917"><ele>620.0</ele><time>2026-04-26T12:28:48.046Z</time></trkpt><trkpt lat="38.0309883" lon="15.2286667"><ele>620.0</ele><time>2026-04-26T12:28:49.047Z</time></trkpt><trkpt lat="38.030915" lon="15.22863"><ele>620.0</ele><time>2026-04-26T12:28:50.046Z</time></trkpt><trkpt lat="38.0308283" lon="15.2285883"><ele>620.0</ele><time>2026-04-26T12:28:51.046Z</time></trkpt><trkpt lat="38.0307367" lon="15.2285267"><ele>625.1666666666666</ele><time>2026-04-26T12:28:52.046Z</time></trkpt><trkpt lat="38.0306567" lon="15.2284767"><ele>630.3333333333333</ele><time>2026-04-26T12:28:53.046Z</time></trkpt><trkpt lat="38.0305767" lon="15.2284333"><ele>635.5</ele><time>2026-04-26T12:28:54.046Z</time></trkpt><trkpt lat="38.0305" lon="15.2284033"><ele>640.6666666666666</ele><time>2026-04-26T12:28:55.046Z</time></trkpt><trkpt lat="38.030415" lon="15.228385"><ele>645.8333333333334</ele><time>2026-04-26T12:28:56.046Z</time></trkpt><trkpt lat="38.030315" lon="15.228365"><ele>651.0</ele><time>2026-04-26T12:28:57.046Z</time></trkpt><trkpt lat="38.0302167" lon="15.228355"><ele>651.0</ele><time>2026-04-26T12:28:58.046Z</time></trkpt><trkpt lat="38.030125" lon="15.2283383"><ele>651.0</ele><time>2026-04-26T12:28:59.046Z</time></trkpt><trkpt lat="38.0300317" lon="15.2283217"><ele>651.0</ele><time>2026-04-26T12:29:00.047Z</time></trkpt><trkpt lat="38.0299417" lon="15.2282917"><ele>651.0</ele><time>2026-04-26T12:29:01.046Z</time></trkpt><trkpt lat="38.0298533" lon="15.2282517"><ele>651.0</ele><time>2026-04-26T12:29:02.046Z</time></trkpt><trkpt lat="38.0297817" lon="15.2282117"><ele>651.8</ele><time>2026-04-26T12:29:03.046Z</time></trkpt><trkpt lat="38.02971" lon="15.2281583"><ele>652.5999999999999</ele><time>2026-04-26T12:29:04.046Z</time></trkpt><trkpt lat="38.0296117" lon="15.2280533"><ele>653.4</ele><time>2026-04-26T12:29:05.046Z</time></trkpt><trkpt lat="38.0295283" lon="15.2279467"><ele>654.2</ele><time>2026-04-26T12:29:06.046Z</time></trkpt><trkpt lat="38.0294533" lon="15.2278533"><ele>655.0</ele><time>2026-04-26T12:29:07.047Z</time></trkpt><trkpt lat="38.029375" lon="15.2277767"><ele>655.0</ele><time>2026-04-26T12:29:08.047Z</time></trkpt><trkpt lat="38.0292883" lon="15.227715"><ele>655.0</ele><time>2026-04-26T12:29:09.046Z</time></trkpt><trkpt lat="38.029195" lon="15.2276983"><ele>655.0</ele><time>2026-04-26T12:29:10.046Z</time></trkpt><trkpt lat="38.029095" lon="15.2276833"><ele>655.0</ele><time>2026-04-26T12:29:11.046Z</time></trkpt><trkpt lat="38.0290033" lon="15.227645"><ele>655.0</ele><time>2026-04-26T12:29:12.047Z</time></trkpt><trkpt lat="38.0289183" lon="15.2275917"><ele>658.6</ele><time>2026-04-26T12:29:13.046Z</time></trkpt><trkpt lat="38.0288583" lon="15.2275233"><ele>662.2</ele><time>2026-04-26T12:29:14.046Z</time></trkpt><trkpt lat="38.0287983" lon="15.2274217"><ele>665.8</ele><time>2026-04-26T12:29:15.046Z</time></trkpt><trkpt lat="38.0287517" lon="15.2273167"><ele>669.4</ele><time>2026-04-26T12:29:16.046Z</time></trkpt><trkpt lat="38.0286817" lon="15.2272017"><ele>673.0</ele><time>2026-04-26T12:29:17.046Z</time></trkpt><trkpt lat="38.02863" lon="15.227085"><ele>673.0</ele><time>2026-04-26T12:29:18.047Z</time></trkpt><trkpt lat="38.02858" lon="15.226965"><ele>673.0</ele><time>2026-04-26T12:29:19.046Z</time></trkpt><trkpt lat="38.0285117" lon="15.2268633"><ele>673.0</ele><time>2026-04-26T12:29:20.046Z</time></trkpt><trkpt lat="38.0284467" lon="15.2267867"><ele>673.0</ele><time>2026-04-26T12:29:21.046Z</time></trkpt><trkpt lat="38.028375" lon="15.2267433"><ele>673.0</ele><time>2026-04-26T12:29:22.046Z</time></trkpt><trkpt lat="38.0283067" lon="15.2267317"><ele>673.0</ele><time>2026-04-26T12:29:23.046Z</time></trkpt><trkpt lat="38.02823" lon="15.22673"><ele>672.1666666666667</ele><time>2026-04-26T12:29:24.046Z</time></trkpt><trkpt lat="38.0281483" lon="15.2267567"><ele>671.3333333333334</ele><time>2026-04-26T12:29:25.046Z</time></trkpt><trkpt lat="38.02806" lon="15.226815"><ele>670.5</ele><time>2026-04-26T12:29:26.046Z</time></trkpt><trkpt lat="38.02799" lon="15.226885"><ele>669.6666666666666</ele><time>2026-04-26T12:29:27.046Z</time></trkpt><trkpt lat="38.02792" lon="15.2269283"><ele>668.8333333333333</ele><time>2026-04-26T12:29:28.046Z</time></trkpt><trkpt lat="38.0278383" lon="15.2269467"><ele>668.0</ele><time>2026-04-26T12:29:29.046Z</time></trkpt><trkpt lat="38.0277533" lon="15.2269483"><ele>668.0</ele><time>2026-04-26T12:29:30.046Z</time></trkpt><trkpt lat="38.0276633" lon="15.2269617"><ele>668.0</ele><time>2026-04-26T12:29:31.046Z</time></trkpt><trkpt lat="38.0275817" lon="15.227"><ele>668.0</ele><time>2026-04-26T12:29:32.046Z</time></trkpt><trkpt lat="38.0275067" lon="15.2270683"><ele>668.0</ele><time>2026-04-26T12:29:33.046Z</time></trkpt><trkpt lat="38.02745" lon="15.2271483"><ele>668.0</ele><time>2026-04-26T12:29:34.046Z</time></trkpt><trkpt lat="38.027395" lon="15.22725"><ele>672.25</ele><time>2026-04-26T12:29:35.046Z</time></trkpt><trkpt lat="38.0273483" lon="15.227375"><ele>676.5</ele><time>2026-04-26T12:29:36.046Z</time></trkpt><trkpt lat="38.0272867" lon="15.22751"><ele>680.75</ele><time>2026-04-26T12:29:37.046Z</time></trkpt><trkpt lat="38.027205" lon="15.2276367"><ele>685.0</ele><time>2026-04-26T12:29:38.046Z</time></trkpt><trkpt lat="38.0271133" lon="15.2277267"><ele>685.0</ele><time>2026-04-26T12:29:39.046Z</time></trkpt><trkpt lat="38.0270133" lon="15.22778"><ele>685.0</ele><time>2026-04-26T12:29:40.046Z</time></trkpt><trkpt lat="38.0269033" lon="15.227815"><ele>685.0</ele><time>2026-04-26T12:29:41.046Z</time></trkpt><trkpt lat="38.0267933" lon="15.2278367"><ele>685.0</ele><time>2026-04-26T12:29:42.046Z</time></trkpt><trkpt lat="38.0266883" lon="15.2278783"><ele>685.0</ele><time>2026-04-26T12:29:43.046Z</time></trkpt><trkpt lat="38.0265933" lon="15.2279383"><ele>680.5</ele><time>2026-04-26T12:29:44.046Z</time></trkpt><trkpt lat="38.0265033" lon="15.2280067"><ele>676.0</ele><time>2026-04-26T12:29:45.046Z</time></trkpt><trkpt lat="38.0264067" lon="15.2281033"><ele>671.5</ele><time>2026-04-26T12:29:46.047Z</time></trkpt><trkpt lat="38.0262983" lon="15.22819"><ele>667.0</ele><time>2026-04-26T12:29:47.046Z</time></trkpt><trkpt lat="38.0261833" lon="15.22829"><ele>674.8</ele><time>2026-04-26T12:29:48.046Z</time></trkpt><trkpt lat="38.0260867" lon="15.2283817"><ele>682.6</ele><time>2026-04-26T12:29:49.046Z</time></trkpt><trkpt lat="38.02601" lon="15.2284667"><ele>690.4</ele><time>2026-04-26T12:29:50.046Z</time></trkpt><trkpt lat="38.02594" lon="15.228545"><ele>698.1999999999999</ele><time>2026-04-26T12:29:51.046Z</time></trkpt><trkpt lat="38.0258667" lon="15.228595"><ele>706.0</ele><time>2026-04-26T12:29:52.047Z</time></trkpt><trkpt lat="38.025795" lon="15.2286283"><ele>707.4</ele><time>2026-04-26T12:29:53.046Z</time></trkpt><trkpt lat="38.0256967" lon="15.22864"><ele>708.8</ele><time>2026-04-26T12:29:54.046Z</time></trkpt><trkpt lat="38.0256067" lon="15.228645"><ele>710.1999999999999</ele><time>2026-04-26T12:29:55.047Z</time></trkpt><trkpt lat="38.0255203" lon="15.2286634"><ele>711.5999999999999</ele><time>2026-04-26T12:29:56.046Z</time></trkpt><trkpt lat="38.0254318" lon="15.2286879"><ele>713.0</ele><time>2026-04-26T12:29:57.046Z</time></trkpt><trkpt lat="38.0253386" lon="15.2287044"><ele>713.0</ele><time>2026-04-26T12:29:58.046Z</time></trkpt><trkpt lat="38.0252385" lon="15.2287033"><ele>713.0</ele><time>2026-04-26T12:29:59.046Z</time></trkpt><trkpt lat="38.0251325" lon="15.2286896"><ele>713.0</ele><time>2026-04-26T12:30:00.046Z</time></trkpt><trkpt lat="38.0250214" lon="15.2286681"><ele>713.0</ele><time>2026-04-26T12:30:01.046Z</time></trkpt><trkpt lat="38.0249067" lon="15.2286374"><ele>713.0</ele><time>2026-04-26T12:30:02.046Z</time></trkpt><trkpt lat="38.024798" lon="15.2285999"><ele>714.8</ele><time>2026-04-26T12:30:03.046Z</time></trkpt><trkpt lat="38.0246995" lon="15.2285807"><ele>716.5999999999999</ele><time>2026-04-26T12:30:04.046Z</time></trkpt><trkpt lat="38.0246045" lon="15.2285965"><ele>718.4000000000001</ele><time>2026-04-26T12:30:05.046Z</time></trkpt><trkpt lat="38.0244982" lon="15.228619"><ele>720.2</ele><time>2026-04-26T12:30:06.046Z</time></trkpt><trkpt lat="38.0243818" lon="15.228634"><ele>722.0</ele><time>2026-04-26T12:30:07.046Z</time></trkpt><trkpt lat="38.0242652" lon="15.2286408"><ele>722.0</ele><time>2026-04-26T12:30:08.046Z</time></trkpt><trkpt lat="38.0241515" lon="15.2286512"><ele>722.0</ele><time>2026-04-26T12:30:09.046Z</time></trkpt><trkpt lat="38.0240438" lon="15.2286465"><ele>722.0</ele><time>2026-04-26T12:30:10.046Z</time></trkpt><trkpt lat="38.0239635" lon="15.2286193"><ele>722.0</ele><time>2026-04-26T12:30:11.046Z</time></trkpt><trkpt lat="38.0238968" lon="15.2285762"><ele>722.0</ele><time>2026-04-26T12:30:12.046Z</time></trkpt><trkpt lat="38.0238323" lon="15.2285372"><ele>723.2857142857143</ele><time>2026-04-26T12:30:13.046Z</time></trkpt><trkpt lat="38.0237671" lon="15.2285153"><ele>724.5714285714286</ele><time>2026-04-26T12:30:14.046Z</time></trkpt><trkpt lat="38.0237038" lon="15.2285201"><ele>725.8571428571429</ele><time>2026-04-26T12:30:15.046Z</time></trkpt><trkpt lat="38.0236315" lon="15.2285452"><ele>727.1428571428571</ele><time>2026-04-26T12:30:16.046Z</time></trkpt><trkpt lat="38.0235562" lon="15.2285731"><ele>728.4285714285713</ele><time>2026-04-26T12:30:17.047Z</time></trkpt><trkpt lat="38.0234787" lon="15.2285836"><ele>729.7142857142857</ele><time>2026-04-26T12:30:18.046Z</time></trkpt><trkpt lat="38.0234086" lon="15.2285832"><ele>731.0</ele><time>2026-04-26T12:30:19.046Z</time></trkpt><trkpt lat="38.0232858" lon="15.2286247"><ele>731.0</ele><time>2026-04-26T12:30:21.046Z</time></trkpt><trkpt lat="38.0232254" lon="15.2286641"><ele>731.0</ele><time>2026-04-26T12:30:22.046Z</time></trkpt><trkpt lat="38.0231725" lon="15.2287291"><ele>731.0</ele><time>2026-04-26T12:30:24.046Z</time></trkpt><trkpt lat="38.023272" lon="15.2287482"><ele>731.0</ele><time>2026-04-26T12:30:27.046Z</time></trkpt><trkpt lat="38.02338" lon="15.2287683"><ele>731.0</ele><time>2026-04-26T12:30:29.046Z</time></trkpt><trkpt lat="38.023375" lon="15.2288683"><ele>731.0</ele><time>2026-04-26T12:30:32.046Z</time></trkpt><trkpt lat="38.0233017" lon="15.2288833"><ele>734.6666666666666</ele><time>2026-04-26T12:30:34.046Z</time></trkpt><trkpt lat="38.0232367" lon="15.2288933"><ele>738.3333333333333</ele><time>2026-04-26T12:30:36.046Z</time></trkpt><trkpt lat="38.023315" lon="15.22898"><ele>742.0</ele><time>2026-04-26T12:30:40.046Z</time></trkpt><trkpt lat="38.0233783" lon="15.2290033"><ele>745.6666666666666</ele><time>2026-04-26T12:30:41.046Z</time></trkpt><trkpt lat="38.023455" lon="15.2290233"><ele>749.3333333333334</ele><time>2026-04-26T12:30:42.046Z</time></trkpt><trkpt lat="38.023535" lon="15.2290283"><ele>753.0</ele><time>2026-04-26T12:30:43.046Z</time></trkpt><trkpt lat="38.0236083" lon="15.22904"><ele>755.2</ele><time>2026-04-26T12:30:44.046Z</time></trkpt><trkpt lat="38.023725" lon="15.2290983"><ele>757.4</ele><time>2026-04-26T12:30:46.046Z</time></trkpt><trkpt lat="38.0237983" lon="15.2291267"><ele>759.6</ele><time>2026-04-26T12:30:47.046Z</time></trkpt><trkpt lat="38.0238883" lon="15.2291267"><ele>761.8000000000001</ele><time>2026-04-26T12:30:48.047Z</time></trkpt><trkpt lat="38.02397" lon="15.22912"><ele>764.0</ele><time>2026-04-26T12:30:49.046Z</time></trkpt><trkpt lat="38.0240533" lon="15.22915"><ele>764.0</ele><time>2026-04-26T12:30:51.046Z</time></trkpt><trkpt lat="38.02404" lon="15.2292617"><ele>764.0</ele><time>2026-04-26T12:30:54.046Z</time></trkpt><trkpt lat="38.0239383" lon="15.22935"><ele>764.0</ele><time>2026-04-26T12:30:56.047Z</time></trkpt><trkpt lat="38.0238633" lon="15.2293983"><ele>764.0</ele><time>2026-04-26T12:30:57.046Z</time></trkpt><trkpt lat="38.02378" lon="15.229445"><ele>764.0</ele><time>2026-04-26T12:30:58.046Z</time></trkpt><trkpt lat="38.023685" lon="15.2294733"><ele>764.0</ele><time>2026-04-26T12:30:59.046Z</time></trkpt><trkpt lat="38.0235817" lon="15.2294883"><ele>764.0</ele><time>2026-04-26T12:31:00.046Z</time></trkpt><trkpt lat="38.0234783" lon="15.22948"><ele>764.0</ele><time>2026-04-26T12:31:01.047Z</time></trkpt><trkpt lat="38.0233867" lon="15.2294817"><ele>764.0</ele><time>2026-04-26T12:31:02.046Z</time></trkpt><trkpt lat="38.0232983" lon="15.2294867"><ele>764.0</ele><time>2026-04-26T12:31:03.046Z</time></trkpt><trkpt lat="38.023235" lon="15.229485"><ele>767.4000000000001</ele><time>2026-04-26T12:31:04.046Z</time></trkpt><trkpt lat="38.0231317" lon="15.2294333"><ele>770.8</ele><time>2026-04-26T12:31:06.046Z</time></trkpt><trkpt lat="38.0230417" lon="15.2293933"><ele>774.2</ele><time>2026-04-26T12:31:08.047Z</time></trkpt><trkpt lat="38.02297" lon="15.229435"><ele>777.5999999999999</ele><time>2026-04-26T12:31:10.046Z</time></trkpt><trkpt lat="38.0228717" lon="15.22949"><ele>781.0</ele><time>2026-04-26T12:31:12.046Z</time></trkpt><trkpt lat="38.0227917" lon="15.2294917"><ele>781.0</ele><time>2026-04-26T12:31:13.046Z</time></trkpt><trkpt lat="38.022715" lon="15.2295067"><ele>781.0</ele><time>2026-04-26T12:31:14.046Z</time></trkpt><trkpt lat="38.0226483" lon="15.2295483"><ele>781.0</ele><time>2026-04-26T12:31:15.046Z</time></trkpt><trkpt lat="38.0225567" lon="15.22964"><ele>781.0</ele><time>2026-04-26T12:31:17.046Z</time></trkpt><trkpt lat="38.0224683" lon="15.2296917"><ele>781.0</ele><time>2026-04-26T12:31:19.046Z</time></trkpt><trkpt lat="38.0223517" lon="15.22972"><ele>785.1999999999999</ele><time>2026-04-26T12:31:21.047Z</time></trkpt><trkpt lat="38.0222667" lon="15.229745"><ele>789.4</ele><time>2026-04-26T12:31:23.046Z</time></trkpt><trkpt lat="38.0222733" lon="15.22983"><ele>793.6</ele><time>2026-04-26T12:31:26.046Z</time></trkpt><trkpt lat="38.0224133" lon="15.22986"><ele>797.8</ele><time>2026-04-26T12:31:28.046Z</time></trkpt><trkpt lat="38.0225333" lon="15.2298483"><ele>802.0</ele><time>2026-04-26T12:31:29.046Z</time></trkpt><trkpt lat="38.0226267" lon="15.2298467"><ele>801.9999999999999</ele><time>2026-04-26T12:31:30.046Z</time></trkpt><trkpt lat="38.022705" lon="15.2298717"><ele>802.0</ele><time>2026-04-26T12:31:31.046Z</time></trkpt><trkpt lat="38.02277" lon="15.2299217"><ele>802.0</ele><time>2026-04-26T12:31:32.046Z</time></trkpt><trkpt lat="38.0228367" lon="15.229995"><ele>802.0</ele><time>2026-04-26T12:31:33.046Z</time></trkpt><trkpt lat="38.022905" lon="15.230075"><ele>801.9999999999999</ele><time>2026-04-26T12:31:34.046Z</time></trkpt><trkpt lat="38.022975" lon="15.2301533"><ele>802.0</ele><time>2026-04-26T12:31:35.046Z</time></trkpt><trkpt lat="38.0230483" lon="15.230195"><ele>802.0</ele><time>2026-04-26T12:31:36.047Z</time></trkpt><trkpt lat="38.0231483" lon="15.230215"><ele>802.0</ele><time>2026-04-26T12:31:37.046Z</time></trkpt><trkpt lat="38.0232594" lon="15.2302299"><ele>802.0</ele><time>2026-04-26T12:31:38.046Z</time></trkpt><trkpt lat="38.0233934" lon="15.2302474"><ele>802.0</ele><time>2026-04-26T12:31:39.046Z</time></trkpt><trkpt lat="38.0235298" lon="15.2302722"><ele>800.0</ele><time>2026-04-26T12:31:40.046Z</time></trkpt><trkpt lat="38.0236695" lon="15.2302938"><ele>798.0</ele><time>2026-04-26T12:31:41.046Z</time></trkpt><trkpt lat="38.0238014" lon="15.2303128"><ele>796.0</ele><time>2026-04-26T12:31:42.046Z</time></trkpt><trkpt lat="38.0239279" lon="15.2303221"><ele>794.0</ele><time>2026-04-26T12:31:43.046Z</time></trkpt><trkpt lat="38.0240495" lon="15.2303162"><ele>793.6</ele><time>2026-04-26T12:31:44.046Z</time></trkpt><trkpt lat="38.0241692" lon="15.2303028"><ele>793.2</ele><time>2026-04-26T12:31:45.046Z</time></trkpt><trkpt lat="38.0242829" lon="15.2302837"><ele>792.8000000000001</ele><time>2026-04-26T12:31:46.046Z</time></trkpt><trkpt lat="38.0243709" lon="15.2302739"><ele>792.4000000000001</ele><time>2026-04-26T12:31:47.046Z</time></trkpt><trkpt lat="38.0244389" lon="15.2302892"><ele>792.0</ele><time>2026-04-26T12:31:48.046Z</time></trkpt><trkpt lat="38.0244998" lon="15.2303214"><ele>792.0</ele><time>2026-04-26T12:31:49.046Z</time></trkpt><trkpt lat="38.0245817" lon="15.2304313"><ele>792.0</ele><time>2026-04-26T12:31:51.046Z</time></trkpt><trkpt lat="38.0246515" lon="15.2304964"><ele>792.0</ele><time>2026-04-26T12:31:54.046Z</time></trkpt><trkpt lat="38.0247758" lon="15.2304572"><ele>792.0</ele><time>2026-04-26T12:32:59.929Z</time></trkpt><trkpt lat="38.0249043" lon="15.2305041"><ele>792.0</ele><time>2026-04-26T12:33:01.929Z</time></trkpt><trkpt lat="38.024973" lon="15.2305415"><ele>792.0</ele><time>2026-04-26T12:33:03.052Z</time></trkpt><trkpt lat="38.0250282" lon="15.2305803"><ele>792.0</ele><time>2026-04-26T12:33:04.052Z</time></trkpt><trkpt lat="38.0250784" lon="15.2306301"><ele>792.0</ele><time>2026-04-26T12:33:05.053Z</time></trkpt><trkpt lat="38.0251428" lon="15.2307674"><ele>792.0</ele><time>2026-04-26T12:33:07.052Z</time></trkpt><trkpt lat="38.0251992" lon="15.2308636"><ele>792.0</ele><time>2026-04-26T12:33:08.052Z</time></trkpt><trkpt lat="38.0252802" lon="15.2309295"><ele>793.5</ele><time>2026-04-26T12:33:09.052Z</time></trkpt><trkpt lat="38.0253446" lon="15.2309638"><ele>795.0</ele><time>2026-04-26T12:33:10.052Z</time></trkpt><trkpt lat="38.0254578" lon="15.2310128"><ele>796.5</ele><time>2026-04-26T12:33:12.052Z</time></trkpt><trkpt lat="38.0255269" lon="15.2310382"><ele>798.0</ele><time>2026-04-26T12:33:13.052Z</time></trkpt><trkpt lat="38.0255922" lon="15.231064"><ele>799.5</ele><time>2026-04-26T12:33:14.052Z</time></trkpt><trkpt lat="38.0256902" lon="15.2311383"><ele>801.0</ele><time>2026-04-26T12:33:16.051Z</time></trkpt><trkpt lat="38.025691" lon="15.2312241"><ele>801.0</ele><time>2026-04-26T12:33:19.051Z</time></trkpt><trkpt lat="38.0256173" lon="15.2312249"><ele>801.0</ele><time>2026-04-26T12:33:21.051Z</time></trkpt><trkpt lat="38.0255533" lon="15.2312194"><ele>801.0</ele><time>2026-04-26T12:33:22.051Z</time></trkpt><trkpt lat="38.0254786" lon="15.2312224"><ele>801.0</ele><time>2026-04-26T12:33:23.051Z</time></trkpt><trkpt lat="38.0254004" lon="15.2312358"><ele>801.0</ele><time>2026-04-26T12:33:24.051Z</time></trkpt><trkpt lat="38.0253213" lon="15.2312519"><ele>801.0</ele><time>2026-04-26T12:33:25.051Z</time></trkpt><trkpt lat="38.0252329" lon="15.2312735"><ele>801.0</ele><time>2026-04-26T12:33:26.051Z</time></trkpt><trkpt lat="38.0251472" lon="15.2312931"><ele>801.0</ele><time>2026-04-26T12:33:27.051Z</time></trkpt><trkpt lat="38.0250616" lon="15.231319"><ele>801.0</ele><time>2026-04-26T12:33:28.051Z</time></trkpt><trkpt lat="38.0249649" lon="15.2313485"><ele>801.0</ele><time>2026-04-26T12:33:29.051Z</time></trkpt><trkpt lat="38.0248699" lon="15.2313671"><ele>801.0</ele><time>2026-04-26T12:33:30.051Z</time></trkpt><trkpt lat="38.0247801" lon="15.2313857"><ele>801.5</ele><time>2026-04-26T12:33:31.051Z</time></trkpt><trkpt lat="38.0246972" lon="15.2314063"><ele>802.0</ele><time>2026-04-26T12:33:32.051Z</time></trkpt><trkpt lat="38.0246157" lon="15.2314193"><ele>802.5</ele><time>2026-04-26T12:33:33.051Z</time></trkpt><trkpt lat="38.0245367" lon="15.231425"><ele>803.0</ele><time>2026-04-26T12:33:34.051Z</time></trkpt><trkpt lat="38.0244546" lon="15.2314229"><ele>803.5</ele><time>2026-04-26T12:33:35.051Z</time></trkpt><trkpt lat="38.0243691" lon="15.231431"><ele>804.0</ele><time>2026-04-26T12:33:36.051Z</time></trkpt><trkpt lat="38.0242775" lon="15.2314574"><ele>801.0</ele><time>2026-04-26T12:33:37.051Z</time></trkpt><trkpt lat="38.0241845" lon="15.2314884"><ele>798.0</ele><time>2026-04-26T12:33:38.051Z</time></trkpt><trkpt lat="38.0240913" lon="15.2315143"><ele>795.0</ele><time>2026-04-26T12:33:39.051Z</time></trkpt><trkpt lat="38.0240037" lon="15.2315369"><ele>792.0</ele><time>2026-04-26T12:33:40.052Z</time></trkpt><trkpt lat="38.0239236" lon="15.2315576"><ele>789.0</ele><time>2026-04-26T12:33:41.051Z</time></trkpt><trkpt lat="38.0238455" lon="15.2315796"><ele>786.0</ele><time>2026-04-26T12:33:42.051Z</time></trkpt><trkpt lat="38.023769" lon="15.2316079"><ele>786.0</ele><time>2026-04-26T12:33:43.051Z</time></trkpt><trkpt lat="38.0236901" lon="15.231635"><ele>786.0</ele><time>2026-04-26T12:33:44.051Z</time></trkpt><trkpt lat="38.0236154" lon="15.2316632"><ele>786.0</ele><time>2026-04-26T12:33:45.051Z</time></trkpt><trkpt lat="38.0235271" lon="15.2317035"><ele>786.0</ele><time>2026-04-26T12:33:46.051Z</time></trkpt><trkpt lat="38.0234495" lon="15.231747"><ele>786.0</ele><time>2026-04-26T12:33:47.051Z</time></trkpt><trkpt lat="38.0233716" lon="15.2317915"><ele>786.0</ele><time>2026-04-26T12:33:48.051Z</time></trkpt><trkpt lat="38.0232935" lon="15.2318396"><ele>786.6666666666666</ele><time>2026-04-26T12:33:49.051Z</time></trkpt><trkpt lat="38.0232162" lon="15.2319071"><ele>787.3333333333333</ele><time>2026-04-26T12:33:50.051Z</time></trkpt><trkpt lat="38.0231371" lon="15.2319795"><ele>788.0</ele><time>2026-04-26T12:33:51.051Z</time></trkpt><trkpt lat="38.0230651" lon="15.2320445"><ele>788.6666666666666</ele><time>2026-04-26T12:33:52.051Z</time></trkpt><trkpt lat="38.0229946" lon="15.2320968"><ele>789.3333333333333</ele><time>2026-04-26T12:33:53.051Z</time></trkpt><trkpt lat="38.0229167" lon="15.2321349"><ele>790.0</ele><time>2026-04-26T12:33:54.051Z</time></trkpt><trkpt lat="38.0228366" lon="15.232163"><ele>789.9999999999999</ele><time>2026-04-26T12:33:55.051Z</time></trkpt><trkpt lat="38.0227542" lon="15.2321736"><ele>790.0</ele><time>2026-04-26T12:33:56.051Z</time></trkpt><trkpt lat="38.0226691" lon="15.2321662"><ele>790.0</ele><time>2026-04-26T12:33:57.051Z</time></trkpt><trkpt lat="38.0225853" lon="15.2321352"><ele>790.0</ele><time>2026-04-26T12:33:58.051Z</time></trkpt><trkpt lat="38.0225067" lon="15.2320967"><ele>789.9999999999999</ele><time>2026-04-26T12:33:59.051Z</time></trkpt><trkpt lat="38.0224333" lon="15.2320767"><ele>790.0</ele><time>2026-04-26T12:34:00.051Z</time></trkpt><trkpt lat="38.0223217" lon="15.2320833"><ele>789.9999999999999</ele><time>2026-04-26T12:34:02.051Z</time></trkpt><trkpt lat="38.022255" lon="15.2321783"><ele>790.0</ele><time>2026-04-26T12:34:04.051Z</time></trkpt><trkpt lat="38.0222167" lon="15.23225"><ele>790.0</ele><time>2026-04-26T12:34:05.051Z</time></trkpt><trkpt lat="38.0221367" lon="15.2323567"><ele>790.0</ele><time>2026-04-26T12:34:07.051Z</time></trkpt><trkpt lat="38.02209" lon="15.2324117"><ele>789.9999999999999</ele><time>2026-04-26T12:34:08.051Z</time></trkpt><trkpt lat="38.0220383" lon="15.232515"><ele>790.0</ele><time>2026-04-26T12:34:10.051Z</time></trkpt><trkpt lat="38.0220083" lon="15.2326"><ele>789.9999999999999</ele><time>2026-04-26T12:34:11.051Z</time></trkpt><trkpt lat="38.0219733" lon="15.23269"><ele>790.0</ele><time>2026-04-26T12:34:12.051Z</time></trkpt><trkpt lat="38.0219417" lon="15.2327817"><ele>790.0</ele><time>2026-04-26T12:34:13.051Z</time></trkpt><trkpt lat="38.0219183" lon="15.2328767"><ele>790.0</ele><time>2026-04-26T12:34:14.051Z</time></trkpt><trkpt lat="38.0219033" lon="15.23296"><ele>789.9999999999999</ele><time>2026-04-26T12:34:15.051Z</time></trkpt><trkpt lat="38.021925" lon="15.233105"><ele>790.0</ele><time>2026-04-26T12:34:17.051Z</time></trkpt><trkpt lat="38.0219667" lon="15.23319"><ele>787.4999999999999</ele><time>2026-04-26T12:34:18.051Z</time></trkpt><trkpt lat="38.0219967" lon="15.2332667"><ele>785.0</ele><time>2026-04-26T12:34:19.051Z</time></trkpt><trkpt lat="38.0220333" lon="15.23335"><ele>782.5</ele><time>2026-04-26T12:34:20.051Z</time></trkpt><trkpt lat="38.022045" lon="15.23344"><ele>780.0</ele><time>2026-04-26T12:34:21.051Z</time></trkpt><trkpt lat="38.0220533" lon="15.2335283"><ele>777.4999999999999</ele><time>2026-04-26T12:34:22.051Z</time></trkpt><trkpt lat="38.02205" lon="15.2336133"><ele>775.0</ele><time>2026-04-26T12:34:23.051Z</time></trkpt><trkpt lat="38.0219983" lon="15.2337533"><ele>775.0</ele><time>2026-04-26T12:34:25.051Z</time></trkpt><trkpt lat="38.0219283" lon="15.233885"><ele>775.0</ele><time>2026-04-26T12:34:27.051Z</time></trkpt><trkpt lat="38.0218517" lon="15.2340067"><ele>775.0</ele><time>2026-04-26T12:34:29.051Z</time></trkpt><trkpt lat="38.0217483" lon="15.234095"><ele>775.0</ele><time>2026-04-26T12:34:31.051Z</time></trkpt><trkpt lat="38.021665" lon="15.2342033"><ele>770.0</ele><time>2026-04-26T12:34:33.052Z</time></trkpt><trkpt lat="38.0216633" lon="15.2342933"><ele>765.0</ele><time>2026-04-26T12:34:36.051Z</time></trkpt><trkpt lat="38.0217417" lon="15.23423"><ele>760.0</ele><time>2026-04-26T12:34:38.051Z</time></trkpt><trkpt lat="38.02182" lon="15.2341433"><ele>755.0</ele><time>2026-04-26T12:34:40.051Z</time></trkpt><trkpt lat="38.0219033" lon="15.234045"><ele>750.0</ele><time>2026-04-26T12:34:42.051Z</time></trkpt><trkpt lat="38.0219767" lon="15.2340317"><ele>750.0</ele><time>2026-04-26T12:34:44.051Z</time></trkpt><trkpt lat="38.022005" lon="15.2341133"><ele>750.0</ele><time>2026-04-26T12:34:47.051Z</time></trkpt><trkpt lat="38.0219633" lon="15.234175"><ele>750.0</ele><time>2026-04-26T12:34:49.051Z</time></trkpt><trkpt lat="38.0218867" lon="15.234255"><ele>750.0</ele><time>2026-04-26T12:34:51.051Z</time></trkpt><trkpt lat="38.02184" lon="15.2343133"><ele>750.0</ele><time>2026-04-26T12:34:52.051Z</time></trkpt><trkpt lat="38.0217983" lon="15.2343783"><ele>750.0</ele><time>2026-04-26T12:34:53.051Z</time></trkpt><trkpt lat="38.0217567" lon="15.2344383"><ele>750.0</ele><time>2026-04-26T12:34:54.051Z</time></trkpt><trkpt lat="38.02167" lon="15.2345217"><ele>750.0</ele><time>2026-04-26T12:34:56.051Z</time></trkpt><trkpt lat="38.02164" lon="15.2345967"><ele>750.0</ele><time>2026-04-26T12:34:58.051Z</time></trkpt><trkpt lat="38.0217067" lon="15.2346283"><ele>750.0</ele><time>2026-04-26T12:35:01.052Z</time></trkpt><trkpt lat="38.021795" lon="15.234565"><ele>750.0</ele><time>2026-04-26T12:35:03.051Z</time></trkpt><trkpt lat="38.02191" lon="15.2345117"><ele>750.0</ele><time>2026-04-26T12:35:05.051Z</time></trkpt><trkpt lat="38.0219783" lon="15.234475"><ele>750.0</ele><time>2026-04-26T12:35:06.051Z</time></trkpt><trkpt lat="38.0220433" lon="15.2344467"><ele>750.0</ele><time>2026-04-26T12:35:07.051Z</time></trkpt><trkpt lat="38.022145" lon="15.2343517"><ele>750.0</ele><time>2026-04-26T12:35:09.051Z</time></trkpt><trkpt lat="38.0221783" lon="15.2342817"><ele>750.0</ele><time>2026-04-26T12:35:10.051Z</time></trkpt><trkpt lat="38.02222" lon="15.2342067"><ele>750.0</ele><time>2026-04-26T12:35:11.051Z</time></trkpt><trkpt lat="38.0222533" lon="15.2341317"><ele>750.0</ele><time>2026-04-26T12:35:12.051Z</time></trkpt><trkpt lat="38.0222867" lon="15.2340633"><ele>750.0</ele><time>2026-04-26T12:35:13.051Z</time></trkpt><trkpt lat="38.0223517" lon="15.2339667"><ele>750.0</ele><time>2026-04-26T12:35:15.051Z</time></trkpt><trkpt lat="38.022415" lon="15.23399"><ele>750.0</ele><time>2026-04-26T12:35:17.051Z</time></trkpt><trkpt lat="38.0224283" lon="15.23408"><ele>750.0</ele><time>2026-04-26T12:35:19.051Z</time></trkpt><trkpt lat="38.0223967" lon="15.2341667"><ele>750.0</ele><time>2026-04-26T12:35:21.051Z</time></trkpt><trkpt lat="38.0223617" lon="15.234285"><ele>750.0</ele><time>2026-04-26T12:35:23.051Z</time></trkpt><trkpt lat="38.0223433" lon="15.23444"><ele>750.0</ele><time>2026-04-26T12:35:25.051Z</time></trkpt><trkpt lat="38.0223317" lon="15.234525"><ele>750.0</ele><time>2026-04-26T12:35:26.051Z</time></trkpt><trkpt lat="38.0222883" lon="15.23467"><ele>750.0</ele><time>2026-04-26T12:35:28.051Z</time></trkpt><trkpt lat="38.0222667" lon="15.2348317"><ele>750.0</ele><time>2026-04-26T12:35:30.051Z</time></trkpt><trkpt lat="38.022255" lon="15.2349217"><ele>750.0</ele><time>2026-04-26T12:35:31.051Z</time></trkpt><trkpt lat="38.0222317" lon="15.235015"><ele>750.0</ele><time>2026-04-26T12:35:32.051Z</time></trkpt><trkpt lat="38.0221967" lon="15.2351083"><ele>744.4</ele><time>2026-04-26T12:35:33.051Z</time></trkpt><trkpt lat="38.0221283" lon="15.2352283"><ele>738.8</ele><time>2026-04-26T12:35:35.051Z</time></trkpt><trkpt lat="38.0220533" lon="15.2352883"><ele>733.2</ele><time>2026-04-26T12:35:37.051Z</time></trkpt><trkpt lat="38.0219483" lon="15.23529"><ele>727.6</ele><time>2026-04-26T12:35:39.051Z</time></trkpt><trkpt lat="38.0218767" lon="15.2352833"><ele>722.0</ele><time>2026-04-26T12:35:40.051Z</time></trkpt><trkpt lat="38.0217967" lon="15.235295"><ele>722.0</ele><time>2026-04-26T12:35:41.051Z</time></trkpt><trkpt lat="38.0217133" lon="15.2352983"><ele>722.0</ele><time>2026-04-26T12:35:42.051Z</time></trkpt><trkpt lat="38.0216417" lon="15.2352883"><ele>722.0</ele><time>2026-04-26T12:35:43.051Z</time></trkpt><trkpt lat="38.0215717" lon="15.235265"><ele>722.0</ele><time>2026-04-26T12:35:44.052Z</time></trkpt><trkpt lat="38.0215" lon="15.2352317"><ele>722.0</ele><time>2026-04-26T12:35:45.051Z</time></trkpt><trkpt lat="38.02141" lon="15.2352117"><ele>722.0</ele><time>2026-04-26T12:35:47.051Z</time></trkpt><trkpt lat="38.0213783" lon="15.2352867"><ele>722.0</ele><time>2026-04-26T12:35:50.051Z</time></trkpt><trkpt lat="38.0214483" lon="15.2353417"><ele>722.0</ele><time>2026-04-26T12:35:53.051Z</time></trkpt><trkpt lat="38.02152" lon="15.2354017"><ele>722.0</ele><time>2026-04-26T12:35:55.051Z</time></trkpt><trkpt lat="38.02164" lon="15.23548"><ele>722.0</ele><time>2026-04-26T12:35:57.051Z</time></trkpt><trkpt lat="38.02171" lon="15.2355267"><ele>722.0</ele><time>2026-04-26T12:35:58.051Z</time></trkpt><trkpt lat="38.02178" lon="15.2355817"><ele>722.0</ele><time>2026-04-26T12:35:59.051Z</time></trkpt><trkpt lat="38.021845" lon="15.2356333"><ele>722.0</ele><time>2026-04-26T12:36:00.051Z</time></trkpt><trkpt lat="38.0219133" lon="15.2356783"><ele>722.0</ele><time>2026-04-26T12:36:01.051Z</time></trkpt><trkpt lat="38.02202" lon="15.235735"><ele>722.0</ele><time>2026-04-26T12:36:03.052Z</time></trkpt><trkpt lat="38.0221383" lon="15.235745"><ele>722.0</ele><time>2026-04-26T12:36:05.051Z</time></trkpt><trkpt lat="38.0222067" lon="15.2357217"><ele>722.0</ele><time>2026-04-26T12:36:06.052Z</time></trkpt><trkpt lat="38.0223133" lon="15.2356683"><ele>722.0</ele><time>2026-04-26T12:36:08.051Z</time></trkpt><trkpt lat="38.022415" lon="15.2356233"><ele>722.0</ele><time>2026-04-26T12:36:10.051Z</time></trkpt><trkpt lat="38.0224967" lon="15.23564"><ele>722.0</ele><time>2026-04-26T12:36:12.051Z</time></trkpt><trkpt lat="38.0225633" lon="15.23572"><ele>722.0</ele><time>2026-04-26T12:36:14.051Z</time></trkpt><trkpt lat="38.02261" lon="15.2357867"><ele>716.0</ele><time>2026-04-26T12:36:15.051Z</time></trkpt><trkpt lat="38.0226733" lon="15.2358617"><ele>710.0</ele><time>2026-04-26T12:36:16.051Z</time></trkpt><trkpt lat="38.0227417" lon="15.2359183"><ele>704.0</ele><time>2026-04-26T12:36:17.051Z</time></trkpt><trkpt lat="38.022805" lon="15.23595"><ele>698.0</ele><time>2026-04-26T12:36:18.051Z</time></trkpt><trkpt lat="38.0229233" lon="15.2359833"><ele>692.0</ele><time>2026-04-26T12:36:20.051Z</time></trkpt><trkpt lat="38.0229883" lon="15.2359767"><ele>686.0</ele><time>2026-04-26T12:36:21.051Z</time></trkpt><trkpt lat="38.0230567" lon="15.2359217"><ele>686.0</ele><time>2026-04-26T12:36:23.051Z</time></trkpt><trkpt lat="38.0230067" lon="15.235835"><ele>686.0</ele><time>2026-04-26T12:36:26.051Z</time></trkpt><trkpt lat="38.0229733" lon="15.2357583"><ele>686.0</ele><time>2026-04-26T12:36:28.052Z</time></trkpt><trkpt lat="38.022975" lon="15.235675"><ele>686.0</ele><time>2026-04-26T12:36:30.051Z</time></trkpt><trkpt lat="38.0230083" lon="15.2355967"><ele>686.0</ele><time>2026-04-26T12:36:32.051Z</time></trkpt><trkpt lat="38.0230667" lon="15.2355217"><ele>686.0</ele><time>2026-04-26T12:36:34.051Z</time></trkpt><trkpt lat="38.02313" lon="15.2354733"><ele>686.0</ele><time>2026-04-26T12:36:36.051Z</time></trkpt><trkpt lat="38.0232133" lon="15.23545"><ele>686.1666666666666</ele><time>2026-04-26T12:36:38.051Z</time></trkpt><trkpt lat="38.023285" lon="15.2354333"><ele>686.3333333333333</ele><time>2026-04-26T12:36:40.051Z</time></trkpt><trkpt lat="38.0233633" lon="15.2354083"><ele>686.5</ele><time>2026-04-26T12:36:42.052Z</time></trkpt><trkpt lat="38.0234383" lon="15.2354033"><ele>686.6666666666666</ele><time>2026-04-26T12:36:44.051Z</time></trkpt><trkpt lat="38.0235317" lon="15.2354367"><ele>686.8333333333334</ele><time>2026-04-26T12:36:46.052Z</time></trkpt><trkpt lat="38.0236217" lon="15.2354617"><ele>687.0</ele><time>2026-04-26T12:36:48.051Z</time></trkpt><trkpt lat="38.023715" lon="15.23542"><ele>687.0</ele><time>2026-04-26T12:36:50.052Z</time></trkpt><trkpt lat="38.023775" lon="15.2353733"><ele>687.0</ele><time>2026-04-26T12:36:51.051Z</time></trkpt><trkpt lat="38.023835" lon="15.2353167"><ele>687.0</ele><time>2026-04-26T12:36:52.051Z</time></trkpt><trkpt lat="38.0239033" lon="15.2352667"><ele>687.0</ele><time>2026-04-26T12:36:53.051Z</time></trkpt><trkpt lat="38.0239767" lon="15.2352317"><ele>687.0</ele><time>2026-04-26T12:36:54.051Z</time></trkpt><trkpt lat="38.024055" lon="15.2352033"><ele>687.0</ele><time>2026-04-26T12:36:55.051Z</time></trkpt><trkpt lat="38.02415" lon="15.2351833"><ele>683.6666666666666</ele><time>2026-04-26T12:36:56.051Z</time></trkpt><trkpt lat="38.0242417" lon="15.235185"><ele>680.3333333333334</ele><time>2026-04-26T12:36:57.051Z</time></trkpt><trkpt lat="38.0243283" lon="15.2351933"><ele>677.0</ele><time>2026-04-26T12:36:58.051Z</time></trkpt><trkpt lat="38.024405" lon="15.2352067"><ele>673.6666666666667</ele><time>2026-04-26T12:36:59.051Z</time></trkpt><trkpt lat="38.0244767" lon="15.2352217"><ele>670.3333333333334</ele><time>2026-04-26T12:37:00.051Z</time></trkpt><trkpt lat="38.0245467" lon="15.2352917"><ele>667.0</ele><time>2026-04-26T12:37:02.051Z</time></trkpt><trkpt lat="38.0245267" lon="15.2353883"><ele>667.0</ele><time>2026-04-26T12:37:05.051Z</time></trkpt><trkpt lat="38.0244433" lon="15.2354317"><ele>667.0</ele><time>2026-04-26T12:37:08.051Z</time></trkpt><trkpt lat="38.0243683" lon="15.2354383"><ele>667.0</ele><time>2026-04-26T12:37:11.051Z</time></trkpt><trkpt lat="38.0242817" lon="15.2354467"><ele>667.0</ele><time>2026-04-26T12:37:13.051Z</time></trkpt><trkpt lat="38.024215" lon="15.235465"><ele>667.0</ele><time>2026-04-26T12:37:14.051Z</time></trkpt><trkpt lat="38.0241417" lon="15.2354917"><ele>667.0</ele><time>2026-04-26T12:37:15.051Z</time></trkpt><trkpt lat="38.0240667" lon="15.2355217"><ele>667.1666666666667</ele><time>2026-04-26T12:37:16.051Z</time></trkpt><trkpt lat="38.0240067" lon="15.2355517"><ele>667.3333333333334</ele><time>2026-04-26T12:37:17.051Z</time></trkpt><trkpt lat="38.0239483" lon="15.235585"><ele>667.5</ele><time>2026-04-26T12:37:18.051Z</time></trkpt><trkpt lat="38.02388" lon="15.2356817"><ele>667.6666666666666</ele><time>2026-04-26T12:37:20.051Z</time></trkpt><trkpt lat="38.023865" lon="15.2358"><ele>667.8333333333333</ele><time>2026-04-26T12:37:23.051Z</time></trkpt><trkpt lat="38.0239167" lon="15.2358467"><ele>668.0</ele><time>2026-04-26T12:37:26.051Z</time></trkpt><trkpt lat="38.0240667" lon="15.2358833"><ele>665.3333333333333</ele><time>2026-04-26T12:43:01.05Z</time></trkpt><trkpt lat="38.0241567" lon="15.23593"><ele>662.6666666666666</ele><time>2026-04-26T12:43:03.05Z</time></trkpt><trkpt lat="38.0242167" lon="15.2359817"><ele>660.0</ele><time>2026-04-26T12:43:04.05Z</time></trkpt><trkpt lat="38.0242667" lon="15.236045"><ele>657.3333333333334</ele><time>2026-04-26T12:43:05.05Z</time></trkpt><trkpt lat="38.0243167" lon="15.23611"><ele>654.6666666666667</ele><time>2026-04-26T12:43:06.05Z</time></trkpt><trkpt lat="38.02438" lon="15.2361767"><ele>652.0</ele><time>2026-04-26T12:43:07.05Z</time></trkpt><trkpt lat="38.0244383" lon="15.236215"><ele>652.0</ele><time>2026-04-26T12:43:08.05Z</time></trkpt><trkpt lat="38.0245067" lon="15.2362417"><ele>652.0</ele><time>2026-04-26T12:43:09.05Z</time></trkpt><trkpt lat="38.0245817" lon="15.23624"><ele>652.0</ele><time>2026-04-26T12:43:10.05Z</time></trkpt><trkpt lat="38.0246667" lon="15.2362233"><ele>652.0</ele><time>2026-04-26T12:43:11.05Z</time></trkpt><trkpt lat="38.0247583" lon="15.2361967"><ele>652.0</ele><time>2026-04-26T12:43:12.05Z</time></trkpt><trkpt lat="38.0248433" lon="15.2361483"><ele>652.0</ele><time>2026-04-26T12:43:13.05Z</time></trkpt><trkpt lat="38.02494" lon="15.2360983"><ele>651.0</ele><time>2026-04-26T12:43:14.051Z</time></trkpt><trkpt lat="38.0250217" lon="15.23605"><ele>650.0</ele><time>2026-04-26T12:43:15.05Z</time></trkpt><trkpt lat="38.0250867" lon="15.2359967"><ele>649.0</ele><time>2026-04-26T12:43:16.05Z</time></trkpt><trkpt lat="38.0251383" lon="15.2359483"><ele>648.0</ele><time>2026-04-26T12:43:17.05Z</time></trkpt><trkpt lat="38.0252283" lon="15.23589"><ele>647.0</ele><time>2026-04-26T12:43:19.05Z</time></trkpt><trkpt lat="38.0253217" lon="15.2358717"><ele>646.0</ele><time>2026-04-26T12:43:21.05Z</time></trkpt><trkpt lat="38.0254" lon="15.235975"><ele>646.0</ele><time>2026-04-26T12:43:24.05Z</time></trkpt><trkpt lat="38.0254467" lon="15.2361217"><ele>646.0</ele><time>2026-04-26T12:43:26.05Z</time></trkpt><trkpt lat="38.025485" lon="15.2362633"><ele>646.0</ele><time>2026-04-26T12:43:28.05Z</time></trkpt><trkpt lat="38.025505" lon="15.23634"><ele>646.0</ele><time>2026-04-26T12:43:29.05Z</time></trkpt><trkpt lat="38.02553" lon="15.2364817"><ele>646.0</ele><time>2026-04-26T12:43:31.05Z</time></trkpt><trkpt lat="38.0255233" lon="15.2365783"><ele>646.0</ele><time>2026-04-26T12:43:33.05Z</time></trkpt><trkpt lat="38.0254633" lon="15.2366117"><ele>646.0</ele><time>2026-04-26T12:43:36.05Z</time></trkpt><trkpt lat="38.0253933" lon="15.2365683"><ele>646.0</ele><time>2026-04-26T12:43:38.05Z</time></trkpt><trkpt lat="38.0253" lon="15.2364567"><ele>646.0</ele><time>2026-04-26T12:43:40.05Z</time></trkpt><trkpt lat="38.0252467" lon="15.2364033"><ele>646.0</ele><time>2026-04-26T12:43:41.05Z</time></trkpt><trkpt lat="38.02519" lon="15.2363617"><ele>646.0</ele><time>2026-04-26T12:43:42.05Z</time></trkpt><trkpt lat="38.02518" lon="15.2364567"><ele>650.1428571428572</ele><time>2026-04-26T12:43:46.05Z</time></trkpt><trkpt lat="38.0252167" lon="15.2365217"><ele>654.2857142857143</ele><time>2026-04-26T12:43:47.05Z</time></trkpt><trkpt lat="38.0252533" lon="15.2366033"><ele>658.4285714285714</ele><time>2026-04-26T12:43:48.05Z</time></trkpt><trkpt lat="38.0252917" lon="15.2366883"><ele>662.5714285714287</ele><time>2026-04-26T12:43:49.05Z</time></trkpt><trkpt lat="38.0253283" lon="15.236765"><ele>666.7142857142858</ele><time>2026-04-26T12:43:50.05Z</time></trkpt><trkpt lat="38.0253367" lon="15.2368733"><ele>670.8571428571429</ele><time>2026-04-26T12:43:52.05Z</time></trkpt><trkpt lat="38.0252817" lon="15.2368183"><ele>675.0</ele><time>2026-04-26T12:43:55.05Z</time></trkpt><trkpt lat="38.02521" lon="15.2366867"><ele>675.0</ele><time>2026-04-26T12:43:57.05Z</time></trkpt><trkpt lat="38.0251667" lon="15.2366267"><ele>675.0</ele><time>2026-04-26T12:43:58.05Z</time></trkpt><trkpt lat="38.02507" lon="15.2365683"><ele>675.0</ele><time>2026-04-26T12:44:00.05Z</time></trkpt><trkpt lat="38.0249867" lon="15.2365867"><ele>675.0</ele><time>2026-04-26T12:44:02.05Z</time></trkpt><trkpt lat="38.025025" lon="15.23668"><ele>675.0</ele><time>2026-04-26T12:44:06.05Z</time></trkpt><trkpt lat="38.0250817" lon="15.2367717"><ele>675.0</ele><time>2026-04-26T12:44:08.05Z</time></trkpt><trkpt lat="38.0251067" lon="15.2369183"><ele>675.0</ele><time>2026-04-26T12:44:10.05Z</time></trkpt><trkpt lat="38.0251133" lon="15.23701"><ele>675.0</ele><time>2026-04-26T12:44:11.05Z</time></trkpt><trkpt lat="38.0251517" lon="15.23712"><ele>675.0</ele><time>2026-04-26T12:44:12.05Z</time></trkpt><trkpt lat="38.0251967" lon="15.2372083"><ele>675.0</ele><time>2026-04-26T12:44:13.05Z</time></trkpt><trkpt lat="38.0252433" lon="15.237295"><ele>675.0</ele><time>2026-04-26T12:44:14.05Z</time></trkpt><trkpt lat="38.0253017" lon="15.237365"><ele>675.0</ele><time>2026-04-26T12:44:15.05Z</time></trkpt><trkpt lat="38.0253483" lon="15.2374317"><ele>679.8333333333334</ele><time>2026-04-26T12:44:16.05Z</time></trkpt><trkpt lat="38.0254083" lon="15.2375683"><ele>684.6666666666666</ele><time>2026-04-26T12:44:18.05Z</time></trkpt><trkpt lat="38.025435" lon="15.2376433"><ele>689.5</ele><time>2026-04-26T12:44:19.05Z</time></trkpt><trkpt lat="38.0254567" lon="15.2377283"><ele>694.3333333333333</ele><time>2026-04-26T12:44:20.05Z</time></trkpt><trkpt lat="38.02548" lon="15.2378117"><ele>699.1666666666666</ele><time>2026-04-26T12:44:21.05Z</time></trkpt><trkpt lat="38.0254883" lon="15.2379"><ele>704.0</ele><time>2026-04-26T12:44:22.05Z</time></trkpt><trkpt lat="38.0254817" lon="15.2380517"><ele>705.0</ele><time>2026-04-26T12:44:24.05Z</time></trkpt><trkpt lat="38.02543" lon="15.238135"><ele>706.0</ele><time>2026-04-26T12:44:26.05Z</time></trkpt><trkpt lat="38.02534" lon="15.23819"><ele>707.0</ele><time>2026-04-26T12:44:28.05Z</time></trkpt><trkpt lat="38.0252817" lon="15.238235"><ele>708.0</ele><time>2026-04-26T12:44:29.05Z</time></trkpt><trkpt lat="38.0252333" lon="15.2382867"><ele>709.0</ele><time>2026-04-26T12:44:30.05Z</time></trkpt><trkpt lat="38.02519" lon="15.238345"><ele>710.0</ele><time>2026-04-26T12:44:31.05Z</time></trkpt><trkpt lat="38.0251583" lon="15.23844"><ele>710.0</ele><time>2026-04-26T12:44:32.05Z</time></trkpt><trkpt lat="38.02514" lon="15.2385383"><ele>710.0</ele><time>2026-04-26T12:44:33.05Z</time></trkpt><trkpt lat="38.02512" lon="15.2386283"><ele>710.0</ele><time>2026-04-26T12:44:34.05Z</time></trkpt><trkpt lat="38.0251083" lon="15.2387133"><ele>710.0</ele><time>2026-04-26T12:44:35.051Z</time></trkpt><trkpt lat="38.0251033" lon="15.23882"><ele>710.0</ele><time>2026-04-26T12:44:37.05Z</time></trkpt><trkpt lat="38.0251767" lon="15.238855"><ele>710.0</ele><time>2026-04-26T12:44:40.05Z</time></trkpt><trkpt lat="38.0252533" lon="15.238815"><ele>710.0</ele><time>2026-04-26T12:44:42.05Z</time></trkpt><trkpt lat="38.0253217" lon="15.23884"><ele>710.0</ele><time>2026-04-26T12:44:44.05Z</time></trkpt><trkpt lat="38.02539" lon="15.2388733"><ele>710.0</ele><time>2026-04-26T12:44:46.05Z</time></trkpt><trkpt lat="38.0254983" lon="15.23892"><ele>710.0</ele><time>2026-04-26T12:44:48.05Z</time></trkpt><trkpt lat="38.0256233" lon="15.2389933"><ele>710.0</ele><time>2026-04-26T12:44:50.05Z</time></trkpt><trkpt lat="38.025705" lon="15.23902"><ele>710.0</ele><time>2026-04-26T12:44:51.05Z</time></trkpt><trkpt lat="38.0257717" lon="15.2390417"><ele>710.0</ele><time>2026-04-26T12:44:52.05Z</time></trkpt><trkpt lat="38.0258317" lon="15.2390683"><ele>710.0</ele><time>2026-04-26T12:44:53.05Z</time></trkpt><trkpt lat="38.0259267" lon="15.23913"><ele>710.0</ele><time>2026-04-26T12:44:55.051Z</time></trkpt><trkpt lat="38.0259783" lon="15.2392017"><ele>710.0</ele><time>2026-04-26T12:44:56.05Z</time></trkpt><trkpt lat="38.0260267" lon="15.2392683"><ele>710.0</ele><time>2026-04-26T12:44:57.05Z</time></trkpt><trkpt lat="38.02608" lon="15.2393717"><ele>704.2</ele><time>2026-04-26T12:44:59.05Z</time></trkpt><trkpt lat="38.0261267" lon="15.239305"><ele>698.4</ele><time>2026-04-26T12:45:03.05Z</time></trkpt><trkpt lat="38.02612" lon="15.23916"><ele>692.5999999999999</ele><time>2026-04-26T12:45:05.051Z</time></trkpt><trkpt lat="38.0260667" lon="15.2390467"><ele>686.8</ele><time>2026-04-26T12:45:07.05Z</time></trkpt><trkpt lat="38.0259867" lon="15.2389867"><ele>681.0</ele><time>2026-04-26T12:45:09.05Z</time></trkpt><trkpt lat="38.0258783" lon="15.2389283"><ele>679.5</ele><time>2026-04-26T12:45:11.05Z</time></trkpt><trkpt lat="38.0257833" lon="15.2388733"><ele>678.0</ele><time>2026-04-26T12:45:13.05Z</time></trkpt><trkpt lat="38.0257533" lon="15.2387983"><ele>676.5</ele><time>2026-04-26T12:45:16.05Z</time></trkpt><trkpt lat="38.0258383" lon="15.2388167"><ele>675.0</ele><time>2026-04-26T12:45:19.05Z</time></trkpt><trkpt lat="38.025955" lon="15.2388617"><ele>673.5</ele><time>2026-04-26T12:45:21.05Z</time></trkpt><trkpt lat="38.02602" lon="15.23888"><ele>672.0</ele><time>2026-04-26T12:45:22.05Z</time></trkpt><trkpt lat="38.0260867" lon="15.2389117"><ele>672.0</ele><time>2026-04-26T12:45:23.05Z</time></trkpt><trkpt lat="38.026145" lon="15.238945"><ele>672.0</ele><time>2026-04-26T12:45:24.05Z</time></trkpt><trkpt lat="38.02622" lon="15.2390633"><ele>672.0</ele><time>2026-04-26T12:45:26.05Z</time></trkpt><trkpt lat="38.02626" lon="15.2391567"><ele>672.0</ele><time>2026-04-26T12:45:27.05Z</time></trkpt><trkpt lat="38.026285" lon="15.239245"><ele>672.0</ele><time>2026-04-26T12:45:28.05Z</time></trkpt><trkpt lat="38.026315" lon="15.239335"><ele>672.0</ele><time>2026-04-26T12:45:29.05Z</time></trkpt><trkpt lat="38.02636" lon="15.23941"><ele>673.5</ele><time>2026-04-26T12:45:30.05Z</time></trkpt><trkpt lat="38.02641" lon="15.23947"><ele>675.0</ele><time>2026-04-26T12:45:31.05Z</time></trkpt><trkpt lat="38.026465" lon="15.23951"><ele>676.5</ele><time>2026-04-26T12:45:32.05Z</time></trkpt><trkpt lat="38.0265317" lon="15.2395767"><ele>678.0</ele><time>2026-04-26T12:45:34.05Z</time></trkpt><trkpt lat="38.02655" lon="15.239685"><ele>679.5</ele><time>2026-04-26T12:45:36.051Z</time></trkpt><trkpt lat="38.0265633" lon="15.23982"><ele>681.0</ele><time>2026-04-26T12:45:38.05Z</time></trkpt><trkpt lat="38.0265917" lon="15.2399067"><ele>683.5</ele><time>2026-04-26T12:45:39.05Z</time></trkpt><trkpt lat="38.02661" lon="15.2399983"><ele>686.0</ele><time>2026-04-26T12:45:40.05Z</time></trkpt><trkpt lat="38.0266183" lon="15.2400883"><ele>688.5</ele><time>2026-04-26T12:45:41.05Z</time></trkpt><trkpt lat="38.0266133" lon="15.2401783"><ele>691.0</ele><time>2026-04-26T12:45:42.05Z</time></trkpt><trkpt lat="38.026595" lon="15.2402667"><ele>693.5</ele><time>2026-04-26T12:45:43.05Z</time></trkpt><trkpt lat="38.026585" lon="15.2403617"><ele>696.0</ele><time>2026-04-26T12:45:44.05Z</time></trkpt><trkpt lat="38.0265883" lon="15.2404717"><ele>696.0</ele><time>2026-04-26T12:45:45.05Z</time></trkpt><trkpt lat="38.0265917" lon="15.240575"><ele>696.0</ele><time>2026-04-26T12:45:46.05Z</time></trkpt><trkpt lat="38.026595" lon="15.2406717"><ele>696.0</ele><time>2026-04-26T12:45:47.05Z</time></trkpt><trkpt lat="38.02659" lon="15.240765"><ele>696.0</ele><time>2026-04-26T12:45:48.05Z</time></trkpt><trkpt lat="38.0265883" lon="15.240865"><ele>696.0</ele><time>2026-04-26T12:45:49.05Z</time></trkpt><trkpt lat="38.0265933" lon="15.24097"><ele>696.0</ele><time>2026-04-26T12:45:50.051Z</time></trkpt><trkpt lat="38.0266117" lon="15.24109"><ele>695.6666666666666</ele><time>2026-04-26T12:45:51.05Z</time></trkpt><trkpt lat="38.0266317" lon="15.2412267"><ele>695.3333333333334</ele><time>2026-04-26T12:45:52.051Z</time></trkpt><trkpt lat="38.0266433" lon="15.241345"><ele>695.0</ele><time>2026-04-26T12:45:53.05Z</time></trkpt><trkpt lat="38.02664" lon="15.2414517"><ele>694.6666666666667</ele><time>2026-04-26T12:45:54.05Z</time></trkpt><trkpt lat="38.026595" lon="15.2415167"><ele>694.3333333333334</ele><time>2026-04-26T12:45:55.05Z</time></trkpt><trkpt lat="38.0265517" lon="15.241575"><ele>694.0</ele><time>2026-04-26T12:45:56.05Z</time></trkpt><trkpt lat="38.0265417" lon="15.2417067"><ele>692.3333333333334</ele><time>2026-04-26T12:45:58.05Z</time></trkpt><trkpt lat="38.026565" lon="15.2417917"><ele>690.6666666666667</ele><time>2026-04-26T12:45:59.05Z</time></trkpt><trkpt lat="38.026605" lon="15.2418883"><ele>689.0</ele><time>2026-04-26T12:46:00.051Z</time></trkpt><trkpt lat="38.02665" lon="15.2419767"><ele>687.3333333333334</ele><time>2026-04-26T12:46:01.05Z</time></trkpt><trkpt lat="38.0266917" lon="15.2420783"><ele>685.6666666666666</ele><time>2026-04-26T12:46:02.05Z</time></trkpt><trkpt lat="38.0267367" lon="15.2421817"><ele>684.0</ele><time>2026-04-26T12:46:03.05Z</time></trkpt><trkpt lat="38.0267917" lon="15.242285"><ele>680.3333333333334</ele><time>2026-04-26T12:46:04.05Z</time></trkpt><trkpt lat="38.026835" lon="15.2423867"><ele>676.6666666666666</ele><time>2026-04-26T12:46:05.05Z</time></trkpt><trkpt lat="38.0268617" lon="15.2424733"><ele>673.0</ele><time>2026-04-26T12:46:06.05Z</time></trkpt><trkpt lat="38.0268633" lon="15.2425633"><ele>669.3333333333333</ele><time>2026-04-26T12:46:07.05Z</time></trkpt><trkpt lat="38.0268517" lon="15.2426583"><ele>665.6666666666666</ele><time>2026-04-26T12:46:08.05Z</time></trkpt><trkpt lat="38.02681" lon="15.24273"><ele>662.0</ele><time>2026-04-26T12:46:09.05Z</time></trkpt><trkpt lat="38.0267733" lon="15.2428233"><ele>662.0</ele><time>2026-04-26T12:46:10.05Z</time></trkpt><trkpt lat="38.0267483" lon="15.242925"><ele>662.0</ele><time>2026-04-26T12:46:11.05Z</time></trkpt><trkpt lat="38.0267283" lon="15.24302"><ele>662.0</ele><time>2026-04-26T12:46:12.05Z</time></trkpt><trkpt lat="38.0267117" lon="15.2431117"><ele>662.0</ele><time>2026-04-26T12:46:13.05Z</time></trkpt><trkpt lat="38.026715" lon="15.2432283"><ele>662.0</ele><time>2026-04-26T12:46:15.05Z</time></trkpt><trkpt lat="38.02674" lon="15.2433017"><ele>662.0</ele><time>2026-04-26T12:46:17.05Z</time></trkpt><trkpt lat="38.0268183" lon="15.2433533"><ele>664.25</ele><time>2026-04-26T12:46:19.05Z</time></trkpt><trkpt lat="38.0269283" lon="15.2434117"><ele>666.5</ele><time>2026-04-26T12:46:21.05Z</time></trkpt><trkpt lat="38.027035" lon="15.24348"><ele>668.75</ele><time>2026-04-26T12:46:23.05Z</time></trkpt><trkpt lat="38.02714" lon="15.243595"><ele>671.0</ele><time>2026-04-26T12:46:25.05Z</time></trkpt><trkpt lat="38.0272017" lon="15.2436667"><ele>671.0</ele><time>2026-04-26T12:46:26.05Z</time></trkpt><trkpt lat="38.027265" lon="15.2437517"><ele>671.0</ele><time>2026-04-26T12:46:27.05Z</time></trkpt><trkpt lat="38.0273117" lon="15.2438483"><ele>671.0</ele><time>2026-04-26T12:46:28.05Z</time></trkpt><trkpt lat="38.027355" lon="15.24393"><ele>671.0</ele><time>2026-04-26T12:46:29.051Z</time></trkpt><trkpt lat="38.0273783" lon="15.244005"><ele>671.0</ele><time>2026-04-26T12:46:30.05Z</time></trkpt><trkpt lat="38.027405" lon="15.2441283"><ele>671.0</ele><time>2026-04-26T12:46:32.05Z</time></trkpt><trkpt lat="38.0274433" lon="15.2442083"><ele>670.5714285714286</ele><time>2026-04-26T12:46:34.05Z</time></trkpt><trkpt lat="38.027515" lon="15.2442283"><ele>670.1428571428572</ele><time>2026-04-26T12:46:37.05Z</time></trkpt><trkpt lat="38.0275817" lon="15.2441783"><ele>669.7142857142858</ele><time>2026-04-26T12:46:39.05Z</time></trkpt><trkpt lat="38.02764" lon="15.244115"><ele>669.2857142857142</ele><time>2026-04-26T12:46:41.05Z</time></trkpt><trkpt lat="38.0276833" lon="15.2440283"><ele>668.8571428571429</ele><time>2026-04-26T12:46:43.05Z</time></trkpt><trkpt lat="38.0276983" lon="15.24395"><ele>668.4285714285714</ele><time>2026-04-26T12:46:45.05Z</time></trkpt><trkpt lat="38.0277067" lon="15.243855"><ele>668.0</ele><time>2026-04-26T12:46:48.05Z</time></trkpt><trkpt lat="38.0277467" lon="15.2437917"><ele>668.0</ele><time>2026-04-26T12:46:51.05Z</time></trkpt><trkpt lat="38.0278017" lon="15.243745"><ele>668.0</ele><time>2026-04-26T12:47:27.05Z</time></trkpt><trkpt lat="38.0278617" lon="15.2437083"><ele>668.0</ele><time>2026-04-26T12:47:28.05Z</time></trkpt><trkpt lat="38.02793" lon="15.243625"><ele>668.0</ele><time>2026-04-26T12:47:30.05Z</time></trkpt><trkpt lat="38.0279467" lon="15.2435033"><ele>668.0</ele><time>2026-04-26T12:47:32.05Z</time></trkpt><trkpt lat="38.0278967" lon="15.2433483"><ele>668.0</ele><time>2026-04-26T12:47:34.05Z</time></trkpt><trkpt lat="38.0278783" lon="15.243255"><ele>668.0</ele><time>2026-04-26T12:47:35.05Z</time></trkpt><trkpt lat="38.027855" lon="15.243155"><ele>668.0</ele><time>2026-04-26T12:47:36.05Z</time></trkpt><trkpt lat="38.0278183" lon="15.2430533"><ele>668.0</ele><time>2026-04-26T12:47:37.05Z</time></trkpt><trkpt lat="38.02776" lon="15.24295"><ele>668.0</ele><time>2026-04-26T12:47:38.05Z</time></trkpt><trkpt lat="38.0277017" lon="15.2428533"><ele>668.0</ele><time>2026-04-26T12:47:39.05Z</time></trkpt><trkpt lat="38.0276617" lon="15.2427583"><ele>666.8333333333333</ele><time>2026-04-26T12:47:40.05Z</time></trkpt><trkpt lat="38.02764" lon="15.2426667"><ele>665.6666666666666</ele><time>2026-04-26T12:47:41.05Z</time></trkpt><trkpt lat="38.0276417" lon="15.24257"><ele>664.5</ele><time>2026-04-26T12:47:42.05Z</time></trkpt><trkpt lat="38.027655" lon="15.2424633"><ele>663.3333333333334</ele><time>2026-04-26T12:47:43.05Z</time></trkpt><trkpt lat="38.02768" lon="15.2423683"><ele>662.1666666666667</ele><time>2026-04-26T12:47:44.05Z</time></trkpt><trkpt lat="38.0277183" lon="15.2422883"><ele>661.0</ele><time>2026-04-26T12:47:45.05Z</time></trkpt><trkpt lat="38.02782" lon="15.2421917"><ele>659.5</ele><time>2026-04-26T12:47:47.05Z</time></trkpt><trkpt lat="38.0278883" lon="15.2421683"><ele>658.0</ele><time>2026-04-26T12:47:48.05Z</time></trkpt><trkpt lat="38.02796" lon="15.24215"><ele>656.5</ele><time>2026-04-26T12:47:49.05Z</time></trkpt><trkpt lat="38.0280367" lon="15.2421483"><ele>655.0</ele><time>2026-04-26T12:47:50.05Z</time></trkpt><trkpt lat="38.0281233" lon="15.2421567"><ele>653.5</ele><time>2026-04-26T12:47:51.05Z</time></trkpt><trkpt lat="38.0281983" lon="15.2421517"><ele>652.0</ele><time>2026-04-26T12:47:52.05Z</time></trkpt><trkpt lat="38.0283017" lon="15.2421883"><ele>655.5</ele><time>2026-04-26T12:47:54.05Z</time></trkpt><trkpt lat="38.0283867" lon="15.24224"><ele>659.0</ele><time>2026-04-26T12:47:56.05Z</time></trkpt><trkpt lat="38.028445" lon="15.2422083"><ele>662.5</ele><time>2026-04-26T12:47:58.05Z</time></trkpt><trkpt lat="38.02845" lon="15.2420883"><ele>666.0</ele><time>2026-04-26T12:48:01.05Z</time></trkpt><trkpt lat="38.0284367" lon="15.2419567"><ele>669.5</ele><time>2026-04-26T12:48:03.05Z</time></trkpt><trkpt lat="38.0284367" lon="15.2418733"><ele>673.0</ele><time>2026-04-26T12:48:04.05Z</time></trkpt><trkpt lat="38.0284433" lon="15.2417683"><ele>673.0</ele><time>2026-04-26T12:48:05.05Z</time></trkpt><trkpt lat="38.02844" lon="15.24166"><ele>673.0</ele><time>2026-04-26T12:48:06.05Z</time></trkpt><trkpt lat="38.0284467" lon="15.2415617"><ele>673.0</ele><time>2026-04-26T12:48:07.05Z</time></trkpt><trkpt lat="38.0284683" lon="15.2414667"><ele>673.0</ele><time>2026-04-26T12:48:08.05Z</time></trkpt><trkpt lat="38.0285083" lon="15.24139"><ele>673.0</ele><time>2026-04-26T12:48:09.05Z</time></trkpt><trkpt lat="38.0285583" lon="15.24132"><ele>673.0</ele><time>2026-04-26T12:48:10.05Z</time></trkpt><trkpt lat="38.0286233" lon="15.2412517"><ele>672.3333333333334</ele><time>2026-04-26T12:48:11.05Z</time></trkpt><trkpt lat="38.028675" lon="15.24117"><ele>671.6666666666667</ele><time>2026-04-26T12:48:12.05Z</time></trkpt><trkpt lat="38.0287167" lon="15.2411"><ele>671.0</ele><time>2026-04-26T12:48:13.05Z</time></trkpt><trkpt lat="38.0287017" lon="15.24098"><ele>670.3333333333334</ele><time>2026-04-26T12:48:15.05Z</time></trkpt><trkpt lat="38.0286717" lon="15.2409067"><ele>669.6666666666666</ele><time>2026-04-26T12:48:16.05Z</time></trkpt><trkpt lat="38.028685" lon="15.240745"><ele>669.0</ele><time>2026-04-26T12:48:18.05Z</time></trkpt><trkpt lat="38.02873" lon="15.2406417"><ele>667.8333333333334</ele><time>2026-04-26T12:48:19.05Z</time></trkpt><trkpt lat="38.0287717" lon="15.2405333"><ele>666.6666666666666</ele><time>2026-04-26T12:48:20.05Z</time></trkpt><trkpt lat="38.0288067" lon="15.2404233"><ele>665.5</ele><time>2026-04-26T12:48:21.05Z</time></trkpt><trkpt lat="38.028845" lon="15.240325"><ele>664.3333333333333</ele><time>2026-04-26T12:48:22.05Z</time></trkpt><trkpt lat="38.0288933" lon="15.2402433"><ele>663.1666666666666</ele><time>2026-04-26T12:48:23.05Z</time></trkpt><trkpt lat="38.0289467" lon="15.2401967"><ele>662.0</ele><time>2026-04-26T12:48:24.05Z</time></trkpt><trkpt lat="38.029085" lon="15.2402017"><ele>666.2</ele><time>2026-04-26T12:48:26.05Z</time></trkpt><trkpt lat="38.029165" lon="15.240235"><ele>670.4000000000001</ele><time>2026-04-26T12:48:27.05Z</time></trkpt><trkpt lat="38.0292383" lon="15.2402533"><ele>674.5999999999999</ele><time>2026-04-26T12:48:28.05Z</time></trkpt><trkpt lat="38.029355" lon="15.2401933"><ele>678.8</ele><time>2026-04-26T12:48:30.05Z</time></trkpt><trkpt lat="38.029405" lon="15.2400983"><ele>683.0</ele><time>2026-04-26T12:48:31.05Z</time></trkpt><trkpt lat="38.0294567" lon="15.24"><ele>683.0</ele><time>2026-04-26T12:48:32.05Z</time></trkpt><trkpt lat="38.029495" lon="15.2398883"><ele>683.0</ele><time>2026-04-26T12:48:33.05Z</time></trkpt><trkpt lat="38.029525" lon="15.2397817"><ele>683.0</ele><time>2026-04-26T12:48:34.05Z</time></trkpt><trkpt lat="38.0295567" lon="15.2396767"><ele>683.0</ele><time>2026-04-26T12:48:35.05Z</time></trkpt><trkpt lat="38.0295917" lon="15.2395883"><ele>683.0</ele><time>2026-04-26T12:48:36.05Z</time></trkpt><trkpt lat="38.029645" lon="15.2395217"><ele>683.0</ele><time>2026-04-26T12:48:37.05Z</time></trkpt><trkpt lat="38.0297117" lon="15.239455"><ele>678.2</ele><time>2026-04-26T12:48:38.05Z</time></trkpt><trkpt lat="38.0297833" lon="15.239375"><ele>673.4</ele><time>2026-04-26T12:48:39.05Z</time></trkpt><trkpt lat="38.02985" lon="15.2392833"><ele>668.6</ele><time>2026-04-26T12:48:40.05Z</time></trkpt><trkpt lat="38.0299" lon="15.2391783"><ele>663.8000000000001</ele><time>2026-04-26T12:48:41.05Z</time></trkpt><trkpt lat="38.02995" lon="15.2390667"><ele>659.0</ele><time>2026-04-26T12:48:42.05Z</time></trkpt><trkpt lat="38.0299983" lon="15.238965"><ele>659.0</ele><time>2026-04-26T12:48:43.05Z</time></trkpt><trkpt lat="38.0300217" lon="15.23888"><ele>659.0</ele><time>2026-04-26T12:48:44.05Z</time></trkpt><trkpt lat="38.0300383" lon="15.23879"><ele>659.0</ele><time>2026-04-26T12:48:45.05Z</time></trkpt><trkpt lat="38.0300833" lon="15.2386617"><ele>659.0</ele><time>2026-04-26T12:48:47.05Z</time></trkpt><trkpt lat="38.0301783" lon="15.2386067"><ele>659.0</ele><time>2026-04-26T12:48:49.051Z</time></trkpt><trkpt lat="38.0302483" lon="15.2385983"><ele>659.0</ele><time>2026-04-26T12:48:50.05Z</time></trkpt><trkpt lat="38.0303283" lon="15.23857"><ele>659.0</ele><time>2026-04-26T12:48:51.05Z</time></trkpt><trkpt lat="38.0303883" lon="15.238505"><ele>659.0</ele><time>2026-04-26T12:48:52.05Z</time></trkpt><trkpt lat="38.03043" lon="15.2384283"><ele>659.0</ele><time>2026-04-26T12:48:53.051Z</time></trkpt><trkpt lat="38.030455" lon="15.2383483"><ele>659.0</ele><time>2026-04-26T12:48:54.05Z</time></trkpt><trkpt lat="38.0304517" lon="15.238245"><ele>659.0</ele><time>2026-04-26T12:48:55.05Z</time></trkpt><trkpt lat="38.030435" lon="15.2381483"><ele>659.0</ele><time>2026-04-26T12:48:56.05Z</time></trkpt><trkpt lat="38.0304317" lon="15.2380633"><ele>659.0</ele><time>2026-04-26T12:48:57.05Z</time></trkpt><trkpt lat="38.0304967" lon="15.2379367"><ele>658.6666666666666</ele><time>2026-04-26T12:48:59.05Z</time></trkpt><trkpt lat="38.03056" lon="15.2378833"><ele>658.3333333333333</ele><time>2026-04-26T12:49:00.05Z</time></trkpt><trkpt lat="38.0306317" lon="15.23784"><ele>658.0</ele><time>2026-04-26T12:49:01.051Z</time></trkpt><trkpt lat="38.0307" lon="15.237795"><ele>657.6666666666666</ele><time>2026-04-26T12:49:02.05Z</time></trkpt><trkpt lat="38.0307617" lon="15.2377483"><ele>657.3333333333334</ele><time>2026-04-26T12:49:03.05Z</time></trkpt><trkpt lat="38.030805" lon="15.2376833"><ele>657.0</ele><time>2026-04-26T12:49:04.05Z</time></trkpt><trkpt lat="38.0308717" lon="15.2375667"><ele>657.0</ele><time>2026-04-26T12:49:06.05Z</time></trkpt><trkpt lat="38.0309567" lon="15.2375833"><ele>657.0</ele><time>2026-04-26T12:49:08.05Z</time></trkpt><trkpt lat="38.0310167" lon="15.2376333"><ele>657.0</ele><time>2026-04-26T12:49:09.05Z</time></trkpt><trkpt lat="38.0310883" lon="15.2376633"><ele>657.0</ele><time>2026-04-26T12:49:10.05Z</time></trkpt><trkpt lat="38.03116" lon="15.2376767"><ele>657.0</ele><time>2026-04-26T12:49:11.05Z</time></trkpt><trkpt lat="38.0312333" lon="15.237675"><ele>657.0</ele><time>2026-04-26T12:49:12.05Z</time></trkpt><trkpt lat="38.0313133" lon="15.2376283"><ele>657.0</ele><time>2026-04-26T12:49:14.05Z</time></trkpt><trkpt lat="38.0313333" lon="15.2375167"><ele>657.0</ele><time>2026-04-26T12:49:16.05Z</time></trkpt><trkpt lat="38.0312817" lon="15.237455"><ele>657.0</ele><time>2026-04-26T12:49:18.05Z</time></trkpt><trkpt lat="38.0312233" lon="15.237425"><ele>657.0</ele><time>2026-04-26T12:49:19.05Z</time></trkpt><trkpt lat="38.0311333" lon="15.2373383"><ele>657.0</ele><time>2026-04-26T12:49:21.05Z</time></trkpt><trkpt lat="38.03111" lon="15.2371983"><ele>653.6666666666666</ele><time>2026-04-26T12:49:23.051Z</time></trkpt><trkpt lat="38.0310883" lon="15.23712"><ele>650.3333333333334</ele><time>2026-04-26T12:49:24.05Z</time></trkpt><trkpt lat="38.031055" lon="15.23704"><ele>647.0</ele><time>2026-04-26T12:49:25.05Z</time></trkpt><trkpt lat="38.03101" lon="15.23696"><ele>643.6666666666667</ele><time>2026-04-26T12:49:26.051Z</time></trkpt><trkpt lat="38.03096" lon="15.2368783"><ele>640.3333333333334</ele><time>2026-04-26T12:49:27.05Z</time></trkpt><trkpt lat="38.030915" lon="15.2367767"><ele>637.0</ele><time>2026-04-26T12:49:28.05Z</time></trkpt><trkpt lat="38.03088" lon="15.23667"><ele>637.0</ele><time>2026-04-26T12:49:29.05Z</time></trkpt><trkpt lat="38.0308433" lon="15.2365633"><ele>637.0</ele><time>2026-04-26T12:49:30.05Z</time></trkpt><trkpt lat="38.0307967" lon="15.23648"><ele>637.0</ele><time>2026-04-26T12:49:31.05Z</time></trkpt><trkpt lat="38.0307533" lon="15.2364033"><ele>637.0</ele><time>2026-04-26T12:49:32.05Z</time></trkpt><trkpt lat="38.0306967" lon="15.2362883"><ele>637.0</ele><time>2026-04-26T12:49:34.05Z</time></trkpt><trkpt lat="38.0307217" lon="15.2361933"><ele>637.0</ele><time>2026-04-26T12:49:36.05Z</time></trkpt><trkpt lat="38.0308267" lon="15.2362317"><ele>637.0</ele><time>2026-04-26T12:49:38.05Z</time></trkpt><trkpt lat="38.0309067" lon="15.23628"><ele>637.0</ele><time>2026-04-26T12:49:39.05Z</time></trkpt><trkpt lat="38.0309983" lon="15.23633"><ele>637.0</ele><time>2026-04-26T12:49:40.05Z</time></trkpt><trkpt lat="38.03108" lon="15.236355"><ele>637.0</ele><time>2026-04-26T12:49:41.05Z</time></trkpt><trkpt lat="38.03115" lon="15.2363867"><ele>637.0</ele><time>2026-04-26T12:49:42.05Z</time></trkpt><trkpt lat="38.031215" lon="15.236445"><ele>637.0</ele><time>2026-04-26T12:49:43.05Z</time></trkpt><trkpt lat="38.03126" lon="15.23651"><ele>637.0</ele><time>2026-04-26T12:49:44.05Z</time></trkpt><trkpt lat="38.031285" lon="15.236595"><ele>637.0</ele><time>2026-04-26T12:49:45.051Z</time></trkpt><trkpt lat="38.0313167" lon="15.2366783"><ele>637.0</ele><time>2026-04-26T12:49:46.05Z</time></trkpt><trkpt lat="38.031405" lon="15.2367517"><ele>637.0</ele><time>2026-04-26T12:49:48.05Z</time></trkpt><trkpt lat="38.0314783" lon="15.236755"><ele>637.0</ele><time>2026-04-26T12:49:49.05Z</time></trkpt><trkpt lat="38.0315533" lon="15.2367517"><ele>637.0</ele><time>2026-04-26T12:49:50.05Z</time></trkpt><trkpt lat="38.03164" lon="15.2367617"><ele>634.1666666666667</ele><time>2026-04-26T12:49:51.05Z</time></trkpt><trkpt lat="38.0317267" lon="15.236775"><ele>631.3333333333334</ele><time>2026-04-26T12:49:52.05Z</time></trkpt><trkpt lat="38.0317917" lon="15.236785"><ele>628.5</ele><time>2026-04-26T12:49:53.05Z</time></trkpt><trkpt lat="38.0318517" lon="15.2367533"><ele>625.6666666666666</ele><time>2026-04-26T12:49:55.05Z</time></trkpt><trkpt lat="38.0318317" lon="15.236635"><ele>622.8333333333333</ele><time>2026-04-26T12:49:57.05Z</time></trkpt><trkpt lat="38.0317883" lon="15.2365683"><ele>620.0</ele><time>2026-04-26T12:49:58.051Z</time></trkpt><trkpt lat="38.03173" lon="15.2365083"><ele>620.0</ele><time>2026-04-26T12:49:59.051Z</time></trkpt><trkpt lat="38.0316567" lon="15.2364767"><ele>620.0</ele><time>2026-04-26T12:50:00.05Z</time></trkpt><trkpt lat="38.0315583" lon="15.2364283"><ele>620.0</ele><time>2026-04-26T12:50:02.05Z</time></trkpt><trkpt lat="38.0315233" lon="15.2363317"><ele>620.0</ele><time>2026-04-26T12:50:04.05Z</time></trkpt><trkpt lat="38.0315133" lon="15.23617"><ele>620.0</ele><time>2026-04-26T12:50:06.05Z</time></trkpt><trkpt lat="38.0314767" lon="15.2360633"><ele>620.1666666666666</ele><time>2026-04-26T12:50:08.05Z</time></trkpt><trkpt lat="38.0313833" lon="15.2360033"><ele>620.3333333333333</ele><time>2026-04-26T12:50:10.05Z</time></trkpt><trkpt lat="38.03128" lon="15.2358917"><ele>620.5</ele><time>2026-04-26T12:50:12.05Z</time></trkpt><trkpt lat="38.0312417" lon="15.2358167"><ele>620.6666666666666</ele><time>2026-04-26T12:50:13.05Z</time></trkpt><trkpt lat="38.0311983" lon="15.2357467"><ele>620.8333333333334</ele><time>2026-04-26T12:50:14.05Z</time></trkpt><trkpt lat="38.0311467" lon="15.2356967"><ele>621.0</ele><time>2026-04-26T12:50:15.05Z</time></trkpt><trkpt lat="38.0310983" lon="15.2356383"><ele>617.5</ele><time>2026-04-26T12:50:16.051Z</time></trkpt><trkpt lat="38.0310483" lon="15.2355133"><ele>614.0</ele><time>2026-04-26T12:50:18.05Z</time></trkpt><trkpt lat="38.0310467" lon="15.2354333"><ele>610.5</ele><time>2026-04-26T12:50:19.05Z</time></trkpt><trkpt lat="38.0310533" lon="15.2353367"><ele>607.0</ele><time>2026-04-26T12:50:20.05Z</time></trkpt><trkpt lat="38.0310533" lon="15.23523"><ele>603.5</ele><time>2026-04-26T12:50:21.05Z</time></trkpt><trkpt lat="38.031055" lon="15.2351117"><ele>600.0</ele><time>2026-04-26T12:50:22.051Z</time></trkpt><trkpt lat="38.0310567" lon="15.2350033"><ele>600.0</ele><time>2026-04-26T12:50:23.05Z</time></trkpt><trkpt lat="38.031055" lon="15.2349033"><ele>600.0</ele><time>2026-04-26T12:50:24.05Z</time></trkpt><trkpt lat="38.03104" lon="15.2348183"><ele>600.0</ele><time>2026-04-26T12:50:25.05Z</time></trkpt><trkpt lat="38.0309683" lon="15.23472"><ele>600.0</ele><time>2026-04-26T12:50:27.05Z</time></trkpt><trkpt lat="38.030895" lon="15.234665"><ele>600.0</ele><time>2026-04-26T12:50:29.05Z</time></trkpt><trkpt lat="38.0309967" lon="15.2346333"><ele>600.0</ele><time>2026-04-26T12:50:34.05Z</time></trkpt><trkpt lat="38.0310583" lon="15.23465"><ele>599.9999999999999</ele><time>2026-04-26T12:50:35.05Z</time></trkpt><trkpt lat="38.0311233" lon="15.23468"><ele>600.0</ele><time>2026-04-26T12:50:36.05Z</time></trkpt><trkpt lat="38.03118" lon="15.2347317"><ele>600.0</ele><time>2026-04-26T12:50:37.05Z</time></trkpt><trkpt lat="38.0312267" lon="15.2348"><ele>600.0</ele><time>2026-04-26T12:50:38.05Z</time></trkpt><trkpt lat="38.0312533" lon="15.2348933"><ele>600.0</ele><time>2026-04-26T12:50:39.05Z</time></trkpt><trkpt lat="38.0312817" lon="15.2349867"><ele>599.9999999999999</ele><time>2026-04-26T12:50:40.05Z</time></trkpt><trkpt lat="38.03131" lon="15.2350767"><ele>600.0</ele><time>2026-04-26T12:50:41.051Z</time></trkpt><trkpt lat="38.0313433" lon="15.2351467"><ele>599.9999999999999</ele><time>2026-04-26T12:50:42.05Z</time></trkpt><trkpt lat="38.0313867" lon="15.2352067"><ele>600.0</ele><time>2026-04-26T12:50:43.05Z</time></trkpt><trkpt lat="38.031445" lon="15.23525"><ele>600.0</ele><time>2026-04-26T12:50:44.05Z</time></trkpt><trkpt lat="38.03151" lon="15.235275"><ele>600.0</ele><time>2026-04-26T12:50:45.05Z</time></trkpt><trkpt lat="38.0315783" lon="15.2353083"><ele>600.0</ele><time>2026-04-26T12:50:46.05Z</time></trkpt><trkpt lat="38.0316517" lon="15.235345"><ele>599.9999999999999</ele><time>2026-04-26T12:50:47.05Z</time></trkpt><trkpt lat="38.03171" lon="15.235385"><ele>600.0</ele><time>2026-04-26T12:50:48.05Z</time></trkpt><trkpt lat="38.031765" lon="15.2354367"><ele>593.5</ele><time>2026-04-26T12:50:49.05Z</time></trkpt><trkpt lat="38.0318217" lon="15.2354867"><ele>587.0</ele><time>2026-04-26T12:50:50.05Z</time></trkpt><trkpt lat="38.0319333" lon="15.23553"><ele>580.5</ele><time>2026-04-26T12:50:52.05Z</time></trkpt><trkpt lat="38.032" lon="15.2355083"><ele>574.0</ele><time>2026-04-26T12:50:54.051Z</time></trkpt><trkpt lat="38.0320117" lon="15.2354283"><ele>567.5</ele><time>2026-04-26T12:50:56.05Z</time></trkpt><trkpt lat="38.031955" lon="15.2353183"><ele>561.0</ele><time>2026-04-26T12:50:58.05Z</time></trkpt><trkpt lat="38.0319067" lon="15.23524"><ele>561.0</ele><time>2026-04-26T12:50:59.05Z</time></trkpt><trkpt lat="38.03186" lon="15.2351567"><ele>561.0</ele><time>2026-04-26T12:51:00.05Z</time></trkpt><trkpt lat="38.0318217" lon="15.2350783"><ele>561.0</ele><time>2026-04-26T12:51:01.05Z</time></trkpt><trkpt lat="38.0317917" lon="15.234995"><ele>561.0</ele><time>2026-04-26T12:51:02.051Z</time></trkpt><trkpt lat="38.031765" lon="15.234895"><ele>561.0</ele><time>2026-04-26T12:51:03.05Z</time></trkpt><trkpt lat="38.0317483" lon="15.234795"><ele>561.0</ele><time>2026-04-26T12:51:04.05Z</time></trkpt><trkpt lat="38.0317183" lon="15.234635"><ele>563.1666666666666</ele><time>2026-04-26T12:51:06.049Z</time></trkpt><trkpt lat="38.0316817" lon="15.2345433"><ele>565.3333333333334</ele><time>2026-04-26T12:51:07.049Z</time></trkpt><trkpt lat="38.0316483" lon="15.2344633"><ele>567.5</ele><time>2026-04-26T12:51:08.049Z</time></trkpt><trkpt lat="38.0316117" lon="15.23432"><ele>569.6666666666667</ele><time>2026-04-26T12:51:10.049Z</time></trkpt><trkpt lat="38.0316167" lon="15.2342167"><ele>571.8333333333334</ele><time>2026-04-26T12:51:12.049Z</time></trkpt><trkpt lat="38.031705" lon="15.2342133"><ele>574.0</ele><time>2026-04-26T12:51:15.049Z</time></trkpt><trkpt lat="38.0317783" lon="15.2342867"><ele>568.6666666666667</ele><time>2026-04-26T12:51:17.049Z</time></trkpt><trkpt lat="38.0318767" lon="15.2343"><ele>563.3333333333334</ele><time>2026-04-26T12:51:19.049Z</time></trkpt><trkpt lat="38.03194" lon="15.234265"><ele>558.0</ele><time>2026-04-26T12:51:20.049Z</time></trkpt><trkpt lat="38.03201" lon="15.234205"><ele>552.6666666666666</ele><time>2026-04-26T12:51:21.049Z</time></trkpt><trkpt lat="38.03209" lon="15.2341433"><ele>547.3333333333333</ele><time>2026-04-26T12:51:22.049Z</time></trkpt><trkpt lat="38.0321783" lon="15.23409"><ele>542.0</ele><time>2026-04-26T12:51:23.049Z</time></trkpt><trkpt lat="38.03226" lon="15.2340517"><ele>542.0</ele><time>2026-04-26T12:51:24.05Z</time></trkpt><trkpt lat="38.03234" lon="15.23399"><ele>542.0</ele><time>2026-04-26T12:51:25.049Z</time></trkpt><trkpt lat="38.0324067" lon="15.233905"><ele>542.0</ele><time>2026-04-26T12:51:26.049Z</time></trkpt><trkpt lat="38.0324767" lon="15.2338183"><ele>542.0</ele><time>2026-04-26T12:51:27.049Z</time></trkpt><trkpt lat="38.0325417" lon="15.2337483"><ele>542.0</ele><time>2026-04-26T12:51:28.049Z</time></trkpt><trkpt lat="38.0326033" lon="15.233685"><ele>540.8333333333333</ele><time>2026-04-26T12:51:29.049Z</time></trkpt><trkpt lat="38.03267" lon="15.2336067"><ele>539.6666666666666</ele><time>2026-04-26T12:51:30.049Z</time></trkpt><trkpt lat="38.032725" lon="15.2335183"><ele>538.5</ele><time>2026-04-26T12:51:31.049Z</time></trkpt><trkpt lat="38.0327533" lon="15.233425"><ele>537.3333333333334</ele><time>2026-04-26T12:51:32.049Z</time></trkpt><trkpt lat="38.0327733" lon="15.2333133"><ele>536.1666666666667</ele><time>2026-04-26T12:51:33.049Z</time></trkpt><trkpt lat="38.0327883" lon="15.2332017"><ele>535.0</ele><time>2026-04-26T12:51:34.049Z</time></trkpt><trkpt lat="38.032785" lon="15.2330767"><ele>535.0</ele><time>2026-04-26T12:51:35.049Z</time></trkpt><trkpt lat="38.0327783" lon="15.23296"><ele>535.0</ele><time>2026-04-26T12:51:36.049Z</time></trkpt><trkpt lat="38.0327617" lon="15.2328367"><ele>535.0</ele><time>2026-04-26T12:51:37.049Z</time></trkpt><trkpt lat="38.0327333" lon="15.232725"><ele>535.0</ele><time>2026-04-26T12:51:38.049Z</time></trkpt><trkpt lat="38.03271" lon="15.2326267"><ele>535.0</ele><time>2026-04-26T12:51:39.049Z</time></trkpt><trkpt lat="38.0326983" lon="15.2325333"><ele>535.0</ele><time>2026-04-26T12:51:40.049Z</time></trkpt><trkpt lat="38.0326983" lon="15.232445"><ele>535.0</ele><time>2026-04-26T12:51:41.049Z</time></trkpt><trkpt lat="38.0327217" lon="15.2323433"><ele>535.0</ele><time>2026-04-26T12:51:42.049Z</time></trkpt><trkpt lat="38.0327467" lon="15.2322283"><ele>535.0</ele><time>2026-04-26T12:51:43.049Z</time></trkpt><trkpt lat="38.03276" lon="15.2321133"><ele>535.0</ele><time>2026-04-26T12:51:44.049Z</time></trkpt><trkpt lat="38.0327567" lon="15.2320017"><ele>535.0</ele><time>2026-04-26T12:51:45.049Z</time></trkpt><trkpt lat="38.032735" lon="15.231895"><ele>535.0</ele><time>2026-04-26T12:51:46.049Z</time></trkpt><trkpt lat="38.0326967" lon="15.2317867"><ele>533.2</ele><time>2026-04-26T12:51:47.049Z</time></trkpt><trkpt lat="38.0326633" lon="15.2316833"><ele>531.4</ele><time>2026-04-26T12:51:48.049Z</time></trkpt><trkpt lat="38.0326817" lon="15.231525"><ele>529.6</ele><time>2026-04-26T12:51:50.049Z</time></trkpt><trkpt lat="38.0327317" lon="15.23145"><ele>527.8</ele><time>2026-04-26T12:51:51.049Z</time></trkpt><trkpt lat="38.0328" lon="15.2313783"><ele>526.0</ele><time>2026-04-26T12:51:52.049Z</time></trkpt><trkpt lat="38.0329017" lon="15.231325"><ele>524.2</ele><time>2026-04-26T12:51:53.049Z</time></trkpt><trkpt lat="38.0330133" lon="15.2312533"><ele>522.4000000000001</ele><time>2026-04-26T12:51:54.049Z</time></trkpt><trkpt lat="38.0331117" lon="15.2311917"><ele>520.6</ele><time>2026-04-26T12:51:55.049Z</time></trkpt><trkpt lat="38.0331967" lon="15.231165"><ele>518.8000000000001</ele><time>2026-04-26T12:51:56.049Z</time></trkpt><trkpt lat="38.0332783" lon="15.2311617"><ele>517.0</ele><time>2026-04-26T12:51:57.049Z</time></trkpt><trkpt lat="38.0333633" lon="15.23116"><ele>517.0</ele><time>2026-04-26T12:51:58.049Z</time></trkpt><trkpt lat="38.0334617" lon="15.2311617"><ele>517.0</ele><time>2026-04-26T12:51:59.049Z</time></trkpt><trkpt lat="38.0335567" lon="15.2311583"><ele>517.0</ele><time>2026-04-26T12:52:00.049Z</time></trkpt><trkpt lat="38.0336667" lon="15.2311633"><ele>517.0</ele><time>2026-04-26T12:52:01.049Z</time></trkpt><trkpt lat="38.0337933" lon="15.23118"><ele>517.0</ele><time>2026-04-26T12:52:02.049Z</time></trkpt><trkpt lat="38.0339233" lon="15.2311817"><ele>517.0</ele><time>2026-04-26T12:52:03.049Z</time></trkpt><trkpt lat="38.034035" lon="15.231175"><ele>517.0</ele><time>2026-04-26T12:52:04.049Z</time></trkpt><trkpt lat="38.0341217" lon="15.2311867"><ele>517.0</ele><time>2026-04-26T12:52:05.049Z</time></trkpt><trkpt lat="38.0341933" lon="15.23122"><ele>517.0</ele><time>2026-04-26T12:52:06.049Z</time></trkpt><trkpt lat="38.0342533" lon="15.23127"><ele>517.0</ele><time>2026-04-26T12:52:07.049Z</time></trkpt><trkpt lat="38.0342967" lon="15.2314117"><ele>521.3333333333334</ele><time>2026-04-26T12:52:09.049Z</time></trkpt><trkpt lat="38.0343033" lon="15.2315017"><ele>525.6666666666667</ele><time>2026-04-26T12:52:10.049Z</time></trkpt><trkpt lat="38.034315" lon="15.2315917"><ele>530.0</ele><time>2026-04-26T12:52:11.049Z</time></trkpt><trkpt lat="38.0343417" lon="15.23167"><ele>534.3333333333334</ele><time>2026-04-26T12:52:12.049Z</time></trkpt><trkpt lat="38.03439" lon="15.231745"><ele>538.6666666666666</ele><time>2026-04-26T12:52:13.049Z</time></trkpt><trkpt lat="38.034455" lon="15.2318183"><ele>543.0</ele><time>2026-04-26T12:52:14.049Z</time></trkpt><trkpt lat="38.0345267" lon="15.2319"><ele>543.0</ele><time>2026-04-26T12:52:15.049Z</time></trkpt><trkpt lat="38.0346083" lon="15.2319733"><ele>543.0</ele><time>2026-04-26T12:52:16.049Z</time></trkpt><trkpt lat="38.0346883" lon="15.2320317"><ele>543.0</ele><time>2026-04-26T12:52:17.049Z</time></trkpt><trkpt lat="38.034775" lon="15.232095"><ele>543.0</ele><time>2026-04-26T12:52:18.049Z</time></trkpt><trkpt lat="38.0348517" lon="15.2321583"><ele>543.0</ele><time>2026-04-26T12:52:19.049Z</time></trkpt><trkpt lat="38.034915" lon="15.2322183"><ele>543.0</ele><time>2026-04-26T12:52:20.049Z</time></trkpt><trkpt lat="38.0349667" lon="15.232285"><ele>543.0</ele><time>2026-04-26T12:52:21.049Z</time></trkpt><trkpt lat="38.0350267" lon="15.2324167"><ele>543.0</ele><time>2026-04-26T12:52:23.049Z</time></trkpt><trkpt lat="38.035005" lon="15.2325467"><ele>543.0</ele><time>2026-04-26T12:52:25.049Z</time></trkpt><trkpt lat="38.034965" lon="15.232615"><ele>543.0</ele><time>2026-04-26T12:52:26.049Z</time></trkpt><trkpt lat="38.034925" lon="15.232695"><ele>543.0</ele><time>2026-04-26T12:52:27.049Z</time></trkpt><trkpt lat="38.0348833" lon="15.2328017"><ele>546.6666666666666</ele><time>2026-04-26T12:52:28.049Z</time></trkpt><trkpt lat="38.0348333" lon="15.2329067"><ele>550.3333333333334</ele><time>2026-04-26T12:52:29.049Z</time></trkpt><trkpt lat="38.0347933" lon="15.2330083"><ele>554.0</ele><time>2026-04-26T12:52:30.049Z</time></trkpt><trkpt lat="38.034755" lon="15.2330917"><ele>557.6666666666667</ele><time>2026-04-26T12:52:31.049Z</time></trkpt><trkpt lat="38.03473" lon="15.2331883"><ele>561.3333333333334</ele><time>2026-04-26T12:52:32.049Z</time></trkpt><trkpt lat="38.0347217" lon="15.23328"><ele>565.0</ele><time>2026-04-26T12:52:33.049Z</time></trkpt><trkpt lat="38.034725" lon="15.23337"><ele>568.0</ele><time>2026-04-26T12:52:34.049Z</time></trkpt><trkpt lat="38.03475" lon="15.2334533"><ele>571.0</ele><time>2026-04-26T12:52:35.05Z</time></trkpt><trkpt lat="38.0347867" lon="15.23354"><ele>574.0</ele><time>2026-04-26T12:52:36.049Z</time></trkpt><trkpt lat="38.0348467" lon="15.2336217"><ele>577.0</ele><time>2026-04-26T12:52:37.049Z</time></trkpt><trkpt lat="38.0349067" lon="15.2337"><ele>580.0</ele><time>2026-04-26T12:52:38.049Z</time></trkpt><trkpt lat="38.0349583" lon="15.23377"><ele>583.0</ele><time>2026-04-26T12:52:39.049Z</time></trkpt><trkpt lat="38.03502" lon="15.2338217"><ele>570.0</ele><time>2026-04-26T12:52:40.049Z</time></trkpt><trkpt lat="38.03512" lon="15.23384"><ele>557.0</ele><time>2026-04-26T12:52:42.049Z</time></trkpt><trkpt lat="38.0352133" lon="15.233825"><ele>544.0</ele><time>2026-04-26T12:52:44.049Z</time></trkpt><trkpt lat="38.03533" lon="15.2337967"><ele>531.0</ele><time>2026-04-26T12:52:46.049Z</time></trkpt><trkpt lat="38.03546" lon="15.233755"><ele>518.0</ele><time>2026-04-26T12:52:48.049Z</time></trkpt><trkpt lat="38.0355367" lon="15.2337317"><ele>518.0</ele><time>2026-04-26T12:52:49.049Z</time></trkpt><trkpt lat="38.035615" lon="15.2337033"><ele>518.0</ele><time>2026-04-26T12:52:50.049Z</time></trkpt><trkpt lat="38.0356817" lon="15.23365"><ele>518.0</ele><time>2026-04-26T12:52:51.049Z</time></trkpt><trkpt lat="38.0357667" lon="15.2335933"><ele>518.0</ele><time>2026-04-26T12:52:52.049Z</time></trkpt><trkpt lat="38.03586" lon="15.23354"><ele>518.0</ele><time>2026-04-26T12:52:53.049Z</time></trkpt><trkpt lat="38.0359417" lon="15.2334867"><ele>516.1666666666666</ele><time>2026-04-26T12:52:54.049Z</time></trkpt><trkpt lat="38.0360117" lon="15.2334433"><ele>514.3333333333333</ele><time>2026-04-26T12:52:55.049Z</time></trkpt><trkpt lat="38.03607" lon="15.2333983"><ele>512.5</ele><time>2026-04-26T12:52:56.049Z</time></trkpt><trkpt lat="38.036145" lon="15.2332967"><ele>510.66666666666663</ele><time>2026-04-26T12:52:58.049Z</time></trkpt><trkpt lat="38.0361883" lon="15.2332283"><ele>508.8333333333333</ele><time>2026-04-26T12:53:00.049Z</time></trkpt><trkpt lat="38.0361583" lon="15.2331567"><ele>507.0</ele><time>2026-04-26T12:53:02.049Z</time></trkpt><trkpt lat="38.0360817" lon="15.2331167"><ele>507.0</ele><time>2026-04-26T12:53:04.049Z</time></trkpt><trkpt lat="38.0359933" lon="15.233115"><ele>507.0</ele><time>2026-04-26T12:53:06.049Z</time></trkpt><trkpt lat="38.0359033" lon="15.23312"><ele>507.0</ele><time>2026-04-26T12:53:08.049Z</time></trkpt><trkpt lat="38.0358467" lon="15.2330783"><ele>507.0</ele><time>2026-04-26T12:53:10.049Z</time></trkpt><trkpt lat="38.03583" lon="15.2329767"><ele>507.0</ele><time>2026-04-26T12:54:53.049Z</time></trkpt><trkpt lat="38.03583" lon="15.2328567"><ele>507.0</ele><time>2026-04-26T12:54:55.049Z</time></trkpt><trkpt lat="38.0358483" lon="15.2327783"><ele>507.0</ele><time>2026-04-26T12:54:56.049Z</time></trkpt><trkpt lat="38.0358617" lon="15.2326983"><ele>507.0</ele><time>2026-04-26T12:54:57.049Z</time></trkpt><trkpt lat="38.0358817" lon="15.2326117"><ele>507.0</ele><time>2026-04-26T12:54:58.049Z</time></trkpt><trkpt lat="38.0359083" lon="15.23253"><ele>507.0</ele><time>2026-04-26T12:54:59.049Z</time></trkpt><trkpt lat="38.0359417" lon="15.2324417"><ele>507.0</ele><time>2026-04-26T12:55:00.049Z</time></trkpt><trkpt lat="38.03597" lon="15.23236"><ele>507.0</ele><time>2026-04-26T12:55:01.05Z</time></trkpt><trkpt lat="38.0360083" lon="15.2322817"><ele>507.0</ele><time>2026-04-26T12:55:02.049Z</time></trkpt><trkpt lat="38.036045" lon="15.2322033"><ele>505.8</ele><time>2026-04-26T12:55:03.049Z</time></trkpt><trkpt lat="38.0360867" lon="15.2321167"><ele>504.6</ele><time>2026-04-26T12:55:04.049Z</time></trkpt><trkpt lat="38.0361267" lon="15.2320383"><ele>503.40000000000003</ele><time>2026-04-26T12:55:05.049Z</time></trkpt><trkpt lat="38.03618" lon="15.2319083"><ele>502.20000000000005</ele><time>2026-04-26T12:55:07.049Z</time></trkpt><trkpt lat="38.0362533" lon="15.2318517"><ele>501.0</ele><time>2026-04-26T12:55:09.049Z</time></trkpt><trkpt lat="38.03636" lon="15.2318467"><ele>501.0</ele><time>2026-04-26T12:55:11.049Z</time></trkpt><trkpt lat="38.03646" lon="15.231825"><ele>501.0</ele><time>2026-04-26T12:55:13.049Z</time></trkpt><trkpt lat="38.0365283" lon="15.231785"><ele>501.0</ele><time>2026-04-26T12:55:14.049Z</time></trkpt><trkpt lat="38.0365933" lon="15.2317333"><ele>501.0</ele><time>2026-04-26T12:55:15.049Z</time></trkpt><trkpt lat="38.036665" lon="15.2316867"><ele>501.0</ele><time>2026-04-26T12:55:16.049Z</time></trkpt><trkpt lat="38.036735" lon="15.231645"><ele>501.0</ele><time>2026-04-26T12:55:17.049Z</time></trkpt><trkpt lat="38.0368" lon="15.2316067"><ele>502.6666666666667</ele><time>2026-04-26T12:55:18.049Z</time></trkpt><trkpt lat="38.0368733" lon="15.2315767"><ele>504.33333333333337</ele><time>2026-04-26T12:55:19.049Z</time></trkpt><trkpt lat="38.0369617" lon="15.2315417"><ele>506.0</ele><time>2026-04-26T12:55:20.049Z</time></trkpt><trkpt lat="38.0370517" lon="15.2315017"><ele>507.6666666666667</ele><time>2026-04-26T12:55:21.049Z</time></trkpt><trkpt lat="38.0371383" lon="15.2314633"><ele>509.33333333333337</ele><time>2026-04-26T12:55:22.049Z</time></trkpt><trkpt lat="38.0372167" lon="15.2314033"><ele>511.0</ele><time>2026-04-26T12:55:23.049Z</time></trkpt><trkpt lat="38.037285" lon="15.2313333"><ele>511.00000000000006</ele><time>2026-04-26T12:55:24.049Z</time></trkpt><trkpt lat="38.03734" lon="15.23125"><ele>511.0</ele><time>2026-04-26T12:55:25.049Z</time></trkpt><trkpt lat="38.0373967" lon="15.23116"><ele>511.0</ele><time>2026-04-26T12:55:26.049Z</time></trkpt><trkpt lat="38.0374367" lon="15.2310667"><ele>511.0</ele><time>2026-04-26T12:55:27.05Z</time></trkpt><trkpt lat="38.03746" lon="15.230985"><ele>511.00000000000006</ele><time>2026-04-26T12:55:28.049Z</time></trkpt><trkpt lat="38.0374633" lon="15.230905"><ele>511.0</ele><time>2026-04-26T12:55:29.05Z</time></trkpt><trkpt lat="38.037465" lon="15.2308017"><ele>511.00000000000006</ele><time>2026-04-26T12:55:30.049Z</time></trkpt><trkpt lat="38.0374683" lon="15.2307083"><ele>511.0</ele><time>2026-04-26T12:55:31.049Z</time></trkpt><trkpt lat="38.0374783" lon="15.2305983"><ele>511.0</ele><time>2026-04-26T12:55:32.049Z</time></trkpt><trkpt lat="38.0374983" lon="15.2304983"><ele>511.0</ele><time>2026-04-26T12:55:33.049Z</time></trkpt><trkpt lat="38.0375067" lon="15.2304017"><ele>511.00000000000006</ele><time>2026-04-26T12:55:34.049Z</time></trkpt><trkpt lat="38.0375" lon="15.2302967"><ele>511.0</ele><time>2026-04-26T12:55:35.049Z</time></trkpt><trkpt lat="38.0374717" lon="15.2301783"><ele>511.6</ele><time>2026-04-26T12:55:36.049Z</time></trkpt><trkpt lat="38.03744" lon="15.2300633"><ele>512.2</ele><time>2026-04-26T12:55:37.049Z</time></trkpt><trkpt lat="38.0374083" lon="15.22994"><ele>512.8</ele><time>2026-04-26T12:55:38.049Z</time></trkpt><trkpt lat="38.03738" lon="15.2298"><ele>513.4</ele><time>2026-04-26T12:55:39.049Z</time></trkpt><trkpt lat="38.0373633" lon="15.2296717"><ele>514.0</ele><time>2026-04-26T12:55:40.05Z</time></trkpt><trkpt lat="38.0373533" lon="15.2295417"><ele>514.0</ele><time>2026-04-26T12:55:41.05Z</time></trkpt><trkpt lat="38.0373517" lon="15.229385"><ele>514.0</ele><time>2026-04-26T12:55:42.05Z</time></trkpt><trkpt lat="38.037345" lon="15.2292083"><ele>514.0</ele><time>2026-04-26T12:55:43.049Z</time></trkpt><trkpt lat="38.0373433" lon="15.229035"><ele>514.0</ele><time>2026-04-26T12:55:44.049Z</time></trkpt><trkpt lat="38.03734" lon="15.2289067"><ele>514.0</ele><time>2026-04-26T12:55:45.049Z</time></trkpt><trkpt lat="38.0373267" lon="15.2288033"><ele>514.0</ele><time>2026-04-26T12:55:46.049Z</time></trkpt><trkpt lat="38.0373217" lon="15.228715"><ele>514.0</ele><time>2026-04-26T12:55:47.049Z</time></trkpt><trkpt lat="38.0373733" lon="15.2286033"><ele>514.0</ele><time>2026-04-26T12:55:49.049Z</time></trkpt><trkpt lat="38.0375033" lon="15.22865"><ele>514.0</ele><time>2026-04-26T12:55:51.049Z</time></trkpt><trkpt lat="38.03757" lon="15.2287067"><ele>520.6666666666667</ele><time>2026-04-26T12:55:52.05Z</time></trkpt><trkpt lat="38.0376233" lon="15.2287917"><ele>527.3333333333334</ele><time>2026-04-26T12:55:53.049Z</time></trkpt><trkpt lat="38.0376667" lon="15.2288783"><ele>534.0</ele><time>2026-04-26T12:55:54.049Z</time></trkpt><trkpt lat="38.037715" lon="15.2289733"><ele>540.6666666666666</ele><time>2026-04-26T12:55:55.049Z</time></trkpt><trkpt lat="38.037785" lon="15.22904"><ele>547.3333333333333</ele><time>2026-04-26T12:55:56.049Z</time></trkpt><trkpt lat="38.0378667" lon="15.2290933"><ele>554.0</ele><time>2026-04-26T12:55:57.049Z</time></trkpt><trkpt lat="38.03794" lon="15.2291467"><ele>554.1666666666666</ele><time>2026-04-26T12:55:58.049Z</time></trkpt><trkpt lat="38.038" lon="15.2292317"><ele>554.3333333333333</ele><time>2026-04-26T12:55:59.05Z</time></trkpt><trkpt lat="38.0380417" lon="15.2293283"><ele>554.5</ele><time>2026-04-26T12:56:00.049Z</time></trkpt><trkpt lat="38.038055" lon="15.229415"><ele>554.6666666666666</ele><time>2026-04-26T12:56:01.049Z</time></trkpt><trkpt lat="38.0380433" lon="15.2294967"><ele>554.8333333333334</ele><time>2026-04-26T12:56:02.049Z</time></trkpt><trkpt lat="38.038045" lon="15.229585"><ele>555.0</ele><time>2026-04-26T12:56:04.049Z</time></trkpt><trkpt lat="38.0381217" lon="15.2295567"><ele>555.0</ele><time>2026-04-26T12:56:06.049Z</time></trkpt><trkpt lat="38.0382417" lon="15.2294783"><ele>555.0</ele><time>2026-04-26T12:56:08.049Z</time></trkpt><trkpt lat="38.0383117" lon="15.2294517"><ele>555.0</ele><time>2026-04-26T12:56:09.049Z</time></trkpt><trkpt lat="38.0383767" lon="15.22944"><ele>555.0</ele><time>2026-04-26T12:56:10.049Z</time></trkpt><trkpt lat="38.03848" lon="15.2294533"><ele>555.0</ele><time>2026-04-26T12:56:12.049Z</time></trkpt><trkpt lat="38.0384467" lon="15.2295433"><ele>555.0</ele><time>2026-04-26T12:56:16.049Z</time></trkpt><trkpt lat="38.0383517" lon="15.2295817"><ele>555.0</ele><time>2026-04-26T12:56:18.049Z</time></trkpt><trkpt lat="38.0382433" lon="15.2296767"><ele>555.0</ele><time>2026-04-26T12:56:20.049Z</time></trkpt><trkpt lat="38.0382" lon="15.2297567"><ele>555.0</ele><time>2026-04-26T12:56:21.049Z</time></trkpt><trkpt lat="38.0381683" lon="15.2298517"><ele>555.0</ele><time>2026-04-26T12:56:22.049Z</time></trkpt><trkpt lat="38.0381467" lon="15.22995"><ele>554.5</ele><time>2026-04-26T12:56:23.049Z</time></trkpt><trkpt lat="38.03815" lon="15.2300567"><ele>554.0</ele><time>2026-04-26T12:56:24.05Z</time></trkpt><trkpt lat="38.038165" lon="15.23017"><ele>553.5</ele><time>2026-04-26T12:56:25.049Z</time></trkpt><trkpt lat="38.0381883" lon="15.2302883"><ele>553.0</ele><time>2026-04-26T12:56:26.049Z</time></trkpt><trkpt lat="38.0382167" lon="15.2303933"><ele>552.5</ele><time>2026-04-26T12:56:27.049Z</time></trkpt><trkpt lat="38.0382467" lon="15.2304933"><ele>552.0</ele><time>2026-04-26T12:56:28.049Z</time></trkpt><trkpt lat="38.03829" lon="15.2305967"><ele>560.3333333333334</ele><time>2026-04-26T12:56:29.049Z</time></trkpt><trkpt lat="38.0383317" lon="15.2307"><ele>568.6666666666666</ele><time>2026-04-26T12:56:30.049Z</time></trkpt><trkpt lat="38.038375" lon="15.230785"><ele>577.0</ele><time>2026-04-26T12:56:31.049Z</time></trkpt><trkpt lat="38.038405" lon="15.2308633"><ele>585.3333333333333</ele><time>2026-04-26T12:56:32.049Z</time></trkpt><trkpt lat="38.0384617" lon="15.2309733"><ele>593.6666666666666</ele><time>2026-04-26T12:56:34.049Z</time></trkpt><trkpt lat="38.038495" lon="15.2310683"><ele>602.0</ele><time>2026-04-26T12:56:36.049Z</time></trkpt><trkpt lat="38.038545" lon="15.2311783"><ele>602.0</ele><time>2026-04-26T12:57:19.049Z</time></trkpt><trkpt lat="38.03855" lon="15.2312817"><ele>602.0</ele><time>2026-04-26T12:57:20.049Z</time></trkpt><trkpt lat="38.0385367" lon="15.2314"><ele>602.0</ele><time>2026-04-26T12:57:21.049Z</time></trkpt><trkpt lat="38.0385017" lon="15.23152"><ele>602.0</ele><time>2026-04-26T12:57:22.049Z</time></trkpt><trkpt lat="38.03847" lon="15.2316417"><ele>602.0</ele><time>2026-04-26T12:57:23.049Z</time></trkpt><trkpt lat="38.038445" lon="15.2317583"><ele>603.0</ele><time>2026-04-26T12:57:24.049Z</time></trkpt><trkpt lat="38.03842" lon="15.23186"><ele>604.0</ele><time>2026-04-26T12:57:25.049Z</time></trkpt><trkpt lat="38.0383833" lon="15.2319483"><ele>605.0</ele><time>2026-04-26T12:57:26.049Z</time></trkpt><trkpt lat="38.0383467" lon="15.23202"><ele>606.0</ele><time>2026-04-26T12:57:27.049Z</time></trkpt><trkpt lat="38.0383417" lon="15.2321467"><ele>607.0</ele><time>2026-04-26T12:57:29.049Z</time></trkpt><trkpt lat="38.038425" lon="15.2322217"><ele>608.0</ele><time>2026-04-26T12:57:31.049Z</time></trkpt><trkpt lat="38.0384983" lon="15.232245"><ele>608.0</ele><time>2026-04-26T12:57:32.05Z</time></trkpt><trkpt lat="38.0385883" lon="15.2322617"><ele>608.0</ele><time>2026-04-26T12:57:33.049Z</time></trkpt><trkpt lat="38.038675" lon="15.2322767"><ele>608.0</ele><time>2026-04-26T12:57:34.049Z</time></trkpt><trkpt lat="38.0387633" lon="15.2323017"><ele>608.0</ele><time>2026-04-26T12:57:35.049Z</time></trkpt><trkpt lat="38.0388367" lon="15.23234"><ele>608.0</ele><time>2026-04-26T12:57:36.049Z</time></trkpt><trkpt lat="38.03892" lon="15.23241"><ele>608.0</ele><time>2026-04-26T12:57:37.049Z</time></trkpt><trkpt lat="38.039005" lon="15.2324667"><ele>606.1666666666666</ele><time>2026-04-26T12:57:38.049Z</time></trkpt><trkpt lat="38.039085" lon="15.2325033"><ele>604.3333333333333</ele><time>2026-04-26T12:57:39.049Z</time></trkpt><trkpt lat="38.0391667" lon="15.232525"><ele>602.5</ele><time>2026-04-26T12:57:40.049Z</time></trkpt><trkpt lat="38.039265" lon="15.2325367"><ele>600.6666666666666</ele><time>2026-04-26T12:57:41.049Z</time></trkpt><trkpt lat="38.039345" lon="15.2325667"><ele>598.8333333333334</ele><time>2026-04-26T12:57:42.049Z</time></trkpt><trkpt lat="38.039415" lon="15.232625"><ele>597.0</ele><time>2026-04-26T12:57:43.049Z</time></trkpt><trkpt lat="38.0394833" lon="15.2326967"><ele>603.5</ele><time>2026-04-26T12:57:44.049Z</time></trkpt><trkpt lat="38.0395367" lon="15.232795"><ele>610.0</ele><time>2026-04-26T12:57:45.049Z</time></trkpt><trkpt lat="38.03957" lon="15.23289"><ele>616.5</ele><time>2026-04-26T12:57:46.049Z</time></trkpt><trkpt lat="38.03961" lon="15.2329733"><ele>623.0</ele><time>2026-04-26T12:57:47.049Z</time></trkpt><trkpt lat="38.03966" lon="15.2330267"><ele>629.5</ele><time>2026-04-26T12:57:48.049Z</time></trkpt><trkpt lat="38.0397683" lon="15.2330583"><ele>636.0</ele><time>2026-04-26T12:57:50.049Z</time></trkpt><trkpt lat="38.0398633" lon="15.2329667"><ele>636.0</ele><time>2026-04-26T12:57:52.049Z</time></trkpt><trkpt lat="38.0399133" lon="15.2328667"><ele>636.0</ele><time>2026-04-26T12:57:53.049Z</time></trkpt><trkpt lat="38.03996" lon="15.2327583"><ele>636.0</ele><time>2026-04-26T12:57:54.049Z</time></trkpt><trkpt lat="38.04001" lon="15.2326483"><ele>636.0</ele><time>2026-04-26T12:57:55.049Z</time></trkpt><trkpt lat="38.0400733" lon="15.2325433"><ele>636.0</ele><time>2026-04-26T12:57:56.049Z</time></trkpt><trkpt lat="38.04014" lon="15.2324667"><ele>638.6</ele><time>2026-04-26T12:57:57.049Z</time></trkpt><trkpt lat="38.040225" lon="15.23241"><ele>641.2</ele><time>2026-04-26T12:57:58.049Z</time></trkpt><trkpt lat="38.0403183" lon="15.2323667"><ele>643.8000000000001</ele><time>2026-04-26T12:57:59.049Z</time></trkpt><trkpt lat="38.0404083" lon="15.2323117"><ele>646.4000000000001</ele><time>2026-04-26T12:58:00.049Z</time></trkpt><trkpt lat="38.0404967" lon="15.23227"><ele>649.0</ele><time>2026-04-26T12:58:01.049Z</time></trkpt><trkpt lat="38.0405867" lon="15.232245"><ele>653.4000000000001</ele><time>2026-04-26T12:58:02.049Z</time></trkpt><trkpt lat="38.04067" lon="15.2322267"><ele>657.8</ele><time>2026-04-26T12:58:03.049Z</time></trkpt><trkpt lat="38.0407583" lon="15.2322133"><ele>662.2</ele><time>2026-04-26T12:58:04.049Z</time></trkpt><trkpt lat="38.040835" lon="15.2321783"><ele>666.5999999999999</ele><time>2026-04-26T12:58:05.05Z</time></trkpt><trkpt lat="38.0409167" lon="15.2321133"><ele>671.0</ele><time>2026-04-26T12:58:06.049Z</time></trkpt><trkpt lat="38.0410033" lon="15.2320367"><ele>671.0</ele><time>2026-04-26T12:58:07.05Z</time></trkpt><trkpt lat="38.0410983" lon="15.23196"><ele>671.0</ele><time>2026-04-26T12:58:08.05Z</time></trkpt><trkpt lat="38.0411983" lon="15.231885"><ele>671.0</ele><time>2026-04-26T12:58:09.049Z</time></trkpt><trkpt lat="38.0413017" lon="15.2318483"><ele>671.0</ele><time>2026-04-26T12:58:10.049Z</time></trkpt><trkpt lat="38.0414083" lon="15.2318367"><ele>671.0</ele><time>2026-04-26T12:58:11.049Z</time></trkpt><trkpt lat="38.041515" lon="15.2318417"><ele>671.0</ele><time>2026-04-26T12:58:12.049Z</time></trkpt><trkpt lat="38.041595" lon="15.2318467"><ele>671.0</ele><time>2026-04-26T12:58:13.049Z</time></trkpt><trkpt lat="38.0416783" lon="15.2318517"><ele>671.0</ele><time>2026-04-26T12:58:14.049Z</time></trkpt><trkpt lat="38.0417767" lon="15.23188"><ele>671.0</ele><time>2026-04-26T12:58:15.049Z</time></trkpt><trkpt lat="38.041875" lon="15.231925"><ele>671.0</ele><time>2026-04-26T12:58:16.049Z</time></trkpt><trkpt lat="38.04198" lon="15.2319617"><ele>670.3333333333333</ele><time>2026-04-26T12:58:17.049Z</time></trkpt><trkpt lat="38.0420783" lon="15.2319833"><ele>669.6666666666666</ele><time>2026-04-26T12:58:18.049Z</time></trkpt><trkpt lat="38.0421583" lon="15.2319833"><ele>669.0</ele><time>2026-04-26T12:58:19.049Z</time></trkpt><trkpt lat="38.04223" lon="15.232"><ele>668.3333333333334</ele><time>2026-04-26T12:58:20.049Z</time></trkpt><trkpt lat="38.0423033" lon="15.23205"><ele>667.6666666666667</ele><time>2026-04-26T12:58:21.049Z</time></trkpt><trkpt lat="38.04237" lon="15.2321383"><ele>667.0</ele><time>2026-04-26T12:58:22.049Z</time></trkpt><trkpt lat="38.0424333" lon="15.232225"><ele>668.6666666666667</ele><time>2026-04-26T12:58:23.049Z</time></trkpt><trkpt lat="38.042505" lon="15.2322933"><ele>670.3333333333334</ele><time>2026-04-26T12:58:24.049Z</time></trkpt><trkpt lat="38.04257" lon="15.2323283"><ele>672.0</ele><time>2026-04-26T12:58:25.049Z</time></trkpt><trkpt lat="38.0426417" lon="15.23234"><ele>673.6666666666666</ele><time>2026-04-26T12:58:26.049Z</time></trkpt><trkpt lat="38.042725" lon="15.2323017"><ele>675.3333333333333</ele><time>2026-04-26T12:58:27.049Z</time></trkpt><trkpt lat="38.04282" lon="15.232265"><ele>677.0</ele><time>2026-04-26T12:58:28.049Z</time></trkpt><trkpt lat="38.0429167" lon="15.23224"><ele>677.0</ele><time>2026-04-26T12:58:29.049Z</time></trkpt><trkpt lat="38.043" lon="15.2322383"><ele>677.0</ele><time>2026-04-26T12:58:30.049Z</time></trkpt><trkpt lat="38.0430817" lon="15.2322517"><ele>677.0</ele><time>2026-04-26T12:58:31.05Z</time></trkpt><trkpt lat="38.043155" lon="15.232305"><ele>677.0</ele><time>2026-04-26T12:58:32.049Z</time></trkpt><trkpt lat="38.04322" lon="15.2323817"><ele>677.0</ele><time>2026-04-26T12:58:33.049Z</time></trkpt><trkpt lat="38.0432483" lon="15.2324717"><ele>677.0</ele><time>2026-04-26T12:58:34.05Z</time></trkpt><trkpt lat="38.04326" lon="15.2325833"><ele>676.6666666666666</ele><time>2026-04-26T12:58:35.049Z</time></trkpt><trkpt lat="38.0432783" lon="15.2326817"><ele>676.3333333333333</ele><time>2026-04-26T12:58:36.049Z</time></trkpt><trkpt lat="38.0433183" lon="15.23278"><ele>676.0</ele><time>2026-04-26T12:58:37.049Z</time></trkpt><trkpt lat="38.0433717" lon="15.2328617"><ele>675.6666666666666</ele><time>2026-04-26T12:58:38.049Z</time></trkpt><trkpt lat="38.04344" lon="15.23294"><ele>675.3333333333334</ele><time>2026-04-26T12:58:39.049Z</time></trkpt><trkpt lat="38.0435117" lon="15.2330367"><ele>675.0</ele><time>2026-04-26T12:58:40.049Z</time></trkpt><trkpt lat="38.0435783" lon="15.233135"><ele>670.4</ele><time>2026-04-26T12:58:41.049Z</time></trkpt><trkpt lat="38.043645" lon="15.2332367"><ele>665.8</ele><time>2026-04-26T12:58:42.05Z</time></trkpt><trkpt lat="38.04371" lon="15.2333333"><ele>661.2</ele><time>2026-04-26T12:58:43.049Z</time></trkpt><trkpt lat="38.0437633" lon="15.23344"><ele>656.6</ele><time>2026-04-26T12:58:44.049Z</time></trkpt><trkpt lat="38.043805" lon="15.2335417"><ele>652.0</ele><time>2026-04-26T12:58:45.049Z</time></trkpt><trkpt lat="38.0438533" lon="15.2336317"><ele>652.0</ele><time>2026-04-26T12:58:46.049Z</time></trkpt><trkpt lat="38.0438967" lon="15.23373"><ele>652.0</ele><time>2026-04-26T12:58:47.049Z</time></trkpt><trkpt lat="38.0439267" lon="15.233845"><ele>652.0</ele><time>2026-04-26T12:58:48.049Z</time></trkpt><trkpt lat="38.0439367" lon="15.2339733"><ele>652.0</ele><time>2026-04-26T12:58:49.05Z</time></trkpt><trkpt lat="38.0439267" lon="15.23409"><ele>652.0</ele><time>2026-04-26T12:58:50.049Z</time></trkpt><trkpt lat="38.0439267" lon="15.2341817"><ele>649.1666666666667</ele><time>2026-04-26T12:58:51.049Z</time></trkpt><trkpt lat="38.04394" lon="15.2342767"><ele>646.3333333333334</ele><time>2026-04-26T12:58:52.05Z</time></trkpt><trkpt lat="38.0439767" lon="15.2343567"><ele>643.5</ele><time>2026-04-26T12:58:53.049Z</time></trkpt><trkpt lat="38.0440217" lon="15.23446"><ele>640.6666666666666</ele><time>2026-04-26T12:58:54.049Z</time></trkpt><trkpt lat="38.04407" lon="15.2345583"><ele>637.8333333333333</ele><time>2026-04-26T12:58:55.049Z</time></trkpt><trkpt lat="38.0441167" lon="15.2346517"><ele>635.0</ele><time>2026-04-26T12:58:56.05Z</time></trkpt><trkpt lat="38.044165" lon="15.23473"><ele>640.2</ele><time>2026-04-26T12:58:57.049Z</time></trkpt><trkpt lat="38.0442433" lon="15.23483"><ele>645.4</ele><time>2026-04-26T12:58:58.049Z</time></trkpt><trkpt lat="38.0443317" lon="15.2349217"><ele>650.5999999999999</ele><time>2026-04-26T12:58:59.049Z</time></trkpt><trkpt lat="38.04441" lon="15.2349967"><ele>655.8</ele><time>2026-04-26T12:59:00.049Z</time></trkpt><trkpt lat="38.0444833" lon="15.2350917"><ele>661.0</ele><time>2026-04-26T12:59:01.049Z</time></trkpt><trkpt lat="38.044545" lon="15.23519"><ele>661.0</ele><time>2026-04-26T12:59:02.049Z</time></trkpt><trkpt lat="38.0445883" lon="15.2352883"><ele>661.0</ele><time>2026-04-26T12:59:03.049Z</time></trkpt><trkpt lat="38.0446233" lon="15.2353767"><ele>661.0</ele><time>2026-04-26T12:59:04.049Z</time></trkpt><trkpt lat="38.04467" lon="15.2354517"><ele>661.0</ele><time>2026-04-26T12:59:05.049Z</time></trkpt><trkpt lat="38.044785" lon="15.235515"><ele>661.0</ele><time>2026-04-26T12:59:07.049Z</time></trkpt><trkpt lat="38.0448517" lon="15.2355117"><ele>661.0</ele><time>2026-04-26T12:59:08.049Z</time></trkpt><trkpt lat="38.0449233" lon="15.235475"><ele>666.4</ele><time>2026-04-26T12:59:09.05Z</time></trkpt><trkpt lat="38.045005" lon="15.23543"><ele>671.8</ele><time>2026-04-26T12:59:10.049Z</time></trkpt><trkpt lat="38.04509" lon="15.2353783"><ele>677.1999999999999</ele><time>2026-04-26T12:59:11.049Z</time></trkpt><trkpt lat="38.0451717" lon="15.235335"><ele>682.5999999999999</ele><time>2026-04-26T12:59:12.049Z</time></trkpt><trkpt lat="38.0452533" lon="15.23531"><ele>688.0</ele><time>2026-04-26T12:59:13.049Z</time></trkpt><trkpt lat="38.0453483" lon="15.2353133"><ele>688.0</ele><time>2026-04-26T12:59:14.049Z</time></trkpt><trkpt lat="38.0454367" lon="15.2353317"><ele>688.0</ele><time>2026-04-26T12:59:15.049Z</time></trkpt><trkpt lat="38.0455183" lon="15.235345"><ele>688.0</ele><time>2026-04-26T12:59:16.049Z</time></trkpt><trkpt lat="38.04558" lon="15.2353783"><ele>688.0</ele><time>2026-04-26T12:59:17.049Z</time></trkpt><trkpt lat="38.0456333" lon="15.23543"><ele>688.0</ele><time>2026-04-26T12:59:18.05Z</time></trkpt><trkpt lat="38.0456867" lon="15.2355"><ele>688.0</ele><time>2026-04-26T12:59:19.049Z</time></trkpt><trkpt lat="38.0457383" lon="15.23558"><ele>683.8333333333334</ele><time>2026-04-26T12:59:20.049Z</time></trkpt><trkpt lat="38.045795" lon="15.2356533"><ele>679.6666666666667</ele><time>2026-04-26T12:59:21.05Z</time></trkpt><trkpt lat="38.0458583" lon="15.2357033"><ele>675.5</ele><time>2026-04-26T12:59:22.049Z</time></trkpt><trkpt lat="38.04593" lon="15.2357217"><ele>671.3333333333334</ele><time>2026-04-26T12:59:23.049Z</time></trkpt><trkpt lat="38.0460033" lon="15.2357183"><ele>667.1666666666666</ele><time>2026-04-26T12:59:24.049Z</time></trkpt><trkpt lat="38.0460817" lon="15.235695"><ele>663.0</ele><time>2026-04-26T12:59:25.049Z</time></trkpt><trkpt lat="38.0461583" lon="15.23564"><ele>663.0</ele><time>2026-04-26T12:59:26.049Z</time></trkpt><trkpt lat="38.0462467" lon="15.2355917"><ele>663.0</ele><time>2026-04-26T12:59:27.049Z</time></trkpt><trkpt lat="38.0463317" lon="15.2355567"><ele>663.0</ele><time>2026-04-26T12:59:28.049Z</time></trkpt><trkpt lat="38.0464067" lon="15.2355583"><ele>663.0</ele><time>2026-04-26T12:59:29.049Z</time></trkpt><trkpt lat="38.04647" lon="15.23558"><ele>663.0</ele><time>2026-04-26T12:59:30.049Z</time></trkpt><trkpt lat="38.0465317" lon="15.23562"><ele>663.0</ele><time>2026-04-26T12:59:31.049Z</time></trkpt><trkpt lat="38.0465917" lon="15.2356867"><ele>666.6666666666666</ele><time>2026-04-26T12:59:32.049Z</time></trkpt><trkpt lat="38.0466433" lon="15.23577"><ele>670.3333333333334</ele><time>2026-04-26T12:59:33.049Z</time></trkpt><trkpt lat="38.0466933" lon="15.2358467"><ele>674.0</ele><time>2026-04-26T12:59:34.049Z</time></trkpt><trkpt lat="38.0467367" lon="15.2359117"><ele>677.6666666666667</ele><time>2026-04-26T12:59:35.049Z</time></trkpt><trkpt lat="38.0467983" lon="15.2359583"><ele>681.3333333333334</ele><time>2026-04-26T12:59:36.049Z</time></trkpt><trkpt lat="38.0468833" lon="15.2360033"><ele>685.0</ele><time>2026-04-26T12:59:37.049Z</time></trkpt><trkpt lat="38.0469633" lon="15.2360217"><ele>685.0</ele><time>2026-04-26T12:59:38.049Z</time></trkpt><trkpt lat="38.0470467" lon="15.23602"><ele>685.0</ele><time>2026-04-26T12:59:39.049Z</time></trkpt><trkpt lat="38.0471283" lon="15.2359933"><ele>685.0</ele><time>2026-04-26T12:59:40.049Z</time></trkpt><trkpt lat="38.047205" lon="15.23597"><ele>685.0</ele><time>2026-04-26T12:59:41.049Z</time></trkpt><trkpt lat="38.04727" lon="15.2359433"><ele>685.0</ele><time>2026-04-26T12:59:42.049Z</time></trkpt><trkpt lat="38.0473633" lon="15.2358717"><ele>685.0</ele><time>2026-04-26T12:59:44.049Z</time></trkpt><trkpt lat="38.0474333" lon="15.2358717"><ele>685.3333333333334</ele><time>2026-04-26T12:59:46.049Z</time></trkpt><trkpt lat="38.0475333" lon="15.2359567"><ele>685.6666666666667</ele><time>2026-04-26T12:59:48.048Z</time></trkpt><trkpt lat="38.0475967" lon="15.235995"><ele>686.0</ele><time>2026-04-26T12:59:49.048Z</time></trkpt><trkpt lat="38.04767" lon="15.2360333"><ele>686.3333333333334</ele><time>2026-04-26T12:59:50.048Z</time></trkpt><trkpt lat="38.0477567" lon="15.236065"><ele>686.6666666666666</ele><time>2026-04-26T12:59:51.048Z</time></trkpt><trkpt lat="38.04784" lon="15.2360883"><ele>687.0</ele><time>2026-04-26T12:59:52.048Z</time></trkpt><trkpt lat="38.0479217" lon="15.2360967"><ele>687.0</ele><time>2026-04-26T12:59:53.048Z</time></trkpt><trkpt lat="38.0480033" lon="15.2361167"><ele>687.0</ele><time>2026-04-26T12:59:54.048Z</time></trkpt><trkpt lat="38.04808" lon="15.2361483"><ele>687.0</ele><time>2026-04-26T12:59:55.048Z</time></trkpt><trkpt lat="38.0481567" lon="15.236195"><ele>687.0</ele><time>2026-04-26T12:59:56.048Z</time></trkpt><trkpt lat="38.04823" lon="15.2362367"><ele>687.0</ele><time>2026-04-26T12:59:57.048Z</time></trkpt><trkpt lat="38.0482917" lon="15.2362733"><ele>687.0</ele><time>2026-04-26T12:59:58.048Z</time></trkpt><trkpt lat="38.0483467" lon="15.2363417"><ele>686.0</ele><time>2026-04-26T13:00:00.048Z</time></trkpt><trkpt lat="38.048335" lon="15.2364483"><ele>685.0</ele><time>2026-04-26T13:00:03.048Z</time></trkpt><trkpt lat="38.048315" lon="15.2365483"><ele>684.0</ele><time>2026-04-26T13:00:05.048Z</time></trkpt><trkpt lat="38.0483117" lon="15.2366717"><ele>683.0</ele><time>2026-04-26T13:00:07.049Z</time></trkpt><trkpt lat="38.0483483" lon="15.2368133"><ele>682.0</ele><time>2026-04-26T13:00:09.048Z</time></trkpt><trkpt lat="38.0483667" lon="15.2368933"><ele>681.0</ele><time>2026-04-26T13:00:10.048Z</time></trkpt><trkpt lat="38.048385" lon="15.2369733"><ele>681.0</ele><time>2026-04-26T13:00:11.048Z</time></trkpt><trkpt lat="38.0483933" lon="15.237075"><ele>681.0</ele><time>2026-04-26T13:00:13.049Z</time></trkpt><trkpt lat="38.0483" lon="15.2371"><ele>681.0</ele><time>2026-04-26T13:00:16.048Z</time></trkpt><trkpt lat="38.0482317" lon="15.23705"><ele>681.0</ele><time>2026-04-26T13:00:18.048Z</time></trkpt><trkpt lat="38.04814" lon="15.2369633"><ele>681.0</ele><time>2026-04-26T13:00:20.048Z</time></trkpt><trkpt lat="38.048035" lon="15.2369467"><ele>678.0</ele><time>2026-04-26T13:00:22.048Z</time></trkpt><trkpt lat="38.0479383" lon="15.2369983"><ele>675.0</ele><time>2026-04-26T13:00:24.048Z</time></trkpt><trkpt lat="38.0478583" lon="15.2370917"><ele>672.0</ele><time>2026-04-26T13:00:26.049Z</time></trkpt><trkpt lat="38.047795" lon="15.2371133"><ele>669.0</ele><time>2026-04-26T13:00:27.048Z</time></trkpt><trkpt lat="38.0476717" lon="15.2371283"><ele>666.0</ele><time>2026-04-26T13:00:29.048Z</time></trkpt><trkpt lat="38.047605" lon="15.2371517"><ele>666.0</ele><time>2026-04-26T13:00:30.048Z</time></trkpt><trkpt lat="38.0475383" lon="15.2372"><ele>666.0</ele><time>2026-04-26T13:00:31.048Z</time></trkpt><trkpt lat="38.0474683" lon="15.2372633"><ele>666.0</ele><time>2026-04-26T13:00:32.049Z</time></trkpt><trkpt lat="38.0474133" lon="15.2373283"><ele>666.0</ele><time>2026-04-26T13:00:33.048Z</time></trkpt><trkpt lat="38.0473667" lon="15.2374117"><ele>666.0</ele><time>2026-04-26T13:00:34.048Z</time></trkpt><trkpt lat="38.0473167" lon="15.2374817"><ele>666.0</ele><time>2026-04-26T13:00:35.048Z</time></trkpt><trkpt lat="38.0472517" lon="15.2375367"><ele>671.0</ele><time>2026-04-26T13:00:36.048Z</time></trkpt><trkpt lat="38.04718" lon="15.2375717"><ele>676.0</ele><time>2026-04-26T13:00:37.048Z</time></trkpt><trkpt lat="38.0471067" lon="15.237595"><ele>681.0</ele><time>2026-04-26T13:00:38.049Z</time></trkpt><trkpt lat="38.0470283" lon="15.2376183"><ele>686.0</ele><time>2026-04-26T13:00:39.048Z</time></trkpt><trkpt lat="38.04695" lon="15.237635"><ele>691.0</ele><time>2026-04-26T13:00:40.048Z</time></trkpt><trkpt lat="38.04688" lon="15.237655"><ele>696.0</ele><time>2026-04-26T13:00:41.048Z</time></trkpt><trkpt lat="38.0467717" lon="15.2376433"><ele>696.0</ele><time>2026-04-26T13:00:43.048Z</time></trkpt><trkpt lat="38.0467033" lon="15.2376033"><ele>696.0</ele><time>2026-04-26T13:00:44.048Z</time></trkpt><trkpt lat="38.0466333" lon="15.2375367"><ele>696.0</ele><time>2026-04-26T13:00:45.048Z</time></trkpt><trkpt lat="38.0465583" lon="15.2374633"><ele>696.0</ele><time>2026-04-26T13:00:46.048Z</time></trkpt><trkpt lat="38.0464967" lon="15.237405"><ele>696.0</ele><time>2026-04-26T13:00:47.048Z</time></trkpt><trkpt lat="38.04639" lon="15.2373617"><ele>696.0</ele><time>2026-04-26T13:00:49.048Z</time></trkpt><trkpt lat="38.0463267" lon="15.237385"><ele>695.0</ele><time>2026-04-26T13:00:50.048Z</time></trkpt><trkpt lat="38.0462567" lon="15.2374183"><ele>694.0</ele><time>2026-04-26T13:00:51.048Z</time></trkpt><trkpt lat="38.0461833" lon="15.23748"><ele>693.0</ele><time>2026-04-26T13:00:52.048Z</time></trkpt><trkpt lat="38.0461067" lon="15.2375367"><ele>692.0</ele><time>2026-04-26T13:00:53.048Z</time></trkpt><trkpt lat="38.046025" lon="15.2375917"><ele>691.0</ele><time>2026-04-26T13:00:54.048Z</time></trkpt><trkpt lat="38.0459417" lon="15.2376417"><ele>690.0</ele><time>2026-04-26T13:00:55.049Z</time></trkpt><trkpt lat="38.045855" lon="15.237695"><ele>687.8</ele><time>2026-04-26T13:00:56.048Z</time></trkpt><trkpt lat="38.045765" lon="15.2377383"><ele>685.6</ele><time>2026-04-26T13:00:57.048Z</time></trkpt><trkpt lat="38.0456733" lon="15.237785"><ele>683.4000000000001</ele><time>2026-04-26T13:00:58.048Z</time></trkpt><trkpt lat="38.0455783" lon="15.2378383"><ele>681.2</ele><time>2026-04-26T13:00:59.048Z</time></trkpt><trkpt lat="38.0454783" lon="15.2378883"><ele>679.0</ele><time>2026-04-26T13:01:00.048Z</time></trkpt><trkpt lat="38.0453917" lon="15.23793"><ele>679.0</ele><time>2026-04-26T13:01:01.048Z</time></trkpt><trkpt lat="38.0453017" lon="15.2379833"><ele>679.0</ele><time>2026-04-26T13:01:02.048Z</time></trkpt><trkpt lat="38.0452217" lon="15.2380483"><ele>679.0</ele><time>2026-04-26T13:01:03.048Z</time></trkpt><trkpt lat="38.0451383" lon="15.238115"><ele>679.0</ele><time>2026-04-26T13:01:04.048Z</time></trkpt><trkpt lat="38.0450517" lon="15.2381667"><ele>679.0</ele><time>2026-04-26T13:01:05.048Z</time></trkpt><trkpt lat="38.0449467" lon="15.238205"><ele>687.0</ele><time>2026-04-26T13:01:06.048Z</time></trkpt><trkpt lat="38.044835" lon="15.238245"><ele>695.0</ele><time>2026-04-26T13:01:07.048Z</time></trkpt><trkpt lat="38.0447167" lon="15.238295"><ele>703.0</ele><time>2026-04-26T13:01:08.048Z</time></trkpt><trkpt lat="38.0445983" lon="15.2383817"><ele>711.0</ele><time>2026-04-26T13:01:09.048Z</time></trkpt><trkpt lat="38.04449" lon="15.2385"><ele>711.0</ele><time>2026-04-26T13:01:10.049Z</time></trkpt><trkpt lat="38.044385" lon="15.2385967"><ele>711.0</ele><time>2026-04-26T13:01:11.048Z</time></trkpt><trkpt lat="38.0442833" lon="15.23869"><ele>711.0</ele><time>2026-04-26T13:01:12.048Z</time></trkpt><trkpt lat="38.04418" lon="15.2387517"><ele>711.0</ele><time>2026-04-26T13:01:13.048Z</time></trkpt><trkpt lat="38.0440667" lon="15.2388"><ele>710.1999999999999</ele><time>2026-04-26T13:01:14.048Z</time></trkpt><trkpt lat="38.0439567" lon="15.2388233"><ele>709.4</ele><time>2026-04-26T13:01:15.048Z</time></trkpt><trkpt lat="38.0438417" lon="15.2388367"><ele>708.6</ele><time>2026-04-26T13:01:16.049Z</time></trkpt><trkpt lat="38.0437317" lon="15.238855"><ele>707.8</ele><time>2026-04-26T13:01:17.048Z</time></trkpt><trkpt lat="38.04364" lon="15.2388633"><ele>707.0</ele><time>2026-04-26T13:01:18.048Z</time></trkpt><trkpt lat="38.043565" lon="15.2388683"><ele>707.0</ele><time>2026-04-26T13:01:19.048Z</time></trkpt><trkpt lat="38.043475" lon="15.238915"><ele>707.0</ele><time>2026-04-26T13:01:21.048Z</time></trkpt><trkpt lat="38.043525" lon="15.2390083"><ele>707.0</ele><time>2026-04-26T13:01:23.049Z</time></trkpt><trkpt lat="38.0436583" lon="15.23906"><ele>707.0</ele><time>2026-04-26T13:01:25.048Z</time></trkpt><trkpt lat="38.043755" lon="15.2390917"><ele>707.0</ele><time>2026-04-26T13:01:26.048Z</time></trkpt><trkpt lat="38.0438517" lon="15.2391183"><ele>707.2</ele><time>2026-04-26T13:01:27.048Z</time></trkpt><trkpt lat="38.043945" lon="15.239145"><ele>707.4000000000001</ele><time>2026-04-26T13:01:28.048Z</time></trkpt><trkpt lat="38.0440417" lon="15.2391933"><ele>707.5999999999999</ele><time>2026-04-26T13:01:29.048Z</time></trkpt><trkpt lat="38.0441317" lon="15.239265"><ele>707.8</ele><time>2026-04-26T13:01:30.048Z</time></trkpt><trkpt lat="38.0442083" lon="15.23934"><ele>708.0</ele><time>2026-04-26T13:01:31.048Z</time></trkpt><trkpt lat="38.0442867" lon="15.2393983"><ele>713.4</ele><time>2026-04-26T13:01:32.048Z</time></trkpt><trkpt lat="38.044355" lon="15.2394167"><ele>718.8</ele><time>2026-04-26T13:01:33.048Z</time></trkpt><trkpt lat="38.0444783" lon="15.23939"><ele>724.2</ele><time>2026-04-26T13:01:35.048Z</time></trkpt><trkpt lat="38.0445717" lon="15.2393833"><ele>729.6</ele><time>2026-04-26T13:01:36.048Z</time></trkpt><trkpt lat="38.044675" lon="15.2393833"><ele>735.0</ele><time>2026-04-26T13:01:37.048Z</time></trkpt><trkpt lat="38.044805" lon="15.2393733"><ele>739.6666666666666</ele><time>2026-04-26T13:01:38.048Z</time></trkpt><trkpt lat="38.044975" lon="15.2393617"><ele>744.3333333333333</ele><time>2026-04-26T13:01:39.048Z</time></trkpt><trkpt lat="38.0451317" lon="15.2393483"><ele>749.0</ele><time>2026-04-26T13:01:40.048Z</time></trkpt><trkpt lat="38.0452683" lon="15.23933"><ele>749.0</ele><time>2026-04-26T13:01:41.048Z</time></trkpt><trkpt lat="38.0453967" lon="15.23929"><ele>749.0</ele><time>2026-04-26T13:01:42.048Z</time></trkpt><trkpt lat="38.0455183" lon="15.2392433"><ele>749.0</ele><time>2026-04-26T13:01:43.048Z</time></trkpt><trkpt lat="38.0456417" lon="15.23921"><ele>749.0</ele><time>2026-04-26T13:01:44.048Z</time></trkpt><trkpt lat="38.0457617" lon="15.2391867"><ele>752.25</ele><time>2026-04-26T13:01:45.048Z</time></trkpt><trkpt lat="38.0458683" lon="15.2391717"><ele>755.5</ele><time>2026-04-26T13:01:46.048Z</time></trkpt><trkpt lat="38.0459817" lon="15.239165"><ele>758.75</ele><time>2026-04-26T13:01:47.048Z</time></trkpt><trkpt lat="38.0461" lon="15.2391317"><ele>762.0</ele><time>2026-04-26T13:01:48.048Z</time></trkpt><trkpt lat="38.046225" lon="15.2390833"><ele>762.0</ele><time>2026-04-26T13:01:49.048Z</time></trkpt><trkpt lat="38.046345" lon="15.2390533"><ele>762.0</ele><time>2026-04-26T13:01:50.048Z</time></trkpt><trkpt lat="38.0464533" lon="15.2390383"><ele>762.0</ele><time>2026-04-26T13:01:51.048Z</time></trkpt><trkpt lat="38.0465633" lon="15.2390333"><ele>762.0</ele><time>2026-04-26T13:01:52.048Z</time></trkpt><trkpt lat="38.0466767" lon="15.2390333"><ele>764.8</ele><time>2026-04-26T13:01:53.048Z</time></trkpt><trkpt lat="38.0467883" lon="15.23903"><ele>767.6</ele><time>2026-04-26T13:01:54.048Z</time></trkpt><trkpt lat="38.0468833" lon="15.2390267"><ele>770.4</ele><time>2026-04-26T13:01:55.048Z</time></trkpt><trkpt lat="38.0469683" lon="15.23903"><ele>773.1999999999999</ele><time>2026-04-26T13:01:56.048Z</time></trkpt><trkpt lat="38.0470533" lon="15.23905"><ele>776.0</ele><time>2026-04-26T13:01:57.048Z</time></trkpt><trkpt lat="38.047135" lon="15.2390833"><ele>776.0</ele><time>2026-04-26T13:01:58.048Z</time></trkpt><trkpt lat="38.0472233" lon="15.239115"><ele>776.0</ele><time>2026-04-26T13:01:59.048Z</time></trkpt><trkpt lat="38.047285" lon="15.2391433"><ele>776.0</ele><time>2026-04-26T13:02:00.048Z</time></trkpt><trkpt lat="38.0473467" lon="15.2392167"><ele>776.0</ele><time>2026-04-26T13:02:02.048Z</time></trkpt><trkpt lat="38.047385" lon="15.2393583"><ele>776.0</ele><time>2026-04-26T13:02:04.048Z</time></trkpt><trkpt lat="38.0474067" lon="15.2394717"><ele>776.0</ele><time>2026-04-26T13:02:05.048Z</time></trkpt><trkpt lat="38.047435" lon="15.2395967"><ele>776.0</ele><time>2026-04-26T13:02:06.048Z</time></trkpt><trkpt lat="38.04748" lon="15.2397233"><ele>776.0</ele><time>2026-04-26T13:02:07.048Z</time></trkpt><trkpt lat="38.047535" lon="15.239855"><ele>776.0</ele><time>2026-04-26T13:02:08.048Z</time></trkpt><trkpt lat="38.0476" lon="15.23999"><ele>780.4</ele><time>2026-04-26T13:02:09.048Z</time></trkpt><trkpt lat="38.0476617" lon="15.2401067"><ele>784.8</ele><time>2026-04-26T13:02:10.048Z</time></trkpt><trkpt lat="38.04773" lon="15.2401917"><ele>789.1999999999999</ele><time>2026-04-26T13:02:11.048Z</time></trkpt><trkpt lat="38.0478067" lon="15.2402433"><ele>793.5999999999999</ele><time>2026-04-26T13:02:12.048Z</time></trkpt><trkpt lat="38.04789" lon="15.2402717"><ele>798.0</ele><time>2026-04-26T13:02:13.048Z</time></trkpt><trkpt lat="38.0479717" lon="15.2402633"><ele>798.0</ele><time>2026-04-26T13:02:14.048Z</time></trkpt><trkpt lat="38.048065" lon="15.2402583"><ele>798.0</ele><time>2026-04-26T13:02:15.048Z</time></trkpt><trkpt lat="38.048155" lon="15.2402683"><ele>798.0</ele><time>2026-04-26T13:02:16.048Z</time></trkpt><trkpt lat="38.0482333" lon="15.2402933"><ele>798.0</ele><time>2026-04-26T13:02:17.048Z</time></trkpt><trkpt lat="38.0483" lon="15.2403433"><ele>798.0</ele><time>2026-04-26T13:02:18.048Z</time></trkpt><trkpt lat="38.04836" lon="15.2404333"><ele>798.0</ele><time>2026-04-26T13:02:19.048Z</time></trkpt><trkpt lat="38.0484183" lon="15.2405467"><ele>801.0</ele><time>2026-04-26T13:02:20.048Z</time></trkpt><trkpt lat="38.0484833" lon="15.2406633"><ele>804.0</ele><time>2026-04-26T13:02:21.048Z</time></trkpt><trkpt lat="38.048555" lon="15.2407917"><ele>807.0</ele><time>2026-04-26T13:02:22.048Z</time></trkpt><trkpt lat="38.0486267" lon="15.24092"><ele>810.0</ele><time>2026-04-26T13:02:23.048Z</time></trkpt><trkpt lat="38.0487" lon="15.241025"><ele>810.0</ele><time>2026-04-26T13:02:24.048Z</time></trkpt><trkpt lat="38.0487783" lon="15.2411333"><ele>810.0</ele><time>2026-04-26T13:02:25.048Z</time></trkpt><trkpt lat="38.048845" lon="15.24124"><ele>810.0</ele><time>2026-04-26T13:02:26.048Z</time></trkpt><trkpt lat="38.0489117" lon="15.2413567"><ele>810.0</ele><time>2026-04-26T13:02:27.048Z</time></trkpt><trkpt lat="38.0489967" lon="15.2414633"><ele>810.4</ele><time>2026-04-26T13:02:28.048Z</time></trkpt><trkpt lat="38.0490917" lon="15.2415583"><ele>810.8</ele><time>2026-04-26T13:02:29.048Z</time></trkpt><trkpt lat="38.04919" lon="15.2416417"><ele>811.2</ele><time>2026-04-26T13:02:30.048Z</time></trkpt><trkpt lat="38.0492717" lon="15.24173"><ele>811.6</ele><time>2026-04-26T13:02:31.048Z</time></trkpt><trkpt lat="38.0493483" lon="15.24181"><ele>812.0</ele><time>2026-04-26T13:02:32.048Z</time></trkpt><trkpt lat="38.0494067" lon="15.2419"><ele>812.0</ele><time>2026-04-26T13:02:33.049Z</time></trkpt><trkpt lat="38.0494583" lon="15.2420033"><ele>812.0</ele><time>2026-04-26T13:02:34.048Z</time></trkpt><trkpt lat="38.0495117" lon="15.2421067"><ele>812.0</ele><time>2026-04-26T13:02:35.048Z</time></trkpt><trkpt lat="38.049565" lon="15.2422067"><ele>812.0</ele><time>2026-04-26T13:02:36.048Z</time></trkpt><trkpt lat="38.0496183" lon="15.2423083"><ele>812.0</ele><time>2026-04-26T13:02:37.048Z</time></trkpt><trkpt lat="38.0496917" lon="15.2423983"><ele>815.6</ele><time>2026-04-26T13:02:38.048Z</time></trkpt><trkpt lat="38.04977" lon="15.2424667"><ele>819.2</ele><time>2026-04-26T13:02:39.048Z</time></trkpt><trkpt lat="38.0498667" lon="15.2425183"><ele>822.8</ele><time>2026-04-26T13:02:40.048Z</time></trkpt><trkpt lat="38.0499717" lon="15.24254"><ele>826.4</ele><time>2026-04-26T13:02:41.048Z</time></trkpt><trkpt lat="38.0500933" lon="15.2425583"><ele>830.0</ele><time>2026-04-26T13:02:42.048Z</time></trkpt><trkpt lat="38.050205" lon="15.24255"><ele>830.0</ele><time>2026-04-26T13:02:43.048Z</time></trkpt><trkpt lat="38.0503233" lon="15.2425267"><ele>830.0</ele><time>2026-04-26T13:02:44.048Z</time></trkpt><trkpt lat="38.0504317" lon="15.2424983"><ele>830.0</ele><time>2026-04-26T13:02:45.048Z</time></trkpt><trkpt lat="38.0505267" lon="15.2424633"><ele>830.0</ele><time>2026-04-26T13:02:46.048Z</time></trkpt><trkpt lat="38.0506083" lon="15.242435"><ele>830.0</ele><time>2026-04-26T13:02:47.048Z</time></trkpt><trkpt lat="38.0506767" lon="15.2424367"><ele>830.0</ele><time>2026-04-26T13:02:48.048Z</time></trkpt><trkpt lat="38.050785" lon="15.24248"><ele>830.0</ele><time>2026-04-26T13:02:50.048Z</time></trkpt><trkpt lat="38.0508567" lon="15.24252"><ele>830.0</ele><time>2026-04-26T13:02:52.048Z</time></trkpt><trkpt lat="38.0509217" lon="15.2425133"><ele>830.0</ele><time>2026-04-26T13:02:54.048Z</time></trkpt><trkpt lat="38.0510068" lon="15.2425337"><ele>830.0</ele><time>2026-04-26T13:03:42.048Z</time></trkpt><trkpt lat="38.0511044" lon="15.2426058"><ele>831.4</ele><time>2026-04-26T13:03:44.048Z</time></trkpt><trkpt lat="38.0511586" lon="15.2426765"><ele>832.8</ele><time>2026-04-26T13:03:45.048Z</time></trkpt><trkpt lat="38.0512141" lon="15.2427363"><ele>834.2</ele><time>2026-04-26T13:03:46.048Z</time></trkpt><trkpt lat="38.051307" lon="15.2427674"><ele>835.6</ele><time>2026-04-26T13:03:48.048Z</time></trkpt><trkpt lat="38.0513774" lon="15.2427068"><ele>837.0</ele><time>2026-04-26T13:03:50.048Z</time></trkpt><trkpt lat="38.051416" lon="15.2425646"><ele>837.0</ele><time>2026-04-26T13:03:52.048Z</time></trkpt><trkpt lat="38.051481" lon="15.2424288"><ele>837.0</ele><time>2026-04-26T13:03:54.048Z</time></trkpt><trkpt lat="38.0514899" lon="15.2423496"><ele>837.0</ele><time>2026-04-26T13:03:55.048Z</time></trkpt><trkpt lat="38.0514817" lon="15.2422522"><ele>837.0</ele><time>2026-04-26T13:03:56.048Z</time></trkpt><trkpt lat="38.0514501" lon="15.2421433"><ele>837.0</ele><time>2026-04-26T13:03:57.048Z</time></trkpt><trkpt lat="38.0513988" lon="15.2420189"><ele>833.2</ele><time>2026-04-26T13:03:58.048Z</time></trkpt><trkpt lat="38.0513506" lon="15.241883"><ele>829.4000000000001</ele><time>2026-04-26T13:03:59.048Z</time></trkpt><trkpt lat="38.0513161" lon="15.2417622"><ele>825.5999999999999</ele><time>2026-04-26T13:04:00.049Z</time></trkpt><trkpt lat="38.0512861" lon="15.2416542"><ele>821.8</ele><time>2026-04-26T13:04:01.048Z</time></trkpt><trkpt lat="38.0512417" lon="15.241545"><ele>818.0</ele><time>2026-04-26T13:04:02.048Z</time></trkpt><trkpt lat="38.051205" lon="15.2414383"><ele>818.0000000000001</ele><time>2026-04-26T13:04:03.048Z</time></trkpt><trkpt lat="38.0511783" lon="15.2413367"><ele>818.0</ele><time>2026-04-26T13:04:04.048Z</time></trkpt><trkpt lat="38.0511667" lon="15.2412383"><ele>818.0</ele><time>2026-04-26T13:04:05.048Z</time></trkpt><trkpt lat="38.0511767" lon="15.241135"><ele>818.0</ele><time>2026-04-26T13:04:06.048Z</time></trkpt><trkpt lat="38.0512017" lon="15.2410233"><ele>818.0000000000001</ele><time>2026-04-26T13:04:07.048Z</time></trkpt><trkpt lat="38.0512217" lon="15.2409"><ele>818.0</ele><time>2026-04-26T13:04:08.048Z</time></trkpt><trkpt lat="38.05124" lon="15.2407483"><ele>818.0</ele><time>2026-04-26T13:04:09.048Z</time></trkpt><trkpt lat="38.0512533" lon="15.240595"><ele>818.0</ele><time>2026-04-26T13:04:10.048Z</time></trkpt><trkpt lat="38.0512633" lon="15.2404383"><ele>818.0</ele><time>2026-04-26T13:04:11.048Z</time></trkpt><trkpt lat="38.0512733" lon="15.2402933"><ele>818.0</ele><time>2026-04-26T13:04:12.048Z</time></trkpt><trkpt lat="38.051275" lon="15.2401867"><ele>818.0</ele><time>2026-04-26T13:04:13.048Z</time></trkpt><trkpt lat="38.05128" lon="15.240095"><ele>818.0</ele><time>2026-04-26T13:04:14.048Z</time></trkpt><trkpt lat="38.0513167" lon="15.2399517"><ele>818.0</ele><time>2026-04-26T13:04:16.048Z</time></trkpt><trkpt lat="38.0513583" lon="15.2398583"><ele>818.0</ele><time>2026-04-26T13:04:17.048Z</time></trkpt><trkpt lat="38.05141" lon="15.2397667"><ele>818.0</ele><time>2026-04-26T13:04:18.048Z</time></trkpt><trkpt lat="38.0514833" lon="15.239645"><ele>818.0</ele><time>2026-04-26T13:04:19.048Z</time></trkpt><trkpt lat="38.051555" lon="15.23954"><ele>822.1666666666667</ele><time>2026-04-26T13:04:20.048Z</time></trkpt><trkpt lat="38.051625" lon="15.2394733"><ele>826.3333333333334</ele><time>2026-04-26T13:04:21.048Z</time></trkpt><trkpt lat="38.0516817" lon="15.2394267"><ele>830.5</ele><time>2026-04-26T13:04:22.048Z</time></trkpt><trkpt lat="38.0517517" lon="15.239405"><ele>834.6666666666667</ele><time>2026-04-26T13:04:23.049Z</time></trkpt><trkpt lat="38.05183" lon="15.2393833"><ele>838.8333333333334</ele><time>2026-04-26T13:04:24.048Z</time></trkpt><trkpt lat="38.0519167" lon="15.2393533"><ele>843.0</ele><time>2026-04-26T13:04:25.048Z</time></trkpt><trkpt lat="38.0519933" lon="15.23931"><ele>843.0</ele><time>2026-04-26T13:04:26.048Z</time></trkpt><trkpt lat="38.052065" lon="15.2392117"><ele>843.0</ele><time>2026-04-26T13:04:28.048Z</time></trkpt><trkpt lat="38.0520683" lon="15.2390683"><ele>843.0</ele><time>2026-04-26T13:04:30.048Z</time></trkpt><trkpt lat="38.0520583" lon="15.2389633"><ele>843.0</ele><time>2026-04-26T13:04:31.048Z</time></trkpt><trkpt lat="38.0520633" lon="15.238845"><ele>843.0</ele><time>2026-04-26T13:04:32.048Z</time></trkpt><trkpt lat="38.0520783" lon="15.2387583"><ele>841.0</ele><time>2026-04-26T13:04:33.048Z</time></trkpt><trkpt lat="38.0521383" lon="15.238645"><ele>839.0</ele><time>2026-04-26T13:04:35.049Z</time></trkpt><trkpt lat="38.0522183" lon="15.2385717"><ele>837.0</ele><time>2026-04-26T13:04:37.048Z</time></trkpt><trkpt lat="38.0522583" lon="15.238455"><ele>835.0</ele><time>2026-04-26T13:04:39.049Z</time></trkpt><trkpt lat="38.0522467" lon="15.2383683"><ele>833.0</ele><time>2026-04-26T13:04:40.048Z</time></trkpt><trkpt lat="38.05223" lon="15.238285"><ele>831.0</ele><time>2026-04-26T13:04:41.048Z</time></trkpt><trkpt lat="38.0522183" lon="15.238185"><ele>831.1999999999999</ele><time>2026-04-26T13:04:42.048Z</time></trkpt><trkpt lat="38.0522183" lon="15.2380683"><ele>831.4</ele><time>2026-04-26T13:04:43.048Z</time></trkpt><trkpt lat="38.0522317" lon="15.2379317"><ele>831.6</ele><time>2026-04-26T13:04:44.048Z</time></trkpt><trkpt lat="38.0522383" lon="15.2377933"><ele>831.8</ele><time>2026-04-26T13:04:45.048Z</time></trkpt><trkpt lat="38.052255" lon="15.2376817"><ele>832.0</ele><time>2026-04-26T13:04:46.048Z</time></trkpt><trkpt lat="38.0523017" lon="15.2375783"><ele>832.0</ele><time>2026-04-26T13:04:48.048Z</time></trkpt><trkpt lat="38.0523883" lon="15.2375817"><ele>832.0</ele><time>2026-04-26T13:04:50.049Z</time></trkpt><trkpt lat="38.052465" lon="15.2376067"><ele>832.0</ele><time>2026-04-26T13:04:51.048Z</time></trkpt><trkpt lat="38.0525567" lon="15.2376517"><ele>832.0</ele><time>2026-04-26T13:04:52.048Z</time></trkpt><trkpt lat="38.052645" lon="15.2377267"><ele>832.0</ele><time>2026-04-26T13:04:53.048Z</time></trkpt><trkpt lat="38.0527017" lon="15.2378"><ele>835.1666666666666</ele><time>2026-04-26T13:04:54.048Z</time></trkpt><trkpt lat="38.0527667" lon="15.2378817"><ele>838.3333333333333</ele><time>2026-04-26T13:04:55.048Z</time></trkpt><trkpt lat="38.0528433" lon="15.2379483"><ele>841.5</ele><time>2026-04-26T13:04:56.048Z</time></trkpt><trkpt lat="38.05292" lon="15.2379817"><ele>844.6666666666667</ele><time>2026-04-26T13:04:57.048Z</time></trkpt><trkpt lat="38.0530067" lon="15.2379933"><ele>847.8333333333334</ele><time>2026-04-26T13:04:58.048Z</time></trkpt><trkpt lat="38.0530933" lon="15.237985"><ele>851.0</ele><time>2026-04-26T13:04:59.048Z</time></trkpt><trkpt lat="38.0531633" lon="15.2379733"><ele>851.0000000000001</ele><time>2026-04-26T13:05:00.048Z</time></trkpt><trkpt lat="38.0532283" lon="15.2379517"><ele>851.0</ele><time>2026-04-26T13:05:01.048Z</time></trkpt><trkpt lat="38.053295" lon="15.237935"><ele>851.0</ele><time>2026-04-26T13:05:02.048Z</time></trkpt><trkpt lat="38.0533683" lon="15.2378883"><ele>851.0</ele><time>2026-04-26T13:05:03.048Z</time></trkpt><trkpt lat="38.05343" lon="15.2378433"><ele>851.0000000000001</ele><time>2026-04-26T13:05:04.048Z</time></trkpt><trkpt lat="38.05354" lon="15.2378367"><ele>851.0</ele><time>2026-04-26T13:05:06.048Z</time></trkpt><trkpt lat="38.05361" lon="15.2378417"><ele>850.6666666666667</ele><time>2026-04-26T13:05:07.049Z</time></trkpt><trkpt lat="38.0536817" lon="15.2378367"><ele>850.3333333333334</ele><time>2026-04-26T13:05:08.048Z</time></trkpt><trkpt lat="38.0537483" lon="15.237805"><ele>850.0</ele><time>2026-04-26T13:05:09.048Z</time></trkpt><trkpt lat="38.0538283" lon="15.2376767"><ele>849.6666666666667</ele><time>2026-04-26T13:05:11.048Z</time></trkpt><trkpt lat="38.0538367" lon="15.2375683"><ele>849.3333333333334</ele><time>2026-04-26T13:05:12.049Z</time></trkpt><trkpt lat="38.0538383" lon="15.23747"><ele>849.0</ele><time>2026-04-26T13:05:13.048Z</time></trkpt><trkpt lat="38.0538433" lon="15.23737"><ele>845.5</ele><time>2026-04-26T13:05:14.048Z</time></trkpt><trkpt lat="38.0538733" lon="15.23728"><ele>842.0</ele><time>2026-04-26T13:05:15.048Z</time></trkpt><trkpt lat="38.0539167" lon="15.2371883"><ele>838.5</ele><time>2026-04-26T13:05:16.049Z</time></trkpt><trkpt lat="38.0539617" lon="15.23709"><ele>835.0</ele><time>2026-04-26T13:05:17.048Z</time></trkpt><trkpt lat="38.0539917" lon="15.2369917"><ele>831.5</ele><time>2026-04-26T13:05:18.048Z</time></trkpt><trkpt lat="38.054015" lon="15.2368983"><ele>828.0</ele><time>2026-04-26T13:05:19.048Z</time></trkpt><trkpt lat="38.0540467" lon="15.23682"><ele>828.0</ele><time>2026-04-26T13:05:20.048Z</time></trkpt><trkpt lat="38.0540933" lon="15.236755"><ele>828.0</ele><time>2026-04-26T13:05:21.048Z</time></trkpt><trkpt lat="38.0541567" lon="15.2367217"><ele>828.0</ele><time>2026-04-26T13:05:22.048Z</time></trkpt><trkpt lat="38.0542467" lon="15.2366783"><ele>828.0</ele><time>2026-04-26T13:05:23.048Z</time></trkpt><trkpt lat="38.0543533" lon="15.2366433"><ele>828.0</ele><time>2026-04-26T13:05:24.048Z</time></trkpt><trkpt lat="38.0544217" lon="15.2365867"><ele>828.0</ele><time>2026-04-26T13:05:25.048Z</time></trkpt><trkpt lat="38.0545267" lon="15.2365483"><ele>834.4</ele><time>2026-04-26T13:05:27.048Z</time></trkpt><trkpt lat="38.0546617" lon="15.2366183"><ele>840.8</ele><time>2026-04-26T13:05:29.048Z</time></trkpt><trkpt lat="38.0547417" lon="15.2366867"><ele>847.2</ele><time>2026-04-26T13:05:30.048Z</time></trkpt><trkpt lat="38.05482" lon="15.2367633"><ele>853.6</ele><time>2026-04-26T13:05:31.048Z</time></trkpt><trkpt lat="38.0548867" lon="15.2368417"><ele>860.0</ele><time>2026-04-26T13:05:32.048Z</time></trkpt><trkpt lat="38.05494" lon="15.2369067"><ele>860.3333333333334</ele><time>2026-04-26T13:05:33.048Z</time></trkpt><trkpt lat="38.0549833" lon="15.2369667"><ele>860.6666666666667</ele><time>2026-04-26T13:05:34.048Z</time></trkpt><trkpt lat="38.0550417" lon="15.23706"><ele>861.0</ele><time>2026-04-26T13:05:36.048Z</time></trkpt><trkpt lat="38.0551333" lon="15.2370383"><ele>861.3333333333333</ele><time>2026-04-26T13:05:40.048Z</time></trkpt><trkpt lat="38.0551983" lon="15.2369917"><ele>861.6666666666666</ele><time>2026-04-26T13:05:41.048Z</time></trkpt><trkpt lat="38.0552767" lon="15.2369483"><ele>862.0</ele><time>2026-04-26T13:05:42.048Z</time></trkpt><trkpt lat="38.055345" lon="15.23693"><ele>861.9999999999999</ele><time>2026-04-26T13:05:43.048Z</time></trkpt><trkpt lat="38.055415" lon="15.2369117"><ele>862.0</ele><time>2026-04-26T13:05:44.048Z</time></trkpt><trkpt lat="38.0554833" lon="15.2368867"><ele>862.0</ele><time>2026-04-26T13:05:45.048Z</time></trkpt><trkpt lat="38.055545" lon="15.2368533"><ele>862.0</ele><time>2026-04-26T13:05:46.048Z</time></trkpt><trkpt lat="38.0556717" lon="15.2368417"><ele>861.9999999999999</ele><time>2026-04-26T13:05:48.048Z</time></trkpt><trkpt lat="38.0557617" lon="15.2368617"><ele>862.0</ele><time>2026-04-26T13:05:49.048Z</time></trkpt><trkpt lat="38.055865" lon="15.2368817"><ele>862.8333333333333</ele><time>2026-04-26T13:05:50.048Z</time></trkpt><trkpt lat="38.0559583" lon="15.23691"><ele>863.6666666666666</ele><time>2026-04-26T13:05:51.048Z</time></trkpt><trkpt lat="38.0560417" lon="15.23695"><ele>864.5</ele><time>2026-04-26T13:05:52.048Z</time></trkpt><trkpt lat="38.0561283" lon="15.236995"><ele>865.3333333333333</ele><time>2026-04-26T13:05:53.048Z</time></trkpt><trkpt lat="38.0562" lon="15.2370317"><ele>866.1666666666666</ele><time>2026-04-26T13:05:54.048Z</time></trkpt><trkpt lat="38.0562683" lon="15.237045"><ele>867.0</ele><time>2026-04-26T13:05:55.048Z</time></trkpt><trkpt lat="38.0563383" lon="15.2370217"><ele>867.0</ele><time>2026-04-26T13:05:56.048Z</time></trkpt><trkpt lat="38.05643" lon="15.2369817"><ele>867.0</ele><time>2026-04-26T13:05:57.048Z</time></trkpt><trkpt lat="38.05653" lon="15.236945"><ele>867.0</ele><time>2026-04-26T13:05:58.048Z</time></trkpt><trkpt lat="38.0566167" lon="15.236925"><ele>867.0</ele><time>2026-04-26T13:05:59.048Z</time></trkpt><trkpt lat="38.056695" lon="15.2369067"><ele>867.0</ele><time>2026-04-26T13:06:00.048Z</time></trkpt><trkpt lat="38.0567717" lon="15.236895"><ele>867.0</ele><time>2026-04-26T13:06:01.048Z</time></trkpt><trkpt lat="38.0568467" lon="15.2368917"><ele>867.1666666666666</ele><time>2026-04-26T13:06:02.048Z</time></trkpt><trkpt lat="38.0569167" lon="15.2368783"><ele>867.3333333333333</ele><time>2026-04-26T13:06:03.048Z</time></trkpt><trkpt lat="38.0570083" lon="15.236835"><ele>867.5</ele><time>2026-04-26T13:06:04.048Z</time></trkpt><trkpt lat="38.0571017" lon="15.236775"><ele>867.6666666666666</ele><time>2026-04-26T13:06:05.048Z</time></trkpt><trkpt lat="38.0571817" lon="15.2367333"><ele>867.8333333333333</ele><time>2026-04-26T13:06:06.048Z</time></trkpt><trkpt lat="38.0572533" lon="15.2367017"><ele>868.0</ele><time>2026-04-26T13:06:07.048Z</time></trkpt><trkpt lat="38.0573167" lon="15.2366933"><ele>868.0</ele><time>2026-04-26T13:06:08.048Z</time></trkpt><trkpt lat="38.057385" lon="15.2366983"><ele>868.0</ele><time>2026-04-26T13:06:09.048Z</time></trkpt><trkpt lat="38.057475" lon="15.2367367"><ele>868.0</ele><time>2026-04-26T13:06:10.048Z</time></trkpt><trkpt lat="38.0575717" lon="15.2367767"><ele>868.0</ele><time>2026-04-26T13:06:11.048Z</time></trkpt><trkpt lat="38.0576717" lon="15.2368"><ele>868.0</ele><time>2026-04-26T13:06:12.048Z</time></trkpt><trkpt lat="38.0577683" lon="15.2368133"><ele>869.6666666666666</ele><time>2026-04-26T13:06:13.048Z</time></trkpt><trkpt lat="38.0578533" lon="15.23683"><ele>871.3333333333333</ele><time>2026-04-26T13:06:14.048Z</time></trkpt><trkpt lat="38.0579117" lon="15.23688"><ele>873.0</ele><time>2026-04-26T13:06:15.048Z</time></trkpt><trkpt lat="38.0579583" lon="15.236945"><ele>874.6666666666667</ele><time>2026-04-26T13:06:16.048Z</time></trkpt><trkpt lat="38.0580133" lon="15.23704"><ele>876.3333333333334</ele><time>2026-04-26T13:06:17.048Z</time></trkpt><trkpt lat="38.0580867" lon="15.2371583"><ele>878.0</ele><time>2026-04-26T13:06:18.048Z</time></trkpt><trkpt lat="38.058175" lon="15.2372667"><ele>880.5999999999999</ele><time>2026-04-26T13:06:19.048Z</time></trkpt><trkpt lat="38.0582633" lon="15.2373833"><ele>883.1999999999999</ele><time>2026-04-26T13:06:20.048Z</time></trkpt><trkpt lat="38.0583433" lon="15.237475"><ele>885.8</ele><time>2026-04-26T13:06:21.048Z</time></trkpt><trkpt lat="38.05843" lon="15.2375567"><ele>888.4</ele><time>2026-04-26T13:06:22.048Z</time></trkpt><trkpt lat="38.05849" lon="15.2376133"><ele>891.0</ele><time>2026-04-26T13:06:23.048Z</time></trkpt><trkpt lat="38.05859" lon="15.2376417"><ele>891.0</ele><time>2026-04-26T13:06:25.048Z</time></trkpt><trkpt lat="38.058655" lon="15.2376033"><ele>890.9999999999999</ele><time>2026-04-26T13:06:27.049Z</time></trkpt><trkpt lat="38.0586467" lon="15.237515"><ele>890.9999999999999</ele><time>2026-04-26T13:06:29.048Z</time></trkpt><trkpt lat="38.058565" lon="15.2373633"><ele>891.0</ele><time>2026-04-26T13:06:31.048Z</time></trkpt><trkpt lat="38.058545" lon="15.2372733"><ele>891.0</ele><time>2026-04-26T13:06:32.048Z</time></trkpt><trkpt lat="38.0585233" lon="15.2371617"><ele>889.3333333333334</ele><time>2026-04-26T13:06:33.048Z</time></trkpt><trkpt lat="38.058505" lon="15.237045"><ele>887.6666666666667</ele><time>2026-04-26T13:06:34.048Z</time></trkpt><trkpt lat="38.0584967" lon="15.2369417"><ele>886.0</ele><time>2026-04-26T13:06:35.048Z</time></trkpt><trkpt lat="38.0585017" lon="15.2368533"><ele>884.3333333333334</ele><time>2026-04-26T13:06:36.048Z</time></trkpt><trkpt lat="38.0585517" lon="15.23672"><ele>882.6666666666667</ele><time>2026-04-26T13:06:38.048Z</time></trkpt><trkpt lat="38.0586033" lon="15.236645"><ele>881.0</ele><time>2026-04-26T13:06:39.048Z</time></trkpt><trkpt lat="38.058645" lon="15.2365717"><ele>881.0</ele><time>2026-04-26T13:06:40.048Z</time></trkpt><trkpt lat="38.0586767" lon="15.2364883"><ele>880.9999999999999</ele><time>2026-04-26T13:06:41.048Z</time></trkpt><trkpt lat="38.0587167" lon="15.2363417"><ele>880.9999999999999</ele><time>2026-04-26T13:06:43.048Z</time></trkpt><trkpt lat="38.05878" lon="15.2362083"><ele>881.0</ele><time>2026-04-26T13:06:45.048Z</time></trkpt><trkpt lat="38.0588167" lon="15.2361083"><ele>881.0</ele><time>2026-04-26T13:06:46.049Z</time></trkpt><trkpt lat="38.0588617" lon="15.2360217"><ele>880.4</ele><time>2026-04-26T13:06:47.048Z</time></trkpt><trkpt lat="38.0589233" lon="15.235935"><ele>879.8</ele><time>2026-04-26T13:06:48.048Z</time></trkpt><trkpt lat="38.0590083" lon="15.2358517"><ele>879.1999999999999</ele><time>2026-04-26T13:06:49.048Z</time></trkpt><trkpt lat="38.0590967" lon="15.2357717"><ele>878.5999999999999</ele><time>2026-04-26T13:06:50.048Z</time></trkpt><trkpt lat="38.0591833" lon="15.2357017"><ele>878.0</ele><time>2026-04-26T13:06:51.048Z</time></trkpt><trkpt lat="38.0592633" lon="15.23561"><ele>880.6666666666667</ele><time>2026-04-26T13:06:52.048Z</time></trkpt><trkpt lat="38.059325" lon="15.2355267"><ele>883.3333333333334</ele><time>2026-04-26T13:06:53.048Z</time></trkpt><trkpt lat="38.05937" lon="15.2354233"><ele>886.0</ele><time>2026-04-26T13:06:54.048Z</time></trkpt><trkpt lat="38.0594067" lon="15.2353417"><ele>888.6666666666667</ele><time>2026-04-26T13:06:55.048Z</time></trkpt><trkpt lat="38.0594533" lon="15.2352533"><ele>891.3333333333334</ele><time>2026-04-26T13:06:56.048Z</time></trkpt><trkpt lat="38.059505" lon="15.2351683"><ele>894.0</ele><time>2026-04-26T13:06:58.048Z</time></trkpt><trkpt lat="38.05956" lon="15.23522"><ele>894.0</ele><time>2026-04-26T13:07:00.048Z</time></trkpt><trkpt lat="38.0595883" lon="15.2353383"><ele>894.0</ele><time>2026-04-26T13:07:01.049Z</time></trkpt><trkpt lat="38.059645" lon="15.235515"><ele>894.0</ele><time>2026-04-26T13:07:02.048Z</time></trkpt><trkpt lat="38.0597" lon="15.2357183"><ele>894.0</ele><time>2026-04-26T13:07:03.048Z</time></trkpt><trkpt lat="38.0597667" lon="15.2358867"><ele>894.2</ele><time>2026-04-26T13:07:04.048Z</time></trkpt><trkpt lat="38.0598167" lon="15.236005"><ele>894.4000000000001</ele><time>2026-04-26T13:07:05.048Z</time></trkpt><trkpt lat="38.0598767" lon="15.236095"><ele>894.6</ele><time>2026-04-26T13:07:07.048Z</time></trkpt><trkpt lat="38.0598983" lon="15.2359883"><ele>894.8</ele><time>2026-04-26T13:07:10.048Z</time></trkpt><trkpt lat="38.05988" lon="15.235845"><ele>895.0</ele><time>2026-04-26T13:07:12.048Z</time></trkpt><trkpt lat="38.059855" lon="15.2357083"><ele>894.9999999999999</ele><time>2026-04-26T13:07:14.048Z</time></trkpt><trkpt lat="38.0598017" lon="15.2356383"><ele>895.0</ele><time>2026-04-26T13:07:16.048Z</time></trkpt><trkpt lat="38.0597383" lon="15.2355933"><ele>895.0</ele><time>2026-04-26T13:07:18.048Z</time></trkpt><trkpt lat="38.0597083" lon="15.2356967"><ele>895.0</ele><time>2026-04-26T13:07:22.048Z</time></trkpt><trkpt lat="38.0597433" lon="15.2357983"><ele>894.9999999999999</ele><time>2026-04-26T13:07:24.048Z</time></trkpt><trkpt lat="38.0598017" lon="15.2359117"><ele>895.0</ele><time>2026-04-26T13:08:09.048Z</time></trkpt><trkpt lat="38.05985" lon="15.2359933"><ele>895.0</ele><time>2026-04-26T13:08:10.048Z</time></trkpt><trkpt lat="38.05991" lon="15.236095"><ele>895.0</ele><time>2026-04-26T13:08:11.048Z</time></trkpt><trkpt lat="38.059985" lon="15.236195"><ele>895.0</ele><time>2026-04-26T13:08:12.048Z</time></trkpt><trkpt lat="38.0600667" lon="15.2363033"><ele>895.0</ele><time>2026-04-26T13:08:13.048Z</time></trkpt><trkpt lat="38.0601533" lon="15.23641"><ele>895.0</ele><time>2026-04-26T13:08:14.048Z</time></trkpt><trkpt lat="38.06024" lon="15.2365133"><ele>896.25</ele><time>2026-04-26T13:08:15.048Z</time></trkpt><trkpt lat="38.06033" lon="15.236615"><ele>897.5</ele><time>2026-04-26T13:08:16.048Z</time></trkpt><trkpt lat="38.0604267" lon="15.2367133"><ele>898.75</ele><time>2026-04-26T13:08:17.048Z</time></trkpt><trkpt lat="38.0605217" lon="15.2368033"><ele>900.0</ele><time>2026-04-26T13:08:18.048Z</time></trkpt><trkpt lat="38.0606167" lon="15.2368867"><ele>900.0</ele><time>2026-04-26T13:08:19.048Z</time></trkpt><trkpt lat="38.0606933" lon="15.2369983"><ele>900.0</ele><time>2026-04-26T13:08:20.048Z</time></trkpt><trkpt lat="38.0607583" lon="15.23712"><ele>900.0</ele><time>2026-04-26T13:08:21.048Z</time></trkpt><trkpt lat="38.0608133" lon="15.23724"><ele>900.0</ele><time>2026-04-26T13:08:22.048Z</time></trkpt><trkpt lat="38.0608667" lon="15.23737"><ele>901.75</ele><time>2026-04-26T13:08:23.048Z</time></trkpt><trkpt lat="38.0609167" lon="15.2375233"><ele>903.5</ele><time>2026-04-26T13:08:24.049Z</time></trkpt><trkpt lat="38.0609417" lon="15.2377067"><ele>905.25</ele><time>2026-04-26T13:08:25.048Z</time></trkpt><trkpt lat="38.0609633" lon="15.2379117"><ele>907.0</ele><time>2026-04-26T13:08:26.048Z</time></trkpt><trkpt lat="38.0609633" lon="15.2381367"><ele>907.0</ele><time>2026-04-26T13:08:27.048Z</time></trkpt><trkpt lat="38.0609583" lon="15.238345"><ele>907.0</ele><time>2026-04-26T13:08:28.048Z</time></trkpt><trkpt lat="38.0609533" lon="15.2385367"><ele>907.0</ele><time>2026-04-26T13:08:29.048Z</time></trkpt><trkpt lat="38.060935" lon="15.23873"><ele>907.0</ele><time>2026-04-26T13:08:30.048Z</time></trkpt><trkpt lat="38.0609067" lon="15.2388983"><ele>907.0</ele><time>2026-04-26T13:08:31.049Z</time></trkpt><trkpt lat="38.0608633" lon="15.239045"><ele>907.0</ele><time>2026-04-26T13:08:32.048Z</time></trkpt><trkpt lat="38.0608033" lon="15.239165"><ele>907.0</ele><time>2026-04-26T13:08:33.048Z</time></trkpt><trkpt lat="38.0607283" lon="15.2392933"><ele>907.3333333333333</ele><time>2026-04-26T13:08:34.048Z</time></trkpt><trkpt lat="38.0606684" lon="15.2394066"><ele>907.6666666666666</ele><time>2026-04-26T13:08:35.048Z</time></trkpt><trkpt lat="38.0606231" lon="15.2394997"><ele>908.0</ele><time>2026-04-26T13:08:36.048Z</time></trkpt><trkpt lat="38.0606014" lon="15.2395775"><ele>908.3333333333333</ele><time>2026-04-26T13:08:37.048Z</time></trkpt><trkpt lat="38.0606409" lon="15.2396675"><ele>908.6666666666666</ele><time>2026-04-26T13:08:39.048Z</time></trkpt><trkpt lat="38.0607461" lon="15.2396636"><ele>909.0</ele><time>2026-04-26T13:08:41.048Z</time></trkpt><trkpt lat="38.0608237" lon="15.2396442"><ele>909.0</ele><time>2026-04-26T13:08:42.048Z</time></trkpt><trkpt lat="38.060914" lon="15.2396163"><ele>909.0</ele><time>2026-04-26T13:08:43.048Z</time></trkpt><trkpt lat="38.0610167" lon="15.2395875"><ele>909.0</ele><time>2026-04-26T13:08:44.048Z</time></trkpt><trkpt lat="38.0611385" lon="15.239565"><ele>909.0</ele><time>2026-04-26T13:08:45.048Z</time></trkpt><trkpt lat="38.0612703" lon="15.239553"><ele>909.0</ele><time>2026-04-26T13:08:46.048Z</time></trkpt><trkpt lat="38.0614093" lon="15.2395527"><ele>909.0</ele><time>2026-04-26T13:08:47.048Z</time></trkpt><trkpt lat="38.0615343" lon="15.2395741"><ele>909.0</ele><time>2026-04-26T13:08:48.048Z</time></trkpt><trkpt lat="38.0616452" lon="15.2396161"><ele>909.0</ele><time>2026-04-26T13:08:49.048Z</time></trkpt><trkpt lat="38.0617611" lon="15.239683"><ele>909.25</ele><time>2026-04-26T13:08:50.048Z</time></trkpt><trkpt lat="38.0618831" lon="15.2397531"><ele>909.5</ele><time>2026-04-26T13:08:51.048Z</time></trkpt><trkpt lat="38.0620054" lon="15.2398224"><ele>909.75</ele><time>2026-04-26T13:08:52.048Z</time></trkpt><trkpt lat="38.0621317" lon="15.2398999"><ele>910.0</ele><time>2026-04-26T13:08:53.048Z</time></trkpt><trkpt lat="38.0622566" lon="15.2399762"><ele>910.25</ele><time>2026-04-26T13:08:54.049Z</time></trkpt><trkpt lat="38.0623767" lon="15.2400552"><ele>910.5</ele><time>2026-04-26T13:08:55.048Z</time></trkpt><trkpt lat="38.0624841" lon="15.2401286"><ele>910.75</ele><time>2026-04-26T13:08:56.048Z</time></trkpt><trkpt lat="38.0625874" lon="15.2401997"><ele>911.0</ele><time>2026-04-26T13:08:57.048Z</time></trkpt><trkpt lat="38.0626871" lon="15.240271"><ele>912.0</ele><time>2026-04-26T13:08:58.048Z</time></trkpt><trkpt lat="38.0627955" lon="15.2403479"><ele>913.0</ele><time>2026-04-26T13:08:59.048Z</time></trkpt><trkpt lat="38.0629038" lon="15.2404331"><ele>914.0</ele><time>2026-04-26T13:09:00.048Z</time></trkpt><trkpt lat="38.0630045" lon="15.2405177"><ele>915.0</ele><time>2026-04-26T13:09:01.048Z</time></trkpt><trkpt lat="38.0631113" lon="15.2406005"><ele>914.0</ele><time>2026-04-26T13:09:02.048Z</time></trkpt><trkpt lat="38.0632215" lon="15.2406817"><ele>913.0</ele><time>2026-04-26T13:09:03.049Z</time></trkpt><trkpt lat="38.0633303" lon="15.2407572"><ele>912.0</ele><time>2026-04-26T13:09:04.048Z</time></trkpt><trkpt lat="38.0634356" lon="15.2408231"><ele>911.0</ele><time>2026-04-26T13:09:05.048Z</time></trkpt><trkpt lat="38.0635392" lon="15.2408881"><ele>913.25</ele><time>2026-04-26T13:09:06.049Z</time></trkpt><trkpt lat="38.0636472" lon="15.2409338"><ele>915.5</ele><time>2026-04-26T13:09:07.048Z</time></trkpt><trkpt lat="38.0637702" lon="15.2409582"><ele>917.75</ele><time>2026-04-26T13:09:08.048Z</time></trkpt><trkpt lat="38.063905" lon="15.2409674"><ele>920.0</ele><time>2026-04-26T13:09:09.048Z</time></trkpt><trkpt lat="38.0640519" lon="15.2409635"><ele>922.0</ele><time>2026-04-26T13:09:10.048Z</time></trkpt><trkpt lat="38.0642039" lon="15.2409446"><ele>924.0</ele><time>2026-04-26T13:09:11.048Z</time></trkpt><trkpt lat="38.0643561" lon="15.2409114"><ele>926.0</ele><time>2026-04-26T13:09:12.048Z</time></trkpt><trkpt lat="38.0644994" lon="15.2408716"><ele>926.0</ele><time>2026-04-26T13:09:13.048Z</time></trkpt><trkpt lat="38.0646215" lon="15.240844"><ele>925.9999999999999</ele><time>2026-04-26T13:09:14.049Z</time></trkpt><trkpt lat="38.0647263" lon="15.2408384"><ele>925.9999999999999</ele><time>2026-04-26T13:09:15.048Z</time></trkpt><trkpt lat="38.0648117" lon="15.240852"><ele>926.0</ele><time>2026-04-26T13:09:16.048Z</time></trkpt><trkpt lat="38.0648876" lon="15.2408923"><ele>926.0</ele><time>2026-04-26T13:09:17.048Z</time></trkpt><trkpt lat="38.0649454" lon="15.2409601"><ele>926.0</ele><time>2026-04-26T13:09:18.048Z</time></trkpt><trkpt lat="38.0649962" lon="15.2410598"><ele>925.9999999999999</ele><time>2026-04-26T13:09:19.048Z</time></trkpt><trkpt lat="38.0650314" lon="15.241193"><ele>925.9999999999999</ele><time>2026-04-26T13:09:20.048Z</time></trkpt><trkpt lat="38.0650804" lon="15.2413262"><ele>926.0</ele><time>2026-04-26T13:09:21.048Z</time></trkpt><trkpt lat="38.0651445" lon="15.2414673"><ele>926.0</ele><time>2026-04-26T13:09:22.048Z</time></trkpt><trkpt lat="38.065236" lon="15.2416028"><ele>929.6666666666667</ele><time>2026-04-26T13:09:23.048Z</time></trkpt><trkpt lat="38.0653465" lon="15.2417332"><ele>933.3333333333333</ele><time>2026-04-26T13:09:24.048Z</time></trkpt><trkpt lat="38.0654699" lon="15.2418502"><ele>937.0</ele><time>2026-04-26T13:09:25.048Z</time></trkpt><trkpt lat="38.0656001" lon="15.2419581"><ele>937.0</ele><time>2026-04-26T13:09:26.048Z</time></trkpt><trkpt lat="38.0657261" lon="15.2420649"><ele>937.0</ele><time>2026-04-26T13:09:27.048Z</time></trkpt><trkpt lat="38.0658599" lon="15.2421545"><ele>937.0</ele><time>2026-04-26T13:09:28.048Z</time></trkpt><trkpt lat="38.065999" lon="15.2422187"><ele>938.2</ele><time>2026-04-26T13:09:29.048Z</time></trkpt><trkpt lat="38.0661346" lon="15.2422521"><ele>939.4000000000001</ele><time>2026-04-26T13:09:30.048Z</time></trkpt><trkpt lat="38.0662576" lon="15.2422731"><ele>940.5999999999999</ele><time>2026-04-26T13:09:31.048Z</time></trkpt><trkpt lat="38.0663543" lon="15.2423001"><ele>941.8</ele><time>2026-04-26T13:09:32.048Z</time></trkpt><trkpt lat="38.066432" lon="15.2423241"><ele>943.0</ele><time>2026-04-26T13:09:33.048Z</time></trkpt><trkpt lat="38.0665084" lon="15.2423605"><ele>943.0</ele><time>2026-04-26T13:09:34.048Z</time></trkpt><trkpt lat="38.0665933" lon="15.2424129"><ele>943.0</ele><time>2026-04-26T13:09:35.048Z</time></trkpt><trkpt lat="38.0666891" lon="15.2424656"><ele>943.0</ele><time>2026-04-26T13:09:36.049Z</time></trkpt><trkpt lat="38.0668042" lon="15.2425151"><ele>943.0</ele><time>2026-04-26T13:09:37.048Z</time></trkpt><trkpt lat="38.0669117" lon="15.2425557"><ele>943.0</ele><time>2026-04-26T13:09:38.048Z</time></trkpt><trkpt lat="38.066997" lon="15.2425862"><ele>943.2</ele><time>2026-04-26T13:09:39.048Z</time></trkpt><trkpt lat="38.0670634" lon="15.2426139"><ele>943.4</ele><time>2026-04-26T13:09:40.048Z</time></trkpt><trkpt lat="38.0671923" lon="15.242633"><ele>943.6000000000001</ele><time>2026-04-26T13:09:42.048Z</time></trkpt><trkpt lat="38.0672718" lon="15.242647"><ele>943.8000000000001</ele><time>2026-04-26T13:09:43.048Z</time></trkpt><trkpt lat="38.0673615" lon="15.2426884"><ele>944.0</ele><time>2026-04-26T13:09:44.048Z</time></trkpt><trkpt lat="38.0674519" lon="15.2427601"><ele>942.2</ele><time>2026-04-26T13:09:45.048Z</time></trkpt><trkpt lat="38.0675325" lon="15.2428537"><ele>940.4000000000001</ele><time>2026-04-26T13:09:46.048Z</time></trkpt><trkpt lat="38.0676066" lon="15.2429568"><ele>938.6</ele><time>2026-04-26T13:09:47.048Z</time></trkpt><trkpt lat="38.0676866" lon="15.2430498"><ele>936.8</ele><time>2026-04-26T13:09:48.048Z</time></trkpt><trkpt lat="38.0677808" lon="15.2431128"><ele>935.0</ele><time>2026-04-26T13:09:49.048Z</time></trkpt><trkpt lat="38.0678893" lon="15.2431519"><ele>935.0</ele><time>2026-04-26T13:09:50.048Z</time></trkpt><trkpt lat="38.0680206" lon="15.2431743"><ele>935.0</ele><time>2026-04-26T13:09:51.047Z</time></trkpt><trkpt lat="38.0681718" lon="15.2431941"><ele>935.0</ele><time>2026-04-26T13:09:52.047Z</time></trkpt><trkpt lat="38.0683312" lon="15.2432176"><ele>935.0</ele><time>2026-04-26T13:09:53.048Z</time></trkpt><trkpt lat="38.0684975" lon="15.2432451"><ele>936.3333333333334</ele><time>2026-04-26T13:09:54.047Z</time></trkpt><trkpt lat="38.0686708" lon="15.2432803"><ele>937.6666666666667</ele><time>2026-04-26T13:09:55.047Z</time></trkpt><trkpt lat="38.0688308" lon="15.243328"><ele>939.0</ele><time>2026-04-26T13:09:56.047Z</time></trkpt><trkpt lat="38.068974" lon="15.2433917"><ele>939.0</ele><time>2026-04-26T13:09:57.047Z</time></trkpt><trkpt lat="38.0691035" lon="15.2434532"><ele>939.0</ele><time>2026-04-26T13:09:58.047Z</time></trkpt><trkpt lat="38.0692303" lon="15.2434958"><ele>939.0</ele><time>2026-04-26T13:09:59.047Z</time></trkpt><trkpt lat="38.069371" lon="15.2434989"><ele>939.0</ele><time>2026-04-26T13:10:00.047Z</time></trkpt><trkpt lat="38.0695118" lon="15.2434815"><ele>941.5</ele><time>2026-04-26T13:10:01.047Z</time></trkpt><trkpt lat="38.0696483" lon="15.2434529"><ele>944.0</ele><time>2026-04-26T13:10:02.047Z</time></trkpt><trkpt lat="38.0697847" lon="15.2434263"><ele>946.5</ele><time>2026-04-26T13:10:03.047Z</time></trkpt><trkpt lat="38.0699191" lon="15.2434018"><ele>949.0</ele><time>2026-04-26T13:10:04.047Z</time></trkpt><trkpt lat="38.0700381" lon="15.243394"><ele>950.2</ele><time>2026-04-26T13:10:05.047Z</time></trkpt><trkpt lat="38.070135" lon="15.2434069"><ele>951.4000000000001</ele><time>2026-04-26T13:10:06.047Z</time></trkpt><trkpt lat="38.0702242" lon="15.2434447"><ele>952.6</ele><time>2026-04-26T13:10:07.047Z</time></trkpt><trkpt lat="38.0703155" lon="15.243504"><ele>953.8</ele><time>2026-04-26T13:10:08.047Z</time></trkpt><trkpt lat="38.070414" lon="15.2435837"><ele>955.0</ele><time>2026-04-26T13:10:09.047Z</time></trkpt><trkpt lat="38.0705156" lon="15.2436682"><ele>955.0</ele><time>2026-04-26T13:10:10.047Z</time></trkpt><trkpt lat="38.0706237" lon="15.2437317"><ele>955.0</ele><time>2026-04-26T13:10:11.047Z</time></trkpt><trkpt lat="38.0707303" lon="15.2437793"><ele>955.0</ele><time>2026-04-26T13:10:12.047Z</time></trkpt><trkpt lat="38.0708302" lon="15.2438184"><ele>955.0</ele><time>2026-04-26T13:10:13.047Z</time></trkpt><trkpt lat="38.0709337" lon="15.2438628"><ele>955.0</ele><time>2026-04-26T13:10:14.047Z</time></trkpt><trkpt lat="38.0710353" lon="15.2439116"><ele>952.4</ele><time>2026-04-26T13:10:15.047Z</time></trkpt><trkpt lat="38.0711319" lon="15.2439436"><ele>949.8</ele><time>2026-04-26T13:10:16.048Z</time></trkpt><trkpt lat="38.0712305" lon="15.2439466"><ele>947.2</ele><time>2026-04-26T13:10:17.047Z</time></trkpt><trkpt lat="38.0713417" lon="15.2439265"><ele>944.6</ele><time>2026-04-26T13:10:18.047Z</time></trkpt><trkpt lat="38.0714506" lon="15.2439132"><ele>942.0</ele><time>2026-04-26T13:10:19.047Z</time></trkpt><trkpt lat="38.0715525" lon="15.2439179"><ele>943.0</ele><time>2026-04-26T13:10:20.047Z</time></trkpt><trkpt lat="38.071669" lon="15.2439527"><ele>944.0</ele><time>2026-04-26T13:10:21.047Z</time></trkpt><trkpt lat="38.0717835" lon="15.2440119"><ele>945.0</ele><time>2026-04-26T13:10:22.047Z</time></trkpt><trkpt lat="38.071897" lon="15.2441042"><ele>946.0</ele><time>2026-04-26T13:10:23.047Z</time></trkpt><trkpt lat="38.0720073" lon="15.2442023"><ele>955.5</ele><time>2026-04-26T13:10:24.047Z</time></trkpt><trkpt lat="38.0721128" lon="15.2442964"><ele>965.0</ele><time>2026-04-26T13:10:25.047Z</time></trkpt><trkpt lat="38.0722272" lon="15.2443583"><ele>974.5</ele><time>2026-04-26T13:10:26.047Z</time></trkpt><trkpt lat="38.0723425" lon="15.2443856"><ele>984.0</ele><time>2026-04-26T13:10:27.047Z</time></trkpt><trkpt lat="38.0724527" lon="15.2443807"><ele>985.4000000000001</ele><time>2026-04-26T13:10:28.048Z</time></trkpt><trkpt lat="38.0725463" lon="15.2443635"><ele>986.8000000000001</ele><time>2026-04-26T13:10:29.047Z</time></trkpt><trkpt lat="38.0726633" lon="15.2443529"><ele>988.1999999999999</ele><time>2026-04-26T13:10:31.047Z</time></trkpt><trkpt lat="38.0727545" lon="15.2444604"><ele>989.5999999999999</ele><time>2026-04-26T13:10:33.047Z</time></trkpt><trkpt lat="38.0727998" lon="15.2445674"><ele>991.0</ele><time>2026-04-26T13:10:34.047Z</time></trkpt><trkpt lat="38.0728698" lon="15.2446886"><ele>992.5</ele><time>2026-04-26T13:10:35.048Z</time></trkpt><trkpt lat="38.0729605" lon="15.2448055"><ele>994.0</ele><time>2026-04-26T13:10:36.047Z</time></trkpt><trkpt lat="38.0730605" lon="15.2448836"><ele>995.5</ele><time>2026-04-26T13:10:37.047Z</time></trkpt><trkpt lat="38.0731689" lon="15.2449246"><ele>997.0</ele><time>2026-04-26T13:10:38.047Z</time></trkpt><trkpt lat="38.0732869" lon="15.2449449"><ele>997.0</ele><time>2026-04-26T13:10:39.047Z</time></trkpt><trkpt lat="38.0734026" lon="15.2449595"><ele>997.0</ele><time>2026-04-26T13:10:40.047Z</time></trkpt><trkpt lat="38.0735288" lon="15.2449776"><ele>997.0</ele><time>2026-04-26T13:10:41.047Z</time></trkpt><trkpt lat="38.0736485" lon="15.2450224"><ele>997.0</ele><time>2026-04-26T13:10:42.047Z</time></trkpt><trkpt lat="38.073762" lon="15.2450605"><ele>997.0</ele><time>2026-04-26T13:10:43.048Z</time></trkpt><trkpt lat="38.0738641" lon="15.2450869"><ele>997.0</ele><time>2026-04-26T13:10:44.047Z</time></trkpt><trkpt lat="38.0739602" lon="15.2450783"><ele>997.0</ele><time>2026-04-26T13:10:45.047Z</time></trkpt><trkpt lat="38.0740507" lon="15.2450266"><ele>997.0</ele><time>2026-04-26T13:10:46.047Z</time></trkpt><trkpt lat="38.0741288" lon="15.2449497"><ele>997.0</ele><time>2026-04-26T13:10:47.047Z</time></trkpt><trkpt lat="38.0741935" lon="15.2448614"><ele>994.6666666666666</ele><time>2026-04-26T13:10:48.047Z</time></trkpt><trkpt lat="38.0742475" lon="15.2447874"><ele>992.3333333333333</ele><time>2026-04-26T13:10:49.047Z</time></trkpt><trkpt lat="38.074302" lon="15.2446709"><ele>990.0</ele><time>2026-04-26T13:10:51.047Z</time></trkpt><trkpt lat="38.0743308" lon="15.2445935"><ele>987.6666666666667</ele><time>2026-04-26T13:10:55.047Z</time></trkpt><trkpt lat="38.0743927" lon="15.2445288"><ele>985.3333333333334</ele><time>2026-04-26T13:11:18.047Z</time></trkpt><trkpt lat="38.0744432" lon="15.2444598"><ele>983.0</ele><time>2026-04-26T13:11:20.047Z</time></trkpt><trkpt lat="38.0744854" lon="15.2443958"><ele>982.9999999999999</ele><time>2026-04-26T13:11:21.047Z</time></trkpt><trkpt lat="38.0745357" lon="15.244328"><ele>983.0</ele><time>2026-04-26T13:11:22.047Z</time></trkpt><trkpt lat="38.074581" lon="15.2442572"><ele>982.9999999999999</ele><time>2026-04-26T13:11:23.047Z</time></trkpt><trkpt lat="38.0746441" lon="15.2442042"><ele>982.9999999999999</ele><time>2026-04-26T13:11:24.047Z</time></trkpt><trkpt lat="38.0747094" lon="15.2441714"><ele>983.0</ele><time>2026-04-26T13:11:25.047Z</time></trkpt><trkpt lat="38.0747765" lon="15.2441594"><ele>982.9999999999999</ele><time>2026-04-26T13:11:26.047Z</time></trkpt><trkpt lat="38.0748492" lon="15.2441698"><ele>982.9999999999999</ele><time>2026-04-26T13:11:27.047Z</time></trkpt><trkpt lat="38.0749259" lon="15.2441749"><ele>983.2</ele><time>2026-04-26T13:11:28.047Z</time></trkpt><trkpt lat="38.0749904" lon="15.2441693"><ele>983.4</ele><time>2026-04-26T13:11:29.047Z</time></trkpt><trkpt lat="38.0750841" lon="15.2441319"><ele>983.6000000000001</ele><time>2026-04-26T13:11:31.047Z</time></trkpt><trkpt lat="38.0751292" lon="15.2440386"><ele>983.8000000000001</ele><time>2026-04-26T13:11:33.047Z</time></trkpt><trkpt lat="38.0751114" lon="15.2438852"><ele>984.0</ele><time>2026-04-26T13:11:35.047Z</time></trkpt><trkpt lat="38.075082" lon="15.2437911"><ele>982.1666666666666</ele><time>2026-04-26T13:11:36.047Z</time></trkpt><trkpt lat="38.075047" lon="15.2436988"><ele>980.3333333333333</ele><time>2026-04-26T13:11:37.047Z</time></trkpt><trkpt lat="38.075027" lon="15.2436076"><ele>978.5</ele><time>2026-04-26T13:11:38.047Z</time></trkpt><trkpt lat="38.0750107" lon="15.2435071"><ele>976.6666666666666</ele><time>2026-04-26T13:11:39.047Z</time></trkpt><trkpt lat="38.0750056" lon="15.2433991"><ele>974.8333333333333</ele><time>2026-04-26T13:11:40.047Z</time></trkpt><trkpt lat="38.0750098" lon="15.2432823"><ele>973.0</ele><time>2026-04-26T13:11:41.047Z</time></trkpt><trkpt lat="38.075029" lon="15.2431773"><ele>970.3333333333333</ele><time>2026-04-26T13:11:42.047Z</time></trkpt><trkpt lat="38.0750528" lon="15.2430722"><ele>967.6666666666666</ele><time>2026-04-26T13:11:43.047Z</time></trkpt><trkpt lat="38.0750874" lon="15.2429662"><ele>965.0</ele><time>2026-04-26T13:11:44.047Z</time></trkpt><trkpt lat="38.0751337" lon="15.2428678"><ele>962.3333333333333</ele><time>2026-04-26T13:11:45.047Z</time></trkpt><trkpt lat="38.075187" lon="15.2427861"><ele>959.6666666666666</ele><time>2026-04-26T13:11:46.047Z</time></trkpt><trkpt lat="38.0752434" lon="15.2427158"><ele>957.0</ele><time>2026-04-26T13:11:47.047Z</time></trkpt><trkpt lat="38.0752981" lon="15.2426696"><ele>957.0</ele><time>2026-04-26T13:11:48.047Z</time></trkpt><trkpt lat="38.0753957" lon="15.2426295"><ele>957.0</ele><time>2026-04-26T13:11:50.047Z</time></trkpt><trkpt lat="38.0754655" lon="15.2426629"><ele>957.0</ele><time>2026-04-26T13:11:52.047Z</time></trkpt><trkpt lat="38.07546" lon="15.242745"><ele>957.0</ele><time>2026-04-26T13:13:13.047Z</time></trkpt><trkpt lat="38.07551" lon="15.2428583"><ele>957.0</ele><time>2026-04-26T13:13:15.047Z</time></trkpt><trkpt lat="38.0755467" lon="15.242975"><ele>957.0</ele><time>2026-04-26T13:13:17.047Z</time></trkpt><trkpt lat="38.0756083" lon="15.2431067"><ele>958.0</ele><time>2026-04-26T13:13:19.047Z</time></trkpt><trkpt lat="38.075645" lon="15.2431767"><ele>959.0</ele><time>2026-04-26T13:13:20.047Z</time></trkpt><trkpt lat="38.0757017" lon="15.2433033"><ele>960.0</ele><time>2026-04-26T13:13:22.047Z</time></trkpt><trkpt lat="38.0757333" lon="15.2433733"><ele>961.0</ele><time>2026-04-26T13:13:23.047Z</time></trkpt><trkpt lat="38.07583" lon="15.243495"><ele>962.0</ele><time>2026-04-26T13:13:25.048Z</time></trkpt><trkpt lat="38.0759017" lon="15.24353"><ele>962.0000000000001</ele><time>2026-04-26T13:13:26.047Z</time></trkpt><trkpt lat="38.0759733" lon="15.2435583"><ele>962.0</ele><time>2026-04-26T13:13:27.047Z</time></trkpt><trkpt lat="38.0760433" lon="15.2435883"><ele>962.0</ele><time>2026-04-26T13:13:28.047Z</time></trkpt><trkpt lat="38.076105" lon="15.24361"><ele>962.0</ele><time>2026-04-26T13:13:29.047Z</time></trkpt><trkpt lat="38.07617" lon="15.24363"><ele>962.0000000000001</ele><time>2026-04-26T13:13:30.047Z</time></trkpt><trkpt lat="38.076285" lon="15.243665"><ele>962.0</ele><time>2026-04-26T13:13:32.047Z</time></trkpt><trkpt lat="38.0763717" lon="15.2437367"><ele>962.0000000000001</ele><time>2026-04-26T13:13:34.047Z</time></trkpt><trkpt lat="38.076435" lon="15.2438433"><ele>962.0</ele><time>2026-04-26T13:13:36.047Z</time></trkpt><trkpt lat="38.0764917" lon="15.2439233"><ele>962.0</ele><time>2026-04-26T13:13:38.047Z</time></trkpt><trkpt lat="38.076575" lon="15.2439067"><ele>962.0</ele><time>2026-04-26T13:13:40.047Z</time></trkpt><trkpt lat="38.0766383" lon="15.2438733"><ele>962.0000000000001</ele><time>2026-04-26T13:13:41.047Z</time></trkpt><trkpt lat="38.0767083" lon="15.2438483"><ele>962.0</ele><time>2026-04-26T13:13:42.047Z</time></trkpt><trkpt lat="38.076785" lon="15.243835"><ele>959.142857142857</ele><time>2026-04-26T13:13:43.047Z</time></trkpt><trkpt lat="38.07686" lon="15.2438333"><ele>956.2857142857142</ele><time>2026-04-26T13:13:44.047Z</time></trkpt><trkpt lat="38.0769333" lon="15.2438367"><ele>953.4285714285714</ele><time>2026-04-26T13:13:45.047Z</time></trkpt><trkpt lat="38.0770067" lon="15.243855"><ele>950.5714285714286</ele><time>2026-04-26T13:13:46.047Z</time></trkpt><trkpt lat="38.07707" lon="15.2438783"><ele>947.7142857142858</ele><time>2026-04-26T13:13:47.047Z</time></trkpt><trkpt lat="38.077135" lon="15.2439067"><ele>944.857142857143</ele><time>2026-04-26T13:13:48.047Z</time></trkpt><trkpt lat="38.0771983" lon="15.2439217"><ele>942.0000000000001</ele><time>2026-04-26T13:13:49.047Z</time></trkpt><trkpt lat="38.0772617" lon="15.243915"><ele>942.0000000000001</ele><time>2026-04-26T13:13:50.047Z</time></trkpt><trkpt lat="38.077325" lon="15.24388"><ele>942.0</ele><time>2026-04-26T13:13:51.047Z</time></trkpt><trkpt lat="38.0773917" lon="15.2438433"><ele>942.0000000000001</ele><time>2026-04-26T13:13:52.047Z</time></trkpt><trkpt lat="38.0774583" lon="15.2438067"><ele>942.0000000000001</ele><time>2026-04-26T13:13:53.047Z</time></trkpt><trkpt lat="38.0775217" lon="15.243765"><ele>942.0</ele><time>2026-04-26T13:13:54.047Z</time></trkpt><trkpt lat="38.0775817" lon="15.2437133"><ele>942.0000000000001</ele><time>2026-04-26T13:13:55.047Z</time></trkpt><trkpt lat="38.0776367" lon="15.2436567"><ele>942.0000000000001</ele><time>2026-04-26T13:13:56.047Z</time></trkpt><trkpt lat="38.0777283" lon="15.243575"><ele>938.6</ele><time>2026-04-26T13:13:58.047Z</time></trkpt><trkpt lat="38.0778383" lon="15.24354"><ele>935.2</ele><time>2026-04-26T13:14:00.048Z</time></trkpt><trkpt lat="38.0779433" lon="15.243495"><ele>931.8</ele><time>2026-04-26T13:14:02.047Z</time></trkpt><trkpt lat="38.07803" lon="15.243415"><ele>928.4</ele><time>2026-04-26T13:14:04.047Z</time></trkpt><trkpt lat="38.0781117" lon="15.2433583"><ele>925.0</ele><time>2026-04-26T13:14:06.047Z</time></trkpt><trkpt lat="38.0782217" lon="15.2433183"><ele>926.8333333333333</ele><time>2026-04-26T13:14:08.048Z</time></trkpt><trkpt lat="38.078285" lon="15.2432867"><ele>928.6666666666666</ele><time>2026-04-26T13:14:09.047Z</time></trkpt><trkpt lat="38.0783533" lon="15.24324"><ele>930.5</ele><time>2026-04-26T13:14:10.047Z</time></trkpt><trkpt lat="38.07842" lon="15.243175"><ele>932.3333333333333</ele><time>2026-04-26T13:14:11.047Z</time></trkpt><trkpt lat="38.0784867" lon="15.2431033"><ele>934.1666666666666</ele><time>2026-04-26T13:14:12.047Z</time></trkpt><trkpt lat="38.0785417" lon="15.243025"><ele>936.0</ele><time>2026-04-26T13:14:13.047Z</time></trkpt><trkpt lat="38.078595" lon="15.2429367"><ele>929.5</ele><time>2026-04-26T13:14:14.047Z</time></trkpt><trkpt lat="38.0786467" lon="15.24285"><ele>923.0</ele><time>2026-04-26T13:14:15.047Z</time></trkpt><trkpt lat="38.078685" lon="15.242755"><ele>916.5</ele><time>2026-04-26T13:14:16.047Z</time></trkpt><trkpt lat="38.0787117" lon="15.2426717"><ele>910.0</ele><time>2026-04-26T13:14:17.047Z</time></trkpt><trkpt lat="38.078785" lon="15.2425767"><ele>903.5</ele><time>2026-04-26T13:14:19.047Z</time></trkpt><trkpt lat="38.078865" lon="15.2425333"><ele>897.0</ele><time>2026-04-26T13:14:21.047Z</time></trkpt><trkpt lat="38.07893" lon="15.2425517"><ele>897.0</ele><time>2026-04-26T13:14:22.047Z</time></trkpt><trkpt lat="38.078995" lon="15.2425683"><ele>897.0</ele><time>2026-04-26T13:14:23.047Z</time></trkpt><trkpt lat="38.0791233" lon="15.2425617"><ele>897.0</ele><time>2026-04-26T13:14:25.048Z</time></trkpt><trkpt lat="38.0792" lon="15.2425517"><ele>897.0</ele><time>2026-04-26T13:14:26.047Z</time></trkpt><trkpt lat="38.0792783" lon="15.2425483"><ele>897.0</ele><time>2026-04-26T13:14:27.047Z</time></trkpt><trkpt lat="38.0793533" lon="15.2425517"><ele>897.0</ele><time>2026-04-26T13:14:28.047Z</time></trkpt><trkpt lat="38.0794283" lon="15.2425567"><ele>899.3333333333334</ele><time>2026-04-26T13:14:29.047Z</time></trkpt><trkpt lat="38.0795" lon="15.242565"><ele>901.6666666666667</ele><time>2026-04-26T13:14:30.047Z</time></trkpt><trkpt lat="38.07957" lon="15.242585"><ele>904.0</ele><time>2026-04-26T13:14:31.047Z</time></trkpt><trkpt lat="38.0796367" lon="15.24262"><ele>906.3333333333334</ele><time>2026-04-26T13:14:32.047Z</time></trkpt><trkpt lat="38.079705" lon="15.2426417"><ele>908.6666666666667</ele><time>2026-04-26T13:14:33.047Z</time></trkpt><trkpt lat="38.0798067" lon="15.2426283"><ele>911.0</ele><time>2026-04-26T13:14:35.047Z</time></trkpt><trkpt lat="38.079665" lon="15.2425083"><ele>911.0000000000001</ele><time>2026-04-26T13:14:40.047Z</time></trkpt><trkpt lat="38.0795883" lon="15.2424867"><ele>911.0</ele><time>2026-04-26T13:14:41.047Z</time></trkpt><trkpt lat="38.0794983" lon="15.2424583"><ele>911.0</ele><time>2026-04-26T13:14:42.047Z</time></trkpt><trkpt lat="38.079425" lon="15.2424317"><ele>911.0</ele><time>2026-04-26T13:14:43.048Z</time></trkpt><trkpt lat="38.0793467" lon="15.2424083"><ele>911.0000000000001</ele><time>2026-04-26T13:14:44.047Z</time></trkpt><trkpt lat="38.0792683" lon="15.24239"><ele>911.0</ele><time>2026-04-26T13:14:45.047Z</time></trkpt><trkpt lat="38.0791933" lon="15.242365"><ele>911.0000000000001</ele><time>2026-04-26T13:14:46.047Z</time></trkpt><trkpt lat="38.0791367" lon="15.242325"><ele>911.0</ele><time>2026-04-26T13:14:47.047Z</time></trkpt><trkpt lat="38.0790617" lon="15.2422033"><ele>911.0</ele><time>2026-04-26T13:14:49.047Z</time></trkpt><trkpt lat="38.07903" lon="15.2421233"><ele>911.0</ele><time>2026-04-26T13:14:50.048Z</time></trkpt><trkpt lat="38.0789933" lon="15.2419917"><ele>911.0000000000001</ele><time>2026-04-26T13:14:52.047Z</time></trkpt><trkpt lat="38.07904" lon="15.241935"><ele>911.0</ele><time>2026-04-26T13:14:54.047Z</time></trkpt><trkpt lat="38.0791133" lon="15.2419933"><ele>906.8571428571429</ele><time>2026-04-26T13:14:56.047Z</time></trkpt><trkpt lat="38.0791633" lon="15.2420433"><ele>902.7142857142857</ele><time>2026-04-26T13:14:57.047Z</time></trkpt><trkpt lat="38.0792317" lon="15.242095"><ele>898.5714285714286</ele><time>2026-04-26T13:14:58.047Z</time></trkpt><trkpt lat="38.0793033" lon="15.2421183"><ele>894.4285714285714</ele><time>2026-04-26T13:14:59.047Z</time></trkpt><trkpt lat="38.0793767" lon="15.2421367"><ele>890.2857142857142</ele><time>2026-04-26T13:15:00.047Z</time></trkpt><trkpt lat="38.07945" lon="15.242135"><ele>886.1428571428571</ele><time>2026-04-26T13:15:01.047Z</time></trkpt><trkpt lat="38.0795183" lon="15.2421167"><ele>882.0</ele><time>2026-04-26T13:15:02.047Z</time></trkpt><trkpt lat="38.0795867" lon="15.2420983"><ele>882.0</ele><time>2026-04-26T13:15:03.047Z</time></trkpt><trkpt lat="38.0797017" lon="15.2421033"><ele>882.0</ele><time>2026-04-26T13:15:05.047Z</time></trkpt><trkpt lat="38.0797767" lon="15.2420717"><ele>882.0</ele><time>2026-04-26T13:15:07.047Z</time></trkpt><trkpt lat="38.07974" lon="15.2420067"><ele>882.0</ele><time>2026-04-26T13:15:10.047Z</time></trkpt><trkpt lat="38.0796317" lon="15.2419833"><ele>882.0</ele><time>2026-04-26T13:15:12.048Z</time></trkpt><trkpt lat="38.0795683" lon="15.2419483"><ele>882.0</ele><time>2026-04-26T13:15:13.047Z</time></trkpt><trkpt lat="38.0795033" lon="15.24191"><ele>882.0</ele><time>2026-04-26T13:15:14.048Z</time></trkpt><trkpt lat="38.0794417" lon="15.241865"><ele>882.0</ele><time>2026-04-26T13:15:15.047Z</time></trkpt><trkpt lat="38.07937" lon="15.241765"><ele>882.0</ele><time>2026-04-26T13:15:17.047Z</time></trkpt><trkpt lat="38.079365" lon="15.24168"><ele>882.0</ele><time>2026-04-26T13:15:19.047Z</time></trkpt><trkpt lat="38.0794333" lon="15.2416967"><ele>882.0</ele><time>2026-04-26T13:15:21.047Z</time></trkpt><trkpt lat="38.0794967" lon="15.2417333"><ele>882.0</ele><time>2026-04-26T13:15:22.047Z</time></trkpt><trkpt lat="38.0795683" lon="15.24176"><ele>882.0</ele><time>2026-04-26T13:15:23.047Z</time></trkpt><trkpt lat="38.079645" lon="15.2417733"><ele>882.0</ele><time>2026-04-26T13:15:24.048Z</time></trkpt><trkpt lat="38.0797283" lon="15.241785"><ele>882.0</ele><time>2026-04-26T13:15:25.047Z</time></trkpt><trkpt lat="38.0797917" lon="15.2418083"><ele>882.0</ele><time>2026-04-26T13:15:26.047Z</time></trkpt><trkpt lat="38.07985" lon="15.241865"><ele>882.0</ele><time>2026-04-26T13:15:27.047Z</time></trkpt><trkpt lat="38.079885" lon="15.241935"><ele>882.0</ele><time>2026-04-26T13:15:28.047Z</time></trkpt><trkpt lat="38.0799033" lon="15.2420933"><ele>879.4000000000001</ele><time>2026-04-26T13:15:30.047Z</time></trkpt><trkpt lat="38.07995" lon="15.2422333"><ele>876.8000000000001</ele><time>2026-04-26T13:15:32.047Z</time></trkpt><trkpt lat="38.0800483" lon="15.242275"><ele>874.2</ele><time>2026-04-26T13:15:34.047Z</time></trkpt><trkpt lat="38.0801333" lon="15.2422183"><ele>871.6</ele><time>2026-04-26T13:15:36.047Z</time></trkpt><trkpt lat="38.0801933" lon="15.242075"><ele>869.0</ele><time>2026-04-26T13:15:38.047Z</time></trkpt><trkpt lat="38.0802267" lon="15.2419933"><ele>869.0</ele><time>2026-04-26T13:15:39.047Z</time></trkpt><trkpt lat="38.080255" lon="15.2419217"><ele>869.0000000000001</ele><time>2026-04-26T13:15:40.047Z</time></trkpt><trkpt lat="38.0802817" lon="15.24181"><ele>869.0000000000001</ele><time>2026-04-26T13:15:42.048Z</time></trkpt><trkpt lat="38.0803417" lon="15.2417417"><ele>869.0</ele><time>2026-04-26T13:16:41.047Z</time></trkpt><trkpt lat="38.08045" lon="15.2417017"><ele>869.0</ele><time>2026-04-26T13:16:43.047Z</time></trkpt><trkpt lat="38.08055" lon="15.2416183"><ele>860.5</ele><time>2026-04-26T13:16:45.047Z</time></trkpt><trkpt lat="38.0806533" lon="15.24143"><ele>852.0</ele><time>2026-04-26T13:16:48.048Z</time></trkpt><trkpt lat="38.0807317" lon="15.241285"><ele>843.5</ele><time>2026-04-26T13:16:51.047Z</time></trkpt><trkpt lat="38.0808267" lon="15.2412467"><ele>835.0</ele><time>2026-04-26T13:16:54.047Z</time></trkpt><trkpt lat="38.0810617" lon="15.2412867"><ele>834.2857142857143</ele><time>2026-04-26T13:16:58.047Z</time></trkpt><trkpt lat="38.081125" lon="15.2412667"><ele>833.5714285714286</ele><time>2026-04-26T13:16:59.047Z</time></trkpt><trkpt lat="38.0811783" lon="15.24122"><ele>832.8571428571429</ele><time>2026-04-26T13:17:00.047Z</time></trkpt><trkpt lat="38.081225" lon="15.2411467"><ele>832.1428571428571</ele><time>2026-04-26T13:17:01.047Z</time></trkpt><trkpt lat="38.0812783" lon="15.241065"><ele>831.4285714285714</ele><time>2026-04-26T13:17:02.047Z</time></trkpt><trkpt lat="38.081335" lon="15.2409967"><ele>830.7142857142858</ele><time>2026-04-26T13:17:03.047Z</time></trkpt><trkpt lat="38.0814" lon="15.2409317"><ele>830.0</ele><time>2026-04-26T13:17:04.047Z</time></trkpt><trkpt lat="38.0814633" lon="15.2408683"><ele>830.0</ele><time>2026-04-26T13:17:05.047Z</time></trkpt><trkpt lat="38.081525" lon="15.240815"><ele>830.0</ele><time>2026-04-26T13:17:06.047Z</time></trkpt><trkpt lat="38.0815867" lon="15.2407733"><ele>830.0</ele><time>2026-04-26T13:17:07.047Z</time></trkpt><trkpt lat="38.0816483" lon="15.2407417"><ele>830.0</ele><time>2026-04-26T13:17:08.047Z</time></trkpt><trkpt lat="38.081715" lon="15.2406983"><ele>830.0</ele><time>2026-04-26T13:17:09.047Z</time></trkpt><trkpt lat="38.08177" lon="15.2406467"><ele>830.0</ele><time>2026-04-26T13:17:10.047Z</time></trkpt><trkpt lat="38.081815" lon="15.2405767"><ele>830.0</ele><time>2026-04-26T13:17:11.047Z</time></trkpt><trkpt lat="38.081845" lon="15.2404917"><ele>829.2</ele><time>2026-04-26T13:17:12.047Z</time></trkpt><trkpt lat="38.081875" lon="15.24042"><ele>828.4</ele><time>2026-04-26T13:17:13.047Z</time></trkpt><trkpt lat="38.0819483" lon="15.2403083"><ele>827.5999999999999</ele><time>2026-04-26T13:17:15.048Z</time></trkpt><trkpt lat="38.082035" lon="15.2402683"><ele>826.8</ele><time>2026-04-26T13:17:17.047Z</time></trkpt><trkpt lat="38.0821483" lon="15.2403267"><ele>826.0</ele><time>2026-04-26T13:17:19.047Z</time></trkpt><trkpt lat="38.08222" lon="15.2403667"><ele>825.9999999999999</ele><time>2026-04-26T13:17:20.047Z</time></trkpt><trkpt lat="38.0822967" lon="15.2404133"><ele>826.0</ele><time>2026-04-26T13:17:21.048Z</time></trkpt><trkpt lat="38.0823667" lon="15.2404467"><ele>826.0</ele><time>2026-04-26T13:17:22.047Z</time></trkpt><trkpt lat="38.082445" lon="15.24048"><ele>826.0</ele><time>2026-04-26T13:17:23.048Z</time></trkpt><trkpt lat="38.0825267" lon="15.2405"><ele>825.9999999999999</ele><time>2026-04-26T13:17:24.047Z</time></trkpt><trkpt lat="38.0826033" lon="15.2405067"><ele>826.0</ele><time>2026-04-26T13:17:25.047Z</time></trkpt><trkpt lat="38.082685" lon="15.240505"><ele>827.8333333333333</ele><time>2026-04-26T13:17:26.047Z</time></trkpt><trkpt lat="38.08276" lon="15.2404867"><ele>829.6666666666666</ele><time>2026-04-26T13:17:27.047Z</time></trkpt><trkpt lat="38.0828333" lon="15.2404717"><ele>831.5</ele><time>2026-04-26T13:17:28.047Z</time></trkpt><trkpt lat="38.082905" lon="15.2404433"><ele>833.3333333333333</ele><time>2026-04-26T13:17:29.047Z</time></trkpt><trkpt lat="38.082985" lon="15.2404083"><ele>835.1666666666666</ele><time>2026-04-26T13:17:30.047Z</time></trkpt><trkpt lat="38.0830683" lon="15.2403817"><ele>837.0</ele><time>2026-04-26T13:17:31.047Z</time></trkpt><trkpt lat="38.0831583" lon="15.2403717"><ele>837.0</ele><time>2026-04-26T13:17:32.047Z</time></trkpt><trkpt lat="38.0832567" lon="15.240365"><ele>837.0</ele><time>2026-04-26T13:17:33.047Z</time></trkpt><trkpt lat="38.0833567" lon="15.24035"><ele>837.0</ele><time>2026-04-26T13:17:34.047Z</time></trkpt><trkpt lat="38.0834517" lon="15.2403667"><ele>837.0</ele><time>2026-04-26T13:17:35.047Z</time></trkpt><trkpt lat="38.0835317" lon="15.2403983"><ele>837.0</ele><time>2026-04-26T13:17:36.048Z</time></trkpt><trkpt lat="38.08362" lon="15.2404483"><ele>836.7142857142858</ele><time>2026-04-26T13:17:37.047Z</time></trkpt><trkpt lat="38.083695" lon="15.2404833"><ele>836.4285714285714</ele><time>2026-04-26T13:17:38.047Z</time></trkpt><trkpt lat="38.083785" lon="15.2405"><ele>836.1428571428571</ele><time>2026-04-26T13:17:39.047Z</time></trkpt><trkpt lat="38.0838517" lon="15.2405067"><ele>835.8571428571429</ele><time>2026-04-26T13:17:40.048Z</time></trkpt><trkpt lat="38.0839117" lon="15.2405333"><ele>835.5714285714286</ele><time>2026-04-26T13:17:41.047Z</time></trkpt><trkpt lat="38.0839633" lon="15.2405867"><ele>835.2857142857143</ele><time>2026-04-26T13:17:42.048Z</time></trkpt><trkpt lat="38.0840017" lon="15.2406517"><ele>835.0</ele><time>2026-04-26T13:17:43.047Z</time></trkpt><trkpt lat="38.0840533" lon="15.2407383"><ele>837.4</ele><time>2026-04-26T13:17:44.047Z</time></trkpt><trkpt lat="38.0840967" lon="15.2408267"><ele>839.8</ele><time>2026-04-26T13:17:45.047Z</time></trkpt><trkpt lat="38.084165" lon="15.2409217"><ele>842.2</ele><time>2026-04-26T13:17:46.047Z</time></trkpt><trkpt lat="38.08423" lon="15.24102"><ele>844.6</ele><time>2026-04-26T13:17:47.047Z</time></trkpt><trkpt lat="38.0842883" lon="15.2411183"><ele>847.0</ele><time>2026-04-26T13:17:48.047Z</time></trkpt><trkpt lat="38.0843383" lon="15.241205"><ele>846.9999999999999</ele><time>2026-04-26T13:17:49.047Z</time></trkpt><trkpt lat="38.0843833" lon="15.241265"><ele>847.0</ele><time>2026-04-26T13:17:50.047Z</time></trkpt><trkpt lat="38.084455" lon="15.2414"><ele>847.0</ele><time>2026-04-26T13:17:52.048Z</time></trkpt><trkpt lat="38.0844983" lon="15.24148"><ele>847.0</ele><time>2026-04-26T13:17:53.047Z</time></trkpt><trkpt lat="38.0845383" lon="15.2415683"><ele>846.9999999999999</ele><time>2026-04-26T13:17:54.047Z</time></trkpt><trkpt lat="38.08457" lon="15.2416483"><ele>847.0</ele><time>2026-04-26T13:17:55.048Z</time></trkpt><trkpt lat="38.0846083" lon="15.2417167"><ele>846.2</ele><time>2026-04-26T13:17:56.047Z</time></trkpt><trkpt lat="38.084705" lon="15.2417717"><ele>845.4000000000001</ele><time>2026-04-26T13:17:58.047Z</time></trkpt><trkpt lat="38.084805" lon="15.2417183"><ele>844.5999999999999</ele><time>2026-04-26T13:18:00.047Z</time></trkpt><trkpt lat="38.08486" lon="15.2415883"><ele>843.8</ele><time>2026-04-26T13:18:02.047Z</time></trkpt><trkpt lat="38.0849067" lon="15.2414967"><ele>843.0</ele><time>2026-04-26T13:18:03.047Z</time></trkpt><trkpt lat="38.0849567" lon="15.2414017"><ele>843.0</ele><time>2026-04-26T13:18:04.047Z</time></trkpt><trkpt lat="38.085005" lon="15.24132"><ele>843.0</ele><time>2026-04-26T13:18:05.047Z</time></trkpt><trkpt lat="38.0850467" lon="15.241255"><ele>843.0</ele><time>2026-04-26T13:18:06.047Z</time></trkpt><trkpt lat="38.08508" lon="15.24116"><ele>843.0</ele><time>2026-04-26T13:18:08.047Z</time></trkpt><trkpt lat="38.085095" lon="15.2410717"><ele>843.0</ele><time>2026-04-26T13:18:11.047Z</time></trkpt><trkpt lat="38.0851233" lon="15.2409633"><ele>843.0</ele><time>2026-04-26T13:18:13.047Z</time></trkpt><trkpt lat="38.08515" lon="15.24089"><ele>843.0</ele><time>2026-04-26T13:18:14.047Z</time></trkpt><trkpt lat="38.0852267" lon="15.2407633"><ele>843.0</ele><time>2026-04-26T13:18:16.047Z</time></trkpt><trkpt lat="38.0852733" lon="15.2406983"><ele>843.0</ele><time>2026-04-26T13:18:17.047Z</time></trkpt><trkpt lat="38.0853233" lon="15.2406467"><ele>843.0</ele><time>2026-04-26T13:18:18.047Z</time></trkpt><trkpt lat="38.0854317" lon="15.2405667"><ele>843.0</ele><time>2026-04-26T13:18:20.047Z</time></trkpt><trkpt lat="38.0855617" lon="15.240565"><ele>845.0</ele><time>2026-04-26T13:18:22.047Z</time></trkpt><trkpt lat="38.085635" lon="15.2405867"><ele>847.0</ele><time>2026-04-26T13:18:23.047Z</time></trkpt><trkpt lat="38.0857133" lon="15.240605"><ele>849.0</ele><time>2026-04-26T13:18:24.047Z</time></trkpt><trkpt lat="38.0857817" lon="15.2406267"><ele>851.0</ele><time>2026-04-26T13:18:25.047Z</time></trkpt><trkpt lat="38.0858617" lon="15.2407083"><ele>853.0</ele><time>2026-04-26T13:18:27.047Z</time></trkpt><trkpt lat="38.0858967" lon="15.2407767"><ele>855.0</ele><time>2026-04-26T13:18:28.047Z</time></trkpt><trkpt lat="38.08594" lon="15.24085"><ele>855.0</ele><time>2026-04-26T13:18:29.047Z</time></trkpt><trkpt lat="38.0860633" lon="15.2409417"><ele>855.0</ele><time>2026-04-26T13:18:31.047Z</time></trkpt><trkpt lat="38.08615" lon="15.240975"><ele>855.0</ele><time>2026-04-26T13:18:32.047Z</time></trkpt><trkpt lat="38.0862233" lon="15.241005"><ele>855.0</ele><time>2026-04-26T13:18:33.047Z</time></trkpt><trkpt lat="38.08629" lon="15.241055"><ele>855.0</ele><time>2026-04-26T13:18:34.047Z</time></trkpt><trkpt lat="38.0863267" lon="15.24112"><ele>855.0</ele><time>2026-04-26T13:18:35.047Z</time></trkpt><trkpt lat="38.0863717" lon="15.241215"><ele>855.0</ele><time>2026-04-26T13:18:36.047Z</time></trkpt><trkpt lat="38.0864017" lon="15.2413533"><ele>855.0</ele><time>2026-04-26T13:18:37.048Z</time></trkpt><trkpt lat="38.0864233" lon="15.2415317"><ele>855.0</ele><time>2026-04-26T13:18:38.047Z</time></trkpt><trkpt lat="38.0864417" lon="15.2416833"><ele>857.6</ele><time>2026-04-26T13:18:39.047Z</time></trkpt><trkpt lat="38.08647" lon="15.2417867"><ele>860.2</ele><time>2026-04-26T13:18:40.047Z</time></trkpt><trkpt lat="38.0865383" lon="15.24188"><ele>862.8</ele><time>2026-04-26T13:18:42.047Z</time></trkpt><trkpt lat="38.086675" lon="15.2418117"><ele>865.4</ele><time>2026-04-26T13:18:44.047Z</time></trkpt><trkpt lat="38.086755" lon="15.2417483"><ele>868.0</ele><time>2026-04-26T13:18:45.047Z</time></trkpt><trkpt lat="38.0868517" lon="15.2417433"><ele>868.0</ele><time>2026-04-26T13:18:46.047Z</time></trkpt><trkpt lat="38.0869567" lon="15.2417367"><ele>868.0</ele><time>2026-04-26T13:18:47.047Z</time></trkpt><trkpt lat="38.08706" lon="15.2417333"><ele>868.0</ele><time>2026-04-26T13:18:48.047Z</time></trkpt><trkpt lat="38.0871433" lon="15.24174"><ele>868.0</ele><time>2026-04-26T13:18:49.047Z</time></trkpt><trkpt lat="38.0872433" lon="15.2418033"><ele>868.0</ele><time>2026-04-26T13:18:51.047Z</time></trkpt><trkpt lat="38.0872633" lon="15.2418833"><ele>867.9999999999999</ele><time>2026-04-26T13:18:52.047Z</time></trkpt><trkpt lat="38.0872717" lon="15.2419833"><ele>868.0</ele><time>2026-04-26T13:18:53.047Z</time></trkpt><trkpt lat="38.0872833" lon="15.242105"><ele>868.0</ele><time>2026-04-26T13:18:54.047Z</time></trkpt><trkpt lat="38.08729" lon="15.242215"><ele>868.0</ele><time>2026-04-26T13:18:55.047Z</time></trkpt><trkpt lat="38.0872967" lon="15.2423083"><ele>867.9999999999999</ele><time>2026-04-26T13:18:56.047Z</time></trkpt><trkpt lat="38.0872917" lon="15.2423933"><ele>868.0</ele><time>2026-04-26T13:18:58.048Z</time></trkpt><trkpt lat="38.0872217" lon="15.2423883"><ele>867.9999999999999</ele><time>2026-04-26T13:19:01.047Z</time></trkpt><trkpt lat="38.08721" lon="15.2423017"><ele>868.0</ele><time>2026-04-26T13:19:03.047Z</time></trkpt><trkpt lat="38.087175" lon="15.2421817"><ele>868.0</ele><time>2026-04-26T13:19:05.047Z</time></trkpt><trkpt lat="38.08712" lon="15.2421267"><ele>868.0</ele><time>2026-04-26T13:19:06.047Z</time></trkpt><trkpt lat="38.087045" lon="15.2421067"><ele>867.9999999999999</ele><time>2026-04-26T13:19:07.047Z</time></trkpt><trkpt lat="38.0869633" lon="15.2421217"><ele>868.0</ele><time>2026-04-26T13:19:08.047Z</time></trkpt><trkpt lat="38.086865" lon="15.2421517"><ele>867.9999999999999</ele><time>2026-04-26T13:19:09.047Z</time></trkpt><trkpt lat="38.0867883" lon="15.2421867"><ele>868.0</ele><time>2026-04-26T13:19:10.047Z</time></trkpt><trkpt lat="38.086745" lon="15.2422533"><ele>868.0</ele><time>2026-04-26T13:19:12.047Z</time></trkpt><trkpt lat="38.0868383" lon="15.2423067"><ele>868.0</ele><time>2026-04-26T13:19:14.047Z</time></trkpt><trkpt lat="38.0868967" lon="15.2423983"><ele>867.9999999999999</ele><time>2026-04-26T13:19:16.047Z</time></trkpt><trkpt lat="38.0868833" lon="15.242515"><ele>868.0</ele><time>2026-04-26T13:19:18.047Z</time></trkpt><trkpt lat="38.0868283" lon="15.2426183"><ele>872.8</ele><time>2026-04-26T13:19:20.047Z</time></trkpt><trkpt lat="38.0867683" lon="15.24257"><ele>877.5999999999999</ele><time>2026-04-26T13:19:23.047Z</time></trkpt><trkpt lat="38.086695" lon="15.242495"><ele>882.4000000000001</ele><time>2026-04-26T13:19:25.047Z</time></trkpt><trkpt lat="38.0865667" lon="15.2425517"><ele>887.2</ele><time>2026-04-26T13:19:27.047Z</time></trkpt><trkpt lat="38.0864767" lon="15.242585"><ele>892.0</ele><time>2026-04-26T13:19:28.047Z</time></trkpt><trkpt lat="38.0863717" lon="15.2425967"><ele>894.4999999999999</ele><time>2026-04-26T13:19:29.047Z</time></trkpt><trkpt lat="38.08627" lon="15.2425983"><ele>897.0</ele><time>2026-04-26T13:19:30.048Z</time></trkpt><trkpt lat="38.0861783" lon="15.242585"><ele>899.5</ele><time>2026-04-26T13:19:31.047Z</time></trkpt><trkpt lat="38.086105" lon="15.2425517"><ele>902.0</ele><time>2026-04-26T13:19:32.047Z</time></trkpt><trkpt lat="38.0860467" lon="15.242515"><ele>904.4999999999999</ele><time>2026-04-26T13:19:33.047Z</time></trkpt><trkpt lat="38.08599" lon="15.2424683"><ele>907.0</ele><time>2026-04-26T13:19:34.047Z</time></trkpt><trkpt lat="38.085935" lon="15.2424083"><ele>907.0</ele><time>2026-04-26T13:19:35.047Z</time></trkpt><trkpt lat="38.0858717" lon="15.242345"><ele>907.0</ele><time>2026-04-26T13:19:36.047Z</time></trkpt><trkpt lat="38.085785" lon="15.24229"><ele>907.0</ele><time>2026-04-26T13:19:37.047Z</time></trkpt><trkpt lat="38.0856633" lon="15.2422733"><ele>907.0</ele><time>2026-04-26T13:19:39.047Z</time></trkpt><trkpt lat="38.0857167" lon="15.24239"><ele>907.0</ele><time>2026-04-26T13:19:44.047Z</time></trkpt><trkpt lat="38.0858117" lon="15.242465"><ele>907.0</ele><time>2026-04-26T13:19:45.047Z</time></trkpt><trkpt lat="38.0858983" lon="15.24255"><ele>907.0</ele><time>2026-04-26T13:19:46.047Z</time></trkpt><trkpt lat="38.0859833" lon="15.24266"><ele>907.0</ele><time>2026-04-26T13:19:47.047Z</time></trkpt><trkpt lat="38.086085" lon="15.2427783"><ele>907.0</ele><time>2026-04-26T13:19:48.047Z</time></trkpt><trkpt lat="38.0861683" lon="15.2428667"><ele>907.0</ele><time>2026-04-26T13:19:49.047Z</time></trkpt><trkpt lat="38.0862683" lon="15.2428983"><ele>907.0</ele><time>2026-04-26T13:19:50.047Z</time></trkpt><trkpt lat="38.0863617" lon="15.2429067"><ele>907.0</ele><time>2026-04-26T13:19:51.047Z</time></trkpt><trkpt lat="38.0864417" lon="15.2429083"><ele>907.0</ele><time>2026-04-26T13:19:52.047Z</time></trkpt><trkpt lat="38.0865533" lon="15.2429683"><ele>907.0</ele><time>2026-04-26T13:19:54.047Z</time></trkpt><trkpt lat="38.0866017" lon="15.2431033"><ele>912.1666666666666</ele><time>2026-04-26T13:19:56.047Z</time></trkpt><trkpt lat="38.0865767" lon="15.2432133"><ele>917.3333333333333</ele><time>2026-04-26T13:19:58.047Z</time></trkpt><trkpt lat="38.086525" lon="15.2433317"><ele>922.5</ele><time>2026-04-26T13:20:00.047Z</time></trkpt><trkpt lat="38.0864933" lon="15.24342"><ele>927.6666666666667</ele><time>2026-04-26T13:20:01.047Z</time></trkpt><trkpt lat="38.0864883" lon="15.2435333"><ele>932.8333333333334</ele><time>2026-04-26T13:20:02.047Z</time></trkpt><trkpt lat="38.08648" lon="15.2436217"><ele>938.0</ele><time>2026-04-26T13:20:03.047Z</time></trkpt><trkpt lat="38.08646" lon="15.2437167"><ele>938.0</ele><time>2026-04-26T13:20:04.047Z</time></trkpt><trkpt lat="38.0864167" lon="15.2438083"><ele>938.0</ele><time>2026-04-26T13:20:05.047Z</time></trkpt><trkpt lat="38.08636" lon="15.2439"><ele>938.0</ele><time>2026-04-26T13:20:06.047Z</time></trkpt><trkpt lat="38.0863" lon="15.2440083"><ele>938.0</ele><time>2026-04-26T13:20:07.047Z</time></trkpt><trkpt lat="38.08623" lon="15.2441267"><ele>938.0</ele><time>2026-04-26T13:20:08.047Z</time></trkpt><trkpt lat="38.086165" lon="15.244235"><ele>940.8</ele><time>2026-04-26T13:20:09.047Z</time></trkpt><trkpt lat="38.08611" lon="15.2443517"><ele>943.5999999999999</ele><time>2026-04-26T13:20:10.047Z</time></trkpt><trkpt lat="38.0860867" lon="15.244455"><ele>946.4000000000001</ele><time>2026-04-26T13:20:11.047Z</time></trkpt><trkpt lat="38.08608" lon="15.244555"><ele>949.2</ele><time>2026-04-26T13:20:12.047Z</time></trkpt><trkpt lat="38.0861033" lon="15.2446633"><ele>952.0</ele><time>2026-04-26T13:20:13.047Z</time></trkpt><trkpt lat="38.0861283" lon="15.2447867"><ele>951.4999999999999</ele><time>2026-04-26T13:20:14.047Z</time></trkpt><trkpt lat="38.0861467" lon="15.2448867"><ele>951.0</ele><time>2026-04-26T13:20:15.047Z</time></trkpt><trkpt lat="38.0861433" lon="15.244975"><ele>950.5</ele><time>2026-04-26T13:20:16.047Z</time></trkpt><trkpt lat="38.08612" lon="15.2450517"><ele>950.0</ele><time>2026-04-26T13:20:17.047Z</time></trkpt><trkpt lat="38.0860367" lon="15.2451133"><ele>949.4999999999999</ele><time>2026-04-26T13:20:19.047Z</time></trkpt><trkpt lat="38.0859283" lon="15.24509"><ele>949.0</ele><time>2026-04-26T13:20:21.047Z</time></trkpt><trkpt lat="38.0858617" lon="15.2451367"><ele>949.0</ele><time>2026-04-26T13:20:23.047Z</time></trkpt><trkpt lat="38.0858733" lon="15.24527"><ele>949.0000000000001</ele><time>2026-04-26T13:20:25.047Z</time></trkpt><trkpt lat="38.0859017" lon="15.2453583"><ele>949.0000000000001</ele><time>2026-04-26T13:20:26.047Z</time></trkpt><trkpt lat="38.0859417" lon="15.24543"><ele>949.0</ele><time>2026-04-26T13:20:27.047Z</time></trkpt><trkpt lat="38.0859883" lon="15.2455233"><ele>949.0</ele><time>2026-04-26T13:20:28.047Z</time></trkpt><trkpt lat="38.0860517" lon="15.2456517"><ele>948.9999999999999</ele><time>2026-04-26T13:20:30.047Z</time></trkpt><trkpt lat="38.0859833" lon="15.2456917"><ele>949.0</ele><time>2026-04-26T13:20:34.047Z</time></trkpt><trkpt lat="38.0859383" lon="15.2456283"><ele>949.0</ele><time>2026-04-26T13:20:35.047Z</time></trkpt><trkpt lat="38.0858867" lon="15.2455367"><ele>949.0</ele><time>2026-04-26T13:20:36.047Z</time></trkpt><trkpt lat="38.085815" lon="15.245435"><ele>948.9999999999999</ele><time>2026-04-26T13:20:37.047Z</time></trkpt><trkpt lat="38.0857583" lon="15.2453333"><ele>949.0</ele><time>2026-04-26T13:20:38.047Z</time></trkpt><trkpt lat="38.08572" lon="15.2452517"><ele>948.9999999999999</ele><time>2026-04-26T13:20:39.047Z</time></trkpt><trkpt lat="38.0857017" lon="15.2451733"><ele>949.0</ele><time>2026-04-26T13:20:40.047Z</time></trkpt><trkpt lat="38.0857467" lon="15.24503"><ele>949.0</ele><time>2026-04-26T13:20:42.047Z</time></trkpt><trkpt lat="38.0857933" lon="15.2449483"><ele>949.0</ele><time>2026-04-26T13:20:43.047Z</time></trkpt><trkpt lat="38.08585" lon="15.2448717"><ele>948.9999999999999</ele><time>2026-04-26T13:20:44.047Z</time></trkpt><trkpt lat="38.0859017" lon="15.2447967"><ele>949.0</ele><time>2026-04-26T13:20:45.047Z</time></trkpt><trkpt lat="38.0859233" lon="15.244715"><ele>949.4999999999999</ele><time>2026-04-26T13:20:46.047Z</time></trkpt><trkpt lat="38.0859233" lon="15.24463"><ele>950.0</ele><time>2026-04-26T13:20:47.047Z</time></trkpt><trkpt lat="38.0859117" lon="15.2445383"><ele>950.5</ele><time>2026-04-26T13:20:48.048Z</time></trkpt><trkpt lat="38.0859" lon="15.2444367"><ele>951.0</ele><time>2026-04-26T13:20:49.047Z</time></trkpt><trkpt lat="38.0859017" lon="15.2443317"><ele>951.4999999999999</ele><time>2026-04-26T13:20:50.047Z</time></trkpt><trkpt lat="38.08593" lon="15.2441983"><ele>952.0</ele><time>2026-04-26T13:20:51.047Z</time></trkpt><trkpt lat="38.0859633" lon="15.2440783"><ele>951.9999999999999</ele><time>2026-04-26T13:20:52.047Z</time></trkpt><trkpt lat="38.0859817" lon="15.2439683"><ele>952.0</ele><time>2026-04-26T13:20:53.047Z</time></trkpt><trkpt lat="38.08597" lon="15.2438867"><ele>952.0</ele><time>2026-04-26T13:20:55.048Z</time></trkpt><trkpt lat="38.0859267" lon="15.2439833"><ele>952.0</ele><time>2026-04-26T13:20:58.046Z</time></trkpt><trkpt lat="38.0859083" lon="15.2440633"><ele>951.9999999999999</ele><time>2026-04-26T13:20:59.046Z</time></trkpt><trkpt lat="38.0858783" lon="15.2441667"><ele>952.0</ele><time>2026-04-26T13:21:00.046Z</time></trkpt><trkpt lat="38.08583" lon="15.2442933"><ele>952.0</ele><time>2026-04-26T13:21:01.046Z</time></trkpt><trkpt lat="38.085795" lon="15.2444283"><ele>952.0</ele><time>2026-04-26T13:21:02.046Z</time></trkpt><trkpt lat="38.0857667" lon="15.244535"><ele>952.0</ele><time>2026-04-26T13:21:03.047Z</time></trkpt><trkpt lat="38.0857233" lon="15.2446633"><ele>952.0</ele><time>2026-04-26T13:21:05.046Z</time></trkpt><trkpt lat="38.085665" lon="15.24472"><ele>952.0</ele><time>2026-04-26T13:21:06.046Z</time></trkpt><trkpt lat="38.0856033" lon="15.244785"><ele>955.8333333333333</ele><time>2026-04-26T13:21:07.046Z</time></trkpt><trkpt lat="38.0855583" lon="15.24485"><ele>959.6666666666666</ele><time>2026-04-26T13:21:08.047Z</time></trkpt><trkpt lat="38.0854733" lon="15.2448017"><ele>963.5</ele><time>2026-04-26T13:21:20.046Z</time></trkpt><trkpt lat="38.085505" lon="15.24473"><ele>967.3333333333333</ele><time>2026-04-26T13:21:22.046Z</time></trkpt><trkpt lat="38.0855767" lon="15.24466"><ele>971.1666666666666</ele><time>2026-04-26T13:21:24.046Z</time></trkpt><trkpt lat="38.0856283" lon="15.2446"><ele>975.0</ele><time>2026-04-26T13:21:26.046Z</time></trkpt><trkpt lat="38.0856567" lon="15.24448"><ele>975.0</ele><time>2026-04-26T13:21:29.046Z</time></trkpt><trkpt lat="38.0856333" lon="15.244335"><ele>975.0</ele><time>2026-04-26T13:21:31.046Z</time></trkpt><trkpt lat="38.085645" lon="15.244185"><ele>975.0</ele><time>2026-04-26T13:21:33.046Z</time></trkpt><trkpt lat="38.0856717" lon="15.2440933"><ele>975.0</ele><time>2026-04-26T13:21:34.046Z</time></trkpt><trkpt lat="38.085685" lon="15.2440017"><ele>975.0</ele><time>2026-04-26T13:21:35.046Z</time></trkpt><trkpt lat="38.0856767" lon="15.2439017"><ele>968.4</ele><time>2026-04-26T13:21:36.046Z</time></trkpt><trkpt lat="38.0856617" lon="15.2437883"><ele>961.8</ele><time>2026-04-26T13:21:37.046Z</time></trkpt><trkpt lat="38.0856467" lon="15.243675"><ele>955.2</ele><time>2026-04-26T13:21:38.046Z</time></trkpt><trkpt lat="38.0856367" lon="15.2435833"><ele>948.6</ele><time>2026-04-26T13:21:39.046Z</time></trkpt><trkpt lat="38.0855783" lon="15.2434983"><ele>942.0</ele><time>2026-04-26T13:21:41.046Z</time></trkpt><trkpt lat="38.0854367" lon="15.2435067"><ele>942.0</ele><time>2026-04-26T13:21:43.046Z</time></trkpt><trkpt lat="38.08534" lon="15.2435367"><ele>942.0</ele><time>2026-04-26T13:21:44.047Z</time></trkpt><trkpt lat="38.085255" lon="15.243575"><ele>942.0</ele><time>2026-04-26T13:21:45.047Z</time></trkpt><trkpt lat="38.085185" lon="15.2436533"><ele>942.0</ele><time>2026-04-26T13:21:46.046Z</time></trkpt><trkpt lat="38.0851267" lon="15.2437517"><ele>942.0</ele><time>2026-04-26T13:21:47.046Z</time></trkpt><trkpt lat="38.08507" lon="15.24383"><ele>942.0</ele><time>2026-04-26T13:21:48.046Z</time></trkpt><trkpt lat="38.084995" lon="15.2439217"><ele>942.0</ele><time>2026-04-26T13:21:50.046Z</time></trkpt><trkpt lat="38.0850767" lon="15.2439267"><ele>942.0</ele><time>2026-04-26T13:21:54.046Z</time></trkpt><trkpt lat="38.0851417" lon="15.2438733"><ele>942.0</ele><time>2026-04-26T13:21:55.046Z</time></trkpt><trkpt lat="38.0852083" lon="15.243795"><ele>942.0</ele><time>2026-04-26T13:21:56.046Z</time></trkpt><trkpt lat="38.0852717" lon="15.2437433"><ele>942.0</ele><time>2026-04-26T13:21:57.046Z</time></trkpt><trkpt lat="38.08536" lon="15.243745"><ele>942.0</ele><time>2026-04-26T13:21:59.046Z</time></trkpt><trkpt lat="38.085385" lon="15.2438767"><ele>942.0</ele><time>2026-04-26T13:22:01.046Z</time></trkpt><trkpt lat="38.0853733" lon="15.243985"><ele>942.0</ele><time>2026-04-26T13:22:02.046Z</time></trkpt><trkpt lat="38.0853767" lon="15.2440917"><ele>942.0</ele><time>2026-04-26T13:22:03.046Z</time></trkpt><trkpt lat="38.0853767" lon="15.24419"><ele>942.0</ele><time>2026-04-26T13:22:04.046Z</time></trkpt><trkpt lat="38.0853667" lon="15.24427"><ele>942.0</ele><time>2026-04-26T13:22:05.046Z</time></trkpt><trkpt lat="38.0852917" lon="15.2443933"><ele>947.5</ele><time>2026-04-26T13:22:07.046Z</time></trkpt><trkpt lat="38.0852367" lon="15.2444633"><ele>953.0</ele><time>2026-04-26T13:22:08.046Z</time></trkpt><trkpt lat="38.0851783" lon="15.2445283"><ele>958.5</ele><time>2026-04-26T13:22:09.046Z</time></trkpt><trkpt lat="38.08512" lon="15.2446567"><ele>964.0</ele><time>2026-04-26T13:22:11.046Z</time></trkpt><trkpt lat="38.0851217" lon="15.2447417"><ele>969.5</ele><time>2026-04-26T13:22:12.046Z</time></trkpt><trkpt lat="38.0851333" lon="15.2448417"><ele>975.0</ele><time>2026-04-26T13:22:13.046Z</time></trkpt><trkpt lat="38.0851417" lon="15.244945"><ele>978.0</ele><time>2026-04-26T13:22:14.046Z</time></trkpt><trkpt lat="38.0851417" lon="15.2450483"><ele>981.0</ele><time>2026-04-26T13:22:15.046Z</time></trkpt><trkpt lat="38.0851283" lon="15.245145"><ele>984.0</ele><time>2026-04-26T13:22:16.046Z</time></trkpt><trkpt lat="38.0851267" lon="15.2452283"><ele>987.0</ele><time>2026-04-26T13:22:17.046Z</time></trkpt><trkpt lat="38.0851417" lon="15.245315"><ele>990.0</ele><time>2026-04-26T13:22:18.046Z</time></trkpt><trkpt lat="38.0851633" lon="15.24542"><ele>993.0</ele><time>2026-04-26T13:22:19.046Z</time></trkpt><trkpt lat="38.0851833" lon="15.2455533"><ele>994.1666666666666</ele><time>2026-04-26T13:22:20.046Z</time></trkpt><trkpt lat="38.0852017" lon="15.2456867"><ele>995.3333333333333</ele><time>2026-04-26T13:22:21.046Z</time></trkpt><trkpt lat="38.0852183" lon="15.2458033"><ele>996.5</ele><time>2026-04-26T13:22:22.046Z</time></trkpt><trkpt lat="38.0852383" lon="15.2458883"><ele>997.6666666666666</ele><time>2026-04-26T13:22:23.046Z</time></trkpt><trkpt lat="38.0851717" lon="15.245855"><ele>998.8333333333333</ele><time>2026-04-26T13:22:28.046Z</time></trkpt><trkpt lat="38.08515" lon="15.2457617"><ele>1000.0</ele><time>2026-04-26T13:22:29.046Z</time></trkpt><trkpt lat="38.0851267" lon="15.2456533"><ele>998.6</ele><time>2026-04-26T13:22:30.046Z</time></trkpt><trkpt lat="38.0850933" lon="15.24552"><ele>997.2</ele><time>2026-04-26T13:22:31.046Z</time></trkpt><trkpt lat="38.0850617" lon="15.2453883"><ele>995.8</ele><time>2026-04-26T13:22:32.046Z</time></trkpt><trkpt lat="38.0850383" lon="15.2452683"><ele>994.4</ele><time>2026-04-26T13:22:33.046Z</time></trkpt><trkpt lat="38.0850283" lon="15.2451467"><ele>993.0</ele><time>2026-04-26T13:22:34.046Z</time></trkpt><trkpt lat="38.0850317" lon="15.2450383"><ele>993.0</ele><time>2026-04-26T13:22:35.046Z</time></trkpt><trkpt lat="38.0850267" lon="15.2449233"><ele>993.0</ele><time>2026-04-26T13:22:36.046Z</time></trkpt><trkpt lat="38.0850033" lon="15.2448217"><ele>993.0</ele><time>2026-04-26T13:22:37.046Z</time></trkpt><trkpt lat="38.0849717" lon="15.2447183"><ele>993.0</ele><time>2026-04-26T13:22:38.046Z</time></trkpt><trkpt lat="38.0849333" lon="15.2446267"><ele>993.0</ele><time>2026-04-26T13:22:39.046Z</time></trkpt><trkpt lat="38.0848983" lon="15.2445533"><ele>993.0</ele><time>2026-04-26T13:22:40.046Z</time></trkpt><trkpt lat="38.08482" lon="15.2444783"><ele>989.2</ele><time>2026-04-26T13:22:42.046Z</time></trkpt><trkpt lat="38.0846983" lon="15.2445283"><ele>985.4</ele><time>2026-04-26T13:22:44.046Z</time></trkpt><trkpt lat="38.0846099" lon="15.2445566"><ele>981.6000000000001</ele><time>2026-04-26T13:22:45.046Z</time></trkpt><trkpt lat="38.0845178" lon="15.2445985"><ele>977.8000000000001</ele><time>2026-04-26T13:22:46.046Z</time></trkpt><trkpt lat="38.08443" lon="15.2446436"><ele>974.0</ele><time>2026-04-26T13:22:47.046Z</time></trkpt><trkpt lat="38.0843443" lon="15.2446916"><ele>974.0000000000001</ele><time>2026-04-26T13:22:48.046Z</time></trkpt><trkpt lat="38.0842564" lon="15.2447361"><ele>974.0</ele><time>2026-04-26T13:22:49.046Z</time></trkpt><trkpt lat="38.0841735" lon="15.2447667"><ele>974.0</ele><time>2026-04-26T13:22:50.046Z</time></trkpt><trkpt lat="38.0841084" lon="15.2447824"><ele>974.0</ele><time>2026-04-26T13:22:51.046Z</time></trkpt><trkpt lat="38.0840483" lon="15.2448141"><ele>974.0000000000001</ele><time>2026-04-26T13:22:53.046Z</time></trkpt><trkpt lat="38.0841374" lon="15.244842"><ele>974.0</ele><time>2026-04-26T13:22:56.046Z</time></trkpt><trkpt lat="38.0842249" lon="15.2448207"><ele>974.0</ele><time>2026-04-26T13:22:57.046Z</time></trkpt><trkpt lat="38.0843402" lon="15.2447851"><ele>974.0000000000001</ele><time>2026-04-26T13:22:58.046Z</time></trkpt><trkpt lat="38.0844564" lon="15.2447529"><ele>974.0000000000001</ele><time>2026-04-26T13:22:59.047Z</time></trkpt><trkpt lat="38.0845574" lon="15.2447335"><ele>974.0</ele><time>2026-04-26T13:23:00.046Z</time></trkpt><trkpt lat="38.0846354" lon="15.2447279"><ele>974.0</ele><time>2026-04-26T13:23:01.046Z</time></trkpt><trkpt lat="38.084742" lon="15.2447747"><ele>980.1666666666667</ele><time>2026-04-26T13:23:03.047Z</time></trkpt><trkpt lat="38.0847979" lon="15.2448947"><ele>986.3333333333334</ele><time>2026-04-26T13:23:05.046Z</time></trkpt><trkpt lat="38.0848111" lon="15.2449878"><ele>992.5</ele><time>2026-04-26T13:23:06.046Z</time></trkpt><trkpt lat="38.0848131" lon="15.2450825"><ele>998.6666666666667</ele><time>2026-04-26T13:23:07.046Z</time></trkpt><trkpt lat="38.0848066" lon="15.2451805"><ele>1004.8333333333334</ele><time>2026-04-26T13:23:08.046Z</time></trkpt><trkpt lat="38.0848038" lon="15.2452893"><ele>1011.0</ele><time>2026-04-26T13:23:09.046Z</time></trkpt><trkpt lat="38.0848082" lon="15.2454082"><ele>1011.0</ele><time>2026-04-26T13:23:10.046Z</time></trkpt><trkpt lat="38.0848161" lon="15.245534"><ele>1011.0</ele><time>2026-04-26T13:23:11.047Z</time></trkpt><trkpt lat="38.0848195" lon="15.2456467"><ele>1011.0</ele><time>2026-04-26T13:23:12.046Z</time></trkpt><trkpt lat="38.0848152" lon="15.2457315"><ele>1011.0</ele><time>2026-04-26T13:23:13.046Z</time></trkpt><trkpt lat="38.0847657" lon="15.2458151"><ele>1011.0</ele><time>2026-04-26T13:23:15.046Z</time></trkpt><trkpt lat="38.0847159" lon="15.2457592"><ele>1011.0</ele><time>2026-04-26T13:23:17.046Z</time></trkpt><trkpt lat="38.0847" lon="15.2456033"><ele>1011.0</ele><time>2026-04-26T13:23:19.046Z</time></trkpt><trkpt lat="38.0846933" lon="15.2455133"><ele>1011.0</ele><time>2026-04-26T13:23:20.046Z</time></trkpt><trkpt lat="38.0846717" lon="15.245415"><ele>1011.0</ele><time>2026-04-26T13:23:21.046Z</time></trkpt><trkpt lat="38.0846417" lon="15.2453167"><ele>1011.0</ele><time>2026-04-26T13:23:22.046Z</time></trkpt><trkpt lat="38.0846083" lon="15.2452167"><ele>1011.0</ele><time>2026-04-26T13:23:23.046Z</time></trkpt><trkpt lat="38.0845733" lon="15.24514"><ele>1011.0</ele><time>2026-04-26T13:23:24.046Z</time></trkpt><trkpt lat="38.084505" lon="15.2450617"><ele>1011.0</ele><time>2026-04-26T13:23:26.046Z</time></trkpt><trkpt lat="38.0843883" lon="15.2451117"><ele>1011.0</ele><time>2026-04-26T13:23:28.046Z</time></trkpt><trkpt lat="38.084325" lon="15.2451667"><ele>1011.0</ele><time>2026-04-26T13:23:29.046Z</time></trkpt><trkpt lat="38.08426" lon="15.2452183"><ele>1011.0</ele><time>2026-04-26T13:23:30.047Z</time></trkpt><trkpt lat="38.0841983" lon="15.2452783"><ele>1011.0</ele><time>2026-04-26T13:23:31.046Z</time></trkpt><trkpt lat="38.084145" lon="15.24535"><ele>1011.0</ele><time>2026-04-26T13:23:32.046Z</time></trkpt><trkpt lat="38.0841067" lon="15.2454333"><ele>1011.0</ele><time>2026-04-26T13:23:33.046Z</time></trkpt><trkpt lat="38.0840683" lon="15.2455117"><ele>1011.0</ele><time>2026-04-26T13:23:35.046Z</time></trkpt><trkpt lat="38.0841667" lon="15.24546"><ele>1011.0</ele><time>2026-04-26T13:23:38.046Z</time></trkpt><trkpt lat="38.0842217" lon="15.2453967"><ele>1011.0</ele><time>2026-04-26T13:23:39.046Z</time></trkpt><trkpt lat="38.08428" lon="15.24535"><ele>1011.0</ele><time>2026-04-26T13:23:40.046Z</time></trkpt><trkpt lat="38.0843933" lon="15.2453367"><ele>1011.0</ele><time>2026-04-26T13:23:42.047Z</time></trkpt><trkpt lat="38.0844867" lon="15.2454133"><ele>1011.0</ele><time>2026-04-26T13:23:44.047Z</time></trkpt><trkpt lat="38.084525" lon="15.2455667"><ele>1010.9999999999999</ele><time>2026-04-26T13:23:46.046Z</time></trkpt><trkpt lat="38.0845217" lon="15.2456583"><ele>1010.9999999999999</ele><time>2026-04-26T13:23:47.046Z</time></trkpt><trkpt lat="38.0845" lon="15.2457517"><ele>1011.0</ele><time>2026-04-26T13:23:48.046Z</time></trkpt><trkpt lat="38.08447" lon="15.2458483"><ele>1011.0</ele><time>2026-04-26T13:23:49.046Z</time></trkpt><trkpt lat="38.0844267" lon="15.24596"><ele>1015.8333333333334</ele><time>2026-04-26T13:23:50.046Z</time></trkpt><trkpt lat="38.0843917" lon="15.2460617"><ele>1020.6666666666667</ele><time>2026-04-26T13:23:51.046Z</time></trkpt><trkpt lat="38.0843417" lon="15.246145"><ele>1025.5</ele><time>2026-04-26T13:23:52.046Z</time></trkpt><trkpt lat="38.08429" lon="15.2462133"><ele>1030.3333333333335</ele><time>2026-04-26T13:23:53.046Z</time></trkpt><trkpt lat="38.0842433" lon="15.2462833"><ele>1035.1666666666667</ele><time>2026-04-26T13:23:54.046Z</time></trkpt><trkpt lat="38.0842083" lon="15.2463617"><ele>1040.0</ele><time>2026-04-26T13:23:55.046Z</time></trkpt><trkpt lat="38.0841883" lon="15.24645"><ele>1042.6</ele><time>2026-04-26T13:23:56.046Z</time></trkpt><trkpt lat="38.0841783" lon="15.2465383"><ele>1045.2</ele><time>2026-04-26T13:23:57.047Z</time></trkpt><trkpt lat="38.0841767" lon="15.2466267"><ele>1047.8</ele><time>2026-04-26T13:23:58.046Z</time></trkpt><trkpt lat="38.0841967" lon="15.246735"><ele>1050.4</ele><time>2026-04-26T13:23:59.046Z</time></trkpt><trkpt lat="38.0842467" lon="15.24687"><ele>1053.0</ele><time>2026-04-26T13:24:00.046Z</time></trkpt><trkpt lat="38.0842867" lon="15.2470067"><ele>1053.0</ele><time>2026-04-26T13:24:01.046Z</time></trkpt><trkpt lat="38.084315" lon="15.2471467"><ele>1053.0</ele><time>2026-04-26T13:24:02.046Z</time></trkpt><trkpt lat="38.0843283" lon="15.247265"><ele>1053.0</ele><time>2026-04-26T13:24:03.046Z</time></trkpt><trkpt lat="38.0843383" lon="15.2473667"><ele>1053.0</ele><time>2026-04-26T13:24:04.046Z</time></trkpt><trkpt lat="38.0843683" lon="15.2474417"><ele>1053.0</ele><time>2026-04-26T13:24:05.046Z</time></trkpt><trkpt lat="38.0844133" lon="15.2475067"><ele>1053.0</ele><time>2026-04-26T13:24:06.046Z</time></trkpt><trkpt lat="38.084485" lon="15.2475733"><ele>1056.0</ele><time>2026-04-26T13:24:07.047Z</time></trkpt><trkpt lat="38.0845617" lon="15.24766"><ele>1059.0</ele><time>2026-04-26T13:24:08.046Z</time></trkpt><trkpt lat="38.0846233" lon="15.2477583"><ele>1062.0</ele><time>2026-04-26T13:24:09.047Z</time></trkpt><trkpt lat="38.0846917" lon="15.247855"><ele>1065.0</ele><time>2026-04-26T13:24:10.046Z</time></trkpt><trkpt lat="38.0847717" lon="15.24795"><ele>1068.0</ele><time>2026-04-26T13:24:11.046Z</time></trkpt><trkpt lat="38.0848733" lon="15.248045"><ele>1069.0</ele><time>2026-04-26T13:24:12.046Z</time></trkpt><trkpt lat="38.0849933" lon="15.248125"><ele>1070.0</ele><time>2026-04-26T13:24:13.046Z</time></trkpt><trkpt lat="38.0850967" lon="15.248185"><ele>1071.0</ele><time>2026-04-26T13:24:14.046Z</time></trkpt><trkpt lat="38.08519" lon="15.2482617"><ele>1072.0</ele><time>2026-04-26T13:24:15.046Z</time></trkpt><trkpt lat="38.085285" lon="15.2483517"><ele>1072.0</ele><time>2026-04-26T13:24:16.046Z</time></trkpt><trkpt lat="38.08538" lon="15.2484433"><ele>1072.0</ele><time>2026-04-26T13:24:17.046Z</time></trkpt><trkpt lat="38.0854717" lon="15.2485283"><ele>1072.0</ele><time>2026-04-26T13:24:18.046Z</time></trkpt><trkpt lat="38.0855483" lon="15.2486167"><ele>1072.0</ele><time>2026-04-26T13:24:19.047Z</time></trkpt><trkpt lat="38.08562" lon="15.24871"><ele>1072.0</ele><time>2026-04-26T13:24:20.047Z</time></trkpt><trkpt lat="38.0856933" lon="15.2488083"><ele>1072.0</ele><time>2026-04-26T13:24:21.046Z</time></trkpt><trkpt lat="38.0857667" lon="15.2488883"><ele>1072.0</ele><time>2026-04-26T13:24:22.046Z</time></trkpt><trkpt lat="38.08583" lon="15.2489533"><ele>1072.0</ele><time>2026-04-26T13:24:23.046Z</time></trkpt><trkpt lat="38.085865" lon="15.249045"><ele>1072.0</ele><time>2026-04-26T13:24:25.046Z</time></trkpt><trkpt lat="38.0858033" lon="15.24907"><ele>1072.0</ele><time>2026-04-26T13:24:27.046Z</time></trkpt><trkpt lat="38.0857483" lon="15.2490283"><ele>1072.0</ele><time>2026-04-26T13:24:28.046Z</time></trkpt><trkpt lat="38.0856533" lon="15.248925"><ele>1072.0</ele><time>2026-04-26T13:24:30.046Z</time></trkpt><trkpt lat="38.0855883" lon="15.248865"><ele>1072.0</ele><time>2026-04-26T13:24:31.046Z</time></trkpt><trkpt lat="38.0855133" lon="15.2488033"><ele>1072.0</ele><time>2026-04-26T13:24:32.046Z</time></trkpt><trkpt lat="38.0854417" lon="15.2487533"><ele>1072.0</ele><time>2026-04-26T13:24:33.046Z</time></trkpt><trkpt lat="38.0853667" lon="15.2487067"><ele>1072.0</ele><time>2026-04-26T13:24:34.046Z</time></trkpt><trkpt lat="38.0852867" lon="15.2486717"><ele>1072.0</ele><time>2026-04-26T13:24:35.046Z</time></trkpt><trkpt lat="38.0851817" lon="15.2486317"><ele>1072.0</ele><time>2026-04-26T13:24:36.046Z</time></trkpt><trkpt lat="38.085075" lon="15.2485933"><ele>1072.0</ele><time>2026-04-26T13:24:37.047Z</time></trkpt><trkpt lat="38.0849617" lon="15.2485517"><ele>1072.0</ele><time>2026-04-26T13:24:38.046Z</time></trkpt><trkpt lat="38.0848617" lon="15.2485117"><ele>1072.0</ele><time>2026-04-26T13:24:39.046Z</time></trkpt><trkpt lat="38.0847583" lon="15.2484883"><ele>1072.0</ele><time>2026-04-26T13:24:40.046Z</time></trkpt><trkpt lat="38.08466" lon="15.2484667"><ele>1077.0</ele><time>2026-04-26T13:24:41.047Z</time></trkpt><trkpt lat="38.08456" lon="15.2484417"><ele>1082.0</ele><time>2026-04-26T13:24:42.046Z</time></trkpt><trkpt lat="38.0844617" lon="15.2484017"><ele>1087.0</ele><time>2026-04-26T13:24:43.046Z</time></trkpt><trkpt lat="38.08437" lon="15.2483367"><ele>1092.0</ele><time>2026-04-26T13:24:44.046Z</time></trkpt><trkpt lat="38.0842933" lon="15.2482667"><ele>1097.0</ele><time>2026-04-26T13:24:45.047Z</time></trkpt><trkpt lat="38.0842133" lon="15.2482017"><ele>1097.0</ele><time>2026-04-26T13:24:46.046Z</time></trkpt><trkpt lat="38.0841233" lon="15.2481317"><ele>1097.0</ele><time>2026-04-26T13:24:47.046Z</time></trkpt><trkpt lat="38.084035" lon="15.2480533"><ele>1097.0</ele><time>2026-04-26T13:24:48.046Z</time></trkpt><trkpt lat="38.08396" lon="15.2479667"><ele>1097.0</ele><time>2026-04-26T13:24:49.046Z</time></trkpt><trkpt lat="38.0839117" lon="15.247905"><ele>1097.0</ele><time>2026-04-26T13:24:50.046Z</time></trkpt><trkpt lat="38.0838567" lon="15.24786"><ele>1097.0</ele><time>2026-04-26T13:24:52.046Z</time></trkpt><trkpt lat="38.0838983" lon="15.247995"><ele>1097.0</ele><time>2026-04-26T13:24:55.046Z</time></trkpt><trkpt lat="38.0839517" lon="15.24806"><ele>1097.0</ele><time>2026-04-26T13:24:56.046Z</time></trkpt><trkpt lat="38.0840233" lon="15.2481233"><ele>1097.0</ele><time>2026-04-26T13:24:57.046Z</time></trkpt><trkpt lat="38.0841117" lon="15.2482117"><ele>1097.0</ele><time>2026-04-26T13:24:58.047Z</time></trkpt><trkpt lat="38.0842017" lon="15.2483133"><ele>1097.0</ele><time>2026-04-26T13:24:59.046Z</time></trkpt><trkpt lat="38.0843017" lon="15.24841"><ele>1097.0</ele><time>2026-04-26T13:25:00.046Z</time></trkpt><trkpt lat="38.08441" lon="15.2485183"><ele>1097.0</ele><time>2026-04-26T13:25:01.046Z</time></trkpt><trkpt lat="38.08452" lon="15.2486083"><ele>1097.0</ele><time>2026-04-26T13:25:02.046Z</time></trkpt><trkpt lat="38.0846267" lon="15.2486783"><ele>1097.0</ele><time>2026-04-26T13:25:03.046Z</time></trkpt><trkpt lat="38.0847267" lon="15.248745"><ele>1097.0</ele><time>2026-04-26T13:25:04.046Z</time></trkpt><trkpt lat="38.0848067" lon="15.2488067"><ele>1097.0</ele><time>2026-04-26T13:25:05.047Z</time></trkpt><trkpt lat="38.0848667" lon="15.2488717"><ele>1097.0</ele><time>2026-04-26T13:25:06.046Z</time></trkpt><trkpt lat="38.084925" lon="15.2489417"><ele>1097.0</ele><time>2026-04-26T13:25:07.046Z</time></trkpt><trkpt lat="38.0849733" lon="15.2490283"><ele>1097.0</ele><time>2026-04-26T13:25:08.046Z</time></trkpt><trkpt lat="38.0850317" lon="15.2491183"><ele>1097.0</ele><time>2026-04-26T13:25:09.046Z</time></trkpt><trkpt lat="38.085085" lon="15.2492233"><ele>1098.6</ele><time>2026-04-26T13:25:10.046Z</time></trkpt><trkpt lat="38.085145" lon="15.249325"><ele>1100.2</ele><time>2026-04-26T13:25:11.046Z</time></trkpt><trkpt lat="38.085205" lon="15.2494317"><ele>1101.8</ele><time>2026-04-26T13:25:12.046Z</time></trkpt><trkpt lat="38.0852733" lon="15.2495333"><ele>1103.4</ele><time>2026-04-26T13:25:13.046Z</time></trkpt><trkpt lat="38.0853483" lon="15.249615"><ele>1105.0</ele><time>2026-04-26T13:25:14.046Z</time></trkpt><trkpt lat="38.0854367" lon="15.2496917"><ele>1105.0</ele><time>2026-04-26T13:25:15.046Z</time></trkpt><trkpt lat="38.0855217" lon="15.249765"><ele>1105.0</ele><time>2026-04-26T13:25:16.046Z</time></trkpt><trkpt lat="38.0856067" lon="15.2498383"><ele>1105.0</ele><time>2026-04-26T13:25:17.046Z</time></trkpt><trkpt lat="38.08568" lon="15.2499117"><ele>1105.0</ele><time>2026-04-26T13:25:18.046Z</time></trkpt><trkpt lat="38.0857383" lon="15.2499717"><ele>1105.0</ele><time>2026-04-26T13:25:19.046Z</time></trkpt><trkpt lat="38.0857983" lon="15.250065"><ele>1107.6666666666665</ele><time>2026-04-26T13:25:21.046Z</time></trkpt><trkpt lat="38.0857067" lon="15.2500533"><ele>1110.3333333333333</ele><time>2026-04-26T13:25:24.046Z</time></trkpt><trkpt lat="38.0856033" lon="15.249985"><ele>1113.0</ele><time>2026-04-26T13:25:26.046Z</time></trkpt><trkpt lat="38.0855417" lon="15.24996"><ele>1115.6666666666667</ele><time>2026-04-26T13:25:27.046Z</time></trkpt><trkpt lat="38.08547" lon="15.249945"><ele>1118.3333333333335</ele><time>2026-04-26T13:25:28.046Z</time></trkpt><trkpt lat="38.0853917" lon="15.249925"><ele>1121.0</ele><time>2026-04-26T13:25:29.046Z</time></trkpt><trkpt lat="38.085315" lon="15.2498967"><ele>1121.0</ele><time>2026-04-26T13:25:30.046Z</time></trkpt><trkpt lat="38.085235" lon="15.2498667"><ele>1121.0</ele><time>2026-04-26T13:25:31.046Z</time></trkpt><trkpt lat="38.0851683" lon="15.249835"><ele>1121.0</ele><time>2026-04-26T13:25:32.046Z</time></trkpt><trkpt lat="38.08507" lon="15.2497817"><ele>1121.0</ele><time>2026-04-26T13:25:34.046Z</time></trkpt><trkpt lat="38.0850908" lon="15.249867"><ele>1121.0</ele><time>2026-04-26T13:25:46.046Z</time></trkpt><trkpt lat="38.0851513" lon="15.2499394"><ele>1121.0</ele><time>2026-04-26T13:25:48.046Z</time></trkpt><trkpt lat="38.0850958" lon="15.2499937"><ele>1121.0</ele><time>2026-04-26T13:25:52.046Z</time></trkpt><trkpt lat="38.0850267" lon="15.249985"><ele>1121.0</ele><time>2026-04-26T13:27:27.046Z</time></trkpt><trkpt lat="38.084945" lon="15.2499717"><ele>1121.0</ele><time>2026-04-26T13:27:28.046Z</time></trkpt><trkpt lat="38.08486" lon="15.2499567"><ele>1121.0</ele><time>2026-04-26T13:27:29.046Z</time></trkpt><trkpt lat="38.0847833" lon="15.2499483"><ele>1121.0</ele><time>2026-04-26T13:27:30.046Z</time></trkpt><trkpt lat="38.0847133" lon="15.2499367"><ele>1121.0</ele><time>2026-04-26T13:27:31.046Z</time></trkpt><trkpt lat="38.08465" lon="15.24992"><ele>1121.4285714285716</ele><time>2026-04-26T13:27:32.046Z</time></trkpt><trkpt lat="38.0845833" lon="15.2498967"><ele>1121.857142857143</ele><time>2026-04-26T13:27:33.046Z</time></trkpt><trkpt lat="38.0845167" lon="15.24987"><ele>1122.2857142857142</ele><time>2026-04-26T13:27:34.046Z</time></trkpt><trkpt lat="38.0844467" lon="15.2498433"><ele>1122.7142857142858</ele><time>2026-04-26T13:27:35.046Z</time></trkpt><trkpt lat="38.0843767" lon="15.2498183"><ele>1123.142857142857</ele><time>2026-04-26T13:27:36.046Z</time></trkpt><trkpt lat="38.0843017" lon="15.2498017"><ele>1123.5714285714287</ele><time>2026-04-26T13:27:37.046Z</time></trkpt><trkpt lat="38.08423" lon="15.2497817"><ele>1124.0</ele><time>2026-04-26T13:27:38.046Z</time></trkpt><trkpt lat="38.084155" lon="15.2497533"><ele>1126.8</ele><time>2026-04-26T13:27:39.047Z</time></trkpt><trkpt lat="38.084075" lon="15.24972"><ele>1129.6000000000001</ele><time>2026-04-26T13:27:40.047Z</time></trkpt><trkpt lat="38.0839867" lon="15.2496867"><ele>1132.4</ele><time>2026-04-26T13:27:41.046Z</time></trkpt><trkpt lat="38.0838933" lon="15.249645"><ele>1135.2</ele><time>2026-04-26T13:27:42.046Z</time></trkpt><trkpt lat="38.0837967" lon="15.2496033"><ele>1138.0</ele><time>2026-04-26T13:27:43.046Z</time></trkpt><trkpt lat="38.0837017" lon="15.2495517"><ele>1138.0</ele><time>2026-04-26T13:27:44.046Z</time></trkpt><trkpt lat="38.0836167" lon="15.24951"><ele>1138.0</ele><time>2026-04-26T13:27:45.046Z</time></trkpt><trkpt lat="38.0835433" lon="15.2494667"><ele>1138.0</ele><time>2026-04-26T13:27:46.046Z</time></trkpt><trkpt lat="38.0834667" lon="15.2494233"><ele>1138.0</ele><time>2026-04-26T13:27:47.046Z</time></trkpt><trkpt lat="38.0833867" lon="15.24939"><ele>1138.0</ele><time>2026-04-26T13:27:48.046Z</time></trkpt><trkpt lat="38.0833083" lon="15.2493617"><ele>1138.0</ele><time>2026-04-26T13:27:49.047Z</time></trkpt><trkpt lat="38.0832267" lon="15.2493333"><ele>1141.5</ele><time>2026-04-26T13:27:50.046Z</time></trkpt><trkpt lat="38.0831355" lon="15.2493115"><ele>1145.0</ele><time>2026-04-26T13:27:51.046Z</time></trkpt><trkpt lat="38.083048" lon="15.2492883"><ele>1148.5</ele><time>2026-04-26T13:27:52.046Z</time></trkpt><trkpt lat="38.0829642" lon="15.2492645"><ele>1152.0</ele><time>2026-04-26T13:27:53.046Z</time></trkpt><trkpt lat="38.0828839" lon="15.249239"><ele>1155.5</ele><time>2026-04-26T13:27:54.046Z</time></trkpt><trkpt lat="38.0828083" lon="15.2492067"><ele>1159.0</ele><time>2026-04-26T13:27:55.046Z</time></trkpt><trkpt lat="38.0827303" lon="15.2491728"><ele>1159.0</ele><time>2026-04-26T13:27:56.046Z</time></trkpt><trkpt lat="38.0826477" lon="15.2491324"><ele>1159.0</ele><time>2026-04-26T13:27:57.046Z</time></trkpt><trkpt lat="38.0825632" lon="15.2490855"><ele>1159.0</ele><time>2026-04-26T13:27:58.046Z</time></trkpt><trkpt lat="38.0824748" lon="15.2490391"><ele>1159.0</ele><time>2026-04-26T13:27:59.046Z</time></trkpt><trkpt lat="38.0823884" lon="15.2489973"><ele>1159.0</ele><time>2026-04-26T13:28:00.046Z</time></trkpt><trkpt lat="38.08231" lon="15.2489598"><ele>1158.3333333333333</ele><time>2026-04-26T13:28:01.046Z</time></trkpt><trkpt lat="38.0822407" lon="15.2489283"><ele>1157.6666666666665</ele><time>2026-04-26T13:28:02.046Z</time></trkpt><trkpt lat="38.0821224" lon="15.2488853"><ele>1157.0</ele><time>2026-04-26T13:28:04.046Z</time></trkpt><trkpt lat="38.0820532" lon="15.2488768"><ele>1156.3333333333333</ele><time>2026-04-26T13:28:05.046Z</time></trkpt><trkpt lat="38.0819843" lon="15.2488676"><ele>1155.6666666666667</ele><time>2026-04-26T13:28:06.046Z</time></trkpt><trkpt lat="38.0819164" lon="15.2488637"><ele>1155.0</ele><time>2026-04-26T13:28:07.046Z</time></trkpt><trkpt lat="38.081821" lon="15.2488735"><ele>1155.0</ele><time>2026-04-26T13:28:09.046Z</time></trkpt><trkpt lat="38.0818453" lon="15.2487977"><ele>1155.0</ele><time>2026-04-26T13:28:16.046Z</time></trkpt></trkseg></trk></gpx>